<?xml version="1.0" encoding="UTF-8" standalone="no" ?>
<gpx xmlns="http://www.topografix.com/GPX/1/1" xmlns:xsi="http://www.w3.org/2001/XMLSchema-instance" xsi:schemaLocation="http://www.topografix.com/GPX/1/1 http://www.topografix.com/GPX/1/1/gpx.xsd" version="1.1" creator="VisuGPX - https://www.visugpx.com">
  <metadata>
    <name>Track2018/06/10_07:49</name>
    <desc><![CDATA[Roc de saou tres belle journée; bien organise 
Tres dur a certains endroits mais les efforts valaient le coups paysage de paradis
les muscles en vrac mais la tete pleine de beaux souvenirs
]]></desc>
  </metadata>
  <wpt lat="44.64628" lon="5.064">
    <ele>338</ele>
    <name><![CDATA[Lat:44.646281, Lon:5.063998, Ele:338.000000]]></name>
  </wpt>
  <wpt lat="44.64644" lon="5.06386">
    <ele>345</ele>
    <name><![CDATA[Lat:44.646439, Lon:5.063863, Ele:345.000000]]></name>
  </wpt>
  <trk>
    <name><![CDATA[Track2018/06/10_07:49]]></name>
    <trkseg>
      <trkpt lat="44.64628" lon="5.064">
        <ele>338</ele>
        <time>2018-06-10T07:49:59Z</time>
      </trkpt>
      <trkpt lat="44.64629" lon="5.06404">
        <ele>338</ele>
        <time>2018-06-10T07:50:03Z</time>
      </trkpt>
      <trkpt lat="44.64629" lon="5.06407">
        <ele>338</ele>
        <time>2018-06-10T07:50:05Z</time>
      </trkpt>
      <trkpt lat="44.64631" lon="5.06408">
        <ele>337</ele>
        <time>2018-06-10T07:50:07Z</time>
      </trkpt>
      <trkpt lat="44.64633" lon="5.0641">
        <ele>337</ele>
        <time>2018-06-10T07:50:09Z</time>
      </trkpt>
      <trkpt lat="44.64635" lon="5.06412">
        <ele>338</ele>
        <time>2018-06-10T07:50:11Z</time>
      </trkpt>
      <trkpt lat="44.64638" lon="5.06414">
        <ele>338</ele>
        <time>2018-06-10T07:50:13Z</time>
      </trkpt>
      <trkpt lat="44.64641" lon="5.06417">
        <ele>338</ele>
        <time>2018-06-10T07:50:15Z</time>
      </trkpt>
      <trkpt lat="44.64646" lon="5.06415">
        <ele>338</ele>
        <time>2018-06-10T07:50:17Z</time>
      </trkpt>
      <trkpt lat="44.6465" lon="5.06412">
        <ele>338</ele>
        <time>2018-06-10T07:50:19Z</time>
      </trkpt>
      <trkpt lat="44.6465" lon="5.06407">
        <ele>338</ele>
        <time>2018-06-10T07:50:21Z</time>
      </trkpt>
      <trkpt lat="44.64652" lon="5.06403">
        <ele>338</ele>
        <time>2018-06-10T07:50:23Z</time>
      </trkpt>
      <trkpt lat="44.64655" lon="5.06401">
        <ele>338</ele>
        <time>2018-06-10T07:50:25Z</time>
      </trkpt>
      <trkpt lat="44.64658" lon="5.06403">
        <ele>338</ele>
        <time>2018-06-10T07:50:27Z</time>
      </trkpt>
      <trkpt lat="44.64661" lon="5.06403">
        <ele>338</ele>
        <time>2018-06-10T07:50:29Z</time>
      </trkpt>
      <trkpt lat="44.64662" lon="5.064">
        <ele>338</ele>
        <time>2018-06-10T07:50:31Z</time>
      </trkpt>
      <trkpt lat="44.64664" lon="5.06395">
        <ele>339</ele>
        <time>2018-06-10T07:50:34Z</time>
      </trkpt>
      <trkpt lat="44.64665" lon="5.06391">
        <ele>339</ele>
        <time>2018-06-10T07:50:36Z</time>
      </trkpt>
      <trkpt lat="44.64665" lon="5.06384">
        <ele>339</ele>
        <time>2018-06-10T07:50:38Z</time>
      </trkpt>
      <trkpt lat="44.64664" lon="5.06378">
        <ele>339</ele>
        <time>2018-06-10T07:50:40Z</time>
      </trkpt>
      <trkpt lat="44.64661" lon="5.06372">
        <ele>339</ele>
        <time>2018-06-10T07:50:42Z</time>
      </trkpt>
      <trkpt lat="44.6466" lon="5.06365">
        <ele>339</ele>
        <time>2018-06-10T07:50:44Z</time>
      </trkpt>
      <trkpt lat="44.6466" lon="5.06358">
        <ele>339</ele>
        <time>2018-06-10T07:50:46Z</time>
      </trkpt>
      <trkpt lat="44.64661" lon="5.0635">
        <ele>339</ele>
        <time>2018-06-10T07:50:48Z</time>
      </trkpt>
      <trkpt lat="44.6466" lon="5.0634">
        <ele>339</ele>
        <time>2018-06-10T07:50:50Z</time>
      </trkpt>
      <trkpt lat="44.6466" lon="5.06331">
        <ele>338</ele>
        <time>2018-06-10T07:50:52Z</time>
      </trkpt>
      <trkpt lat="44.64659" lon="5.06323">
        <ele>338</ele>
        <time>2018-06-10T07:50:54Z</time>
      </trkpt>
      <trkpt lat="44.64657" lon="5.06315">
        <ele>338</ele>
        <time>2018-06-10T07:50:56Z</time>
      </trkpt>
      <trkpt lat="44.64654" lon="5.06308">
        <ele>339</ele>
        <time>2018-06-10T07:50:58Z</time>
      </trkpt>
      <trkpt lat="44.64654" lon="5.063">
        <ele>339</ele>
        <time>2018-06-10T07:51:00Z</time>
      </trkpt>
      <trkpt lat="44.64656" lon="5.06295">
        <ele>338</ele>
        <time>2018-06-10T07:51:02Z</time>
      </trkpt>
      <trkpt lat="44.64655" lon="5.06289">
        <ele>339</ele>
        <time>2018-06-10T07:51:04Z</time>
      </trkpt>
      <trkpt lat="44.64654" lon="5.06282">
        <ele>339</ele>
        <time>2018-06-10T07:51:06Z</time>
      </trkpt>
      <trkpt lat="44.64658" lon="5.06279">
        <ele>339</ele>
        <time>2018-06-10T07:51:08Z</time>
      </trkpt>
      <trkpt lat="44.64659" lon="5.06273">
        <ele>339</ele>
        <time>2018-06-10T07:51:10Z</time>
      </trkpt>
      <trkpt lat="44.64664" lon="5.06268">
        <ele>339</ele>
        <time>2018-06-10T07:51:12Z</time>
      </trkpt>
      <trkpt lat="44.64667" lon="5.06266">
        <ele>339</ele>
        <time>2018-06-10T07:51:14Z</time>
      </trkpt>
      <trkpt lat="44.64669" lon="5.06264">
        <ele>340</ele>
        <time>2018-06-10T07:51:16Z</time>
      </trkpt>
      <trkpt lat="44.64673" lon="5.06263">
        <ele>340</ele>
        <time>2018-06-10T07:51:18Z</time>
      </trkpt>
      <trkpt lat="44.64678" lon="5.06264">
        <ele>340</ele>
        <time>2018-06-10T07:51:20Z</time>
      </trkpt>
      <trkpt lat="44.64685" lon="5.06264">
        <ele>340</ele>
        <time>2018-06-10T07:51:22Z</time>
      </trkpt>
      <trkpt lat="44.64691" lon="5.06263">
        <ele>340</ele>
        <time>2018-06-10T07:51:24Z</time>
      </trkpt>
      <trkpt lat="44.64698" lon="5.0626">
        <ele>340</ele>
        <time>2018-06-10T07:51:26Z</time>
      </trkpt>
      <trkpt lat="44.64703" lon="5.06255">
        <ele>340</ele>
        <time>2018-06-10T07:51:28Z</time>
      </trkpt>
      <trkpt lat="44.64703" lon="5.06247">
        <ele>341</ele>
        <time>2018-06-10T07:51:30Z</time>
      </trkpt>
      <trkpt lat="44.64702" lon="5.06238">
        <ele>340</ele>
        <time>2018-06-10T07:51:32Z</time>
      </trkpt>
      <trkpt lat="44.64701" lon="5.06223">
        <ele>340</ele>
        <time>2018-06-10T07:51:34Z</time>
      </trkpt>
      <trkpt lat="44.64701" lon="5.06212">
        <ele>340</ele>
        <time>2018-06-10T07:51:36Z</time>
      </trkpt>
      <trkpt lat="44.64703" lon="5.06203">
        <ele>340</ele>
        <time>2018-06-10T07:51:38Z</time>
      </trkpt>
      <trkpt lat="44.64703" lon="5.06193">
        <ele>340</ele>
        <time>2018-06-10T07:51:40Z</time>
      </trkpt>
      <trkpt lat="44.64703" lon="5.06183">
        <ele>340</ele>
        <time>2018-06-10T07:51:42Z</time>
      </trkpt>
      <trkpt lat="44.64703" lon="5.06174">
        <ele>341</ele>
        <time>2018-06-10T07:51:44Z</time>
      </trkpt>
      <trkpt lat="44.64702" lon="5.06165">
        <ele>341</ele>
        <time>2018-06-10T07:51:47Z</time>
      </trkpt>
      <trkpt lat="44.64701" lon="5.06155">
        <ele>341</ele>
        <time>2018-06-10T07:51:49Z</time>
      </trkpt>
      <trkpt lat="44.647" lon="5.06145">
        <ele>341</ele>
        <time>2018-06-10T07:51:51Z</time>
      </trkpt>
      <trkpt lat="44.64698" lon="5.06135">
        <ele>341</ele>
        <time>2018-06-10T07:51:53Z</time>
      </trkpt>
      <trkpt lat="44.64697" lon="5.06125">
        <ele>341</ele>
        <time>2018-06-10T07:51:55Z</time>
      </trkpt>
      <trkpt lat="44.64697" lon="5.06115">
        <ele>341</ele>
        <time>2018-06-10T07:51:57Z</time>
      </trkpt>
      <trkpt lat="44.647" lon="5.06107">
        <ele>341</ele>
        <time>2018-06-10T07:51:59Z</time>
      </trkpt>
      <trkpt lat="44.64706" lon="5.06104">
        <ele>341</ele>
        <time>2018-06-10T07:52:01Z</time>
      </trkpt>
      <trkpt lat="44.6471" lon="5.06102">
        <ele>342</ele>
        <time>2018-06-10T07:52:03Z</time>
      </trkpt>
      <trkpt lat="44.64715" lon="5.061">
        <ele>342</ele>
        <time>2018-06-10T07:52:05Z</time>
      </trkpt>
      <trkpt lat="44.64719" lon="5.06099">
        <ele>342</ele>
        <time>2018-06-10T07:52:07Z</time>
      </trkpt>
      <trkpt lat="44.64723" lon="5.06097">
        <ele>343</ele>
        <time>2018-06-10T07:52:09Z</time>
      </trkpt>
      <trkpt lat="44.64727" lon="5.06093">
        <ele>343</ele>
        <time>2018-06-10T07:52:11Z</time>
      </trkpt>
      <trkpt lat="44.64729" lon="5.06087">
        <ele>343</ele>
        <time>2018-06-10T07:52:13Z</time>
      </trkpt>
      <trkpt lat="44.64729" lon="5.06079">
        <ele>344</ele>
        <time>2018-06-10T07:52:15Z</time>
      </trkpt>
      <trkpt lat="44.64729" lon="5.06071">
        <ele>344</ele>
        <time>2018-06-10T07:52:17Z</time>
      </trkpt>
      <trkpt lat="44.64728" lon="5.06062">
        <ele>344</ele>
        <time>2018-06-10T07:52:19Z</time>
      </trkpt>
      <trkpt lat="44.64727" lon="5.06053">
        <ele>344</ele>
        <time>2018-06-10T07:52:21Z</time>
      </trkpt>
      <trkpt lat="44.64726" lon="5.06044">
        <ele>344</ele>
        <time>2018-06-10T07:52:23Z</time>
      </trkpt>
      <trkpt lat="44.64725" lon="5.06034">
        <ele>344</ele>
        <time>2018-06-10T07:52:25Z</time>
      </trkpt>
      <trkpt lat="44.64723" lon="5.06024">
        <ele>344</ele>
        <time>2018-06-10T07:52:27Z</time>
      </trkpt>
      <trkpt lat="44.64722" lon="5.06014">
        <ele>344</ele>
        <time>2018-06-10T07:52:29Z</time>
      </trkpt>
      <trkpt lat="44.64722" lon="5.06004">
        <ele>344</ele>
        <time>2018-06-10T07:52:31Z</time>
      </trkpt>
      <trkpt lat="44.64721" lon="5.05995">
        <ele>345</ele>
        <time>2018-06-10T07:52:33Z</time>
      </trkpt>
      <trkpt lat="44.64719" lon="5.0598">
        <ele>345</ele>
        <time>2018-06-10T07:52:35Z</time>
      </trkpt>
      <trkpt lat="44.64717" lon="5.0597">
        <ele>345</ele>
        <time>2018-06-10T07:52:37Z</time>
      </trkpt>
      <trkpt lat="44.64714" lon="5.05961">
        <ele>345</ele>
        <time>2018-06-10T07:52:40Z</time>
      </trkpt>
      <trkpt lat="44.64711" lon="5.05953">
        <ele>345</ele>
        <time>2018-06-10T07:52:42Z</time>
      </trkpt>
      <trkpt lat="44.64709" lon="5.05944">
        <ele>346</ele>
        <time>2018-06-10T07:52:44Z</time>
      </trkpt>
      <trkpt lat="44.64709" lon="5.05934">
        <ele>346</ele>
        <time>2018-06-10T07:52:46Z</time>
      </trkpt>
      <trkpt lat="44.64709" lon="5.05924">
        <ele>346</ele>
        <time>2018-06-10T07:52:48Z</time>
      </trkpt>
      <trkpt lat="44.64707" lon="5.05914">
        <ele>346</ele>
        <time>2018-06-10T07:52:50Z</time>
      </trkpt>
      <trkpt lat="44.64706" lon="5.05903">
        <ele>345</ele>
        <time>2018-06-10T07:52:52Z</time>
      </trkpt>
      <trkpt lat="44.64705" lon="5.05894">
        <ele>346</ele>
        <time>2018-06-10T07:52:54Z</time>
      </trkpt>
      <trkpt lat="44.64704" lon="5.05885">
        <ele>346</ele>
        <time>2018-06-10T07:52:56Z</time>
      </trkpt>
      <trkpt lat="44.64703" lon="5.05877">
        <ele>346</ele>
        <time>2018-06-10T07:52:58Z</time>
      </trkpt>
      <trkpt lat="44.64702" lon="5.0587">
        <ele>346</ele>
        <time>2018-06-10T07:53:00Z</time>
      </trkpt>
      <trkpt lat="44.64701" lon="5.05861">
        <ele>345</ele>
        <time>2018-06-10T07:53:02Z</time>
      </trkpt>
      <trkpt lat="44.64699" lon="5.05847">
        <ele>344</ele>
        <time>2018-06-10T07:53:04Z</time>
      </trkpt>
      <trkpt lat="44.64696" lon="5.05831">
        <ele>343</ele>
        <time>2018-06-10T07:53:06Z</time>
      </trkpt>
      <trkpt lat="44.64695" lon="5.05815">
        <ele>343</ele>
        <time>2018-06-10T07:53:08Z</time>
      </trkpt>
      <trkpt lat="44.64692" lon="5.05802">
        <ele>342</ele>
        <time>2018-06-10T07:53:10Z</time>
      </trkpt>
      <trkpt lat="44.64687" lon="5.05787">
        <ele>343</ele>
        <time>2018-06-10T07:53:12Z</time>
      </trkpt>
      <trkpt lat="44.64685" lon="5.05781">
        <ele>343</ele>
        <time>2018-06-10T07:53:14Z</time>
      </trkpt>
      <trkpt lat="44.64684" lon="5.05774">
        <ele>343</ele>
        <time>2018-06-10T07:53:16Z</time>
      </trkpt>
      <trkpt lat="44.64684" lon="5.05768">
        <ele>344</ele>
        <time>2018-06-10T07:53:18Z</time>
      </trkpt>
      <trkpt lat="44.64685" lon="5.0576">
        <ele>344</ele>
        <time>2018-06-10T07:53:20Z</time>
      </trkpt>
      <trkpt lat="44.64686" lon="5.05753">
        <ele>344</ele>
        <time>2018-06-10T07:53:23Z</time>
      </trkpt>
      <trkpt lat="44.64687" lon="5.05745">
        <ele>345</ele>
        <time>2018-06-10T07:53:25Z</time>
      </trkpt>
      <trkpt lat="44.64688" lon="5.05739">
        <ele>345</ele>
        <time>2018-06-10T07:53:27Z</time>
      </trkpt>
      <trkpt lat="44.64689" lon="5.05731">
        <ele>345</ele>
        <time>2018-06-10T07:53:29Z</time>
      </trkpt>
      <trkpt lat="44.64688" lon="5.05724">
        <ele>345</ele>
        <time>2018-06-10T07:53:31Z</time>
      </trkpt>
      <trkpt lat="44.64689" lon="5.05717">
        <ele>346</ele>
        <time>2018-06-10T07:53:33Z</time>
      </trkpt>
      <trkpt lat="44.64688" lon="5.0571">
        <ele>346</ele>
        <time>2018-06-10T07:53:35Z</time>
      </trkpt>
      <trkpt lat="44.64688" lon="5.05702">
        <ele>346</ele>
        <time>2018-06-10T07:53:37Z</time>
      </trkpt>
      <trkpt lat="44.6469" lon="5.05695">
        <ele>347</ele>
        <time>2018-06-10T07:53:39Z</time>
      </trkpt>
      <trkpt lat="44.64691" lon="5.05687">
        <ele>347</ele>
        <time>2018-06-10T07:53:41Z</time>
      </trkpt>
      <trkpt lat="44.64692" lon="5.05678">
        <ele>347</ele>
        <time>2018-06-10T07:53:43Z</time>
      </trkpt>
      <trkpt lat="44.64693" lon="5.05671">
        <ele>347</ele>
        <time>2018-06-10T07:53:45Z</time>
      </trkpt>
      <trkpt lat="44.64694" lon="5.05664">
        <ele>347</ele>
        <time>2018-06-10T07:53:47Z</time>
      </trkpt>
      <trkpt lat="44.64694" lon="5.05656">
        <ele>347</ele>
        <time>2018-06-10T07:53:49Z</time>
      </trkpt>
      <trkpt lat="44.64694" lon="5.05647">
        <ele>347</ele>
        <time>2018-06-10T07:53:51Z</time>
      </trkpt>
      <trkpt lat="44.64693" lon="5.05638">
        <ele>347</ele>
        <time>2018-06-10T07:53:53Z</time>
      </trkpt>
      <trkpt lat="44.64692" lon="5.05631">
        <ele>347</ele>
        <time>2018-06-10T07:53:55Z</time>
      </trkpt>
      <trkpt lat="44.6469" lon="5.05619">
        <ele>347</ele>
        <time>2018-06-10T07:53:57Z</time>
      </trkpt>
      <trkpt lat="44.64689" lon="5.05611">
        <ele>347</ele>
        <time>2018-06-10T07:54:00Z</time>
      </trkpt>
      <trkpt lat="44.64688" lon="5.05602">
        <ele>346</ele>
        <time>2018-06-10T07:54:02Z</time>
      </trkpt>
      <trkpt lat="44.64687" lon="5.05593">
        <ele>347</ele>
        <time>2018-06-10T07:54:04Z</time>
      </trkpt>
      <trkpt lat="44.64684" lon="5.05584">
        <ele>346</ele>
        <time>2018-06-10T07:54:06Z</time>
      </trkpt>
      <trkpt lat="44.64681" lon="5.05576">
        <ele>347</ele>
        <time>2018-06-10T07:54:08Z</time>
      </trkpt>
      <trkpt lat="44.6468" lon="5.0557">
        <ele>347</ele>
        <time>2018-06-10T07:54:10Z</time>
      </trkpt>
      <trkpt lat="44.64677" lon="5.05563">
        <ele>348</ele>
        <time>2018-06-10T07:54:12Z</time>
      </trkpt>
      <trkpt lat="44.64675" lon="5.05558">
        <ele>348</ele>
        <time>2018-06-10T07:54:14Z</time>
      </trkpt>
      <trkpt lat="44.64675" lon="5.05552">
        <ele>349</ele>
        <time>2018-06-10T07:54:16Z</time>
      </trkpt>
      <trkpt lat="44.64672" lon="5.05545">
        <ele>349</ele>
        <time>2018-06-10T07:54:18Z</time>
      </trkpt>
      <trkpt lat="44.64668" lon="5.05534">
        <ele>349</ele>
        <time>2018-06-10T07:54:20Z</time>
      </trkpt>
      <trkpt lat="44.64665" lon="5.05527">
        <ele>349</ele>
        <time>2018-06-10T07:54:22Z</time>
      </trkpt>
      <trkpt lat="44.64663" lon="5.0552">
        <ele>350</ele>
        <time>2018-06-10T07:54:24Z</time>
      </trkpt>
      <trkpt lat="44.64661" lon="5.05514">
        <ele>350</ele>
        <time>2018-06-10T07:54:26Z</time>
      </trkpt>
      <trkpt lat="44.64659" lon="5.05507">
        <ele>350</ele>
        <time>2018-06-10T07:54:28Z</time>
      </trkpt>
      <trkpt lat="44.64656" lon="5.05501">
        <ele>350</ele>
        <time>2018-06-10T07:54:30Z</time>
      </trkpt>
      <trkpt lat="44.64653" lon="5.05495">
        <ele>350</ele>
        <time>2018-06-10T07:54:32Z</time>
      </trkpt>
      <trkpt lat="44.64645" lon="5.05487">
        <ele>350</ele>
        <time>2018-06-10T07:54:34Z</time>
      </trkpt>
      <trkpt lat="44.64638" lon="5.05489">
        <ele>350</ele>
        <time>2018-06-10T07:54:37Z</time>
      </trkpt>
      <trkpt lat="44.64632" lon="5.05492">
        <ele>349</ele>
        <time>2018-06-10T07:54:39Z</time>
      </trkpt>
      <trkpt lat="44.64624" lon="5.05496">
        <ele>349</ele>
        <time>2018-06-10T07:54:41Z</time>
      </trkpt>
      <trkpt lat="44.64614" lon="5.05498">
        <ele>348</ele>
        <time>2018-06-10T07:54:43Z</time>
      </trkpt>
      <trkpt lat="44.64601" lon="5.05497">
        <ele>347</ele>
        <time>2018-06-10T07:54:45Z</time>
      </trkpt>
      <trkpt lat="44.64586" lon="5.055">
        <ele>345</ele>
        <time>2018-06-10T07:54:47Z</time>
      </trkpt>
      <trkpt lat="44.64569" lon="5.05507">
        <ele>343</ele>
        <time>2018-06-10T07:54:49Z</time>
      </trkpt>
      <trkpt lat="44.6455" lon="5.05514">
        <ele>343</ele>
        <time>2018-06-10T07:54:51Z</time>
      </trkpt>
      <trkpt lat="44.64531" lon="5.05522">
        <ele>341</ele>
        <time>2018-06-10T07:54:53Z</time>
      </trkpt>
      <trkpt lat="44.64512" lon="5.05532">
        <ele>340</ele>
        <time>2018-06-10T07:54:55Z</time>
      </trkpt>
      <trkpt lat="44.64494" lon="5.05542">
        <ele>338</ele>
        <time>2018-06-10T07:54:57Z</time>
      </trkpt>
      <trkpt lat="44.6448" lon="5.05549">
        <ele>338</ele>
        <time>2018-06-10T07:54:59Z</time>
      </trkpt>
      <trkpt lat="44.6447" lon="5.05554">
        <ele>336</ele>
        <time>2018-06-10T07:55:01Z</time>
      </trkpt>
      <trkpt lat="44.64462" lon="5.05558">
        <ele>335</ele>
        <time>2018-06-10T07:55:03Z</time>
      </trkpt>
      <trkpt lat="44.64453" lon="5.05561">
        <ele>335</ele>
        <time>2018-06-10T07:55:05Z</time>
      </trkpt>
      <trkpt lat="44.64445" lon="5.05566">
        <ele>335</ele>
        <time>2018-06-10T07:55:07Z</time>
      </trkpt>
      <trkpt lat="44.64437" lon="5.05572">
        <ele>334</ele>
        <time>2018-06-10T07:55:09Z</time>
      </trkpt>
      <trkpt lat="44.64427" lon="5.05579">
        <ele>334</ele>
        <time>2018-06-10T07:55:11Z</time>
      </trkpt>
      <trkpt lat="44.64418" lon="5.05586">
        <ele>333</ele>
        <time>2018-06-10T07:55:13Z</time>
      </trkpt>
      <trkpt lat="44.64409" lon="5.05593">
        <ele>333</ele>
        <time>2018-06-10T07:55:15Z</time>
      </trkpt>
      <trkpt lat="44.644" lon="5.05601">
        <ele>333</ele>
        <time>2018-06-10T07:55:17Z</time>
      </trkpt>
      <trkpt lat="44.64391" lon="5.05608">
        <ele>333</ele>
        <time>2018-06-10T07:55:19Z</time>
      </trkpt>
      <trkpt lat="44.6438" lon="5.05616">
        <ele>332</ele>
        <time>2018-06-10T07:55:21Z</time>
      </trkpt>
      <trkpt lat="44.64369" lon="5.05624">
        <ele>331</ele>
        <time>2018-06-10T07:55:23Z</time>
      </trkpt>
      <trkpt lat="44.64357" lon="5.05633">
        <ele>330</ele>
        <time>2018-06-10T07:55:25Z</time>
      </trkpt>
      <trkpt lat="44.64345" lon="5.05642">
        <ele>330</ele>
        <time>2018-06-10T07:55:27Z</time>
      </trkpt>
      <trkpt lat="44.64333" lon="5.05653">
        <ele>329</ele>
        <time>2018-06-10T07:55:29Z</time>
      </trkpt>
      <trkpt lat="44.64321" lon="5.05665">
        <ele>329</ele>
        <time>2018-06-10T07:55:31Z</time>
      </trkpt>
      <trkpt lat="44.6431" lon="5.05678">
        <ele>329</ele>
        <time>2018-06-10T07:55:33Z</time>
      </trkpt>
      <trkpt lat="44.643" lon="5.0569">
        <ele>329</ele>
        <time>2018-06-10T07:55:35Z</time>
      </trkpt>
      <trkpt lat="44.6429" lon="5.05702">
        <ele>328</ele>
        <time>2018-06-10T07:55:37Z</time>
      </trkpt>
      <trkpt lat="44.6428" lon="5.05712">
        <ele>329</ele>
        <time>2018-06-10T07:55:39Z</time>
      </trkpt>
      <trkpt lat="44.64271" lon="5.05723">
        <ele>328</ele>
        <time>2018-06-10T07:55:41Z</time>
      </trkpt>
      <trkpt lat="44.64259" lon="5.05737">
        <ele>328</ele>
        <time>2018-06-10T07:55:43Z</time>
      </trkpt>
      <trkpt lat="44.64252" lon="5.05747">
        <ele>328</ele>
        <time>2018-06-10T07:55:45Z</time>
      </trkpt>
      <trkpt lat="44.64245" lon="5.05756">
        <ele>328</ele>
        <time>2018-06-10T07:55:47Z</time>
      </trkpt>
      <trkpt lat="44.64238" lon="5.05765">
        <ele>328</ele>
        <time>2018-06-10T07:55:50Z</time>
      </trkpt>
      <trkpt lat="44.6423" lon="5.05775">
        <ele>328</ele>
        <time>2018-06-10T07:55:52Z</time>
      </trkpt>
      <trkpt lat="44.64223" lon="5.05784">
        <ele>327</ele>
        <time>2018-06-10T07:55:54Z</time>
      </trkpt>
      <trkpt lat="44.64215" lon="5.05795">
        <ele>327</ele>
        <time>2018-06-10T07:55:56Z</time>
      </trkpt>
      <trkpt lat="44.64207" lon="5.05804">
        <ele>327</ele>
        <time>2018-06-10T07:55:58Z</time>
      </trkpt>
      <trkpt lat="44.64204" lon="5.05817">
        <ele>327</ele>
        <time>2018-06-10T07:56:00Z</time>
      </trkpt>
      <trkpt lat="44.64208" lon="5.05825">
        <ele>328</ele>
        <time>2018-06-10T07:56:02Z</time>
      </trkpt>
      <trkpt lat="44.64214" lon="5.05831">
        <ele>329</ele>
        <time>2018-06-10T07:56:04Z</time>
      </trkpt>
      <trkpt lat="44.64222" lon="5.05837">
        <ele>329</ele>
        <time>2018-06-10T07:56:06Z</time>
      </trkpt>
      <trkpt lat="44.6423" lon="5.05831">
        <ele>328</ele>
        <time>2018-06-10T07:56:08Z</time>
      </trkpt>
      <trkpt lat="44.64237" lon="5.05822">
        <ele>328</ele>
        <time>2018-06-10T07:56:10Z</time>
      </trkpt>
      <trkpt lat="44.64244" lon="5.05825">
        <ele>328</ele>
        <time>2018-06-10T07:56:12Z</time>
      </trkpt>
      <trkpt lat="44.6425" lon="5.05832">
        <ele>328</ele>
        <time>2018-06-10T07:56:14Z</time>
      </trkpt>
      <trkpt lat="44.64256" lon="5.05841">
        <ele>329</ele>
        <time>2018-06-10T07:56:16Z</time>
      </trkpt>
      <trkpt lat="44.64262" lon="5.0585">
        <ele>329</ele>
        <time>2018-06-10T07:56:18Z</time>
      </trkpt>
      <trkpt lat="44.64269" lon="5.05858">
        <ele>329</ele>
        <time>2018-06-10T07:56:20Z</time>
      </trkpt>
      <trkpt lat="44.64275" lon="5.05867">
        <ele>329</ele>
        <time>2018-06-10T07:56:22Z</time>
      </trkpt>
      <trkpt lat="44.64282" lon="5.05875">
        <ele>329</ele>
        <time>2018-06-10T07:56:24Z</time>
      </trkpt>
      <trkpt lat="44.64289" lon="5.05883">
        <ele>329</ele>
        <time>2018-06-10T07:56:26Z</time>
      </trkpt>
      <trkpt lat="44.64295" lon="5.05891">
        <ele>330</ele>
        <time>2018-06-10T07:56:28Z</time>
      </trkpt>
      <trkpt lat="44.64302" lon="5.05899">
        <ele>330</ele>
        <time>2018-06-10T07:56:30Z</time>
      </trkpt>
      <trkpt lat="44.64308" lon="5.05907">
        <ele>330</ele>
        <time>2018-06-10T07:56:32Z</time>
      </trkpt>
      <trkpt lat="44.64314" lon="5.05914">
        <ele>330</ele>
        <time>2018-06-10T07:56:34Z</time>
      </trkpt>
      <trkpt lat="44.6432" lon="5.05921">
        <ele>330</ele>
        <time>2018-06-10T07:56:36Z</time>
      </trkpt>
      <trkpt lat="44.6433" lon="5.05932">
        <ele>331</ele>
        <time>2018-06-10T07:56:38Z</time>
      </trkpt>
      <trkpt lat="44.64335" lon="5.05941">
        <ele>331</ele>
        <time>2018-06-10T07:56:40Z</time>
      </trkpt>
      <trkpt lat="44.6434" lon="5.05949">
        <ele>332</ele>
        <time>2018-06-10T07:56:42Z</time>
      </trkpt>
      <trkpt lat="44.64346" lon="5.05956">
        <ele>331</ele>
        <time>2018-06-10T07:56:44Z</time>
      </trkpt>
      <trkpt lat="44.64352" lon="5.05964">
        <ele>331</ele>
        <time>2018-06-10T07:56:47Z</time>
      </trkpt>
      <trkpt lat="44.64358" lon="5.05972">
        <ele>331</ele>
        <time>2018-06-10T07:56:49Z</time>
      </trkpt>
      <trkpt lat="44.64364" lon="5.0598">
        <ele>332</ele>
        <time>2018-06-10T07:56:51Z</time>
      </trkpt>
      <trkpt lat="44.64371" lon="5.05984">
        <ele>332</ele>
        <time>2018-06-10T07:56:53Z</time>
      </trkpt>
      <trkpt lat="44.64379" lon="5.05982">
        <ele>332</ele>
        <time>2018-06-10T07:56:55Z</time>
      </trkpt>
      <trkpt lat="44.64387" lon="5.05977">
        <ele>332</ele>
        <time>2018-06-10T07:56:57Z</time>
      </trkpt>
      <trkpt lat="44.64396" lon="5.05972">
        <ele>332</ele>
        <time>2018-06-10T07:56:59Z</time>
      </trkpt>
      <trkpt lat="44.64404" lon="5.05967">
        <ele>332</ele>
        <time>2018-06-10T07:57:01Z</time>
      </trkpt>
      <trkpt lat="44.64411" lon="5.05962">
        <ele>332</ele>
        <time>2018-06-10T07:57:03Z</time>
      </trkpt>
      <trkpt lat="44.64418" lon="5.05956">
        <ele>332</ele>
        <time>2018-06-10T07:57:05Z</time>
      </trkpt>
      <trkpt lat="44.64423" lon="5.05957">
        <ele>332</ele>
        <time>2018-06-10T07:57:07Z</time>
      </trkpt>
      <trkpt lat="44.64427" lon="5.05961">
        <ele>333</ele>
        <time>2018-06-10T07:57:09Z</time>
      </trkpt>
      <trkpt lat="44.6443" lon="5.05968">
        <ele>333</ele>
        <time>2018-06-10T07:57:11Z</time>
      </trkpt>
      <trkpt lat="44.64432" lon="5.05977">
        <ele>333</ele>
        <time>2018-06-10T07:57:13Z</time>
      </trkpt>
      <trkpt lat="44.64434" lon="5.05986">
        <ele>333</ele>
        <time>2018-06-10T07:57:15Z</time>
      </trkpt>
      <trkpt lat="44.64437" lon="5.05996">
        <ele>333</ele>
        <time>2018-06-10T07:57:17Z</time>
      </trkpt>
      <trkpt lat="44.6444" lon="5.06005">
        <ele>333</ele>
        <time>2018-06-10T07:57:19Z</time>
      </trkpt>
      <trkpt lat="44.64444" lon="5.06015">
        <ele>333</ele>
        <time>2018-06-10T07:57:21Z</time>
      </trkpt>
      <trkpt lat="44.64447" lon="5.06024">
        <ele>333</ele>
        <time>2018-06-10T07:57:23Z</time>
      </trkpt>
      <trkpt lat="44.6445" lon="5.06033">
        <ele>333</ele>
        <time>2018-06-10T07:57:25Z</time>
      </trkpt>
      <trkpt lat="44.64456" lon="5.06046">
        <ele>333</ele>
        <time>2018-06-10T07:57:27Z</time>
      </trkpt>
      <trkpt lat="44.64462" lon="5.06046">
        <ele>333</ele>
        <time>2018-06-10T07:57:30Z</time>
      </trkpt>
      <trkpt lat="44.64469" lon="5.06048">
        <ele>333</ele>
        <time>2018-06-10T07:57:32Z</time>
      </trkpt>
      <trkpt lat="44.64474" lon="5.06053">
        <ele>333</ele>
        <time>2018-06-10T07:57:34Z</time>
      </trkpt>
      <trkpt lat="44.64479" lon="5.0606">
        <ele>333</ele>
        <time>2018-06-10T07:57:36Z</time>
      </trkpt>
      <trkpt lat="44.64484" lon="5.06067">
        <ele>333</ele>
        <time>2018-06-10T07:57:38Z</time>
      </trkpt>
      <trkpt lat="44.64489" lon="5.06073">
        <ele>334</ele>
        <time>2018-06-10T07:57:40Z</time>
      </trkpt>
      <trkpt lat="44.64495" lon="5.06078">
        <ele>334</ele>
        <time>2018-06-10T07:57:42Z</time>
      </trkpt>
      <trkpt lat="44.645" lon="5.06083">
        <ele>334</ele>
        <time>2018-06-10T07:57:44Z</time>
      </trkpt>
      <trkpt lat="44.64502" lon="5.06086">
        <ele>334</ele>
        <time>2018-06-10T07:57:46Z</time>
      </trkpt>
      <trkpt lat="44.64507" lon="5.06094">
        <ele>334</ele>
        <time>2018-06-10T07:57:48Z</time>
      </trkpt>
      <trkpt lat="44.64511" lon="5.06101">
        <ele>334</ele>
        <time>2018-06-10T07:57:50Z</time>
      </trkpt>
      <trkpt lat="44.64514" lon="5.06109">
        <ele>334</ele>
        <time>2018-06-10T07:57:52Z</time>
      </trkpt>
      <trkpt lat="44.64516" lon="5.06113">
        <ele>334</ele>
        <time>2018-06-10T07:57:54Z</time>
      </trkpt>
      <trkpt lat="44.64517" lon="5.06119">
        <ele>334</ele>
        <time>2018-06-10T07:57:56Z</time>
      </trkpt>
      <trkpt lat="44.64521" lon="5.06127">
        <ele>334</ele>
        <time>2018-06-10T07:57:58Z</time>
      </trkpt>
      <trkpt lat="44.64525" lon="5.06136">
        <ele>335</ele>
        <time>2018-06-10T07:58:00Z</time>
      </trkpt>
      <trkpt lat="44.64525" lon="5.06142">
        <ele>335</ele>
        <time>2018-06-10T07:58:02Z</time>
      </trkpt>
      <trkpt lat="44.64523" lon="5.06146">
        <ele>336</ele>
        <time>2018-06-10T07:58:04Z</time>
      </trkpt>
      <trkpt lat="44.6452" lon="5.06154">
        <ele>335</ele>
        <time>2018-06-10T07:58:06Z</time>
      </trkpt>
      <trkpt lat="44.64519" lon="5.06154">
        <ele>335</ele>
        <time>2018-06-10T07:58:08Z</time>
      </trkpt>
      <trkpt lat="44.64518" lon="5.06156">
        <ele>336</ele>
        <time>2018-06-10T07:58:10Z</time>
      </trkpt>
      <trkpt lat="44.64513" lon="5.06156">
        <ele>336</ele>
        <time>2018-06-10T07:58:12Z</time>
      </trkpt>
      <trkpt lat="44.64506" lon="5.06158">
        <ele>336</ele>
        <time>2018-06-10T07:58:14Z</time>
      </trkpt>
      <trkpt lat="44.645" lon="5.06164">
        <ele>336</ele>
        <time>2018-06-10T07:58:16Z</time>
      </trkpt>
      <trkpt lat="44.64495" lon="5.0617">
        <ele>336</ele>
        <time>2018-06-10T07:58:18Z</time>
      </trkpt>
      <trkpt lat="44.64489" lon="5.06176">
        <ele>335</ele>
        <time>2018-06-10T07:58:20Z</time>
      </trkpt>
      <trkpt lat="44.64483" lon="5.06182">
        <ele>335</ele>
        <time>2018-06-10T07:58:22Z</time>
      </trkpt>
      <trkpt lat="44.64476" lon="5.06185">
        <ele>335</ele>
        <time>2018-06-10T07:58:24Z</time>
      </trkpt>
      <trkpt lat="44.64468" lon="5.06188">
        <ele>335</ele>
        <time>2018-06-10T07:58:26Z</time>
      </trkpt>
      <trkpt lat="44.64462" lon="5.06193">
        <ele>335</ele>
        <time>2018-06-10T07:58:28Z</time>
      </trkpt>
      <trkpt lat="44.64455" lon="5.06196">
        <ele>335</ele>
        <time>2018-06-10T07:58:30Z</time>
      </trkpt>
      <trkpt lat="44.64446" lon="5.06204">
        <ele>335</ele>
        <time>2018-06-10T07:58:32Z</time>
      </trkpt>
      <trkpt lat="44.64442" lon="5.06216">
        <ele>335</ele>
        <time>2018-06-10T07:58:34Z</time>
      </trkpt>
      <trkpt lat="44.64439" lon="5.06226">
        <ele>335</ele>
        <time>2018-06-10T07:58:36Z</time>
      </trkpt>
      <trkpt lat="44.64437" lon="5.06237">
        <ele>336</ele>
        <time>2018-06-10T07:58:38Z</time>
      </trkpt>
      <trkpt lat="44.64435" lon="5.06245">
        <ele>336</ele>
        <time>2018-06-10T07:58:40Z</time>
      </trkpt>
      <trkpt lat="44.64433" lon="5.06255">
        <ele>336</ele>
        <time>2018-06-10T07:58:42Z</time>
      </trkpt>
      <trkpt lat="44.64429" lon="5.06264">
        <ele>336</ele>
        <time>2018-06-10T07:58:44Z</time>
      </trkpt>
      <trkpt lat="44.64425" lon="5.06274">
        <ele>337</ele>
        <time>2018-06-10T07:58:46Z</time>
      </trkpt>
      <trkpt lat="44.64423" lon="5.06283">
        <ele>337</ele>
        <time>2018-06-10T07:58:48Z</time>
      </trkpt>
      <trkpt lat="44.64421" lon="5.06291">
        <ele>337</ele>
        <time>2018-06-10T07:58:50Z</time>
      </trkpt>
      <trkpt lat="44.64418" lon="5.06299">
        <ele>337</ele>
        <time>2018-06-10T07:58:52Z</time>
      </trkpt>
      <trkpt lat="44.64416" lon="5.06307">
        <ele>337</ele>
        <time>2018-06-10T07:58:54Z</time>
      </trkpt>
      <trkpt lat="44.64414" lon="5.06317">
        <ele>338</ele>
        <time>2018-06-10T07:58:56Z</time>
      </trkpt>
      <trkpt lat="44.64412" lon="5.06325">
        <ele>338</ele>
        <time>2018-06-10T07:58:58Z</time>
      </trkpt>
      <trkpt lat="44.6441" lon="5.06335">
        <ele>338</ele>
        <time>2018-06-10T07:59:00Z</time>
      </trkpt>
      <trkpt lat="44.64409" lon="5.06344">
        <ele>338</ele>
        <time>2018-06-10T07:59:02Z</time>
      </trkpt>
      <trkpt lat="44.64407" lon="5.06353">
        <ele>339</ele>
        <time>2018-06-10T07:59:04Z</time>
      </trkpt>
      <trkpt lat="44.64405" lon="5.06361">
        <ele>339</ele>
        <time>2018-06-10T07:59:06Z</time>
      </trkpt>
      <trkpt lat="44.64403" lon="5.06369">
        <ele>339</ele>
        <time>2018-06-10T07:59:08Z</time>
      </trkpt>
      <trkpt lat="44.644" lon="5.06381">
        <ele>339</ele>
        <time>2018-06-10T07:59:10Z</time>
      </trkpt>
      <trkpt lat="44.64398" lon="5.06388">
        <ele>340</ele>
        <time>2018-06-10T07:59:13Z</time>
      </trkpt>
      <trkpt lat="44.64397" lon="5.06396">
        <ele>340</ele>
        <time>2018-06-10T07:59:15Z</time>
      </trkpt>
      <trkpt lat="44.64395" lon="5.06404">
        <ele>340</ele>
        <time>2018-06-10T07:59:17Z</time>
      </trkpt>
      <trkpt lat="44.64393" lon="5.06411">
        <ele>341</ele>
        <time>2018-06-10T07:59:19Z</time>
      </trkpt>
      <trkpt lat="44.64391" lon="5.06418">
        <ele>341</ele>
        <time>2018-06-10T07:59:21Z</time>
      </trkpt>
      <trkpt lat="44.64389" lon="5.06425">
        <ele>341</ele>
        <time>2018-06-10T07:59:23Z</time>
      </trkpt>
      <trkpt lat="44.64388" lon="5.06432">
        <ele>342</ele>
        <time>2018-06-10T07:59:25Z</time>
      </trkpt>
      <trkpt lat="44.64388" lon="5.06439">
        <ele>342</ele>
        <time>2018-06-10T07:59:27Z</time>
      </trkpt>
      <trkpt lat="44.64389" lon="5.06444">
        <ele>343</ele>
        <time>2018-06-10T07:59:29Z</time>
      </trkpt>
      <trkpt lat="44.64388" lon="5.06449">
        <ele>343</ele>
        <time>2018-06-10T07:59:31Z</time>
      </trkpt>
      <trkpt lat="44.64385" lon="5.06452">
        <ele>344</ele>
        <time>2018-06-10T07:59:33Z</time>
      </trkpt>
      <trkpt lat="44.6438" lon="5.06455">
        <ele>344</ele>
        <time>2018-06-10T07:59:35Z</time>
      </trkpt>
      <trkpt lat="44.64376" lon="5.06457">
        <ele>344</ele>
        <time>2018-06-10T07:59:37Z</time>
      </trkpt>
      <trkpt lat="44.64372" lon="5.06461">
        <ele>344</ele>
        <time>2018-06-10T07:59:39Z</time>
      </trkpt>
      <trkpt lat="44.64367" lon="5.06463">
        <ele>345</ele>
        <time>2018-06-10T07:59:41Z</time>
      </trkpt>
      <trkpt lat="44.64363" lon="5.06466">
        <ele>345</ele>
        <time>2018-06-10T07:59:43Z</time>
      </trkpt>
      <trkpt lat="44.64359" lon="5.06468">
        <ele>345</ele>
        <time>2018-06-10T07:59:45Z</time>
      </trkpt>
      <trkpt lat="44.64355" lon="5.06471">
        <ele>345</ele>
        <time>2018-06-10T07:59:47Z</time>
      </trkpt>
      <trkpt lat="44.64351" lon="5.06473">
        <ele>346</ele>
        <time>2018-06-10T07:59:49Z</time>
      </trkpt>
      <trkpt lat="44.64347" lon="5.06476">
        <ele>346</ele>
        <time>2018-06-10T07:59:51Z</time>
      </trkpt>
      <trkpt lat="44.64343" lon="5.06479">
        <ele>346</ele>
        <time>2018-06-10T07:59:53Z</time>
      </trkpt>
      <trkpt lat="44.64339" lon="5.06482">
        <ele>346</ele>
        <time>2018-06-10T07:59:55Z</time>
      </trkpt>
      <trkpt lat="44.64335" lon="5.06485">
        <ele>347</ele>
        <time>2018-06-10T07:59:57Z</time>
      </trkpt>
      <trkpt lat="44.64331" lon="5.06487">
        <ele>347</ele>
        <time>2018-06-10T07:59:59Z</time>
      </trkpt>
      <trkpt lat="44.64327" lon="5.06489">
        <ele>347</ele>
        <time>2018-06-10T08:00:01Z</time>
      </trkpt>
      <trkpt lat="44.64322" lon="5.06491">
        <ele>348</ele>
        <time>2018-06-10T08:00:03Z</time>
      </trkpt>
      <trkpt lat="44.64318" lon="5.06492">
        <ele>348</ele>
        <time>2018-06-10T08:00:05Z</time>
      </trkpt>
      <trkpt lat="44.64313" lon="5.06493">
        <ele>348</ele>
        <time>2018-06-10T08:00:07Z</time>
      </trkpt>
      <trkpt lat="44.64309" lon="5.06493">
        <ele>348</ele>
        <time>2018-06-10T08:00:09Z</time>
      </trkpt>
      <trkpt lat="44.64308" lon="5.06498">
        <ele>349</ele>
        <time>2018-06-10T08:00:11Z</time>
      </trkpt>
      <trkpt lat="44.6431" lon="5.065">
        <ele>349</ele>
        <time>2018-06-10T08:00:13Z</time>
      </trkpt>
      <trkpt lat="44.64313" lon="5.06502">
        <ele>350</ele>
        <time>2018-06-10T08:00:15Z</time>
      </trkpt>
      <trkpt lat="44.64315" lon="5.06505">
        <ele>350</ele>
        <time>2018-06-10T08:00:17Z</time>
      </trkpt>
      <trkpt lat="44.64315" lon="5.06506">
        <ele>351</ele>
        <time>2018-06-10T08:00:19Z</time>
      </trkpt>
      <trkpt lat="44.64318" lon="5.06508">
        <ele>351</ele>
        <time>2018-06-10T08:00:21Z</time>
      </trkpt>
      <trkpt lat="44.64321" lon="5.0651">
        <ele>352</ele>
        <time>2018-06-10T08:00:23Z</time>
      </trkpt>
      <trkpt lat="44.64323" lon="5.06512">
        <ele>352</ele>
        <time>2018-06-10T08:00:25Z</time>
      </trkpt>
      <trkpt lat="44.64325" lon="5.06514">
        <ele>353</ele>
        <time>2018-06-10T08:00:27Z</time>
      </trkpt>
      <trkpt lat="44.64327" lon="5.06517">
        <ele>354</ele>
        <time>2018-06-10T08:00:29Z</time>
      </trkpt>
      <trkpt lat="44.64328" lon="5.06519">
        <ele>354</ele>
        <time>2018-06-10T08:00:31Z</time>
      </trkpt>
      <trkpt lat="44.64331" lon="5.0652">
        <ele>355</ele>
        <time>2018-06-10T08:00:33Z</time>
      </trkpt>
      <trkpt lat="44.64332" lon="5.06521">
        <ele>355</ele>
        <time>2018-06-10T08:00:35Z</time>
      </trkpt>
      <trkpt lat="44.64334" lon="5.06521">
        <ele>356</ele>
        <time>2018-06-10T08:00:37Z</time>
      </trkpt>
      <trkpt lat="44.64337" lon="5.06522">
        <ele>357</ele>
        <time>2018-06-10T08:00:40Z</time>
      </trkpt>
      <trkpt lat="44.64339" lon="5.06523">
        <ele>358</ele>
        <time>2018-06-10T08:00:42Z</time>
      </trkpt>
      <trkpt lat="44.64342" lon="5.06524">
        <ele>359</ele>
        <time>2018-06-10T08:00:44Z</time>
      </trkpt>
      <trkpt lat="44.64344" lon="5.06525">
        <ele>358</ele>
        <time>2018-06-10T08:00:46Z</time>
      </trkpt>
      <trkpt lat="44.64347" lon="5.06526">
        <ele>359</ele>
        <time>2018-06-10T08:00:48Z</time>
      </trkpt>
      <trkpt lat="44.64351" lon="5.06528">
        <ele>360</ele>
        <time>2018-06-10T08:00:50Z</time>
      </trkpt>
      <trkpt lat="44.64356" lon="5.06532">
        <ele>361</ele>
        <time>2018-06-10T08:00:52Z</time>
      </trkpt>
      <trkpt lat="44.64359" lon="5.06533">
        <ele>361</ele>
        <time>2018-06-10T08:00:54Z</time>
      </trkpt>
      <trkpt lat="44.6436" lon="5.06534">
        <ele>362</ele>
        <time>2018-06-10T08:00:56Z</time>
      </trkpt>
      <trkpt lat="44.64361" lon="5.06535">
        <ele>362</ele>
        <time>2018-06-10T08:00:58Z</time>
      </trkpt>
      <trkpt lat="44.64362" lon="5.06535">
        <ele>362</ele>
        <time>2018-06-10T08:01:00Z</time>
      </trkpt>
      <trkpt lat="44.64365" lon="5.06537">
        <ele>363</ele>
        <time>2018-06-10T08:01:02Z</time>
      </trkpt>
      <trkpt lat="44.64369" lon="5.0654">
        <ele>363</ele>
        <time>2018-06-10T08:01:04Z</time>
      </trkpt>
      <trkpt lat="44.64373" lon="5.06541">
        <ele>364</ele>
        <time>2018-06-10T08:01:06Z</time>
      </trkpt>
      <trkpt lat="44.64376" lon="5.06543">
        <ele>364</ele>
        <time>2018-06-10T08:01:08Z</time>
      </trkpt>
      <trkpt lat="44.64379" lon="5.06544">
        <ele>365</ele>
        <time>2018-06-10T08:01:10Z</time>
      </trkpt>
      <trkpt lat="44.64382" lon="5.06546">
        <ele>365</ele>
        <time>2018-06-10T08:01:12Z</time>
      </trkpt>
      <trkpt lat="44.64386" lon="5.06548">
        <ele>366</ele>
        <time>2018-06-10T08:01:14Z</time>
      </trkpt>
      <trkpt lat="44.64388" lon="5.06548">
        <ele>366</ele>
        <time>2018-06-10T08:01:16Z</time>
      </trkpt>
      <trkpt lat="44.6439" lon="5.06548">
        <ele>366</ele>
        <time>2018-06-10T08:01:18Z</time>
      </trkpt>
      <trkpt lat="44.64392" lon="5.06549">
        <ele>367</ele>
        <time>2018-06-10T08:01:20Z</time>
      </trkpt>
      <trkpt lat="44.64393" lon="5.06549">
        <ele>368</ele>
        <time>2018-06-10T08:01:23Z</time>
      </trkpt>
      <trkpt lat="44.64395" lon="5.0655">
        <ele>368</ele>
        <time>2018-06-10T08:01:25Z</time>
      </trkpt>
      <trkpt lat="44.64398" lon="5.06551">
        <ele>368</ele>
        <time>2018-06-10T08:01:27Z</time>
      </trkpt>
      <trkpt lat="44.644" lon="5.06552">
        <ele>369</ele>
        <time>2018-06-10T08:01:29Z</time>
      </trkpt>
      <trkpt lat="44.64401" lon="5.06552">
        <ele>369</ele>
        <time>2018-06-10T08:01:31Z</time>
      </trkpt>
      <trkpt lat="44.64404" lon="5.06553">
        <ele>370</ele>
        <time>2018-06-10T08:01:33Z</time>
      </trkpt>
      <trkpt lat="44.64407" lon="5.06554">
        <ele>370</ele>
        <time>2018-06-10T08:01:35Z</time>
      </trkpt>
      <trkpt lat="44.64408" lon="5.06556">
        <ele>370</ele>
        <time>2018-06-10T08:01:37Z</time>
      </trkpt>
      <trkpt lat="44.6441" lon="5.06557">
        <ele>370</ele>
        <time>2018-06-10T08:01:39Z</time>
      </trkpt>
      <trkpt lat="44.64413" lon="5.0656">
        <ele>371</ele>
        <time>2018-06-10T08:01:41Z</time>
      </trkpt>
      <trkpt lat="44.64415" lon="5.06564">
        <ele>372</ele>
        <time>2018-06-10T08:01:43Z</time>
      </trkpt>
      <trkpt lat="44.64415" lon="5.06567">
        <ele>373</ele>
        <time>2018-06-10T08:01:45Z</time>
      </trkpt>
      <trkpt lat="44.64414" lon="5.06569">
        <ele>373</ele>
        <time>2018-06-10T08:01:47Z</time>
      </trkpt>
      <trkpt lat="44.64414" lon="5.06572">
        <ele>374</ele>
        <time>2018-06-10T08:01:49Z</time>
      </trkpt>
      <trkpt lat="44.64412" lon="5.06574">
        <ele>374</ele>
        <time>2018-06-10T08:01:51Z</time>
      </trkpt>
      <trkpt lat="44.64411" lon="5.06576">
        <ele>375</ele>
        <time>2018-06-10T08:01:53Z</time>
      </trkpt>
      <trkpt lat="44.6441" lon="5.06578">
        <ele>375</ele>
        <time>2018-06-10T08:01:55Z</time>
      </trkpt>
      <trkpt lat="44.64408" lon="5.06581">
        <ele>375</ele>
        <time>2018-06-10T08:01:57Z</time>
      </trkpt>
      <trkpt lat="44.64405" lon="5.06583">
        <ele>376</ele>
        <time>2018-06-10T08:01:59Z</time>
      </trkpt>
      <trkpt lat="44.64403" lon="5.06585">
        <ele>377</ele>
        <time>2018-06-10T08:02:01Z</time>
      </trkpt>
      <trkpt lat="44.644" lon="5.06587">
        <ele>377</ele>
        <time>2018-06-10T08:02:03Z</time>
      </trkpt>
      <trkpt lat="44.64399" lon="5.06589">
        <ele>377</ele>
        <time>2018-06-10T08:02:05Z</time>
      </trkpt>
      <trkpt lat="44.64395" lon="5.06591">
        <ele>378</ele>
        <time>2018-06-10T08:02:07Z</time>
      </trkpt>
      <trkpt lat="44.64392" lon="5.06593">
        <ele>379</ele>
        <time>2018-06-10T08:02:09Z</time>
      </trkpt>
      <trkpt lat="44.6439" lon="5.06594">
        <ele>379</ele>
        <time>2018-06-10T08:02:11Z</time>
      </trkpt>
      <trkpt lat="44.64387" lon="5.06595">
        <ele>379</ele>
        <time>2018-06-10T08:02:13Z</time>
      </trkpt>
      <trkpt lat="44.64384" lon="5.06597">
        <ele>379</ele>
        <time>2018-06-10T08:02:15Z</time>
      </trkpt>
      <trkpt lat="44.64382" lon="5.06599">
        <ele>379</ele>
        <time>2018-06-10T08:02:17Z</time>
      </trkpt>
      <trkpt lat="44.6438" lon="5.06601">
        <ele>379</ele>
        <time>2018-06-10T08:02:19Z</time>
      </trkpt>
      <trkpt lat="44.64377" lon="5.06602">
        <ele>379</ele>
        <time>2018-06-10T08:02:21Z</time>
      </trkpt>
      <trkpt lat="44.64375" lon="5.06605">
        <ele>380</ele>
        <time>2018-06-10T08:02:24Z</time>
      </trkpt>
      <trkpt lat="44.64373" lon="5.06607">
        <ele>380</ele>
        <time>2018-06-10T08:02:26Z</time>
      </trkpt>
      <trkpt lat="44.64372" lon="5.0661">
        <ele>381</ele>
        <time>2018-06-10T08:02:28Z</time>
      </trkpt>
      <trkpt lat="44.6437" lon="5.06614">
        <ele>381</ele>
        <time>2018-06-10T08:02:30Z</time>
      </trkpt>
      <trkpt lat="44.64369" lon="5.06617">
        <ele>381</ele>
        <time>2018-06-10T08:02:32Z</time>
      </trkpt>
      <trkpt lat="44.64368" lon="5.0662">
        <ele>381</ele>
        <time>2018-06-10T08:02:34Z</time>
      </trkpt>
      <trkpt lat="44.64366" lon="5.06623">
        <ele>382</ele>
        <time>2018-06-10T08:02:36Z</time>
      </trkpt>
      <trkpt lat="44.64364" lon="5.06626">
        <ele>382</ele>
        <time>2018-06-10T08:02:38Z</time>
      </trkpt>
      <trkpt lat="44.64363" lon="5.06629">
        <ele>383</ele>
        <time>2018-06-10T08:02:40Z</time>
      </trkpt>
      <trkpt lat="44.64362" lon="5.06633">
        <ele>383</ele>
        <time>2018-06-10T08:02:42Z</time>
      </trkpt>
      <trkpt lat="44.64361" lon="5.06636">
        <ele>383</ele>
        <time>2018-06-10T08:02:44Z</time>
      </trkpt>
      <trkpt lat="44.64359" lon="5.06639">
        <ele>383</ele>
        <time>2018-06-10T08:02:46Z</time>
      </trkpt>
      <trkpt lat="44.64358" lon="5.06642">
        <ele>384</ele>
        <time>2018-06-10T08:02:48Z</time>
      </trkpt>
      <trkpt lat="44.64356" lon="5.06646">
        <ele>385</ele>
        <time>2018-06-10T08:02:50Z</time>
      </trkpt>
      <trkpt lat="44.64356" lon="5.0665">
        <ele>385</ele>
        <time>2018-06-10T08:02:52Z</time>
      </trkpt>
      <trkpt lat="44.64355" lon="5.06652">
        <ele>386</ele>
        <time>2018-06-10T08:02:54Z</time>
      </trkpt>
      <trkpt lat="44.64354" lon="5.06655">
        <ele>387</ele>
        <time>2018-06-10T08:02:56Z</time>
      </trkpt>
      <trkpt lat="44.64354" lon="5.06658">
        <ele>387</ele>
        <time>2018-06-10T08:02:58Z</time>
      </trkpt>
      <trkpt lat="44.64353" lon="5.06661">
        <ele>387</ele>
        <time>2018-06-10T08:03:00Z</time>
      </trkpt>
      <trkpt lat="44.64352" lon="5.06664">
        <ele>387</ele>
        <time>2018-06-10T08:03:02Z</time>
      </trkpt>
      <trkpt lat="44.64353" lon="5.06668">
        <ele>387</ele>
        <time>2018-06-10T08:03:04Z</time>
      </trkpt>
      <trkpt lat="44.64353" lon="5.06671">
        <ele>388</ele>
        <time>2018-06-10T08:03:06Z</time>
      </trkpt>
      <trkpt lat="44.64353" lon="5.06675">
        <ele>388</ele>
        <time>2018-06-10T08:03:08Z</time>
      </trkpt>
      <trkpt lat="44.64353" lon="5.06678">
        <ele>389</ele>
        <time>2018-06-10T08:03:10Z</time>
      </trkpt>
      <trkpt lat="44.64351" lon="5.06683">
        <ele>389</ele>
        <time>2018-06-10T08:03:12Z</time>
      </trkpt>
      <trkpt lat="44.64352" lon="5.06687">
        <ele>390</ele>
        <time>2018-06-10T08:03:14Z</time>
      </trkpt>
      <trkpt lat="44.64351" lon="5.0669">
        <ele>390</ele>
        <time>2018-06-10T08:03:16Z</time>
      </trkpt>
      <trkpt lat="44.6435" lon="5.06694">
        <ele>390</ele>
        <time>2018-06-10T08:03:18Z</time>
      </trkpt>
      <trkpt lat="44.64346" lon="5.06698">
        <ele>391</ele>
        <time>2018-06-10T08:03:20Z</time>
      </trkpt>
      <trkpt lat="44.64345" lon="5.06701">
        <ele>391</ele>
        <time>2018-06-10T08:03:22Z</time>
      </trkpt>
      <trkpt lat="44.64344" lon="5.06704">
        <ele>391</ele>
        <time>2018-06-10T08:03:24Z</time>
      </trkpt>
      <trkpt lat="44.64343" lon="5.06706">
        <ele>392</ele>
        <time>2018-06-10T08:03:26Z</time>
      </trkpt>
      <trkpt lat="44.64344" lon="5.06708">
        <ele>393</ele>
        <time>2018-06-10T08:03:28Z</time>
      </trkpt>
      <trkpt lat="44.64345" lon="5.0671">
        <ele>393</ele>
        <time>2018-06-10T08:03:30Z</time>
      </trkpt>
      <trkpt lat="44.64345" lon="5.06711">
        <ele>394</ele>
        <time>2018-06-10T08:03:32Z</time>
      </trkpt>
      <trkpt lat="44.64345" lon="5.06713">
        <ele>394</ele>
        <time>2018-06-10T08:03:34Z</time>
      </trkpt>
      <trkpt lat="44.64346" lon="5.06714">
        <ele>394</ele>
        <time>2018-06-10T08:03:36Z</time>
      </trkpt>
      <trkpt lat="44.64346" lon="5.06715">
        <ele>394</ele>
        <time>2018-06-10T08:03:38Z</time>
      </trkpt>
      <trkpt lat="44.64345" lon="5.06716">
        <ele>394</ele>
        <time>2018-06-10T08:03:40Z</time>
      </trkpt>
      <trkpt lat="44.64344" lon="5.06719">
        <ele>394</ele>
        <time>2018-06-10T08:03:42Z</time>
      </trkpt>
      <trkpt lat="44.64343" lon="5.06719">
        <ele>394</ele>
        <time>2018-06-10T08:03:45Z</time>
      </trkpt>
      <trkpt lat="44.6434" lon="5.06721">
        <ele>394</ele>
        <time>2018-06-10T08:03:47Z</time>
      </trkpt>
      <trkpt lat="44.64339" lon="5.06724">
        <ele>394</ele>
        <time>2018-06-10T08:03:49Z</time>
      </trkpt>
      <trkpt lat="44.64338" lon="5.06727">
        <ele>394</ele>
        <time>2018-06-10T08:03:51Z</time>
      </trkpt>
      <trkpt lat="44.64337" lon="5.06731">
        <ele>394</ele>
        <time>2018-06-10T08:03:53Z</time>
      </trkpt>
      <trkpt lat="44.64336" lon="5.06735">
        <ele>395</ele>
        <time>2018-06-10T08:03:55Z</time>
      </trkpt>
      <trkpt lat="44.64336" lon="5.06738">
        <ele>395</ele>
        <time>2018-06-10T08:03:57Z</time>
      </trkpt>
      <trkpt lat="44.64337" lon="5.06742">
        <ele>395</ele>
        <time>2018-06-10T08:03:59Z</time>
      </trkpt>
      <trkpt lat="44.64339" lon="5.06745">
        <ele>395</ele>
        <time>2018-06-10T08:04:01Z</time>
      </trkpt>
      <trkpt lat="44.64339" lon="5.06749">
        <ele>395</ele>
        <time>2018-06-10T08:04:03Z</time>
      </trkpt>
      <trkpt lat="44.6434" lon="5.06753">
        <ele>396</ele>
        <time>2018-06-10T08:04:05Z</time>
      </trkpt>
      <trkpt lat="44.6434" lon="5.06756">
        <ele>396</ele>
        <time>2018-06-10T08:04:07Z</time>
      </trkpt>
      <trkpt lat="44.6434" lon="5.06762">
        <ele>396</ele>
        <time>2018-06-10T08:04:09Z</time>
      </trkpt>
      <trkpt lat="44.6434" lon="5.06766">
        <ele>396</ele>
        <time>2018-06-10T08:04:11Z</time>
      </trkpt>
      <trkpt lat="44.6434" lon="5.06771">
        <ele>397</ele>
        <time>2018-06-10T08:04:13Z</time>
      </trkpt>
      <trkpt lat="44.6434" lon="5.06775">
        <ele>397</ele>
        <time>2018-06-10T08:04:15Z</time>
      </trkpt>
      <trkpt lat="44.64339" lon="5.06779">
        <ele>397</ele>
        <time>2018-06-10T08:04:17Z</time>
      </trkpt>
      <trkpt lat="44.64339" lon="5.06782">
        <ele>397</ele>
        <time>2018-06-10T08:04:19Z</time>
      </trkpt>
      <trkpt lat="44.6434" lon="5.06786">
        <ele>397</ele>
        <time>2018-06-10T08:04:21Z</time>
      </trkpt>
      <trkpt lat="44.64338" lon="5.0679">
        <ele>398</ele>
        <time>2018-06-10T08:04:23Z</time>
      </trkpt>
      <trkpt lat="44.64337" lon="5.06794">
        <ele>397</ele>
        <time>2018-06-10T08:04:25Z</time>
      </trkpt>
      <trkpt lat="44.64335" lon="5.06799">
        <ele>397</ele>
        <time>2018-06-10T08:04:27Z</time>
      </trkpt>
      <trkpt lat="44.64335" lon="5.06805">
        <ele>397</ele>
        <time>2018-06-10T08:04:29Z</time>
      </trkpt>
      <trkpt lat="44.64334" lon="5.06813">
        <ele>397</ele>
        <time>2018-06-10T08:04:31Z</time>
      </trkpt>
      <trkpt lat="44.64328" lon="5.06822">
        <ele>395</ele>
        <time>2018-06-10T08:04:33Z</time>
      </trkpt>
      <trkpt lat="44.64315" lon="5.06825">
        <ele>394</ele>
        <time>2018-06-10T08:04:35Z</time>
      </trkpt>
      <trkpt lat="44.64301" lon="5.06829">
        <ele>394</ele>
        <time>2018-06-10T08:04:37Z</time>
      </trkpt>
      <trkpt lat="44.64288" lon="5.06841">
        <ele>393</ele>
        <time>2018-06-10T08:04:39Z</time>
      </trkpt>
      <trkpt lat="44.6428" lon="5.06857">
        <ele>393</ele>
        <time>2018-06-10T08:04:41Z</time>
      </trkpt>
      <trkpt lat="44.64275" lon="5.06874">
        <ele>393</ele>
        <time>2018-06-10T08:04:43Z</time>
      </trkpt>
      <trkpt lat="44.64273" lon="5.06889">
        <ele>392</ele>
        <time>2018-06-10T08:04:45Z</time>
      </trkpt>
      <trkpt lat="44.6427" lon="5.06901">
        <ele>392</ele>
        <time>2018-06-10T08:04:47Z</time>
      </trkpt>
      <trkpt lat="44.64267" lon="5.0691">
        <ele>392</ele>
        <time>2018-06-10T08:04:49Z</time>
      </trkpt>
      <trkpt lat="44.64265" lon="5.06916">
        <ele>393</ele>
        <time>2018-06-10T08:04:51Z</time>
      </trkpt>
      <trkpt lat="44.64264" lon="5.06922">
        <ele>393</ele>
        <time>2018-06-10T08:04:54Z</time>
      </trkpt>
      <trkpt lat="44.64263" lon="5.06928">
        <ele>393</ele>
        <time>2018-06-10T08:04:56Z</time>
      </trkpt>
      <trkpt lat="44.64261" lon="5.06934">
        <ele>393</ele>
        <time>2018-06-10T08:04:58Z</time>
      </trkpt>
      <trkpt lat="44.64258" lon="5.06941">
        <ele>394</ele>
        <time>2018-06-10T08:05:00Z</time>
      </trkpt>
      <trkpt lat="44.64256" lon="5.06948">
        <ele>394</ele>
        <time>2018-06-10T08:05:02Z</time>
      </trkpt>
      <trkpt lat="44.64254" lon="5.06954">
        <ele>394</ele>
        <time>2018-06-10T08:05:04Z</time>
      </trkpt>
      <trkpt lat="44.64252" lon="5.0696">
        <ele>394</ele>
        <time>2018-06-10T08:05:06Z</time>
      </trkpt>
      <trkpt lat="44.6425" lon="5.06966">
        <ele>394</ele>
        <time>2018-06-10T08:05:08Z</time>
      </trkpt>
      <trkpt lat="44.64249" lon="5.06972">
        <ele>395</ele>
        <time>2018-06-10T08:05:10Z</time>
      </trkpt>
      <trkpt lat="44.64246" lon="5.06981">
        <ele>395</ele>
        <time>2018-06-10T08:05:12Z</time>
      </trkpt>
      <trkpt lat="44.64244" lon="5.06986">
        <ele>396</ele>
        <time>2018-06-10T08:05:14Z</time>
      </trkpt>
      <trkpt lat="44.64242" lon="5.06992">
        <ele>396</ele>
        <time>2018-06-10T08:05:16Z</time>
      </trkpt>
      <trkpt lat="44.6424" lon="5.06998">
        <ele>396</ele>
        <time>2018-06-10T08:05:18Z</time>
      </trkpt>
      <trkpt lat="44.64239" lon="5.07003">
        <ele>396</ele>
        <time>2018-06-10T08:05:20Z</time>
      </trkpt>
      <trkpt lat="44.64237" lon="5.07008">
        <ele>397</ele>
        <time>2018-06-10T08:05:22Z</time>
      </trkpt>
      <trkpt lat="44.64235" lon="5.07014">
        <ele>397</ele>
        <time>2018-06-10T08:05:24Z</time>
      </trkpt>
      <trkpt lat="44.64234" lon="5.07018">
        <ele>397</ele>
        <time>2018-06-10T08:05:26Z</time>
      </trkpt>
      <trkpt lat="44.64232" lon="5.07021">
        <ele>398</ele>
        <time>2018-06-10T08:05:28Z</time>
      </trkpt>
      <trkpt lat="44.64231" lon="5.07026">
        <ele>398</ele>
        <time>2018-06-10T08:05:30Z</time>
      </trkpt>
      <trkpt lat="44.6423" lon="5.07031">
        <ele>399</ele>
        <time>2018-06-10T08:05:32Z</time>
      </trkpt>
      <trkpt lat="44.64229" lon="5.07036">
        <ele>399</ele>
        <time>2018-06-10T08:05:34Z</time>
      </trkpt>
      <trkpt lat="44.64229" lon="5.07041">
        <ele>400</ele>
        <time>2018-06-10T08:05:36Z</time>
      </trkpt>
      <trkpt lat="44.64229" lon="5.07045">
        <ele>400</ele>
        <time>2018-06-10T08:05:38Z</time>
      </trkpt>
      <trkpt lat="44.64228" lon="5.0705">
        <ele>401</ele>
        <time>2018-06-10T08:05:40Z</time>
      </trkpt>
      <trkpt lat="44.64227" lon="5.07054">
        <ele>401</ele>
        <time>2018-06-10T08:05:42Z</time>
      </trkpt>
      <trkpt lat="44.64226" lon="5.0706">
        <ele>402</ele>
        <time>2018-06-10T08:05:44Z</time>
      </trkpt>
      <trkpt lat="44.64226" lon="5.07064">
        <ele>402</ele>
        <time>2018-06-10T08:05:46Z</time>
      </trkpt>
      <trkpt lat="44.64225" lon="5.07069">
        <ele>403</ele>
        <time>2018-06-10T08:05:48Z</time>
      </trkpt>
      <trkpt lat="44.64225" lon="5.07074">
        <ele>403</ele>
        <time>2018-06-10T08:05:50Z</time>
      </trkpt>
      <trkpt lat="44.64224" lon="5.07079">
        <ele>404</ele>
        <time>2018-06-10T08:05:52Z</time>
      </trkpt>
      <trkpt lat="44.64224" lon="5.07083">
        <ele>404</ele>
        <time>2018-06-10T08:05:54Z</time>
      </trkpt>
      <trkpt lat="44.64224" lon="5.07087">
        <ele>404</ele>
        <time>2018-06-10T08:05:56Z</time>
      </trkpt>
      <trkpt lat="44.64224" lon="5.07091">
        <ele>405</ele>
        <time>2018-06-10T08:05:59Z</time>
      </trkpt>
      <trkpt lat="44.64224" lon="5.07097">
        <ele>406</ele>
        <time>2018-06-10T08:06:01Z</time>
      </trkpt>
      <trkpt lat="44.64225" lon="5.07101">
        <ele>406</ele>
        <time>2018-06-10T08:06:03Z</time>
      </trkpt>
      <trkpt lat="44.64225" lon="5.07106">
        <ele>407</ele>
        <time>2018-06-10T08:06:05Z</time>
      </trkpt>
      <trkpt lat="44.64226" lon="5.07109">
        <ele>407</ele>
        <time>2018-06-10T08:06:07Z</time>
      </trkpt>
      <trkpt lat="44.64225" lon="5.07112">
        <ele>407</ele>
        <time>2018-06-10T08:06:09Z</time>
      </trkpt>
      <trkpt lat="44.64225" lon="5.07115">
        <ele>408</ele>
        <time>2018-06-10T08:06:11Z</time>
      </trkpt>
      <trkpt lat="44.64226" lon="5.07119">
        <ele>408</ele>
        <time>2018-06-10T08:06:13Z</time>
      </trkpt>
      <trkpt lat="44.64225" lon="5.07124">
        <ele>409</ele>
        <time>2018-06-10T08:06:15Z</time>
      </trkpt>
      <trkpt lat="44.64224" lon="5.07129">
        <ele>410</ele>
        <time>2018-06-10T08:06:17Z</time>
      </trkpt>
      <trkpt lat="44.64222" lon="5.07133">
        <ele>410</ele>
        <time>2018-06-10T08:06:19Z</time>
      </trkpt>
      <trkpt lat="44.64221" lon="5.07137">
        <ele>411</ele>
        <time>2018-06-10T08:06:21Z</time>
      </trkpt>
      <trkpt lat="44.6422" lon="5.07141">
        <ele>411</ele>
        <time>2018-06-10T08:06:23Z</time>
      </trkpt>
      <trkpt lat="44.64218" lon="5.07144">
        <ele>411</ele>
        <time>2018-06-10T08:06:25Z</time>
      </trkpt>
      <trkpt lat="44.64217" lon="5.07147">
        <ele>412</ele>
        <time>2018-06-10T08:06:27Z</time>
      </trkpt>
      <trkpt lat="44.64215" lon="5.0715">
        <ele>413</ele>
        <time>2018-06-10T08:06:29Z</time>
      </trkpt>
      <trkpt lat="44.64213" lon="5.07154">
        <ele>413</ele>
        <time>2018-06-10T08:06:31Z</time>
      </trkpt>
      <trkpt lat="44.64212" lon="5.07157">
        <ele>414</ele>
        <time>2018-06-10T08:06:33Z</time>
      </trkpt>
      <trkpt lat="44.6421" lon="5.0716">
        <ele>413</ele>
        <time>2018-06-10T08:06:35Z</time>
      </trkpt>
      <trkpt lat="44.64209" lon="5.07163">
        <ele>414</ele>
        <time>2018-06-10T08:06:37Z</time>
      </trkpt>
      <trkpt lat="44.64207" lon="5.07166">
        <ele>414</ele>
        <time>2018-06-10T08:06:39Z</time>
      </trkpt>
      <trkpt lat="44.64207" lon="5.07169">
        <ele>415</ele>
        <time>2018-06-10T08:06:41Z</time>
      </trkpt>
      <trkpt lat="44.64205" lon="5.07172">
        <ele>415</ele>
        <time>2018-06-10T08:06:43Z</time>
      </trkpt>
      <trkpt lat="44.64203" lon="5.07175">
        <ele>416</ele>
        <time>2018-06-10T08:06:45Z</time>
      </trkpt>
      <trkpt lat="44.64202" lon="5.07179">
        <ele>416</ele>
        <time>2018-06-10T08:06:47Z</time>
      </trkpt>
      <trkpt lat="44.64201" lon="5.07183">
        <ele>416</ele>
        <time>2018-06-10T08:06:49Z</time>
      </trkpt>
      <trkpt lat="44.64199" lon="5.07186">
        <ele>416</ele>
        <time>2018-06-10T08:06:51Z</time>
      </trkpt>
      <trkpt lat="44.64197" lon="5.0719">
        <ele>416</ele>
        <time>2018-06-10T08:06:53Z</time>
      </trkpt>
      <trkpt lat="44.64197" lon="5.07194">
        <ele>417</ele>
        <time>2018-06-10T08:06:55Z</time>
      </trkpt>
      <trkpt lat="44.64196" lon="5.07198">
        <ele>417</ele>
        <time>2018-06-10T08:06:57Z</time>
      </trkpt>
      <trkpt lat="44.64197" lon="5.07202">
        <ele>418</ele>
        <time>2018-06-10T08:06:59Z</time>
      </trkpt>
      <trkpt lat="44.64197" lon="5.07205">
        <ele>418</ele>
        <time>2018-06-10T08:07:01Z</time>
      </trkpt>
      <trkpt lat="44.64198" lon="5.07208">
        <ele>418</ele>
        <time>2018-06-10T08:07:03Z</time>
      </trkpt>
      <trkpt lat="44.642" lon="5.07208">
        <ele>419</ele>
        <time>2018-06-10T08:07:05Z</time>
      </trkpt>
      <trkpt lat="44.64201" lon="5.07205">
        <ele>418</ele>
        <time>2018-06-10T08:07:07Z</time>
      </trkpt>
      <trkpt lat="44.64203" lon="5.07202">
        <ele>419</ele>
        <time>2018-06-10T08:07:10Z</time>
      </trkpt>
      <trkpt lat="44.64205" lon="5.07199">
        <ele>419</ele>
        <time>2018-06-10T08:07:12Z</time>
      </trkpt>
      <trkpt lat="44.64207" lon="5.07197">
        <ele>419</ele>
        <time>2018-06-10T08:07:14Z</time>
      </trkpt>
      <trkpt lat="44.6421" lon="5.07193">
        <ele>419</ele>
        <time>2018-06-10T08:07:16Z</time>
      </trkpt>
      <trkpt lat="44.64212" lon="5.07191">
        <ele>419</ele>
        <time>2018-06-10T08:07:18Z</time>
      </trkpt>
      <trkpt lat="44.64214" lon="5.07189">
        <ele>419</ele>
        <time>2018-06-10T08:07:20Z</time>
      </trkpt>
      <trkpt lat="44.64217" lon="5.07187">
        <ele>419</ele>
        <time>2018-06-10T08:07:22Z</time>
      </trkpt>
      <trkpt lat="44.64219" lon="5.07188">
        <ele>420</ele>
        <time>2018-06-10T08:07:24Z</time>
      </trkpt>
      <trkpt lat="44.64222" lon="5.07191">
        <ele>420</ele>
        <time>2018-06-10T08:07:26Z</time>
      </trkpt>
      <trkpt lat="44.64226" lon="5.07193">
        <ele>421</ele>
        <time>2018-06-10T08:07:28Z</time>
      </trkpt>
      <trkpt lat="44.64228" lon="5.07192">
        <ele>422</ele>
        <time>2018-06-10T08:07:30Z</time>
      </trkpt>
      <trkpt lat="44.64231" lon="5.07192">
        <ele>422</ele>
        <time>2018-06-10T08:07:32Z</time>
      </trkpt>
      <trkpt lat="44.64233" lon="5.07196">
        <ele>422</ele>
        <time>2018-06-10T08:07:34Z</time>
      </trkpt>
      <trkpt lat="44.64235" lon="5.07202">
        <ele>421</ele>
        <time>2018-06-10T08:07:36Z</time>
      </trkpt>
      <trkpt lat="44.64236" lon="5.07205">
        <ele>422</ele>
        <time>2018-06-10T08:07:38Z</time>
      </trkpt>
      <trkpt lat="44.64236" lon="5.07208">
        <ele>422</ele>
        <time>2018-06-10T08:07:40Z</time>
      </trkpt>
      <trkpt lat="44.64236" lon="5.07211">
        <ele>423</ele>
        <time>2018-06-10T08:07:42Z</time>
      </trkpt>
      <trkpt lat="44.64236" lon="5.07215">
        <ele>423</ele>
        <time>2018-06-10T08:07:44Z</time>
      </trkpt>
      <trkpt lat="44.64236" lon="5.07218">
        <ele>423</ele>
        <time>2018-06-10T08:07:46Z</time>
      </trkpt>
      <trkpt lat="44.64235" lon="5.07221">
        <ele>424</ele>
        <time>2018-06-10T08:07:48Z</time>
      </trkpt>
      <trkpt lat="44.64234" lon="5.07221">
        <ele>424</ele>
        <time>2018-06-10T08:07:50Z</time>
      </trkpt>
      <trkpt lat="44.64234" lon="5.07223">
        <ele>424</ele>
        <time>2018-06-10T08:07:52Z</time>
      </trkpt>
      <trkpt lat="44.64235" lon="5.07227">
        <ele>425</ele>
        <time>2018-06-10T08:07:54Z</time>
      </trkpt>
      <trkpt lat="44.64235" lon="5.0723">
        <ele>425</ele>
        <time>2018-06-10T08:07:56Z</time>
      </trkpt>
      <trkpt lat="44.64236" lon="5.07233">
        <ele>425</ele>
        <time>2018-06-10T08:07:58Z</time>
      </trkpt>
      <trkpt lat="44.64237" lon="5.07237">
        <ele>426</ele>
        <time>2018-06-10T08:08:00Z</time>
      </trkpt>
      <trkpt lat="44.64237" lon="5.0724">
        <ele>426</ele>
        <time>2018-06-10T08:08:02Z</time>
      </trkpt>
      <trkpt lat="44.64238" lon="5.07244">
        <ele>426</ele>
        <time>2018-06-10T08:08:04Z</time>
      </trkpt>
      <trkpt lat="44.64239" lon="5.07248">
        <ele>426</ele>
        <time>2018-06-10T08:08:06Z</time>
      </trkpt>
      <trkpt lat="44.64239" lon="5.07251">
        <ele>426</ele>
        <time>2018-06-10T08:08:08Z</time>
      </trkpt>
      <trkpt lat="44.6424" lon="5.07254">
        <ele>427</ele>
        <time>2018-06-10T08:08:10Z</time>
      </trkpt>
      <trkpt lat="44.64241" lon="5.07257">
        <ele>427</ele>
        <time>2018-06-10T08:08:12Z</time>
      </trkpt>
      <trkpt lat="44.64241" lon="5.0726">
        <ele>427</ele>
        <time>2018-06-10T08:08:14Z</time>
      </trkpt>
      <trkpt lat="44.64242" lon="5.07264">
        <ele>427</ele>
        <time>2018-06-10T08:08:16Z</time>
      </trkpt>
      <trkpt lat="44.64243" lon="5.07268">
        <ele>427</ele>
        <time>2018-06-10T08:08:18Z</time>
      </trkpt>
      <trkpt lat="44.64243" lon="5.07272">
        <ele>428</ele>
        <time>2018-06-10T08:08:20Z</time>
      </trkpt>
      <trkpt lat="44.64244" lon="5.07274">
        <ele>428</ele>
        <time>2018-06-10T08:08:22Z</time>
      </trkpt>
      <trkpt lat="44.64245" lon="5.07278">
        <ele>428</ele>
        <time>2018-06-10T08:08:24Z</time>
      </trkpt>
      <trkpt lat="44.64246" lon="5.07283">
        <ele>428</ele>
        <time>2018-06-10T08:08:26Z</time>
      </trkpt>
      <trkpt lat="44.64247" lon="5.07287">
        <ele>428</ele>
        <time>2018-06-10T08:08:28Z</time>
      </trkpt>
      <trkpt lat="44.64248" lon="5.0729">
        <ele>429</ele>
        <time>2018-06-10T08:08:30Z</time>
      </trkpt>
      <trkpt lat="44.64249" lon="5.07296">
        <ele>429</ele>
        <time>2018-06-10T08:08:33Z</time>
      </trkpt>
      <trkpt lat="44.6425" lon="5.07303">
        <ele>429</ele>
        <time>2018-06-10T08:08:35Z</time>
      </trkpt>
      <trkpt lat="44.6425" lon="5.07307">
        <ele>429</ele>
        <time>2018-06-10T08:08:37Z</time>
      </trkpt>
      <trkpt lat="44.64252" lon="5.07312">
        <ele>430</ele>
        <time>2018-06-10T08:08:39Z</time>
      </trkpt>
      <trkpt lat="44.64253" lon="5.07317">
        <ele>430</ele>
        <time>2018-06-10T08:08:41Z</time>
      </trkpt>
      <trkpt lat="44.64254" lon="5.07322">
        <ele>430</ele>
        <time>2018-06-10T08:08:43Z</time>
      </trkpt>
      <trkpt lat="44.64255" lon="5.07327">
        <ele>430</ele>
        <time>2018-06-10T08:08:45Z</time>
      </trkpt>
      <trkpt lat="44.64255" lon="5.07332">
        <ele>430</ele>
        <time>2018-06-10T08:08:47Z</time>
      </trkpt>
      <trkpt lat="44.64256" lon="5.07337">
        <ele>430</ele>
        <time>2018-06-10T08:08:49Z</time>
      </trkpt>
      <trkpt lat="44.64256" lon="5.07343">
        <ele>430</ele>
        <time>2018-06-10T08:08:51Z</time>
      </trkpt>
      <trkpt lat="44.64258" lon="5.07348">
        <ele>430</ele>
        <time>2018-06-10T08:08:53Z</time>
      </trkpt>
      <trkpt lat="44.6426" lon="5.07354">
        <ele>430</ele>
        <time>2018-06-10T08:08:55Z</time>
      </trkpt>
      <trkpt lat="44.6426" lon="5.0736">
        <ele>430</ele>
        <time>2018-06-10T08:08:57Z</time>
      </trkpt>
      <trkpt lat="44.64262" lon="5.07367">
        <ele>430</ele>
        <time>2018-06-10T08:08:59Z</time>
      </trkpt>
      <trkpt lat="44.64263" lon="5.07374">
        <ele>431</ele>
        <time>2018-06-10T08:09:01Z</time>
      </trkpt>
      <trkpt lat="44.64266" lon="5.07381">
        <ele>431</ele>
        <time>2018-06-10T08:09:03Z</time>
      </trkpt>
      <trkpt lat="44.64267" lon="5.07387">
        <ele>431</ele>
        <time>2018-06-10T08:09:05Z</time>
      </trkpt>
      <trkpt lat="44.64266" lon="5.07394">
        <ele>431</ele>
        <time>2018-06-10T08:09:07Z</time>
      </trkpt>
      <trkpt lat="44.64267" lon="5.074">
        <ele>431</ele>
        <time>2018-06-10T08:09:09Z</time>
      </trkpt>
      <trkpt lat="44.64268" lon="5.07407">
        <ele>431</ele>
        <time>2018-06-10T08:09:11Z</time>
      </trkpt>
      <trkpt lat="44.64268" lon="5.07413">
        <ele>431</ele>
        <time>2018-06-10T08:09:13Z</time>
      </trkpt>
      <trkpt lat="44.64269" lon="5.07419">
        <ele>431</ele>
        <time>2018-06-10T08:09:15Z</time>
      </trkpt>
      <trkpt lat="44.64268" lon="5.07426">
        <ele>431</ele>
        <time>2018-06-10T08:09:17Z</time>
      </trkpt>
      <trkpt lat="44.64267" lon="5.07431">
        <ele>432</ele>
        <time>2018-06-10T08:09:19Z</time>
      </trkpt>
      <trkpt lat="44.64268" lon="5.07437">
        <ele>432</ele>
        <time>2018-06-10T08:09:22Z</time>
      </trkpt>
      <trkpt lat="44.64267" lon="5.07443">
        <ele>432</ele>
        <time>2018-06-10T08:09:24Z</time>
      </trkpt>
      <trkpt lat="44.64265" lon="5.07449">
        <ele>432</ele>
        <time>2018-06-10T08:09:26Z</time>
      </trkpt>
      <trkpt lat="44.64264" lon="5.07455">
        <ele>433</ele>
        <time>2018-06-10T08:09:28Z</time>
      </trkpt>
      <trkpt lat="44.64263" lon="5.07463">
        <ele>433</ele>
        <time>2018-06-10T08:09:30Z</time>
      </trkpt>
      <trkpt lat="44.64264" lon="5.0747">
        <ele>433</ele>
        <time>2018-06-10T08:09:32Z</time>
      </trkpt>
      <trkpt lat="44.64265" lon="5.07476">
        <ele>434</ele>
        <time>2018-06-10T08:09:34Z</time>
      </trkpt>
      <trkpt lat="44.64264" lon="5.07481">
        <ele>434</ele>
        <time>2018-06-10T08:09:36Z</time>
      </trkpt>
      <trkpt lat="44.64264" lon="5.07487">
        <ele>434</ele>
        <time>2018-06-10T08:09:38Z</time>
      </trkpt>
      <trkpt lat="44.64264" lon="5.07492">
        <ele>434</ele>
        <time>2018-06-10T08:09:40Z</time>
      </trkpt>
      <trkpt lat="44.64264" lon="5.07497">
        <ele>435</ele>
        <time>2018-06-10T08:09:42Z</time>
      </trkpt>
      <trkpt lat="44.64262" lon="5.07503">
        <ele>435</ele>
        <time>2018-06-10T08:09:44Z</time>
      </trkpt>
      <trkpt lat="44.64261" lon="5.07508">
        <ele>435</ele>
        <time>2018-06-10T08:09:46Z</time>
      </trkpt>
      <trkpt lat="44.64263" lon="5.07512">
        <ele>436</ele>
        <time>2018-06-10T08:09:48Z</time>
      </trkpt>
      <trkpt lat="44.64264" lon="5.07515">
        <ele>437</ele>
        <time>2018-06-10T08:09:50Z</time>
      </trkpt>
      <trkpt lat="44.64264" lon="5.07521">
        <ele>437</ele>
        <time>2018-06-10T08:09:52Z</time>
      </trkpt>
      <trkpt lat="44.64262" lon="5.07525">
        <ele>437</ele>
        <time>2018-06-10T08:09:54Z</time>
      </trkpt>
      <trkpt lat="44.64261" lon="5.07529">
        <ele>437</ele>
        <time>2018-06-10T08:09:56Z</time>
      </trkpt>
      <trkpt lat="44.64261" lon="5.07533">
        <ele>438</ele>
        <time>2018-06-10T08:09:58Z</time>
      </trkpt>
      <trkpt lat="44.64261" lon="5.07537">
        <ele>438</ele>
        <time>2018-06-10T08:10:00Z</time>
      </trkpt>
      <trkpt lat="44.64262" lon="5.07541">
        <ele>438</ele>
        <time>2018-06-10T08:10:02Z</time>
      </trkpt>
      <trkpt lat="44.64261" lon="5.07545">
        <ele>439</ele>
        <time>2018-06-10T08:10:04Z</time>
      </trkpt>
      <trkpt lat="44.64261" lon="5.07547">
        <ele>439</ele>
        <time>2018-06-10T08:10:07Z</time>
      </trkpt>
      <trkpt lat="44.64261" lon="5.0755">
        <ele>439</ele>
        <time>2018-06-10T08:10:09Z</time>
      </trkpt>
      <trkpt lat="44.64261" lon="5.07555">
        <ele>439</ele>
        <time>2018-06-10T08:10:11Z</time>
      </trkpt>
      <trkpt lat="44.64259" lon="5.07559">
        <ele>440</ele>
        <time>2018-06-10T08:10:13Z</time>
      </trkpt>
      <trkpt lat="44.64262" lon="5.07561">
        <ele>440</ele>
        <time>2018-06-10T08:10:15Z</time>
      </trkpt>
      <trkpt lat="44.64262" lon="5.07564">
        <ele>440</ele>
        <time>2018-06-10T08:10:17Z</time>
      </trkpt>
      <trkpt lat="44.64262" lon="5.07566">
        <ele>440</ele>
        <time>2018-06-10T08:10:19Z</time>
      </trkpt>
      <trkpt lat="44.64263" lon="5.07568">
        <ele>440</ele>
        <time>2018-06-10T08:10:21Z</time>
      </trkpt>
      <trkpt lat="44.64263" lon="5.0757">
        <ele>441</ele>
        <time>2018-06-10T08:10:23Z</time>
      </trkpt>
      <trkpt lat="44.64263" lon="5.07573">
        <ele>441</ele>
        <time>2018-06-10T08:10:25Z</time>
      </trkpt>
      <trkpt lat="44.64264" lon="5.07577">
        <ele>441</ele>
        <time>2018-06-10T08:10:27Z</time>
      </trkpt>
      <trkpt lat="44.64265" lon="5.07581">
        <ele>441</ele>
        <time>2018-06-10T08:10:29Z</time>
      </trkpt>
      <trkpt lat="44.64264" lon="5.07584">
        <ele>442</ele>
        <time>2018-06-10T08:10:31Z</time>
      </trkpt>
      <trkpt lat="44.64265" lon="5.07588">
        <ele>442</ele>
        <time>2018-06-10T08:10:33Z</time>
      </trkpt>
      <trkpt lat="44.64265" lon="5.07591">
        <ele>442</ele>
        <time>2018-06-10T08:10:35Z</time>
      </trkpt>
      <trkpt lat="44.64266" lon="5.07595">
        <ele>443</ele>
        <time>2018-06-10T08:10:37Z</time>
      </trkpt>
      <trkpt lat="44.64265" lon="5.07598">
        <ele>443</ele>
        <time>2018-06-10T08:10:39Z</time>
      </trkpt>
      <trkpt lat="44.64263" lon="5.07602">
        <ele>443</ele>
        <time>2018-06-10T08:10:41Z</time>
      </trkpt>
      <trkpt lat="44.64263" lon="5.07607">
        <ele>444</ele>
        <time>2018-06-10T08:10:43Z</time>
      </trkpt>
      <trkpt lat="44.64262" lon="5.07611">
        <ele>444</ele>
        <time>2018-06-10T08:10:45Z</time>
      </trkpt>
      <trkpt lat="44.64261" lon="5.07615">
        <ele>444</ele>
        <time>2018-06-10T08:10:47Z</time>
      </trkpt>
      <trkpt lat="44.64261" lon="5.07618">
        <ele>445</ele>
        <time>2018-06-10T08:10:49Z</time>
      </trkpt>
      <trkpt lat="44.6426" lon="5.0762">
        <ele>445</ele>
        <time>2018-06-10T08:10:51Z</time>
      </trkpt>
      <trkpt lat="44.64258" lon="5.07622">
        <ele>445</ele>
        <time>2018-06-10T08:10:53Z</time>
      </trkpt>
      <trkpt lat="44.64256" lon="5.07622">
        <ele>446</ele>
        <time>2018-06-10T08:10:55Z</time>
      </trkpt>
      <trkpt lat="44.64255" lon="5.07621">
        <ele>446</ele>
        <time>2018-06-10T08:10:57Z</time>
      </trkpt>
      <trkpt lat="44.64253" lon="5.07623">
        <ele>446</ele>
        <time>2018-06-10T08:10:59Z</time>
      </trkpt>
      <trkpt lat="44.64251" lon="5.07627">
        <ele>446</ele>
        <time>2018-06-10T08:11:01Z</time>
      </trkpt>
      <trkpt lat="44.6425" lon="5.07631">
        <ele>446</ele>
        <time>2018-06-10T08:11:03Z</time>
      </trkpt>
      <trkpt lat="44.6425" lon="5.07635">
        <ele>447</ele>
        <time>2018-06-10T08:11:06Z</time>
      </trkpt>
      <trkpt lat="44.6425" lon="5.07638">
        <ele>447</ele>
        <time>2018-06-10T08:11:08Z</time>
      </trkpt>
      <trkpt lat="44.6425" lon="5.07642">
        <ele>447</ele>
        <time>2018-06-10T08:11:10Z</time>
      </trkpt>
      <trkpt lat="44.6425" lon="5.07645">
        <ele>448</ele>
        <time>2018-06-10T08:11:12Z</time>
      </trkpt>
      <trkpt lat="44.6425" lon="5.07649">
        <ele>449</ele>
        <time>2018-06-10T08:11:14Z</time>
      </trkpt>
      <trkpt lat="44.6425" lon="5.07653">
        <ele>449</ele>
        <time>2018-06-10T08:11:16Z</time>
      </trkpt>
      <trkpt lat="44.64248" lon="5.07657">
        <ele>449</ele>
        <time>2018-06-10T08:11:18Z</time>
      </trkpt>
      <trkpt lat="44.64248" lon="5.0766">
        <ele>449</ele>
        <time>2018-06-10T08:11:20Z</time>
      </trkpt>
      <trkpt lat="44.64247" lon="5.07663">
        <ele>450</ele>
        <time>2018-06-10T08:11:22Z</time>
      </trkpt>
      <trkpt lat="44.64247" lon="5.07666">
        <ele>450</ele>
        <time>2018-06-10T08:11:24Z</time>
      </trkpt>
      <trkpt lat="44.64246" lon="5.07669">
        <ele>450</ele>
        <time>2018-06-10T08:11:26Z</time>
      </trkpt>
      <trkpt lat="44.64245" lon="5.07673">
        <ele>450</ele>
        <time>2018-06-10T08:11:28Z</time>
      </trkpt>
      <trkpt lat="44.64245" lon="5.07676">
        <ele>451</ele>
        <time>2018-06-10T08:11:30Z</time>
      </trkpt>
      <trkpt lat="44.64245" lon="5.07678">
        <ele>451</ele>
        <time>2018-06-10T08:11:32Z</time>
      </trkpt>
      <trkpt lat="44.64245" lon="5.07681">
        <ele>451</ele>
        <time>2018-06-10T08:11:34Z</time>
      </trkpt>
      <trkpt lat="44.64245" lon="5.07683">
        <ele>451</ele>
        <time>2018-06-10T08:11:36Z</time>
      </trkpt>
      <trkpt lat="44.64245" lon="5.07686">
        <ele>451</ele>
        <time>2018-06-10T08:11:38Z</time>
      </trkpt>
      <trkpt lat="44.64245" lon="5.07688">
        <ele>451</ele>
        <time>2018-06-10T08:11:40Z</time>
      </trkpt>
      <trkpt lat="44.64245" lon="5.07691">
        <ele>452</ele>
        <time>2018-06-10T08:11:42Z</time>
      </trkpt>
      <trkpt lat="44.64245" lon="5.07693">
        <ele>452</ele>
        <time>2018-06-10T08:11:44Z</time>
      </trkpt>
      <trkpt lat="44.64244" lon="5.07696">
        <ele>452</ele>
        <time>2018-06-10T08:11:46Z</time>
      </trkpt>
      <trkpt lat="44.64244" lon="5.07699">
        <ele>453</ele>
        <time>2018-06-10T08:11:48Z</time>
      </trkpt>
      <trkpt lat="44.64244" lon="5.07702">
        <ele>453</ele>
        <time>2018-06-10T08:11:50Z</time>
      </trkpt>
      <trkpt lat="44.64244" lon="5.07704">
        <ele>453</ele>
        <time>2018-06-10T08:11:52Z</time>
      </trkpt>
      <trkpt lat="44.64244" lon="5.07707">
        <ele>453</ele>
        <time>2018-06-10T08:11:54Z</time>
      </trkpt>
      <trkpt lat="44.64243" lon="5.0771">
        <ele>453</ele>
        <time>2018-06-10T08:11:56Z</time>
      </trkpt>
      <trkpt lat="44.64243" lon="5.07712">
        <ele>454</ele>
        <time>2018-06-10T08:11:58Z</time>
      </trkpt>
      <trkpt lat="44.64243" lon="5.07714">
        <ele>453</ele>
        <time>2018-06-10T08:12:00Z</time>
      </trkpt>
      <trkpt lat="44.64243" lon="5.07717">
        <ele>454</ele>
        <time>2018-06-10T08:12:02Z</time>
      </trkpt>
      <trkpt lat="44.64243" lon="5.07719">
        <ele>454</ele>
        <time>2018-06-10T08:12:04Z</time>
      </trkpt>
      <trkpt lat="44.64243" lon="5.07722">
        <ele>454</ele>
        <time>2018-06-10T08:12:06Z</time>
      </trkpt>
      <trkpt lat="44.64244" lon="5.07724">
        <ele>455</ele>
        <time>2018-06-10T08:12:08Z</time>
      </trkpt>
      <trkpt lat="44.64244" lon="5.07726">
        <ele>455</ele>
        <time>2018-06-10T08:12:10Z</time>
      </trkpt>
      <trkpt lat="44.64245" lon="5.07728">
        <ele>455</ele>
        <time>2018-06-10T08:12:12Z</time>
      </trkpt>
      <trkpt lat="44.64245" lon="5.0773">
        <ele>455</ele>
        <time>2018-06-10T08:12:14Z</time>
      </trkpt>
      <trkpt lat="44.64246" lon="5.07733">
        <ele>456</ele>
        <time>2018-06-10T08:12:16Z</time>
      </trkpt>
      <trkpt lat="44.64247" lon="5.07735">
        <ele>456</ele>
        <time>2018-06-10T08:12:18Z</time>
      </trkpt>
      <trkpt lat="44.64247" lon="5.07737">
        <ele>457</ele>
        <time>2018-06-10T08:12:20Z</time>
      </trkpt>
      <trkpt lat="44.64248" lon="5.07738">
        <ele>457</ele>
        <time>2018-06-10T08:12:22Z</time>
      </trkpt>
      <trkpt lat="44.64249" lon="5.0774">
        <ele>457</ele>
        <time>2018-06-10T08:12:24Z</time>
      </trkpt>
      <trkpt lat="44.64249" lon="5.07741">
        <ele>457</ele>
        <time>2018-06-10T08:12:26Z</time>
      </trkpt>
      <trkpt lat="44.6425" lon="5.07744">
        <ele>457</ele>
        <time>2018-06-10T08:12:28Z</time>
      </trkpt>
      <trkpt lat="44.6425" lon="5.07747">
        <ele>458</ele>
        <time>2018-06-10T08:12:31Z</time>
      </trkpt>
      <trkpt lat="44.6425" lon="5.07749">
        <ele>458</ele>
        <time>2018-06-10T08:12:33Z</time>
      </trkpt>
      <trkpt lat="44.6425" lon="5.07753">
        <ele>459</ele>
        <time>2018-06-10T08:12:35Z</time>
      </trkpt>
      <trkpt lat="44.64249" lon="5.07755">
        <ele>458</ele>
        <time>2018-06-10T08:12:37Z</time>
      </trkpt>
      <trkpt lat="44.64249" lon="5.07758">
        <ele>459</ele>
        <time>2018-06-10T08:12:39Z</time>
      </trkpt>
      <trkpt lat="44.64249" lon="5.0776">
        <ele>459</ele>
        <time>2018-06-10T08:12:41Z</time>
      </trkpt>
      <trkpt lat="44.6425" lon="5.07763">
        <ele>460</ele>
        <time>2018-06-10T08:12:43Z</time>
      </trkpt>
      <trkpt lat="44.64251" lon="5.07764">
        <ele>460</ele>
        <time>2018-06-10T08:12:45Z</time>
      </trkpt>
      <trkpt lat="44.64253" lon="5.07766">
        <ele>460</ele>
        <time>2018-06-10T08:12:47Z</time>
      </trkpt>
      <trkpt lat="44.64254" lon="5.07766">
        <ele>460</ele>
        <time>2018-06-10T08:12:49Z</time>
      </trkpt>
      <trkpt lat="44.64255" lon="5.07767">
        <ele>460</ele>
        <time>2018-06-10T08:12:51Z</time>
      </trkpt>
      <trkpt lat="44.64256" lon="5.07768">
        <ele>460</ele>
        <time>2018-06-10T08:12:53Z</time>
      </trkpt>
      <trkpt lat="44.64258" lon="5.0777">
        <ele>460</ele>
        <time>2018-06-10T08:12:55Z</time>
      </trkpt>
      <trkpt lat="44.64258" lon="5.07771">
        <ele>460</ele>
        <time>2018-06-10T08:12:57Z</time>
      </trkpt>
      <trkpt lat="44.64259" lon="5.07776">
        <ele>460</ele>
        <time>2018-06-10T08:12:59Z</time>
      </trkpt>
      <trkpt lat="44.6426" lon="5.07779">
        <ele>460</ele>
        <time>2018-06-10T08:13:01Z</time>
      </trkpt>
      <trkpt lat="44.6426" lon="5.07782">
        <ele>460</ele>
        <time>2018-06-10T08:13:03Z</time>
      </trkpt>
      <trkpt lat="44.64262" lon="5.07786">
        <ele>460</ele>
        <time>2018-06-10T08:13:05Z</time>
      </trkpt>
      <trkpt lat="44.64265" lon="5.07789">
        <ele>460</ele>
        <time>2018-06-10T08:13:07Z</time>
      </trkpt>
      <trkpt lat="44.64267" lon="5.07797">
        <ele>460</ele>
        <time>2018-06-10T08:13:09Z</time>
      </trkpt>
      <trkpt lat="44.6427" lon="5.07805">
        <ele>459</ele>
        <time>2018-06-10T08:13:11Z</time>
      </trkpt>
      <trkpt lat="44.64272" lon="5.07813">
        <ele>459</ele>
        <time>2018-06-10T08:13:13Z</time>
      </trkpt>
      <trkpt lat="44.64275" lon="5.07821">
        <ele>459</ele>
        <time>2018-06-10T08:13:15Z</time>
      </trkpt>
      <trkpt lat="44.64278" lon="5.07827">
        <ele>459</ele>
        <time>2018-06-10T08:13:17Z</time>
      </trkpt>
      <trkpt lat="44.64281" lon="5.07829">
        <ele>459</ele>
        <time>2018-06-10T08:13:19Z</time>
      </trkpt>
      <trkpt lat="44.64282" lon="5.07833">
        <ele>459</ele>
        <time>2018-06-10T08:13:21Z</time>
      </trkpt>
      <trkpt lat="44.64283" lon="5.07838">
        <ele>459</ele>
        <time>2018-06-10T08:13:23Z</time>
      </trkpt>
      <trkpt lat="44.64284" lon="5.0784">
        <ele>459</ele>
        <time>2018-06-10T08:13:25Z</time>
      </trkpt>
      <trkpt lat="44.64287" lon="5.07842">
        <ele>459</ele>
        <time>2018-06-10T08:13:27Z</time>
      </trkpt>
      <trkpt lat="44.64291" lon="5.07846">
        <ele>458</ele>
        <time>2018-06-10T08:13:29Z</time>
      </trkpt>
      <trkpt lat="44.64294" lon="5.07849">
        <ele>459</ele>
        <time>2018-06-10T08:13:31Z</time>
      </trkpt>
      <trkpt lat="44.64298" lon="5.07853">
        <ele>459</ele>
        <time>2018-06-10T08:13:33Z</time>
      </trkpt>
      <trkpt lat="44.64301" lon="5.07857">
        <ele>459</ele>
        <time>2018-06-10T08:13:35Z</time>
      </trkpt>
      <trkpt lat="44.64304" lon="5.0786">
        <ele>459</ele>
        <time>2018-06-10T08:13:37Z</time>
      </trkpt>
      <trkpt lat="44.64309" lon="5.07862">
        <ele>459</ele>
        <time>2018-06-10T08:13:39Z</time>
      </trkpt>
      <trkpt lat="44.64312" lon="5.07865">
        <ele>459</ele>
        <time>2018-06-10T08:13:41Z</time>
      </trkpt>
      <trkpt lat="44.64316" lon="5.07868">
        <ele>459</ele>
        <time>2018-06-10T08:13:43Z</time>
      </trkpt>
      <trkpt lat="44.64319" lon="5.0787">
        <ele>459</ele>
        <time>2018-06-10T08:13:45Z</time>
      </trkpt>
      <trkpt lat="44.64322" lon="5.07873">
        <ele>460</ele>
        <time>2018-06-10T08:13:47Z</time>
      </trkpt>
      <trkpt lat="44.64325" lon="5.07877">
        <ele>460</ele>
        <time>2018-06-10T08:13:49Z</time>
      </trkpt>
      <trkpt lat="44.64328" lon="5.07881">
        <ele>460</ele>
        <time>2018-06-10T08:13:51Z</time>
      </trkpt>
      <trkpt lat="44.64331" lon="5.07887">
        <ele>459</ele>
        <time>2018-06-10T08:13:54Z</time>
      </trkpt>
      <trkpt lat="44.64334" lon="5.07893">
        <ele>459</ele>
        <time>2018-06-10T08:13:56Z</time>
      </trkpt>
      <trkpt lat="44.64335" lon="5.07898">
        <ele>458</ele>
        <time>2018-06-10T08:13:58Z</time>
      </trkpt>
      <trkpt lat="44.6434" lon="5.07905">
        <ele>458</ele>
        <time>2018-06-10T08:14:00Z</time>
      </trkpt>
      <trkpt lat="44.64346" lon="5.07914">
        <ele>456</ele>
        <time>2018-06-10T08:14:02Z</time>
      </trkpt>
      <trkpt lat="44.64352" lon="5.07923">
        <ele>456</ele>
        <time>2018-06-10T08:14:04Z</time>
      </trkpt>
      <trkpt lat="44.6436" lon="5.07934">
        <ele>456</ele>
        <time>2018-06-10T08:14:06Z</time>
      </trkpt>
      <trkpt lat="44.64362" lon="5.07938">
        <ele>457</ele>
        <time>2018-06-10T08:14:08Z</time>
      </trkpt>
      <trkpt lat="44.64366" lon="5.07942">
        <ele>458</ele>
        <time>2018-06-10T08:14:10Z</time>
      </trkpt>
      <trkpt lat="44.64368" lon="5.07945">
        <ele>458</ele>
        <time>2018-06-10T08:14:12Z</time>
      </trkpt>
      <trkpt lat="44.6437" lon="5.07948">
        <ele>459</ele>
        <time>2018-06-10T08:14:14Z</time>
      </trkpt>
      <trkpt lat="44.64373" lon="5.07952">
        <ele>460</ele>
        <time>2018-06-10T08:14:16Z</time>
      </trkpt>
      <trkpt lat="44.64375" lon="5.07956">
        <ele>460</ele>
        <time>2018-06-10T08:14:18Z</time>
      </trkpt>
      <trkpt lat="44.64376" lon="5.07958">
        <ele>460</ele>
        <time>2018-06-10T08:14:20Z</time>
      </trkpt>
      <trkpt lat="44.64379" lon="5.0796">
        <ele>459</ele>
        <time>2018-06-10T08:14:22Z</time>
      </trkpt>
      <trkpt lat="44.64381" lon="5.07967">
        <ele>459</ele>
        <time>2018-06-10T08:14:24Z</time>
      </trkpt>
      <trkpt lat="44.64384" lon="5.07977">
        <ele>458</ele>
        <time>2018-06-10T08:14:26Z</time>
      </trkpt>
      <trkpt lat="44.64383" lon="5.07988">
        <ele>458</ele>
        <time>2018-06-10T08:14:28Z</time>
      </trkpt>
      <trkpt lat="44.64382" lon="5.07998">
        <ele>458</ele>
        <time>2018-06-10T08:14:30Z</time>
      </trkpt>
      <trkpt lat="44.64384" lon="5.08007">
        <ele>456</ele>
        <time>2018-06-10T08:14:32Z</time>
      </trkpt>
      <trkpt lat="44.6439" lon="5.08015">
        <ele>456</ele>
        <time>2018-06-10T08:14:34Z</time>
      </trkpt>
      <trkpt lat="44.64396" lon="5.08015">
        <ele>455</ele>
        <time>2018-06-10T08:14:36Z</time>
      </trkpt>
      <trkpt lat="44.64401" lon="5.08015">
        <ele>455</ele>
        <time>2018-06-10T08:14:38Z</time>
      </trkpt>
      <trkpt lat="44.64407" lon="5.08015">
        <ele>454</ele>
        <time>2018-06-10T08:14:40Z</time>
      </trkpt>
      <trkpt lat="44.64415" lon="5.08016">
        <ele>451</ele>
        <time>2018-06-10T08:14:42Z</time>
      </trkpt>
      <trkpt lat="44.64421" lon="5.08023">
        <ele>450</ele>
        <time>2018-06-10T08:14:44Z</time>
      </trkpt>
      <trkpt lat="44.64434" lon="5.08034">
        <ele>449</ele>
        <time>2018-06-10T08:14:47Z</time>
      </trkpt>
      <trkpt lat="44.6444" lon="5.0804">
        <ele>449</ele>
        <time>2018-06-10T08:14:49Z</time>
      </trkpt>
      <trkpt lat="44.6445" lon="5.08054">
        <ele>448</ele>
        <time>2018-06-10T08:14:51Z</time>
      </trkpt>
      <trkpt lat="44.64457" lon="5.08065">
        <ele>448</ele>
        <time>2018-06-10T08:14:53Z</time>
      </trkpt>
      <trkpt lat="44.64464" lon="5.08075">
        <ele>448</ele>
        <time>2018-06-10T08:14:55Z</time>
      </trkpt>
      <trkpt lat="44.64469" lon="5.08084">
        <ele>449</ele>
        <time>2018-06-10T08:14:57Z</time>
      </trkpt>
      <trkpt lat="44.64474" lon="5.08093">
        <ele>449</ele>
        <time>2018-06-10T08:14:59Z</time>
      </trkpt>
      <trkpt lat="44.64476" lon="5.08101">
        <ele>449</ele>
        <time>2018-06-10T08:15:01Z</time>
      </trkpt>
      <trkpt lat="44.64478" lon="5.0811">
        <ele>449</ele>
        <time>2018-06-10T08:15:03Z</time>
      </trkpt>
      <trkpt lat="44.64481" lon="5.08119">
        <ele>449</ele>
        <time>2018-06-10T08:15:05Z</time>
      </trkpt>
      <trkpt lat="44.64485" lon="5.08126">
        <ele>449</ele>
        <time>2018-06-10T08:15:07Z</time>
      </trkpt>
      <trkpt lat="44.64488" lon="5.08132">
        <ele>449</ele>
        <time>2018-06-10T08:15:09Z</time>
      </trkpt>
      <trkpt lat="44.64492" lon="5.08137">
        <ele>449</ele>
        <time>2018-06-10T08:15:11Z</time>
      </trkpt>
      <trkpt lat="44.64496" lon="5.08144">
        <ele>448</ele>
        <time>2018-06-10T08:15:13Z</time>
      </trkpt>
      <trkpt lat="44.64503" lon="5.08152">
        <ele>448</ele>
        <time>2018-06-10T08:15:15Z</time>
      </trkpt>
      <trkpt lat="44.64509" lon="5.08161">
        <ele>447</ele>
        <time>2018-06-10T08:15:17Z</time>
      </trkpt>
      <trkpt lat="44.64514" lon="5.08171">
        <ele>447</ele>
        <time>2018-06-10T08:15:19Z</time>
      </trkpt>
      <trkpt lat="44.6452" lon="5.08185">
        <ele>442</ele>
        <time>2018-06-10T08:15:21Z</time>
      </trkpt>
      <trkpt lat="44.64528" lon="5.08193">
        <ele>439</ele>
        <time>2018-06-10T08:15:23Z</time>
      </trkpt>
      <trkpt lat="44.64531" lon="5.08198">
        <ele>436</ele>
        <time>2018-06-10T08:15:25Z</time>
      </trkpt>
      <trkpt lat="44.64533" lon="5.08207">
        <ele>434</ele>
        <time>2018-06-10T08:15:27Z</time>
      </trkpt>
      <trkpt lat="44.64537" lon="5.08223">
        <ele>432</ele>
        <time>2018-06-10T08:15:29Z</time>
      </trkpt>
      <trkpt lat="44.64537" lon="5.08234">
        <ele>431</ele>
        <time>2018-06-10T08:15:31Z</time>
      </trkpt>
      <trkpt lat="44.64534" lon="5.08244">
        <ele>430</ele>
        <time>2018-06-10T08:15:33Z</time>
      </trkpt>
      <trkpt lat="44.6453" lon="5.08244">
        <ele>430</ele>
        <time>2018-06-10T08:15:35Z</time>
      </trkpt>
      <trkpt lat="44.64527" lon="5.08242">
        <ele>431</ele>
        <time>2018-06-10T08:15:37Z</time>
      </trkpt>
      <trkpt lat="44.64522" lon="5.08238">
        <ele>430</ele>
        <time>2018-06-10T08:15:39Z</time>
      </trkpt>
      <trkpt lat="44.64511" lon="5.08239">
        <ele>427</ele>
        <time>2018-06-10T08:15:41Z</time>
      </trkpt>
      <trkpt lat="44.64498" lon="5.08242">
        <ele>426</ele>
        <time>2018-06-10T08:15:43Z</time>
      </trkpt>
      <trkpt lat="44.64485" lon="5.08243">
        <ele>423</ele>
        <time>2018-06-10T08:15:45Z</time>
      </trkpt>
      <trkpt lat="44.64468" lon="5.08246">
        <ele>419</ele>
        <time>2018-06-10T08:15:48Z</time>
      </trkpt>
      <trkpt lat="44.64447" lon="5.08252">
        <ele>420</ele>
        <time>2018-06-10T08:15:50Z</time>
      </trkpt>
      <trkpt lat="44.64438" lon="5.0826">
        <ele>420</ele>
        <time>2018-06-10T08:15:52Z</time>
      </trkpt>
      <trkpt lat="44.64429" lon="5.08265">
        <ele>420</ele>
        <time>2018-06-10T08:15:54Z</time>
      </trkpt>
      <trkpt lat="44.6442" lon="5.08267">
        <ele>419</ele>
        <time>2018-06-10T08:15:56Z</time>
      </trkpt>
      <trkpt lat="44.64411" lon="5.08261">
        <ele>419</ele>
        <time>2018-06-10T08:15:58Z</time>
      </trkpt>
      <trkpt lat="44.64404" lon="5.08252">
        <ele>417</ele>
        <time>2018-06-10T08:16:00Z</time>
      </trkpt>
      <trkpt lat="44.64396" lon="5.08241">
        <ele>414</ele>
        <time>2018-06-10T08:16:02Z</time>
      </trkpt>
      <trkpt lat="44.64383" lon="5.08229">
        <ele>413</ele>
        <time>2018-06-10T08:16:04Z</time>
      </trkpt>
      <trkpt lat="44.64371" lon="5.08219">
        <ele>411</ele>
        <time>2018-06-10T08:16:06Z</time>
      </trkpt>
      <trkpt lat="44.64367" lon="5.08214">
        <ele>410</ele>
        <time>2018-06-10T08:16:08Z</time>
      </trkpt>
      <trkpt lat="44.64365" lon="5.08214">
        <ele>410</ele>
        <time>2018-06-10T08:16:10Z</time>
      </trkpt>
      <trkpt lat="44.64358" lon="5.08206">
        <ele>409</ele>
        <time>2018-06-10T08:16:12Z</time>
      </trkpt>
      <trkpt lat="44.64357" lon="5.08208">
        <ele>410</ele>
        <time>2018-06-10T08:16:14Z</time>
      </trkpt>
      <trkpt lat="44.64357" lon="5.08209">
        <ele>409</ele>
        <time>2018-06-10T08:16:16Z</time>
      </trkpt>
      <trkpt lat="44.64358" lon="5.0821">
        <ele>409</ele>
        <time>2018-06-10T08:16:18Z</time>
      </trkpt>
      <trkpt lat="44.64358" lon="5.08212">
        <ele>409</ele>
        <time>2018-06-10T08:16:20Z</time>
      </trkpt>
      <trkpt lat="44.64361" lon="5.08215">
        <ele>408</ele>
        <time>2018-06-10T08:16:22Z</time>
      </trkpt>
      <trkpt lat="44.64365" lon="5.08225">
        <ele>406</ele>
        <time>2018-06-10T08:16:24Z</time>
      </trkpt>
      <trkpt lat="44.6437" lon="5.08234">
        <ele>406</ele>
        <time>2018-06-10T08:16:26Z</time>
      </trkpt>
      <trkpt lat="44.64376" lon="5.08247">
        <ele>404</ele>
        <time>2018-06-10T08:16:28Z</time>
      </trkpt>
      <trkpt lat="44.64381" lon="5.08257">
        <ele>403</ele>
        <time>2018-06-10T08:16:30Z</time>
      </trkpt>
      <trkpt lat="44.64388" lon="5.0827">
        <ele>403</ele>
        <time>2018-06-10T08:16:32Z</time>
      </trkpt>
      <trkpt lat="44.64395" lon="5.08284">
        <ele>402</ele>
        <time>2018-06-10T08:16:34Z</time>
      </trkpt>
      <trkpt lat="44.64398" lon="5.0829">
        <ele>400</ele>
        <time>2018-06-10T08:16:36Z</time>
      </trkpt>
      <trkpt lat="44.64402" lon="5.08299">
        <ele>400</ele>
        <time>2018-06-10T08:16:38Z</time>
      </trkpt>
      <trkpt lat="44.64406" lon="5.08309">
        <ele>399</ele>
        <time>2018-06-10T08:16:40Z</time>
      </trkpt>
      <trkpt lat="44.64411" lon="5.08321">
        <ele>397</ele>
        <time>2018-06-10T08:16:43Z</time>
      </trkpt>
      <trkpt lat="44.64416" lon="5.08332">
        <ele>397</ele>
        <time>2018-06-10T08:16:45Z</time>
      </trkpt>
      <trkpt lat="44.6442" lon="5.08345">
        <ele>396</ele>
        <time>2018-06-10T08:16:47Z</time>
      </trkpt>
      <trkpt lat="44.64423" lon="5.08352">
        <ele>397</ele>
        <time>2018-06-10T08:16:49Z</time>
      </trkpt>
      <trkpt lat="44.64427" lon="5.08353">
        <ele>397</ele>
        <time>2018-06-10T08:16:51Z</time>
      </trkpt>
      <trkpt lat="44.6443" lon="5.08354">
        <ele>398</ele>
        <time>2018-06-10T08:16:53Z</time>
      </trkpt>
      <trkpt lat="44.64432" lon="5.08352">
        <ele>398</ele>
        <time>2018-06-10T08:16:55Z</time>
      </trkpt>
      <trkpt lat="44.64435" lon="5.0835">
        <ele>398</ele>
        <time>2018-06-10T08:16:57Z</time>
      </trkpt>
      <trkpt lat="44.64438" lon="5.0835">
        <ele>399</ele>
        <time>2018-06-10T08:16:59Z</time>
      </trkpt>
      <trkpt lat="44.64442" lon="5.08348">
        <ele>399</ele>
        <time>2018-06-10T08:17:01Z</time>
      </trkpt>
      <trkpt lat="44.64445" lon="5.08345">
        <ele>399</ele>
        <time>2018-06-10T08:17:03Z</time>
      </trkpt>
      <trkpt lat="44.64449" lon="5.08343">
        <ele>399</ele>
        <time>2018-06-10T08:17:05Z</time>
      </trkpt>
      <trkpt lat="44.64452" lon="5.08341">
        <ele>399</ele>
        <time>2018-06-10T08:17:07Z</time>
      </trkpt>
      <trkpt lat="44.64457" lon="5.08341">
        <ele>399</ele>
        <time>2018-06-10T08:17:09Z</time>
      </trkpt>
      <trkpt lat="44.64462" lon="5.08341">
        <ele>399</ele>
        <time>2018-06-10T08:17:11Z</time>
      </trkpt>
      <trkpt lat="44.64468" lon="5.08341">
        <ele>399</ele>
        <time>2018-06-10T08:17:13Z</time>
      </trkpt>
      <trkpt lat="44.64474" lon="5.08344">
        <ele>398</ele>
        <time>2018-06-10T08:17:15Z</time>
      </trkpt>
      <trkpt lat="44.64478" lon="5.08352">
        <ele>397</ele>
        <time>2018-06-10T08:17:17Z</time>
      </trkpt>
      <trkpt lat="44.64487" lon="5.08367">
        <ele>397</ele>
        <time>2018-06-10T08:17:19Z</time>
      </trkpt>
      <trkpt lat="44.64495" lon="5.08378">
        <ele>392</ele>
        <time>2018-06-10T08:17:21Z</time>
      </trkpt>
      <trkpt lat="44.64508" lon="5.08394">
        <ele>390</ele>
        <time>2018-06-10T08:17:24Z</time>
      </trkpt>
      <trkpt lat="44.64515" lon="5.08409">
        <ele>387</ele>
        <time>2018-06-10T08:17:26Z</time>
      </trkpt>
      <trkpt lat="44.64525" lon="5.08421">
        <ele>386</ele>
        <time>2018-06-10T08:17:28Z</time>
      </trkpt>
      <trkpt lat="44.64534" lon="5.0844">
        <ele>384</ele>
        <time>2018-06-10T08:17:30Z</time>
      </trkpt>
      <trkpt lat="44.64543" lon="5.08446">
        <ele>382</ele>
        <time>2018-06-10T08:17:32Z</time>
      </trkpt>
      <trkpt lat="44.64547" lon="5.08449">
        <ele>381</ele>
        <time>2018-06-10T08:17:34Z</time>
      </trkpt>
      <trkpt lat="44.64556" lon="5.08454">
        <ele>380</ele>
        <time>2018-06-10T08:17:36Z</time>
      </trkpt>
      <trkpt lat="44.64565" lon="5.08462">
        <ele>379</ele>
        <time>2018-06-10T08:17:38Z</time>
      </trkpt>
      <trkpt lat="44.64573" lon="5.08467">
        <ele>378</ele>
        <time>2018-06-10T08:17:40Z</time>
      </trkpt>
      <trkpt lat="44.64582" lon="5.08475">
        <ele>375</ele>
        <time>2018-06-10T08:17:42Z</time>
      </trkpt>
      <trkpt lat="44.64595" lon="5.08477">
        <ele>375</ele>
        <time>2018-06-10T08:17:44Z</time>
      </trkpt>
      <trkpt lat="44.64608" lon="5.08482">
        <ele>373</ele>
        <time>2018-06-10T08:17:46Z</time>
      </trkpt>
      <trkpt lat="44.64623" lon="5.08484">
        <ele>372</ele>
        <time>2018-06-10T08:17:48Z</time>
      </trkpt>
      <trkpt lat="44.64634" lon="5.0848">
        <ele>370</ele>
        <time>2018-06-10T08:17:50Z</time>
      </trkpt>
      <trkpt lat="44.64651" lon="5.08478">
        <ele>369</ele>
        <time>2018-06-10T08:17:52Z</time>
      </trkpt>
      <trkpt lat="44.64664" lon="5.08482">
        <ele>369</ele>
        <time>2018-06-10T08:17:54Z</time>
      </trkpt>
      <trkpt lat="44.64671" lon="5.08485">
        <ele>371</ele>
        <time>2018-06-10T08:17:56Z</time>
      </trkpt>
      <trkpt lat="44.64679" lon="5.0849">
        <ele>371</ele>
        <time>2018-06-10T08:17:58Z</time>
      </trkpt>
      <trkpt lat="44.64682" lon="5.08495">
        <ele>371</ele>
        <time>2018-06-10T08:18:00Z</time>
      </trkpt>
      <trkpt lat="44.64689" lon="5.08502">
        <ele>372</ele>
        <time>2018-06-10T08:18:02Z</time>
      </trkpt>
      <trkpt lat="44.64698" lon="5.08514">
        <ele>372</ele>
        <time>2018-06-10T08:18:04Z</time>
      </trkpt>
      <trkpt lat="44.64705" lon="5.08519">
        <ele>371</ele>
        <time>2018-06-10T08:18:06Z</time>
      </trkpt>
      <trkpt lat="44.64709" lon="5.08526">
        <ele>371</ele>
        <time>2018-06-10T08:18:08Z</time>
      </trkpt>
      <trkpt lat="44.64716" lon="5.08534">
        <ele>371</ele>
        <time>2018-06-10T08:18:10Z</time>
      </trkpt>
      <trkpt lat="44.64723" lon="5.08541">
        <ele>371</ele>
        <time>2018-06-10T08:18:12Z</time>
      </trkpt>
      <trkpt lat="44.64728" lon="5.0855">
        <ele>371</ele>
        <time>2018-06-10T08:18:14Z</time>
      </trkpt>
      <trkpt lat="44.64736" lon="5.08564">
        <ele>371</ele>
        <time>2018-06-10T08:18:16Z</time>
      </trkpt>
      <trkpt lat="44.64739" lon="5.08568">
        <ele>371</ele>
        <time>2018-06-10T08:18:18Z</time>
      </trkpt>
      <trkpt lat="44.64742" lon="5.0857">
        <ele>371</ele>
        <time>2018-06-10T08:18:20Z</time>
      </trkpt>
      <trkpt lat="44.64745" lon="5.08569">
        <ele>371</ele>
        <time>2018-06-10T08:18:22Z</time>
      </trkpt>
      <trkpt lat="44.64748" lon="5.08571">
        <ele>372</ele>
        <time>2018-06-10T08:18:24Z</time>
      </trkpt>
      <trkpt lat="44.6475" lon="5.08573">
        <ele>371</ele>
        <time>2018-06-10T08:18:26Z</time>
      </trkpt>
      <trkpt lat="44.64753" lon="5.08574">
        <ele>372</ele>
        <time>2018-06-10T08:18:28Z</time>
      </trkpt>
      <trkpt lat="44.64755" lon="5.08576">
        <ele>372</ele>
        <time>2018-06-10T08:18:31Z</time>
      </trkpt>
      <trkpt lat="44.64758" lon="5.08576">
        <ele>372</ele>
        <time>2018-06-10T08:18:33Z</time>
      </trkpt>
      <trkpt lat="44.64761" lon="5.08577">
        <ele>372</ele>
        <time>2018-06-10T08:18:35Z</time>
      </trkpt>
      <trkpt lat="44.64766" lon="5.08585">
        <ele>372</ele>
        <time>2018-06-10T08:18:37Z</time>
      </trkpt>
      <trkpt lat="44.64768" lon="5.08586">
        <ele>372</ele>
        <time>2018-06-10T08:18:39Z</time>
      </trkpt>
      <trkpt lat="44.64771" lon="5.08588">
        <ele>372</ele>
        <time>2018-06-10T08:18:41Z</time>
      </trkpt>
      <trkpt lat="44.64774" lon="5.0859">
        <ele>373</ele>
        <time>2018-06-10T08:18:43Z</time>
      </trkpt>
      <trkpt lat="44.64777" lon="5.08593">
        <ele>373</ele>
        <time>2018-06-10T08:18:45Z</time>
      </trkpt>
      <trkpt lat="44.64779" lon="5.08594">
        <ele>373</ele>
        <time>2018-06-10T08:18:47Z</time>
      </trkpt>
      <trkpt lat="44.64781" lon="5.08596">
        <ele>373</ele>
        <time>2018-06-10T08:18:49Z</time>
      </trkpt>
      <trkpt lat="44.64783" lon="5.08598">
        <ele>374</ele>
        <time>2018-06-10T08:18:51Z</time>
      </trkpt>
      <trkpt lat="44.64785" lon="5.08601">
        <ele>374</ele>
        <time>2018-06-10T08:18:53Z</time>
      </trkpt>
      <trkpt lat="44.64787" lon="5.08604">
        <ele>374</ele>
        <time>2018-06-10T08:18:55Z</time>
      </trkpt>
      <trkpt lat="44.64789" lon="5.08606">
        <ele>375</ele>
        <time>2018-06-10T08:18:57Z</time>
      </trkpt>
      <trkpt lat="44.64792" lon="5.0861">
        <ele>375</ele>
        <time>2018-06-10T08:18:59Z</time>
      </trkpt>
      <trkpt lat="44.64795" lon="5.08613">
        <ele>376</ele>
        <time>2018-06-10T08:19:01Z</time>
      </trkpt>
      <trkpt lat="44.64796" lon="5.08615">
        <ele>376</ele>
        <time>2018-06-10T08:19:03Z</time>
      </trkpt>
      <trkpt lat="44.64798" lon="5.08619">
        <ele>377</ele>
        <time>2018-06-10T08:19:05Z</time>
      </trkpt>
      <trkpt lat="44.64799" lon="5.08621">
        <ele>377</ele>
        <time>2018-06-10T08:19:07Z</time>
      </trkpt>
      <trkpt lat="44.64801" lon="5.08625">
        <ele>377</ele>
        <time>2018-06-10T08:19:09Z</time>
      </trkpt>
      <trkpt lat="44.64805" lon="5.08629">
        <ele>377</ele>
        <time>2018-06-10T08:19:11Z</time>
      </trkpt>
      <trkpt lat="44.64807" lon="5.08632">
        <ele>377</ele>
        <time>2018-06-10T08:19:13Z</time>
      </trkpt>
      <trkpt lat="44.64809" lon="5.08635">
        <ele>378</ele>
        <time>2018-06-10T08:19:15Z</time>
      </trkpt>
      <trkpt lat="44.64811" lon="5.08639">
        <ele>379</ele>
        <time>2018-06-10T08:19:17Z</time>
      </trkpt>
      <trkpt lat="44.64813" lon="5.08642">
        <ele>378</ele>
        <time>2018-06-10T08:19:19Z</time>
      </trkpt>
      <trkpt lat="44.64815" lon="5.08644">
        <ele>379</ele>
        <time>2018-06-10T08:19:21Z</time>
      </trkpt>
      <trkpt lat="44.64818" lon="5.08647">
        <ele>379</ele>
        <time>2018-06-10T08:19:23Z</time>
      </trkpt>
      <trkpt lat="44.64819" lon="5.0865">
        <ele>380</ele>
        <time>2018-06-10T08:19:25Z</time>
      </trkpt>
      <trkpt lat="44.64822" lon="5.08653">
        <ele>380</ele>
        <time>2018-06-10T08:19:27Z</time>
      </trkpt>
      <trkpt lat="44.64823" lon="5.08653">
        <ele>380</ele>
        <time>2018-06-10T08:19:29Z</time>
      </trkpt>
      <trkpt lat="44.64823" lon="5.08653">
        <ele>381</ele>
        <time>2018-06-10T08:19:31Z</time>
      </trkpt>
      <trkpt lat="44.64825" lon="5.08654">
        <ele>381</ele>
        <time>2018-06-10T08:19:33Z</time>
      </trkpt>
      <trkpt lat="44.64828" lon="5.08657">
        <ele>381</ele>
        <time>2018-06-10T08:19:35Z</time>
      </trkpt>
      <trkpt lat="44.64831" lon="5.08662">
        <ele>382</ele>
        <time>2018-06-10T08:19:37Z</time>
      </trkpt>
      <trkpt lat="44.64835" lon="5.08668">
        <ele>382</ele>
        <time>2018-06-10T08:19:39Z</time>
      </trkpt>
      <trkpt lat="44.64838" lon="5.08673">
        <ele>383</ele>
        <time>2018-06-10T08:19:41Z</time>
      </trkpt>
      <trkpt lat="44.6484" lon="5.08676">
        <ele>383</ele>
        <time>2018-06-10T08:19:43Z</time>
      </trkpt>
      <trkpt lat="44.64843" lon="5.08682">
        <ele>383</ele>
        <time>2018-06-10T08:19:45Z</time>
      </trkpt>
      <trkpt lat="44.64846" lon="5.08686">
        <ele>383</ele>
        <time>2018-06-10T08:19:47Z</time>
      </trkpt>
      <trkpt lat="44.64847" lon="5.08687">
        <ele>383</ele>
        <time>2018-06-10T08:19:49Z</time>
      </trkpt>
      <trkpt lat="44.64849" lon="5.08687">
        <ele>383</ele>
        <time>2018-06-10T08:19:51Z</time>
      </trkpt>
      <trkpt lat="44.64853" lon="5.08685">
        <ele>383</ele>
        <time>2018-06-10T08:19:53Z</time>
      </trkpt>
      <trkpt lat="44.64857" lon="5.08685">
        <ele>383</ele>
        <time>2018-06-10T08:19:56Z</time>
      </trkpt>
      <trkpt lat="44.64861" lon="5.08681">
        <ele>383</ele>
        <time>2018-06-10T08:19:58Z</time>
      </trkpt>
      <trkpt lat="44.64867" lon="5.08678">
        <ele>382</ele>
        <time>2018-06-10T08:20:00Z</time>
      </trkpt>
      <trkpt lat="44.64875" lon="5.08676">
        <ele>382</ele>
        <time>2018-06-10T08:20:02Z</time>
      </trkpt>
      <trkpt lat="44.64884" lon="5.08671">
        <ele>380</ele>
        <time>2018-06-10T08:20:04Z</time>
      </trkpt>
      <trkpt lat="44.64896" lon="5.08667">
        <ele>380</ele>
        <time>2018-06-10T08:20:06Z</time>
      </trkpt>
      <trkpt lat="44.64908" lon="5.08661">
        <ele>378</ele>
        <time>2018-06-10T08:20:08Z</time>
      </trkpt>
      <trkpt lat="44.64921" lon="5.08656">
        <ele>378</ele>
        <time>2018-06-10T08:20:10Z</time>
      </trkpt>
      <trkpt lat="44.64934" lon="5.08648">
        <ele>377</ele>
        <time>2018-06-10T08:20:12Z</time>
      </trkpt>
      <trkpt lat="44.64946" lon="5.08641">
        <ele>376</ele>
        <time>2018-06-10T08:20:14Z</time>
      </trkpt>
      <trkpt lat="44.64949" lon="5.08636">
        <ele>375</ele>
        <time>2018-06-10T08:20:16Z</time>
      </trkpt>
      <trkpt lat="44.6495" lon="5.08635">
        <ele>375</ele>
        <time>2018-06-10T08:20:18Z</time>
      </trkpt>
      <trkpt lat="44.64955" lon="5.0864">
        <ele>375</ele>
        <time>2018-06-10T08:20:20Z</time>
      </trkpt>
      <trkpt lat="44.64961" lon="5.08642">
        <ele>375</ele>
        <time>2018-06-10T08:20:22Z</time>
      </trkpt>
      <trkpt lat="44.64967" lon="5.08644">
        <ele>375</ele>
        <time>2018-06-10T08:20:24Z</time>
      </trkpt>
      <trkpt lat="44.6497" lon="5.08643">
        <ele>376</ele>
        <time>2018-06-10T08:20:26Z</time>
      </trkpt>
      <trkpt lat="44.64976" lon="5.08644">
        <ele>376</ele>
        <time>2018-06-10T08:20:28Z</time>
      </trkpt>
      <trkpt lat="44.64984" lon="5.08649">
        <ele>376</ele>
        <time>2018-06-10T08:20:30Z</time>
      </trkpt>
      <trkpt lat="44.64995" lon="5.08659">
        <ele>375</ele>
        <time>2018-06-10T08:20:32Z</time>
      </trkpt>
      <trkpt lat="44.65002" lon="5.08664">
        <ele>376</ele>
        <time>2018-06-10T08:20:34Z</time>
      </trkpt>
      <trkpt lat="44.65008" lon="5.08671">
        <ele>376</ele>
        <time>2018-06-10T08:20:37Z</time>
      </trkpt>
      <trkpt lat="44.65012" lon="5.08677">
        <ele>376</ele>
        <time>2018-06-10T08:20:39Z</time>
      </trkpt>
      <trkpt lat="44.65016" lon="5.08683">
        <ele>376</ele>
        <time>2018-06-10T08:20:41Z</time>
      </trkpt>
      <trkpt lat="44.65022" lon="5.08687">
        <ele>377</ele>
        <time>2018-06-10T08:20:43Z</time>
      </trkpt>
      <trkpt lat="44.65026" lon="5.08693">
        <ele>377</ele>
        <time>2018-06-10T08:20:45Z</time>
      </trkpt>
      <trkpt lat="44.65029" lon="5.08697">
        <ele>377</ele>
        <time>2018-06-10T08:20:47Z</time>
      </trkpt>
      <trkpt lat="44.65032" lon="5.08702">
        <ele>378</ele>
        <time>2018-06-10T08:20:49Z</time>
      </trkpt>
      <trkpt lat="44.65039" lon="5.08707">
        <ele>378</ele>
        <time>2018-06-10T08:20:51Z</time>
      </trkpt>
      <trkpt lat="44.65041" lon="5.08711">
        <ele>378</ele>
        <time>2018-06-10T08:20:53Z</time>
      </trkpt>
      <trkpt lat="44.65042" lon="5.08715">
        <ele>379</ele>
        <time>2018-06-10T08:20:55Z</time>
      </trkpt>
      <trkpt lat="44.65044" lon="5.08719">
        <ele>379</ele>
        <time>2018-06-10T08:20:57Z</time>
      </trkpt>
      <trkpt lat="44.65046" lon="5.08723">
        <ele>379</ele>
        <time>2018-06-10T08:20:59Z</time>
      </trkpt>
      <trkpt lat="44.65048" lon="5.08729">
        <ele>380</ele>
        <time>2018-06-10T08:21:01Z</time>
      </trkpt>
      <trkpt lat="44.65049" lon="5.08734">
        <ele>380</ele>
        <time>2018-06-10T08:21:03Z</time>
      </trkpt>
      <trkpt lat="44.65052" lon="5.08739">
        <ele>380</ele>
        <time>2018-06-10T08:21:05Z</time>
      </trkpt>
      <trkpt lat="44.65054" lon="5.08743">
        <ele>381</ele>
        <time>2018-06-10T08:21:07Z</time>
      </trkpt>
      <trkpt lat="44.65056" lon="5.08747">
        <ele>381</ele>
        <time>2018-06-10T08:21:09Z</time>
      </trkpt>
      <trkpt lat="44.65058" lon="5.0875">
        <ele>381</ele>
        <time>2018-06-10T08:21:11Z</time>
      </trkpt>
      <trkpt lat="44.6506" lon="5.08755">
        <ele>381</ele>
        <time>2018-06-10T08:21:13Z</time>
      </trkpt>
      <trkpt lat="44.65062" lon="5.0876">
        <ele>381</ele>
        <time>2018-06-10T08:21:15Z</time>
      </trkpt>
      <trkpt lat="44.65064" lon="5.08765">
        <ele>382</ele>
        <time>2018-06-10T08:21:17Z</time>
      </trkpt>
      <trkpt lat="44.65068" lon="5.08769">
        <ele>382</ele>
        <time>2018-06-10T08:21:19Z</time>
      </trkpt>
      <trkpt lat="44.6507" lon="5.08774">
        <ele>382</ele>
        <time>2018-06-10T08:21:21Z</time>
      </trkpt>
      <trkpt lat="44.65073" lon="5.08776">
        <ele>382</ele>
        <time>2018-06-10T08:21:23Z</time>
      </trkpt>
      <trkpt lat="44.65075" lon="5.08782">
        <ele>383</ele>
        <time>2018-06-10T08:21:25Z</time>
      </trkpt>
      <trkpt lat="44.65078" lon="5.08789">
        <ele>383</ele>
        <time>2018-06-10T08:21:27Z</time>
      </trkpt>
      <trkpt lat="44.65078" lon="5.08793">
        <ele>383</ele>
        <time>2018-06-10T08:21:29Z</time>
      </trkpt>
      <trkpt lat="44.65077" lon="5.08799">
        <ele>383</ele>
        <time>2018-06-10T08:21:31Z</time>
      </trkpt>
      <trkpt lat="44.6508" lon="5.08802">
        <ele>383</ele>
        <time>2018-06-10T08:21:33Z</time>
      </trkpt>
      <trkpt lat="44.65082" lon="5.08808">
        <ele>384</ele>
        <time>2018-06-10T08:21:35Z</time>
      </trkpt>
      <trkpt lat="44.65083" lon="5.08815">
        <ele>384</ele>
        <time>2018-06-10T08:21:37Z</time>
      </trkpt>
      <trkpt lat="44.65086" lon="5.0882">
        <ele>384</ele>
        <time>2018-06-10T08:21:39Z</time>
      </trkpt>
      <trkpt lat="44.65086" lon="5.08824">
        <ele>385</ele>
        <time>2018-06-10T08:21:41Z</time>
      </trkpt>
      <trkpt lat="44.65089" lon="5.08828">
        <ele>385</ele>
        <time>2018-06-10T08:21:44Z</time>
      </trkpt>
      <trkpt lat="44.65091" lon="5.08832">
        <ele>385</ele>
        <time>2018-06-10T08:21:46Z</time>
      </trkpt>
      <trkpt lat="44.65093" lon="5.08834">
        <ele>385</ele>
        <time>2018-06-10T08:21:48Z</time>
      </trkpt>
      <trkpt lat="44.65098" lon="5.08836">
        <ele>386</ele>
        <time>2018-06-10T08:21:50Z</time>
      </trkpt>
      <trkpt lat="44.65102" lon="5.0884">
        <ele>386</ele>
        <time>2018-06-10T08:21:52Z</time>
      </trkpt>
      <trkpt lat="44.65106" lon="5.08845">
        <ele>387</ele>
        <time>2018-06-10T08:21:54Z</time>
      </trkpt>
      <trkpt lat="44.6511" lon="5.08848">
        <ele>387</ele>
        <time>2018-06-10T08:21:56Z</time>
      </trkpt>
      <trkpt lat="44.65114" lon="5.08851">
        <ele>387</ele>
        <time>2018-06-10T08:21:58Z</time>
      </trkpt>
      <trkpt lat="44.65117" lon="5.08854">
        <ele>388</ele>
        <time>2018-06-10T08:22:00Z</time>
      </trkpt>
      <trkpt lat="44.65121" lon="5.08857">
        <ele>388</ele>
        <time>2018-06-10T08:22:02Z</time>
      </trkpt>
      <trkpt lat="44.65124" lon="5.08861">
        <ele>388</ele>
        <time>2018-06-10T08:22:04Z</time>
      </trkpt>
      <trkpt lat="44.65128" lon="5.08867">
        <ele>388</ele>
        <time>2018-06-10T08:22:06Z</time>
      </trkpt>
      <trkpt lat="44.65133" lon="5.08876">
        <ele>388</ele>
        <time>2018-06-10T08:22:08Z</time>
      </trkpt>
      <trkpt lat="44.65137" lon="5.08884">
        <ele>388</ele>
        <time>2018-06-10T08:22:10Z</time>
      </trkpt>
      <trkpt lat="44.65142" lon="5.08892">
        <ele>388</ele>
        <time>2018-06-10T08:22:12Z</time>
      </trkpt>
      <trkpt lat="44.65146" lon="5.089">
        <ele>388</ele>
        <time>2018-06-10T08:22:14Z</time>
      </trkpt>
      <trkpt lat="44.6515" lon="5.08907">
        <ele>389</ele>
        <time>2018-06-10T08:22:16Z</time>
      </trkpt>
      <trkpt lat="44.65154" lon="5.08914">
        <ele>389</ele>
        <time>2018-06-10T08:22:18Z</time>
      </trkpt>
      <trkpt lat="44.65158" lon="5.08922">
        <ele>389</ele>
        <time>2018-06-10T08:22:20Z</time>
      </trkpt>
      <trkpt lat="44.65161" lon="5.08929">
        <ele>390</ele>
        <time>2018-06-10T08:22:22Z</time>
      </trkpt>
      <trkpt lat="44.65163" lon="5.08937">
        <ele>390</ele>
        <time>2018-06-10T08:22:24Z</time>
      </trkpt>
      <trkpt lat="44.65166" lon="5.08942">
        <ele>390</ele>
        <time>2018-06-10T08:22:26Z</time>
      </trkpt>
      <trkpt lat="44.65169" lon="5.08948">
        <ele>389</ele>
        <time>2018-06-10T08:22:28Z</time>
      </trkpt>
      <trkpt lat="44.6517" lon="5.08952">
        <ele>389</ele>
        <time>2018-06-10T08:22:30Z</time>
      </trkpt>
      <trkpt lat="44.65176" lon="5.0896">
        <ele>389</ele>
        <time>2018-06-10T08:22:32Z</time>
      </trkpt>
      <trkpt lat="44.6518" lon="5.08964">
        <ele>389</ele>
        <time>2018-06-10T08:22:34Z</time>
      </trkpt>
      <trkpt lat="44.65181" lon="5.0897">
        <ele>389</ele>
        <time>2018-06-10T08:22:36Z</time>
      </trkpt>
      <trkpt lat="44.65182" lon="5.08976">
        <ele>390</ele>
        <time>2018-06-10T08:22:39Z</time>
      </trkpt>
      <trkpt lat="44.6518" lon="5.08983">
        <ele>390</ele>
        <time>2018-06-10T08:22:41Z</time>
      </trkpt>
      <trkpt lat="44.65182" lon="5.08989">
        <ele>390</ele>
        <time>2018-06-10T08:22:43Z</time>
      </trkpt>
      <trkpt lat="44.65186" lon="5.08993">
        <ele>391</ele>
        <time>2018-06-10T08:22:45Z</time>
      </trkpt>
      <trkpt lat="44.65185" lon="5.08999">
        <ele>391</ele>
        <time>2018-06-10T08:22:47Z</time>
      </trkpt>
      <trkpt lat="44.65188" lon="5.09004">
        <ele>391</ele>
        <time>2018-06-10T08:22:49Z</time>
      </trkpt>
      <trkpt lat="44.6519" lon="5.09009">
        <ele>391</ele>
        <time>2018-06-10T08:22:51Z</time>
      </trkpt>
      <trkpt lat="44.65192" lon="5.09012">
        <ele>391</ele>
        <time>2018-06-10T08:22:53Z</time>
      </trkpt>
      <trkpt lat="44.65195" lon="5.09017">
        <ele>392</ele>
        <time>2018-06-10T08:22:55Z</time>
      </trkpt>
      <trkpt lat="44.65199" lon="5.09021">
        <ele>392</ele>
        <time>2018-06-10T08:22:57Z</time>
      </trkpt>
      <trkpt lat="44.65201" lon="5.09026">
        <ele>392</ele>
        <time>2018-06-10T08:22:59Z</time>
      </trkpt>
      <trkpt lat="44.65204" lon="5.09031">
        <ele>392</ele>
        <time>2018-06-10T08:23:01Z</time>
      </trkpt>
      <trkpt lat="44.65209" lon="5.09037">
        <ele>392</ele>
        <time>2018-06-10T08:23:03Z</time>
      </trkpt>
      <trkpt lat="44.65213" lon="5.09042">
        <ele>392</ele>
        <time>2018-06-10T08:23:05Z</time>
      </trkpt>
      <trkpt lat="44.65217" lon="5.09049">
        <ele>391</ele>
        <time>2018-06-10T08:23:07Z</time>
      </trkpt>
      <trkpt lat="44.65222" lon="5.09055">
        <ele>391</ele>
        <time>2018-06-10T08:23:09Z</time>
      </trkpt>
      <trkpt lat="44.6523" lon="5.09062">
        <ele>391</ele>
        <time>2018-06-10T08:23:11Z</time>
      </trkpt>
      <trkpt lat="44.65239" lon="5.0907">
        <ele>390</ele>
        <time>2018-06-10T08:23:13Z</time>
      </trkpt>
      <trkpt lat="44.65245" lon="5.09082">
        <ele>389</ele>
        <time>2018-06-10T08:23:15Z</time>
      </trkpt>
      <trkpt lat="44.65248" lon="5.09097">
        <ele>389</ele>
        <time>2018-06-10T08:23:17Z</time>
      </trkpt>
      <trkpt lat="44.65253" lon="5.0911">
        <ele>389</ele>
        <time>2018-06-10T08:23:19Z</time>
      </trkpt>
      <trkpt lat="44.65252" lon="5.09125">
        <ele>389</ele>
        <time>2018-06-10T08:23:21Z</time>
      </trkpt>
      <trkpt lat="44.65257" lon="5.09134">
        <ele>389</ele>
        <time>2018-06-10T08:23:23Z</time>
      </trkpt>
      <trkpt lat="44.65263" lon="5.09143">
        <ele>389</ele>
        <time>2018-06-10T08:23:25Z</time>
      </trkpt>
      <trkpt lat="44.65273" lon="5.09156">
        <ele>389</ele>
        <time>2018-06-10T08:23:27Z</time>
      </trkpt>
      <trkpt lat="44.65278" lon="5.09162">
        <ele>390</ele>
        <time>2018-06-10T08:23:29Z</time>
      </trkpt>
      <trkpt lat="44.65279" lon="5.09165">
        <ele>390</ele>
        <time>2018-06-10T08:23:31Z</time>
      </trkpt>
      <trkpt lat="44.65281" lon="5.09169">
        <ele>391</ele>
        <time>2018-06-10T08:23:33Z</time>
      </trkpt>
      <trkpt lat="44.65285" lon="5.09173">
        <ele>391</ele>
        <time>2018-06-10T08:23:35Z</time>
      </trkpt>
      <trkpt lat="44.6529" lon="5.09178">
        <ele>391</ele>
        <time>2018-06-10T08:23:37Z</time>
      </trkpt>
      <trkpt lat="44.65294" lon="5.09183">
        <ele>392</ele>
        <time>2018-06-10T08:23:39Z</time>
      </trkpt>
      <trkpt lat="44.65299" lon="5.09189">
        <ele>392</ele>
        <time>2018-06-10T08:23:41Z</time>
      </trkpt>
      <trkpt lat="44.65301" lon="5.09196">
        <ele>392</ele>
        <time>2018-06-10T08:23:43Z</time>
      </trkpt>
      <trkpt lat="44.65304" lon="5.09201">
        <ele>393</ele>
        <time>2018-06-10T08:23:45Z</time>
      </trkpt>
      <trkpt lat="44.65307" lon="5.09208">
        <ele>393</ele>
        <time>2018-06-10T08:23:47Z</time>
      </trkpt>
      <trkpt lat="44.65311" lon="5.09213">
        <ele>393</ele>
        <time>2018-06-10T08:23:49Z</time>
      </trkpt>
      <trkpt lat="44.65318" lon="5.09221">
        <ele>393</ele>
        <time>2018-06-10T08:23:51Z</time>
      </trkpt>
      <trkpt lat="44.65322" lon="5.09228">
        <ele>393</ele>
        <time>2018-06-10T08:23:53Z</time>
      </trkpt>
      <trkpt lat="44.65327" lon="5.09234">
        <ele>393</ele>
        <time>2018-06-10T08:23:56Z</time>
      </trkpt>
      <trkpt lat="44.6533" lon="5.09242">
        <ele>393</ele>
        <time>2018-06-10T08:23:58Z</time>
      </trkpt>
      <trkpt lat="44.65338" lon="5.09246">
        <ele>393</ele>
        <time>2018-06-10T08:24:00Z</time>
      </trkpt>
      <trkpt lat="44.65341" lon="5.09254">
        <ele>393</ele>
        <time>2018-06-10T08:24:02Z</time>
      </trkpt>
      <trkpt lat="44.65341" lon="5.0926">
        <ele>393</ele>
        <time>2018-06-10T08:24:04Z</time>
      </trkpt>
      <trkpt lat="44.65343" lon="5.09269">
        <ele>394</ele>
        <time>2018-06-10T08:24:06Z</time>
      </trkpt>
      <trkpt lat="44.65346" lon="5.09278">
        <ele>393</ele>
        <time>2018-06-10T08:24:08Z</time>
      </trkpt>
      <trkpt lat="44.6535" lon="5.09288">
        <ele>393</ele>
        <time>2018-06-10T08:24:10Z</time>
      </trkpt>
      <trkpt lat="44.65358" lon="5.09297">
        <ele>392</ele>
        <time>2018-06-10T08:24:12Z</time>
      </trkpt>
      <trkpt lat="44.65367" lon="5.09304">
        <ele>391</ele>
        <time>2018-06-10T08:24:14Z</time>
      </trkpt>
      <trkpt lat="44.65371" lon="5.09313">
        <ele>391</ele>
        <time>2018-06-10T08:24:16Z</time>
      </trkpt>
      <trkpt lat="44.65378" lon="5.09325">
        <ele>391</ele>
        <time>2018-06-10T08:24:18Z</time>
      </trkpt>
      <trkpt lat="44.65381" lon="5.09339">
        <ele>391</ele>
        <time>2018-06-10T08:24:20Z</time>
      </trkpt>
      <trkpt lat="44.65384" lon="5.09347">
        <ele>391</ele>
        <time>2018-06-10T08:24:22Z</time>
      </trkpt>
      <trkpt lat="44.65388" lon="5.09356">
        <ele>391</ele>
        <time>2018-06-10T08:24:24Z</time>
      </trkpt>
      <trkpt lat="44.65394" lon="5.09366">
        <ele>391</ele>
        <time>2018-06-10T08:24:26Z</time>
      </trkpt>
      <trkpt lat="44.65401" lon="5.09376">
        <ele>391</ele>
        <time>2018-06-10T08:24:28Z</time>
      </trkpt>
      <trkpt lat="44.6541" lon="5.09384">
        <ele>390</ele>
        <time>2018-06-10T08:24:30Z</time>
      </trkpt>
      <trkpt lat="44.65418" lon="5.09392">
        <ele>390</ele>
        <time>2018-06-10T08:24:32Z</time>
      </trkpt>
      <trkpt lat="44.65426" lon="5.09401">
        <ele>390</ele>
        <time>2018-06-10T08:24:34Z</time>
      </trkpt>
      <trkpt lat="44.65436" lon="5.09416">
        <ele>390</ele>
        <time>2018-06-10T08:24:36Z</time>
      </trkpt>
      <trkpt lat="44.65442" lon="5.09424">
        <ele>390</ele>
        <time>2018-06-10T08:24:38Z</time>
      </trkpt>
      <trkpt lat="44.65449" lon="5.09432">
        <ele>391</ele>
        <time>2018-06-10T08:24:40Z</time>
      </trkpt>
      <trkpt lat="44.65454" lon="5.09437">
        <ele>390</ele>
        <time>2018-06-10T08:24:42Z</time>
      </trkpt>
      <trkpt lat="44.65459" lon="5.09442">
        <ele>391</ele>
        <time>2018-06-10T08:24:44Z</time>
      </trkpt>
      <trkpt lat="44.65462" lon="5.09445">
        <ele>391</ele>
        <time>2018-06-10T08:24:46Z</time>
      </trkpt>
      <trkpt lat="44.65465" lon="5.09448">
        <ele>391</ele>
        <time>2018-06-10T08:24:48Z</time>
      </trkpt>
      <trkpt lat="44.65467" lon="5.09451">
        <ele>391</ele>
        <time>2018-06-10T08:24:50Z</time>
      </trkpt>
      <trkpt lat="44.65472" lon="5.09452">
        <ele>392</ele>
        <time>2018-06-10T08:24:52Z</time>
      </trkpt>
      <trkpt lat="44.65473" lon="5.09451">
        <ele>392</ele>
        <time>2018-06-10T08:24:54Z</time>
      </trkpt>
      <trkpt lat="44.65474" lon="5.09451">
        <ele>391</ele>
        <time>2018-06-10T08:24:56Z</time>
      </trkpt>
      <trkpt lat="44.65476" lon="5.09455">
        <ele>392</ele>
        <time>2018-06-10T08:24:58Z</time>
      </trkpt>
      <trkpt lat="44.65476" lon="5.09465">
        <ele>391</ele>
        <time>2018-06-10T08:25:00Z</time>
      </trkpt>
      <trkpt lat="44.6548" lon="5.09476">
        <ele>392</ele>
        <time>2018-06-10T08:25:03Z</time>
      </trkpt>
      <trkpt lat="44.65484" lon="5.09485">
        <ele>392</ele>
        <time>2018-06-10T08:25:05Z</time>
      </trkpt>
      <trkpt lat="44.65489" lon="5.09494">
        <ele>392</ele>
        <time>2018-06-10T08:25:07Z</time>
      </trkpt>
      <trkpt lat="44.65493" lon="5.09503">
        <ele>392</ele>
        <time>2018-06-10T08:25:09Z</time>
      </trkpt>
      <trkpt lat="44.65495" lon="5.09511">
        <ele>392</ele>
        <time>2018-06-10T08:25:11Z</time>
      </trkpt>
      <trkpt lat="44.65496" lon="5.0952">
        <ele>393</ele>
        <time>2018-06-10T08:25:13Z</time>
      </trkpt>
      <trkpt lat="44.65502" lon="5.09526">
        <ele>393</ele>
        <time>2018-06-10T08:25:15Z</time>
      </trkpt>
      <trkpt lat="44.65504" lon="5.09532">
        <ele>393</ele>
        <time>2018-06-10T08:25:17Z</time>
      </trkpt>
      <trkpt lat="44.65507" lon="5.09537">
        <ele>393</ele>
        <time>2018-06-10T08:25:19Z</time>
      </trkpt>
      <trkpt lat="44.65511" lon="5.09539">
        <ele>393</ele>
        <time>2018-06-10T08:25:21Z</time>
      </trkpt>
      <trkpt lat="44.65515" lon="5.09539">
        <ele>393</ele>
        <time>2018-06-10T08:25:23Z</time>
      </trkpt>
      <trkpt lat="44.65517" lon="5.09539">
        <ele>393</ele>
        <time>2018-06-10T08:25:25Z</time>
      </trkpt>
      <trkpt lat="44.65517" lon="5.09543">
        <ele>392</ele>
        <time>2018-06-10T08:25:27Z</time>
      </trkpt>
      <trkpt lat="44.65519" lon="5.09547">
        <ele>392</ele>
        <time>2018-06-10T08:25:29Z</time>
      </trkpt>
      <trkpt lat="44.65524" lon="5.09551">
        <ele>393</ele>
        <time>2018-06-10T08:25:31Z</time>
      </trkpt>
      <trkpt lat="44.65528" lon="5.09555">
        <ele>393</ele>
        <time>2018-06-10T08:25:33Z</time>
      </trkpt>
      <trkpt lat="44.6553" lon="5.09556">
        <ele>393</ele>
        <time>2018-06-10T08:25:35Z</time>
      </trkpt>
      <trkpt lat="44.65535" lon="5.09559">
        <ele>393</ele>
        <time>2018-06-10T08:25:37Z</time>
      </trkpt>
      <trkpt lat="44.65537" lon="5.09559">
        <ele>393</ele>
        <time>2018-06-10T08:25:40Z</time>
      </trkpt>
      <trkpt lat="44.65538" lon="5.09558">
        <ele>393</ele>
        <time>2018-06-10T08:25:42Z</time>
      </trkpt>
      <trkpt lat="44.65537" lon="5.09561">
        <ele>393</ele>
        <time>2018-06-10T08:25:44Z</time>
      </trkpt>
      <trkpt lat="44.65539" lon="5.09564">
        <ele>392</ele>
        <time>2018-06-10T08:25:46Z</time>
      </trkpt>
      <trkpt lat="44.65537" lon="5.09569">
        <ele>393</ele>
        <time>2018-06-10T08:25:48Z</time>
      </trkpt>
      <trkpt lat="44.65536" lon="5.09573">
        <ele>393</ele>
        <time>2018-06-10T08:25:50Z</time>
      </trkpt>
      <trkpt lat="44.65536" lon="5.09573">
        <ele>393</ele>
        <time>2018-06-10T08:25:52Z</time>
      </trkpt>
      <trkpt lat="44.65537" lon="5.09576">
        <ele>393</ele>
        <time>2018-06-10T08:25:54Z</time>
      </trkpt>
      <trkpt lat="44.65539" lon="5.09578">
        <ele>393</ele>
        <time>2018-06-10T08:25:56Z</time>
      </trkpt>
      <trkpt lat="44.65541" lon="5.09581">
        <ele>393</ele>
        <time>2018-06-10T08:25:58Z</time>
      </trkpt>
      <trkpt lat="44.65544" lon="5.09588">
        <ele>393</ele>
        <time>2018-06-10T08:26:00Z</time>
      </trkpt>
      <trkpt lat="44.6555" lon="5.09593">
        <ele>394</ele>
        <time>2018-06-10T08:26:02Z</time>
      </trkpt>
      <trkpt lat="44.65554" lon="5.09598">
        <ele>394</ele>
        <time>2018-06-10T08:26:04Z</time>
      </trkpt>
      <trkpt lat="44.65555" lon="5.09603">
        <ele>395</ele>
        <time>2018-06-10T08:26:06Z</time>
      </trkpt>
      <trkpt lat="44.65556" lon="5.09607">
        <ele>394</ele>
        <time>2018-06-10T08:26:08Z</time>
      </trkpt>
      <trkpt lat="44.65558" lon="5.09611">
        <ele>395</ele>
        <time>2018-06-10T08:26:10Z</time>
      </trkpt>
      <trkpt lat="44.6556" lon="5.09614">
        <ele>395</ele>
        <time>2018-06-10T08:26:12Z</time>
      </trkpt>
      <trkpt lat="44.65563" lon="5.0962">
        <ele>395</ele>
        <time>2018-06-10T08:26:14Z</time>
      </trkpt>
      <trkpt lat="44.65567" lon="5.09623">
        <ele>395</ele>
        <time>2018-06-10T08:26:16Z</time>
      </trkpt>
      <trkpt lat="44.65571" lon="5.09626">
        <ele>395</ele>
        <time>2018-06-10T08:26:18Z</time>
      </trkpt>
      <trkpt lat="44.65574" lon="5.0963">
        <ele>395</ele>
        <time>2018-06-10T08:26:20Z</time>
      </trkpt>
      <trkpt lat="44.6558" lon="5.09636">
        <ele>395</ele>
        <time>2018-06-10T08:26:22Z</time>
      </trkpt>
      <trkpt lat="44.65585" lon="5.09645">
        <ele>395</ele>
        <time>2018-06-10T08:26:24Z</time>
      </trkpt>
      <trkpt lat="44.65591" lon="5.09652">
        <ele>395</ele>
        <time>2018-06-10T08:26:26Z</time>
      </trkpt>
      <trkpt lat="44.65592" lon="5.09656">
        <ele>395</ele>
        <time>2018-06-10T08:26:28Z</time>
      </trkpt>
      <trkpt lat="44.65595" lon="5.09662">
        <ele>396</ele>
        <time>2018-06-10T08:26:30Z</time>
      </trkpt>
      <trkpt lat="44.656" lon="5.09668">
        <ele>396</ele>
        <time>2018-06-10T08:26:32Z</time>
      </trkpt>
      <trkpt lat="44.65605" lon="5.09676">
        <ele>397</ele>
        <time>2018-06-10T08:26:34Z</time>
      </trkpt>
      <trkpt lat="44.65607" lon="5.09682">
        <ele>397</ele>
        <time>2018-06-10T08:26:37Z</time>
      </trkpt>
      <trkpt lat="44.65609" lon="5.09689">
        <ele>397</ele>
        <time>2018-06-10T08:26:39Z</time>
      </trkpt>
      <trkpt lat="44.65612" lon="5.09694">
        <ele>397</ele>
        <time>2018-06-10T08:26:41Z</time>
      </trkpt>
      <trkpt lat="44.65614" lon="5.097">
        <ele>397</ele>
        <time>2018-06-10T08:26:43Z</time>
      </trkpt>
      <trkpt lat="44.65616" lon="5.09707">
        <ele>397</ele>
        <time>2018-06-10T08:26:45Z</time>
      </trkpt>
      <trkpt lat="44.65622" lon="5.09716">
        <ele>397</ele>
        <time>2018-06-10T08:26:47Z</time>
      </trkpt>
      <trkpt lat="44.65627" lon="5.09722">
        <ele>397</ele>
        <time>2018-06-10T08:26:49Z</time>
      </trkpt>
      <trkpt lat="44.65629" lon="5.09726">
        <ele>398</ele>
        <time>2018-06-10T08:26:51Z</time>
      </trkpt>
      <trkpt lat="44.65631" lon="5.09731">
        <ele>398</ele>
        <time>2018-06-10T08:26:53Z</time>
      </trkpt>
      <trkpt lat="44.65633" lon="5.09734">
        <ele>398</ele>
        <time>2018-06-10T08:26:55Z</time>
      </trkpt>
      <trkpt lat="44.65634" lon="5.09736">
        <ele>398</ele>
        <time>2018-06-10T08:26:57Z</time>
      </trkpt>
      <trkpt lat="44.65639" lon="5.09739">
        <ele>398</ele>
        <time>2018-06-10T08:26:59Z</time>
      </trkpt>
      <trkpt lat="44.65643" lon="5.09739">
        <ele>398</ele>
        <time>2018-06-10T08:27:01Z</time>
      </trkpt>
      <trkpt lat="44.65646" lon="5.09741">
        <ele>398</ele>
        <time>2018-06-10T08:27:03Z</time>
      </trkpt>
      <trkpt lat="44.6565" lon="5.09743">
        <ele>398</ele>
        <time>2018-06-10T08:27:05Z</time>
      </trkpt>
      <trkpt lat="44.65653" lon="5.09744">
        <ele>398</ele>
        <time>2018-06-10T08:27:07Z</time>
      </trkpt>
      <trkpt lat="44.65657" lon="5.09745">
        <ele>398</ele>
        <time>2018-06-10T08:27:09Z</time>
      </trkpt>
      <trkpt lat="44.65663" lon="5.09745">
        <ele>398</ele>
        <time>2018-06-10T08:27:11Z</time>
      </trkpt>
      <trkpt lat="44.65666" lon="5.09747">
        <ele>398</ele>
        <time>2018-06-10T08:27:13Z</time>
      </trkpt>
      <trkpt lat="44.6567" lon="5.09749">
        <ele>399</ele>
        <time>2018-06-10T08:27:15Z</time>
      </trkpt>
      <trkpt lat="44.65673" lon="5.09751">
        <ele>399</ele>
        <time>2018-06-10T08:27:17Z</time>
      </trkpt>
      <trkpt lat="44.65677" lon="5.09755">
        <ele>399</ele>
        <time>2018-06-10T08:27:19Z</time>
      </trkpt>
      <trkpt lat="44.65679" lon="5.09761">
        <ele>399</ele>
        <time>2018-06-10T08:27:21Z</time>
      </trkpt>
      <trkpt lat="44.65682" lon="5.09765">
        <ele>399</ele>
        <time>2018-06-10T08:27:23Z</time>
      </trkpt>
      <trkpt lat="44.65687" lon="5.09776">
        <ele>400</ele>
        <time>2018-06-10T08:27:25Z</time>
      </trkpt>
      <trkpt lat="44.6569" lon="5.09782">
        <ele>400</ele>
        <time>2018-06-10T08:27:27Z</time>
      </trkpt>
      <trkpt lat="44.65693" lon="5.09788">
        <ele>399</ele>
        <time>2018-06-10T08:27:29Z</time>
      </trkpt>
      <trkpt lat="44.65694" lon="5.09795">
        <ele>400</ele>
        <time>2018-06-10T08:27:32Z</time>
      </trkpt>
      <trkpt lat="44.65695" lon="5.09802">
        <ele>399</ele>
        <time>2018-06-10T08:27:34Z</time>
      </trkpt>
      <trkpt lat="44.65697" lon="5.09809">
        <ele>400</ele>
        <time>2018-06-10T08:27:36Z</time>
      </trkpt>
      <trkpt lat="44.65699" lon="5.09816">
        <ele>400</ele>
        <time>2018-06-10T08:27:38Z</time>
      </trkpt>
      <trkpt lat="44.65702" lon="5.09822">
        <ele>400</ele>
        <time>2018-06-10T08:27:40Z</time>
      </trkpt>
      <trkpt lat="44.65703" lon="5.09828">
        <ele>400</ele>
        <time>2018-06-10T08:27:42Z</time>
      </trkpt>
      <trkpt lat="44.65703" lon="5.09835">
        <ele>400</ele>
        <time>2018-06-10T08:27:44Z</time>
      </trkpt>
      <trkpt lat="44.65703" lon="5.09841">
        <ele>400</ele>
        <time>2018-06-10T08:27:46Z</time>
      </trkpt>
      <trkpt lat="44.65704" lon="5.09847">
        <ele>401</ele>
        <time>2018-06-10T08:27:48Z</time>
      </trkpt>
      <trkpt lat="44.65705" lon="5.09854">
        <ele>401</ele>
        <time>2018-06-10T08:27:50Z</time>
      </trkpt>
      <trkpt lat="44.65707" lon="5.09862">
        <ele>401</ele>
        <time>2018-06-10T08:27:52Z</time>
      </trkpt>
      <trkpt lat="44.65707" lon="5.09869">
        <ele>401</ele>
        <time>2018-06-10T08:27:54Z</time>
      </trkpt>
      <trkpt lat="44.65706" lon="5.09876">
        <ele>402</ele>
        <time>2018-06-10T08:27:56Z</time>
      </trkpt>
      <trkpt lat="44.65705" lon="5.0988">
        <ele>402</ele>
        <time>2018-06-10T08:27:58Z</time>
      </trkpt>
      <trkpt lat="44.65705" lon="5.09883">
        <ele>401</ele>
        <time>2018-06-10T08:28:00Z</time>
      </trkpt>
      <trkpt lat="44.65698" lon="5.09899">
        <ele>401</ele>
        <time>2018-06-10T08:28:02Z</time>
      </trkpt>
      <trkpt lat="44.65698" lon="5.09903">
        <ele>401</ele>
        <time>2018-06-10T08:28:04Z</time>
      </trkpt>
      <trkpt lat="44.65695" lon="5.0991">
        <ele>400</ele>
        <time>2018-06-10T08:28:06Z</time>
      </trkpt>
      <trkpt lat="44.65694" lon="5.09913">
        <ele>401</ele>
        <time>2018-06-10T08:28:08Z</time>
      </trkpt>
      <trkpt lat="44.65694" lon="5.09914">
        <ele>401</ele>
        <time>2018-06-10T08:28:10Z</time>
      </trkpt>
      <trkpt lat="44.65693" lon="5.09918">
        <ele>401</ele>
        <time>2018-06-10T08:28:12Z</time>
      </trkpt>
      <trkpt lat="44.65693" lon="5.0992">
        <ele>402</ele>
        <time>2018-06-10T08:28:14Z</time>
      </trkpt>
      <trkpt lat="44.65692" lon="5.09923">
        <ele>402</ele>
        <time>2018-06-10T08:28:16Z</time>
      </trkpt>
      <trkpt lat="44.65691" lon="5.09924">
        <ele>401</ele>
        <time>2018-06-10T08:28:18Z</time>
      </trkpt>
      <trkpt lat="44.65691" lon="5.09927">
        <ele>402</ele>
        <time>2018-06-10T08:28:20Z</time>
      </trkpt>
      <trkpt lat="44.65692" lon="5.09932">
        <ele>402</ele>
        <time>2018-06-10T08:28:22Z</time>
      </trkpt>
      <trkpt lat="44.65692" lon="5.09937">
        <ele>402</ele>
        <time>2018-06-10T08:28:24Z</time>
      </trkpt>
      <trkpt lat="44.65692" lon="5.09946">
        <ele>401</ele>
        <time>2018-06-10T08:28:26Z</time>
      </trkpt>
      <trkpt lat="44.65694" lon="5.09954">
        <ele>402</ele>
        <time>2018-06-10T08:28:28Z</time>
      </trkpt>
      <trkpt lat="44.65695" lon="5.09962">
        <ele>402</ele>
        <time>2018-06-10T08:28:30Z</time>
      </trkpt>
      <trkpt lat="44.65696" lon="5.0997">
        <ele>402</ele>
        <time>2018-06-10T08:28:32Z</time>
      </trkpt>
      <trkpt lat="44.65697" lon="5.09978">
        <ele>403</ele>
        <time>2018-06-10T08:28:34Z</time>
      </trkpt>
      <trkpt lat="44.65698" lon="5.09986">
        <ele>403</ele>
        <time>2018-06-10T08:28:36Z</time>
      </trkpt>
      <trkpt lat="44.65699" lon="5.09995">
        <ele>403</ele>
        <time>2018-06-10T08:28:38Z</time>
      </trkpt>
      <trkpt lat="44.65699" lon="5.10005">
        <ele>403</ele>
        <time>2018-06-10T08:28:41Z</time>
      </trkpt>
      <trkpt lat="44.657" lon="5.10015">
        <ele>403</ele>
        <time>2018-06-10T08:28:43Z</time>
      </trkpt>
      <trkpt lat="44.65701" lon="5.10025">
        <ele>404</ele>
        <time>2018-06-10T08:28:45Z</time>
      </trkpt>
      <trkpt lat="44.65702" lon="5.10034">
        <ele>404</ele>
        <time>2018-06-10T08:28:47Z</time>
      </trkpt>
      <trkpt lat="44.65702" lon="5.10043">
        <ele>404</ele>
        <time>2018-06-10T08:28:49Z</time>
      </trkpt>
      <trkpt lat="44.65702" lon="5.10052">
        <ele>404</ele>
        <time>2018-06-10T08:28:51Z</time>
      </trkpt>
      <trkpt lat="44.657" lon="5.10061">
        <ele>404</ele>
        <time>2018-06-10T08:28:53Z</time>
      </trkpt>
      <trkpt lat="44.65701" lon="5.10069">
        <ele>405</ele>
        <time>2018-06-10T08:28:55Z</time>
      </trkpt>
      <trkpt lat="44.65701" lon="5.10078">
        <ele>405</ele>
        <time>2018-06-10T08:28:57Z</time>
      </trkpt>
      <trkpt lat="44.657" lon="5.10087">
        <ele>405</ele>
        <time>2018-06-10T08:28:59Z</time>
      </trkpt>
      <trkpt lat="44.65698" lon="5.10102">
        <ele>406</ele>
        <time>2018-06-10T08:29:01Z</time>
      </trkpt>
      <trkpt lat="44.65699" lon="5.10111">
        <ele>405</ele>
        <time>2018-06-10T08:29:03Z</time>
      </trkpt>
      <trkpt lat="44.65699" lon="5.1012">
        <ele>406</ele>
        <time>2018-06-10T08:29:05Z</time>
      </trkpt>
      <trkpt lat="44.65699" lon="5.10129">
        <ele>406</ele>
        <time>2018-06-10T08:29:07Z</time>
      </trkpt>
      <trkpt lat="44.65699" lon="5.10137">
        <ele>406</ele>
        <time>2018-06-10T08:29:09Z</time>
      </trkpt>
      <trkpt lat="44.65699" lon="5.10146">
        <ele>406</ele>
        <time>2018-06-10T08:29:11Z</time>
      </trkpt>
      <trkpt lat="44.65699" lon="5.10154">
        <ele>407</ele>
        <time>2018-06-10T08:29:13Z</time>
      </trkpt>
      <trkpt lat="44.65699" lon="5.10163">
        <ele>407</ele>
        <time>2018-06-10T08:29:15Z</time>
      </trkpt>
      <trkpt lat="44.65699" lon="5.10172">
        <ele>407</ele>
        <time>2018-06-10T08:29:17Z</time>
      </trkpt>
      <trkpt lat="44.65698" lon="5.10181">
        <ele>407</ele>
        <time>2018-06-10T08:29:19Z</time>
      </trkpt>
      <trkpt lat="44.65698" lon="5.10189">
        <ele>407</ele>
        <time>2018-06-10T08:29:21Z</time>
      </trkpt>
      <trkpt lat="44.65698" lon="5.10198">
        <ele>407</ele>
        <time>2018-06-10T08:29:23Z</time>
      </trkpt>
      <trkpt lat="44.65698" lon="5.10207">
        <ele>407</ele>
        <time>2018-06-10T08:29:25Z</time>
      </trkpt>
      <trkpt lat="44.65698" lon="5.10216">
        <ele>407</ele>
        <time>2018-06-10T08:29:27Z</time>
      </trkpt>
      <trkpt lat="44.65698" lon="5.10225">
        <ele>408</ele>
        <time>2018-06-10T08:29:29Z</time>
      </trkpt>
      <trkpt lat="44.65697" lon="5.10233">
        <ele>408</ele>
        <time>2018-06-10T08:29:31Z</time>
      </trkpt>
      <trkpt lat="44.65697" lon="5.10241">
        <ele>408</ele>
        <time>2018-06-10T08:29:33Z</time>
      </trkpt>
      <trkpt lat="44.65697" lon="5.10248">
        <ele>409</ele>
        <time>2018-06-10T08:29:36Z</time>
      </trkpt>
      <trkpt lat="44.65697" lon="5.10255">
        <ele>409</ele>
        <time>2018-06-10T08:29:38Z</time>
      </trkpt>
      <trkpt lat="44.65697" lon="5.10263">
        <ele>409</ele>
        <time>2018-06-10T08:29:40Z</time>
      </trkpt>
      <trkpt lat="44.65698" lon="5.10269">
        <ele>409</ele>
        <time>2018-06-10T08:29:42Z</time>
      </trkpt>
      <trkpt lat="44.65698" lon="5.10276">
        <ele>410</ele>
        <time>2018-06-10T08:29:44Z</time>
      </trkpt>
      <trkpt lat="44.65698" lon="5.10284">
        <ele>410</ele>
        <time>2018-06-10T08:29:46Z</time>
      </trkpt>
      <trkpt lat="44.65698" lon="5.10291">
        <ele>410</ele>
        <time>2018-06-10T08:29:48Z</time>
      </trkpt>
      <trkpt lat="44.65698" lon="5.10298">
        <ele>411</ele>
        <time>2018-06-10T08:29:50Z</time>
      </trkpt>
      <trkpt lat="44.65698" lon="5.10305">
        <ele>411</ele>
        <time>2018-06-10T08:29:52Z</time>
      </trkpt>
      <trkpt lat="44.65699" lon="5.10313">
        <ele>411</ele>
        <time>2018-06-10T08:29:54Z</time>
      </trkpt>
      <trkpt lat="44.657" lon="5.1032">
        <ele>412</ele>
        <time>2018-06-10T08:29:56Z</time>
      </trkpt>
      <trkpt lat="44.65701" lon="5.10327">
        <ele>412</ele>
        <time>2018-06-10T08:29:58Z</time>
      </trkpt>
      <trkpt lat="44.65702" lon="5.10334">
        <ele>412</ele>
        <time>2018-06-10T08:30:00Z</time>
      </trkpt>
      <trkpt lat="44.65704" lon="5.10342">
        <ele>412</ele>
        <time>2018-06-10T08:30:02Z</time>
      </trkpt>
      <trkpt lat="44.65704" lon="5.1035">
        <ele>412</ele>
        <time>2018-06-10T08:30:04Z</time>
      </trkpt>
      <trkpt lat="44.65704" lon="5.10358">
        <ele>413</ele>
        <time>2018-06-10T08:30:06Z</time>
      </trkpt>
      <trkpt lat="44.65704" lon="5.10367">
        <ele>413</ele>
        <time>2018-06-10T08:30:08Z</time>
      </trkpt>
      <trkpt lat="44.65703" lon="5.1038">
        <ele>413</ele>
        <time>2018-06-10T08:30:10Z</time>
      </trkpt>
      <trkpt lat="44.65703" lon="5.10389">
        <ele>413</ele>
        <time>2018-06-10T08:30:12Z</time>
      </trkpt>
      <trkpt lat="44.65702" lon="5.10399">
        <ele>413</ele>
        <time>2018-06-10T08:30:14Z</time>
      </trkpt>
      <trkpt lat="44.65702" lon="5.10409">
        <ele>413</ele>
        <time>2018-06-10T08:30:16Z</time>
      </trkpt>
      <trkpt lat="44.657" lon="5.10418">
        <ele>413</ele>
        <time>2018-06-10T08:30:18Z</time>
      </trkpt>
      <trkpt lat="44.65698" lon="5.10427">
        <ele>413</ele>
        <time>2018-06-10T08:30:20Z</time>
      </trkpt>
      <trkpt lat="44.65696" lon="5.10436">
        <ele>413</ele>
        <time>2018-06-10T08:30:22Z</time>
      </trkpt>
      <trkpt lat="44.65694" lon="5.10444">
        <ele>414</ele>
        <time>2018-06-10T08:30:24Z</time>
      </trkpt>
      <trkpt lat="44.65693" lon="5.10452">
        <ele>413</ele>
        <time>2018-06-10T08:30:26Z</time>
      </trkpt>
      <trkpt lat="44.65695" lon="5.10462">
        <ele>414</ele>
        <time>2018-06-10T08:30:28Z</time>
      </trkpt>
      <trkpt lat="44.65697" lon="5.1047">
        <ele>414</ele>
        <time>2018-06-10T08:30:30Z</time>
      </trkpt>
      <trkpt lat="44.65697" lon="5.10479">
        <ele>414</ele>
        <time>2018-06-10T08:30:32Z</time>
      </trkpt>
      <trkpt lat="44.65696" lon="5.10488">
        <ele>415</ele>
        <time>2018-06-10T08:30:34Z</time>
      </trkpt>
      <trkpt lat="44.65697" lon="5.10496">
        <ele>414</ele>
        <time>2018-06-10T08:30:36Z</time>
      </trkpt>
      <trkpt lat="44.65697" lon="5.10504">
        <ele>415</ele>
        <time>2018-06-10T08:30:38Z</time>
      </trkpt>
      <trkpt lat="44.65699" lon="5.10513">
        <ele>415</ele>
        <time>2018-06-10T08:30:40Z</time>
      </trkpt>
      <trkpt lat="44.65698" lon="5.10521">
        <ele>415</ele>
        <time>2018-06-10T08:30:42Z</time>
      </trkpt>
      <trkpt lat="44.65699" lon="5.10529">
        <ele>415</ele>
        <time>2018-06-10T08:30:45Z</time>
      </trkpt>
      <trkpt lat="44.65699" lon="5.10538">
        <ele>416</ele>
        <time>2018-06-10T08:30:47Z</time>
      </trkpt>
      <trkpt lat="44.657" lon="5.10545">
        <ele>415</ele>
        <time>2018-06-10T08:30:49Z</time>
      </trkpt>
      <trkpt lat="44.65698" lon="5.10552">
        <ele>416</ele>
        <time>2018-06-10T08:30:51Z</time>
      </trkpt>
      <trkpt lat="44.65699" lon="5.10561">
        <ele>416</ele>
        <time>2018-06-10T08:30:53Z</time>
      </trkpt>
      <trkpt lat="44.65701" lon="5.10569">
        <ele>416</ele>
        <time>2018-06-10T08:30:55Z</time>
      </trkpt>
      <trkpt lat="44.657" lon="5.10577">
        <ele>416</ele>
        <time>2018-06-10T08:30:57Z</time>
      </trkpt>
      <trkpt lat="44.65696" lon="5.10587">
        <ele>416</ele>
        <time>2018-06-10T08:30:59Z</time>
      </trkpt>
      <trkpt lat="44.65697" lon="5.10596">
        <ele>416</ele>
        <time>2018-06-10T08:31:01Z</time>
      </trkpt>
      <trkpt lat="44.65698" lon="5.10604">
        <ele>416</ele>
        <time>2018-06-10T08:31:03Z</time>
      </trkpt>
      <trkpt lat="44.65696" lon="5.10612">
        <ele>416</ele>
        <time>2018-06-10T08:31:05Z</time>
      </trkpt>
      <trkpt lat="44.65693" lon="5.10624">
        <ele>417</ele>
        <time>2018-06-10T08:31:07Z</time>
      </trkpt>
      <trkpt lat="44.65693" lon="5.10631">
        <ele>417</ele>
        <time>2018-06-10T08:31:09Z</time>
      </trkpt>
      <trkpt lat="44.65694" lon="5.10639">
        <ele>417</ele>
        <time>2018-06-10T08:31:11Z</time>
      </trkpt>
      <trkpt lat="44.65695" lon="5.10647">
        <ele>417</ele>
        <time>2018-06-10T08:31:13Z</time>
      </trkpt>
      <trkpt lat="44.65697" lon="5.10654">
        <ele>417</ele>
        <time>2018-06-10T08:31:15Z</time>
      </trkpt>
      <trkpt lat="44.65698" lon="5.10662">
        <ele>417</ele>
        <time>2018-06-10T08:31:17Z</time>
      </trkpt>
      <trkpt lat="44.65698" lon="5.1067">
        <ele>417</ele>
        <time>2018-06-10T08:31:19Z</time>
      </trkpt>
      <trkpt lat="44.657" lon="5.10677">
        <ele>417</ele>
        <time>2018-06-10T08:31:21Z</time>
      </trkpt>
      <trkpt lat="44.65701" lon="5.10685">
        <ele>417</ele>
        <time>2018-06-10T08:31:23Z</time>
      </trkpt>
      <trkpt lat="44.65702" lon="5.10693">
        <ele>417</ele>
        <time>2018-06-10T08:31:25Z</time>
      </trkpt>
      <trkpt lat="44.65701" lon="5.10702">
        <ele>417</ele>
        <time>2018-06-10T08:31:27Z</time>
      </trkpt>
      <trkpt lat="44.65697" lon="5.10707">
        <ele>417</ele>
        <time>2018-06-10T08:31:29Z</time>
      </trkpt>
      <trkpt lat="44.6569" lon="5.10712">
        <ele>418</ele>
        <time>2018-06-10T08:31:31Z</time>
      </trkpt>
      <trkpt lat="44.65688" lon="5.10718">
        <ele>418</ele>
        <time>2018-06-10T08:31:33Z</time>
      </trkpt>
      <trkpt lat="44.65687" lon="5.10721">
        <ele>418</ele>
        <time>2018-06-10T08:31:35Z</time>
      </trkpt>
      <trkpt lat="44.65687" lon="5.10725">
        <ele>418</ele>
        <time>2018-06-10T08:31:37Z</time>
      </trkpt>
      <trkpt lat="44.65684" lon="5.10726">
        <ele>419</ele>
        <time>2018-06-10T08:31:39Z</time>
      </trkpt>
      <trkpt lat="44.6568" lon="5.10728">
        <ele>419</ele>
        <time>2018-06-10T08:31:42Z</time>
      </trkpt>
      <trkpt lat="44.65675" lon="5.10731">
        <ele>419</ele>
        <time>2018-06-10T08:31:44Z</time>
      </trkpt>
      <trkpt lat="44.65672" lon="5.10734">
        <ele>419</ele>
        <time>2018-06-10T08:31:46Z</time>
      </trkpt>
      <trkpt lat="44.65669" lon="5.10737">
        <ele>419</ele>
        <time>2018-06-10T08:31:48Z</time>
      </trkpt>
      <trkpt lat="44.65668" lon="5.1074">
        <ele>419</ele>
        <time>2018-06-10T08:31:50Z</time>
      </trkpt>
      <trkpt lat="44.65667" lon="5.10742">
        <ele>419</ele>
        <time>2018-06-10T08:31:52Z</time>
      </trkpt>
      <trkpt lat="44.65667" lon="5.10747">
        <ele>419</ele>
        <time>2018-06-10T08:31:54Z</time>
      </trkpt>
      <trkpt lat="44.65667" lon="5.10749">
        <ele>419</ele>
        <time>2018-06-10T08:31:56Z</time>
      </trkpt>
      <trkpt lat="44.65668" lon="5.1075">
        <ele>419</ele>
        <time>2018-06-10T08:31:58Z</time>
      </trkpt>
      <trkpt lat="44.65668" lon="5.10752">
        <ele>419</ele>
        <time>2018-06-10T08:32:00Z</time>
      </trkpt>
      <trkpt lat="44.6567" lon="5.10752">
        <ele>420</ele>
        <time>2018-06-10T08:32:02Z</time>
      </trkpt>
      <trkpt lat="44.65673" lon="5.10753">
        <ele>419</ele>
        <time>2018-06-10T08:32:04Z</time>
      </trkpt>
      <trkpt lat="44.65672" lon="5.10753">
        <ele>419</ele>
        <time>2018-06-10T08:32:06Z</time>
      </trkpt>
      <trkpt lat="44.6567" lon="5.10756">
        <ele>420</ele>
        <time>2018-06-10T08:32:08Z</time>
      </trkpt>
      <trkpt lat="44.65669" lon="5.10758">
        <ele>420</ele>
        <time>2018-06-10T08:32:10Z</time>
      </trkpt>
      <trkpt lat="44.65669" lon="5.10761">
        <ele>420</ele>
        <time>2018-06-10T08:32:12Z</time>
      </trkpt>
      <trkpt lat="44.65669" lon="5.10765">
        <ele>420</ele>
        <time>2018-06-10T08:32:14Z</time>
      </trkpt>
      <trkpt lat="44.6567" lon="5.10769">
        <ele>420</ele>
        <time>2018-06-10T08:32:16Z</time>
      </trkpt>
      <trkpt lat="44.65671" lon="5.10773">
        <ele>420</ele>
        <time>2018-06-10T08:32:18Z</time>
      </trkpt>
      <trkpt lat="44.65672" lon="5.10778">
        <ele>420</ele>
        <time>2018-06-10T08:32:20Z</time>
      </trkpt>
      <trkpt lat="44.65674" lon="5.10783">
        <ele>421</ele>
        <time>2018-06-10T08:32:22Z</time>
      </trkpt>
      <trkpt lat="44.65675" lon="5.10787">
        <ele>421</ele>
        <time>2018-06-10T08:32:24Z</time>
      </trkpt>
      <trkpt lat="44.65676" lon="5.10793">
        <ele>421</ele>
        <time>2018-06-10T08:32:26Z</time>
      </trkpt>
      <trkpt lat="44.65678" lon="5.10798">
        <ele>421</ele>
        <time>2018-06-10T08:32:28Z</time>
      </trkpt>
      <trkpt lat="44.65678" lon="5.10805">
        <ele>421</ele>
        <time>2018-06-10T08:32:30Z</time>
      </trkpt>
      <trkpt lat="44.65679" lon="5.10813">
        <ele>421</ele>
        <time>2018-06-10T08:32:32Z</time>
      </trkpt>
      <trkpt lat="44.65681" lon="5.10821">
        <ele>421</ele>
        <time>2018-06-10T08:32:34Z</time>
      </trkpt>
      <trkpt lat="44.65683" lon="5.10831">
        <ele>421</ele>
        <time>2018-06-10T08:32:36Z</time>
      </trkpt>
      <trkpt lat="44.65681" lon="5.10839">
        <ele>422</ele>
        <time>2018-06-10T08:32:38Z</time>
      </trkpt>
      <trkpt lat="44.65681" lon="5.10848">
        <ele>422</ele>
        <time>2018-06-10T08:32:40Z</time>
      </trkpt>
      <trkpt lat="44.65682" lon="5.10857">
        <ele>421</ele>
        <time>2018-06-10T08:32:42Z</time>
      </trkpt>
      <trkpt lat="44.65683" lon="5.10865">
        <ele>422</ele>
        <time>2018-06-10T08:32:44Z</time>
      </trkpt>
      <trkpt lat="44.65685" lon="5.10875">
        <ele>422</ele>
        <time>2018-06-10T08:32:46Z</time>
      </trkpt>
      <trkpt lat="44.65688" lon="5.10884">
        <ele>422</ele>
        <time>2018-06-10T08:32:48Z</time>
      </trkpt>
      <trkpt lat="44.6569" lon="5.10894">
        <ele>422</ele>
        <time>2018-06-10T08:32:50Z</time>
      </trkpt>
      <trkpt lat="44.65691" lon="5.10904">
        <ele>422</ele>
        <time>2018-06-10T08:32:52Z</time>
      </trkpt>
      <trkpt lat="44.65692" lon="5.10914">
        <ele>423</ele>
        <time>2018-06-10T08:32:54Z</time>
      </trkpt>
      <trkpt lat="44.65693" lon="5.10924">
        <ele>423</ele>
        <time>2018-06-10T08:32:56Z</time>
      </trkpt>
      <trkpt lat="44.65695" lon="5.10934">
        <ele>423</ele>
        <time>2018-06-10T08:32:58Z</time>
      </trkpt>
      <trkpt lat="44.65699" lon="5.10942">
        <ele>423</ele>
        <time>2018-06-10T08:33:00Z</time>
      </trkpt>
      <trkpt lat="44.65702" lon="5.1095">
        <ele>423</ele>
        <time>2018-06-10T08:33:02Z</time>
      </trkpt>
      <trkpt lat="44.65706" lon="5.10954">
        <ele>422</ele>
        <time>2018-06-10T08:33:04Z</time>
      </trkpt>
      <trkpt lat="44.65709" lon="5.10955">
        <ele>422</ele>
        <time>2018-06-10T08:33:06Z</time>
      </trkpt>
      <trkpt lat="44.65713" lon="5.10955">
        <ele>423</ele>
        <time>2018-06-10T08:33:08Z</time>
      </trkpt>
      <trkpt lat="44.65718" lon="5.10955">
        <ele>422</ele>
        <time>2018-06-10T08:33:10Z</time>
      </trkpt>
      <trkpt lat="44.65722" lon="5.10956">
        <ele>423</ele>
        <time>2018-06-10T08:33:13Z</time>
      </trkpt>
      <trkpt lat="44.65726" lon="5.10959">
        <ele>422</ele>
        <time>2018-06-10T08:33:15Z</time>
      </trkpt>
      <trkpt lat="44.65729" lon="5.10961">
        <ele>422</ele>
        <time>2018-06-10T08:33:17Z</time>
      </trkpt>
      <trkpt lat="44.65734" lon="5.10961">
        <ele>422</ele>
        <time>2018-06-10T08:33:19Z</time>
      </trkpt>
      <trkpt lat="44.6574" lon="5.10962">
        <ele>422</ele>
        <time>2018-06-10T08:33:21Z</time>
      </trkpt>
      <trkpt lat="44.65743" lon="5.10963">
        <ele>423</ele>
        <time>2018-06-10T08:33:23Z</time>
      </trkpt>
      <trkpt lat="44.6575" lon="5.10965">
        <ele>423</ele>
        <time>2018-06-10T08:33:25Z</time>
      </trkpt>
      <trkpt lat="44.65755" lon="5.10967">
        <ele>423</ele>
        <time>2018-06-10T08:33:27Z</time>
      </trkpt>
      <trkpt lat="44.65761" lon="5.10969">
        <ele>423</ele>
        <time>2018-06-10T08:33:29Z</time>
      </trkpt>
      <trkpt lat="44.65765" lon="5.1097">
        <ele>424</ele>
        <time>2018-06-10T08:33:31Z</time>
      </trkpt>
      <trkpt lat="44.6577" lon="5.1097">
        <ele>424</ele>
        <time>2018-06-10T08:33:33Z</time>
      </trkpt>
      <trkpt lat="44.65774" lon="5.1097">
        <ele>424</ele>
        <time>2018-06-10T08:33:35Z</time>
      </trkpt>
      <trkpt lat="44.65778" lon="5.10969">
        <ele>424</ele>
        <time>2018-06-10T08:33:37Z</time>
      </trkpt>
      <trkpt lat="44.65785" lon="5.10968">
        <ele>424</ele>
        <time>2018-06-10T08:33:39Z</time>
      </trkpt>
      <trkpt lat="44.6579" lon="5.10967">
        <ele>425</ele>
        <time>2018-06-10T08:33:41Z</time>
      </trkpt>
      <trkpt lat="44.65793" lon="5.10966">
        <ele>425</ele>
        <time>2018-06-10T08:33:43Z</time>
      </trkpt>
      <trkpt lat="44.65797" lon="5.10965">
        <ele>425</ele>
        <time>2018-06-10T08:33:45Z</time>
      </trkpt>
      <trkpt lat="44.65799" lon="5.10964">
        <ele>426</ele>
        <time>2018-06-10T08:33:47Z</time>
      </trkpt>
      <trkpt lat="44.65802" lon="5.10963">
        <ele>426</ele>
        <time>2018-06-10T08:33:49Z</time>
      </trkpt>
      <trkpt lat="44.65805" lon="5.10962">
        <ele>427</ele>
        <time>2018-06-10T08:33:51Z</time>
      </trkpt>
      <trkpt lat="44.65808" lon="5.10961">
        <ele>427</ele>
        <time>2018-06-10T08:33:53Z</time>
      </trkpt>
      <trkpt lat="44.65811" lon="5.10961">
        <ele>427</ele>
        <time>2018-06-10T08:33:55Z</time>
      </trkpt>
      <trkpt lat="44.65814" lon="5.10961">
        <ele>428</ele>
        <time>2018-06-10T08:33:57Z</time>
      </trkpt>
      <trkpt lat="44.65817" lon="5.10961">
        <ele>429</ele>
        <time>2018-06-10T08:33:59Z</time>
      </trkpt>
      <trkpt lat="44.65819" lon="5.10962">
        <ele>429</ele>
        <time>2018-06-10T08:34:01Z</time>
      </trkpt>
      <trkpt lat="44.65822" lon="5.10963">
        <ele>430</ele>
        <time>2018-06-10T08:34:03Z</time>
      </trkpt>
      <trkpt lat="44.65824" lon="5.10963">
        <ele>430</ele>
        <time>2018-06-10T08:34:05Z</time>
      </trkpt>
      <trkpt lat="44.65826" lon="5.10965">
        <ele>430</ele>
        <time>2018-06-10T08:34:07Z</time>
      </trkpt>
      <trkpt lat="44.65829" lon="5.10966">
        <ele>431</ele>
        <time>2018-06-10T08:34:09Z</time>
      </trkpt>
      <trkpt lat="44.65831" lon="5.10967">
        <ele>431</ele>
        <time>2018-06-10T08:34:11Z</time>
      </trkpt>
      <trkpt lat="44.65833" lon="5.10968">
        <ele>432</ele>
        <time>2018-06-10T08:34:13Z</time>
      </trkpt>
      <trkpt lat="44.65835" lon="5.10969">
        <ele>432</ele>
        <time>2018-06-10T08:34:15Z</time>
      </trkpt>
      <trkpt lat="44.65837" lon="5.1097">
        <ele>433</ele>
        <time>2018-06-10T08:34:17Z</time>
      </trkpt>
      <trkpt lat="44.65839" lon="5.10972">
        <ele>434</ele>
        <time>2018-06-10T08:34:19Z</time>
      </trkpt>
      <trkpt lat="44.65841" lon="5.10973">
        <ele>434</ele>
        <time>2018-06-10T08:34:21Z</time>
      </trkpt>
      <trkpt lat="44.65843" lon="5.10975">
        <ele>435</ele>
        <time>2018-06-10T08:34:23Z</time>
      </trkpt>
      <trkpt lat="44.65845" lon="5.10976">
        <ele>436</ele>
        <time>2018-06-10T08:34:26Z</time>
      </trkpt>
      <trkpt lat="44.65848" lon="5.10977">
        <ele>436</ele>
        <time>2018-06-10T08:34:28Z</time>
      </trkpt>
      <trkpt lat="44.65851" lon="5.10976">
        <ele>438</ele>
        <time>2018-06-10T08:34:30Z</time>
      </trkpt>
      <trkpt lat="44.65855" lon="5.10974">
        <ele>438</ele>
        <time>2018-06-10T08:34:32Z</time>
      </trkpt>
      <trkpt lat="44.65857" lon="5.10972">
        <ele>438</ele>
        <time>2018-06-10T08:34:34Z</time>
      </trkpt>
      <trkpt lat="44.65859" lon="5.10969">
        <ele>438</ele>
        <time>2018-06-10T08:34:36Z</time>
      </trkpt>
      <trkpt lat="44.65862" lon="5.10965">
        <ele>439</ele>
        <time>2018-06-10T08:34:38Z</time>
      </trkpt>
      <trkpt lat="44.65864" lon="5.10963">
        <ele>439</ele>
        <time>2018-06-10T08:34:40Z</time>
      </trkpt>
      <trkpt lat="44.65866" lon="5.1096">
        <ele>440</ele>
        <time>2018-06-10T08:34:42Z</time>
      </trkpt>
      <trkpt lat="44.65868" lon="5.10958">
        <ele>440</ele>
        <time>2018-06-10T08:34:44Z</time>
      </trkpt>
      <trkpt lat="44.6587" lon="5.10955">
        <ele>440</ele>
        <time>2018-06-10T08:34:46Z</time>
      </trkpt>
      <trkpt lat="44.65872" lon="5.10953">
        <ele>440</ele>
        <time>2018-06-10T08:34:48Z</time>
      </trkpt>
      <trkpt lat="44.65874" lon="5.10951">
        <ele>440</ele>
        <time>2018-06-10T08:34:50Z</time>
      </trkpt>
      <trkpt lat="44.65876" lon="5.10949">
        <ele>441</ele>
        <time>2018-06-10T08:34:52Z</time>
      </trkpt>
      <trkpt lat="44.65878" lon="5.10947">
        <ele>441</ele>
        <time>2018-06-10T08:34:54Z</time>
      </trkpt>
      <trkpt lat="44.6588" lon="5.10944">
        <ele>441</ele>
        <time>2018-06-10T08:34:56Z</time>
      </trkpt>
      <trkpt lat="44.65883" lon="5.10942">
        <ele>441</ele>
        <time>2018-06-10T08:34:58Z</time>
      </trkpt>
      <trkpt lat="44.65885" lon="5.10939">
        <ele>442</ele>
        <time>2018-06-10T08:35:00Z</time>
      </trkpt>
      <trkpt lat="44.65887" lon="5.10936">
        <ele>442</ele>
        <time>2018-06-10T08:35:02Z</time>
      </trkpt>
      <trkpt lat="44.65889" lon="5.10934">
        <ele>442</ele>
        <time>2018-06-10T08:35:04Z</time>
      </trkpt>
      <trkpt lat="44.65891" lon="5.10933">
        <ele>442</ele>
        <time>2018-06-10T08:35:06Z</time>
      </trkpt>
      <trkpt lat="44.65893" lon="5.10932">
        <ele>443</ele>
        <time>2018-06-10T08:35:08Z</time>
      </trkpt>
      <trkpt lat="44.65896" lon="5.10931">
        <ele>443</ele>
        <time>2018-06-10T08:35:10Z</time>
      </trkpt>
      <trkpt lat="44.65898" lon="5.10929">
        <ele>444</ele>
        <time>2018-06-10T08:35:13Z</time>
      </trkpt>
      <trkpt lat="44.65901" lon="5.10927">
        <ele>444</ele>
        <time>2018-06-10T08:35:15Z</time>
      </trkpt>
      <trkpt lat="44.65903" lon="5.10925">
        <ele>444</ele>
        <time>2018-06-10T08:35:17Z</time>
      </trkpt>
      <trkpt lat="44.65906" lon="5.10925">
        <ele>445</ele>
        <time>2018-06-10T08:35:19Z</time>
      </trkpt>
      <trkpt lat="44.65908" lon="5.10923">
        <ele>445</ele>
        <time>2018-06-10T08:35:21Z</time>
      </trkpt>
      <trkpt lat="44.6591" lon="5.10922">
        <ele>446</ele>
        <time>2018-06-10T08:35:23Z</time>
      </trkpt>
      <trkpt lat="44.65912" lon="5.1092">
        <ele>446</ele>
        <time>2018-06-10T08:35:25Z</time>
      </trkpt>
      <trkpt lat="44.65915" lon="5.10918">
        <ele>447</ele>
        <time>2018-06-10T08:35:27Z</time>
      </trkpt>
      <trkpt lat="44.65916" lon="5.10916">
        <ele>448</ele>
        <time>2018-06-10T08:35:29Z</time>
      </trkpt>
      <trkpt lat="44.65919" lon="5.10914">
        <ele>448</ele>
        <time>2018-06-10T08:35:31Z</time>
      </trkpt>
      <trkpt lat="44.65922" lon="5.10913">
        <ele>448</ele>
        <time>2018-06-10T08:35:33Z</time>
      </trkpt>
      <trkpt lat="44.65923" lon="5.10911">
        <ele>449</ele>
        <time>2018-06-10T08:35:35Z</time>
      </trkpt>
      <trkpt lat="44.65926" lon="5.10909">
        <ele>449</ele>
        <time>2018-06-10T08:35:37Z</time>
      </trkpt>
      <trkpt lat="44.65927" lon="5.10906">
        <ele>449</ele>
        <time>2018-06-10T08:35:39Z</time>
      </trkpt>
      <trkpt lat="44.65929" lon="5.10903">
        <ele>450</ele>
        <time>2018-06-10T08:35:41Z</time>
      </trkpt>
      <trkpt lat="44.6593" lon="5.10901">
        <ele>450</ele>
        <time>2018-06-10T08:35:43Z</time>
      </trkpt>
      <trkpt lat="44.65932" lon="5.10898">
        <ele>450</ele>
        <time>2018-06-10T08:35:45Z</time>
      </trkpt>
      <trkpt lat="44.65933" lon="5.10896">
        <ele>451</ele>
        <time>2018-06-10T08:35:47Z</time>
      </trkpt>
      <trkpt lat="44.65935" lon="5.10893">
        <ele>451</ele>
        <time>2018-06-10T08:35:49Z</time>
      </trkpt>
      <trkpt lat="44.65938" lon="5.10892">
        <ele>452</ele>
        <time>2018-06-10T08:35:51Z</time>
      </trkpt>
      <trkpt lat="44.65941" lon="5.1089">
        <ele>452</ele>
        <time>2018-06-10T08:35:53Z</time>
      </trkpt>
      <trkpt lat="44.65942" lon="5.10888">
        <ele>452</ele>
        <time>2018-06-10T08:35:55Z</time>
      </trkpt>
      <trkpt lat="44.65944" lon="5.10886">
        <ele>453</ele>
        <time>2018-06-10T08:35:57Z</time>
      </trkpt>
      <trkpt lat="44.65947" lon="5.10882">
        <ele>453</ele>
        <time>2018-06-10T08:35:59Z</time>
      </trkpt>
      <trkpt lat="44.65948" lon="5.10879">
        <ele>453</ele>
        <time>2018-06-10T08:36:01Z</time>
      </trkpt>
      <trkpt lat="44.6595" lon="5.10876">
        <ele>454</ele>
        <time>2018-06-10T08:36:03Z</time>
      </trkpt>
      <trkpt lat="44.65951" lon="5.10873">
        <ele>454</ele>
        <time>2018-06-10T08:36:05Z</time>
      </trkpt>
      <trkpt lat="44.65953" lon="5.1087">
        <ele>454</ele>
        <time>2018-06-10T08:36:07Z</time>
      </trkpt>
      <trkpt lat="44.65955" lon="5.10867">
        <ele>455</ele>
        <time>2018-06-10T08:36:10Z</time>
      </trkpt>
      <trkpt lat="44.65957" lon="5.10862">
        <ele>455</ele>
        <time>2018-06-10T08:36:12Z</time>
      </trkpt>
      <trkpt lat="44.65959" lon="5.1086">
        <ele>455</ele>
        <time>2018-06-10T08:36:14Z</time>
      </trkpt>
      <trkpt lat="44.65961" lon="5.10857">
        <ele>456</ele>
        <time>2018-06-10T08:36:16Z</time>
      </trkpt>
      <trkpt lat="44.65963" lon="5.10853">
        <ele>456</ele>
        <time>2018-06-10T08:36:18Z</time>
      </trkpt>
      <trkpt lat="44.65965" lon="5.1085">
        <ele>457</ele>
        <time>2018-06-10T08:36:20Z</time>
      </trkpt>
      <trkpt lat="44.65966" lon="5.10847">
        <ele>457</ele>
        <time>2018-06-10T08:36:22Z</time>
      </trkpt>
      <trkpt lat="44.65967" lon="5.10842">
        <ele>457</ele>
        <time>2018-06-10T08:36:24Z</time>
      </trkpt>
      <trkpt lat="44.65968" lon="5.10838">
        <ele>458</ele>
        <time>2018-06-10T08:36:26Z</time>
      </trkpt>
      <trkpt lat="44.65969" lon="5.10834">
        <ele>458</ele>
        <time>2018-06-10T08:36:28Z</time>
      </trkpt>
      <trkpt lat="44.65969" lon="5.1083">
        <ele>459</ele>
        <time>2018-06-10T08:36:30Z</time>
      </trkpt>
      <trkpt lat="44.6597" lon="5.10827">
        <ele>460</ele>
        <time>2018-06-10T08:36:32Z</time>
      </trkpt>
      <trkpt lat="44.65971" lon="5.10824">
        <ele>460</ele>
        <time>2018-06-10T08:36:34Z</time>
      </trkpt>
      <trkpt lat="44.65972" lon="5.10821">
        <ele>460</ele>
        <time>2018-06-10T08:36:36Z</time>
      </trkpt>
      <trkpt lat="44.65973" lon="5.10819">
        <ele>461</ele>
        <time>2018-06-10T08:36:38Z</time>
      </trkpt>
      <trkpt lat="44.65973" lon="5.10816">
        <ele>461</ele>
        <time>2018-06-10T08:36:40Z</time>
      </trkpt>
      <trkpt lat="44.65974" lon="5.10811">
        <ele>461</ele>
        <time>2018-06-10T08:36:42Z</time>
      </trkpt>
      <trkpt lat="44.65975" lon="5.10805">
        <ele>462</ele>
        <time>2018-06-10T08:36:44Z</time>
      </trkpt>
      <trkpt lat="44.65976" lon="5.108">
        <ele>462</ele>
        <time>2018-06-10T08:36:46Z</time>
      </trkpt>
      <trkpt lat="44.65978" lon="5.10796">
        <ele>462</ele>
        <time>2018-06-10T08:36:48Z</time>
      </trkpt>
      <trkpt lat="44.65979" lon="5.10792">
        <ele>462</ele>
        <time>2018-06-10T08:36:50Z</time>
      </trkpt>
      <trkpt lat="44.65981" lon="5.10788">
        <ele>463</ele>
        <time>2018-06-10T08:36:52Z</time>
      </trkpt>
      <trkpt lat="44.65982" lon="5.10786">
        <ele>463</ele>
        <time>2018-06-10T08:36:54Z</time>
      </trkpt>
      <trkpt lat="44.65984" lon="5.10782">
        <ele>464</ele>
        <time>2018-06-10T08:36:56Z</time>
      </trkpt>
      <trkpt lat="44.65986" lon="5.10779">
        <ele>464</ele>
        <time>2018-06-10T08:36:58Z</time>
      </trkpt>
      <trkpt lat="44.65988" lon="5.10775">
        <ele>464</ele>
        <time>2018-06-10T08:37:00Z</time>
      </trkpt>
      <trkpt lat="44.65991" lon="5.10771">
        <ele>464</ele>
        <time>2018-06-10T08:37:02Z</time>
      </trkpt>
      <trkpt lat="44.65993" lon="5.10769">
        <ele>464</ele>
        <time>2018-06-10T08:37:04Z</time>
      </trkpt>
      <trkpt lat="44.65996" lon="5.10766">
        <ele>465</ele>
        <time>2018-06-10T08:37:06Z</time>
      </trkpt>
      <trkpt lat="44.65998" lon="5.10762">
        <ele>465</ele>
        <time>2018-06-10T08:37:08Z</time>
      </trkpt>
      <trkpt lat="44.66001" lon="5.10758">
        <ele>466</ele>
        <time>2018-06-10T08:37:10Z</time>
      </trkpt>
      <trkpt lat="44.66003" lon="5.10756">
        <ele>466</ele>
        <time>2018-06-10T08:37:12Z</time>
      </trkpt>
      <trkpt lat="44.66006" lon="5.10755">
        <ele>467</ele>
        <time>2018-06-10T08:37:14Z</time>
      </trkpt>
      <trkpt lat="44.66008" lon="5.10753">
        <ele>467</ele>
        <time>2018-06-10T08:37:16Z</time>
      </trkpt>
      <trkpt lat="44.66011" lon="5.10752">
        <ele>467</ele>
        <time>2018-06-10T08:37:18Z</time>
      </trkpt>
      <trkpt lat="44.66015" lon="5.10751">
        <ele>467</ele>
        <time>2018-06-10T08:37:20Z</time>
      </trkpt>
      <trkpt lat="44.66018" lon="5.10749">
        <ele>468</ele>
        <time>2018-06-10T08:37:22Z</time>
      </trkpt>
      <trkpt lat="44.66022" lon="5.10748">
        <ele>468</ele>
        <time>2018-06-10T08:37:24Z</time>
      </trkpt>
      <trkpt lat="44.66025" lon="5.10747">
        <ele>468</ele>
        <time>2018-06-10T08:37:26Z</time>
      </trkpt>
      <trkpt lat="44.66025" lon="5.10747">
        <ele>468</ele>
        <time>2018-06-10T08:37:28Z</time>
      </trkpt>
      <trkpt lat="44.66028" lon="5.10748">
        <ele>468</ele>
        <time>2018-06-10T08:37:30Z</time>
      </trkpt>
      <trkpt lat="44.66032" lon="5.10747">
        <ele>469</ele>
        <time>2018-06-10T08:37:32Z</time>
      </trkpt>
      <trkpt lat="44.66035" lon="5.10746">
        <ele>469</ele>
        <time>2018-06-10T08:37:34Z</time>
      </trkpt>
      <trkpt lat="44.66038" lon="5.10746">
        <ele>469</ele>
        <time>2018-06-10T08:37:37Z</time>
      </trkpt>
      <trkpt lat="44.6604" lon="5.10745">
        <ele>469</ele>
        <time>2018-06-10T08:37:39Z</time>
      </trkpt>
      <trkpt lat="44.66043" lon="5.10745">
        <ele>470</ele>
        <time>2018-06-10T08:37:41Z</time>
      </trkpt>
      <trkpt lat="44.66047" lon="5.10744">
        <ele>470</ele>
        <time>2018-06-10T08:37:43Z</time>
      </trkpt>
      <trkpt lat="44.66049" lon="5.10744">
        <ele>470</ele>
        <time>2018-06-10T08:37:45Z</time>
      </trkpt>
      <trkpt lat="44.66052" lon="5.10743">
        <ele>470</ele>
        <time>2018-06-10T08:37:47Z</time>
      </trkpt>
      <trkpt lat="44.66056" lon="5.10741">
        <ele>470</ele>
        <time>2018-06-10T08:37:49Z</time>
      </trkpt>
      <trkpt lat="44.66058" lon="5.1074">
        <ele>471</ele>
        <time>2018-06-10T08:37:51Z</time>
      </trkpt>
      <trkpt lat="44.66061" lon="5.10738">
        <ele>471</ele>
        <time>2018-06-10T08:37:53Z</time>
      </trkpt>
      <trkpt lat="44.66063" lon="5.10738">
        <ele>471</ele>
        <time>2018-06-10T08:37:55Z</time>
      </trkpt>
      <trkpt lat="44.66068" lon="5.10737">
        <ele>472</ele>
        <time>2018-06-10T08:37:57Z</time>
      </trkpt>
      <trkpt lat="44.66069" lon="5.10736">
        <ele>472</ele>
        <time>2018-06-10T08:37:59Z</time>
      </trkpt>
      <trkpt lat="44.66072" lon="5.10735">
        <ele>472</ele>
        <time>2018-06-10T08:38:01Z</time>
      </trkpt>
      <trkpt lat="44.66073" lon="5.10734">
        <ele>473</ele>
        <time>2018-06-10T08:38:03Z</time>
      </trkpt>
      <trkpt lat="44.66075" lon="5.10733">
        <ele>473</ele>
        <time>2018-06-10T08:38:05Z</time>
      </trkpt>
      <trkpt lat="44.66078" lon="5.10732">
        <ele>474</ele>
        <time>2018-06-10T08:38:07Z</time>
      </trkpt>
      <trkpt lat="44.66081" lon="5.10731">
        <ele>474</ele>
        <time>2018-06-10T08:38:09Z</time>
      </trkpt>
      <trkpt lat="44.66083" lon="5.10729">
        <ele>475</ele>
        <time>2018-06-10T08:38:11Z</time>
      </trkpt>
      <trkpt lat="44.66084" lon="5.10725">
        <ele>475</ele>
        <time>2018-06-10T08:38:13Z</time>
      </trkpt>
      <trkpt lat="44.66086" lon="5.10724">
        <ele>475</ele>
        <time>2018-06-10T08:38:15Z</time>
      </trkpt>
      <trkpt lat="44.66087" lon="5.10721">
        <ele>476</ele>
        <time>2018-06-10T08:38:17Z</time>
      </trkpt>
      <trkpt lat="44.66089" lon="5.10718">
        <ele>476</ele>
        <time>2018-06-10T08:38:19Z</time>
      </trkpt>
      <trkpt lat="44.6609" lon="5.10714">
        <ele>476</ele>
        <time>2018-06-10T08:38:22Z</time>
      </trkpt>
      <trkpt lat="44.66091" lon="5.1071">
        <ele>477</ele>
        <time>2018-06-10T08:38:24Z</time>
      </trkpt>
      <trkpt lat="44.66092" lon="5.10708">
        <ele>477</ele>
        <time>2018-06-10T08:38:26Z</time>
      </trkpt>
      <trkpt lat="44.66094" lon="5.10705">
        <ele>477</ele>
        <time>2018-06-10T08:38:28Z</time>
      </trkpt>
      <trkpt lat="44.66096" lon="5.10702">
        <ele>477</ele>
        <time>2018-06-10T08:38:30Z</time>
      </trkpt>
      <trkpt lat="44.66098" lon="5.10697">
        <ele>478</ele>
        <time>2018-06-10T08:38:32Z</time>
      </trkpt>
      <trkpt lat="44.661" lon="5.10694">
        <ele>478</ele>
        <time>2018-06-10T08:38:34Z</time>
      </trkpt>
      <trkpt lat="44.66099" lon="5.10692">
        <ele>478</ele>
        <time>2018-06-10T08:38:36Z</time>
      </trkpt>
      <trkpt lat="44.66098" lon="5.10689">
        <ele>479</ele>
        <time>2018-06-10T08:38:38Z</time>
      </trkpt>
      <trkpt lat="44.66098" lon="5.10686">
        <ele>479</ele>
        <time>2018-06-10T08:38:40Z</time>
      </trkpt>
      <trkpt lat="44.66097" lon="5.10682">
        <ele>479</ele>
        <time>2018-06-10T08:38:42Z</time>
      </trkpt>
      <trkpt lat="44.66097" lon="5.10679">
        <ele>480</ele>
        <time>2018-06-10T08:38:44Z</time>
      </trkpt>
      <trkpt lat="44.66095" lon="5.10677">
        <ele>480</ele>
        <time>2018-06-10T08:38:46Z</time>
      </trkpt>
      <trkpt lat="44.66093" lon="5.10675">
        <ele>480</ele>
        <time>2018-06-10T08:38:48Z</time>
      </trkpt>
      <trkpt lat="44.66091" lon="5.10673">
        <ele>480</ele>
        <time>2018-06-10T08:38:50Z</time>
      </trkpt>
      <trkpt lat="44.66089" lon="5.10672">
        <ele>480</ele>
        <time>2018-06-10T08:38:52Z</time>
      </trkpt>
      <trkpt lat="44.66087" lon="5.10669">
        <ele>481</ele>
        <time>2018-06-10T08:38:54Z</time>
      </trkpt>
      <trkpt lat="44.66085" lon="5.10668">
        <ele>481</ele>
        <time>2018-06-10T08:38:56Z</time>
      </trkpt>
      <trkpt lat="44.66083" lon="5.10665">
        <ele>481</ele>
        <time>2018-06-10T08:38:58Z</time>
      </trkpt>
      <trkpt lat="44.66081" lon="5.10663">
        <ele>482</ele>
        <time>2018-06-10T08:39:00Z</time>
      </trkpt>
      <trkpt lat="44.66079" lon="5.10661">
        <ele>482</ele>
        <time>2018-06-10T08:39:02Z</time>
      </trkpt>
      <trkpt lat="44.66076" lon="5.10658">
        <ele>483</ele>
        <time>2018-06-10T08:39:04Z</time>
      </trkpt>
      <trkpt lat="44.66074" lon="5.10656">
        <ele>483</ele>
        <time>2018-06-10T08:39:06Z</time>
      </trkpt>
      <trkpt lat="44.66072" lon="5.10654">
        <ele>483</ele>
        <time>2018-06-10T08:39:08Z</time>
      </trkpt>
      <trkpt lat="44.66071" lon="5.10653">
        <ele>483</ele>
        <time>2018-06-10T08:39:10Z</time>
      </trkpt>
      <trkpt lat="44.66067" lon="5.1065">
        <ele>484</ele>
        <time>2018-06-10T08:39:13Z</time>
      </trkpt>
      <trkpt lat="44.66066" lon="5.10648">
        <ele>484</ele>
        <time>2018-06-10T08:39:15Z</time>
      </trkpt>
      <trkpt lat="44.66065" lon="5.10647">
        <ele>485</ele>
        <time>2018-06-10T08:39:17Z</time>
      </trkpt>
      <trkpt lat="44.66064" lon="5.10645">
        <ele>485</ele>
        <time>2018-06-10T08:39:19Z</time>
      </trkpt>
      <trkpt lat="44.66065" lon="5.10643">
        <ele>485</ele>
        <time>2018-06-10T08:39:21Z</time>
      </trkpt>
      <trkpt lat="44.66065" lon="5.10639">
        <ele>485</ele>
        <time>2018-06-10T08:39:23Z</time>
      </trkpt>
      <trkpt lat="44.66065" lon="5.10635">
        <ele>486</ele>
        <time>2018-06-10T08:39:25Z</time>
      </trkpt>
      <trkpt lat="44.66066" lon="5.10632">
        <ele>486</ele>
        <time>2018-06-10T08:39:27Z</time>
      </trkpt>
      <trkpt lat="44.66067" lon="5.10629">
        <ele>486</ele>
        <time>2018-06-10T08:39:29Z</time>
      </trkpt>
      <trkpt lat="44.66069" lon="5.10627">
        <ele>486</ele>
        <time>2018-06-10T08:39:31Z</time>
      </trkpt>
      <trkpt lat="44.66071" lon="5.10625">
        <ele>486</ele>
        <time>2018-06-10T08:39:33Z</time>
      </trkpt>
      <trkpt lat="44.66072" lon="5.10624">
        <ele>486</ele>
        <time>2018-06-10T08:39:35Z</time>
      </trkpt>
      <trkpt lat="44.66074" lon="5.10622">
        <ele>486</ele>
        <time>2018-06-10T08:39:37Z</time>
      </trkpt>
      <trkpt lat="44.66075" lon="5.10621">
        <ele>487</ele>
        <time>2018-06-10T08:39:39Z</time>
      </trkpt>
      <trkpt lat="44.66077" lon="5.10619">
        <ele>487</ele>
        <time>2018-06-10T08:39:41Z</time>
      </trkpt>
      <trkpt lat="44.66079" lon="5.10617">
        <ele>487</ele>
        <time>2018-06-10T08:39:43Z</time>
      </trkpt>
      <trkpt lat="44.66082" lon="5.10616">
        <ele>487</ele>
        <time>2018-06-10T08:39:45Z</time>
      </trkpt>
      <trkpt lat="44.66085" lon="5.10614">
        <ele>487</ele>
        <time>2018-06-10T08:39:47Z</time>
      </trkpt>
      <trkpt lat="44.66088" lon="5.10614">
        <ele>487</ele>
        <time>2018-06-10T08:39:49Z</time>
      </trkpt>
      <trkpt lat="44.66091" lon="5.10615">
        <ele>488</ele>
        <time>2018-06-10T08:39:51Z</time>
      </trkpt>
      <trkpt lat="44.66094" lon="5.10615">
        <ele>488</ele>
        <time>2018-06-10T08:39:53Z</time>
      </trkpt>
      <trkpt lat="44.66101" lon="5.10617">
        <ele>489</ele>
        <time>2018-06-10T08:39:55Z</time>
      </trkpt>
      <trkpt lat="44.66106" lon="5.10618">
        <ele>489</ele>
        <time>2018-06-10T08:39:57Z</time>
      </trkpt>
      <trkpt lat="44.66108" lon="5.10619">
        <ele>490</ele>
        <time>2018-06-10T08:39:59Z</time>
      </trkpt>
      <trkpt lat="44.66111" lon="5.10619">
        <ele>490</ele>
        <time>2018-06-10T08:40:01Z</time>
      </trkpt>
      <trkpt lat="44.66114" lon="5.1062">
        <ele>491</ele>
        <time>2018-06-10T08:40:03Z</time>
      </trkpt>
      <trkpt lat="44.66117" lon="5.10621">
        <ele>491</ele>
        <time>2018-06-10T08:40:05Z</time>
      </trkpt>
      <trkpt lat="44.66119" lon="5.10621">
        <ele>491</ele>
        <time>2018-06-10T08:40:07Z</time>
      </trkpt>
      <trkpt lat="44.66123" lon="5.10622">
        <ele>491</ele>
        <time>2018-06-10T08:40:09Z</time>
      </trkpt>
      <trkpt lat="44.66125" lon="5.10622">
        <ele>491</ele>
        <time>2018-06-10T08:40:11Z</time>
      </trkpt>
      <trkpt lat="44.66128" lon="5.10623">
        <ele>491</ele>
        <time>2018-06-10T08:40:13Z</time>
      </trkpt>
      <trkpt lat="44.66131" lon="5.10624">
        <ele>492</ele>
        <time>2018-06-10T08:40:15Z</time>
      </trkpt>
      <trkpt lat="44.66133" lon="5.10626">
        <ele>493</ele>
        <time>2018-06-10T08:40:17Z</time>
      </trkpt>
      <trkpt lat="44.66137" lon="5.10629">
        <ele>493</ele>
        <time>2018-06-10T08:40:19Z</time>
      </trkpt>
      <trkpt lat="44.66139" lon="5.10629">
        <ele>494</ele>
        <time>2018-06-10T08:40:21Z</time>
      </trkpt>
      <trkpt lat="44.66141" lon="5.1063">
        <ele>494</ele>
        <time>2018-06-10T08:40:23Z</time>
      </trkpt>
      <trkpt lat="44.66143" lon="5.1063">
        <ele>495</ele>
        <time>2018-06-10T08:40:25Z</time>
      </trkpt>
      <trkpt lat="44.66146" lon="5.10631">
        <ele>496</ele>
        <time>2018-06-10T08:40:27Z</time>
      </trkpt>
      <trkpt lat="44.66149" lon="5.10632">
        <ele>496</ele>
        <time>2018-06-10T08:40:29Z</time>
      </trkpt>
      <trkpt lat="44.66152" lon="5.10635">
        <ele>496</ele>
        <time>2018-06-10T08:40:31Z</time>
      </trkpt>
      <trkpt lat="44.66153" lon="5.10638">
        <ele>496</ele>
        <time>2018-06-10T08:40:33Z</time>
      </trkpt>
      <trkpt lat="44.66154" lon="5.10639">
        <ele>497</ele>
        <time>2018-06-10T08:40:35Z</time>
      </trkpt>
      <trkpt lat="44.66156" lon="5.10641">
        <ele>497</ele>
        <time>2018-06-10T08:40:38Z</time>
      </trkpt>
      <trkpt lat="44.66157" lon="5.10644">
        <ele>498</ele>
        <time>2018-06-10T08:40:40Z</time>
      </trkpt>
      <trkpt lat="44.66158" lon="5.10645">
        <ele>498</ele>
        <time>2018-06-10T08:40:42Z</time>
      </trkpt>
      <trkpt lat="44.66159" lon="5.10647">
        <ele>499</ele>
        <time>2018-06-10T08:40:44Z</time>
      </trkpt>
      <trkpt lat="44.66159" lon="5.10648">
        <ele>499</ele>
        <time>2018-06-10T08:40:46Z</time>
      </trkpt>
      <trkpt lat="44.6616" lon="5.1065">
        <ele>499</ele>
        <time>2018-06-10T08:40:48Z</time>
      </trkpt>
      <trkpt lat="44.66161" lon="5.10651">
        <ele>500</ele>
        <time>2018-06-10T08:40:50Z</time>
      </trkpt>
      <trkpt lat="44.66161" lon="5.10652">
        <ele>500</ele>
        <time>2018-06-10T08:40:52Z</time>
      </trkpt>
      <trkpt lat="44.66162" lon="5.10653">
        <ele>500</ele>
        <time>2018-06-10T08:40:54Z</time>
      </trkpt>
      <trkpt lat="44.66163" lon="5.10653">
        <ele>500</ele>
        <time>2018-06-10T08:40:56Z</time>
      </trkpt>
      <trkpt lat="44.66165" lon="5.10653">
        <ele>501</ele>
        <time>2018-06-10T08:40:58Z</time>
      </trkpt>
      <trkpt lat="44.66165" lon="5.10653">
        <ele>501</ele>
        <time>2018-06-10T08:41:00Z</time>
      </trkpt>
      <trkpt lat="44.66167" lon="5.10653">
        <ele>502</ele>
        <time>2018-06-10T08:41:02Z</time>
      </trkpt>
      <trkpt lat="44.66168" lon="5.10653">
        <ele>502</ele>
        <time>2018-06-10T08:41:04Z</time>
      </trkpt>
      <trkpt lat="44.66169" lon="5.10652">
        <ele>503</ele>
        <time>2018-06-10T08:41:06Z</time>
      </trkpt>
      <trkpt lat="44.66169" lon="5.10652">
        <ele>503</ele>
        <time>2018-06-10T08:41:08Z</time>
      </trkpt>
      <trkpt lat="44.6617" lon="5.10651">
        <ele>503</ele>
        <time>2018-06-10T08:41:10Z</time>
      </trkpt>
      <trkpt lat="44.66171" lon="5.10651">
        <ele>504</ele>
        <time>2018-06-10T08:41:12Z</time>
      </trkpt>
      <trkpt lat="44.66172" lon="5.10649">
        <ele>504</ele>
        <time>2018-06-10T08:41:14Z</time>
      </trkpt>
      <trkpt lat="44.66173" lon="5.10648">
        <ele>505</ele>
        <time>2018-06-10T08:41:16Z</time>
      </trkpt>
      <trkpt lat="44.66174" lon="5.10648">
        <ele>505</ele>
        <time>2018-06-10T08:41:18Z</time>
      </trkpt>
      <trkpt lat="44.66176" lon="5.10648">
        <ele>505</ele>
        <time>2018-06-10T08:41:20Z</time>
      </trkpt>
      <trkpt lat="44.66177" lon="5.10649">
        <ele>506</ele>
        <time>2018-06-10T08:41:22Z</time>
      </trkpt>
      <trkpt lat="44.66178" lon="5.10647">
        <ele>506</ele>
        <time>2018-06-10T08:41:24Z</time>
      </trkpt>
      <trkpt lat="44.66178" lon="5.10646">
        <ele>506</ele>
        <time>2018-06-10T08:41:26Z</time>
      </trkpt>
      <trkpt lat="44.66178" lon="5.10644">
        <ele>506</ele>
        <time>2018-06-10T08:41:28Z</time>
      </trkpt>
      <trkpt lat="44.66177" lon="5.10641">
        <ele>506</ele>
        <time>2018-06-10T08:41:30Z</time>
      </trkpt>
      <trkpt lat="44.66179" lon="5.10632">
        <ele>505</ele>
        <time>2018-06-10T08:41:32Z</time>
      </trkpt>
      <trkpt lat="44.66178" lon="5.10629">
        <ele>505</ele>
        <time>2018-06-10T08:41:34Z</time>
      </trkpt>
      <trkpt lat="44.66177" lon="5.10625">
        <ele>505</ele>
        <time>2018-06-10T08:41:36Z</time>
      </trkpt>
      <trkpt lat="44.66176" lon="5.1062">
        <ele>505</ele>
        <time>2018-06-10T08:41:38Z</time>
      </trkpt>
      <trkpt lat="44.66175" lon="5.10612">
        <ele>505</ele>
        <time>2018-06-10T08:41:40Z</time>
      </trkpt>
      <trkpt lat="44.66173" lon="5.10604">
        <ele>504</ele>
        <time>2018-06-10T08:41:42Z</time>
      </trkpt>
      <trkpt lat="44.66171" lon="5.10595">
        <ele>504</ele>
        <time>2018-06-10T08:41:44Z</time>
      </trkpt>
      <trkpt lat="44.66169" lon="5.10587">
        <ele>504</ele>
        <time>2018-06-10T08:41:46Z</time>
      </trkpt>
      <trkpt lat="44.66165" lon="5.10575">
        <ele>503</ele>
        <time>2018-06-10T08:41:48Z</time>
      </trkpt>
      <trkpt lat="44.66165" lon="5.10561">
        <ele>503</ele>
        <time>2018-06-10T08:41:51Z</time>
      </trkpt>
      <trkpt lat="44.66169" lon="5.1055">
        <ele>503</ele>
        <time>2018-06-10T08:41:53Z</time>
      </trkpt>
      <trkpt lat="44.66174" lon="5.10541">
        <ele>502</ele>
        <time>2018-06-10T08:41:55Z</time>
      </trkpt>
      <trkpt lat="44.6618" lon="5.10534">
        <ele>502</ele>
        <time>2018-06-10T08:41:57Z</time>
      </trkpt>
      <trkpt lat="44.66187" lon="5.10526">
        <ele>502</ele>
        <time>2018-06-10T08:41:59Z</time>
      </trkpt>
      <trkpt lat="44.66194" lon="5.10516">
        <ele>502</ele>
        <time>2018-06-10T08:42:01Z</time>
      </trkpt>
      <trkpt lat="44.66201" lon="5.1051">
        <ele>501</ele>
        <time>2018-06-10T08:42:03Z</time>
      </trkpt>
      <trkpt lat="44.66206" lon="5.10496">
        <ele>501</ele>
        <time>2018-06-10T08:42:05Z</time>
      </trkpt>
      <trkpt lat="44.66205" lon="5.10484">
        <ele>500</ele>
        <time>2018-06-10T08:42:07Z</time>
      </trkpt>
      <trkpt lat="44.66201" lon="5.10472">
        <ele>500</ele>
        <time>2018-06-10T08:42:09Z</time>
      </trkpt>
      <trkpt lat="44.66199" lon="5.10448">
        <ele>500</ele>
        <time>2018-06-10T08:42:11Z</time>
      </trkpt>
      <trkpt lat="44.66201" lon="5.10433">
        <ele>499</ele>
        <time>2018-06-10T08:42:13Z</time>
      </trkpt>
      <trkpt lat="44.66206" lon="5.10418">
        <ele>499</ele>
        <time>2018-06-10T08:42:15Z</time>
      </trkpt>
      <trkpt lat="44.66212" lon="5.10405">
        <ele>498</ele>
        <time>2018-06-10T08:42:17Z</time>
      </trkpt>
      <trkpt lat="44.66218" lon="5.1039">
        <ele>498</ele>
        <time>2018-06-10T08:42:19Z</time>
      </trkpt>
      <trkpt lat="44.66225" lon="5.10374">
        <ele>498</ele>
        <time>2018-06-10T08:42:21Z</time>
      </trkpt>
      <trkpt lat="44.66229" lon="5.10357">
        <ele>497</ele>
        <time>2018-06-10T08:42:23Z</time>
      </trkpt>
      <trkpt lat="44.66234" lon="5.10341">
        <ele>496</ele>
        <time>2018-06-10T08:42:25Z</time>
      </trkpt>
      <trkpt lat="44.66238" lon="5.10323">
        <ele>496</ele>
        <time>2018-06-10T08:42:27Z</time>
      </trkpt>
      <trkpt lat="44.66242" lon="5.10303">
        <ele>495</ele>
        <time>2018-06-10T08:42:29Z</time>
      </trkpt>
      <trkpt lat="44.6625" lon="5.10285">
        <ele>495</ele>
        <time>2018-06-10T08:42:31Z</time>
      </trkpt>
      <trkpt lat="44.66259" lon="5.10271">
        <ele>494</ele>
        <time>2018-06-10T08:42:33Z</time>
      </trkpt>
      <trkpt lat="44.66267" lon="5.10261">
        <ele>493</ele>
        <time>2018-06-10T08:42:35Z</time>
      </trkpt>
      <trkpt lat="44.66276" lon="5.10252">
        <ele>493</ele>
        <time>2018-06-10T08:42:37Z</time>
      </trkpt>
      <trkpt lat="44.66286" lon="5.10241">
        <ele>492</ele>
        <time>2018-06-10T08:42:39Z</time>
      </trkpt>
      <trkpt lat="44.66295" lon="5.1023">
        <ele>491</ele>
        <time>2018-06-10T08:42:41Z</time>
      </trkpt>
      <trkpt lat="44.66307" lon="5.10218">
        <ele>491</ele>
        <time>2018-06-10T08:42:43Z</time>
      </trkpt>
      <trkpt lat="44.66317" lon="5.10206">
        <ele>489</ele>
        <time>2018-06-10T08:42:45Z</time>
      </trkpt>
      <trkpt lat="44.66322" lon="5.10187">
        <ele>489</ele>
        <time>2018-06-10T08:42:47Z</time>
      </trkpt>
      <trkpt lat="44.66327" lon="5.10172">
        <ele>488</ele>
        <time>2018-06-10T08:42:49Z</time>
      </trkpt>
      <trkpt lat="44.66331" lon="5.10163">
        <ele>488</ele>
        <time>2018-06-10T08:42:51Z</time>
      </trkpt>
      <trkpt lat="44.66334" lon="5.10156">
        <ele>488</ele>
        <time>2018-06-10T08:42:53Z</time>
      </trkpt>
      <trkpt lat="44.66336" lon="5.10153">
        <ele>488</ele>
        <time>2018-06-10T08:42:55Z</time>
      </trkpt>
      <trkpt lat="44.66342" lon="5.10146">
        <ele>488</ele>
        <time>2018-06-10T08:42:57Z</time>
      </trkpt>
      <trkpt lat="44.66345" lon="5.10143">
        <ele>487</ele>
        <time>2018-06-10T08:42:59Z</time>
      </trkpt>
      <trkpt lat="44.66346" lon="5.10139">
        <ele>487</ele>
        <time>2018-06-10T08:43:01Z</time>
      </trkpt>
      <trkpt lat="44.66344" lon="5.10136">
        <ele>487</ele>
        <time>2018-06-10T08:43:03Z</time>
      </trkpt>
      <trkpt lat="44.66341" lon="5.10134">
        <ele>485</ele>
        <time>2018-06-10T08:43:05Z</time>
      </trkpt>
      <trkpt lat="44.66337" lon="5.10133">
        <ele>484</ele>
        <time>2018-06-10T08:43:07Z</time>
      </trkpt>
      <trkpt lat="44.6633" lon="5.10139">
        <ele>483</ele>
        <time>2018-06-10T08:43:09Z</time>
      </trkpt>
      <trkpt lat="44.6632" lon="5.10145">
        <ele>478</ele>
        <time>2018-06-10T08:43:11Z</time>
      </trkpt>
      <trkpt lat="44.66311" lon="5.1015">
        <ele>477</ele>
        <time>2018-06-10T08:43:13Z</time>
      </trkpt>
      <trkpt lat="44.66301" lon="5.1015">
        <ele>474</ele>
        <time>2018-06-10T08:43:15Z</time>
      </trkpt>
      <trkpt lat="44.6629" lon="5.10152">
        <ele>472</ele>
        <time>2018-06-10T08:43:17Z</time>
      </trkpt>
      <trkpt lat="44.66282" lon="5.10156">
        <ele>472</ele>
        <time>2018-06-10T08:43:19Z</time>
      </trkpt>
      <trkpt lat="44.66269" lon="5.10163">
        <ele>470</ele>
        <time>2018-06-10T08:43:21Z</time>
      </trkpt>
      <trkpt lat="44.6626" lon="5.10173">
        <ele>469</ele>
        <time>2018-06-10T08:43:23Z</time>
      </trkpt>
      <trkpt lat="44.66247" lon="5.1018">
        <ele>467</ele>
        <time>2018-06-10T08:43:25Z</time>
      </trkpt>
      <trkpt lat="44.66238" lon="5.10188">
        <ele>467</ele>
        <time>2018-06-10T08:43:27Z</time>
      </trkpt>
      <trkpt lat="44.66231" lon="5.10194">
        <ele>467</ele>
        <time>2018-06-10T08:43:30Z</time>
      </trkpt>
      <trkpt lat="44.66226" lon="5.10199">
        <ele>466</ele>
        <time>2018-06-10T08:43:32Z</time>
      </trkpt>
      <trkpt lat="44.66221" lon="5.10206">
        <ele>464</ele>
        <time>2018-06-10T08:43:34Z</time>
      </trkpt>
      <trkpt lat="44.66216" lon="5.10208">
        <ele>464</ele>
        <time>2018-06-10T08:43:36Z</time>
      </trkpt>
      <trkpt lat="44.66212" lon="5.10209">
        <ele>464</ele>
        <time>2018-06-10T08:43:38Z</time>
      </trkpt>
      <trkpt lat="44.66203" lon="5.10211">
        <ele>462</ele>
        <time>2018-06-10T08:43:40Z</time>
      </trkpt>
      <trkpt lat="44.66193" lon="5.10214">
        <ele>461</ele>
        <time>2018-06-10T08:43:42Z</time>
      </trkpt>
      <trkpt lat="44.66181" lon="5.10221">
        <ele>460</ele>
        <time>2018-06-10T08:43:44Z</time>
      </trkpt>
      <trkpt lat="44.66171" lon="5.10226">
        <ele>460</ele>
        <time>2018-06-10T08:43:46Z</time>
      </trkpt>
      <trkpt lat="44.66164" lon="5.10226">
        <ele>460</ele>
        <time>2018-06-10T08:43:48Z</time>
      </trkpt>
      <trkpt lat="44.66153" lon="5.10226">
        <ele>460</ele>
        <time>2018-06-10T08:43:50Z</time>
      </trkpt>
      <trkpt lat="44.66144" lon="5.10229">
        <ele>460</ele>
        <time>2018-06-10T08:43:52Z</time>
      </trkpt>
      <trkpt lat="44.66134" lon="5.10231">
        <ele>460</ele>
        <time>2018-06-10T08:43:54Z</time>
      </trkpt>
      <trkpt lat="44.66123" lon="5.10234">
        <ele>459</ele>
        <time>2018-06-10T08:43:56Z</time>
      </trkpt>
      <trkpt lat="44.66114" lon="5.1024">
        <ele>459</ele>
        <time>2018-06-10T08:43:58Z</time>
      </trkpt>
      <trkpt lat="44.66106" lon="5.10251">
        <ele>458</ele>
        <time>2018-06-10T08:44:00Z</time>
      </trkpt>
      <trkpt lat="44.661" lon="5.10273">
        <ele>457</ele>
        <time>2018-06-10T08:44:02Z</time>
      </trkpt>
      <trkpt lat="44.66098" lon="5.10295">
        <ele>456</ele>
        <time>2018-06-10T08:44:04Z</time>
      </trkpt>
      <trkpt lat="44.66097" lon="5.10315">
        <ele>453</ele>
        <time>2018-06-10T08:44:06Z</time>
      </trkpt>
      <trkpt lat="44.66097" lon="5.10331">
        <ele>451</ele>
        <time>2018-06-10T08:44:08Z</time>
      </trkpt>
      <trkpt lat="44.6609" lon="5.10346">
        <ele>447</ele>
        <time>2018-06-10T08:44:10Z</time>
      </trkpt>
      <trkpt lat="44.66083" lon="5.1036">
        <ele>447</ele>
        <time>2018-06-10T08:44:12Z</time>
      </trkpt>
      <trkpt lat="44.66073" lon="5.10374">
        <ele>444</ele>
        <time>2018-06-10T08:44:14Z</time>
      </trkpt>
      <trkpt lat="44.66067" lon="5.1039">
        <ele>442</ele>
        <time>2018-06-10T08:44:16Z</time>
      </trkpt>
      <trkpt lat="44.6606" lon="5.10406">
        <ele>440</ele>
        <time>2018-06-10T08:44:18Z</time>
      </trkpt>
      <trkpt lat="44.66053" lon="5.10418">
        <ele>440</ele>
        <time>2018-06-10T08:44:20Z</time>
      </trkpt>
      <trkpt lat="44.66048" lon="5.10428">
        <ele>439</ele>
        <time>2018-06-10T08:44:22Z</time>
      </trkpt>
      <trkpt lat="44.66042" lon="5.10441">
        <ele>439</ele>
        <time>2018-06-10T08:44:24Z</time>
      </trkpt>
      <trkpt lat="44.66035" lon="5.1045">
        <ele>440</ele>
        <time>2018-06-10T08:44:26Z</time>
      </trkpt>
      <trkpt lat="44.66028" lon="5.1046">
        <ele>440</ele>
        <time>2018-06-10T08:44:28Z</time>
      </trkpt>
      <trkpt lat="44.66022" lon="5.1047">
        <ele>440</ele>
        <time>2018-06-10T08:44:30Z</time>
      </trkpt>
      <trkpt lat="44.66016" lon="5.10481">
        <ele>440</ele>
        <time>2018-06-10T08:44:32Z</time>
      </trkpt>
      <trkpt lat="44.66009" lon="5.10491">
        <ele>441</ele>
        <time>2018-06-10T08:44:34Z</time>
      </trkpt>
      <trkpt lat="44.66004" lon="5.10501">
        <ele>439</ele>
        <time>2018-06-10T08:44:36Z</time>
      </trkpt>
      <trkpt lat="44.66003" lon="5.10514">
        <ele>439</ele>
        <time>2018-06-10T08:44:38Z</time>
      </trkpt>
      <trkpt lat="44.66002" lon="5.10522">
        <ele>439</ele>
        <time>2018-06-10T08:44:40Z</time>
      </trkpt>
      <trkpt lat="44.66001" lon="5.1053">
        <ele>438</ele>
        <time>2018-06-10T08:44:42Z</time>
      </trkpt>
      <trkpt lat="44.66001" lon="5.10539">
        <ele>438</ele>
        <time>2018-06-10T08:44:44Z</time>
      </trkpt>
      <trkpt lat="44.66001" lon="5.1055">
        <ele>438</ele>
        <time>2018-06-10T08:44:46Z</time>
      </trkpt>
      <trkpt lat="44.65998" lon="5.10557">
        <ele>437</ele>
        <time>2018-06-10T08:44:48Z</time>
      </trkpt>
      <trkpt lat="44.65995" lon="5.10561">
        <ele>438</ele>
        <time>2018-06-10T08:44:50Z</time>
      </trkpt>
      <trkpt lat="44.65989" lon="5.10565">
        <ele>437</ele>
        <time>2018-06-10T08:44:52Z</time>
      </trkpt>
      <trkpt lat="44.65982" lon="5.10567">
        <ele>437</ele>
        <time>2018-06-10T08:44:55Z</time>
      </trkpt>
      <trkpt lat="44.65972" lon="5.10566">
        <ele>435</ele>
        <time>2018-06-10T08:44:57Z</time>
      </trkpt>
      <trkpt lat="44.65963" lon="5.10569">
        <ele>434</ele>
        <time>2018-06-10T08:44:59Z</time>
      </trkpt>
      <trkpt lat="44.65954" lon="5.10574">
        <ele>432</ele>
        <time>2018-06-10T08:45:01Z</time>
      </trkpt>
      <trkpt lat="44.65944" lon="5.10581">
        <ele>430</ele>
        <time>2018-06-10T08:45:03Z</time>
      </trkpt>
      <trkpt lat="44.65934" lon="5.10585">
        <ele>428</ele>
        <time>2018-06-10T08:45:05Z</time>
      </trkpt>
      <trkpt lat="44.65932" lon="5.10584">
        <ele>427</ele>
        <time>2018-06-10T08:45:07Z</time>
      </trkpt>
      <trkpt lat="44.6593" lon="5.10582">
        <ele>427</ele>
        <time>2018-06-10T08:45:09Z</time>
      </trkpt>
      <trkpt lat="44.65927" lon="5.10579">
        <ele>427</ele>
        <time>2018-06-10T08:45:11Z</time>
      </trkpt>
      <trkpt lat="44.65928" lon="5.10578">
        <ele>427</ele>
        <time>2018-06-10T08:45:13Z</time>
      </trkpt>
      <trkpt lat="44.65929" lon="5.10576">
        <ele>427</ele>
        <time>2018-06-10T08:45:15Z</time>
      </trkpt>
      <trkpt lat="44.65931" lon="5.10573">
        <ele>428</ele>
        <time>2018-06-10T08:45:17Z</time>
      </trkpt>
      <trkpt lat="44.65932" lon="5.1057">
        <ele>427</ele>
        <time>2018-06-10T08:45:19Z</time>
      </trkpt>
      <trkpt lat="44.65934" lon="5.10568">
        <ele>428</ele>
        <time>2018-06-10T08:45:21Z</time>
      </trkpt>
      <trkpt lat="44.65936" lon="5.10564">
        <ele>428</ele>
        <time>2018-06-10T08:45:23Z</time>
      </trkpt>
      <trkpt lat="44.65937" lon="5.1056">
        <ele>428</ele>
        <time>2018-06-10T08:45:25Z</time>
      </trkpt>
      <trkpt lat="44.65939" lon="5.10555">
        <ele>429</ele>
        <time>2018-06-10T08:45:27Z</time>
      </trkpt>
      <trkpt lat="44.65941" lon="5.10549">
        <ele>429</ele>
        <time>2018-06-10T08:45:29Z</time>
      </trkpt>
      <trkpt lat="44.65943" lon="5.10544">
        <ele>429</ele>
        <time>2018-06-10T08:45:31Z</time>
      </trkpt>
      <trkpt lat="44.65944" lon="5.10539">
        <ele>429</ele>
        <time>2018-06-10T08:45:33Z</time>
      </trkpt>
      <trkpt lat="44.65946" lon="5.10534">
        <ele>430</ele>
        <time>2018-06-10T08:45:35Z</time>
      </trkpt>
      <trkpt lat="44.65948" lon="5.10528">
        <ele>429</ele>
        <time>2018-06-10T08:45:37Z</time>
      </trkpt>
      <trkpt lat="44.6595" lon="5.10522">
        <ele>430</ele>
        <time>2018-06-10T08:45:39Z</time>
      </trkpt>
      <trkpt lat="44.65953" lon="5.10517">
        <ele>430</ele>
        <time>2018-06-10T08:45:41Z</time>
      </trkpt>
      <trkpt lat="44.65955" lon="5.10511">
        <ele>431</ele>
        <time>2018-06-10T08:45:43Z</time>
      </trkpt>
      <trkpt lat="44.65958" lon="5.10506">
        <ele>431</ele>
        <time>2018-06-10T08:45:45Z</time>
      </trkpt>
      <trkpt lat="44.65961" lon="5.10502">
        <ele>432</ele>
        <time>2018-06-10T08:45:47Z</time>
      </trkpt>
      <trkpt lat="44.65964" lon="5.10495">
        <ele>432</ele>
        <time>2018-06-10T08:45:49Z</time>
      </trkpt>
      <trkpt lat="44.65967" lon="5.10489">
        <ele>432</ele>
        <time>2018-06-10T08:45:51Z</time>
      </trkpt>
      <trkpt lat="44.6597" lon="5.10486">
        <ele>433</ele>
        <time>2018-06-10T08:45:53Z</time>
      </trkpt>
      <trkpt lat="44.65973" lon="5.10481">
        <ele>433</ele>
        <time>2018-06-10T08:45:55Z</time>
      </trkpt>
      <trkpt lat="44.65975" lon="5.10476">
        <ele>434</ele>
        <time>2018-06-10T08:45:57Z</time>
      </trkpt>
      <trkpt lat="44.6598" lon="5.10473">
        <ele>434</ele>
        <time>2018-06-10T08:45:59Z</time>
      </trkpt>
      <trkpt lat="44.65982" lon="5.10467">
        <ele>434</ele>
        <time>2018-06-10T08:46:01Z</time>
      </trkpt>
      <trkpt lat="44.65984" lon="5.10463">
        <ele>434</ele>
        <time>2018-06-10T08:46:03Z</time>
      </trkpt>
      <trkpt lat="44.65987" lon="5.10459">
        <ele>435</ele>
        <time>2018-06-10T08:46:05Z</time>
      </trkpt>
      <trkpt lat="44.65992" lon="5.10455">
        <ele>435</ele>
        <time>2018-06-10T08:46:08Z</time>
      </trkpt>
      <trkpt lat="44.65995" lon="5.1045">
        <ele>435</ele>
        <time>2018-06-10T08:46:10Z</time>
      </trkpt>
      <trkpt lat="44.66" lon="5.10444">
        <ele>435</ele>
        <time>2018-06-10T08:46:12Z</time>
      </trkpt>
      <trkpt lat="44.66003" lon="5.10438">
        <ele>435</ele>
        <time>2018-06-10T08:46:14Z</time>
      </trkpt>
      <trkpt lat="44.66006" lon="5.10433">
        <ele>436</ele>
        <time>2018-06-10T08:46:16Z</time>
      </trkpt>
      <trkpt lat="44.66009" lon="5.10426">
        <ele>436</ele>
        <time>2018-06-10T08:46:18Z</time>
      </trkpt>
      <trkpt lat="44.66012" lon="5.10419">
        <ele>436</ele>
        <time>2018-06-10T08:46:20Z</time>
      </trkpt>
      <trkpt lat="44.66016" lon="5.10414">
        <ele>436</ele>
        <time>2018-06-10T08:46:22Z</time>
      </trkpt>
      <trkpt lat="44.66018" lon="5.10409">
        <ele>437</ele>
        <time>2018-06-10T08:46:24Z</time>
      </trkpt>
      <trkpt lat="44.66022" lon="5.10398">
        <ele>437</ele>
        <time>2018-06-10T08:46:26Z</time>
      </trkpt>
      <trkpt lat="44.66024" lon="5.10391">
        <ele>437</ele>
        <time>2018-06-10T08:46:28Z</time>
      </trkpt>
      <trkpt lat="44.66028" lon="5.10385">
        <ele>438</ele>
        <time>2018-06-10T08:46:30Z</time>
      </trkpt>
      <trkpt lat="44.66031" lon="5.10378">
        <ele>438</ele>
        <time>2018-06-10T08:46:32Z</time>
      </trkpt>
      <trkpt lat="44.66033" lon="5.10372">
        <ele>438</ele>
        <time>2018-06-10T08:46:34Z</time>
      </trkpt>
      <trkpt lat="44.66034" lon="5.10365">
        <ele>439</ele>
        <time>2018-06-10T08:46:36Z</time>
      </trkpt>
      <trkpt lat="44.66037" lon="5.10357">
        <ele>439</ele>
        <time>2018-06-10T08:46:38Z</time>
      </trkpt>
      <trkpt lat="44.66038" lon="5.10348">
        <ele>439</ele>
        <time>2018-06-10T08:46:40Z</time>
      </trkpt>
      <trkpt lat="44.66038" lon="5.10342">
        <ele>439</ele>
        <time>2018-06-10T08:46:42Z</time>
      </trkpt>
      <trkpt lat="44.6604" lon="5.10334">
        <ele>440</ele>
        <time>2018-06-10T08:46:44Z</time>
      </trkpt>
      <trkpt lat="44.6604" lon="5.10327">
        <ele>441</ele>
        <time>2018-06-10T08:46:46Z</time>
      </trkpt>
      <trkpt lat="44.66041" lon="5.10321">
        <ele>441</ele>
        <time>2018-06-10T08:46:48Z</time>
      </trkpt>
      <trkpt lat="44.66042" lon="5.10315">
        <ele>441</ele>
        <time>2018-06-10T08:46:50Z</time>
      </trkpt>
      <trkpt lat="44.66042" lon="5.10309">
        <ele>441</ele>
        <time>2018-06-10T08:46:52Z</time>
      </trkpt>
      <trkpt lat="44.66043" lon="5.10304">
        <ele>441</ele>
        <time>2018-06-10T08:46:54Z</time>
      </trkpt>
      <trkpt lat="44.66041" lon="5.10297">
        <ele>442</ele>
        <time>2018-06-10T08:46:56Z</time>
      </trkpt>
      <trkpt lat="44.66041" lon="5.10291">
        <ele>442</ele>
        <time>2018-06-10T08:46:58Z</time>
      </trkpt>
      <trkpt lat="44.6604" lon="5.10283">
        <ele>443</ele>
        <time>2018-06-10T08:47:00Z</time>
      </trkpt>
      <trkpt lat="44.66041" lon="5.10277">
        <ele>443</ele>
        <time>2018-06-10T08:47:02Z</time>
      </trkpt>
      <trkpt lat="44.6604" lon="5.10269">
        <ele>443</ele>
        <time>2018-06-10T08:47:04Z</time>
      </trkpt>
      <trkpt lat="44.66041" lon="5.10264">
        <ele>444</ele>
        <time>2018-06-10T08:47:06Z</time>
      </trkpt>
      <trkpt lat="44.66042" lon="5.10258">
        <ele>444</ele>
        <time>2018-06-10T08:47:08Z</time>
      </trkpt>
      <trkpt lat="44.66045" lon="5.10252">
        <ele>445</ele>
        <time>2018-06-10T08:47:10Z</time>
      </trkpt>
      <trkpt lat="44.66047" lon="5.10246">
        <ele>445</ele>
        <time>2018-06-10T08:47:12Z</time>
      </trkpt>
      <trkpt lat="44.6605" lon="5.10242">
        <ele>446</ele>
        <time>2018-06-10T08:47:14Z</time>
      </trkpt>
      <trkpt lat="44.66053" lon="5.10238">
        <ele>446</ele>
        <time>2018-06-10T08:47:16Z</time>
      </trkpt>
      <trkpt lat="44.66055" lon="5.10234">
        <ele>447</ele>
        <time>2018-06-10T08:47:18Z</time>
      </trkpt>
      <trkpt lat="44.66058" lon="5.1023">
        <ele>447</ele>
        <time>2018-06-10T08:47:20Z</time>
      </trkpt>
      <trkpt lat="44.66062" lon="5.10226">
        <ele>447</ele>
        <time>2018-06-10T08:47:23Z</time>
      </trkpt>
      <trkpt lat="44.66066" lon="5.10223">
        <ele>447</ele>
        <time>2018-06-10T08:47:25Z</time>
      </trkpt>
      <trkpt lat="44.66069" lon="5.10219">
        <ele>448</ele>
        <time>2018-06-10T08:47:27Z</time>
      </trkpt>
      <trkpt lat="44.66073" lon="5.10214">
        <ele>448</ele>
        <time>2018-06-10T08:47:29Z</time>
      </trkpt>
      <trkpt lat="44.66077" lon="5.1021">
        <ele>448</ele>
        <time>2018-06-10T08:47:31Z</time>
      </trkpt>
      <trkpt lat="44.66081" lon="5.10207">
        <ele>449</ele>
        <time>2018-06-10T08:47:33Z</time>
      </trkpt>
      <trkpt lat="44.66084" lon="5.10205">
        <ele>448</ele>
        <time>2018-06-10T08:47:35Z</time>
      </trkpt>
      <trkpt lat="44.66089" lon="5.10202">
        <ele>449</ele>
        <time>2018-06-10T08:47:37Z</time>
      </trkpt>
      <trkpt lat="44.66092" lon="5.10201">
        <ele>449</ele>
        <time>2018-06-10T08:47:39Z</time>
      </trkpt>
      <trkpt lat="44.66097" lon="5.102">
        <ele>449</ele>
        <time>2018-06-10T08:47:41Z</time>
      </trkpt>
      <trkpt lat="44.661" lon="5.10199">
        <ele>450</ele>
        <time>2018-06-10T08:47:43Z</time>
      </trkpt>
      <trkpt lat="44.66104" lon="5.10198">
        <ele>450</ele>
        <time>2018-06-10T08:47:45Z</time>
      </trkpt>
      <trkpt lat="44.66109" lon="5.10197">
        <ele>450</ele>
        <time>2018-06-10T08:47:47Z</time>
      </trkpt>
      <trkpt lat="44.66113" lon="5.10195">
        <ele>451</ele>
        <time>2018-06-10T08:47:49Z</time>
      </trkpt>
      <trkpt lat="44.66116" lon="5.10193">
        <ele>451</ele>
        <time>2018-06-10T08:47:51Z</time>
      </trkpt>
      <trkpt lat="44.6612" lon="5.1019">
        <ele>451</ele>
        <time>2018-06-10T08:47:53Z</time>
      </trkpt>
      <trkpt lat="44.66124" lon="5.10188">
        <ele>451</ele>
        <time>2018-06-10T08:47:55Z</time>
      </trkpt>
      <trkpt lat="44.66128" lon="5.10185">
        <ele>452</ele>
        <time>2018-06-10T08:47:57Z</time>
      </trkpt>
      <trkpt lat="44.66131" lon="5.10184">
        <ele>452</ele>
        <time>2018-06-10T08:47:59Z</time>
      </trkpt>
      <trkpt lat="44.66136" lon="5.10181">
        <ele>453</ele>
        <time>2018-06-10T08:48:01Z</time>
      </trkpt>
      <trkpt lat="44.66141" lon="5.10177">
        <ele>453</ele>
        <time>2018-06-10T08:48:03Z</time>
      </trkpt>
      <trkpt lat="44.66144" lon="5.10176">
        <ele>453</ele>
        <time>2018-06-10T08:48:05Z</time>
      </trkpt>
      <trkpt lat="44.66148" lon="5.10175">
        <ele>453</ele>
        <time>2018-06-10T08:48:07Z</time>
      </trkpt>
      <trkpt lat="44.66152" lon="5.10173">
        <ele>453</ele>
        <time>2018-06-10T08:48:09Z</time>
      </trkpt>
      <trkpt lat="44.66157" lon="5.10173">
        <ele>454</ele>
        <time>2018-06-10T08:48:11Z</time>
      </trkpt>
      <trkpt lat="44.66161" lon="5.10172">
        <ele>454</ele>
        <time>2018-06-10T08:48:13Z</time>
      </trkpt>
      <trkpt lat="44.66166" lon="5.10169">
        <ele>454</ele>
        <time>2018-06-10T08:48:15Z</time>
      </trkpt>
      <trkpt lat="44.6617" lon="5.10168">
        <ele>455</ele>
        <time>2018-06-10T08:48:17Z</time>
      </trkpt>
      <trkpt lat="44.66174" lon="5.10166">
        <ele>455</ele>
        <time>2018-06-10T08:48:19Z</time>
      </trkpt>
      <trkpt lat="44.66178" lon="5.10163">
        <ele>455</ele>
        <time>2018-06-10T08:48:22Z</time>
      </trkpt>
      <trkpt lat="44.6618" lon="5.10161">
        <ele>456</ele>
        <time>2018-06-10T08:48:24Z</time>
      </trkpt>
      <trkpt lat="44.66184" lon="5.10157">
        <ele>456</ele>
        <time>2018-06-10T08:48:26Z</time>
      </trkpt>
      <trkpt lat="44.66189" lon="5.10154">
        <ele>456</ele>
        <time>2018-06-10T08:48:28Z</time>
      </trkpt>
      <trkpt lat="44.66193" lon="5.1015">
        <ele>456</ele>
        <time>2018-06-10T08:48:30Z</time>
      </trkpt>
      <trkpt lat="44.66197" lon="5.10146">
        <ele>456</ele>
        <time>2018-06-10T08:48:32Z</time>
      </trkpt>
      <trkpt lat="44.66201" lon="5.10144">
        <ele>457</ele>
        <time>2018-06-10T08:48:34Z</time>
      </trkpt>
      <trkpt lat="44.66203" lon="5.10141">
        <ele>457</ele>
        <time>2018-06-10T08:48:36Z</time>
      </trkpt>
      <trkpt lat="44.66205" lon="5.10138">
        <ele>457</ele>
        <time>2018-06-10T08:48:38Z</time>
      </trkpt>
      <trkpt lat="44.6621" lon="5.10135">
        <ele>457</ele>
        <time>2018-06-10T08:48:40Z</time>
      </trkpt>
      <trkpt lat="44.66214" lon="5.10131">
        <ele>457</ele>
        <time>2018-06-10T08:48:42Z</time>
      </trkpt>
      <trkpt lat="44.66219" lon="5.10129">
        <ele>458</ele>
        <time>2018-06-10T08:48:44Z</time>
      </trkpt>
      <trkpt lat="44.66224" lon="5.10125">
        <ele>458</ele>
        <time>2018-06-10T08:48:46Z</time>
      </trkpt>
      <trkpt lat="44.6623" lon="5.1012">
        <ele>458</ele>
        <time>2018-06-10T08:48:48Z</time>
      </trkpt>
      <trkpt lat="44.66234" lon="5.10118">
        <ele>459</ele>
        <time>2018-06-10T08:48:50Z</time>
      </trkpt>
      <trkpt lat="44.66238" lon="5.10115">
        <ele>459</ele>
        <time>2018-06-10T08:48:52Z</time>
      </trkpt>
      <trkpt lat="44.66242" lon="5.10111">
        <ele>459</ele>
        <time>2018-06-10T08:48:54Z</time>
      </trkpt>
      <trkpt lat="44.66247" lon="5.10109">
        <ele>460</ele>
        <time>2018-06-10T08:48:56Z</time>
      </trkpt>
      <trkpt lat="44.66251" lon="5.10105">
        <ele>460</ele>
        <time>2018-06-10T08:48:58Z</time>
      </trkpt>
      <trkpt lat="44.66255" lon="5.10103">
        <ele>460</ele>
        <time>2018-06-10T08:49:00Z</time>
      </trkpt>
      <trkpt lat="44.66258" lon="5.10101">
        <ele>460</ele>
        <time>2018-06-10T08:49:02Z</time>
      </trkpt>
      <trkpt lat="44.66261" lon="5.10099">
        <ele>460</ele>
        <time>2018-06-10T08:49:04Z</time>
      </trkpt>
      <trkpt lat="44.66264" lon="5.10095">
        <ele>460</ele>
        <time>2018-06-10T08:49:06Z</time>
      </trkpt>
      <trkpt lat="44.66268" lon="5.10093">
        <ele>461</ele>
        <time>2018-06-10T08:49:08Z</time>
      </trkpt>
      <trkpt lat="44.66272" lon="5.10089">
        <ele>461</ele>
        <time>2018-06-10T08:49:10Z</time>
      </trkpt>
      <trkpt lat="44.66275" lon="5.10084">
        <ele>461</ele>
        <time>2018-06-10T08:49:12Z</time>
      </trkpt>
      <trkpt lat="44.66279" lon="5.1008">
        <ele>461</ele>
        <time>2018-06-10T08:49:14Z</time>
      </trkpt>
      <trkpt lat="44.66283" lon="5.10078">
        <ele>462</ele>
        <time>2018-06-10T08:49:16Z</time>
      </trkpt>
      <trkpt lat="44.66287" lon="5.10075">
        <ele>462</ele>
        <time>2018-06-10T08:49:19Z</time>
      </trkpt>
      <trkpt lat="44.66291" lon="5.10073">
        <ele>463</ele>
        <time>2018-06-10T08:49:21Z</time>
      </trkpt>
      <trkpt lat="44.66294" lon="5.10071">
        <ele>463</ele>
        <time>2018-06-10T08:49:23Z</time>
      </trkpt>
      <trkpt lat="44.663" lon="5.10068">
        <ele>463</ele>
        <time>2018-06-10T08:49:25Z</time>
      </trkpt>
      <trkpt lat="44.66305" lon="5.10068">
        <ele>464</ele>
        <time>2018-06-10T08:49:27Z</time>
      </trkpt>
      <trkpt lat="44.66308" lon="5.10067">
        <ele>464</ele>
        <time>2018-06-10T08:49:29Z</time>
      </trkpt>
      <trkpt lat="44.66312" lon="5.10068">
        <ele>464</ele>
        <time>2018-06-10T08:49:31Z</time>
      </trkpt>
      <trkpt lat="44.66317" lon="5.1007">
        <ele>465</ele>
        <time>2018-06-10T08:49:33Z</time>
      </trkpt>
      <trkpt lat="44.66322" lon="5.10071">
        <ele>465</ele>
        <time>2018-06-10T08:49:35Z</time>
      </trkpt>
      <trkpt lat="44.66327" lon="5.10072">
        <ele>465</ele>
        <time>2018-06-10T08:49:37Z</time>
      </trkpt>
      <trkpt lat="44.6633" lon="5.10073">
        <ele>465</ele>
        <time>2018-06-10T08:49:39Z</time>
      </trkpt>
      <trkpt lat="44.66333" lon="5.10074">
        <ele>466</ele>
        <time>2018-06-10T08:49:41Z</time>
      </trkpt>
      <trkpt lat="44.66337" lon="5.10075">
        <ele>466</ele>
        <time>2018-06-10T08:49:43Z</time>
      </trkpt>
      <trkpt lat="44.66342" lon="5.10076">
        <ele>467</ele>
        <time>2018-06-10T08:49:45Z</time>
      </trkpt>
      <trkpt lat="44.66348" lon="5.10076">
        <ele>467</ele>
        <time>2018-06-10T08:49:47Z</time>
      </trkpt>
      <trkpt lat="44.66351" lon="5.10077">
        <ele>467</ele>
        <time>2018-06-10T08:49:49Z</time>
      </trkpt>
      <trkpt lat="44.66355" lon="5.10075">
        <ele>467</ele>
        <time>2018-06-10T08:49:51Z</time>
      </trkpt>
      <trkpt lat="44.66361" lon="5.10073">
        <ele>468</ele>
        <time>2018-06-10T08:49:53Z</time>
      </trkpt>
      <trkpt lat="44.66366" lon="5.10069">
        <ele>468</ele>
        <time>2018-06-10T08:49:55Z</time>
      </trkpt>
      <trkpt lat="44.66371" lon="5.10064">
        <ele>469</ele>
        <time>2018-06-10T08:49:57Z</time>
      </trkpt>
      <trkpt lat="44.66375" lon="5.1006">
        <ele>468</ele>
        <time>2018-06-10T08:49:59Z</time>
      </trkpt>
      <trkpt lat="44.66378" lon="5.10056">
        <ele>468</ele>
        <time>2018-06-10T08:50:01Z</time>
      </trkpt>
      <trkpt lat="44.66382" lon="5.10052">
        <ele>469</ele>
        <time>2018-06-10T08:50:03Z</time>
      </trkpt>
      <trkpt lat="44.66386" lon="5.10045">
        <ele>469</ele>
        <time>2018-06-10T08:50:05Z</time>
      </trkpt>
      <trkpt lat="44.66389" lon="5.1004">
        <ele>469</ele>
        <time>2018-06-10T08:50:07Z</time>
      </trkpt>
      <trkpt lat="44.66393" lon="5.10037">
        <ele>470</ele>
        <time>2018-06-10T08:50:09Z</time>
      </trkpt>
      <trkpt lat="44.66397" lon="5.10034">
        <ele>470</ele>
        <time>2018-06-10T08:50:11Z</time>
      </trkpt>
      <trkpt lat="44.664" lon="5.1003">
        <ele>470</ele>
        <time>2018-06-10T08:50:13Z</time>
      </trkpt>
      <trkpt lat="44.66403" lon="5.10027">
        <ele>470</ele>
        <time>2018-06-10T08:50:15Z</time>
      </trkpt>
      <trkpt lat="44.66409" lon="5.10022">
        <ele>470</ele>
        <time>2018-06-10T08:50:18Z</time>
      </trkpt>
      <trkpt lat="44.66413" lon="5.10017">
        <ele>471</ele>
        <time>2018-06-10T08:50:20Z</time>
      </trkpt>
      <trkpt lat="44.66417" lon="5.1001">
        <ele>471</ele>
        <time>2018-06-10T08:50:22Z</time>
      </trkpt>
      <trkpt lat="44.6642" lon="5.10004">
        <ele>471</ele>
        <time>2018-06-10T08:50:24Z</time>
      </trkpt>
      <trkpt lat="44.6642" lon="5.1">
        <ele>471</ele>
        <time>2018-06-10T08:50:26Z</time>
      </trkpt>
      <trkpt lat="44.66418" lon="5.1">
        <ele>470</ele>
        <time>2018-06-10T08:50:28Z</time>
      </trkpt>
      <trkpt lat="44.66411" lon="5.10007">
        <ele>470</ele>
        <time>2018-06-10T08:50:30Z</time>
      </trkpt>
      <trkpt lat="44.66403" lon="5.10015">
        <ele>468</ele>
        <time>2018-06-10T08:50:32Z</time>
      </trkpt>
      <trkpt lat="44.66396" lon="5.10022">
        <ele>468</ele>
        <time>2018-06-10T08:50:34Z</time>
      </trkpt>
      <trkpt lat="44.66384" lon="5.10037">
        <ele>466</ele>
        <time>2018-06-10T08:50:36Z</time>
      </trkpt>
      <trkpt lat="44.66383" lon="5.10048">
        <ele>465</ele>
        <time>2018-06-10T08:50:38Z</time>
      </trkpt>
      <trkpt lat="44.66379" lon="5.10052">
        <ele>465</ele>
        <time>2018-06-10T08:50:40Z</time>
      </trkpt>
      <trkpt lat="44.66372" lon="5.10056">
        <ele>463</ele>
        <time>2018-06-10T08:50:42Z</time>
      </trkpt>
      <trkpt lat="44.66363" lon="5.10059">
        <ele>462</ele>
        <time>2018-06-10T08:50:44Z</time>
      </trkpt>
      <trkpt lat="44.66357" lon="5.1006">
        <ele>461</ele>
        <time>2018-06-10T08:50:46Z</time>
      </trkpt>
      <trkpt lat="44.66352" lon="5.10059">
        <ele>459</ele>
        <time>2018-06-10T08:50:48Z</time>
      </trkpt>
      <trkpt lat="44.66347" lon="5.1006">
        <ele>458</ele>
        <time>2018-06-10T08:50:50Z</time>
      </trkpt>
      <trkpt lat="44.66343" lon="5.10057">
        <ele>457</ele>
        <time>2018-06-10T08:50:52Z</time>
      </trkpt>
      <trkpt lat="44.66338" lon="5.10057">
        <ele>457</ele>
        <time>2018-06-10T08:50:54Z</time>
      </trkpt>
      <trkpt lat="44.66333" lon="5.10056">
        <ele>457</ele>
        <time>2018-06-10T08:50:56Z</time>
      </trkpt>
      <trkpt lat="44.66328" lon="5.10052">
        <ele>456</ele>
        <time>2018-06-10T08:50:58Z</time>
      </trkpt>
      <trkpt lat="44.66322" lon="5.10052">
        <ele>457</ele>
        <time>2018-06-10T08:51:00Z</time>
      </trkpt>
      <trkpt lat="44.66316" lon="5.1005">
        <ele>456</ele>
        <time>2018-06-10T08:51:02Z</time>
      </trkpt>
      <trkpt lat="44.66308" lon="5.10051">
        <ele>455</ele>
        <time>2018-06-10T08:51:04Z</time>
      </trkpt>
      <trkpt lat="44.66299" lon="5.10052">
        <ele>454</ele>
        <time>2018-06-10T08:51:06Z</time>
      </trkpt>
      <trkpt lat="44.66294" lon="5.10058">
        <ele>454</ele>
        <time>2018-06-10T08:51:08Z</time>
      </trkpt>
      <trkpt lat="44.66291" lon="5.10069">
        <ele>453</ele>
        <time>2018-06-10T08:51:10Z</time>
      </trkpt>
      <trkpt lat="44.66286" lon="5.10077">
        <ele>453</ele>
        <time>2018-06-10T08:51:12Z</time>
      </trkpt>
      <trkpt lat="44.66275" lon="5.10078">
        <ele>450</ele>
        <time>2018-06-10T08:51:15Z</time>
      </trkpt>
      <trkpt lat="44.66263" lon="5.10081">
        <ele>450</ele>
        <time>2018-06-10T08:51:17Z</time>
      </trkpt>
      <trkpt lat="44.66252" lon="5.10086">
        <ele>447</ele>
        <time>2018-06-10T08:51:19Z</time>
      </trkpt>
      <trkpt lat="44.66238" lon="5.10088">
        <ele>446</ele>
        <time>2018-06-10T08:51:21Z</time>
      </trkpt>
      <trkpt lat="44.66231" lon="5.10089">
        <ele>445</ele>
        <time>2018-06-10T08:51:23Z</time>
      </trkpt>
      <trkpt lat="44.66228" lon="5.10087">
        <ele>444</ele>
        <time>2018-06-10T08:51:25Z</time>
      </trkpt>
      <trkpt lat="44.66229" lon="5.10082">
        <ele>443</ele>
        <time>2018-06-10T08:51:27Z</time>
      </trkpt>
      <trkpt lat="44.66229" lon="5.10071">
        <ele>442</ele>
        <time>2018-06-10T08:51:29Z</time>
      </trkpt>
      <trkpt lat="44.66229" lon="5.10058">
        <ele>439</ele>
        <time>2018-06-10T08:51:31Z</time>
      </trkpt>
      <trkpt lat="44.66232" lon="5.10043">
        <ele>437</ele>
        <time>2018-06-10T08:51:33Z</time>
      </trkpt>
      <trkpt lat="44.66234" lon="5.10023">
        <ele>435</ele>
        <time>2018-06-10T08:51:35Z</time>
      </trkpt>
      <trkpt lat="44.66238" lon="5.09999">
        <ele>433</ele>
        <time>2018-06-10T08:51:37Z</time>
      </trkpt>
      <trkpt lat="44.66242" lon="5.09993">
        <ele>432</ele>
        <time>2018-06-10T08:51:39Z</time>
      </trkpt>
      <trkpt lat="44.66245" lon="5.09987">
        <ele>432</ele>
        <time>2018-06-10T08:51:41Z</time>
      </trkpt>
      <trkpt lat="44.66246" lon="5.09979">
        <ele>432</ele>
        <time>2018-06-10T08:51:43Z</time>
      </trkpt>
      <trkpt lat="44.66243" lon="5.09972">
        <ele>432</ele>
        <time>2018-06-10T08:51:45Z</time>
      </trkpt>
      <trkpt lat="44.66238" lon="5.09965">
        <ele>432</ele>
        <time>2018-06-10T08:51:47Z</time>
      </trkpt>
      <trkpt lat="44.66232" lon="5.09957">
        <ele>431</ele>
        <time>2018-06-10T08:51:49Z</time>
      </trkpt>
      <trkpt lat="44.66226" lon="5.09952">
        <ele>430</ele>
        <time>2018-06-10T08:51:51Z</time>
      </trkpt>
      <trkpt lat="44.66216" lon="5.09949">
        <ele>428</ele>
        <time>2018-06-10T08:51:53Z</time>
      </trkpt>
      <trkpt lat="44.66206" lon="5.09949">
        <ele>427</ele>
        <time>2018-06-10T08:51:55Z</time>
      </trkpt>
      <trkpt lat="44.66191" lon="5.09943">
        <ele>423</ele>
        <time>2018-06-10T08:51:57Z</time>
      </trkpt>
      <trkpt lat="44.66176" lon="5.09936">
        <ele>420</ele>
        <time>2018-06-10T08:51:59Z</time>
      </trkpt>
      <trkpt lat="44.66159" lon="5.09938">
        <ele>418</ele>
        <time>2018-06-10T08:52:01Z</time>
      </trkpt>
      <trkpt lat="44.66142" lon="5.09942">
        <ele>417</ele>
        <time>2018-06-10T08:52:03Z</time>
      </trkpt>
      <trkpt lat="44.66124" lon="5.09948">
        <ele>414</ele>
        <time>2018-06-10T08:52:05Z</time>
      </trkpt>
      <trkpt lat="44.66106" lon="5.09946">
        <ele>411</ele>
        <time>2018-06-10T08:52:07Z</time>
      </trkpt>
      <trkpt lat="44.6609" lon="5.09943">
        <ele>411</ele>
        <time>2018-06-10T08:52:09Z</time>
      </trkpt>
      <trkpt lat="44.66075" lon="5.09941">
        <ele>410</ele>
        <time>2018-06-10T08:52:11Z</time>
      </trkpt>
      <trkpt lat="44.66061" lon="5.09944">
        <ele>408</ele>
        <time>2018-06-10T08:52:13Z</time>
      </trkpt>
      <trkpt lat="44.66046" lon="5.09948">
        <ele>408</ele>
        <time>2018-06-10T08:52:15Z</time>
      </trkpt>
      <trkpt lat="44.66036" lon="5.09949">
        <ele>407</ele>
        <time>2018-06-10T08:52:17Z</time>
      </trkpt>
      <trkpt lat="44.66024" lon="5.0995">
        <ele>407</ele>
        <time>2018-06-10T08:52:20Z</time>
      </trkpt>
      <trkpt lat="44.66011" lon="5.09951">
        <ele>406</ele>
        <time>2018-06-10T08:52:22Z</time>
      </trkpt>
      <trkpt lat="44.65994" lon="5.09945">
        <ele>405</ele>
        <time>2018-06-10T08:52:24Z</time>
      </trkpt>
      <trkpt lat="44.65989" lon="5.09938">
        <ele>405</ele>
        <time>2018-06-10T08:52:26Z</time>
      </trkpt>
      <trkpt lat="44.65988" lon="5.09933">
        <ele>404</ele>
        <time>2018-06-10T08:52:28Z</time>
      </trkpt>
      <trkpt lat="44.65988" lon="5.09926">
        <ele>404</ele>
        <time>2018-06-10T08:52:30Z</time>
      </trkpt>
      <trkpt lat="44.65989" lon="5.09918">
        <ele>405</ele>
        <time>2018-06-10T08:52:32Z</time>
      </trkpt>
      <trkpt lat="44.6599" lon="5.09908">
        <ele>405</ele>
        <time>2018-06-10T08:52:34Z</time>
      </trkpt>
      <trkpt lat="44.6599" lon="5.09896">
        <ele>404</ele>
        <time>2018-06-10T08:52:36Z</time>
      </trkpt>
      <trkpt lat="44.65991" lon="5.09883">
        <ele>404</ele>
        <time>2018-06-10T08:52:38Z</time>
      </trkpt>
      <trkpt lat="44.65992" lon="5.09868">
        <ele>404</ele>
        <time>2018-06-10T08:52:40Z</time>
      </trkpt>
      <trkpt lat="44.65994" lon="5.09853">
        <ele>404</ele>
        <time>2018-06-10T08:52:42Z</time>
      </trkpt>
      <trkpt lat="44.65998" lon="5.09839">
        <ele>404</ele>
        <time>2018-06-10T08:52:44Z</time>
      </trkpt>
      <trkpt lat="44.66003" lon="5.09825">
        <ele>403</ele>
        <time>2018-06-10T08:52:46Z</time>
      </trkpt>
      <trkpt lat="44.66007" lon="5.0981">
        <ele>403</ele>
        <time>2018-06-10T08:52:48Z</time>
      </trkpt>
      <trkpt lat="44.66012" lon="5.09797">
        <ele>403</ele>
        <time>2018-06-10T08:52:50Z</time>
      </trkpt>
      <trkpt lat="44.66019" lon="5.09785">
        <ele>404</ele>
        <time>2018-06-10T08:52:52Z</time>
      </trkpt>
      <trkpt lat="44.66023" lon="5.09773">
        <ele>403</ele>
        <time>2018-06-10T08:52:54Z</time>
      </trkpt>
      <trkpt lat="44.66026" lon="5.09759">
        <ele>403</ele>
        <time>2018-06-10T08:52:56Z</time>
      </trkpt>
      <trkpt lat="44.66029" lon="5.09744">
        <ele>403</ele>
        <time>2018-06-10T08:52:58Z</time>
      </trkpt>
      <trkpt lat="44.66031" lon="5.09729">
        <ele>404</ele>
        <time>2018-06-10T08:53:00Z</time>
      </trkpt>
      <trkpt lat="44.66036" lon="5.09715">
        <ele>404</ele>
        <time>2018-06-10T08:53:02Z</time>
      </trkpt>
      <trkpt lat="44.66039" lon="5.097">
        <ele>404</ele>
        <time>2018-06-10T08:53:04Z</time>
      </trkpt>
      <trkpt lat="44.66043" lon="5.09684">
        <ele>404</ele>
        <time>2018-06-10T08:53:06Z</time>
      </trkpt>
      <trkpt lat="44.66047" lon="5.0967">
        <ele>404</ele>
        <time>2018-06-10T08:53:08Z</time>
      </trkpt>
      <trkpt lat="44.66051" lon="5.09656">
        <ele>404</ele>
        <time>2018-06-10T08:53:10Z</time>
      </trkpt>
      <trkpt lat="44.66055" lon="5.09642">
        <ele>405</ele>
        <time>2018-06-10T08:53:12Z</time>
      </trkpt>
      <trkpt lat="44.66058" lon="5.09627">
        <ele>405</ele>
        <time>2018-06-10T08:53:15Z</time>
      </trkpt>
      <trkpt lat="44.6606" lon="5.09612">
        <ele>405</ele>
        <time>2018-06-10T08:53:17Z</time>
      </trkpt>
      <trkpt lat="44.66062" lon="5.09596">
        <ele>405</ele>
        <time>2018-06-10T08:53:19Z</time>
      </trkpt>
      <trkpt lat="44.66064" lon="5.09581">
        <ele>405</ele>
        <time>2018-06-10T08:53:21Z</time>
      </trkpt>
      <trkpt lat="44.66067" lon="5.09565">
        <ele>405</ele>
        <time>2018-06-10T08:53:23Z</time>
      </trkpt>
      <trkpt lat="44.6607" lon="5.09549">
        <ele>405</ele>
        <time>2018-06-10T08:53:25Z</time>
      </trkpt>
      <trkpt lat="44.66073" lon="5.09535">
        <ele>405</ele>
        <time>2018-06-10T08:53:27Z</time>
      </trkpt>
      <trkpt lat="44.66077" lon="5.09524">
        <ele>406</ele>
        <time>2018-06-10T08:53:29Z</time>
      </trkpt>
      <trkpt lat="44.66079" lon="5.09514">
        <ele>406</ele>
        <time>2018-06-10T08:53:31Z</time>
      </trkpt>
      <trkpt lat="44.66084" lon="5.09498">
        <ele>406</ele>
        <time>2018-06-10T08:53:33Z</time>
      </trkpt>
      <trkpt lat="44.66088" lon="5.09488">
        <ele>407</ele>
        <time>2018-06-10T08:53:35Z</time>
      </trkpt>
      <trkpt lat="44.66091" lon="5.0948">
        <ele>407</ele>
        <time>2018-06-10T08:53:37Z</time>
      </trkpt>
      <trkpt lat="44.66093" lon="5.0947">
        <ele>407</ele>
        <time>2018-06-10T08:53:39Z</time>
      </trkpt>
      <trkpt lat="44.66096" lon="5.09462">
        <ele>407</ele>
        <time>2018-06-10T08:53:41Z</time>
      </trkpt>
      <trkpt lat="44.66099" lon="5.09455">
        <ele>407</ele>
        <time>2018-06-10T08:53:43Z</time>
      </trkpt>
      <trkpt lat="44.661" lon="5.09444">
        <ele>407</ele>
        <time>2018-06-10T08:53:45Z</time>
      </trkpt>
      <trkpt lat="44.66102" lon="5.09432">
        <ele>407</ele>
        <time>2018-06-10T08:53:47Z</time>
      </trkpt>
      <trkpt lat="44.66107" lon="5.0942">
        <ele>407</ele>
        <time>2018-06-10T08:53:49Z</time>
      </trkpt>
      <trkpt lat="44.66108" lon="5.09409">
        <ele>407</ele>
        <time>2018-06-10T08:53:51Z</time>
      </trkpt>
      <trkpt lat="44.66112" lon="5.094">
        <ele>407</ele>
        <time>2018-06-10T08:53:53Z</time>
      </trkpt>
      <trkpt lat="44.66114" lon="5.09391">
        <ele>407</ele>
        <time>2018-06-10T08:53:55Z</time>
      </trkpt>
      <trkpt lat="44.66117" lon="5.0938">
        <ele>407</ele>
        <time>2018-06-10T08:53:57Z</time>
      </trkpt>
      <trkpt lat="44.66119" lon="5.09366">
        <ele>407</ele>
        <time>2018-06-10T08:53:59Z</time>
      </trkpt>
      <trkpt lat="44.66121" lon="5.09357">
        <ele>407</ele>
        <time>2018-06-10T08:54:01Z</time>
      </trkpt>
      <trkpt lat="44.66125" lon="5.09342">
        <ele>408</ele>
        <time>2018-06-10T08:54:03Z</time>
      </trkpt>
      <trkpt lat="44.66127" lon="5.09329">
        <ele>408</ele>
        <time>2018-06-10T08:54:05Z</time>
      </trkpt>
      <trkpt lat="44.66128" lon="5.09318">
        <ele>408</ele>
        <time>2018-06-10T08:54:07Z</time>
      </trkpt>
      <trkpt lat="44.66127" lon="5.09306">
        <ele>408</ele>
        <time>2018-06-10T08:54:09Z</time>
      </trkpt>
      <trkpt lat="44.66127" lon="5.09296">
        <ele>409</ele>
        <time>2018-06-10T08:54:12Z</time>
      </trkpt>
      <trkpt lat="44.66131" lon="5.09286">
        <ele>409</ele>
        <time>2018-06-10T08:54:14Z</time>
      </trkpt>
      <trkpt lat="44.66131" lon="5.09274">
        <ele>409</ele>
        <time>2018-06-10T08:54:16Z</time>
      </trkpt>
      <trkpt lat="44.6613" lon="5.09261">
        <ele>409</ele>
        <time>2018-06-10T08:54:18Z</time>
      </trkpt>
      <trkpt lat="44.66131" lon="5.09247">
        <ele>409</ele>
        <time>2018-06-10T08:54:20Z</time>
      </trkpt>
      <trkpt lat="44.66132" lon="5.09235">
        <ele>409</ele>
        <time>2018-06-10T08:54:22Z</time>
      </trkpt>
      <trkpt lat="44.6613" lon="5.09222">
        <ele>409</ele>
        <time>2018-06-10T08:54:24Z</time>
      </trkpt>
      <trkpt lat="44.6613" lon="5.0921">
        <ele>410</ele>
        <time>2018-06-10T08:54:26Z</time>
      </trkpt>
      <trkpt lat="44.66128" lon="5.092">
        <ele>410</ele>
        <time>2018-06-10T08:54:28Z</time>
      </trkpt>
      <trkpt lat="44.66128" lon="5.09188">
        <ele>410</ele>
        <time>2018-06-10T08:54:30Z</time>
      </trkpt>
      <trkpt lat="44.66126" lon="5.09181">
        <ele>410</ele>
        <time>2018-06-10T08:54:32Z</time>
      </trkpt>
      <trkpt lat="44.66125" lon="5.09173">
        <ele>411</ele>
        <time>2018-06-10T08:54:34Z</time>
      </trkpt>
      <trkpt lat="44.6612" lon="5.09163">
        <ele>411</ele>
        <time>2018-06-10T08:54:36Z</time>
      </trkpt>
      <trkpt lat="44.66119" lon="5.09154">
        <ele>411</ele>
        <time>2018-06-10T08:54:38Z</time>
      </trkpt>
      <trkpt lat="44.66119" lon="5.09147">
        <ele>411</ele>
        <time>2018-06-10T08:54:40Z</time>
      </trkpt>
      <trkpt lat="44.66119" lon="5.0914">
        <ele>411</ele>
        <time>2018-06-10T08:54:42Z</time>
      </trkpt>
      <trkpt lat="44.66118" lon="5.09131">
        <ele>412</ele>
        <time>2018-06-10T08:54:44Z</time>
      </trkpt>
      <trkpt lat="44.66118" lon="5.09122">
        <ele>412</ele>
        <time>2018-06-10T08:54:46Z</time>
      </trkpt>
      <trkpt lat="44.66119" lon="5.09111">
        <ele>412</ele>
        <time>2018-06-10T08:54:48Z</time>
      </trkpt>
      <trkpt lat="44.66122" lon="5.09103">
        <ele>413</ele>
        <time>2018-06-10T08:54:50Z</time>
      </trkpt>
      <trkpt lat="44.66123" lon="5.09093">
        <ele>413</ele>
        <time>2018-06-10T08:54:52Z</time>
      </trkpt>
      <trkpt lat="44.66124" lon="5.09083">
        <ele>413</ele>
        <time>2018-06-10T08:54:54Z</time>
      </trkpt>
      <trkpt lat="44.66125" lon="5.09073">
        <ele>413</ele>
        <time>2018-06-10T08:54:56Z</time>
      </trkpt>
      <trkpt lat="44.66123" lon="5.09061">
        <ele>413</ele>
        <time>2018-06-10T08:54:58Z</time>
      </trkpt>
      <trkpt lat="44.66123" lon="5.09049">
        <ele>413</ele>
        <time>2018-06-10T08:55:00Z</time>
      </trkpt>
      <trkpt lat="44.66123" lon="5.09038">
        <ele>413</ele>
        <time>2018-06-10T08:55:02Z</time>
      </trkpt>
      <trkpt lat="44.66123" lon="5.09027">
        <ele>414</ele>
        <time>2018-06-10T08:55:04Z</time>
      </trkpt>
      <trkpt lat="44.66124" lon="5.09018">
        <ele>413</ele>
        <time>2018-06-10T08:55:06Z</time>
      </trkpt>
      <trkpt lat="44.66123" lon="5.09008">
        <ele>414</ele>
        <time>2018-06-10T08:55:08Z</time>
      </trkpt>
      <trkpt lat="44.66122" lon="5.09">
        <ele>414</ele>
        <time>2018-06-10T08:55:10Z</time>
      </trkpt>
      <trkpt lat="44.66122" lon="5.08986">
        <ele>414</ele>
        <time>2018-06-10T08:55:12Z</time>
      </trkpt>
      <trkpt lat="44.66124" lon="5.08971">
        <ele>414</ele>
        <time>2018-06-10T08:55:14Z</time>
      </trkpt>
      <trkpt lat="44.66126" lon="5.08961">
        <ele>414</ele>
        <time>2018-06-10T08:55:17Z</time>
      </trkpt>
      <trkpt lat="44.66126" lon="5.08951">
        <ele>414</ele>
        <time>2018-06-10T08:55:19Z</time>
      </trkpt>
      <trkpt lat="44.66126" lon="5.08941">
        <ele>414</ele>
        <time>2018-06-10T08:55:21Z</time>
      </trkpt>
      <trkpt lat="44.66127" lon="5.08934">
        <ele>414</ele>
        <time>2018-06-10T08:55:23Z</time>
      </trkpt>
      <trkpt lat="44.66127" lon="5.08923">
        <ele>414</ele>
        <time>2018-06-10T08:55:25Z</time>
      </trkpt>
      <trkpt lat="44.66127" lon="5.08908">
        <ele>414</ele>
        <time>2018-06-10T08:55:27Z</time>
      </trkpt>
      <trkpt lat="44.66126" lon="5.08898">
        <ele>415</ele>
        <time>2018-06-10T08:55:29Z</time>
      </trkpt>
      <trkpt lat="44.66125" lon="5.08888">
        <ele>415</ele>
        <time>2018-06-10T08:55:31Z</time>
      </trkpt>
      <trkpt lat="44.66124" lon="5.08877">
        <ele>415</ele>
        <time>2018-06-10T08:55:33Z</time>
      </trkpt>
      <trkpt lat="44.66125" lon="5.08866">
        <ele>415</ele>
        <time>2018-06-10T08:55:35Z</time>
      </trkpt>
      <trkpt lat="44.66124" lon="5.08854">
        <ele>415</ele>
        <time>2018-06-10T08:55:37Z</time>
      </trkpt>
      <trkpt lat="44.66123" lon="5.08842">
        <ele>415</ele>
        <time>2018-06-10T08:55:39Z</time>
      </trkpt>
      <trkpt lat="44.66123" lon="5.0883">
        <ele>415</ele>
        <time>2018-06-10T08:55:41Z</time>
      </trkpt>
      <trkpt lat="44.66122" lon="5.08814">
        <ele>416</ele>
        <time>2018-06-10T08:55:43Z</time>
      </trkpt>
      <trkpt lat="44.66121" lon="5.08802">
        <ele>416</ele>
        <time>2018-06-10T08:55:45Z</time>
      </trkpt>
      <trkpt lat="44.66119" lon="5.0879">
        <ele>416</ele>
        <time>2018-06-10T08:55:47Z</time>
      </trkpt>
      <trkpt lat="44.66117" lon="5.08779">
        <ele>416</ele>
        <time>2018-06-10T08:55:49Z</time>
      </trkpt>
      <trkpt lat="44.66116" lon="5.0877">
        <ele>417</ele>
        <time>2018-06-10T08:55:51Z</time>
      </trkpt>
      <trkpt lat="44.66114" lon="5.08763">
        <ele>417</ele>
        <time>2018-06-10T08:55:53Z</time>
      </trkpt>
      <trkpt lat="44.66111" lon="5.08756">
        <ele>417</ele>
        <time>2018-06-10T08:55:55Z</time>
      </trkpt>
      <trkpt lat="44.66107" lon="5.08745">
        <ele>417</ele>
        <time>2018-06-10T08:55:57Z</time>
      </trkpt>
      <trkpt lat="44.66104" lon="5.08736">
        <ele>417</ele>
        <time>2018-06-10T08:55:59Z</time>
      </trkpt>
      <trkpt lat="44.66102" lon="5.08726">
        <ele>418</ele>
        <time>2018-06-10T08:56:01Z</time>
      </trkpt>
      <trkpt lat="44.66101" lon="5.08713">
        <ele>418</ele>
        <time>2018-06-10T08:56:03Z</time>
      </trkpt>
      <trkpt lat="44.66098" lon="5.08698">
        <ele>418</ele>
        <time>2018-06-10T08:56:05Z</time>
      </trkpt>
      <trkpt lat="44.66097" lon="5.08687">
        <ele>418</ele>
        <time>2018-06-10T08:56:07Z</time>
      </trkpt>
      <trkpt lat="44.66093" lon="5.08678">
        <ele>419</ele>
        <time>2018-06-10T08:56:09Z</time>
      </trkpt>
      <trkpt lat="44.6609" lon="5.08671">
        <ele>419</ele>
        <time>2018-06-10T08:56:11Z</time>
      </trkpt>
      <trkpt lat="44.66085" lon="5.08665">
        <ele>419</ele>
        <time>2018-06-10T08:56:14Z</time>
      </trkpt>
      <trkpt lat="44.6608" lon="5.08657">
        <ele>419</ele>
        <time>2018-06-10T08:56:16Z</time>
      </trkpt>
      <trkpt lat="44.66075" lon="5.08651">
        <ele>418</ele>
        <time>2018-06-10T08:56:18Z</time>
      </trkpt>
      <trkpt lat="44.66068" lon="5.08644">
        <ele>418</ele>
        <time>2018-06-10T08:56:20Z</time>
      </trkpt>
      <trkpt lat="44.66059" lon="5.08641">
        <ele>418</ele>
        <time>2018-06-10T08:56:22Z</time>
      </trkpt>
      <trkpt lat="44.66052" lon="5.08642">
        <ele>418</ele>
        <time>2018-06-10T08:56:24Z</time>
      </trkpt>
      <trkpt lat="44.66044" lon="5.08642">
        <ele>418</ele>
        <time>2018-06-10T08:56:26Z</time>
      </trkpt>
      <trkpt lat="44.66036" lon="5.08641">
        <ele>418</ele>
        <time>2018-06-10T08:56:28Z</time>
      </trkpt>
      <trkpt lat="44.66022" lon="5.08645">
        <ele>418</ele>
        <time>2018-06-10T08:56:30Z</time>
      </trkpt>
      <trkpt lat="44.66015" lon="5.08648">
        <ele>417</ele>
        <time>2018-06-10T08:56:32Z</time>
      </trkpt>
      <trkpt lat="44.6601" lon="5.08653">
        <ele>417</ele>
        <time>2018-06-10T08:56:34Z</time>
      </trkpt>
      <trkpt lat="44.66004" lon="5.08659">
        <ele>416</ele>
        <time>2018-06-10T08:56:36Z</time>
      </trkpt>
      <trkpt lat="44.65997" lon="5.08665">
        <ele>417</ele>
        <time>2018-06-10T08:56:38Z</time>
      </trkpt>
      <trkpt lat="44.65991" lon="5.08666">
        <ele>416</ele>
        <time>2018-06-10T08:56:40Z</time>
      </trkpt>
      <trkpt lat="44.65988" lon="5.08668">
        <ele>416</ele>
        <time>2018-06-10T08:56:42Z</time>
      </trkpt>
      <trkpt lat="44.65985" lon="5.0867">
        <ele>416</ele>
        <time>2018-06-10T08:56:44Z</time>
      </trkpt>
      <trkpt lat="44.65982" lon="5.08673">
        <ele>417</ele>
        <time>2018-06-10T08:56:46Z</time>
      </trkpt>
      <trkpt lat="44.6598" lon="5.08675">
        <ele>417</ele>
        <time>2018-06-10T08:56:48Z</time>
      </trkpt>
      <trkpt lat="44.65977" lon="5.08676">
        <ele>417</ele>
        <time>2018-06-10T08:56:50Z</time>
      </trkpt>
      <trkpt lat="44.65973" lon="5.08679">
        <ele>417</ele>
        <time>2018-06-10T08:56:52Z</time>
      </trkpt>
      <trkpt lat="44.65969" lon="5.08682">
        <ele>416</ele>
        <time>2018-06-10T08:56:54Z</time>
      </trkpt>
      <trkpt lat="44.65968" lon="5.08686">
        <ele>417</ele>
        <time>2018-06-10T08:56:56Z</time>
      </trkpt>
      <trkpt lat="44.65967" lon="5.08689">
        <ele>417</ele>
        <time>2018-06-10T08:56:58Z</time>
      </trkpt>
      <trkpt lat="44.65964" lon="5.0869">
        <ele>417</ele>
        <time>2018-06-10T08:57:00Z</time>
      </trkpt>
      <trkpt lat="44.65962" lon="5.08692">
        <ele>418</ele>
        <time>2018-06-10T08:57:02Z</time>
      </trkpt>
      <trkpt lat="44.6596" lon="5.08694">
        <ele>418</ele>
        <time>2018-06-10T08:57:04Z</time>
      </trkpt>
      <trkpt lat="44.65958" lon="5.08696">
        <ele>418</ele>
        <time>2018-06-10T08:57:06Z</time>
      </trkpt>
      <trkpt lat="44.65956" lon="5.08698">
        <ele>418</ele>
        <time>2018-06-10T08:57:08Z</time>
      </trkpt>
      <trkpt lat="44.65954" lon="5.087">
        <ele>419</ele>
        <time>2018-06-10T08:57:10Z</time>
      </trkpt>
      <trkpt lat="44.65952" lon="5.08701">
        <ele>419</ele>
        <time>2018-06-10T08:57:12Z</time>
      </trkpt>
      <trkpt lat="44.65951" lon="5.08704">
        <ele>420</ele>
        <time>2018-06-10T08:57:14Z</time>
      </trkpt>
      <trkpt lat="44.65949" lon="5.08708">
        <ele>420</ele>
        <time>2018-06-10T08:57:16Z</time>
      </trkpt>
      <trkpt lat="44.65949" lon="5.08713">
        <ele>420</ele>
        <time>2018-06-10T08:57:18Z</time>
      </trkpt>
      <trkpt lat="44.65949" lon="5.0872">
        <ele>419</ele>
        <time>2018-06-10T08:57:20Z</time>
      </trkpt>
      <trkpt lat="44.65947" lon="5.08729">
        <ele>420</ele>
        <time>2018-06-10T08:57:22Z</time>
      </trkpt>
      <trkpt lat="44.65946" lon="5.08737">
        <ele>419</ele>
        <time>2018-06-10T08:57:24Z</time>
      </trkpt>
      <trkpt lat="44.65945" lon="5.08745">
        <ele>419</ele>
        <time>2018-06-10T08:57:26Z</time>
      </trkpt>
      <trkpt lat="44.65945" lon="5.08755">
        <ele>419</ele>
        <time>2018-06-10T08:57:28Z</time>
      </trkpt>
      <trkpt lat="44.65944" lon="5.08765">
        <ele>419</ele>
        <time>2018-06-10T08:57:31Z</time>
      </trkpt>
      <trkpt lat="44.65943" lon="5.08775">
        <ele>420</ele>
        <time>2018-06-10T08:57:33Z</time>
      </trkpt>
      <trkpt lat="44.65942" lon="5.08784">
        <ele>420</ele>
        <time>2018-06-10T08:57:35Z</time>
      </trkpt>
      <trkpt lat="44.6594" lon="5.08795">
        <ele>420</ele>
        <time>2018-06-10T08:57:37Z</time>
      </trkpt>
      <trkpt lat="44.65939" lon="5.0881">
        <ele>419</ele>
        <time>2018-06-10T08:57:39Z</time>
      </trkpt>
      <trkpt lat="44.65938" lon="5.08825">
        <ele>419</ele>
        <time>2018-06-10T08:57:41Z</time>
      </trkpt>
      <trkpt lat="44.65937" lon="5.08841">
        <ele>419</ele>
        <time>2018-06-10T08:57:43Z</time>
      </trkpt>
      <trkpt lat="44.65935" lon="5.08865">
        <ele>418</ele>
        <time>2018-06-10T08:57:45Z</time>
      </trkpt>
      <trkpt lat="44.65933" lon="5.08881">
        <ele>418</ele>
        <time>2018-06-10T08:57:47Z</time>
      </trkpt>
      <trkpt lat="44.65933" lon="5.08895">
        <ele>418</ele>
        <time>2018-06-10T08:57:49Z</time>
      </trkpt>
      <trkpt lat="44.65931" lon="5.08913">
        <ele>418</ele>
        <time>2018-06-10T08:57:51Z</time>
      </trkpt>
      <trkpt lat="44.65928" lon="5.0893">
        <ele>418</ele>
        <time>2018-06-10T08:57:53Z</time>
      </trkpt>
      <trkpt lat="44.65925" lon="5.08947">
        <ele>418</ele>
        <time>2018-06-10T08:57:55Z</time>
      </trkpt>
      <trkpt lat="44.65922" lon="5.08964">
        <ele>417</ele>
        <time>2018-06-10T08:57:57Z</time>
      </trkpt>
      <trkpt lat="44.6592" lon="5.08982">
        <ele>417</ele>
        <time>2018-06-10T08:57:59Z</time>
      </trkpt>
      <trkpt lat="44.65918" lon="5.08998">
        <ele>417</ele>
        <time>2018-06-10T08:58:01Z</time>
      </trkpt>
      <trkpt lat="44.65913" lon="5.09018">
        <ele>416</ele>
        <time>2018-06-10T08:58:03Z</time>
      </trkpt>
      <trkpt lat="44.65912" lon="5.09038">
        <ele>416</ele>
        <time>2018-06-10T08:58:05Z</time>
      </trkpt>
      <trkpt lat="44.65908" lon="5.09054">
        <ele>416</ele>
        <time>2018-06-10T08:58:07Z</time>
      </trkpt>
      <trkpt lat="44.65907" lon="5.09065">
        <ele>415</ele>
        <time>2018-06-10T08:58:09Z</time>
      </trkpt>
      <trkpt lat="44.65904" lon="5.09073">
        <ele>415</ele>
        <time>2018-06-10T08:58:11Z</time>
      </trkpt>
      <trkpt lat="44.65902" lon="5.09082">
        <ele>415</ele>
        <time>2018-06-10T08:58:13Z</time>
      </trkpt>
      <trkpt lat="44.65902" lon="5.0909">
        <ele>415</ele>
        <time>2018-06-10T08:58:15Z</time>
      </trkpt>
      <trkpt lat="44.65903" lon="5.091">
        <ele>413</ele>
        <time>2018-06-10T08:58:17Z</time>
      </trkpt>
      <trkpt lat="44.65903" lon="5.09109">
        <ele>412</ele>
        <time>2018-06-10T08:58:19Z</time>
      </trkpt>
      <trkpt lat="44.65904" lon="5.09117">
        <ele>410</ele>
        <time>2018-06-10T08:58:21Z</time>
      </trkpt>
      <trkpt lat="44.65904" lon="5.09124">
        <ele>410</ele>
        <time>2018-06-10T08:58:23Z</time>
      </trkpt>
      <trkpt lat="44.65903" lon="5.09129">
        <ele>410</ele>
        <time>2018-06-10T08:58:25Z</time>
      </trkpt>
      <trkpt lat="44.65903" lon="5.09134">
        <ele>410</ele>
        <time>2018-06-10T08:58:27Z</time>
      </trkpt>
      <trkpt lat="44.65902" lon="5.09139">
        <ele>409</ele>
        <time>2018-06-10T08:58:30Z</time>
      </trkpt>
      <trkpt lat="44.659" lon="5.09146">
        <ele>410</ele>
        <time>2018-06-10T08:58:32Z</time>
      </trkpt>
      <trkpt lat="44.65898" lon="5.09152">
        <ele>410</ele>
        <time>2018-06-10T08:58:34Z</time>
      </trkpt>
      <trkpt lat="44.65895" lon="5.09157">
        <ele>411</ele>
        <time>2018-06-10T08:58:36Z</time>
      </trkpt>
      <trkpt lat="44.65894" lon="5.0916">
        <ele>411</ele>
        <time>2018-06-10T08:58:38Z</time>
      </trkpt>
      <trkpt lat="44.65892" lon="5.09164">
        <ele>412</ele>
        <time>2018-06-10T08:58:40Z</time>
      </trkpt>
      <trkpt lat="44.6589" lon="5.09168">
        <ele>412</ele>
        <time>2018-06-10T08:58:42Z</time>
      </trkpt>
      <trkpt lat="44.65888" lon="5.09173">
        <ele>413</ele>
        <time>2018-06-10T08:58:44Z</time>
      </trkpt>
      <trkpt lat="44.65886" lon="5.09176">
        <ele>413</ele>
        <time>2018-06-10T08:58:46Z</time>
      </trkpt>
      <trkpt lat="44.65884" lon="5.09183">
        <ele>413</ele>
        <time>2018-06-10T08:58:48Z</time>
      </trkpt>
      <trkpt lat="44.65882" lon="5.09187">
        <ele>414</ele>
        <time>2018-06-10T08:58:50Z</time>
      </trkpt>
      <trkpt lat="44.6588" lon="5.09191">
        <ele>414</ele>
        <time>2018-06-10T08:58:52Z</time>
      </trkpt>
      <trkpt lat="44.65879" lon="5.09195">
        <ele>415</ele>
        <time>2018-06-10T08:58:54Z</time>
      </trkpt>
      <trkpt lat="44.65877" lon="5.09198">
        <ele>414</ele>
        <time>2018-06-10T08:58:56Z</time>
      </trkpt>
      <trkpt lat="44.65876" lon="5.09202">
        <ele>415</ele>
        <time>2018-06-10T08:58:58Z</time>
      </trkpt>
      <trkpt lat="44.65875" lon="5.09206">
        <ele>415</ele>
        <time>2018-06-10T08:59:00Z</time>
      </trkpt>
      <trkpt lat="44.65874" lon="5.0921">
        <ele>416</ele>
        <time>2018-06-10T08:59:02Z</time>
      </trkpt>
      <trkpt lat="44.65873" lon="5.09214">
        <ele>416</ele>
        <time>2018-06-10T08:59:04Z</time>
      </trkpt>
      <trkpt lat="44.65871" lon="5.09219">
        <ele>416</ele>
        <time>2018-06-10T08:59:06Z</time>
      </trkpt>
      <trkpt lat="44.65869" lon="5.09224">
        <ele>417</ele>
        <time>2018-06-10T08:59:08Z</time>
      </trkpt>
      <trkpt lat="44.65867" lon="5.09227">
        <ele>417</ele>
        <time>2018-06-10T08:59:10Z</time>
      </trkpt>
      <trkpt lat="44.65865" lon="5.09232">
        <ele>417</ele>
        <time>2018-06-10T08:59:12Z</time>
      </trkpt>
      <trkpt lat="44.65864" lon="5.09236">
        <ele>417</ele>
        <time>2018-06-10T08:59:14Z</time>
      </trkpt>
      <trkpt lat="44.65862" lon="5.0924">
        <ele>418</ele>
        <time>2018-06-10T08:59:16Z</time>
      </trkpt>
      <trkpt lat="44.6586" lon="5.09244">
        <ele>418</ele>
        <time>2018-06-10T08:59:18Z</time>
      </trkpt>
      <trkpt lat="44.65858" lon="5.09248">
        <ele>418</ele>
        <time>2018-06-10T08:59:20Z</time>
      </trkpt>
      <trkpt lat="44.65856" lon="5.09252">
        <ele>418</ele>
        <time>2018-06-10T08:59:22Z</time>
      </trkpt>
      <trkpt lat="44.65855" lon="5.09256">
        <ele>419</ele>
        <time>2018-06-10T08:59:25Z</time>
      </trkpt>
      <trkpt lat="44.65853" lon="5.09259">
        <ele>419</ele>
        <time>2018-06-10T08:59:27Z</time>
      </trkpt>
      <trkpt lat="44.65852" lon="5.09263">
        <ele>420</ele>
        <time>2018-06-10T08:59:29Z</time>
      </trkpt>
      <trkpt lat="44.6585" lon="5.09268">
        <ele>420</ele>
        <time>2018-06-10T08:59:31Z</time>
      </trkpt>
      <trkpt lat="44.65848" lon="5.09272">
        <ele>419</ele>
        <time>2018-06-10T08:59:33Z</time>
      </trkpt>
      <trkpt lat="44.65844" lon="5.09283">
        <ele>420</ele>
        <time>2018-06-10T08:59:35Z</time>
      </trkpt>
      <trkpt lat="44.65842" lon="5.09288">
        <ele>420</ele>
        <time>2018-06-10T08:59:37Z</time>
      </trkpt>
      <trkpt lat="44.65839" lon="5.09296">
        <ele>420</ele>
        <time>2018-06-10T08:59:39Z</time>
      </trkpt>
      <trkpt lat="44.65835" lon="5.09303">
        <ele>420</ele>
        <time>2018-06-10T08:59:41Z</time>
      </trkpt>
      <trkpt lat="44.65832" lon="5.09309">
        <ele>420</ele>
        <time>2018-06-10T08:59:43Z</time>
      </trkpt>
      <trkpt lat="44.6583" lon="5.09316">
        <ele>420</ele>
        <time>2018-06-10T08:59:45Z</time>
      </trkpt>
      <trkpt lat="44.65827" lon="5.09321">
        <ele>421</ele>
        <time>2018-06-10T08:59:47Z</time>
      </trkpt>
      <trkpt lat="44.65825" lon="5.09325">
        <ele>421</ele>
        <time>2018-06-10T08:59:49Z</time>
      </trkpt>
      <trkpt lat="44.65822" lon="5.0933">
        <ele>421</ele>
        <time>2018-06-10T08:59:51Z</time>
      </trkpt>
      <trkpt lat="44.65818" lon="5.09338">
        <ele>422</ele>
        <time>2018-06-10T08:59:53Z</time>
      </trkpt>
      <trkpt lat="44.65816" lon="5.09343">
        <ele>421</ele>
        <time>2018-06-10T08:59:55Z</time>
      </trkpt>
      <trkpt lat="44.65814" lon="5.09348">
        <ele>422</ele>
        <time>2018-06-10T08:59:57Z</time>
      </trkpt>
      <trkpt lat="44.65812" lon="5.09352">
        <ele>422</ele>
        <time>2018-06-10T08:59:59Z</time>
      </trkpt>
      <trkpt lat="44.65811" lon="5.09357">
        <ele>422</ele>
        <time>2018-06-10T09:00:01Z</time>
      </trkpt>
      <trkpt lat="44.65807" lon="5.09363">
        <ele>422</ele>
        <time>2018-06-10T09:00:03Z</time>
      </trkpt>
      <trkpt lat="44.65805" lon="5.09367">
        <ele>422</ele>
        <time>2018-06-10T09:00:05Z</time>
      </trkpt>
      <trkpt lat="44.65801" lon="5.09371">
        <ele>423</ele>
        <time>2018-06-10T09:00:07Z</time>
      </trkpt>
      <trkpt lat="44.65797" lon="5.09376">
        <ele>423</ele>
        <time>2018-06-10T09:00:09Z</time>
      </trkpt>
      <trkpt lat="44.65794" lon="5.09382">
        <ele>424</ele>
        <time>2018-06-10T09:00:11Z</time>
      </trkpt>
      <trkpt lat="44.6579" lon="5.09389">
        <ele>424</ele>
        <time>2018-06-10T09:00:13Z</time>
      </trkpt>
      <trkpt lat="44.65788" lon="5.09395">
        <ele>424</ele>
        <time>2018-06-10T09:00:15Z</time>
      </trkpt>
      <trkpt lat="44.65784" lon="5.09401">
        <ele>425</ele>
        <time>2018-06-10T09:00:17Z</time>
      </trkpt>
      <trkpt lat="44.65782" lon="5.09405">
        <ele>425</ele>
        <time>2018-06-10T09:00:19Z</time>
      </trkpt>
      <trkpt lat="44.65779" lon="5.09408">
        <ele>426</ele>
        <time>2018-06-10T09:00:21Z</time>
      </trkpt>
      <trkpt lat="44.65775" lon="5.0941">
        <ele>426</ele>
        <time>2018-06-10T09:00:23Z</time>
      </trkpt>
      <trkpt lat="44.65772" lon="5.0941">
        <ele>426</ele>
        <time>2018-06-10T09:00:25Z</time>
      </trkpt>
      <trkpt lat="44.65772" lon="5.09409">
        <ele>427</ele>
        <time>2018-06-10T09:00:27Z</time>
      </trkpt>
      <trkpt lat="44.65772" lon="5.09406">
        <ele>428</ele>
        <time>2018-06-10T09:00:29Z</time>
      </trkpt>
      <trkpt lat="44.65772" lon="5.09403">
        <ele>428</ele>
        <time>2018-06-10T09:00:31Z</time>
      </trkpt>
      <trkpt lat="44.6577" lon="5.09401">
        <ele>429</ele>
        <time>2018-06-10T09:00:33Z</time>
      </trkpt>
      <trkpt lat="44.65771" lon="5.09398">
        <ele>429</ele>
        <time>2018-06-10T09:00:36Z</time>
      </trkpt>
      <trkpt lat="44.65772" lon="5.09396">
        <ele>430</ele>
        <time>2018-06-10T09:00:38Z</time>
      </trkpt>
      <trkpt lat="44.65773" lon="5.09396">
        <ele>430</ele>
        <time>2018-06-10T09:00:40Z</time>
      </trkpt>
      <trkpt lat="44.65774" lon="5.09392">
        <ele>430</ele>
        <time>2018-06-10T09:00:42Z</time>
      </trkpt>
      <trkpt lat="44.65776" lon="5.09388">
        <ele>431</ele>
        <time>2018-06-10T09:00:44Z</time>
      </trkpt>
      <trkpt lat="44.65776" lon="5.09383">
        <ele>431</ele>
        <time>2018-06-10T09:00:46Z</time>
      </trkpt>
      <trkpt lat="44.65777" lon="5.09378">
        <ele>431</ele>
        <time>2018-06-10T09:00:48Z</time>
      </trkpt>
      <trkpt lat="44.65777" lon="5.09375">
        <ele>432</ele>
        <time>2018-06-10T09:00:50Z</time>
      </trkpt>
      <trkpt lat="44.65777" lon="5.09373">
        <ele>432</ele>
        <time>2018-06-10T09:00:52Z</time>
      </trkpt>
      <trkpt lat="44.65778" lon="5.09371">
        <ele>432</ele>
        <time>2018-06-10T09:00:54Z</time>
      </trkpt>
      <trkpt lat="44.65779" lon="5.09366">
        <ele>432</ele>
        <time>2018-06-10T09:00:56Z</time>
      </trkpt>
      <trkpt lat="44.65781" lon="5.09363">
        <ele>433</ele>
        <time>2018-06-10T09:00:58Z</time>
      </trkpt>
      <trkpt lat="44.65782" lon="5.09361">
        <ele>433</ele>
        <time>2018-06-10T09:01:00Z</time>
      </trkpt>
      <trkpt lat="44.65782" lon="5.09357">
        <ele>433</ele>
        <time>2018-06-10T09:01:02Z</time>
      </trkpt>
      <trkpt lat="44.65783" lon="5.09354">
        <ele>434</ele>
        <time>2018-06-10T09:01:04Z</time>
      </trkpt>
      <trkpt lat="44.65783" lon="5.09351">
        <ele>434</ele>
        <time>2018-06-10T09:01:06Z</time>
      </trkpt>
      <trkpt lat="44.65784" lon="5.09346">
        <ele>434</ele>
        <time>2018-06-10T09:01:08Z</time>
      </trkpt>
      <trkpt lat="44.65784" lon="5.09342">
        <ele>435</ele>
        <time>2018-06-10T09:01:10Z</time>
      </trkpt>
      <trkpt lat="44.65785" lon="5.09339">
        <ele>435</ele>
        <time>2018-06-10T09:01:12Z</time>
      </trkpt>
      <trkpt lat="44.65785" lon="5.09335">
        <ele>435</ele>
        <time>2018-06-10T09:01:14Z</time>
      </trkpt>
      <trkpt lat="44.65786" lon="5.09332">
        <ele>435</ele>
        <time>2018-06-10T09:01:16Z</time>
      </trkpt>
      <trkpt lat="44.65786" lon="5.0933">
        <ele>436</ele>
        <time>2018-06-10T09:01:18Z</time>
      </trkpt>
      <trkpt lat="44.65787" lon="5.09328">
        <ele>436</ele>
        <time>2018-06-10T09:01:20Z</time>
      </trkpt>
      <trkpt lat="44.65788" lon="5.09325">
        <ele>436</ele>
        <time>2018-06-10T09:01:22Z</time>
      </trkpt>
      <trkpt lat="44.65788" lon="5.09321">
        <ele>437</ele>
        <time>2018-06-10T09:01:24Z</time>
      </trkpt>
      <trkpt lat="44.65788" lon="5.09318">
        <ele>437</ele>
        <time>2018-06-10T09:01:26Z</time>
      </trkpt>
      <trkpt lat="44.65788" lon="5.09315">
        <ele>437</ele>
        <time>2018-06-10T09:01:28Z</time>
      </trkpt>
      <trkpt lat="44.65789" lon="5.09312">
        <ele>438</ele>
        <time>2018-06-10T09:01:30Z</time>
      </trkpt>
      <trkpt lat="44.65792" lon="5.09307">
        <ele>438</ele>
        <time>2018-06-10T09:01:32Z</time>
      </trkpt>
      <trkpt lat="44.65792" lon="5.09302">
        <ele>439</ele>
        <time>2018-06-10T09:01:34Z</time>
      </trkpt>
      <trkpt lat="44.65793" lon="5.09298">
        <ele>439</ele>
        <time>2018-06-10T09:01:36Z</time>
      </trkpt>
      <trkpt lat="44.65794" lon="5.09294">
        <ele>440</ele>
        <time>2018-06-10T09:01:38Z</time>
      </trkpt>
      <trkpt lat="44.65794" lon="5.09291">
        <ele>441</ele>
        <time>2018-06-10T09:01:40Z</time>
      </trkpt>
      <trkpt lat="44.65794" lon="5.09287">
        <ele>441</ele>
        <time>2018-06-10T09:01:42Z</time>
      </trkpt>
      <trkpt lat="44.65796" lon="5.09284">
        <ele>441</ele>
        <time>2018-06-10T09:01:44Z</time>
      </trkpt>
      <trkpt lat="44.65798" lon="5.0928">
        <ele>441</ele>
        <time>2018-06-10T09:01:46Z</time>
      </trkpt>
      <trkpt lat="44.65798" lon="5.09275">
        <ele>442</ele>
        <time>2018-06-10T09:01:48Z</time>
      </trkpt>
      <trkpt lat="44.65798" lon="5.09271">
        <ele>442</ele>
        <time>2018-06-10T09:01:50Z</time>
      </trkpt>
      <trkpt lat="44.65799" lon="5.09268">
        <ele>443</ele>
        <time>2018-06-10T09:01:52Z</time>
      </trkpt>
      <trkpt lat="44.65799" lon="5.09264">
        <ele>443</ele>
        <time>2018-06-10T09:01:54Z</time>
      </trkpt>
      <trkpt lat="44.658" lon="5.09261">
        <ele>444</ele>
        <time>2018-06-10T09:01:57Z</time>
      </trkpt>
      <trkpt lat="44.658" lon="5.09256">
        <ele>444</ele>
        <time>2018-06-10T09:01:59Z</time>
      </trkpt>
      <trkpt lat="44.658" lon="5.09253">
        <ele>445</ele>
        <time>2018-06-10T09:02:01Z</time>
      </trkpt>
      <trkpt lat="44.658" lon="5.09249">
        <ele>445</ele>
        <time>2018-06-10T09:02:03Z</time>
      </trkpt>
      <trkpt lat="44.65799" lon="5.09244">
        <ele>445</ele>
        <time>2018-06-10T09:02:05Z</time>
      </trkpt>
      <trkpt lat="44.65801" lon="5.09239">
        <ele>445</ele>
        <time>2018-06-10T09:02:07Z</time>
      </trkpt>
      <trkpt lat="44.65801" lon="5.09236">
        <ele>445</ele>
        <time>2018-06-10T09:02:09Z</time>
      </trkpt>
      <trkpt lat="44.658" lon="5.09234">
        <ele>446</ele>
        <time>2018-06-10T09:02:11Z</time>
      </trkpt>
      <trkpt lat="44.658" lon="5.09232">
        <ele>446</ele>
        <time>2018-06-10T09:02:13Z</time>
      </trkpt>
      <trkpt lat="44.65801" lon="5.09228">
        <ele>446</ele>
        <time>2018-06-10T09:02:15Z</time>
      </trkpt>
      <trkpt lat="44.658" lon="5.09225">
        <ele>446</ele>
        <time>2018-06-10T09:02:17Z</time>
      </trkpt>
      <trkpt lat="44.65801" lon="5.09222">
        <ele>446</ele>
        <time>2018-06-10T09:02:19Z</time>
      </trkpt>
      <trkpt lat="44.65801" lon="5.09216">
        <ele>447</ele>
        <time>2018-06-10T09:02:21Z</time>
      </trkpt>
      <trkpt lat="44.65801" lon="5.09212">
        <ele>447</ele>
        <time>2018-06-10T09:02:23Z</time>
      </trkpt>
      <trkpt lat="44.65801" lon="5.09209">
        <ele>448</ele>
        <time>2018-06-10T09:02:25Z</time>
      </trkpt>
      <trkpt lat="44.65801" lon="5.09206">
        <ele>448</ele>
        <time>2018-06-10T09:02:27Z</time>
      </trkpt>
      <trkpt lat="44.65801" lon="5.09203">
        <ele>448</ele>
        <time>2018-06-10T09:02:29Z</time>
      </trkpt>
      <trkpt lat="44.658" lon="5.09199">
        <ele>448</ele>
        <time>2018-06-10T09:02:31Z</time>
      </trkpt>
      <trkpt lat="44.65799" lon="5.09198">
        <ele>448</ele>
        <time>2018-06-10T09:02:33Z</time>
      </trkpt>
      <trkpt lat="44.65799" lon="5.09194">
        <ele>449</ele>
        <time>2018-06-10T09:02:35Z</time>
      </trkpt>
      <trkpt lat="44.65798" lon="5.09191">
        <ele>449</ele>
        <time>2018-06-10T09:02:37Z</time>
      </trkpt>
      <trkpt lat="44.65798" lon="5.09188">
        <ele>450</ele>
        <time>2018-06-10T09:02:39Z</time>
      </trkpt>
      <trkpt lat="44.65798" lon="5.09185">
        <ele>451</ele>
        <time>2018-06-10T09:02:41Z</time>
      </trkpt>
      <trkpt lat="44.65797" lon="5.09182">
        <ele>451</ele>
        <time>2018-06-10T09:02:43Z</time>
      </trkpt>
      <trkpt lat="44.65796" lon="5.09179">
        <ele>452</ele>
        <time>2018-06-10T09:02:45Z</time>
      </trkpt>
      <trkpt lat="44.65796" lon="5.09175">
        <ele>452</ele>
        <time>2018-06-10T09:02:47Z</time>
      </trkpt>
      <trkpt lat="44.65797" lon="5.09171">
        <ele>453</ele>
        <time>2018-06-10T09:02:49Z</time>
      </trkpt>
      <trkpt lat="44.65797" lon="5.09167">
        <ele>453</ele>
        <time>2018-06-10T09:02:51Z</time>
      </trkpt>
      <trkpt lat="44.65797" lon="5.09164">
        <ele>454</ele>
        <time>2018-06-10T09:02:53Z</time>
      </trkpt>
      <trkpt lat="44.65797" lon="5.09159">
        <ele>455</ele>
        <time>2018-06-10T09:02:55Z</time>
      </trkpt>
      <trkpt lat="44.65797" lon="5.09154">
        <ele>456</ele>
        <time>2018-06-10T09:02:57Z</time>
      </trkpt>
      <trkpt lat="44.65797" lon="5.0915">
        <ele>457</ele>
        <time>2018-06-10T09:03:00Z</time>
      </trkpt>
      <trkpt lat="44.65797" lon="5.09146">
        <ele>457</ele>
        <time>2018-06-10T09:03:02Z</time>
      </trkpt>
      <trkpt lat="44.65797" lon="5.09143">
        <ele>457</ele>
        <time>2018-06-10T09:03:04Z</time>
      </trkpt>
      <trkpt lat="44.65797" lon="5.09139">
        <ele>458</ele>
        <time>2018-06-10T09:03:06Z</time>
      </trkpt>
      <trkpt lat="44.65797" lon="5.09136">
        <ele>458</ele>
        <time>2018-06-10T09:03:08Z</time>
      </trkpt>
      <trkpt lat="44.65797" lon="5.09132">
        <ele>459</ele>
        <time>2018-06-10T09:03:10Z</time>
      </trkpt>
      <trkpt lat="44.65798" lon="5.09127">
        <ele>459</ele>
        <time>2018-06-10T09:03:12Z</time>
      </trkpt>
      <trkpt lat="44.65798" lon="5.09122">
        <ele>459</ele>
        <time>2018-06-10T09:03:14Z</time>
      </trkpt>
      <trkpt lat="44.65799" lon="5.09116">
        <ele>459</ele>
        <time>2018-06-10T09:03:16Z</time>
      </trkpt>
      <trkpt lat="44.658" lon="5.09112">
        <ele>460</ele>
        <time>2018-06-10T09:03:18Z</time>
      </trkpt>
      <trkpt lat="44.658" lon="5.09107">
        <ele>460</ele>
        <time>2018-06-10T09:03:20Z</time>
      </trkpt>
      <trkpt lat="44.65801" lon="5.09101">
        <ele>460</ele>
        <time>2018-06-10T09:03:22Z</time>
      </trkpt>
      <trkpt lat="44.65803" lon="5.09094">
        <ele>460</ele>
        <time>2018-06-10T09:03:24Z</time>
      </trkpt>
      <trkpt lat="44.65802" lon="5.09089">
        <ele>459</ele>
        <time>2018-06-10T09:03:26Z</time>
      </trkpt>
      <trkpt lat="44.65801" lon="5.09082">
        <ele>459</ele>
        <time>2018-06-10T09:03:28Z</time>
      </trkpt>
      <trkpt lat="44.65801" lon="5.09073">
        <ele>459</ele>
        <time>2018-06-10T09:03:30Z</time>
      </trkpt>
      <trkpt lat="44.65804" lon="5.09065">
        <ele>458</ele>
        <time>2018-06-10T09:03:32Z</time>
      </trkpt>
      <trkpt lat="44.65806" lon="5.09054">
        <ele>459</ele>
        <time>2018-06-10T09:03:34Z</time>
      </trkpt>
      <trkpt lat="44.65807" lon="5.09046">
        <ele>459</ele>
        <time>2018-06-10T09:03:36Z</time>
      </trkpt>
      <trkpt lat="44.65806" lon="5.09034">
        <ele>459</ele>
        <time>2018-06-10T09:03:38Z</time>
      </trkpt>
      <trkpt lat="44.6581" lon="5.09019">
        <ele>458</ele>
        <time>2018-06-10T09:03:40Z</time>
      </trkpt>
      <trkpt lat="44.65811" lon="5.09007">
        <ele>458</ele>
        <time>2018-06-10T09:03:42Z</time>
      </trkpt>
      <trkpt lat="44.65814" lon="5.08996">
        <ele>458</ele>
        <time>2018-06-10T09:03:44Z</time>
      </trkpt>
      <trkpt lat="44.65814" lon="5.08983">
        <ele>458</ele>
        <time>2018-06-10T09:03:46Z</time>
      </trkpt>
      <trkpt lat="44.65815" lon="5.08973">
        <ele>459</ele>
        <time>2018-06-10T09:03:48Z</time>
      </trkpt>
      <trkpt lat="44.65815" lon="5.08963">
        <ele>459</ele>
        <time>2018-06-10T09:03:50Z</time>
      </trkpt>
      <trkpt lat="44.65815" lon="5.08953">
        <ele>459</ele>
        <time>2018-06-10T09:03:52Z</time>
      </trkpt>
      <trkpt lat="44.65815" lon="5.08944">
        <ele>459</ele>
        <time>2018-06-10T09:03:54Z</time>
      </trkpt>
      <trkpt lat="44.65818" lon="5.08936">
        <ele>459</ele>
        <time>2018-06-10T09:03:57Z</time>
      </trkpt>
      <trkpt lat="44.6582" lon="5.08928">
        <ele>460</ele>
        <time>2018-06-10T09:03:59Z</time>
      </trkpt>
      <trkpt lat="44.65821" lon="5.0892">
        <ele>460</ele>
        <time>2018-06-10T09:04:01Z</time>
      </trkpt>
      <trkpt lat="44.65823" lon="5.08913">
        <ele>460</ele>
        <time>2018-06-10T09:04:03Z</time>
      </trkpt>
      <trkpt lat="44.65824" lon="5.08904">
        <ele>460</ele>
        <time>2018-06-10T09:04:05Z</time>
      </trkpt>
      <trkpt lat="44.65823" lon="5.08895">
        <ele>461</ele>
        <time>2018-06-10T09:04:07Z</time>
      </trkpt>
      <trkpt lat="44.65824" lon="5.08887">
        <ele>460</ele>
        <time>2018-06-10T09:04:09Z</time>
      </trkpt>
      <trkpt lat="44.65825" lon="5.08878">
        <ele>461</ele>
        <time>2018-06-10T09:04:11Z</time>
      </trkpt>
      <trkpt lat="44.65829" lon="5.08862">
        <ele>460</ele>
        <time>2018-06-10T09:04:13Z</time>
      </trkpt>
      <trkpt lat="44.65829" lon="5.08849">
        <ele>461</ele>
        <time>2018-06-10T09:04:15Z</time>
      </trkpt>
      <trkpt lat="44.65831" lon="5.08838">
        <ele>460</ele>
        <time>2018-06-10T09:04:17Z</time>
      </trkpt>
      <trkpt lat="44.65832" lon="5.08827">
        <ele>460</ele>
        <time>2018-06-10T09:04:19Z</time>
      </trkpt>
      <trkpt lat="44.65834" lon="5.0881">
        <ele>459</ele>
        <time>2018-06-10T09:04:21Z</time>
      </trkpt>
      <trkpt lat="44.65836" lon="5.08795">
        <ele>458</ele>
        <time>2018-06-10T09:04:23Z</time>
      </trkpt>
      <trkpt lat="44.65835" lon="5.08779">
        <ele>459</ele>
        <time>2018-06-10T09:04:25Z</time>
      </trkpt>
      <trkpt lat="44.65836" lon="5.08767">
        <ele>459</ele>
        <time>2018-06-10T09:04:27Z</time>
      </trkpt>
      <trkpt lat="44.65838" lon="5.08757">
        <ele>459</ele>
        <time>2018-06-10T09:04:29Z</time>
      </trkpt>
      <trkpt lat="44.65841" lon="5.08748">
        <ele>459</ele>
        <time>2018-06-10T09:04:31Z</time>
      </trkpt>
      <trkpt lat="44.65843" lon="5.08737">
        <ele>459</ele>
        <time>2018-06-10T09:04:33Z</time>
      </trkpt>
      <trkpt lat="44.65841" lon="5.08723">
        <ele>460</ele>
        <time>2018-06-10T09:04:35Z</time>
      </trkpt>
      <trkpt lat="44.65841" lon="5.08714">
        <ele>460</ele>
        <time>2018-06-10T09:04:37Z</time>
      </trkpt>
      <trkpt lat="44.6584" lon="5.08706">
        <ele>460</ele>
        <time>2018-06-10T09:04:39Z</time>
      </trkpt>
      <trkpt lat="44.65839" lon="5.08696">
        <ele>460</ele>
        <time>2018-06-10T09:04:41Z</time>
      </trkpt>
      <trkpt lat="44.65841" lon="5.08684">
        <ele>460</ele>
        <time>2018-06-10T09:04:43Z</time>
      </trkpt>
      <trkpt lat="44.6584" lon="5.08672">
        <ele>460</ele>
        <time>2018-06-10T09:04:45Z</time>
      </trkpt>
      <trkpt lat="44.65843" lon="5.08662">
        <ele>460</ele>
        <time>2018-06-10T09:04:47Z</time>
      </trkpt>
      <trkpt lat="44.65847" lon="5.08649">
        <ele>460</ele>
        <time>2018-06-10T09:04:49Z</time>
      </trkpt>
      <trkpt lat="44.65849" lon="5.08632">
        <ele>457</ele>
        <time>2018-06-10T09:04:51Z</time>
      </trkpt>
      <trkpt lat="44.65851" lon="5.08614">
        <ele>455</ele>
        <time>2018-06-10T09:04:54Z</time>
      </trkpt>
      <trkpt lat="44.65854" lon="5.08592">
        <ele>454</ele>
        <time>2018-06-10T09:04:56Z</time>
      </trkpt>
      <trkpt lat="44.65859" lon="5.08566">
        <ele>453</ele>
        <time>2018-06-10T09:04:58Z</time>
      </trkpt>
      <trkpt lat="44.65861" lon="5.08541">
        <ele>452</ele>
        <time>2018-06-10T09:05:00Z</time>
      </trkpt>
      <trkpt lat="44.65864" lon="5.08519">
        <ele>452</ele>
        <time>2018-06-10T09:05:02Z</time>
      </trkpt>
      <trkpt lat="44.65868" lon="5.08497">
        <ele>452</ele>
        <time>2018-06-10T09:05:04Z</time>
      </trkpt>
      <trkpt lat="44.65868" lon="5.08472">
        <ele>453</ele>
        <time>2018-06-10T09:05:06Z</time>
      </trkpt>
      <trkpt lat="44.6587" lon="5.08459">
        <ele>453</ele>
        <time>2018-06-10T09:05:08Z</time>
      </trkpt>
      <trkpt lat="44.65875" lon="5.08452">
        <ele>453</ele>
        <time>2018-06-10T09:05:10Z</time>
      </trkpt>
      <trkpt lat="44.65878" lon="5.08447">
        <ele>454</ele>
        <time>2018-06-10T09:05:12Z</time>
      </trkpt>
      <trkpt lat="44.65879" lon="5.08441">
        <ele>454</ele>
        <time>2018-06-10T09:05:14Z</time>
      </trkpt>
      <trkpt lat="44.65881" lon="5.08435">
        <ele>455</ele>
        <time>2018-06-10T09:05:16Z</time>
      </trkpt>
      <trkpt lat="44.65881" lon="5.0843">
        <ele>455</ele>
        <time>2018-06-10T09:05:18Z</time>
      </trkpt>
      <trkpt lat="44.65882" lon="5.08425">
        <ele>456</ele>
        <time>2018-06-10T09:05:20Z</time>
      </trkpt>
      <trkpt lat="44.65882" lon="5.08421">
        <ele>456</ele>
        <time>2018-06-10T09:05:22Z</time>
      </trkpt>
      <trkpt lat="44.65883" lon="5.08416">
        <ele>457</ele>
        <time>2018-06-10T09:05:24Z</time>
      </trkpt>
      <trkpt lat="44.65883" lon="5.08409">
        <ele>457</ele>
        <time>2018-06-10T09:05:26Z</time>
      </trkpt>
      <trkpt lat="44.65882" lon="5.08403">
        <ele>457</ele>
        <time>2018-06-10T09:05:28Z</time>
      </trkpt>
      <trkpt lat="44.65881" lon="5.08399">
        <ele>458</ele>
        <time>2018-06-10T09:05:30Z</time>
      </trkpt>
      <trkpt lat="44.65879" lon="5.08396">
        <ele>458</ele>
        <time>2018-06-10T09:05:32Z</time>
      </trkpt>
      <trkpt lat="44.65879" lon="5.08391">
        <ele>459</ele>
        <time>2018-06-10T09:05:34Z</time>
      </trkpt>
      <trkpt lat="44.65879" lon="5.08386">
        <ele>459</ele>
        <time>2018-06-10T09:05:36Z</time>
      </trkpt>
      <trkpt lat="44.65879" lon="5.08382">
        <ele>460</ele>
        <time>2018-06-10T09:05:38Z</time>
      </trkpt>
      <trkpt lat="44.65877" lon="5.08379">
        <ele>460</ele>
        <time>2018-06-10T09:05:40Z</time>
      </trkpt>
      <trkpt lat="44.65878" lon="5.08375">
        <ele>460</ele>
        <time>2018-06-10T09:05:42Z</time>
      </trkpt>
      <trkpt lat="44.65877" lon="5.08371">
        <ele>460</ele>
        <time>2018-06-10T09:05:44Z</time>
      </trkpt>
      <trkpt lat="44.65878" lon="5.08362">
        <ele>460</ele>
        <time>2018-06-10T09:05:46Z</time>
      </trkpt>
      <trkpt lat="44.6588" lon="5.08351">
        <ele>460</ele>
        <time>2018-06-10T09:05:48Z</time>
      </trkpt>
      <trkpt lat="44.65882" lon="5.08342">
        <ele>460</ele>
        <time>2018-06-10T09:05:50Z</time>
      </trkpt>
      <trkpt lat="44.65885" lon="5.08328">
        <ele>460</ele>
        <time>2018-06-10T09:05:52Z</time>
      </trkpt>
      <trkpt lat="44.65886" lon="5.08318">
        <ele>460</ele>
        <time>2018-06-10T09:05:55Z</time>
      </trkpt>
      <trkpt lat="44.65887" lon="5.08305">
        <ele>459</ele>
        <time>2018-06-10T09:05:57Z</time>
      </trkpt>
      <trkpt lat="44.6589" lon="5.08285">
        <ele>459</ele>
        <time>2018-06-10T09:05:59Z</time>
      </trkpt>
      <trkpt lat="44.6589" lon="5.08271">
        <ele>458</ele>
        <time>2018-06-10T09:06:01Z</time>
      </trkpt>
      <trkpt lat="44.6589" lon="5.08256">
        <ele>458</ele>
        <time>2018-06-10T09:06:03Z</time>
      </trkpt>
      <trkpt lat="44.65893" lon="5.08242">
        <ele>458</ele>
        <time>2018-06-10T09:06:05Z</time>
      </trkpt>
      <trkpt lat="44.65893" lon="5.08231">
        <ele>458</ele>
        <time>2018-06-10T09:06:07Z</time>
      </trkpt>
      <trkpt lat="44.65893" lon="5.08226">
        <ele>458</ele>
        <time>2018-06-10T09:06:09Z</time>
      </trkpt>
      <trkpt lat="44.65892" lon="5.08221">
        <ele>459</ele>
        <time>2018-06-10T09:06:11Z</time>
      </trkpt>
      <trkpt lat="44.65891" lon="5.08216">
        <ele>460</ele>
        <time>2018-06-10T09:06:13Z</time>
      </trkpt>
      <trkpt lat="44.65891" lon="5.0821">
        <ele>460</ele>
        <time>2018-06-10T09:06:15Z</time>
      </trkpt>
      <trkpt lat="44.65891" lon="5.08204">
        <ele>461</ele>
        <time>2018-06-10T09:06:17Z</time>
      </trkpt>
      <trkpt lat="44.65891" lon="5.08199">
        <ele>462</ele>
        <time>2018-06-10T09:06:19Z</time>
      </trkpt>
      <trkpt lat="44.65891" lon="5.08194">
        <ele>463</ele>
        <time>2018-06-10T09:06:21Z</time>
      </trkpt>
      <trkpt lat="44.65891" lon="5.0819">
        <ele>463</ele>
        <time>2018-06-10T09:06:23Z</time>
      </trkpt>
      <trkpt lat="44.65891" lon="5.08186">
        <ele>463</ele>
        <time>2018-06-10T09:06:25Z</time>
      </trkpt>
      <trkpt lat="44.6589" lon="5.08184">
        <ele>464</ele>
        <time>2018-06-10T09:06:27Z</time>
      </trkpt>
      <trkpt lat="44.6589" lon="5.08181">
        <ele>465</ele>
        <time>2018-06-10T09:06:29Z</time>
      </trkpt>
      <trkpt lat="44.65889" lon="5.08176">
        <ele>465</ele>
        <time>2018-06-10T09:06:31Z</time>
      </trkpt>
      <trkpt lat="44.65888" lon="5.08172">
        <ele>466</ele>
        <time>2018-06-10T09:06:33Z</time>
      </trkpt>
      <trkpt lat="44.65888" lon="5.08168">
        <ele>466</ele>
        <time>2018-06-10T09:06:35Z</time>
      </trkpt>
      <trkpt lat="44.65887" lon="5.08164">
        <ele>466</ele>
        <time>2018-06-10T09:06:37Z</time>
      </trkpt>
      <trkpt lat="44.65888" lon="5.0816">
        <ele>467</ele>
        <time>2018-06-10T09:06:39Z</time>
      </trkpt>
      <trkpt lat="44.65888" lon="5.08156">
        <ele>467</ele>
        <time>2018-06-10T09:06:41Z</time>
      </trkpt>
      <trkpt lat="44.65888" lon="5.08153">
        <ele>467</ele>
        <time>2018-06-10T09:06:43Z</time>
      </trkpt>
      <trkpt lat="44.65888" lon="5.08148">
        <ele>468</ele>
        <time>2018-06-10T09:06:45Z</time>
      </trkpt>
      <trkpt lat="44.65888" lon="5.08143">
        <ele>468</ele>
        <time>2018-06-10T09:06:47Z</time>
      </trkpt>
      <trkpt lat="44.65887" lon="5.08138">
        <ele>468</ele>
        <time>2018-06-10T09:06:49Z</time>
      </trkpt>
      <trkpt lat="44.65887" lon="5.08133">
        <ele>468</ele>
        <time>2018-06-10T09:06:51Z</time>
      </trkpt>
      <trkpt lat="44.65887" lon="5.08129">
        <ele>469</ele>
        <time>2018-06-10T09:06:54Z</time>
      </trkpt>
      <trkpt lat="44.65887" lon="5.08125">
        <ele>469</ele>
        <time>2018-06-10T09:06:56Z</time>
      </trkpt>
      <trkpt lat="44.65886" lon="5.08121">
        <ele>469</ele>
        <time>2018-06-10T09:06:58Z</time>
      </trkpt>
      <trkpt lat="44.65886" lon="5.08116">
        <ele>470</ele>
        <time>2018-06-10T09:07:00Z</time>
      </trkpt>
      <trkpt lat="44.65886" lon="5.08112">
        <ele>470</ele>
        <time>2018-06-10T09:07:02Z</time>
      </trkpt>
      <trkpt lat="44.65885" lon="5.08109">
        <ele>471</ele>
        <time>2018-06-10T09:07:04Z</time>
      </trkpt>
      <trkpt lat="44.65884" lon="5.08104">
        <ele>471</ele>
        <time>2018-06-10T09:07:06Z</time>
      </trkpt>
      <trkpt lat="44.65883" lon="5.08101">
        <ele>471</ele>
        <time>2018-06-10T09:07:08Z</time>
      </trkpt>
      <trkpt lat="44.65882" lon="5.08096">
        <ele>471</ele>
        <time>2018-06-10T09:07:10Z</time>
      </trkpt>
      <trkpt lat="44.65882" lon="5.08088">
        <ele>472</ele>
        <time>2018-06-10T09:07:12Z</time>
      </trkpt>
      <trkpt lat="44.65881" lon="5.08085">
        <ele>472</ele>
        <time>2018-06-10T09:07:14Z</time>
      </trkpt>
      <trkpt lat="44.6588" lon="5.08082">
        <ele>472</ele>
        <time>2018-06-10T09:07:16Z</time>
      </trkpt>
      <trkpt lat="44.6588" lon="5.08078">
        <ele>473</ele>
        <time>2018-06-10T09:07:18Z</time>
      </trkpt>
      <trkpt lat="44.65879" lon="5.08074">
        <ele>473</ele>
        <time>2018-06-10T09:07:20Z</time>
      </trkpt>
      <trkpt lat="44.65878" lon="5.08071">
        <ele>473</ele>
        <time>2018-06-10T09:07:22Z</time>
      </trkpt>
      <trkpt lat="44.65876" lon="5.08067">
        <ele>473</ele>
        <time>2018-06-10T09:07:24Z</time>
      </trkpt>
      <trkpt lat="44.65876" lon="5.08061">
        <ele>474</ele>
        <time>2018-06-10T09:07:26Z</time>
      </trkpt>
      <trkpt lat="44.65875" lon="5.08057">
        <ele>475</ele>
        <time>2018-06-10T09:07:28Z</time>
      </trkpt>
      <trkpt lat="44.65873" lon="5.08053">
        <ele>474</ele>
        <time>2018-06-10T09:07:30Z</time>
      </trkpt>
      <trkpt lat="44.65873" lon="5.0805">
        <ele>475</ele>
        <time>2018-06-10T09:07:32Z</time>
      </trkpt>
      <trkpt lat="44.65872" lon="5.08046">
        <ele>475</ele>
        <time>2018-06-10T09:07:34Z</time>
      </trkpt>
      <trkpt lat="44.6587" lon="5.08042">
        <ele>475</ele>
        <time>2018-06-10T09:07:36Z</time>
      </trkpt>
      <trkpt lat="44.65868" lon="5.08039">
        <ele>475</ele>
        <time>2018-06-10T09:07:38Z</time>
      </trkpt>
      <trkpt lat="44.65866" lon="5.08036">
        <ele>475</ele>
        <time>2018-06-10T09:07:40Z</time>
      </trkpt>
      <trkpt lat="44.65865" lon="5.08032">
        <ele>476</ele>
        <time>2018-06-10T09:07:42Z</time>
      </trkpt>
      <trkpt lat="44.65864" lon="5.08028">
        <ele>476</ele>
        <time>2018-06-10T09:07:44Z</time>
      </trkpt>
      <trkpt lat="44.65864" lon="5.08023">
        <ele>476</ele>
        <time>2018-06-10T09:07:47Z</time>
      </trkpt>
      <trkpt lat="44.65863" lon="5.0802">
        <ele>477</ele>
        <time>2018-06-10T09:07:49Z</time>
      </trkpt>
      <trkpt lat="44.65861" lon="5.08016">
        <ele>476</ele>
        <time>2018-06-10T09:07:51Z</time>
      </trkpt>
      <trkpt lat="44.6586" lon="5.0801">
        <ele>477</ele>
        <time>2018-06-10T09:07:53Z</time>
      </trkpt>
      <trkpt lat="44.65859" lon="5.08008">
        <ele>477</ele>
        <time>2018-06-10T09:07:55Z</time>
      </trkpt>
      <trkpt lat="44.65858" lon="5.08003">
        <ele>477</ele>
        <time>2018-06-10T09:07:57Z</time>
      </trkpt>
      <trkpt lat="44.65857" lon="5.07998">
        <ele>477</ele>
        <time>2018-06-10T09:07:59Z</time>
      </trkpt>
      <trkpt lat="44.65857" lon="5.07992">
        <ele>477</ele>
        <time>2018-06-10T09:08:01Z</time>
      </trkpt>
      <trkpt lat="44.65856" lon="5.07987">
        <ele>478</ele>
        <time>2018-06-10T09:08:03Z</time>
      </trkpt>
      <trkpt lat="44.65855" lon="5.07984">
        <ele>479</ele>
        <time>2018-06-10T09:08:05Z</time>
      </trkpt>
      <trkpt lat="44.65854" lon="5.0798">
        <ele>479</ele>
        <time>2018-06-10T09:08:07Z</time>
      </trkpt>
      <trkpt lat="44.65854" lon="5.07976">
        <ele>479</ele>
        <time>2018-06-10T09:08:09Z</time>
      </trkpt>
      <trkpt lat="44.65854" lon="5.07972">
        <ele>480</ele>
        <time>2018-06-10T09:08:11Z</time>
      </trkpt>
      <trkpt lat="44.65853" lon="5.07969">
        <ele>480</ele>
        <time>2018-06-10T09:08:13Z</time>
      </trkpt>
      <trkpt lat="44.65852" lon="5.07966">
        <ele>480</ele>
        <time>2018-06-10T09:08:15Z</time>
      </trkpt>
      <trkpt lat="44.65851" lon="5.07962">
        <ele>481</ele>
        <time>2018-06-10T09:08:17Z</time>
      </trkpt>
      <trkpt lat="44.65849" lon="5.07957">
        <ele>481</ele>
        <time>2018-06-10T09:08:19Z</time>
      </trkpt>
      <trkpt lat="44.65849" lon="5.07953">
        <ele>481</ele>
        <time>2018-06-10T09:08:21Z</time>
      </trkpt>
      <trkpt lat="44.6585" lon="5.07949">
        <ele>482</ele>
        <time>2018-06-10T09:08:23Z</time>
      </trkpt>
      <trkpt lat="44.6585" lon="5.07947">
        <ele>482</ele>
        <time>2018-06-10T09:08:25Z</time>
      </trkpt>
      <trkpt lat="44.65849" lon="5.07944">
        <ele>482</ele>
        <time>2018-06-10T09:08:27Z</time>
      </trkpt>
      <trkpt lat="44.65848" lon="5.07941">
        <ele>482</ele>
        <time>2018-06-10T09:08:29Z</time>
      </trkpt>
      <trkpt lat="44.65847" lon="5.07938">
        <ele>483</ele>
        <time>2018-06-10T09:08:31Z</time>
      </trkpt>
      <trkpt lat="44.65846" lon="5.07934">
        <ele>483</ele>
        <time>2018-06-10T09:08:33Z</time>
      </trkpt>
      <trkpt lat="44.65845" lon="5.07931">
        <ele>483</ele>
        <time>2018-06-10T09:08:35Z</time>
      </trkpt>
      <trkpt lat="44.65845" lon="5.07928">
        <ele>484</ele>
        <time>2018-06-10T09:08:37Z</time>
      </trkpt>
      <trkpt lat="44.65844" lon="5.07924">
        <ele>484</ele>
        <time>2018-06-10T09:08:39Z</time>
      </trkpt>
      <trkpt lat="44.65843" lon="5.07921">
        <ele>485</ele>
        <time>2018-06-10T09:08:41Z</time>
      </trkpt>
      <trkpt lat="44.65841" lon="5.07918">
        <ele>485</ele>
        <time>2018-06-10T09:08:43Z</time>
      </trkpt>
      <trkpt lat="44.65839" lon="5.07915">
        <ele>485</ele>
        <time>2018-06-10T09:08:45Z</time>
      </trkpt>
      <trkpt lat="44.65837" lon="5.07911">
        <ele>485</ele>
        <time>2018-06-10T09:08:47Z</time>
      </trkpt>
      <trkpt lat="44.65836" lon="5.0791">
        <ele>486</ele>
        <time>2018-06-10T09:08:49Z</time>
      </trkpt>
      <trkpt lat="44.65835" lon="5.07907">
        <ele>486</ele>
        <time>2018-06-10T09:08:51Z</time>
      </trkpt>
      <trkpt lat="44.65835" lon="5.07903">
        <ele>487</ele>
        <time>2018-06-10T09:08:54Z</time>
      </trkpt>
      <trkpt lat="44.65833" lon="5.079">
        <ele>487</ele>
        <time>2018-06-10T09:08:56Z</time>
      </trkpt>
      <trkpt lat="44.65832" lon="5.07897">
        <ele>488</ele>
        <time>2018-06-10T09:08:58Z</time>
      </trkpt>
      <trkpt lat="44.6583" lon="5.07892">
        <ele>488</ele>
        <time>2018-06-10T09:09:00Z</time>
      </trkpt>
      <trkpt lat="44.6583" lon="5.07888">
        <ele>488</ele>
        <time>2018-06-10T09:09:02Z</time>
      </trkpt>
      <trkpt lat="44.65829" lon="5.07885">
        <ele>489</ele>
        <time>2018-06-10T09:09:04Z</time>
      </trkpt>
      <trkpt lat="44.65829" lon="5.07882">
        <ele>489</ele>
        <time>2018-06-10T09:09:06Z</time>
      </trkpt>
      <trkpt lat="44.65828" lon="5.0788">
        <ele>489</ele>
        <time>2018-06-10T09:09:08Z</time>
      </trkpt>
      <trkpt lat="44.65827" lon="5.07876">
        <ele>490</ele>
        <time>2018-06-10T09:09:10Z</time>
      </trkpt>
      <trkpt lat="44.65825" lon="5.07874">
        <ele>490</ele>
        <time>2018-06-10T09:09:12Z</time>
      </trkpt>
      <trkpt lat="44.65825" lon="5.0787">
        <ele>491</ele>
        <time>2018-06-10T09:09:14Z</time>
      </trkpt>
      <trkpt lat="44.65823" lon="5.07865">
        <ele>491</ele>
        <time>2018-06-10T09:09:16Z</time>
      </trkpt>
      <trkpt lat="44.65821" lon="5.0786">
        <ele>491</ele>
        <time>2018-06-10T09:09:18Z</time>
      </trkpt>
      <trkpt lat="44.65821" lon="5.07855">
        <ele>491</ele>
        <time>2018-06-10T09:09:20Z</time>
      </trkpt>
      <trkpt lat="44.6582" lon="5.07852">
        <ele>492</ele>
        <time>2018-06-10T09:09:22Z</time>
      </trkpt>
      <trkpt lat="44.65818" lon="5.07849">
        <ele>492</ele>
        <time>2018-06-10T09:09:24Z</time>
      </trkpt>
      <trkpt lat="44.65818" lon="5.07847">
        <ele>492</ele>
        <time>2018-06-10T09:09:26Z</time>
      </trkpt>
      <trkpt lat="44.65817" lon="5.07844">
        <ele>493</ele>
        <time>2018-06-10T09:09:28Z</time>
      </trkpt>
      <trkpt lat="44.65816" lon="5.0784">
        <ele>493</ele>
        <time>2018-06-10T09:09:30Z</time>
      </trkpt>
      <trkpt lat="44.65816" lon="5.07837">
        <ele>493</ele>
        <time>2018-06-10T09:09:32Z</time>
      </trkpt>
      <trkpt lat="44.65815" lon="5.07833">
        <ele>494</ele>
        <time>2018-06-10T09:09:34Z</time>
      </trkpt>
      <trkpt lat="44.65815" lon="5.07829">
        <ele>494</ele>
        <time>2018-06-10T09:09:36Z</time>
      </trkpt>
      <trkpt lat="44.65815" lon="5.07827">
        <ele>495</ele>
        <time>2018-06-10T09:09:38Z</time>
      </trkpt>
      <trkpt lat="44.65814" lon="5.07823">
        <ele>495</ele>
        <time>2018-06-10T09:09:40Z</time>
      </trkpt>
      <trkpt lat="44.65814" lon="5.07819">
        <ele>495</ele>
        <time>2018-06-10T09:09:42Z</time>
      </trkpt>
      <trkpt lat="44.65814" lon="5.07817">
        <ele>496</ele>
        <time>2018-06-10T09:09:44Z</time>
      </trkpt>
      <trkpt lat="44.65813" lon="5.07813">
        <ele>496</ele>
        <time>2018-06-10T09:09:46Z</time>
      </trkpt>
      <trkpt lat="44.65812" lon="5.0781">
        <ele>496</ele>
        <time>2018-06-10T09:09:48Z</time>
      </trkpt>
      <trkpt lat="44.65812" lon="5.07807">
        <ele>497</ele>
        <time>2018-06-10T09:09:50Z</time>
      </trkpt>
      <trkpt lat="44.65811" lon="5.07803">
        <ele>497</ele>
        <time>2018-06-10T09:09:52Z</time>
      </trkpt>
      <trkpt lat="44.65812" lon="5.078">
        <ele>497</ele>
        <time>2018-06-10T09:09:54Z</time>
      </trkpt>
      <trkpt lat="44.65811" lon="5.07797">
        <ele>498</ele>
        <time>2018-06-10T09:09:56Z</time>
      </trkpt>
      <trkpt lat="44.6581" lon="5.07793">
        <ele>497</ele>
        <time>2018-06-10T09:09:59Z</time>
      </trkpt>
      <trkpt lat="44.65809" lon="5.07791">
        <ele>498</ele>
        <time>2018-06-10T09:10:01Z</time>
      </trkpt>
      <trkpt lat="44.65809" lon="5.07787">
        <ele>498</ele>
        <time>2018-06-10T09:10:03Z</time>
      </trkpt>
      <trkpt lat="44.65808" lon="5.07784">
        <ele>498</ele>
        <time>2018-06-10T09:10:05Z</time>
      </trkpt>
      <trkpt lat="44.65806" lon="5.0778">
        <ele>498</ele>
        <time>2018-06-10T09:10:07Z</time>
      </trkpt>
      <trkpt lat="44.65805" lon="5.07776">
        <ele>499</ele>
        <time>2018-06-10T09:10:09Z</time>
      </trkpt>
      <trkpt lat="44.65804" lon="5.07771">
        <ele>499</ele>
        <time>2018-06-10T09:10:11Z</time>
      </trkpt>
      <trkpt lat="44.65802" lon="5.07767">
        <ele>500</ele>
        <time>2018-06-10T09:10:13Z</time>
      </trkpt>
      <trkpt lat="44.65801" lon="5.07764">
        <ele>500</ele>
        <time>2018-06-10T09:10:15Z</time>
      </trkpt>
      <trkpt lat="44.658" lon="5.07761">
        <ele>500</ele>
        <time>2018-06-10T09:10:17Z</time>
      </trkpt>
      <trkpt lat="44.65799" lon="5.07759">
        <ele>501</ele>
        <time>2018-06-10T09:10:19Z</time>
      </trkpt>
      <trkpt lat="44.65799" lon="5.07756">
        <ele>501</ele>
        <time>2018-06-10T09:10:21Z</time>
      </trkpt>
      <trkpt lat="44.65798" lon="5.07752">
        <ele>501</ele>
        <time>2018-06-10T09:10:23Z</time>
      </trkpt>
      <trkpt lat="44.65796" lon="5.07748">
        <ele>502</ele>
        <time>2018-06-10T09:10:25Z</time>
      </trkpt>
      <trkpt lat="44.65796" lon="5.07743">
        <ele>502</ele>
        <time>2018-06-10T09:10:27Z</time>
      </trkpt>
      <trkpt lat="44.65794" lon="5.07741">
        <ele>503</ele>
        <time>2018-06-10T09:10:29Z</time>
      </trkpt>
      <trkpt lat="44.65794" lon="5.07738">
        <ele>502</ele>
        <time>2018-06-10T09:10:31Z</time>
      </trkpt>
      <trkpt lat="44.65793" lon="5.07734">
        <ele>503</ele>
        <time>2018-06-10T09:10:33Z</time>
      </trkpt>
      <trkpt lat="44.65792" lon="5.0773">
        <ele>503</ele>
        <time>2018-06-10T09:10:35Z</time>
      </trkpt>
      <trkpt lat="44.65791" lon="5.07727">
        <ele>504</ele>
        <time>2018-06-10T09:10:37Z</time>
      </trkpt>
      <trkpt lat="44.6579" lon="5.07724">
        <ele>504</ele>
        <time>2018-06-10T09:10:39Z</time>
      </trkpt>
      <trkpt lat="44.65789" lon="5.07722">
        <ele>505</ele>
        <time>2018-06-10T09:10:41Z</time>
      </trkpt>
      <trkpt lat="44.65789" lon="5.07718">
        <ele>505</ele>
        <time>2018-06-10T09:10:43Z</time>
      </trkpt>
      <trkpt lat="44.65787" lon="5.07716">
        <ele>505</ele>
        <time>2018-06-10T09:10:45Z</time>
      </trkpt>
      <trkpt lat="44.65784" lon="5.07714">
        <ele>505</ele>
        <time>2018-06-10T09:10:47Z</time>
      </trkpt>
      <trkpt lat="44.65783" lon="5.0771">
        <ele>505</ele>
        <time>2018-06-10T09:10:49Z</time>
      </trkpt>
      <trkpt lat="44.65781" lon="5.07706">
        <ele>506</ele>
        <time>2018-06-10T09:10:51Z</time>
      </trkpt>
      <trkpt lat="44.6578" lon="5.07701">
        <ele>506</ele>
        <time>2018-06-10T09:10:53Z</time>
      </trkpt>
      <trkpt lat="44.6578" lon="5.07699">
        <ele>506</ele>
        <time>2018-06-10T09:10:55Z</time>
      </trkpt>
      <trkpt lat="44.65779" lon="5.07694">
        <ele>506</ele>
        <time>2018-06-10T09:10:57Z</time>
      </trkpt>
      <trkpt lat="44.65779" lon="5.07687">
        <ele>506</ele>
        <time>2018-06-10T09:10:59Z</time>
      </trkpt>
      <trkpt lat="44.65778" lon="5.07681">
        <ele>506</ele>
        <time>2018-06-10T09:11:01Z</time>
      </trkpt>
      <trkpt lat="44.6578" lon="5.07674">
        <ele>507</ele>
        <time>2018-06-10T09:11:03Z</time>
      </trkpt>
      <trkpt lat="44.65779" lon="5.07668">
        <ele>507</ele>
        <time>2018-06-10T09:11:05Z</time>
      </trkpt>
      <trkpt lat="44.6578" lon="5.07663">
        <ele>507</ele>
        <time>2018-06-10T09:11:07Z</time>
      </trkpt>
      <trkpt lat="44.65782" lon="5.07657">
        <ele>507</ele>
        <time>2018-06-10T09:11:09Z</time>
      </trkpt>
      <trkpt lat="44.65782" lon="5.07651">
        <ele>508</ele>
        <time>2018-06-10T09:11:11Z</time>
      </trkpt>
      <trkpt lat="44.65782" lon="5.07646">
        <ele>508</ele>
        <time>2018-06-10T09:11:13Z</time>
      </trkpt>
      <trkpt lat="44.65782" lon="5.07643">
        <ele>508</ele>
        <time>2018-06-10T09:11:16Z</time>
      </trkpt>
      <trkpt lat="44.65781" lon="5.07639">
        <ele>508</ele>
        <time>2018-06-10T09:11:18Z</time>
      </trkpt>
      <trkpt lat="44.65779" lon="5.07633">
        <ele>509</ele>
        <time>2018-06-10T09:11:20Z</time>
      </trkpt>
      <trkpt lat="44.65779" lon="5.07626">
        <ele>509</ele>
        <time>2018-06-10T09:11:22Z</time>
      </trkpt>
      <trkpt lat="44.65778" lon="5.07621">
        <ele>509</ele>
        <time>2018-06-10T09:11:24Z</time>
      </trkpt>
      <trkpt lat="44.65776" lon="5.0762">
        <ele>510</ele>
        <time>2018-06-10T09:11:26Z</time>
      </trkpt>
      <trkpt lat="44.65775" lon="5.07617">
        <ele>510</ele>
        <time>2018-06-10T09:11:28Z</time>
      </trkpt>
      <trkpt lat="44.65775" lon="5.07615">
        <ele>510</ele>
        <time>2018-06-10T09:11:30Z</time>
      </trkpt>
      <trkpt lat="44.65774" lon="5.07611">
        <ele>510</ele>
        <time>2018-06-10T09:11:32Z</time>
      </trkpt>
      <trkpt lat="44.65773" lon="5.07608">
        <ele>511</ele>
        <time>2018-06-10T09:11:34Z</time>
      </trkpt>
      <trkpt lat="44.65772" lon="5.07605">
        <ele>511</ele>
        <time>2018-06-10T09:11:36Z</time>
      </trkpt>
      <trkpt lat="44.65769" lon="5.07599">
        <ele>511</ele>
        <time>2018-06-10T09:11:38Z</time>
      </trkpt>
      <trkpt lat="44.65768" lon="5.07595">
        <ele>512</ele>
        <time>2018-06-10T09:11:40Z</time>
      </trkpt>
      <trkpt lat="44.65767" lon="5.07591">
        <ele>512</ele>
        <time>2018-06-10T09:11:42Z</time>
      </trkpt>
      <trkpt lat="44.65766" lon="5.07587">
        <ele>513</ele>
        <time>2018-06-10T09:11:44Z</time>
      </trkpt>
      <trkpt lat="44.65766" lon="5.07583">
        <ele>513</ele>
        <time>2018-06-10T09:11:46Z</time>
      </trkpt>
      <trkpt lat="44.65766" lon="5.0758">
        <ele>513</ele>
        <time>2018-06-10T09:11:48Z</time>
      </trkpt>
      <trkpt lat="44.65765" lon="5.07576">
        <ele>514</ele>
        <time>2018-06-10T09:11:50Z</time>
      </trkpt>
      <trkpt lat="44.65763" lon="5.07573">
        <ele>514</ele>
        <time>2018-06-10T09:11:52Z</time>
      </trkpt>
      <trkpt lat="44.65762" lon="5.07569">
        <ele>514</ele>
        <time>2018-06-10T09:11:54Z</time>
      </trkpt>
      <trkpt lat="44.65761" lon="5.07567">
        <ele>514</ele>
        <time>2018-06-10T09:11:56Z</time>
      </trkpt>
      <trkpt lat="44.6576" lon="5.07564">
        <ele>515</ele>
        <time>2018-06-10T09:11:58Z</time>
      </trkpt>
      <trkpt lat="44.65758" lon="5.0756">
        <ele>515</ele>
        <time>2018-06-10T09:12:00Z</time>
      </trkpt>
      <trkpt lat="44.65759" lon="5.07556">
        <ele>515</ele>
        <time>2018-06-10T09:12:02Z</time>
      </trkpt>
      <trkpt lat="44.65763" lon="5.07549">
        <ele>515</ele>
        <time>2018-06-10T09:12:04Z</time>
      </trkpt>
      <trkpt lat="44.65766" lon="5.07546">
        <ele>516</ele>
        <time>2018-06-10T09:12:06Z</time>
      </trkpt>
      <trkpt lat="44.65767" lon="5.07546">
        <ele>516</ele>
        <time>2018-06-10T09:12:08Z</time>
      </trkpt>
      <trkpt lat="44.65768" lon="5.07544">
        <ele>516</ele>
        <time>2018-06-10T09:12:10Z</time>
      </trkpt>
      <trkpt lat="44.65771" lon="5.07543">
        <ele>517</ele>
        <time>2018-06-10T09:12:12Z</time>
      </trkpt>
      <trkpt lat="44.65772" lon="5.07544">
        <ele>517</ele>
        <time>2018-06-10T09:12:15Z</time>
      </trkpt>
      <trkpt lat="44.65774" lon="5.07545">
        <ele>517</ele>
        <time>2018-06-10T09:12:17Z</time>
      </trkpt>
      <trkpt lat="44.65779" lon="5.07543">
        <ele>518</ele>
        <time>2018-06-10T09:12:19Z</time>
      </trkpt>
      <trkpt lat="44.65783" lon="5.07541">
        <ele>518</ele>
        <time>2018-06-10T09:12:21Z</time>
      </trkpt>
      <trkpt lat="44.65786" lon="5.07541">
        <ele>519</ele>
        <time>2018-06-10T09:12:23Z</time>
      </trkpt>
      <trkpt lat="44.65787" lon="5.0754">
        <ele>519</ele>
        <time>2018-06-10T09:12:25Z</time>
      </trkpt>
      <trkpt lat="44.65789" lon="5.07538">
        <ele>520</ele>
        <time>2018-06-10T09:12:27Z</time>
      </trkpt>
      <trkpt lat="44.65792" lon="5.07536">
        <ele>520</ele>
        <time>2018-06-10T09:12:29Z</time>
      </trkpt>
      <trkpt lat="44.65795" lon="5.07532">
        <ele>520</ele>
        <time>2018-06-10T09:12:31Z</time>
      </trkpt>
      <trkpt lat="44.65798" lon="5.07531">
        <ele>520</ele>
        <time>2018-06-10T09:12:33Z</time>
      </trkpt>
      <trkpt lat="44.65801" lon="5.07528">
        <ele>521</ele>
        <time>2018-06-10T09:12:35Z</time>
      </trkpt>
      <trkpt lat="44.65804" lon="5.07528">
        <ele>522</ele>
        <time>2018-06-10T09:12:37Z</time>
      </trkpt>
      <trkpt lat="44.65806" lon="5.07525">
        <ele>522</ele>
        <time>2018-06-10T09:12:39Z</time>
      </trkpt>
      <trkpt lat="44.65808" lon="5.07522">
        <ele>522</ele>
        <time>2018-06-10T09:12:41Z</time>
      </trkpt>
      <trkpt lat="44.6581" lon="5.07521">
        <ele>523</ele>
        <time>2018-06-10T09:12:43Z</time>
      </trkpt>
      <trkpt lat="44.65813" lon="5.0752">
        <ele>523</ele>
        <time>2018-06-10T09:12:45Z</time>
      </trkpt>
      <trkpt lat="44.65815" lon="5.07519">
        <ele>523</ele>
        <time>2018-06-10T09:12:47Z</time>
      </trkpt>
      <trkpt lat="44.65817" lon="5.0752">
        <ele>524</ele>
        <time>2018-06-10T09:12:49Z</time>
      </trkpt>
      <trkpt lat="44.6582" lon="5.07519">
        <ele>524</ele>
        <time>2018-06-10T09:12:52Z</time>
      </trkpt>
      <trkpt lat="44.65823" lon="5.07517">
        <ele>525</ele>
        <time>2018-06-10T09:12:54Z</time>
      </trkpt>
      <trkpt lat="44.65825" lon="5.07519">
        <ele>525</ele>
        <time>2018-06-10T09:12:56Z</time>
      </trkpt>
      <trkpt lat="44.65828" lon="5.07518">
        <ele>526</ele>
        <time>2018-06-10T09:12:58Z</time>
      </trkpt>
      <trkpt lat="44.6583" lon="5.07518">
        <ele>527</ele>
        <time>2018-06-10T09:13:00Z</time>
      </trkpt>
      <trkpt lat="44.65833" lon="5.07517">
        <ele>527</ele>
        <time>2018-06-10T09:13:02Z</time>
      </trkpt>
      <trkpt lat="44.65834" lon="5.07517">
        <ele>527</ele>
        <time>2018-06-10T09:13:04Z</time>
      </trkpt>
      <trkpt lat="44.65836" lon="5.07518">
        <ele>528</ele>
        <time>2018-06-10T09:13:06Z</time>
      </trkpt>
      <trkpt lat="44.65839" lon="5.07519">
        <ele>529</ele>
        <time>2018-06-10T09:13:08Z</time>
      </trkpt>
      <trkpt lat="44.65841" lon="5.07518">
        <ele>529</ele>
        <time>2018-06-10T09:13:10Z</time>
      </trkpt>
      <trkpt lat="44.65844" lon="5.07517">
        <ele>529</ele>
        <time>2018-06-10T09:13:12Z</time>
      </trkpt>
      <trkpt lat="44.65848" lon="5.07515">
        <ele>529</ele>
        <time>2018-06-10T09:13:14Z</time>
      </trkpt>
      <trkpt lat="44.65849" lon="5.07514">
        <ele>529</ele>
        <time>2018-06-10T09:13:16Z</time>
      </trkpt>
      <trkpt lat="44.65851" lon="5.07513">
        <ele>530</ele>
        <time>2018-06-10T09:13:18Z</time>
      </trkpt>
      <trkpt lat="44.65853" lon="5.07513">
        <ele>530</ele>
        <time>2018-06-10T09:13:20Z</time>
      </trkpt>
      <trkpt lat="44.65856" lon="5.07512">
        <ele>531</ele>
        <time>2018-06-10T09:13:22Z</time>
      </trkpt>
      <trkpt lat="44.6586" lon="5.0751">
        <ele>531</ele>
        <time>2018-06-10T09:13:24Z</time>
      </trkpt>
      <trkpt lat="44.65863" lon="5.0751">
        <ele>531</ele>
        <time>2018-06-10T09:13:26Z</time>
      </trkpt>
      <trkpt lat="44.65867" lon="5.07509">
        <ele>532</ele>
        <time>2018-06-10T09:13:28Z</time>
      </trkpt>
      <trkpt lat="44.65869" lon="5.0751">
        <ele>531</ele>
        <time>2018-06-10T09:13:30Z</time>
      </trkpt>
      <trkpt lat="44.65872" lon="5.0751">
        <ele>532</ele>
        <time>2018-06-10T09:13:32Z</time>
      </trkpt>
      <trkpt lat="44.65874" lon="5.0751">
        <ele>532</ele>
        <time>2018-06-10T09:13:34Z</time>
      </trkpt>
      <trkpt lat="44.65876" lon="5.07511">
        <ele>532</ele>
        <time>2018-06-10T09:13:36Z</time>
      </trkpt>
      <trkpt lat="44.6588" lon="5.07511">
        <ele>532</ele>
        <time>2018-06-10T09:13:38Z</time>
      </trkpt>
      <trkpt lat="44.65882" lon="5.07512">
        <ele>533</ele>
        <time>2018-06-10T09:13:40Z</time>
      </trkpt>
      <trkpt lat="44.65885" lon="5.07512">
        <ele>533</ele>
        <time>2018-06-10T09:13:42Z</time>
      </trkpt>
      <trkpt lat="44.65887" lon="5.07511">
        <ele>533</ele>
        <time>2018-06-10T09:13:44Z</time>
      </trkpt>
      <trkpt lat="44.65889" lon="5.07511">
        <ele>534</ele>
        <time>2018-06-10T09:13:46Z</time>
      </trkpt>
      <trkpt lat="44.65891" lon="5.07512">
        <ele>534</ele>
        <time>2018-06-10T09:13:48Z</time>
      </trkpt>
      <trkpt lat="44.65893" lon="5.07511">
        <ele>534</ele>
        <time>2018-06-10T09:13:50Z</time>
      </trkpt>
      <trkpt lat="44.65896" lon="5.07511">
        <ele>535</ele>
        <time>2018-06-10T09:13:52Z</time>
      </trkpt>
      <trkpt lat="44.65898" lon="5.0751">
        <ele>535</ele>
        <time>2018-06-10T09:13:54Z</time>
      </trkpt>
      <trkpt lat="44.659" lon="5.07509">
        <ele>536</ele>
        <time>2018-06-10T09:13:56Z</time>
      </trkpt>
      <trkpt lat="44.65903" lon="5.07506">
        <ele>536</ele>
        <time>2018-06-10T09:13:58Z</time>
      </trkpt>
      <trkpt lat="44.65905" lon="5.07503">
        <ele>536</ele>
        <time>2018-06-10T09:14:00Z</time>
      </trkpt>
      <trkpt lat="44.65906" lon="5.075">
        <ele>537</ele>
        <time>2018-06-10T09:14:02Z</time>
      </trkpt>
      <trkpt lat="44.65907" lon="5.07497">
        <ele>537</ele>
        <time>2018-06-10T09:14:05Z</time>
      </trkpt>
      <trkpt lat="44.65906" lon="5.07494">
        <ele>537</ele>
        <time>2018-06-10T09:14:07Z</time>
      </trkpt>
      <trkpt lat="44.65905" lon="5.07493">
        <ele>538</ele>
        <time>2018-06-10T09:14:09Z</time>
      </trkpt>
      <trkpt lat="44.65903" lon="5.07492">
        <ele>538</ele>
        <time>2018-06-10T09:14:11Z</time>
      </trkpt>
      <trkpt lat="44.65903" lon="5.0749">
        <ele>538</ele>
        <time>2018-06-10T09:14:13Z</time>
      </trkpt>
      <trkpt lat="44.65903" lon="5.0749">
        <ele>537</ele>
        <time>2018-06-10T09:14:15Z</time>
      </trkpt>
      <trkpt lat="44.65902" lon="5.0749">
        <ele>538</ele>
        <time>2018-06-10T09:14:17Z</time>
      </trkpt>
      <trkpt lat="44.65903" lon="5.0749">
        <ele>538</ele>
        <time>2018-06-10T09:14:19Z</time>
      </trkpt>
      <trkpt lat="44.65904" lon="5.07491">
        <ele>538</ele>
        <time>2018-06-10T09:14:21Z</time>
      </trkpt>
      <trkpt lat="44.65906" lon="5.0749">
        <ele>538</ele>
        <time>2018-06-10T09:14:23Z</time>
      </trkpt>
      <trkpt lat="44.65907" lon="5.07489">
        <ele>537</ele>
        <time>2018-06-10T09:14:25Z</time>
      </trkpt>
      <trkpt lat="44.65908" lon="5.0749">
        <ele>537</ele>
        <time>2018-06-10T09:14:27Z</time>
      </trkpt>
      <trkpt lat="44.6591" lon="5.07488">
        <ele>537</ele>
        <time>2018-06-10T09:14:29Z</time>
      </trkpt>
      <trkpt lat="44.65913" lon="5.07488">
        <ele>536</ele>
        <time>2018-06-10T09:14:31Z</time>
      </trkpt>
      <trkpt lat="44.65914" lon="5.07488">
        <ele>536</ele>
        <time>2018-06-10T09:14:33Z</time>
      </trkpt>
      <trkpt lat="44.65916" lon="5.07488">
        <ele>536</ele>
        <time>2018-06-10T09:14:35Z</time>
      </trkpt>
      <trkpt lat="44.65918" lon="5.07483">
        <ele>536</ele>
        <time>2018-06-10T09:14:37Z</time>
      </trkpt>
      <trkpt lat="44.65917" lon="5.07474">
        <ele>535</ele>
        <time>2018-06-10T09:14:39Z</time>
      </trkpt>
      <trkpt lat="44.65918" lon="5.07462">
        <ele>534</ele>
        <time>2018-06-10T09:14:41Z</time>
      </trkpt>
      <trkpt lat="44.65922" lon="5.07446">
        <ele>533</ele>
        <time>2018-06-10T09:14:43Z</time>
      </trkpt>
      <trkpt lat="44.65925" lon="5.0743">
        <ele>531</ele>
        <time>2018-06-10T09:14:45Z</time>
      </trkpt>
      <trkpt lat="44.65923" lon="5.07411">
        <ele>531</ele>
        <time>2018-06-10T09:14:47Z</time>
      </trkpt>
      <trkpt lat="44.65921" lon="5.07393">
        <ele>530</ele>
        <time>2018-06-10T09:14:49Z</time>
      </trkpt>
      <trkpt lat="44.6592" lon="5.07375">
        <ele>528</ele>
        <time>2018-06-10T09:14:51Z</time>
      </trkpt>
      <trkpt lat="44.65919" lon="5.07359">
        <ele>527</ele>
        <time>2018-06-10T09:14:53Z</time>
      </trkpt>
      <trkpt lat="44.65917" lon="5.0735">
        <ele>526</ele>
        <time>2018-06-10T09:14:55Z</time>
      </trkpt>
      <trkpt lat="44.65918" lon="5.07343">
        <ele>525</ele>
        <time>2018-06-10T09:14:57Z</time>
      </trkpt>
      <trkpt lat="44.65921" lon="5.07333">
        <ele>525</ele>
        <time>2018-06-10T09:14:59Z</time>
      </trkpt>
      <trkpt lat="44.65923" lon="5.07325">
        <ele>525</ele>
        <time>2018-06-10T09:15:01Z</time>
      </trkpt>
      <trkpt lat="44.65924" lon="5.0732">
        <ele>525</ele>
        <time>2018-06-10T09:15:03Z</time>
      </trkpt>
      <trkpt lat="44.65925" lon="5.07314">
        <ele>525</ele>
        <time>2018-06-10T09:15:05Z</time>
      </trkpt>
      <trkpt lat="44.65925" lon="5.07305">
        <ele>524</ele>
        <time>2018-06-10T09:15:07Z</time>
      </trkpt>
      <trkpt lat="44.65924" lon="5.07295">
        <ele>523</ele>
        <time>2018-06-10T09:15:09Z</time>
      </trkpt>
      <trkpt lat="44.65918" lon="5.07287">
        <ele>523</ele>
        <time>2018-06-10T09:15:11Z</time>
      </trkpt>
      <trkpt lat="44.65914" lon="5.07279">
        <ele>521</ele>
        <time>2018-06-10T09:15:13Z</time>
      </trkpt>
      <trkpt lat="44.65908" lon="5.07278">
        <ele>520</ele>
        <time>2018-06-10T09:15:15Z</time>
      </trkpt>
      <trkpt lat="44.65906" lon="5.07268">
        <ele>520</ele>
        <time>2018-06-10T09:15:17Z</time>
      </trkpt>
      <trkpt lat="44.65903" lon="5.07258">
        <ele>521</ele>
        <time>2018-06-10T09:15:19Z</time>
      </trkpt>
      <trkpt lat="44.65904" lon="5.07251">
        <ele>522</ele>
        <time>2018-06-10T09:15:21Z</time>
      </trkpt>
      <trkpt lat="44.65905" lon="5.07244">
        <ele>522</ele>
        <time>2018-06-10T09:15:23Z</time>
      </trkpt>
      <trkpt lat="44.65903" lon="5.07238">
        <ele>522</ele>
        <time>2018-06-10T09:15:25Z</time>
      </trkpt>
      <trkpt lat="44.65905" lon="5.07232">
        <ele>522</ele>
        <time>2018-06-10T09:15:27Z</time>
      </trkpt>
      <trkpt lat="44.65905" lon="5.07227">
        <ele>523</ele>
        <time>2018-06-10T09:15:29Z</time>
      </trkpt>
      <trkpt lat="44.65907" lon="5.0722">
        <ele>523</ele>
        <time>2018-06-10T09:15:31Z</time>
      </trkpt>
      <trkpt lat="44.65906" lon="5.07213">
        <ele>523</ele>
        <time>2018-06-10T09:15:33Z</time>
      </trkpt>
      <trkpt lat="44.65906" lon="5.0721">
        <ele>523</ele>
        <time>2018-06-10T09:15:35Z</time>
      </trkpt>
      <trkpt lat="44.65908" lon="5.07206">
        <ele>523</ele>
        <time>2018-06-10T09:15:37Z</time>
      </trkpt>
      <trkpt lat="44.6591" lon="5.07204">
        <ele>523</ele>
        <time>2018-06-10T09:15:39Z</time>
      </trkpt>
      <trkpt lat="44.65913" lon="5.07202">
        <ele>523</ele>
        <time>2018-06-10T09:15:41Z</time>
      </trkpt>
      <trkpt lat="44.65916" lon="5.072">
        <ele>523</ele>
        <time>2018-06-10T09:15:43Z</time>
      </trkpt>
      <trkpt lat="44.6592" lon="5.07197">
        <ele>524</ele>
        <time>2018-06-10T09:15:45Z</time>
      </trkpt>
      <trkpt lat="44.65924" lon="5.07194">
        <ele>524</ele>
        <time>2018-06-10T09:15:47Z</time>
      </trkpt>
      <trkpt lat="44.65926" lon="5.07191">
        <ele>524</ele>
        <time>2018-06-10T09:15:49Z</time>
      </trkpt>
      <trkpt lat="44.6593" lon="5.0719">
        <ele>524</ele>
        <time>2018-06-10T09:15:52Z</time>
      </trkpt>
      <trkpt lat="44.65932" lon="5.0719">
        <ele>524</ele>
        <time>2018-06-10T09:15:54Z</time>
      </trkpt>
      <trkpt lat="44.65935" lon="5.07187">
        <ele>525</ele>
        <time>2018-06-10T09:15:56Z</time>
      </trkpt>
      <trkpt lat="44.65939" lon="5.07183">
        <ele>525</ele>
        <time>2018-06-10T09:15:58Z</time>
      </trkpt>
      <trkpt lat="44.65943" lon="5.07178">
        <ele>526</ele>
        <time>2018-06-10T09:16:00Z</time>
      </trkpt>
      <trkpt lat="44.65947" lon="5.07174">
        <ele>526</ele>
        <time>2018-06-10T09:16:02Z</time>
      </trkpt>
      <trkpt lat="44.6595" lon="5.07168">
        <ele>527</ele>
        <time>2018-06-10T09:16:04Z</time>
      </trkpt>
      <trkpt lat="44.65954" lon="5.07163">
        <ele>527</ele>
        <time>2018-06-10T09:16:06Z</time>
      </trkpt>
      <trkpt lat="44.65957" lon="5.07158">
        <ele>527</ele>
        <time>2018-06-10T09:16:08Z</time>
      </trkpt>
      <trkpt lat="44.65961" lon="5.07155">
        <ele>527</ele>
        <time>2018-06-10T09:16:10Z</time>
      </trkpt>
      <trkpt lat="44.65964" lon="5.07152">
        <ele>527</ele>
        <time>2018-06-10T09:16:12Z</time>
      </trkpt>
      <trkpt lat="44.65967" lon="5.07151">
        <ele>527</ele>
        <time>2018-06-10T09:16:14Z</time>
      </trkpt>
      <trkpt lat="44.65973" lon="5.07148">
        <ele>527</ele>
        <time>2018-06-10T09:16:16Z</time>
      </trkpt>
      <trkpt lat="44.65977" lon="5.07148">
        <ele>527</ele>
        <time>2018-06-10T09:16:18Z</time>
      </trkpt>
      <trkpt lat="44.65982" lon="5.07147">
        <ele>528</ele>
        <time>2018-06-10T09:16:20Z</time>
      </trkpt>
      <trkpt lat="44.65984" lon="5.07147">
        <ele>528</ele>
        <time>2018-06-10T09:16:22Z</time>
      </trkpt>
      <trkpt lat="44.65988" lon="5.07146">
        <ele>529</ele>
        <time>2018-06-10T09:16:24Z</time>
      </trkpt>
      <trkpt lat="44.65992" lon="5.07145">
        <ele>529</ele>
        <time>2018-06-10T09:16:26Z</time>
      </trkpt>
      <trkpt lat="44.65997" lon="5.07144">
        <ele>529</ele>
        <time>2018-06-10T09:16:28Z</time>
      </trkpt>
      <trkpt lat="44.66001" lon="5.07142">
        <ele>529</ele>
        <time>2018-06-10T09:16:30Z</time>
      </trkpt>
      <trkpt lat="44.66004" lon="5.07142">
        <ele>530</ele>
        <time>2018-06-10T09:16:32Z</time>
      </trkpt>
      <trkpt lat="44.66006" lon="5.07141">
        <ele>530</ele>
        <time>2018-06-10T09:16:34Z</time>
      </trkpt>
      <trkpt lat="44.66009" lon="5.07139">
        <ele>530</ele>
        <time>2018-06-10T09:16:36Z</time>
      </trkpt>
      <trkpt lat="44.66013" lon="5.07136">
        <ele>531</ele>
        <time>2018-06-10T09:16:38Z</time>
      </trkpt>
      <trkpt lat="44.66018" lon="5.07133">
        <ele>531</ele>
        <time>2018-06-10T09:16:40Z</time>
      </trkpt>
      <trkpt lat="44.66022" lon="5.07132">
        <ele>531</ele>
        <time>2018-06-10T09:16:42Z</time>
      </trkpt>
      <trkpt lat="44.66026" lon="5.07129">
        <ele>531</ele>
        <time>2018-06-10T09:16:44Z</time>
      </trkpt>
      <trkpt lat="44.66031" lon="5.07126">
        <ele>532</ele>
        <time>2018-06-10T09:16:46Z</time>
      </trkpt>
      <trkpt lat="44.66036" lon="5.07122">
        <ele>532</ele>
        <time>2018-06-10T09:16:49Z</time>
      </trkpt>
      <trkpt lat="44.66038" lon="5.07118">
        <ele>532</ele>
        <time>2018-06-10T09:16:51Z</time>
      </trkpt>
      <trkpt lat="44.66041" lon="5.07114">
        <ele>533</ele>
        <time>2018-06-10T09:16:53Z</time>
      </trkpt>
      <trkpt lat="44.66045" lon="5.07107">
        <ele>533</ele>
        <time>2018-06-10T09:16:55Z</time>
      </trkpt>
      <trkpt lat="44.66047" lon="5.07102">
        <ele>533</ele>
        <time>2018-06-10T09:16:57Z</time>
      </trkpt>
      <trkpt lat="44.66048" lon="5.071">
        <ele>533</ele>
        <time>2018-06-10T09:16:59Z</time>
      </trkpt>
      <trkpt lat="44.66048" lon="5.07095">
        <ele>533</ele>
        <time>2018-06-10T09:17:01Z</time>
      </trkpt>
      <trkpt lat="44.66047" lon="5.07089">
        <ele>533</ele>
        <time>2018-06-10T09:17:03Z</time>
      </trkpt>
      <trkpt lat="44.66045" lon="5.07084">
        <ele>532</ele>
        <time>2018-06-10T09:17:05Z</time>
      </trkpt>
      <trkpt lat="44.6604" lon="5.07072">
        <ele>532</ele>
        <time>2018-06-10T09:17:07Z</time>
      </trkpt>
      <trkpt lat="44.66037" lon="5.07064">
        <ele>531</ele>
        <time>2018-06-10T09:17:09Z</time>
      </trkpt>
      <trkpt lat="44.66032" lon="5.07056">
        <ele>530</ele>
        <time>2018-06-10T09:17:11Z</time>
      </trkpt>
      <trkpt lat="44.66026" lon="5.07039">
        <ele>528</ele>
        <time>2018-06-10T09:17:13Z</time>
      </trkpt>
      <trkpt lat="44.6602" lon="5.07017">
        <ele>527</ele>
        <time>2018-06-10T09:17:15Z</time>
      </trkpt>
      <trkpt lat="44.66015" lon="5.06992">
        <ele>525</ele>
        <time>2018-06-10T09:17:17Z</time>
      </trkpt>
      <trkpt lat="44.66009" lon="5.06971">
        <ele>522</ele>
        <time>2018-06-10T09:17:19Z</time>
      </trkpt>
      <trkpt lat="44.66002" lon="5.06956">
        <ele>522</ele>
        <time>2018-06-10T09:17:21Z</time>
      </trkpt>
      <trkpt lat="44.65993" lon="5.06943">
        <ele>518</ele>
        <time>2018-06-10T09:17:23Z</time>
      </trkpt>
      <trkpt lat="44.6598" lon="5.06932">
        <ele>517</ele>
        <time>2018-06-10T09:17:25Z</time>
      </trkpt>
      <trkpt lat="44.65969" lon="5.06923">
        <ele>515</ele>
        <time>2018-06-10T09:17:27Z</time>
      </trkpt>
      <trkpt lat="44.65958" lon="5.06914">
        <ele>514</ele>
        <time>2018-06-10T09:17:29Z</time>
      </trkpt>
      <trkpt lat="44.65946" lon="5.06904">
        <ele>513</ele>
        <time>2018-06-10T09:17:31Z</time>
      </trkpt>
      <trkpt lat="44.65931" lon="5.069">
        <ele>511</ele>
        <time>2018-06-10T09:17:33Z</time>
      </trkpt>
      <trkpt lat="44.65921" lon="5.06897">
        <ele>511</ele>
        <time>2018-06-10T09:17:35Z</time>
      </trkpt>
      <trkpt lat="44.65916" lon="5.06889">
        <ele>510</ele>
        <time>2018-06-10T09:17:37Z</time>
      </trkpt>
      <trkpt lat="44.65915" lon="5.06876">
        <ele>511</ele>
        <time>2018-06-10T09:17:39Z</time>
      </trkpt>
      <trkpt lat="44.65915" lon="5.06866">
        <ele>511</ele>
        <time>2018-06-10T09:17:41Z</time>
      </trkpt>
      <trkpt lat="44.65915" lon="5.06858">
        <ele>512</ele>
        <time>2018-06-10T09:17:43Z</time>
      </trkpt>
      <trkpt lat="44.65913" lon="5.0685">
        <ele>512</ele>
        <time>2018-06-10T09:17:45Z</time>
      </trkpt>
      <trkpt lat="44.65912" lon="5.06841">
        <ele>512</ele>
        <time>2018-06-10T09:17:47Z</time>
      </trkpt>
      <trkpt lat="44.65911" lon="5.06834">
        <ele>512</ele>
        <time>2018-06-10T09:17:49Z</time>
      </trkpt>
      <trkpt lat="44.6591" lon="5.06829">
        <ele>513</ele>
        <time>2018-06-10T09:17:51Z</time>
      </trkpt>
      <trkpt lat="44.65909" lon="5.06824">
        <ele>513</ele>
        <time>2018-06-10T09:17:53Z</time>
      </trkpt>
      <trkpt lat="44.65909" lon="5.0682">
        <ele>514</ele>
        <time>2018-06-10T09:17:55Z</time>
      </trkpt>
      <trkpt lat="44.65908" lon="5.06816">
        <ele>514</ele>
        <time>2018-06-10T09:17:57Z</time>
      </trkpt>
      <trkpt lat="44.65908" lon="5.06812">
        <ele>515</ele>
        <time>2018-06-10T09:17:59Z</time>
      </trkpt>
      <trkpt lat="44.65907" lon="5.06808">
        <ele>515</ele>
        <time>2018-06-10T09:18:01Z</time>
      </trkpt>
      <trkpt lat="44.65908" lon="5.06802">
        <ele>515</ele>
        <time>2018-06-10T09:18:04Z</time>
      </trkpt>
      <trkpt lat="44.65907" lon="5.06799">
        <ele>516</ele>
        <time>2018-06-10T09:18:06Z</time>
      </trkpt>
      <trkpt lat="44.65907" lon="5.06796">
        <ele>516</ele>
        <time>2018-06-10T09:18:08Z</time>
      </trkpt>
      <trkpt lat="44.65906" lon="5.06793">
        <ele>517</ele>
        <time>2018-06-10T09:18:10Z</time>
      </trkpt>
      <trkpt lat="44.65905" lon="5.0679">
        <ele>517</ele>
        <time>2018-06-10T09:18:12Z</time>
      </trkpt>
      <trkpt lat="44.65904" lon="5.06786">
        <ele>517</ele>
        <time>2018-06-10T09:18:14Z</time>
      </trkpt>
      <trkpt lat="44.65903" lon="5.06782">
        <ele>518</ele>
        <time>2018-06-10T09:18:16Z</time>
      </trkpt>
      <trkpt lat="44.65903" lon="5.06779">
        <ele>518</ele>
        <time>2018-06-10T09:18:18Z</time>
      </trkpt>
      <trkpt lat="44.65903" lon="5.06777">
        <ele>518</ele>
        <time>2018-06-10T09:18:20Z</time>
      </trkpt>
      <trkpt lat="44.65903" lon="5.06776">
        <ele>518</ele>
        <time>2018-06-10T09:18:22Z</time>
      </trkpt>
      <trkpt lat="44.65904" lon="5.06777">
        <ele>519</ele>
        <time>2018-06-10T09:18:24Z</time>
      </trkpt>
      <trkpt lat="44.65905" lon="5.06777">
        <ele>519</ele>
        <time>2018-06-10T09:18:26Z</time>
      </trkpt>
      <trkpt lat="44.65909" lon="5.06777">
        <ele>519</ele>
        <time>2018-06-10T09:18:28Z</time>
      </trkpt>
      <trkpt lat="44.65911" lon="5.06778">
        <ele>519</ele>
        <time>2018-06-10T09:18:30Z</time>
      </trkpt>
      <trkpt lat="44.65913" lon="5.06778">
        <ele>519</ele>
        <time>2018-06-10T09:18:32Z</time>
      </trkpt>
      <trkpt lat="44.65915" lon="5.06778">
        <ele>519</ele>
        <time>2018-06-10T09:18:34Z</time>
      </trkpt>
      <trkpt lat="44.65918" lon="5.06778">
        <ele>520</ele>
        <time>2018-06-10T09:18:36Z</time>
      </trkpt>
      <trkpt lat="44.65921" lon="5.06776">
        <ele>520</ele>
        <time>2018-06-10T09:18:38Z</time>
      </trkpt>
      <trkpt lat="44.65923" lon="5.06775">
        <ele>520</ele>
        <time>2018-06-10T09:18:40Z</time>
      </trkpt>
      <trkpt lat="44.65925" lon="5.06774">
        <ele>520</ele>
        <time>2018-06-10T09:18:42Z</time>
      </trkpt>
      <trkpt lat="44.65927" lon="5.06772">
        <ele>520</ele>
        <time>2018-06-10T09:18:44Z</time>
      </trkpt>
      <trkpt lat="44.6593" lon="5.06769">
        <ele>521</ele>
        <time>2018-06-10T09:18:46Z</time>
      </trkpt>
      <trkpt lat="44.65933" lon="5.06766">
        <ele>521</ele>
        <time>2018-06-10T09:18:48Z</time>
      </trkpt>
      <trkpt lat="44.65936" lon="5.06763">
        <ele>521</ele>
        <time>2018-06-10T09:18:50Z</time>
      </trkpt>
      <trkpt lat="44.65939" lon="5.06761">
        <ele>522</ele>
        <time>2018-06-10T09:18:52Z</time>
      </trkpt>
      <trkpt lat="44.65942" lon="5.06758">
        <ele>522</ele>
        <time>2018-06-10T09:18:54Z</time>
      </trkpt>
      <trkpt lat="44.65945" lon="5.06755">
        <ele>522</ele>
        <time>2018-06-10T09:18:56Z</time>
      </trkpt>
      <trkpt lat="44.65947" lon="5.06754">
        <ele>522</ele>
        <time>2018-06-10T09:18:58Z</time>
      </trkpt>
      <trkpt lat="44.65949" lon="5.06752">
        <ele>522</ele>
        <time>2018-06-10T09:19:00Z</time>
      </trkpt>
      <trkpt lat="44.65953" lon="5.06751">
        <ele>523</ele>
        <time>2018-06-10T09:19:02Z</time>
      </trkpt>
      <trkpt lat="44.65956" lon="5.0675">
        <ele>523</ele>
        <time>2018-06-10T09:19:04Z</time>
      </trkpt>
      <trkpt lat="44.65958" lon="5.06749">
        <ele>523</ele>
        <time>2018-06-10T09:19:06Z</time>
      </trkpt>
      <trkpt lat="44.65963" lon="5.06747">
        <ele>523</ele>
        <time>2018-06-10T09:19:08Z</time>
      </trkpt>
      <trkpt lat="44.65967" lon="5.06744">
        <ele>523</ele>
        <time>2018-06-10T09:19:10Z</time>
      </trkpt>
      <trkpt lat="44.6597" lon="5.06741">
        <ele>523</ele>
        <time>2018-06-10T09:19:12Z</time>
      </trkpt>
      <trkpt lat="44.65973" lon="5.06738">
        <ele>524</ele>
        <time>2018-06-10T09:19:15Z</time>
      </trkpt>
      <trkpt lat="44.65977" lon="5.06734">
        <ele>524</ele>
        <time>2018-06-10T09:19:17Z</time>
      </trkpt>
      <trkpt lat="44.65981" lon="5.06729">
        <ele>524</ele>
        <time>2018-06-10T09:19:19Z</time>
      </trkpt>
      <trkpt lat="44.65984" lon="5.06725">
        <ele>524</ele>
        <time>2018-06-10T09:19:21Z</time>
      </trkpt>
      <trkpt lat="44.65985" lon="5.06723">
        <ele>524</ele>
        <time>2018-06-10T09:19:23Z</time>
      </trkpt>
      <trkpt lat="44.65987" lon="5.0672">
        <ele>525</ele>
        <time>2018-06-10T09:19:25Z</time>
      </trkpt>
      <trkpt lat="44.65989" lon="5.06717">
        <ele>525</ele>
        <time>2018-06-10T09:19:27Z</time>
      </trkpt>
      <trkpt lat="44.65992" lon="5.06715">
        <ele>525</ele>
        <time>2018-06-10T09:19:29Z</time>
      </trkpt>
      <trkpt lat="44.65995" lon="5.06711">
        <ele>526</ele>
        <time>2018-06-10T09:19:31Z</time>
      </trkpt>
      <trkpt lat="44.65997" lon="5.06708">
        <ele>526</ele>
        <time>2018-06-10T09:19:33Z</time>
      </trkpt>
      <trkpt lat="44.65998" lon="5.06706">
        <ele>526</ele>
        <time>2018-06-10T09:19:35Z</time>
      </trkpt>
      <trkpt lat="44.65999" lon="5.06704">
        <ele>527</ele>
        <time>2018-06-10T09:19:37Z</time>
      </trkpt>
      <trkpt lat="44.66002" lon="5.067">
        <ele>527</ele>
        <time>2018-06-10T09:19:39Z</time>
      </trkpt>
      <trkpt lat="44.66004" lon="5.06696">
        <ele>527</ele>
        <time>2018-06-10T09:19:41Z</time>
      </trkpt>
      <trkpt lat="44.66005" lon="5.06692">
        <ele>528</ele>
        <time>2018-06-10T09:19:43Z</time>
      </trkpt>
      <trkpt lat="44.66006" lon="5.06688">
        <ele>528</ele>
        <time>2018-06-10T09:19:45Z</time>
      </trkpt>
      <trkpt lat="44.66006" lon="5.06685">
        <ele>528</ele>
        <time>2018-06-10T09:19:47Z</time>
      </trkpt>
      <trkpt lat="44.66006" lon="5.06682">
        <ele>528</ele>
        <time>2018-06-10T09:19:49Z</time>
      </trkpt>
      <trkpt lat="44.66007" lon="5.0668">
        <ele>529</ele>
        <time>2018-06-10T09:19:51Z</time>
      </trkpt>
      <trkpt lat="44.66008" lon="5.06677">
        <ele>528</ele>
        <time>2018-06-10T09:19:53Z</time>
      </trkpt>
      <trkpt lat="44.66008" lon="5.06673">
        <ele>529</ele>
        <time>2018-06-10T09:19:55Z</time>
      </trkpt>
      <trkpt lat="44.66007" lon="5.06668">
        <ele>529</ele>
        <time>2018-06-10T09:19:57Z</time>
      </trkpt>
      <trkpt lat="44.66007" lon="5.06664">
        <ele>529</ele>
        <time>2018-06-10T09:19:59Z</time>
      </trkpt>
      <trkpt lat="44.66006" lon="5.06659">
        <ele>530</ele>
        <time>2018-06-10T09:20:01Z</time>
      </trkpt>
      <trkpt lat="44.66006" lon="5.06656">
        <ele>530</ele>
        <time>2018-06-10T09:20:03Z</time>
      </trkpt>
      <trkpt lat="44.66007" lon="5.06651">
        <ele>530</ele>
        <time>2018-06-10T09:20:05Z</time>
      </trkpt>
      <trkpt lat="44.66008" lon="5.06646">
        <ele>530</ele>
        <time>2018-06-10T09:20:07Z</time>
      </trkpt>
      <trkpt lat="44.66008" lon="5.06641">
        <ele>530</ele>
        <time>2018-06-10T09:20:09Z</time>
      </trkpt>
      <trkpt lat="44.66009" lon="5.06637">
        <ele>530</ele>
        <time>2018-06-10T09:20:11Z</time>
      </trkpt>
      <trkpt lat="44.6601" lon="5.06631">
        <ele>530</ele>
        <time>2018-06-10T09:20:13Z</time>
      </trkpt>
      <trkpt lat="44.66012" lon="5.06625">
        <ele>530</ele>
        <time>2018-06-10T09:20:15Z</time>
      </trkpt>
      <trkpt lat="44.66013" lon="5.0662">
        <ele>531</ele>
        <time>2018-06-10T09:20:17Z</time>
      </trkpt>
      <trkpt lat="44.66015" lon="5.06615">
        <ele>530</ele>
        <time>2018-06-10T09:20:19Z</time>
      </trkpt>
      <trkpt lat="44.66016" lon="5.06609">
        <ele>530</ele>
        <time>2018-06-10T09:20:21Z</time>
      </trkpt>
      <trkpt lat="44.66018" lon="5.06603">
        <ele>530</ele>
        <time>2018-06-10T09:20:23Z</time>
      </trkpt>
      <trkpt lat="44.66021" lon="5.06595">
        <ele>529</ele>
        <time>2018-06-10T09:20:25Z</time>
      </trkpt>
      <trkpt lat="44.66024" lon="5.06584">
        <ele>529</ele>
        <time>2018-06-10T09:20:27Z</time>
      </trkpt>
      <trkpt lat="44.66026" lon="5.06571">
        <ele>529</ele>
        <time>2018-06-10T09:20:29Z</time>
      </trkpt>
      <trkpt lat="44.6603" lon="5.06557">
        <ele>527</ele>
        <time>2018-06-10T09:20:31Z</time>
      </trkpt>
      <trkpt lat="44.66034" lon="5.06539">
        <ele>527</ele>
        <time>2018-06-10T09:20:33Z</time>
      </trkpt>
      <trkpt lat="44.66036" lon="5.06521">
        <ele>526</ele>
        <time>2018-06-10T09:20:35Z</time>
      </trkpt>
      <trkpt lat="44.66035" lon="5.065">
        <ele>525</ele>
        <time>2018-06-10T09:20:37Z</time>
      </trkpt>
      <trkpt lat="44.6603" lon="5.06482">
        <ele>525</ele>
        <time>2018-06-10T09:20:39Z</time>
      </trkpt>
      <trkpt lat="44.66024" lon="5.06474">
        <ele>524</ele>
        <time>2018-06-10T09:20:41Z</time>
      </trkpt>
      <trkpt lat="44.66022" lon="5.06465">
        <ele>524</ele>
        <time>2018-06-10T09:20:43Z</time>
      </trkpt>
      <trkpt lat="44.66025" lon="5.06458">
        <ele>524</ele>
        <time>2018-06-10T09:20:46Z</time>
      </trkpt>
      <trkpt lat="44.6603" lon="5.06451">
        <ele>524</ele>
        <time>2018-06-10T09:20:48Z</time>
      </trkpt>
      <trkpt lat="44.66035" lon="5.06445">
        <ele>524</ele>
        <time>2018-06-10T09:20:50Z</time>
      </trkpt>
      <trkpt lat="44.6604" lon="5.06437">
        <ele>523</ele>
        <time>2018-06-10T09:20:52Z</time>
      </trkpt>
      <trkpt lat="44.66046" lon="5.06424">
        <ele>522</ele>
        <time>2018-06-10T09:20:54Z</time>
      </trkpt>
      <trkpt lat="44.66051" lon="5.06408">
        <ele>521</ele>
        <time>2018-06-10T09:20:56Z</time>
      </trkpt>
      <trkpt lat="44.66058" lon="5.0639">
        <ele>521</ele>
        <time>2018-06-10T09:20:58Z</time>
      </trkpt>
      <trkpt lat="44.66059" lon="5.06373">
        <ele>520</ele>
        <time>2018-06-10T09:21:00Z</time>
      </trkpt>
      <trkpt lat="44.6606" lon="5.06362">
        <ele>521</ele>
        <time>2018-06-10T09:21:02Z</time>
      </trkpt>
      <trkpt lat="44.66061" lon="5.06355">
        <ele>521</ele>
        <time>2018-06-10T09:21:04Z</time>
      </trkpt>
      <trkpt lat="44.66064" lon="5.06347">
        <ele>522</ele>
        <time>2018-06-10T09:21:06Z</time>
      </trkpt>
      <trkpt lat="44.66065" lon="5.0634">
        <ele>522</ele>
        <time>2018-06-10T09:21:08Z</time>
      </trkpt>
      <trkpt lat="44.66068" lon="5.06334">
        <ele>522</ele>
        <time>2018-06-10T09:21:10Z</time>
      </trkpt>
      <trkpt lat="44.6607" lon="5.06328">
        <ele>523</ele>
        <time>2018-06-10T09:21:12Z</time>
      </trkpt>
      <trkpt lat="44.66071" lon="5.06323">
        <ele>523</ele>
        <time>2018-06-10T09:21:14Z</time>
      </trkpt>
      <trkpt lat="44.66073" lon="5.06319">
        <ele>523</ele>
        <time>2018-06-10T09:21:16Z</time>
      </trkpt>
      <trkpt lat="44.66076" lon="5.06313">
        <ele>523</ele>
        <time>2018-06-10T09:21:18Z</time>
      </trkpt>
      <trkpt lat="44.66078" lon="5.06308">
        <ele>524</ele>
        <time>2018-06-10T09:21:20Z</time>
      </trkpt>
      <trkpt lat="44.66083" lon="5.06303">
        <ele>524</ele>
        <time>2018-06-10T09:21:22Z</time>
      </trkpt>
      <trkpt lat="44.66085" lon="5.06298">
        <ele>524</ele>
        <time>2018-06-10T09:21:24Z</time>
      </trkpt>
      <trkpt lat="44.66087" lon="5.06293">
        <ele>524</ele>
        <time>2018-06-10T09:21:26Z</time>
      </trkpt>
      <trkpt lat="44.66089" lon="5.06289">
        <ele>525</ele>
        <time>2018-06-10T09:21:28Z</time>
      </trkpt>
      <trkpt lat="44.66091" lon="5.06284">
        <ele>525</ele>
        <time>2018-06-10T09:21:30Z</time>
      </trkpt>
      <trkpt lat="44.66093" lon="5.06279">
        <ele>525</ele>
        <time>2018-06-10T09:21:32Z</time>
      </trkpt>
      <trkpt lat="44.66094" lon="5.06273">
        <ele>525</ele>
        <time>2018-06-10T09:21:35Z</time>
      </trkpt>
      <trkpt lat="44.66094" lon="5.06269">
        <ele>525</ele>
        <time>2018-06-10T09:21:37Z</time>
      </trkpt>
      <trkpt lat="44.66094" lon="5.06264">
        <ele>526</ele>
        <time>2018-06-10T09:21:39Z</time>
      </trkpt>
      <trkpt lat="44.66095" lon="5.06259">
        <ele>526</ele>
        <time>2018-06-10T09:21:41Z</time>
      </trkpt>
      <trkpt lat="44.66096" lon="5.06254">
        <ele>526</ele>
        <time>2018-06-10T09:21:43Z</time>
      </trkpt>
      <trkpt lat="44.66095" lon="5.0625">
        <ele>527</ele>
        <time>2018-06-10T09:21:45Z</time>
      </trkpt>
      <trkpt lat="44.66096" lon="5.06245">
        <ele>527</ele>
        <time>2018-06-10T09:21:47Z</time>
      </trkpt>
      <trkpt lat="44.66095" lon="5.06241">
        <ele>528</ele>
        <time>2018-06-10T09:21:49Z</time>
      </trkpt>
      <trkpt lat="44.66096" lon="5.06237">
        <ele>527</ele>
        <time>2018-06-10T09:21:51Z</time>
      </trkpt>
      <trkpt lat="44.66098" lon="5.06232">
        <ele>528</ele>
        <time>2018-06-10T09:21:53Z</time>
      </trkpt>
      <trkpt lat="44.66098" lon="5.06227">
        <ele>528</ele>
        <time>2018-06-10T09:21:55Z</time>
      </trkpt>
      <trkpt lat="44.66099" lon="5.06222">
        <ele>528</ele>
        <time>2018-06-10T09:21:57Z</time>
      </trkpt>
      <trkpt lat="44.66099" lon="5.06218">
        <ele>528</ele>
        <time>2018-06-10T09:21:59Z</time>
      </trkpt>
      <trkpt lat="44.661" lon="5.06214">
        <ele>529</ele>
        <time>2018-06-10T09:22:01Z</time>
      </trkpt>
      <trkpt lat="44.661" lon="5.0621">
        <ele>529</ele>
        <time>2018-06-10T09:22:03Z</time>
      </trkpt>
      <trkpt lat="44.661" lon="5.06206">
        <ele>529</ele>
        <time>2018-06-10T09:22:05Z</time>
      </trkpt>
      <trkpt lat="44.66101" lon="5.06202">
        <ele>529</ele>
        <time>2018-06-10T09:22:07Z</time>
      </trkpt>
      <trkpt lat="44.66102" lon="5.06198">
        <ele>530</ele>
        <time>2018-06-10T09:22:09Z</time>
      </trkpt>
      <trkpt lat="44.66103" lon="5.06194">
        <ele>530</ele>
        <time>2018-06-10T09:22:11Z</time>
      </trkpt>
      <trkpt lat="44.66104" lon="5.06189">
        <ele>530</ele>
        <time>2018-06-10T09:22:13Z</time>
      </trkpt>
      <trkpt lat="44.66104" lon="5.06186">
        <ele>530</ele>
        <time>2018-06-10T09:22:15Z</time>
      </trkpt>
      <trkpt lat="44.66104" lon="5.06182">
        <ele>531</ele>
        <time>2018-06-10T09:22:17Z</time>
      </trkpt>
      <trkpt lat="44.66105" lon="5.06177">
        <ele>531</ele>
        <time>2018-06-10T09:22:19Z</time>
      </trkpt>
      <trkpt lat="44.66105" lon="5.06173">
        <ele>531</ele>
        <time>2018-06-10T09:22:21Z</time>
      </trkpt>
      <trkpt lat="44.66105" lon="5.06167">
        <ele>530</ele>
        <time>2018-06-10T09:22:23Z</time>
      </trkpt>
      <trkpt lat="44.66107" lon="5.06161">
        <ele>530</ele>
        <time>2018-06-10T09:22:25Z</time>
      </trkpt>
      <trkpt lat="44.66108" lon="5.06154">
        <ele>530</ele>
        <time>2018-06-10T09:22:27Z</time>
      </trkpt>
      <trkpt lat="44.66108" lon="5.0615">
        <ele>530</ele>
        <time>2018-06-10T09:22:29Z</time>
      </trkpt>
      <trkpt lat="44.66109" lon="5.06143">
        <ele>530</ele>
        <time>2018-06-10T09:22:31Z</time>
      </trkpt>
      <trkpt lat="44.6611" lon="5.06139">
        <ele>530</ele>
        <time>2018-06-10T09:22:33Z</time>
      </trkpt>
      <trkpt lat="44.6611" lon="5.06137">
        <ele>530</ele>
        <time>2018-06-10T09:22:35Z</time>
      </trkpt>
      <trkpt lat="44.6611" lon="5.06135">
        <ele>530</ele>
        <time>2018-06-10T09:22:37Z</time>
      </trkpt>
      <trkpt lat="44.66112" lon="5.0613">
        <ele>531</ele>
        <time>2018-06-10T09:22:39Z</time>
      </trkpt>
      <trkpt lat="44.66114" lon="5.06124">
        <ele>531</ele>
        <time>2018-06-10T09:22:41Z</time>
      </trkpt>
      <trkpt lat="44.66116" lon="5.06119">
        <ele>532</ele>
        <time>2018-06-10T09:22:43Z</time>
      </trkpt>
      <trkpt lat="44.66119" lon="5.06114">
        <ele>532</ele>
        <time>2018-06-10T09:22:45Z</time>
      </trkpt>
      <trkpt lat="44.66121" lon="5.06109">
        <ele>533</ele>
        <time>2018-06-10T09:22:47Z</time>
      </trkpt>
      <trkpt lat="44.66123" lon="5.06105">
        <ele>533</ele>
        <time>2018-06-10T09:22:49Z</time>
      </trkpt>
      <trkpt lat="44.66122" lon="5.06101">
        <ele>533</ele>
        <time>2018-06-10T09:22:52Z</time>
      </trkpt>
      <trkpt lat="44.66121" lon="5.06099">
        <ele>534</ele>
        <time>2018-06-10T09:22:54Z</time>
      </trkpt>
      <trkpt lat="44.66121" lon="5.06096">
        <ele>534</ele>
        <time>2018-06-10T09:22:56Z</time>
      </trkpt>
      <trkpt lat="44.66122" lon="5.0609">
        <ele>534</ele>
        <time>2018-06-10T09:22:58Z</time>
      </trkpt>
      <trkpt lat="44.66123" lon="5.06085">
        <ele>535</ele>
        <time>2018-06-10T09:23:00Z</time>
      </trkpt>
      <trkpt lat="44.66123" lon="5.0608">
        <ele>536</ele>
        <time>2018-06-10T09:23:02Z</time>
      </trkpt>
      <trkpt lat="44.66124" lon="5.06078">
        <ele>537</ele>
        <time>2018-06-10T09:23:04Z</time>
      </trkpt>
      <trkpt lat="44.66125" lon="5.06074">
        <ele>538</ele>
        <time>2018-06-10T09:23:06Z</time>
      </trkpt>
      <trkpt lat="44.66125" lon="5.06073">
        <ele>537</ele>
        <time>2018-06-10T09:23:08Z</time>
      </trkpt>
      <trkpt lat="44.66126" lon="5.06068">
        <ele>538</ele>
        <time>2018-06-10T09:23:10Z</time>
      </trkpt>
      <trkpt lat="44.66126" lon="5.06066">
        <ele>539</ele>
        <time>2018-06-10T09:23:12Z</time>
      </trkpt>
      <trkpt lat="44.66126" lon="5.06063">
        <ele>539</ele>
        <time>2018-06-10T09:23:14Z</time>
      </trkpt>
      <trkpt lat="44.66127" lon="5.0606">
        <ele>540</ele>
        <time>2018-06-10T09:23:16Z</time>
      </trkpt>
      <trkpt lat="44.66129" lon="5.06057">
        <ele>540</ele>
        <time>2018-06-10T09:23:18Z</time>
      </trkpt>
      <trkpt lat="44.6613" lon="5.06053">
        <ele>540</ele>
        <time>2018-06-10T09:23:20Z</time>
      </trkpt>
      <trkpt lat="44.66131" lon="5.0605">
        <ele>541</ele>
        <time>2018-06-10T09:23:22Z</time>
      </trkpt>
      <trkpt lat="44.66132" lon="5.06048">
        <ele>541</ele>
        <time>2018-06-10T09:23:24Z</time>
      </trkpt>
      <trkpt lat="44.66132" lon="5.06046">
        <ele>541</ele>
        <time>2018-06-10T09:23:26Z</time>
      </trkpt>
      <trkpt lat="44.66133" lon="5.06044">
        <ele>541</ele>
        <time>2018-06-10T09:23:28Z</time>
      </trkpt>
      <trkpt lat="44.66134" lon="5.06041">
        <ele>542</ele>
        <time>2018-06-10T09:23:30Z</time>
      </trkpt>
      <trkpt lat="44.66135" lon="5.06039">
        <ele>542</ele>
        <time>2018-06-10T09:23:32Z</time>
      </trkpt>
      <trkpt lat="44.66136" lon="5.06036">
        <ele>543</ele>
        <time>2018-06-10T09:23:34Z</time>
      </trkpt>
      <trkpt lat="44.66137" lon="5.06032">
        <ele>543</ele>
        <time>2018-06-10T09:23:36Z</time>
      </trkpt>
      <trkpt lat="44.66138" lon="5.06029">
        <ele>543</ele>
        <time>2018-06-10T09:23:38Z</time>
      </trkpt>
      <trkpt lat="44.6614" lon="5.06022">
        <ele>544</ele>
        <time>2018-06-10T09:23:40Z</time>
      </trkpt>
      <trkpt lat="44.66141" lon="5.0602">
        <ele>544</ele>
        <time>2018-06-10T09:23:42Z</time>
      </trkpt>
      <trkpt lat="44.66141" lon="5.06018">
        <ele>544</ele>
        <time>2018-06-10T09:23:44Z</time>
      </trkpt>
      <trkpt lat="44.66141" lon="5.06014">
        <ele>545</ele>
        <time>2018-06-10T09:23:46Z</time>
      </trkpt>
      <trkpt lat="44.66141" lon="5.06011">
        <ele>545</ele>
        <time>2018-06-10T09:23:48Z</time>
      </trkpt>
      <trkpt lat="44.66142" lon="5.06008">
        <ele>545</ele>
        <time>2018-06-10T09:23:50Z</time>
      </trkpt>
      <trkpt lat="44.66142" lon="5.06006">
        <ele>546</ele>
        <time>2018-06-10T09:23:52Z</time>
      </trkpt>
      <trkpt lat="44.66143" lon="5.06002">
        <ele>546</ele>
        <time>2018-06-10T09:23:54Z</time>
      </trkpt>
      <trkpt lat="44.66146" lon="5.05997">
        <ele>546</ele>
        <time>2018-06-10T09:23:56Z</time>
      </trkpt>
      <trkpt lat="44.66145" lon="5.05996">
        <ele>547</ele>
        <time>2018-06-10T09:23:59Z</time>
      </trkpt>
      <trkpt lat="44.66146" lon="5.05993">
        <ele>547</ele>
        <time>2018-06-10T09:24:01Z</time>
      </trkpt>
      <trkpt lat="44.66147" lon="5.05991">
        <ele>547</ele>
        <time>2018-06-10T09:24:03Z</time>
      </trkpt>
      <trkpt lat="44.66151" lon="5.05988">
        <ele>548</ele>
        <time>2018-06-10T09:24:05Z</time>
      </trkpt>
      <trkpt lat="44.66152" lon="5.05986">
        <ele>548</ele>
        <time>2018-06-10T09:24:07Z</time>
      </trkpt>
      <trkpt lat="44.66152" lon="5.05986">
        <ele>548</ele>
        <time>2018-06-10T09:24:09Z</time>
      </trkpt>
      <trkpt lat="44.66154" lon="5.05984">
        <ele>549</ele>
        <time>2018-06-10T09:24:11Z</time>
      </trkpt>
      <trkpt lat="44.66155" lon="5.05982">
        <ele>549</ele>
        <time>2018-06-10T09:24:13Z</time>
      </trkpt>
      <trkpt lat="44.66157" lon="5.05979">
        <ele>550</ele>
        <time>2018-06-10T09:24:15Z</time>
      </trkpt>
      <trkpt lat="44.66158" lon="5.05977">
        <ele>550</ele>
        <time>2018-06-10T09:24:17Z</time>
      </trkpt>
      <trkpt lat="44.6616" lon="5.05975">
        <ele>550</ele>
        <time>2018-06-10T09:24:19Z</time>
      </trkpt>
      <trkpt lat="44.66161" lon="5.05972">
        <ele>550</ele>
        <time>2018-06-10T09:24:21Z</time>
      </trkpt>
      <trkpt lat="44.66163" lon="5.05969">
        <ele>551</ele>
        <time>2018-06-10T09:24:23Z</time>
      </trkpt>
      <trkpt lat="44.66164" lon="5.05966">
        <ele>551</ele>
        <time>2018-06-10T09:24:25Z</time>
      </trkpt>
      <trkpt lat="44.66167" lon="5.0596">
        <ele>551</ele>
        <time>2018-06-10T09:24:27Z</time>
      </trkpt>
      <trkpt lat="44.66168" lon="5.05959">
        <ele>551</ele>
        <time>2018-06-10T09:24:29Z</time>
      </trkpt>
      <trkpt lat="44.66169" lon="5.05957">
        <ele>552</ele>
        <time>2018-06-10T09:24:31Z</time>
      </trkpt>
      <trkpt lat="44.66169" lon="5.05956">
        <ele>552</ele>
        <time>2018-06-10T09:24:33Z</time>
      </trkpt>
      <trkpt lat="44.6617" lon="5.05954">
        <ele>552</ele>
        <time>2018-06-10T09:24:35Z</time>
      </trkpt>
      <trkpt lat="44.66171" lon="5.05951">
        <ele>553</ele>
        <time>2018-06-10T09:24:37Z</time>
      </trkpt>
      <trkpt lat="44.66173" lon="5.05949">
        <ele>553</ele>
        <time>2018-06-10T09:24:39Z</time>
      </trkpt>
      <trkpt lat="44.66174" lon="5.05946">
        <ele>553</ele>
        <time>2018-06-10T09:24:41Z</time>
      </trkpt>
      <trkpt lat="44.66175" lon="5.05943">
        <ele>554</ele>
        <time>2018-06-10T09:24:43Z</time>
      </trkpt>
      <trkpt lat="44.66176" lon="5.0594">
        <ele>554</ele>
        <time>2018-06-10T09:24:45Z</time>
      </trkpt>
      <trkpt lat="44.66178" lon="5.05936">
        <ele>554</ele>
        <time>2018-06-10T09:24:48Z</time>
      </trkpt>
      <trkpt lat="44.66179" lon="5.05932">
        <ele>554</ele>
        <time>2018-06-10T09:24:50Z</time>
      </trkpt>
      <trkpt lat="44.6618" lon="5.05931">
        <ele>555</ele>
        <time>2018-06-10T09:24:52Z</time>
      </trkpt>
      <trkpt lat="44.66181" lon="5.05929">
        <ele>555</ele>
        <time>2018-06-10T09:24:54Z</time>
      </trkpt>
      <trkpt lat="44.66183" lon="5.05925">
        <ele>555</ele>
        <time>2018-06-10T09:24:56Z</time>
      </trkpt>
      <trkpt lat="44.66184" lon="5.05923">
        <ele>556</ele>
        <time>2018-06-10T09:24:58Z</time>
      </trkpt>
      <trkpt lat="44.66187" lon="5.0592">
        <ele>556</ele>
        <time>2018-06-10T09:25:00Z</time>
      </trkpt>
      <trkpt lat="44.66188" lon="5.05919">
        <ele>556</ele>
        <time>2018-06-10T09:25:02Z</time>
      </trkpt>
      <trkpt lat="44.6619" lon="5.05918">
        <ele>556</ele>
        <time>2018-06-10T09:25:04Z</time>
      </trkpt>
      <trkpt lat="44.66191" lon="5.05916">
        <ele>556</ele>
        <time>2018-06-10T09:25:06Z</time>
      </trkpt>
      <trkpt lat="44.66191" lon="5.05914">
        <ele>556</ele>
        <time>2018-06-10T09:25:08Z</time>
      </trkpt>
      <trkpt lat="44.66189" lon="5.05907">
        <ele>557</ele>
        <time>2018-06-10T09:25:10Z</time>
      </trkpt>
      <trkpt lat="44.66191" lon="5.05904">
        <ele>557</ele>
        <time>2018-06-10T09:25:12Z</time>
      </trkpt>
      <trkpt lat="44.66192" lon="5.05901">
        <ele>558</ele>
        <time>2018-06-10T09:25:14Z</time>
      </trkpt>
      <trkpt lat="44.66194" lon="5.05899">
        <ele>558</ele>
        <time>2018-06-10T09:25:16Z</time>
      </trkpt>
      <trkpt lat="44.66194" lon="5.05897">
        <ele>558</ele>
        <time>2018-06-10T09:25:18Z</time>
      </trkpt>
      <trkpt lat="44.66194" lon="5.05895">
        <ele>558</ele>
        <time>2018-06-10T09:25:20Z</time>
      </trkpt>
      <trkpt lat="44.66193" lon="5.05891">
        <ele>558</ele>
        <time>2018-06-10T09:25:22Z</time>
      </trkpt>
      <trkpt lat="44.66193" lon="5.05887">
        <ele>559</ele>
        <time>2018-06-10T09:25:24Z</time>
      </trkpt>
      <trkpt lat="44.66196" lon="5.05882">
        <ele>559</ele>
        <time>2018-06-10T09:25:26Z</time>
      </trkpt>
      <trkpt lat="44.66196" lon="5.0588">
        <ele>559</ele>
        <time>2018-06-10T09:25:28Z</time>
      </trkpt>
      <trkpt lat="44.66196" lon="5.05877">
        <ele>560</ele>
        <time>2018-06-10T09:25:30Z</time>
      </trkpt>
      <trkpt lat="44.66196" lon="5.05874">
        <ele>560</ele>
        <time>2018-06-10T09:25:32Z</time>
      </trkpt>
      <trkpt lat="44.66198" lon="5.0587">
        <ele>561</ele>
        <time>2018-06-10T09:25:34Z</time>
      </trkpt>
      <trkpt lat="44.66198" lon="5.05866">
        <ele>561</ele>
        <time>2018-06-10T09:25:36Z</time>
      </trkpt>
      <trkpt lat="44.66199" lon="5.05862">
        <ele>562</ele>
        <time>2018-06-10T09:25:38Z</time>
      </trkpt>
      <trkpt lat="44.66201" lon="5.05859">
        <ele>562</ele>
        <time>2018-06-10T09:25:40Z</time>
      </trkpt>
      <trkpt lat="44.66203" lon="5.05854">
        <ele>563</ele>
        <time>2018-06-10T09:25:43Z</time>
      </trkpt>
      <trkpt lat="44.66204" lon="5.05852">
        <ele>563</ele>
        <time>2018-06-10T09:25:45Z</time>
      </trkpt>
      <trkpt lat="44.66205" lon="5.05851">
        <ele>563</ele>
        <time>2018-06-10T09:25:47Z</time>
      </trkpt>
      <trkpt lat="44.66207" lon="5.05852">
        <ele>564</ele>
        <time>2018-06-10T09:25:49Z</time>
      </trkpt>
      <trkpt lat="44.66208" lon="5.05853">
        <ele>564</ele>
        <time>2018-06-10T09:25:51Z</time>
      </trkpt>
      <trkpt lat="44.6621" lon="5.05854">
        <ele>565</ele>
        <time>2018-06-10T09:25:53Z</time>
      </trkpt>
      <trkpt lat="44.6621" lon="5.05856">
        <ele>565</ele>
        <time>2018-06-10T09:25:55Z</time>
      </trkpt>
      <trkpt lat="44.66211" lon="5.05856">
        <ele>565</ele>
        <time>2018-06-10T09:25:57Z</time>
      </trkpt>
      <trkpt lat="44.66212" lon="5.05855">
        <ele>565</ele>
        <time>2018-06-10T09:25:59Z</time>
      </trkpt>
      <trkpt lat="44.66211" lon="5.05851">
        <ele>565</ele>
        <time>2018-06-10T09:26:01Z</time>
      </trkpt>
      <trkpt lat="44.66212" lon="5.05855">
        <ele>565</ele>
        <time>2018-06-10T09:26:03Z</time>
      </trkpt>
      <trkpt lat="44.66213" lon="5.05859">
        <ele>566</ele>
        <time>2018-06-10T09:26:05Z</time>
      </trkpt>
      <trkpt lat="44.66214" lon="5.05862">
        <ele>566</ele>
        <time>2018-06-10T09:26:07Z</time>
      </trkpt>
      <trkpt lat="44.66216" lon="5.05865">
        <ele>566</ele>
        <time>2018-06-10T09:26:09Z</time>
      </trkpt>
      <trkpt lat="44.66216" lon="5.05868">
        <ele>567</ele>
        <time>2018-06-10T09:26:11Z</time>
      </trkpt>
      <trkpt lat="44.66216" lon="5.05872">
        <ele>567</ele>
        <time>2018-06-10T09:26:13Z</time>
      </trkpt>
      <trkpt lat="44.66217" lon="5.05875">
        <ele>567</ele>
        <time>2018-06-10T09:26:15Z</time>
      </trkpt>
      <trkpt lat="44.66218" lon="5.05879">
        <ele>567</ele>
        <time>2018-06-10T09:26:17Z</time>
      </trkpt>
      <trkpt lat="44.66219" lon="5.05882">
        <ele>568</ele>
        <time>2018-06-10T09:26:19Z</time>
      </trkpt>
      <trkpt lat="44.6622" lon="5.05888">
        <ele>568</ele>
        <time>2018-06-10T09:26:21Z</time>
      </trkpt>
      <trkpt lat="44.6622" lon="5.05892">
        <ele>568</ele>
        <time>2018-06-10T09:26:23Z</time>
      </trkpt>
      <trkpt lat="44.6622" lon="5.05896">
        <ele>568</ele>
        <time>2018-06-10T09:26:25Z</time>
      </trkpt>
      <trkpt lat="44.66221" lon="5.05899">
        <ele>569</ele>
        <time>2018-06-10T09:26:27Z</time>
      </trkpt>
      <trkpt lat="44.66221" lon="5.05902">
        <ele>569</ele>
        <time>2018-06-10T09:26:29Z</time>
      </trkpt>
      <trkpt lat="44.6622" lon="5.05907">
        <ele>569</ele>
        <time>2018-06-10T09:26:32Z</time>
      </trkpt>
      <trkpt lat="44.66219" lon="5.05912">
        <ele>569</ele>
        <time>2018-06-10T09:26:34Z</time>
      </trkpt>
      <trkpt lat="44.6622" lon="5.05916">
        <ele>570</ele>
        <time>2018-06-10T09:26:36Z</time>
      </trkpt>
      <trkpt lat="44.66219" lon="5.0592">
        <ele>570</ele>
        <time>2018-06-10T09:26:38Z</time>
      </trkpt>
      <trkpt lat="44.66219" lon="5.05922">
        <ele>571</ele>
        <time>2018-06-10T09:26:40Z</time>
      </trkpt>
      <trkpt lat="44.66219" lon="5.05924">
        <ele>571</ele>
        <time>2018-06-10T09:26:42Z</time>
      </trkpt>
      <trkpt lat="44.66219" lon="5.05926">
        <ele>572</ele>
        <time>2018-06-10T09:26:44Z</time>
      </trkpt>
      <trkpt lat="44.66219" lon="5.05928">
        <ele>572</ele>
        <time>2018-06-10T09:26:46Z</time>
      </trkpt>
      <trkpt lat="44.66221" lon="5.05931">
        <ele>573</ele>
        <time>2018-06-10T09:26:48Z</time>
      </trkpt>
      <trkpt lat="44.6622" lon="5.05936">
        <ele>574</ele>
        <time>2018-06-10T09:26:50Z</time>
      </trkpt>
      <trkpt lat="44.6622" lon="5.0594">
        <ele>575</ele>
        <time>2018-06-10T09:26:52Z</time>
      </trkpt>
      <trkpt lat="44.66219" lon="5.05944">
        <ele>575</ele>
        <time>2018-06-10T09:26:54Z</time>
      </trkpt>
      <trkpt lat="44.66218" lon="5.05948">
        <ele>575</ele>
        <time>2018-06-10T09:26:56Z</time>
      </trkpt>
      <trkpt lat="44.66218" lon="5.05951">
        <ele>576</ele>
        <time>2018-06-10T09:26:58Z</time>
      </trkpt>
      <trkpt lat="44.66218" lon="5.05953">
        <ele>576</ele>
        <time>2018-06-10T09:27:00Z</time>
      </trkpt>
      <trkpt lat="44.66218" lon="5.05956">
        <ele>577</ele>
        <time>2018-06-10T09:27:02Z</time>
      </trkpt>
      <trkpt lat="44.66217" lon="5.0596">
        <ele>577</ele>
        <time>2018-06-10T09:27:04Z</time>
      </trkpt>
      <trkpt lat="44.66217" lon="5.05962">
        <ele>578</ele>
        <time>2018-06-10T09:27:06Z</time>
      </trkpt>
      <trkpt lat="44.66217" lon="5.05964">
        <ele>579</ele>
        <time>2018-06-10T09:27:08Z</time>
      </trkpt>
      <trkpt lat="44.66218" lon="5.05969">
        <ele>579</ele>
        <time>2018-06-10T09:27:10Z</time>
      </trkpt>
      <trkpt lat="44.66218" lon="5.05973">
        <ele>580</ele>
        <time>2018-06-10T09:27:12Z</time>
      </trkpt>
      <trkpt lat="44.66218" lon="5.05976">
        <ele>580</ele>
        <time>2018-06-10T09:27:14Z</time>
      </trkpt>
      <trkpt lat="44.66218" lon="5.05979">
        <ele>581</ele>
        <time>2018-06-10T09:27:16Z</time>
      </trkpt>
      <trkpt lat="44.66218" lon="5.05984">
        <ele>581</ele>
        <time>2018-06-10T09:27:18Z</time>
      </trkpt>
      <trkpt lat="44.66216" lon="5.05988">
        <ele>581</ele>
        <time>2018-06-10T09:27:20Z</time>
      </trkpt>
      <trkpt lat="44.66215" lon="5.05992">
        <ele>582</ele>
        <time>2018-06-10T09:27:22Z</time>
      </trkpt>
      <trkpt lat="44.66215" lon="5.05995">
        <ele>582</ele>
        <time>2018-06-10T09:27:24Z</time>
      </trkpt>
      <trkpt lat="44.66215" lon="5.05999">
        <ele>583</ele>
        <time>2018-06-10T09:27:26Z</time>
      </trkpt>
      <trkpt lat="44.66215" lon="5.06002">
        <ele>583</ele>
        <time>2018-06-10T09:27:28Z</time>
      </trkpt>
      <trkpt lat="44.66215" lon="5.06005">
        <ele>584</ele>
        <time>2018-06-10T09:27:30Z</time>
      </trkpt>
      <trkpt lat="44.66214" lon="5.06009">
        <ele>584</ele>
        <time>2018-06-10T09:27:32Z</time>
      </trkpt>
      <trkpt lat="44.66215" lon="5.06012">
        <ele>584</ele>
        <time>2018-06-10T09:27:34Z</time>
      </trkpt>
      <trkpt lat="44.66214" lon="5.06016">
        <ele>585</ele>
        <time>2018-06-10T09:27:36Z</time>
      </trkpt>
      <trkpt lat="44.66215" lon="5.06021">
        <ele>586</ele>
        <time>2018-06-10T09:27:38Z</time>
      </trkpt>
      <trkpt lat="44.66216" lon="5.06024">
        <ele>585</ele>
        <time>2018-06-10T09:27:40Z</time>
      </trkpt>
      <trkpt lat="44.66217" lon="5.06027">
        <ele>586</ele>
        <time>2018-06-10T09:27:42Z</time>
      </trkpt>
      <trkpt lat="44.66218" lon="5.0603">
        <ele>587</ele>
        <time>2018-06-10T09:27:44Z</time>
      </trkpt>
      <trkpt lat="44.66219" lon="5.06034">
        <ele>586</ele>
        <time>2018-06-10T09:27:46Z</time>
      </trkpt>
      <trkpt lat="44.66221" lon="5.06035">
        <ele>587</ele>
        <time>2018-06-10T09:27:48Z</time>
      </trkpt>
      <trkpt lat="44.66223" lon="5.06038">
        <ele>587</ele>
        <time>2018-06-10T09:27:50Z</time>
      </trkpt>
      <trkpt lat="44.66224" lon="5.06038">
        <ele>587</ele>
        <time>2018-06-10T09:27:52Z</time>
      </trkpt>
      <trkpt lat="44.66226" lon="5.0604">
        <ele>587</ele>
        <time>2018-06-10T09:27:55Z</time>
      </trkpt>
      <trkpt lat="44.66227" lon="5.06041">
        <ele>588</ele>
        <time>2018-06-10T09:27:57Z</time>
      </trkpt>
      <trkpt lat="44.66229" lon="5.06042">
        <ele>588</ele>
        <time>2018-06-10T09:27:59Z</time>
      </trkpt>
      <trkpt lat="44.66231" lon="5.06043">
        <ele>588</ele>
        <time>2018-06-10T09:28:01Z</time>
      </trkpt>
      <trkpt lat="44.66233" lon="5.06044">
        <ele>589</ele>
        <time>2018-06-10T09:28:03Z</time>
      </trkpt>
      <trkpt lat="44.66235" lon="5.06044">
        <ele>589</ele>
        <time>2018-06-10T09:28:05Z</time>
      </trkpt>
      <trkpt lat="44.66236" lon="5.06045">
        <ele>590</ele>
        <time>2018-06-10T09:28:07Z</time>
      </trkpt>
      <trkpt lat="44.66238" lon="5.06044">
        <ele>590</ele>
        <time>2018-06-10T09:28:09Z</time>
      </trkpt>
      <trkpt lat="44.6624" lon="5.06045">
        <ele>591</ele>
        <time>2018-06-10T09:28:11Z</time>
      </trkpt>
      <trkpt lat="44.66241" lon="5.06046">
        <ele>591</ele>
        <time>2018-06-10T09:28:13Z</time>
      </trkpt>
      <trkpt lat="44.66242" lon="5.06046">
        <ele>591</ele>
        <time>2018-06-10T09:28:15Z</time>
      </trkpt>
      <trkpt lat="44.66244" lon="5.06046">
        <ele>591</ele>
        <time>2018-06-10T09:28:17Z</time>
      </trkpt>
      <trkpt lat="44.66246" lon="5.06047">
        <ele>592</ele>
        <time>2018-06-10T09:28:19Z</time>
      </trkpt>
      <trkpt lat="44.66248" lon="5.06047">
        <ele>592</ele>
        <time>2018-06-10T09:28:21Z</time>
      </trkpt>
      <trkpt lat="44.6625" lon="5.06047">
        <ele>593</ele>
        <time>2018-06-10T09:28:23Z</time>
      </trkpt>
      <trkpt lat="44.66252" lon="5.06045">
        <ele>593</ele>
        <time>2018-06-10T09:28:25Z</time>
      </trkpt>
      <trkpt lat="44.66253" lon="5.06045">
        <ele>593</ele>
        <time>2018-06-10T09:28:27Z</time>
      </trkpt>
      <trkpt lat="44.66256" lon="5.06043">
        <ele>593</ele>
        <time>2018-06-10T09:28:29Z</time>
      </trkpt>
      <trkpt lat="44.66258" lon="5.06042">
        <ele>593</ele>
        <time>2018-06-10T09:28:31Z</time>
      </trkpt>
      <trkpt lat="44.6626" lon="5.06041">
        <ele>594</ele>
        <time>2018-06-10T09:28:33Z</time>
      </trkpt>
      <trkpt lat="44.66262" lon="5.06041">
        <ele>594</ele>
        <time>2018-06-10T09:28:35Z</time>
      </trkpt>
      <trkpt lat="44.66265" lon="5.06041">
        <ele>594</ele>
        <time>2018-06-10T09:28:37Z</time>
      </trkpt>
      <trkpt lat="44.66271" lon="5.06041">
        <ele>595</ele>
        <time>2018-06-10T09:28:39Z</time>
      </trkpt>
      <trkpt lat="44.66276" lon="5.0604">
        <ele>596</ele>
        <time>2018-06-10T09:28:41Z</time>
      </trkpt>
      <trkpt lat="44.66278" lon="5.06042">
        <ele>596</ele>
        <time>2018-06-10T09:28:43Z</time>
      </trkpt>
      <trkpt lat="44.66279" lon="5.06045">
        <ele>596</ele>
        <time>2018-06-10T09:28:45Z</time>
      </trkpt>
      <trkpt lat="44.6628" lon="5.06047">
        <ele>596</ele>
        <time>2018-06-10T09:28:47Z</time>
      </trkpt>
      <trkpt lat="44.66281" lon="5.0605">
        <ele>597</ele>
        <time>2018-06-10T09:28:49Z</time>
      </trkpt>
      <trkpt lat="44.66281" lon="5.06053">
        <ele>597</ele>
        <time>2018-06-10T09:28:51Z</time>
      </trkpt>
      <trkpt lat="44.66281" lon="5.06056">
        <ele>598</ele>
        <time>2018-06-10T09:28:54Z</time>
      </trkpt>
      <trkpt lat="44.66282" lon="5.06058">
        <ele>598</ele>
        <time>2018-06-10T09:28:56Z</time>
      </trkpt>
      <trkpt lat="44.66281" lon="5.06061">
        <ele>598</ele>
        <time>2018-06-10T09:28:58Z</time>
      </trkpt>
      <trkpt lat="44.66281" lon="5.06063">
        <ele>599</ele>
        <time>2018-06-10T09:29:00Z</time>
      </trkpt>
      <trkpt lat="44.66282" lon="5.06064">
        <ele>599</ele>
        <time>2018-06-10T09:29:02Z</time>
      </trkpt>
      <trkpt lat="44.66282" lon="5.06067">
        <ele>599</ele>
        <time>2018-06-10T09:29:04Z</time>
      </trkpt>
      <trkpt lat="44.66281" lon="5.06073">
        <ele>599</ele>
        <time>2018-06-10T09:29:06Z</time>
      </trkpt>
      <trkpt lat="44.66281" lon="5.06076">
        <ele>600</ele>
        <time>2018-06-10T09:29:08Z</time>
      </trkpt>
      <trkpt lat="44.66281" lon="5.0608">
        <ele>600</ele>
        <time>2018-06-10T09:29:10Z</time>
      </trkpt>
      <trkpt lat="44.66281" lon="5.06081">
        <ele>600</ele>
        <time>2018-06-10T09:29:12Z</time>
      </trkpt>
      <trkpt lat="44.6628" lon="5.06084">
        <ele>600</ele>
        <time>2018-06-10T09:29:14Z</time>
      </trkpt>
      <trkpt lat="44.6628" lon="5.06086">
        <ele>601</ele>
        <time>2018-06-10T09:29:16Z</time>
      </trkpt>
      <trkpt lat="44.66279" lon="5.0609">
        <ele>601</ele>
        <time>2018-06-10T09:29:18Z</time>
      </trkpt>
      <trkpt lat="44.66279" lon="5.06094">
        <ele>602</ele>
        <time>2018-06-10T09:29:20Z</time>
      </trkpt>
      <trkpt lat="44.66278" lon="5.06096">
        <ele>602</ele>
        <time>2018-06-10T09:29:22Z</time>
      </trkpt>
      <trkpt lat="44.66278" lon="5.06099">
        <ele>602</ele>
        <time>2018-06-10T09:29:24Z</time>
      </trkpt>
      <trkpt lat="44.66278" lon="5.06103">
        <ele>602</ele>
        <time>2018-06-10T09:29:26Z</time>
      </trkpt>
      <trkpt lat="44.66277" lon="5.06106">
        <ele>603</ele>
        <time>2018-06-10T09:29:28Z</time>
      </trkpt>
      <trkpt lat="44.66277" lon="5.06108">
        <ele>603</ele>
        <time>2018-06-10T09:29:30Z</time>
      </trkpt>
      <trkpt lat="44.66277" lon="5.06112">
        <ele>604</ele>
        <time>2018-06-10T09:29:32Z</time>
      </trkpt>
      <trkpt lat="44.66276" lon="5.06116">
        <ele>605</ele>
        <time>2018-06-10T09:29:34Z</time>
      </trkpt>
      <trkpt lat="44.66276" lon="5.0612">
        <ele>605</ele>
        <time>2018-06-10T09:29:36Z</time>
      </trkpt>
      <trkpt lat="44.66276" lon="5.06124">
        <ele>606</ele>
        <time>2018-06-10T09:29:38Z</time>
      </trkpt>
      <trkpt lat="44.66275" lon="5.06128">
        <ele>606</ele>
        <time>2018-06-10T09:29:40Z</time>
      </trkpt>
      <trkpt lat="44.66275" lon="5.06132">
        <ele>606</ele>
        <time>2018-06-10T09:29:42Z</time>
      </trkpt>
      <trkpt lat="44.66275" lon="5.06135">
        <ele>607</ele>
        <time>2018-06-10T09:29:44Z</time>
      </trkpt>
      <trkpt lat="44.66275" lon="5.06138">
        <ele>607</ele>
        <time>2018-06-10T09:29:46Z</time>
      </trkpt>
      <trkpt lat="44.66274" lon="5.0614">
        <ele>607</ele>
        <time>2018-06-10T09:29:48Z</time>
      </trkpt>
      <trkpt lat="44.66274" lon="5.06142">
        <ele>607</ele>
        <time>2018-06-10T09:29:50Z</time>
      </trkpt>
      <trkpt lat="44.66274" lon="5.06142">
        <ele>607</ele>
        <time>2018-06-10T09:29:52Z</time>
      </trkpt>
      <trkpt lat="44.66273" lon="5.06146">
        <ele>608</ele>
        <time>2018-06-10T09:29:54Z</time>
      </trkpt>
      <trkpt lat="44.66273" lon="5.06147">
        <ele>608</ele>
        <time>2018-06-10T09:29:56Z</time>
      </trkpt>
      <trkpt lat="44.66273" lon="5.06149">
        <ele>608</ele>
        <time>2018-06-10T09:29:58Z</time>
      </trkpt>
      <trkpt lat="44.66273" lon="5.06151">
        <ele>609</ele>
        <time>2018-06-10T09:30:00Z</time>
      </trkpt>
      <trkpt lat="44.66273" lon="5.06154">
        <ele>609</ele>
        <time>2018-06-10T09:30:02Z</time>
      </trkpt>
      <trkpt lat="44.66273" lon="5.06156">
        <ele>609</ele>
        <time>2018-06-10T09:30:04Z</time>
      </trkpt>
      <trkpt lat="44.66273" lon="5.06159">
        <ele>610</ele>
        <time>2018-06-10T09:30:06Z</time>
      </trkpt>
      <trkpt lat="44.66273" lon="5.06161">
        <ele>610</ele>
        <time>2018-06-10T09:30:08Z</time>
      </trkpt>
      <trkpt lat="44.66273" lon="5.06164">
        <ele>610</ele>
        <time>2018-06-10T09:30:10Z</time>
      </trkpt>
      <trkpt lat="44.66273" lon="5.06166">
        <ele>610</ele>
        <time>2018-06-10T09:30:12Z</time>
      </trkpt>
      <trkpt lat="44.66273" lon="5.06167">
        <ele>611</ele>
        <time>2018-06-10T09:30:14Z</time>
      </trkpt>
      <trkpt lat="44.66273" lon="5.06169">
        <ele>611</ele>
        <time>2018-06-10T09:30:16Z</time>
      </trkpt>
      <trkpt lat="44.66273" lon="5.06172">
        <ele>611</ele>
        <time>2018-06-10T09:30:18Z</time>
      </trkpt>
      <trkpt lat="44.66273" lon="5.06173">
        <ele>612</ele>
        <time>2018-06-10T09:30:20Z</time>
      </trkpt>
      <trkpt lat="44.66272" lon="5.06175">
        <ele>612</ele>
        <time>2018-06-10T09:30:23Z</time>
      </trkpt>
      <trkpt lat="44.66271" lon="5.06176">
        <ele>612</ele>
        <time>2018-06-10T09:30:25Z</time>
      </trkpt>
      <trkpt lat="44.6627" lon="5.06178">
        <ele>612</ele>
        <time>2018-06-10T09:30:27Z</time>
      </trkpt>
      <trkpt lat="44.6627" lon="5.06179">
        <ele>613</ele>
        <time>2018-06-10T09:30:29Z</time>
      </trkpt>
      <trkpt lat="44.6627" lon="5.06181">
        <ele>612</ele>
        <time>2018-06-10T09:30:31Z</time>
      </trkpt>
      <trkpt lat="44.6627" lon="5.06184">
        <ele>613</ele>
        <time>2018-06-10T09:30:33Z</time>
      </trkpt>
      <trkpt lat="44.66269" lon="5.06187">
        <ele>613</ele>
        <time>2018-06-10T09:30:35Z</time>
      </trkpt>
      <trkpt lat="44.66269" lon="5.0619">
        <ele>614</ele>
        <time>2018-06-10T09:30:37Z</time>
      </trkpt>
      <trkpt lat="44.66269" lon="5.06192">
        <ele>614</ele>
        <time>2018-06-10T09:30:39Z</time>
      </trkpt>
      <trkpt lat="44.66269" lon="5.06196">
        <ele>614</ele>
        <time>2018-06-10T09:30:41Z</time>
      </trkpt>
      <trkpt lat="44.66268" lon="5.06199">
        <ele>615</ele>
        <time>2018-06-10T09:30:43Z</time>
      </trkpt>
      <trkpt lat="44.66268" lon="5.06203">
        <ele>615</ele>
        <time>2018-06-10T09:30:45Z</time>
      </trkpt>
      <trkpt lat="44.66267" lon="5.06207">
        <ele>615</ele>
        <time>2018-06-10T09:30:47Z</time>
      </trkpt>
      <trkpt lat="44.66266" lon="5.06211">
        <ele>616</ele>
        <time>2018-06-10T09:30:49Z</time>
      </trkpt>
      <trkpt lat="44.66265" lon="5.06215">
        <ele>616</ele>
        <time>2018-06-10T09:30:51Z</time>
      </trkpt>
      <trkpt lat="44.66265" lon="5.06219">
        <ele>616</ele>
        <time>2018-06-10T09:30:53Z</time>
      </trkpt>
      <trkpt lat="44.66264" lon="5.06221">
        <ele>616</ele>
        <time>2018-06-10T09:30:55Z</time>
      </trkpt>
      <trkpt lat="44.66264" lon="5.06224">
        <ele>617</ele>
        <time>2018-06-10T09:30:57Z</time>
      </trkpt>
      <trkpt lat="44.66264" lon="5.06228">
        <ele>617</ele>
        <time>2018-06-10T09:30:59Z</time>
      </trkpt>
      <trkpt lat="44.66264" lon="5.06231">
        <ele>617</ele>
        <time>2018-06-10T09:31:01Z</time>
      </trkpt>
      <trkpt lat="44.66263" lon="5.06234">
        <ele>618</ele>
        <time>2018-06-10T09:31:03Z</time>
      </trkpt>
      <trkpt lat="44.66263" lon="5.06237">
        <ele>618</ele>
        <time>2018-06-10T09:31:05Z</time>
      </trkpt>
      <trkpt lat="44.66262" lon="5.0624">
        <ele>618</ele>
        <time>2018-06-10T09:31:07Z</time>
      </trkpt>
      <trkpt lat="44.66261" lon="5.06243">
        <ele>619</ele>
        <time>2018-06-10T09:31:09Z</time>
      </trkpt>
      <trkpt lat="44.66261" lon="5.06246">
        <ele>619</ele>
        <time>2018-06-10T09:31:11Z</time>
      </trkpt>
      <trkpt lat="44.66261" lon="5.06248">
        <ele>620</ele>
        <time>2018-06-10T09:31:13Z</time>
      </trkpt>
      <trkpt lat="44.66261" lon="5.06251">
        <ele>620</ele>
        <time>2018-06-10T09:31:15Z</time>
      </trkpt>
      <trkpt lat="44.66261" lon="5.06255">
        <ele>620</ele>
        <time>2018-06-10T09:31:17Z</time>
      </trkpt>
      <trkpt lat="44.66261" lon="5.06258">
        <ele>620</ele>
        <time>2018-06-10T09:31:20Z</time>
      </trkpt>
      <trkpt lat="44.66261" lon="5.06261">
        <ele>621</ele>
        <time>2018-06-10T09:31:22Z</time>
      </trkpt>
      <trkpt lat="44.66261" lon="5.06263">
        <ele>621</ele>
        <time>2018-06-10T09:31:24Z</time>
      </trkpt>
      <trkpt lat="44.66261" lon="5.06266">
        <ele>621</ele>
        <time>2018-06-10T09:31:26Z</time>
      </trkpt>
      <trkpt lat="44.66262" lon="5.06269">
        <ele>621</ele>
        <time>2018-06-10T09:31:28Z</time>
      </trkpt>
      <trkpt lat="44.66263" lon="5.06272">
        <ele>621</ele>
        <time>2018-06-10T09:31:30Z</time>
      </trkpt>
      <trkpt lat="44.66264" lon="5.06275">
        <ele>621</ele>
        <time>2018-06-10T09:31:32Z</time>
      </trkpt>
      <trkpt lat="44.66265" lon="5.06278">
        <ele>621</ele>
        <time>2018-06-10T09:31:34Z</time>
      </trkpt>
      <trkpt lat="44.66266" lon="5.06282">
        <ele>622</ele>
        <time>2018-06-10T09:31:36Z</time>
      </trkpt>
      <trkpt lat="44.66267" lon="5.06285">
        <ele>622</ele>
        <time>2018-06-10T09:31:38Z</time>
      </trkpt>
      <trkpt lat="44.66268" lon="5.06288">
        <ele>622</ele>
        <time>2018-06-10T09:31:40Z</time>
      </trkpt>
      <trkpt lat="44.6627" lon="5.06295">
        <ele>622</ele>
        <time>2018-06-10T09:31:42Z</time>
      </trkpt>
      <trkpt lat="44.66271" lon="5.06298">
        <ele>622</ele>
        <time>2018-06-10T09:31:44Z</time>
      </trkpt>
      <trkpt lat="44.66273" lon="5.06301">
        <ele>622</ele>
        <time>2018-06-10T09:31:46Z</time>
      </trkpt>
      <trkpt lat="44.66275" lon="5.06304">
        <ele>622</ele>
        <time>2018-06-10T09:31:48Z</time>
      </trkpt>
      <trkpt lat="44.66276" lon="5.06307">
        <ele>622</ele>
        <time>2018-06-10T09:31:50Z</time>
      </trkpt>
      <trkpt lat="44.66278" lon="5.0631">
        <ele>622</ele>
        <time>2018-06-10T09:31:52Z</time>
      </trkpt>
      <trkpt lat="44.66279" lon="5.06314">
        <ele>622</ele>
        <time>2018-06-10T09:31:54Z</time>
      </trkpt>
      <trkpt lat="44.6628" lon="5.06317">
        <ele>622</ele>
        <time>2018-06-10T09:31:56Z</time>
      </trkpt>
      <trkpt lat="44.66282" lon="5.06319">
        <ele>623</ele>
        <time>2018-06-10T09:31:58Z</time>
      </trkpt>
      <trkpt lat="44.66284" lon="5.06323">
        <ele>622</ele>
        <time>2018-06-10T09:32:00Z</time>
      </trkpt>
      <trkpt lat="44.66287" lon="5.06326">
        <ele>622</ele>
        <time>2018-06-10T09:32:02Z</time>
      </trkpt>
      <trkpt lat="44.66288" lon="5.06328">
        <ele>623</ele>
        <time>2018-06-10T09:32:05Z</time>
      </trkpt>
      <trkpt lat="44.66287" lon="5.06329">
        <ele>623</ele>
        <time>2018-06-10T09:32:07Z</time>
      </trkpt>
      <trkpt lat="44.66286" lon="5.06336">
        <ele>623</ele>
        <time>2018-06-10T09:32:09Z</time>
      </trkpt>
      <trkpt lat="44.66289" lon="5.06337">
        <ele>624</ele>
        <time>2018-06-10T09:32:11Z</time>
      </trkpt>
      <trkpt lat="44.66289" lon="5.06337">
        <ele>623</ele>
        <time>2018-06-10T09:32:13Z</time>
      </trkpt>
      <trkpt lat="44.6629" lon="5.06337">
        <ele>624</ele>
        <time>2018-06-10T09:32:15Z</time>
      </trkpt>
      <trkpt lat="44.66292" lon="5.06336">
        <ele>624</ele>
        <time>2018-06-10T09:32:17Z</time>
      </trkpt>
      <trkpt lat="44.66293" lon="5.06336">
        <ele>624</ele>
        <time>2018-06-10T09:32:19Z</time>
      </trkpt>
      <trkpt lat="44.66294" lon="5.06335">
        <ele>624</ele>
        <time>2018-06-10T09:32:21Z</time>
      </trkpt>
      <trkpt lat="44.66295" lon="5.06334">
        <ele>625</ele>
        <time>2018-06-10T09:32:23Z</time>
      </trkpt>
      <trkpt lat="44.66296" lon="5.06333">
        <ele>625</ele>
        <time>2018-06-10T09:32:25Z</time>
      </trkpt>
      <trkpt lat="44.66296" lon="5.06332">
        <ele>626</ele>
        <time>2018-06-10T09:32:27Z</time>
      </trkpt>
      <trkpt lat="44.66296" lon="5.0633">
        <ele>626</ele>
        <time>2018-06-10T09:32:29Z</time>
      </trkpt>
      <trkpt lat="44.66297" lon="5.06329">
        <ele>626</ele>
        <time>2018-06-10T09:32:31Z</time>
      </trkpt>
      <trkpt lat="44.66297" lon="5.06327">
        <ele>627</ele>
        <time>2018-06-10T09:32:33Z</time>
      </trkpt>
      <trkpt lat="44.66296" lon="5.06326">
        <ele>627</ele>
        <time>2018-06-10T09:32:35Z</time>
      </trkpt>
      <trkpt lat="44.66296" lon="5.06324">
        <ele>627</ele>
        <time>2018-06-10T09:32:37Z</time>
      </trkpt>
      <trkpt lat="44.66296" lon="5.06322">
        <ele>628</ele>
        <time>2018-06-10T09:32:39Z</time>
      </trkpt>
      <trkpt lat="44.66297" lon="5.0632">
        <ele>628</ele>
        <time>2018-06-10T09:32:41Z</time>
      </trkpt>
      <trkpt lat="44.66297" lon="5.06318">
        <ele>628</ele>
        <time>2018-06-10T09:32:43Z</time>
      </trkpt>
      <trkpt lat="44.66297" lon="5.06317">
        <ele>628</ele>
        <time>2018-06-10T09:32:45Z</time>
      </trkpt>
      <trkpt lat="44.66297" lon="5.06315">
        <ele>629</ele>
        <time>2018-06-10T09:32:47Z</time>
      </trkpt>
      <trkpt lat="44.66298" lon="5.06314">
        <ele>630</ele>
        <time>2018-06-10T09:32:49Z</time>
      </trkpt>
      <trkpt lat="44.66298" lon="5.06313">
        <ele>630</ele>
        <time>2018-06-10T09:32:51Z</time>
      </trkpt>
      <trkpt lat="44.66298" lon="5.06312">
        <ele>630</ele>
        <time>2018-06-10T09:32:53Z</time>
      </trkpt>
      <trkpt lat="44.66298" lon="5.06311">
        <ele>631</ele>
        <time>2018-06-10T09:32:55Z</time>
      </trkpt>
      <trkpt lat="44.66299" lon="5.06309">
        <ele>631</ele>
        <time>2018-06-10T09:32:57Z</time>
      </trkpt>
      <trkpt lat="44.66299" lon="5.06308">
        <ele>631</ele>
        <time>2018-06-10T09:32:59Z</time>
      </trkpt>
      <trkpt lat="44.663" lon="5.06306">
        <ele>632</ele>
        <time>2018-06-10T09:33:01Z</time>
      </trkpt>
      <trkpt lat="44.663" lon="5.06305">
        <ele>631</ele>
        <time>2018-06-10T09:33:03Z</time>
      </trkpt>
      <trkpt lat="44.663" lon="5.06304">
        <ele>632</ele>
        <time>2018-06-10T09:33:05Z</time>
      </trkpt>
      <trkpt lat="44.663" lon="5.06302">
        <ele>632</ele>
        <time>2018-06-10T09:33:07Z</time>
      </trkpt>
      <trkpt lat="44.663" lon="5.06302">
        <ele>632</ele>
        <time>2018-06-10T09:33:10Z</time>
      </trkpt>
      <trkpt lat="44.663" lon="5.063">
        <ele>632</ele>
        <time>2018-06-10T09:33:12Z</time>
      </trkpt>
      <trkpt lat="44.66301" lon="5.06299">
        <ele>633</ele>
        <time>2018-06-10T09:33:14Z</time>
      </trkpt>
      <trkpt lat="44.66301" lon="5.06297">
        <ele>633</ele>
        <time>2018-06-10T09:33:16Z</time>
      </trkpt>
      <trkpt lat="44.66301" lon="5.06296">
        <ele>633</ele>
        <time>2018-06-10T09:33:18Z</time>
      </trkpt>
      <trkpt lat="44.66302" lon="5.06295">
        <ele>634</ele>
        <time>2018-06-10T09:33:20Z</time>
      </trkpt>
      <trkpt lat="44.66302" lon="5.06293">
        <ele>634</ele>
        <time>2018-06-10T09:33:22Z</time>
      </trkpt>
      <trkpt lat="44.66303" lon="5.06292">
        <ele>635</ele>
        <time>2018-06-10T09:33:24Z</time>
      </trkpt>
      <trkpt lat="44.66303" lon="5.0629">
        <ele>635</ele>
        <time>2018-06-10T09:33:26Z</time>
      </trkpt>
      <trkpt lat="44.66303" lon="5.06289">
        <ele>636</ele>
        <time>2018-06-10T09:33:28Z</time>
      </trkpt>
      <trkpt lat="44.66304" lon="5.06288">
        <ele>636</ele>
        <time>2018-06-10T09:33:30Z</time>
      </trkpt>
      <trkpt lat="44.66304" lon="5.06286">
        <ele>637</ele>
        <time>2018-06-10T09:33:32Z</time>
      </trkpt>
      <trkpt lat="44.66305" lon="5.06285">
        <ele>637</ele>
        <time>2018-06-10T09:33:34Z</time>
      </trkpt>
      <trkpt lat="44.66305" lon="5.06284">
        <ele>637</ele>
        <time>2018-06-10T09:33:36Z</time>
      </trkpt>
      <trkpt lat="44.66306" lon="5.06283">
        <ele>637</ele>
        <time>2018-06-10T09:33:38Z</time>
      </trkpt>
      <trkpt lat="44.66306" lon="5.06281">
        <ele>638</ele>
        <time>2018-06-10T09:33:40Z</time>
      </trkpt>
      <trkpt lat="44.66307" lon="5.0628">
        <ele>638</ele>
        <time>2018-06-10T09:33:42Z</time>
      </trkpt>
      <trkpt lat="44.66307" lon="5.06278">
        <ele>638</ele>
        <time>2018-06-10T09:33:44Z</time>
      </trkpt>
      <trkpt lat="44.66308" lon="5.06276">
        <ele>638</ele>
        <time>2018-06-10T09:33:46Z</time>
      </trkpt>
      <trkpt lat="44.66309" lon="5.06275">
        <ele>638</ele>
        <time>2018-06-10T09:33:48Z</time>
      </trkpt>
      <trkpt lat="44.6631" lon="5.06274">
        <ele>639</ele>
        <time>2018-06-10T09:33:50Z</time>
      </trkpt>
      <trkpt lat="44.66311" lon="5.06272">
        <ele>639</ele>
        <time>2018-06-10T09:33:52Z</time>
      </trkpt>
      <trkpt lat="44.66312" lon="5.06271">
        <ele>639</ele>
        <time>2018-06-10T09:33:54Z</time>
      </trkpt>
      <trkpt lat="44.66312" lon="5.0627">
        <ele>639</ele>
        <time>2018-06-10T09:33:56Z</time>
      </trkpt>
      <trkpt lat="44.66313" lon="5.06268">
        <ele>639</ele>
        <time>2018-06-10T09:33:58Z</time>
      </trkpt>
      <trkpt lat="44.66313" lon="5.06267">
        <ele>639</ele>
        <time>2018-06-10T09:34:00Z</time>
      </trkpt>
      <trkpt lat="44.66314" lon="5.06265">
        <ele>639</ele>
        <time>2018-06-10T09:34:02Z</time>
      </trkpt>
      <trkpt lat="44.66315" lon="5.06264">
        <ele>639</ele>
        <time>2018-06-10T09:34:04Z</time>
      </trkpt>
      <trkpt lat="44.66316" lon="5.06263">
        <ele>640</ele>
        <time>2018-06-10T09:34:06Z</time>
      </trkpt>
      <trkpt lat="44.66316" lon="5.06262">
        <ele>640</ele>
        <time>2018-06-10T09:34:08Z</time>
      </trkpt>
      <trkpt lat="44.66317" lon="5.06261">
        <ele>640</ele>
        <time>2018-06-10T09:34:10Z</time>
      </trkpt>
      <trkpt lat="44.66317" lon="5.0626">
        <ele>640</ele>
        <time>2018-06-10T09:34:13Z</time>
      </trkpt>
      <trkpt lat="44.66318" lon="5.06259">
        <ele>640</ele>
        <time>2018-06-10T09:34:15Z</time>
      </trkpt>
      <trkpt lat="44.66319" lon="5.06257">
        <ele>640</ele>
        <time>2018-06-10T09:34:17Z</time>
      </trkpt>
      <trkpt lat="44.66319" lon="5.06256">
        <ele>641</ele>
        <time>2018-06-10T09:34:19Z</time>
      </trkpt>
      <trkpt lat="44.6632" lon="5.06254">
        <ele>641</ele>
        <time>2018-06-10T09:34:21Z</time>
      </trkpt>
      <trkpt lat="44.6632" lon="5.06253">
        <ele>641</ele>
        <time>2018-06-10T09:34:23Z</time>
      </trkpt>
      <trkpt lat="44.66321" lon="5.06251">
        <ele>641</ele>
        <time>2018-06-10T09:34:25Z</time>
      </trkpt>
      <trkpt lat="44.66321" lon="5.06249">
        <ele>642</ele>
        <time>2018-06-10T09:34:27Z</time>
      </trkpt>
      <trkpt lat="44.66322" lon="5.06247">
        <ele>642</ele>
        <time>2018-06-10T09:34:29Z</time>
      </trkpt>
      <trkpt lat="44.66322" lon="5.06245">
        <ele>642</ele>
        <time>2018-06-10T09:34:31Z</time>
      </trkpt>
      <trkpt lat="44.66323" lon="5.06243">
        <ele>642</ele>
        <time>2018-06-10T09:34:33Z</time>
      </trkpt>
      <trkpt lat="44.66323" lon="5.06241">
        <ele>643</ele>
        <time>2018-06-10T09:34:35Z</time>
      </trkpt>
      <trkpt lat="44.66324" lon="5.0624">
        <ele>643</ele>
        <time>2018-06-10T09:34:37Z</time>
      </trkpt>
      <trkpt lat="44.66325" lon="5.06239">
        <ele>643</ele>
        <time>2018-06-10T09:34:39Z</time>
      </trkpt>
      <trkpt lat="44.66327" lon="5.06238">
        <ele>644</ele>
        <time>2018-06-10T09:34:41Z</time>
      </trkpt>
      <trkpt lat="44.66328" lon="5.06237">
        <ele>644</ele>
        <time>2018-06-10T09:34:43Z</time>
      </trkpt>
      <trkpt lat="44.66329" lon="5.06235">
        <ele>644</ele>
        <time>2018-06-10T09:34:45Z</time>
      </trkpt>
      <trkpt lat="44.6633" lon="5.06234">
        <ele>644</ele>
        <time>2018-06-10T09:34:47Z</time>
      </trkpt>
      <trkpt lat="44.6633" lon="5.06233">
        <ele>645</ele>
        <time>2018-06-10T09:34:49Z</time>
      </trkpt>
      <trkpt lat="44.66331" lon="5.06231">
        <ele>645</ele>
        <time>2018-06-10T09:34:51Z</time>
      </trkpt>
      <trkpt lat="44.66331" lon="5.06231">
        <ele>645</ele>
        <time>2018-06-10T09:34:53Z</time>
      </trkpt>
      <trkpt lat="44.66332" lon="5.0623">
        <ele>645</ele>
        <time>2018-06-10T09:34:55Z</time>
      </trkpt>
      <trkpt lat="44.66333" lon="5.06229">
        <ele>645</ele>
        <time>2018-06-10T09:34:57Z</time>
      </trkpt>
      <trkpt lat="44.66335" lon="5.06227">
        <ele>645</ele>
        <time>2018-06-10T09:34:59Z</time>
      </trkpt>
      <trkpt lat="44.66336" lon="5.06226">
        <ele>645</ele>
        <time>2018-06-10T09:35:01Z</time>
      </trkpt>
      <trkpt lat="44.66337" lon="5.06224">
        <ele>645</ele>
        <time>2018-06-10T09:35:03Z</time>
      </trkpt>
      <trkpt lat="44.66338" lon="5.06222">
        <ele>645</ele>
        <time>2018-06-10T09:35:06Z</time>
      </trkpt>
      <trkpt lat="44.66339" lon="5.06221">
        <ele>645</ele>
        <time>2018-06-10T09:35:08Z</time>
      </trkpt>
      <trkpt lat="44.6634" lon="5.06219">
        <ele>646</ele>
        <time>2018-06-10T09:35:10Z</time>
      </trkpt>
      <trkpt lat="44.66341" lon="5.06217">
        <ele>646</ele>
        <time>2018-06-10T09:35:12Z</time>
      </trkpt>
      <trkpt lat="44.66342" lon="5.06216">
        <ele>646</ele>
        <time>2018-06-10T09:35:14Z</time>
      </trkpt>
      <trkpt lat="44.66344" lon="5.06214">
        <ele>647</ele>
        <time>2018-06-10T09:35:16Z</time>
      </trkpt>
      <trkpt lat="44.66345" lon="5.06213">
        <ele>647</ele>
        <time>2018-06-10T09:35:18Z</time>
      </trkpt>
      <trkpt lat="44.66346" lon="5.06212">
        <ele>647</ele>
        <time>2018-06-10T09:35:20Z</time>
      </trkpt>
      <trkpt lat="44.66346" lon="5.0621">
        <ele>648</ele>
        <time>2018-06-10T09:35:22Z</time>
      </trkpt>
      <trkpt lat="44.66346" lon="5.06208">
        <ele>648</ele>
        <time>2018-06-10T09:35:24Z</time>
      </trkpt>
      <trkpt lat="44.66347" lon="5.06207">
        <ele>649</ele>
        <time>2018-06-10T09:35:26Z</time>
      </trkpt>
      <trkpt lat="44.66348" lon="5.06205">
        <ele>649</ele>
        <time>2018-06-10T09:35:28Z</time>
      </trkpt>
      <trkpt lat="44.66349" lon="5.06204">
        <ele>649</ele>
        <time>2018-06-10T09:35:30Z</time>
      </trkpt>
      <trkpt lat="44.66351" lon="5.06202">
        <ele>649</ele>
        <time>2018-06-10T09:35:32Z</time>
      </trkpt>
      <trkpt lat="44.66352" lon="5.062">
        <ele>649</ele>
        <time>2018-06-10T09:35:34Z</time>
      </trkpt>
      <trkpt lat="44.66352" lon="5.06199">
        <ele>650</ele>
        <time>2018-06-10T09:35:36Z</time>
      </trkpt>
      <trkpt lat="44.66353" lon="5.06197">
        <ele>650</ele>
        <time>2018-06-10T09:35:38Z</time>
      </trkpt>
      <trkpt lat="44.66353" lon="5.06195">
        <ele>651</ele>
        <time>2018-06-10T09:35:40Z</time>
      </trkpt>
      <trkpt lat="44.66353" lon="5.06194">
        <ele>651</ele>
        <time>2018-06-10T09:35:42Z</time>
      </trkpt>
      <trkpt lat="44.66355" lon="5.06189">
        <ele>651</ele>
        <time>2018-06-10T09:35:44Z</time>
      </trkpt>
      <trkpt lat="44.66355" lon="5.06187">
        <ele>652</ele>
        <time>2018-06-10T09:35:46Z</time>
      </trkpt>
      <trkpt lat="44.66355" lon="5.06185">
        <ele>652</ele>
        <time>2018-06-10T09:35:48Z</time>
      </trkpt>
      <trkpt lat="44.66356" lon="5.06182">
        <ele>652</ele>
        <time>2018-06-10T09:35:50Z</time>
      </trkpt>
      <trkpt lat="44.66357" lon="5.0618">
        <ele>653</ele>
        <time>2018-06-10T09:35:52Z</time>
      </trkpt>
      <trkpt lat="44.66357" lon="5.06178">
        <ele>654</ele>
        <time>2018-06-10T09:35:54Z</time>
      </trkpt>
      <trkpt lat="44.66357" lon="5.06176">
        <ele>654</ele>
        <time>2018-06-10T09:35:56Z</time>
      </trkpt>
      <trkpt lat="44.66358" lon="5.06175">
        <ele>653</ele>
        <time>2018-06-10T09:35:58Z</time>
      </trkpt>
      <trkpt lat="44.66359" lon="5.06173">
        <ele>654</ele>
        <time>2018-06-10T09:36:00Z</time>
      </trkpt>
      <trkpt lat="44.66359" lon="5.06171">
        <ele>654</ele>
        <time>2018-06-10T09:36:02Z</time>
      </trkpt>
      <trkpt lat="44.66359" lon="5.06169">
        <ele>654</ele>
        <time>2018-06-10T09:36:04Z</time>
      </trkpt>
      <trkpt lat="44.66361" lon="5.06167">
        <ele>654</ele>
        <time>2018-06-10T09:36:06Z</time>
      </trkpt>
      <trkpt lat="44.66361" lon="5.06164">
        <ele>654</ele>
        <time>2018-06-10T09:36:08Z</time>
      </trkpt>
      <trkpt lat="44.6636" lon="5.06162">
        <ele>655</ele>
        <time>2018-06-10T09:36:10Z</time>
      </trkpt>
      <trkpt lat="44.66361" lon="5.0616">
        <ele>655</ele>
        <time>2018-06-10T09:36:12Z</time>
      </trkpt>
      <trkpt lat="44.66363" lon="5.06157">
        <ele>655</ele>
        <time>2018-06-10T09:36:14Z</time>
      </trkpt>
      <trkpt lat="44.66364" lon="5.06154">
        <ele>655</ele>
        <time>2018-06-10T09:36:16Z</time>
      </trkpt>
      <trkpt lat="44.66365" lon="5.06151">
        <ele>656</ele>
        <time>2018-06-10T09:36:19Z</time>
      </trkpt>
      <trkpt lat="44.66367" lon="5.06148">
        <ele>656</ele>
        <time>2018-06-10T09:36:21Z</time>
      </trkpt>
      <trkpt lat="44.66369" lon="5.06143">
        <ele>656</ele>
        <time>2018-06-10T09:36:23Z</time>
      </trkpt>
      <trkpt lat="44.66372" lon="5.06141">
        <ele>656</ele>
        <time>2018-06-10T09:36:25Z</time>
      </trkpt>
      <trkpt lat="44.66372" lon="5.06138">
        <ele>657</ele>
        <time>2018-06-10T09:36:27Z</time>
      </trkpt>
      <trkpt lat="44.66374" lon="5.06134">
        <ele>657</ele>
        <time>2018-06-10T09:36:29Z</time>
      </trkpt>
      <trkpt lat="44.66375" lon="5.06131">
        <ele>657</ele>
        <time>2018-06-10T09:36:31Z</time>
      </trkpt>
      <trkpt lat="44.66378" lon="5.06127">
        <ele>658</ele>
        <time>2018-06-10T09:36:33Z</time>
      </trkpt>
      <trkpt lat="44.66378" lon="5.06123">
        <ele>658</ele>
        <time>2018-06-10T09:36:35Z</time>
      </trkpt>
      <trkpt lat="44.66379" lon="5.06119">
        <ele>658</ele>
        <time>2018-06-10T09:36:37Z</time>
      </trkpt>
      <trkpt lat="44.66382" lon="5.06115">
        <ele>658</ele>
        <time>2018-06-10T09:36:39Z</time>
      </trkpt>
      <trkpt lat="44.66383" lon="5.06111">
        <ele>658</ele>
        <time>2018-06-10T09:36:41Z</time>
      </trkpt>
      <trkpt lat="44.66384" lon="5.06109">
        <ele>659</ele>
        <time>2018-06-10T09:36:43Z</time>
      </trkpt>
      <trkpt lat="44.66384" lon="5.06106">
        <ele>659</ele>
        <time>2018-06-10T09:36:45Z</time>
      </trkpt>
      <trkpt lat="44.66384" lon="5.061">
        <ele>659</ele>
        <time>2018-06-10T09:36:47Z</time>
      </trkpt>
      <trkpt lat="44.66384" lon="5.06094">
        <ele>659</ele>
        <time>2018-06-10T09:36:49Z</time>
      </trkpt>
      <trkpt lat="44.66384" lon="5.0609">
        <ele>659</ele>
        <time>2018-06-10T09:36:51Z</time>
      </trkpt>
      <trkpt lat="44.66386" lon="5.06086">
        <ele>659</ele>
        <time>2018-06-10T09:36:53Z</time>
      </trkpt>
      <trkpt lat="44.66387" lon="5.06081">
        <ele>659</ele>
        <time>2018-06-10T09:36:55Z</time>
      </trkpt>
      <trkpt lat="44.66388" lon="5.06079">
        <ele>660</ele>
        <time>2018-06-10T09:36:57Z</time>
      </trkpt>
      <trkpt lat="44.66392" lon="5.06073">
        <ele>660</ele>
        <time>2018-06-10T09:36:59Z</time>
      </trkpt>
      <trkpt lat="44.66392" lon="5.06067">
        <ele>660</ele>
        <time>2018-06-10T09:37:02Z</time>
      </trkpt>
      <trkpt lat="44.66396" lon="5.0606">
        <ele>660</ele>
        <time>2018-06-10T09:37:04Z</time>
      </trkpt>
      <trkpt lat="44.664" lon="5.06055">
        <ele>661</ele>
        <time>2018-06-10T09:37:06Z</time>
      </trkpt>
      <trkpt lat="44.66404" lon="5.06051">
        <ele>661</ele>
        <time>2018-06-10T09:37:08Z</time>
      </trkpt>
      <trkpt lat="44.66408" lon="5.06046">
        <ele>661</ele>
        <time>2018-06-10T09:37:10Z</time>
      </trkpt>
      <trkpt lat="44.66409" lon="5.06042">
        <ele>661</ele>
        <time>2018-06-10T09:37:12Z</time>
      </trkpt>
      <trkpt lat="44.66411" lon="5.0604">
        <ele>662</ele>
        <time>2018-06-10T09:37:14Z</time>
      </trkpt>
      <trkpt lat="44.66414" lon="5.06034">
        <ele>663</ele>
        <time>2018-06-10T09:37:16Z</time>
      </trkpt>
      <trkpt lat="44.66414" lon="5.0603">
        <ele>663</ele>
        <time>2018-06-10T09:37:18Z</time>
      </trkpt>
      <trkpt lat="44.66415" lon="5.06027">
        <ele>663</ele>
        <time>2018-06-10T09:37:20Z</time>
      </trkpt>
      <trkpt lat="44.66416" lon="5.06022">
        <ele>663</ele>
        <time>2018-06-10T09:37:22Z</time>
      </trkpt>
      <trkpt lat="44.66417" lon="5.06017">
        <ele>664</ele>
        <time>2018-06-10T09:37:24Z</time>
      </trkpt>
      <trkpt lat="44.66419" lon="5.06013">
        <ele>664</ele>
        <time>2018-06-10T09:37:26Z</time>
      </trkpt>
      <trkpt lat="44.66421" lon="5.06007">
        <ele>664</ele>
        <time>2018-06-10T09:37:28Z</time>
      </trkpt>
      <trkpt lat="44.66421" lon="5.06001">
        <ele>663</ele>
        <time>2018-06-10T09:37:30Z</time>
      </trkpt>
      <trkpt lat="44.66422" lon="5.05997">
        <ele>664</ele>
        <time>2018-06-10T09:37:32Z</time>
      </trkpt>
      <trkpt lat="44.66422" lon="5.05993">
        <ele>665</ele>
        <time>2018-06-10T09:37:34Z</time>
      </trkpt>
      <trkpt lat="44.66422" lon="5.05989">
        <ele>665</ele>
        <time>2018-06-10T09:37:36Z</time>
      </trkpt>
      <trkpt lat="44.66422" lon="5.05986">
        <ele>666</ele>
        <time>2018-06-10T09:37:38Z</time>
      </trkpt>
      <trkpt lat="44.66423" lon="5.05981">
        <ele>665</ele>
        <time>2018-06-10T09:37:40Z</time>
      </trkpt>
      <trkpt lat="44.66424" lon="5.05978">
        <ele>665</ele>
        <time>2018-06-10T09:37:42Z</time>
      </trkpt>
      <trkpt lat="44.66425" lon="5.05977">
        <ele>665</ele>
        <time>2018-06-10T09:37:44Z</time>
      </trkpt>
      <trkpt lat="44.66425" lon="5.05975">
        <ele>666</ele>
        <time>2018-06-10T09:37:46Z</time>
      </trkpt>
      <trkpt lat="44.66425" lon="5.05973">
        <ele>666</ele>
        <time>2018-06-10T09:37:48Z</time>
      </trkpt>
      <trkpt lat="44.66425" lon="5.05971">
        <ele>666</ele>
        <time>2018-06-10T09:37:50Z</time>
      </trkpt>
      <trkpt lat="44.66425" lon="5.0597">
        <ele>667</ele>
        <time>2018-06-10T09:37:52Z</time>
      </trkpt>
      <trkpt lat="44.66425" lon="5.05968">
        <ele>667</ele>
        <time>2018-06-10T09:37:54Z</time>
      </trkpt>
      <trkpt lat="44.66426" lon="5.05965">
        <ele>668</ele>
        <time>2018-06-10T09:37:56Z</time>
      </trkpt>
      <trkpt lat="44.66427" lon="5.05962">
        <ele>668</ele>
        <time>2018-06-10T09:37:59Z</time>
      </trkpt>
      <trkpt lat="44.66427" lon="5.05959">
        <ele>668</ele>
        <time>2018-06-10T09:38:01Z</time>
      </trkpt>
      <trkpt lat="44.66428" lon="5.05951">
        <ele>668</ele>
        <time>2018-06-10T09:38:03Z</time>
      </trkpt>
      <trkpt lat="44.66428" lon="5.05948">
        <ele>668</ele>
        <time>2018-06-10T09:38:05Z</time>
      </trkpt>
      <trkpt lat="44.66428" lon="5.05946">
        <ele>669</ele>
        <time>2018-06-10T09:38:07Z</time>
      </trkpt>
      <trkpt lat="44.66428" lon="5.05944">
        <ele>669</ele>
        <time>2018-06-10T09:38:09Z</time>
      </trkpt>
      <trkpt lat="44.66428" lon="5.05942">
        <ele>670</ele>
        <time>2018-06-10T09:38:11Z</time>
      </trkpt>
      <trkpt lat="44.66428" lon="5.05939">
        <ele>670</ele>
        <time>2018-06-10T09:38:13Z</time>
      </trkpt>
      <trkpt lat="44.66429" lon="5.05936">
        <ele>670</ele>
        <time>2018-06-10T09:38:15Z</time>
      </trkpt>
      <trkpt lat="44.66428" lon="5.05932">
        <ele>671</ele>
        <time>2018-06-10T09:38:17Z</time>
      </trkpt>
      <trkpt lat="44.66428" lon="5.05929">
        <ele>671</ele>
        <time>2018-06-10T09:38:19Z</time>
      </trkpt>
      <trkpt lat="44.66428" lon="5.05926">
        <ele>672</ele>
        <time>2018-06-10T09:38:21Z</time>
      </trkpt>
      <trkpt lat="44.66428" lon="5.05922">
        <ele>672</ele>
        <time>2018-06-10T09:38:23Z</time>
      </trkpt>
      <trkpt lat="44.6643" lon="5.05917">
        <ele>673</ele>
        <time>2018-06-10T09:38:25Z</time>
      </trkpt>
      <trkpt lat="44.66431" lon="5.05914">
        <ele>673</ele>
        <time>2018-06-10T09:38:27Z</time>
      </trkpt>
      <trkpt lat="44.66431" lon="5.05911">
        <ele>674</ele>
        <time>2018-06-10T09:38:29Z</time>
      </trkpt>
      <trkpt lat="44.66432" lon="5.05908">
        <ele>674</ele>
        <time>2018-06-10T09:38:31Z</time>
      </trkpt>
      <trkpt lat="44.66432" lon="5.05905">
        <ele>675</ele>
        <time>2018-06-10T09:38:33Z</time>
      </trkpt>
      <trkpt lat="44.66432" lon="5.05902">
        <ele>675</ele>
        <time>2018-06-10T09:38:35Z</time>
      </trkpt>
      <trkpt lat="44.66432" lon="5.05899">
        <ele>675</ele>
        <time>2018-06-10T09:38:37Z</time>
      </trkpt>
      <trkpt lat="44.66434" lon="5.05896">
        <ele>675</ele>
        <time>2018-06-10T09:38:39Z</time>
      </trkpt>
      <trkpt lat="44.66435" lon="5.05893">
        <ele>675</ele>
        <time>2018-06-10T09:38:41Z</time>
      </trkpt>
      <trkpt lat="44.66435" lon="5.0589">
        <ele>675</ele>
        <time>2018-06-10T09:38:43Z</time>
      </trkpt>
      <trkpt lat="44.66435" lon="5.05886">
        <ele>675</ele>
        <time>2018-06-10T09:38:45Z</time>
      </trkpt>
      <trkpt lat="44.66436" lon="5.05883">
        <ele>677</ele>
        <time>2018-06-10T09:38:47Z</time>
      </trkpt>
      <trkpt lat="44.66437" lon="5.05879">
        <ele>677</ele>
        <time>2018-06-10T09:38:50Z</time>
      </trkpt>
      <trkpt lat="44.66436" lon="5.05875">
        <ele>677</ele>
        <time>2018-06-10T09:38:52Z</time>
      </trkpt>
      <trkpt lat="44.66436" lon="5.05871">
        <ele>678</ele>
        <time>2018-06-10T09:38:54Z</time>
      </trkpt>
      <trkpt lat="44.66437" lon="5.05866">
        <ele>679</ele>
        <time>2018-06-10T09:38:56Z</time>
      </trkpt>
      <trkpt lat="44.66437" lon="5.05862">
        <ele>679</ele>
        <time>2018-06-10T09:38:58Z</time>
      </trkpt>
      <trkpt lat="44.66437" lon="5.0586">
        <ele>679</ele>
        <time>2018-06-10T09:39:00Z</time>
      </trkpt>
      <trkpt lat="44.66437" lon="5.05857">
        <ele>680</ele>
        <time>2018-06-10T09:39:02Z</time>
      </trkpt>
      <trkpt lat="44.66437" lon="5.05853">
        <ele>680</ele>
        <time>2018-06-10T09:39:04Z</time>
      </trkpt>
      <trkpt lat="44.66437" lon="5.0585">
        <ele>681</ele>
        <time>2018-06-10T09:39:06Z</time>
      </trkpt>
      <trkpt lat="44.66437" lon="5.05847">
        <ele>681</ele>
        <time>2018-06-10T09:39:08Z</time>
      </trkpt>
      <trkpt lat="44.66438" lon="5.05844">
        <ele>681</ele>
        <time>2018-06-10T09:39:10Z</time>
      </trkpt>
      <trkpt lat="44.66437" lon="5.05842">
        <ele>681</ele>
        <time>2018-06-10T09:39:12Z</time>
      </trkpt>
      <trkpt lat="44.66436" lon="5.05839">
        <ele>682</ele>
        <time>2018-06-10T09:39:14Z</time>
      </trkpt>
      <trkpt lat="44.66436" lon="5.05836">
        <ele>682</ele>
        <time>2018-06-10T09:39:16Z</time>
      </trkpt>
      <trkpt lat="44.66436" lon="5.05834">
        <ele>682</ele>
        <time>2018-06-10T09:39:18Z</time>
      </trkpt>
      <trkpt lat="44.66439" lon="5.05827">
        <ele>683</ele>
        <time>2018-06-10T09:39:20Z</time>
      </trkpt>
      <trkpt lat="44.66439" lon="5.05826">
        <ele>683</ele>
        <time>2018-06-10T09:39:22Z</time>
      </trkpt>
      <trkpt lat="44.66439" lon="5.05825">
        <ele>684</ele>
        <time>2018-06-10T09:39:24Z</time>
      </trkpt>
      <trkpt lat="44.6644" lon="5.05823">
        <ele>684</ele>
        <time>2018-06-10T09:39:26Z</time>
      </trkpt>
      <trkpt lat="44.6644" lon="5.05821">
        <ele>684</ele>
        <time>2018-06-10T09:39:28Z</time>
      </trkpt>
      <trkpt lat="44.6644" lon="5.0582">
        <ele>684</ele>
        <time>2018-06-10T09:39:31Z</time>
      </trkpt>
      <trkpt lat="44.6644" lon="5.05817">
        <ele>685</ele>
        <time>2018-06-10T09:39:33Z</time>
      </trkpt>
      <trkpt lat="44.6644" lon="5.05814">
        <ele>685</ele>
        <time>2018-06-10T09:39:35Z</time>
      </trkpt>
      <trkpt lat="44.6644" lon="5.05812">
        <ele>685</ele>
        <time>2018-06-10T09:39:37Z</time>
      </trkpt>
      <trkpt lat="44.6644" lon="5.0581">
        <ele>685</ele>
        <time>2018-06-10T09:39:39Z</time>
      </trkpt>
      <trkpt lat="44.6644" lon="5.05808">
        <ele>686</ele>
        <time>2018-06-10T09:39:41Z</time>
      </trkpt>
      <trkpt lat="44.66441" lon="5.05807">
        <ele>686</ele>
        <time>2018-06-10T09:39:43Z</time>
      </trkpt>
      <trkpt lat="44.66442" lon="5.05804">
        <ele>687</ele>
        <time>2018-06-10T09:39:45Z</time>
      </trkpt>
      <trkpt lat="44.66443" lon="5.058">
        <ele>687</ele>
        <time>2018-06-10T09:39:47Z</time>
      </trkpt>
      <trkpt lat="44.66444" lon="5.05798">
        <ele>687</ele>
        <time>2018-06-10T09:39:49Z</time>
      </trkpt>
      <trkpt lat="44.66443" lon="5.05795">
        <ele>687</ele>
        <time>2018-06-10T09:39:51Z</time>
      </trkpt>
      <trkpt lat="44.66443" lon="5.05793">
        <ele>687</ele>
        <time>2018-06-10T09:39:53Z</time>
      </trkpt>
      <trkpt lat="44.66443" lon="5.05788">
        <ele>688</ele>
        <time>2018-06-10T09:39:55Z</time>
      </trkpt>
      <trkpt lat="44.66443" lon="5.05786">
        <ele>688</ele>
        <time>2018-06-10T09:39:57Z</time>
      </trkpt>
      <trkpt lat="44.66443" lon="5.05784">
        <ele>688</ele>
        <time>2018-06-10T09:39:59Z</time>
      </trkpt>
      <trkpt lat="44.66443" lon="5.05781">
        <ele>688</ele>
        <time>2018-06-10T09:40:01Z</time>
      </trkpt>
      <trkpt lat="44.66444" lon="5.05778">
        <ele>689</ele>
        <time>2018-06-10T09:40:03Z</time>
      </trkpt>
      <trkpt lat="44.66444" lon="5.05777">
        <ele>689</ele>
        <time>2018-06-10T09:40:05Z</time>
      </trkpt>
      <trkpt lat="44.66446" lon="5.05777">
        <ele>690</ele>
        <time>2018-06-10T09:40:07Z</time>
      </trkpt>
      <trkpt lat="44.66447" lon="5.05776">
        <ele>690</ele>
        <time>2018-06-10T09:40:09Z</time>
      </trkpt>
      <trkpt lat="44.66447" lon="5.05774">
        <ele>691</ele>
        <time>2018-06-10T09:40:11Z</time>
      </trkpt>
      <trkpt lat="44.66447" lon="5.05773">
        <ele>691</ele>
        <time>2018-06-10T09:40:13Z</time>
      </trkpt>
      <trkpt lat="44.66447" lon="5.0577">
        <ele>691</ele>
        <time>2018-06-10T09:40:15Z</time>
      </trkpt>
      <trkpt lat="44.66446" lon="5.05767">
        <ele>691</ele>
        <time>2018-06-10T09:40:17Z</time>
      </trkpt>
      <trkpt lat="44.66444" lon="5.05763">
        <ele>691</ele>
        <time>2018-06-10T09:40:19Z</time>
      </trkpt>
      <trkpt lat="44.66442" lon="5.05759">
        <ele>690</ele>
        <time>2018-06-10T09:40:21Z</time>
      </trkpt>
      <trkpt lat="44.66442" lon="5.05756">
        <ele>691</ele>
        <time>2018-06-10T09:40:23Z</time>
      </trkpt>
      <trkpt lat="44.66443" lon="5.05753">
        <ele>691</ele>
        <time>2018-06-10T09:40:25Z</time>
      </trkpt>
      <trkpt lat="44.66443" lon="5.0575">
        <ele>692</ele>
        <time>2018-06-10T09:40:27Z</time>
      </trkpt>
      <trkpt lat="44.66443" lon="5.05745">
        <ele>692</ele>
        <time>2018-06-10T09:40:29Z</time>
      </trkpt>
      <trkpt lat="44.66442" lon="5.05741">
        <ele>693</ele>
        <time>2018-06-10T09:40:31Z</time>
      </trkpt>
      <trkpt lat="44.66441" lon="5.05737">
        <ele>693</ele>
        <time>2018-06-10T09:40:33Z</time>
      </trkpt>
      <trkpt lat="44.6644" lon="5.05732">
        <ele>693</ele>
        <time>2018-06-10T09:40:35Z</time>
      </trkpt>
      <trkpt lat="44.66439" lon="5.0573">
        <ele>693</ele>
        <time>2018-06-10T09:40:37Z</time>
      </trkpt>
      <trkpt lat="44.66438" lon="5.05727">
        <ele>694</ele>
        <time>2018-06-10T09:40:39Z</time>
      </trkpt>
      <trkpt lat="44.66438" lon="5.05723">
        <ele>694</ele>
        <time>2018-06-10T09:40:41Z</time>
      </trkpt>
      <trkpt lat="44.66437" lon="5.05718">
        <ele>695</ele>
        <time>2018-06-10T09:40:43Z</time>
      </trkpt>
      <trkpt lat="44.66437" lon="5.05714">
        <ele>696</ele>
        <time>2018-06-10T09:40:45Z</time>
      </trkpt>
      <trkpt lat="44.66435" lon="5.0571">
        <ele>696</ele>
        <time>2018-06-10T09:40:47Z</time>
      </trkpt>
      <trkpt lat="44.66435" lon="5.05705">
        <ele>697</ele>
        <time>2018-06-10T09:40:49Z</time>
      </trkpt>
      <trkpt lat="44.66435" lon="5.05702">
        <ele>697</ele>
        <time>2018-06-10T09:40:51Z</time>
      </trkpt>
      <trkpt lat="44.66434" lon="5.05698">
        <ele>697</ele>
        <time>2018-06-10T09:40:53Z</time>
      </trkpt>
      <trkpt lat="44.66434" lon="5.05696">
        <ele>697</ele>
        <time>2018-06-10T09:40:55Z</time>
      </trkpt>
      <trkpt lat="44.66433" lon="5.05694">
        <ele>697</ele>
        <time>2018-06-10T09:40:57Z</time>
      </trkpt>
      <trkpt lat="44.66432" lon="5.05692">
        <ele>697</ele>
        <time>2018-06-10T09:40:59Z</time>
      </trkpt>
      <trkpt lat="44.66431" lon="5.05691">
        <ele>698</ele>
        <time>2018-06-10T09:41:01Z</time>
      </trkpt>
      <trkpt lat="44.66429" lon="5.0569">
        <ele>698</ele>
        <time>2018-06-10T09:41:03Z</time>
      </trkpt>
      <trkpt lat="44.66429" lon="5.05688">
        <ele>698</ele>
        <time>2018-06-10T09:41:05Z</time>
      </trkpt>
      <trkpt lat="44.66427" lon="5.05687">
        <ele>698</ele>
        <time>2018-06-10T09:41:07Z</time>
      </trkpt>
      <trkpt lat="44.66427" lon="5.05686">
        <ele>698</ele>
        <time>2018-06-10T09:41:09Z</time>
      </trkpt>
      <trkpt lat="44.66426" lon="5.05685">
        <ele>698</ele>
        <time>2018-06-10T09:41:11Z</time>
      </trkpt>
      <trkpt lat="44.66426" lon="5.0568">
        <ele>699</ele>
        <time>2018-06-10T09:41:13Z</time>
      </trkpt>
      <trkpt lat="44.66426" lon="5.05679">
        <ele>700</ele>
        <time>2018-06-10T09:41:15Z</time>
      </trkpt>
      <trkpt lat="44.66426" lon="5.05678">
        <ele>700</ele>
        <time>2018-06-10T09:41:17Z</time>
      </trkpt>
      <trkpt lat="44.66425" lon="5.05677">
        <ele>701</ele>
        <time>2018-06-10T09:41:19Z</time>
      </trkpt>
      <trkpt lat="44.66425" lon="5.05676">
        <ele>701</ele>
        <time>2018-06-10T09:41:21Z</time>
      </trkpt>
      <trkpt lat="44.66424" lon="5.05678">
        <ele>701</ele>
        <time>2018-06-10T09:41:23Z</time>
      </trkpt>
      <trkpt lat="44.66426" lon="5.05675">
        <ele>701</ele>
        <time>2018-06-10T09:41:25Z</time>
      </trkpt>
      <trkpt lat="44.66428" lon="5.05675">
        <ele>701</ele>
        <time>2018-06-10T09:41:27Z</time>
      </trkpt>
      <trkpt lat="44.66428" lon="5.05676">
        <ele>701</ele>
        <time>2018-06-10T09:41:29Z</time>
      </trkpt>
      <trkpt lat="44.66433" lon="5.05673">
        <ele>702</ele>
        <time>2018-06-10T09:41:31Z</time>
      </trkpt>
      <trkpt lat="44.66434" lon="5.05673">
        <ele>701</ele>
        <time>2018-06-10T09:41:33Z</time>
      </trkpt>
      <trkpt lat="44.66434" lon="5.05675">
        <ele>701</ele>
        <time>2018-06-10T09:41:35Z</time>
      </trkpt>
      <trkpt lat="44.66436" lon="5.05676">
        <ele>701</ele>
        <time>2018-06-10T09:41:37Z</time>
      </trkpt>
      <trkpt lat="44.66435" lon="5.0568">
        <ele>701</ele>
        <time>2018-06-10T09:41:39Z</time>
      </trkpt>
      <trkpt lat="44.66436" lon="5.0568">
        <ele>701</ele>
        <time>2018-06-10T09:41:41Z</time>
      </trkpt>
      <trkpt lat="44.66439" lon="5.0568">
        <ele>700</ele>
        <time>2018-06-10T09:41:43Z</time>
      </trkpt>
      <trkpt lat="44.66439" lon="5.05681">
        <ele>700</ele>
        <time>2018-06-10T09:41:45Z</time>
      </trkpt>
      <trkpt lat="44.66441" lon="5.05684">
        <ele>700</ele>
        <time>2018-06-10T09:41:47Z</time>
      </trkpt>
      <trkpt lat="44.66442" lon="5.05686">
        <ele>699</ele>
        <time>2018-06-10T09:41:49Z</time>
      </trkpt>
      <trkpt lat="44.66447" lon="5.05685">
        <ele>700</ele>
        <time>2018-06-10T09:41:51Z</time>
      </trkpt>
      <trkpt lat="44.66448" lon="5.05686">
        <ele>699</ele>
        <time>2018-06-10T09:41:53Z</time>
      </trkpt>
      <trkpt lat="44.66448" lon="5.0569">
        <ele>700</ele>
        <time>2018-06-10T09:41:55Z</time>
      </trkpt>
      <trkpt lat="44.66452" lon="5.05692">
        <ele>699</ele>
        <time>2018-06-10T09:41:57Z</time>
      </trkpt>
      <trkpt lat="44.66453" lon="5.05691">
        <ele>699</ele>
        <time>2018-06-10T09:41:59Z</time>
      </trkpt>
      <trkpt lat="44.66454" lon="5.0569">
        <ele>699</ele>
        <time>2018-06-10T09:42:01Z</time>
      </trkpt>
      <trkpt lat="44.66454" lon="5.05685">
        <ele>698</ele>
        <time>2018-06-10T09:42:03Z</time>
      </trkpt>
      <trkpt lat="44.66453" lon="5.05684">
        <ele>698</ele>
        <time>2018-06-10T09:42:05Z</time>
      </trkpt>
      <trkpt lat="44.66452" lon="5.05682">
        <ele>697</ele>
        <time>2018-06-10T09:42:07Z</time>
      </trkpt>
      <trkpt lat="44.66451" lon="5.05681">
        <ele>697</ele>
        <time>2018-06-10T09:42:09Z</time>
      </trkpt>
      <trkpt lat="44.6645" lon="5.05681">
        <ele>696</ele>
        <time>2018-06-10T09:42:11Z</time>
      </trkpt>
      <trkpt lat="44.66449" lon="5.0568">
        <ele>697</ele>
        <time>2018-06-10T09:42:13Z</time>
      </trkpt>
      <trkpt lat="44.66448" lon="5.05675">
        <ele>696</ele>
        <time>2018-06-10T09:42:15Z</time>
      </trkpt>
      <trkpt lat="44.66447" lon="5.05674">
        <ele>696</ele>
        <time>2018-06-10T09:42:17Z</time>
      </trkpt>
      <trkpt lat="44.66447" lon="5.05674">
        <ele>695</ele>
        <time>2018-06-10T09:42:19Z</time>
      </trkpt>
      <trkpt lat="44.66446" lon="5.05674">
        <ele>695</ele>
        <time>2018-06-10T09:42:21Z</time>
      </trkpt>
      <trkpt lat="44.66447" lon="5.05669">
        <ele>694</ele>
        <time>2018-06-10T09:42:23Z</time>
      </trkpt>
      <trkpt lat="44.66446" lon="5.05669">
        <ele>694</ele>
        <time>2018-06-10T09:42:25Z</time>
      </trkpt>
      <trkpt lat="44.66446" lon="5.05669">
        <ele>694</ele>
        <time>2018-06-10T09:42:27Z</time>
      </trkpt>
      <trkpt lat="44.66447" lon="5.05669">
        <ele>694</ele>
        <time>2018-06-10T09:42:29Z</time>
      </trkpt>
      <trkpt lat="44.66448" lon="5.05669">
        <ele>694</ele>
        <time>2018-06-10T09:42:32Z</time>
      </trkpt>
      <trkpt lat="44.66443" lon="5.05664">
        <ele>693</ele>
        <time>2018-06-10T09:42:34Z</time>
      </trkpt>
      <trkpt lat="44.66442" lon="5.05667">
        <ele>693</ele>
        <time>2018-06-10T09:42:36Z</time>
      </trkpt>
      <trkpt lat="44.66442" lon="5.0567">
        <ele>693</ele>
        <time>2018-06-10T09:42:38Z</time>
      </trkpt>
      <trkpt lat="44.66443" lon="5.05669">
        <ele>692</ele>
        <time>2018-06-10T09:42:40Z</time>
      </trkpt>
      <trkpt lat="44.66443" lon="5.05668">
        <ele>692</ele>
        <time>2018-06-10T09:42:42Z</time>
      </trkpt>
      <trkpt lat="44.66448" lon="5.05669">
        <ele>691</ele>
        <time>2018-06-10T09:42:44Z</time>
      </trkpt>
      <trkpt lat="44.66449" lon="5.05669">
        <ele>691</ele>
        <time>2018-06-10T09:42:46Z</time>
      </trkpt>
      <trkpt lat="44.66451" lon="5.05671">
        <ele>690</ele>
        <time>2018-06-10T09:42:48Z</time>
      </trkpt>
      <trkpt lat="44.6645" lon="5.05671">
        <ele>690</ele>
        <time>2018-06-10T09:42:50Z</time>
      </trkpt>
      <trkpt lat="44.6645" lon="5.05671">
        <ele>689</ele>
        <time>2018-06-10T09:42:52Z</time>
      </trkpt>
      <trkpt lat="44.6645" lon="5.05671">
        <ele>689</ele>
        <time>2018-06-10T09:42:54Z</time>
      </trkpt>
      <trkpt lat="44.66451" lon="5.05671">
        <ele>688</ele>
        <time>2018-06-10T09:42:56Z</time>
      </trkpt>
      <trkpt lat="44.66451" lon="5.0567">
        <ele>687</ele>
        <time>2018-06-10T09:42:58Z</time>
      </trkpt>
      <trkpt lat="44.66453" lon="5.05673">
        <ele>687</ele>
        <time>2018-06-10T09:43:00Z</time>
      </trkpt>
      <trkpt lat="44.66454" lon="5.05671">
        <ele>687</ele>
        <time>2018-06-10T09:43:02Z</time>
      </trkpt>
      <trkpt lat="44.66455" lon="5.05671">
        <ele>686</ele>
        <time>2018-06-10T09:43:04Z</time>
      </trkpt>
      <trkpt lat="44.66456" lon="5.0567">
        <ele>686</ele>
        <time>2018-06-10T09:43:06Z</time>
      </trkpt>
      <trkpt lat="44.66455" lon="5.0567">
        <ele>685</ele>
        <time>2018-06-10T09:43:08Z</time>
      </trkpt>
      <trkpt lat="44.66456" lon="5.05671">
        <ele>685</ele>
        <time>2018-06-10T09:43:10Z</time>
      </trkpt>
      <trkpt lat="44.66457" lon="5.05671">
        <ele>683</ele>
        <time>2018-06-10T09:43:12Z</time>
      </trkpt>
      <trkpt lat="44.66458" lon="5.05671">
        <ele>683</ele>
        <time>2018-06-10T09:43:14Z</time>
      </trkpt>
      <trkpt lat="44.66459" lon="5.05668">
        <ele>682</ele>
        <time>2018-06-10T09:43:16Z</time>
      </trkpt>
      <trkpt lat="44.66458" lon="5.05663">
        <ele>681</ele>
        <time>2018-06-10T09:43:18Z</time>
      </trkpt>
      <trkpt lat="44.66456" lon="5.0566">
        <ele>681</ele>
        <time>2018-06-10T09:43:20Z</time>
      </trkpt>
      <trkpt lat="44.66454" lon="5.05655">
        <ele>680</ele>
        <time>2018-06-10T09:43:22Z</time>
      </trkpt>
      <trkpt lat="44.66455" lon="5.05654">
        <ele>679</ele>
        <time>2018-06-10T09:43:24Z</time>
      </trkpt>
      <trkpt lat="44.66457" lon="5.05653">
        <ele>678</ele>
        <time>2018-06-10T09:43:26Z</time>
      </trkpt>
      <trkpt lat="44.66458" lon="5.05651">
        <ele>677</ele>
        <time>2018-06-10T09:43:28Z</time>
      </trkpt>
      <trkpt lat="44.66459" lon="5.0565">
        <ele>677</ele>
        <time>2018-06-10T09:43:30Z</time>
      </trkpt>
      <trkpt lat="44.66459" lon="5.05645">
        <ele>676</ele>
        <time>2018-06-10T09:43:32Z</time>
      </trkpt>
      <trkpt lat="44.66462" lon="5.05635">
        <ele>673</ele>
        <time>2018-06-10T09:43:35Z</time>
      </trkpt>
      <trkpt lat="44.66463" lon="5.05627">
        <ele>673</ele>
        <time>2018-06-10T09:43:37Z</time>
      </trkpt>
      <trkpt lat="44.66465" lon="5.05624">
        <ele>673</ele>
        <time>2018-06-10T09:43:39Z</time>
      </trkpt>
      <trkpt lat="44.66467" lon="5.05618">
        <ele>672</ele>
        <time>2018-06-10T09:43:41Z</time>
      </trkpt>
      <trkpt lat="44.66469" lon="5.05615">
        <ele>672</ele>
        <time>2018-06-10T09:43:43Z</time>
      </trkpt>
      <trkpt lat="44.66469" lon="5.05613">
        <ele>672</ele>
        <time>2018-06-10T09:43:45Z</time>
      </trkpt>
      <trkpt lat="44.66471" lon="5.0561">
        <ele>672</ele>
        <time>2018-06-10T09:43:47Z</time>
      </trkpt>
      <trkpt lat="44.66473" lon="5.05606">
        <ele>672</ele>
        <time>2018-06-10T09:43:49Z</time>
      </trkpt>
      <trkpt lat="44.66474" lon="5.05605">
        <ele>671</ele>
        <time>2018-06-10T09:43:51Z</time>
      </trkpt>
      <trkpt lat="44.66478" lon="5.05603">
        <ele>671</ele>
        <time>2018-06-10T09:43:53Z</time>
      </trkpt>
      <trkpt lat="44.6648" lon="5.05601">
        <ele>671</ele>
        <time>2018-06-10T09:43:55Z</time>
      </trkpt>
      <trkpt lat="44.66482" lon="5.05599">
        <ele>671</ele>
        <time>2018-06-10T09:43:57Z</time>
      </trkpt>
      <trkpt lat="44.66487" lon="5.056">
        <ele>670</ele>
        <time>2018-06-10T09:44:00Z</time>
      </trkpt>
      <trkpt lat="44.66489" lon="5.05599">
        <ele>670</ele>
        <time>2018-06-10T09:44:02Z</time>
      </trkpt>
      <trkpt lat="44.66491" lon="5.05596">
        <ele>669</ele>
        <time>2018-06-10T09:44:04Z</time>
      </trkpt>
      <trkpt lat="44.66492" lon="5.05594">
        <ele>669</ele>
        <time>2018-06-10T09:44:06Z</time>
      </trkpt>
      <trkpt lat="44.66496" lon="5.05594">
        <ele>668</ele>
        <time>2018-06-10T09:44:08Z</time>
      </trkpt>
      <trkpt lat="44.665" lon="5.05593">
        <ele>666</ele>
        <time>2018-06-10T09:44:10Z</time>
      </trkpt>
      <trkpt lat="44.66503" lon="5.05591">
        <ele>666</ele>
        <time>2018-06-10T09:44:12Z</time>
      </trkpt>
      <trkpt lat="44.66506" lon="5.05589">
        <ele>665</ele>
        <time>2018-06-10T09:44:14Z</time>
      </trkpt>
      <trkpt lat="44.6651" lon="5.05587">
        <ele>665</ele>
        <time>2018-06-10T09:44:16Z</time>
      </trkpt>
      <trkpt lat="44.66511" lon="5.05586">
        <ele>665</ele>
        <time>2018-06-10T09:44:18Z</time>
      </trkpt>
      <trkpt lat="44.66513" lon="5.05586">
        <ele>665</ele>
        <time>2018-06-10T09:44:20Z</time>
      </trkpt>
      <trkpt lat="44.66515" lon="5.05585">
        <ele>665</ele>
        <time>2018-06-10T09:44:22Z</time>
      </trkpt>
      <trkpt lat="44.66516" lon="5.05585">
        <ele>665</ele>
        <time>2018-06-10T09:44:24Z</time>
      </trkpt>
      <trkpt lat="44.66518" lon="5.05586">
        <ele>665</ele>
        <time>2018-06-10T09:44:26Z</time>
      </trkpt>
      <trkpt lat="44.6652" lon="5.05586">
        <ele>665</ele>
        <time>2018-06-10T09:44:28Z</time>
      </trkpt>
      <trkpt lat="44.66521" lon="5.05586">
        <ele>664</ele>
        <time>2018-06-10T09:44:30Z</time>
      </trkpt>
      <trkpt lat="44.66521" lon="5.05586">
        <ele>664</ele>
        <time>2018-06-10T09:44:32Z</time>
      </trkpt>
      <trkpt lat="44.66523" lon="5.05586">
        <ele>665</ele>
        <time>2018-06-10T09:44:34Z</time>
      </trkpt>
      <trkpt lat="44.66524" lon="5.05584">
        <ele>664</ele>
        <time>2018-06-10T09:44:36Z</time>
      </trkpt>
      <trkpt lat="44.66525" lon="5.05584">
        <ele>664</ele>
        <time>2018-06-10T09:44:38Z</time>
      </trkpt>
      <trkpt lat="44.66525" lon="5.05583">
        <ele>664</ele>
        <time>2018-06-10T09:44:40Z</time>
      </trkpt>
      <trkpt lat="44.66525" lon="5.05583">
        <ele>665</ele>
        <time>2018-06-10T09:44:42Z</time>
      </trkpt>
      <trkpt lat="44.66526" lon="5.05583">
        <ele>665</ele>
        <time>2018-06-10T09:44:44Z</time>
      </trkpt>
      <trkpt lat="44.66528" lon="5.05581">
        <ele>665</ele>
        <time>2018-06-10T09:44:46Z</time>
      </trkpt>
      <trkpt lat="44.66531" lon="5.05581">
        <ele>664</ele>
        <time>2018-06-10T09:44:48Z</time>
      </trkpt>
      <trkpt lat="44.66535" lon="5.05579">
        <ele>663</ele>
        <time>2018-06-10T09:44:50Z</time>
      </trkpt>
      <trkpt lat="44.66536" lon="5.05576">
        <ele>663</ele>
        <time>2018-06-10T09:44:52Z</time>
      </trkpt>
      <trkpt lat="44.66538" lon="5.05574">
        <ele>664</ele>
        <time>2018-06-10T09:44:54Z</time>
      </trkpt>
      <trkpt lat="44.66539" lon="5.05573">
        <ele>663</ele>
        <time>2018-06-10T09:44:56Z</time>
      </trkpt>
      <trkpt lat="44.66543" lon="5.05572">
        <ele>663</ele>
        <time>2018-06-10T09:44:58Z</time>
      </trkpt>
      <trkpt lat="44.66546" lon="5.05572">
        <ele>662</ele>
        <time>2018-06-10T09:45:00Z</time>
      </trkpt>
      <trkpt lat="44.66548" lon="5.05572">
        <ele>660</ele>
        <time>2018-06-10T09:45:02Z</time>
      </trkpt>
      <trkpt lat="44.66554" lon="5.05569">
        <ele>658</ele>
        <time>2018-06-10T09:45:04Z</time>
      </trkpt>
      <trkpt lat="44.66555" lon="5.05567">
        <ele>658</ele>
        <time>2018-06-10T09:45:06Z</time>
      </trkpt>
      <trkpt lat="44.66557" lon="5.05567">
        <ele>658</ele>
        <time>2018-06-10T09:45:08Z</time>
      </trkpt>
      <trkpt lat="44.66559" lon="5.05567">
        <ele>658</ele>
        <time>2018-06-10T09:45:10Z</time>
      </trkpt>
      <trkpt lat="44.66563" lon="5.05564">
        <ele>656</ele>
        <time>2018-06-10T09:45:12Z</time>
      </trkpt>
      <trkpt lat="44.66569" lon="5.0556">
        <ele>655</ele>
        <time>2018-06-10T09:45:14Z</time>
      </trkpt>
      <trkpt lat="44.66573" lon="5.05558">
        <ele>655</ele>
        <time>2018-06-10T09:45:16Z</time>
      </trkpt>
      <trkpt lat="44.66576" lon="5.05557">
        <ele>655</ele>
        <time>2018-06-10T09:45:18Z</time>
      </trkpt>
      <trkpt lat="44.66579" lon="5.05557">
        <ele>655</ele>
        <time>2018-06-10T09:45:20Z</time>
      </trkpt>
      <trkpt lat="44.66583" lon="5.05555">
        <ele>654</ele>
        <time>2018-06-10T09:45:22Z</time>
      </trkpt>
      <trkpt lat="44.66588" lon="5.05554">
        <ele>652</ele>
        <time>2018-06-10T09:45:24Z</time>
      </trkpt>
      <trkpt lat="44.66591" lon="5.05552">
        <ele>651</ele>
        <time>2018-06-10T09:45:26Z</time>
      </trkpt>
      <trkpt lat="44.66593" lon="5.05548">
        <ele>650</ele>
        <time>2018-06-10T09:45:28Z</time>
      </trkpt>
      <trkpt lat="44.66595" lon="5.05545">
        <ele>649</ele>
        <time>2018-06-10T09:45:30Z</time>
      </trkpt>
      <trkpt lat="44.66596" lon="5.05542">
        <ele>649</ele>
        <time>2018-06-10T09:45:32Z</time>
      </trkpt>
      <trkpt lat="44.66597" lon="5.0554">
        <ele>649</ele>
        <time>2018-06-10T09:45:34Z</time>
      </trkpt>
      <trkpt lat="44.666" lon="5.05535">
        <ele>649</ele>
        <time>2018-06-10T09:45:36Z</time>
      </trkpt>
      <trkpt lat="44.666" lon="5.05533">
        <ele>649</ele>
        <time>2018-06-10T09:45:38Z</time>
      </trkpt>
      <trkpt lat="44.66602" lon="5.05529">
        <ele>648</ele>
        <time>2018-06-10T09:45:40Z</time>
      </trkpt>
      <trkpt lat="44.66603" lon="5.05527">
        <ele>647</ele>
        <time>2018-06-10T09:45:42Z</time>
      </trkpt>
      <trkpt lat="44.66604" lon="5.05522">
        <ele>646</ele>
        <time>2018-06-10T09:45:44Z</time>
      </trkpt>
      <trkpt lat="44.66606" lon="5.05515">
        <ele>646</ele>
        <time>2018-06-10T09:45:46Z</time>
      </trkpt>
      <trkpt lat="44.6661" lon="5.05511">
        <ele>645</ele>
        <time>2018-06-10T09:45:48Z</time>
      </trkpt>
      <trkpt lat="44.66612" lon="5.05506">
        <ele>644</ele>
        <time>2018-06-10T09:45:50Z</time>
      </trkpt>
      <trkpt lat="44.66615" lon="5.05502">
        <ele>643</ele>
        <time>2018-06-10T09:45:52Z</time>
      </trkpt>
      <trkpt lat="44.66619" lon="5.05498">
        <ele>642</ele>
        <time>2018-06-10T09:45:54Z</time>
      </trkpt>
      <trkpt lat="44.66621" lon="5.05495">
        <ele>641</ele>
        <time>2018-06-10T09:45:56Z</time>
      </trkpt>
      <trkpt lat="44.66623" lon="5.05492">
        <ele>641</ele>
        <time>2018-06-10T09:45:58Z</time>
      </trkpt>
      <trkpt lat="44.66626" lon="5.05486">
        <ele>639</ele>
        <time>2018-06-10T09:46:01Z</time>
      </trkpt>
      <trkpt lat="44.66629" lon="5.05479">
        <ele>639</ele>
        <time>2018-06-10T09:46:03Z</time>
      </trkpt>
      <trkpt lat="44.66629" lon="5.05473">
        <ele>639</ele>
        <time>2018-06-10T09:46:05Z</time>
      </trkpt>
      <trkpt lat="44.66628" lon="5.05467">
        <ele>638</ele>
        <time>2018-06-10T09:46:07Z</time>
      </trkpt>
      <trkpt lat="44.6663" lon="5.05461">
        <ele>636</ele>
        <time>2018-06-10T09:46:09Z</time>
      </trkpt>
      <trkpt lat="44.66628" lon="5.05456">
        <ele>636</ele>
        <time>2018-06-10T09:46:11Z</time>
      </trkpt>
      <trkpt lat="44.66628" lon="5.05454">
        <ele>636</ele>
        <time>2018-06-10T09:46:13Z</time>
      </trkpt>
      <trkpt lat="44.66628" lon="5.05451">
        <ele>636</ele>
        <time>2018-06-10T09:46:15Z</time>
      </trkpt>
      <trkpt lat="44.66629" lon="5.05448">
        <ele>637</ele>
        <time>2018-06-10T09:46:17Z</time>
      </trkpt>
      <trkpt lat="44.66631" lon="5.05442">
        <ele>636</ele>
        <time>2018-06-10T09:46:19Z</time>
      </trkpt>
      <trkpt lat="44.66635" lon="5.05436">
        <ele>636</ele>
        <time>2018-06-10T09:46:21Z</time>
      </trkpt>
      <trkpt lat="44.66635" lon="5.0543">
        <ele>634</ele>
        <time>2018-06-10T09:46:23Z</time>
      </trkpt>
      <trkpt lat="44.66636" lon="5.05427">
        <ele>634</ele>
        <time>2018-06-10T09:46:25Z</time>
      </trkpt>
      <trkpt lat="44.66639" lon="5.05423">
        <ele>634</ele>
        <time>2018-06-10T09:46:27Z</time>
      </trkpt>
      <trkpt lat="44.66639" lon="5.05419">
        <ele>634</ele>
        <time>2018-06-10T09:46:29Z</time>
      </trkpt>
      <trkpt lat="44.6664" lon="5.05415">
        <ele>635</ele>
        <time>2018-06-10T09:46:31Z</time>
      </trkpt>
      <trkpt lat="44.6664" lon="5.05413">
        <ele>635</ele>
        <time>2018-06-10T09:46:33Z</time>
      </trkpt>
      <trkpt lat="44.66641" lon="5.0541">
        <ele>635</ele>
        <time>2018-06-10T09:46:35Z</time>
      </trkpt>
      <trkpt lat="44.66643" lon="5.05407">
        <ele>635</ele>
        <time>2018-06-10T09:46:37Z</time>
      </trkpt>
      <trkpt lat="44.66644" lon="5.05401">
        <ele>635</ele>
        <time>2018-06-10T09:46:39Z</time>
      </trkpt>
      <trkpt lat="44.66646" lon="5.05395">
        <ele>635</ele>
        <time>2018-06-10T09:46:41Z</time>
      </trkpt>
      <trkpt lat="44.66647" lon="5.05391">
        <ele>635</ele>
        <time>2018-06-10T09:46:43Z</time>
      </trkpt>
      <trkpt lat="44.66648" lon="5.05387">
        <ele>635</ele>
        <time>2018-06-10T09:46:45Z</time>
      </trkpt>
      <trkpt lat="44.66649" lon="5.05383">
        <ele>636</ele>
        <time>2018-06-10T09:46:47Z</time>
      </trkpt>
      <trkpt lat="44.66651" lon="5.05379">
        <ele>636</ele>
        <time>2018-06-10T09:46:49Z</time>
      </trkpt>
      <trkpt lat="44.66652" lon="5.05376">
        <ele>636</ele>
        <time>2018-06-10T09:46:51Z</time>
      </trkpt>
      <trkpt lat="44.66652" lon="5.05373">
        <ele>636</ele>
        <time>2018-06-10T09:46:53Z</time>
      </trkpt>
      <trkpt lat="44.66656" lon="5.05366">
        <ele>635</ele>
        <time>2018-06-10T09:46:56Z</time>
      </trkpt>
      <trkpt lat="44.66657" lon="5.0536">
        <ele>635</ele>
        <time>2018-06-10T09:46:58Z</time>
      </trkpt>
      <trkpt lat="44.66659" lon="5.05354">
        <ele>634</ele>
        <time>2018-06-10T09:47:00Z</time>
      </trkpt>
      <trkpt lat="44.6666" lon="5.05348">
        <ele>634</ele>
        <time>2018-06-10T09:47:02Z</time>
      </trkpt>
      <trkpt lat="44.6666" lon="5.05346">
        <ele>634</ele>
        <time>2018-06-10T09:47:04Z</time>
      </trkpt>
      <trkpt lat="44.6666" lon="5.05342">
        <ele>635</ele>
        <time>2018-06-10T09:47:06Z</time>
      </trkpt>
      <trkpt lat="44.6666" lon="5.0534">
        <ele>635</ele>
        <time>2018-06-10T09:47:08Z</time>
      </trkpt>
      <trkpt lat="44.66659" lon="5.05337">
        <ele>635</ele>
        <time>2018-06-10T09:47:10Z</time>
      </trkpt>
      <trkpt lat="44.66659" lon="5.05335">
        <ele>636</ele>
        <time>2018-06-10T09:47:12Z</time>
      </trkpt>
      <trkpt lat="44.66661" lon="5.05332">
        <ele>636</ele>
        <time>2018-06-10T09:47:14Z</time>
      </trkpt>
      <trkpt lat="44.66662" lon="5.05329">
        <ele>636</ele>
        <time>2018-06-10T09:47:16Z</time>
      </trkpt>
      <trkpt lat="44.66663" lon="5.05325">
        <ele>637</ele>
        <time>2018-06-10T09:47:18Z</time>
      </trkpt>
      <trkpt lat="44.66663" lon="5.05324">
        <ele>637</ele>
        <time>2018-06-10T09:47:20Z</time>
      </trkpt>
      <trkpt lat="44.66664" lon="5.05322">
        <ele>637</ele>
        <time>2018-06-10T09:47:22Z</time>
      </trkpt>
      <trkpt lat="44.66667" lon="5.05314">
        <ele>637</ele>
        <time>2018-06-10T09:47:24Z</time>
      </trkpt>
      <trkpt lat="44.66666" lon="5.0531">
        <ele>637</ele>
        <time>2018-06-10T09:47:26Z</time>
      </trkpt>
      <trkpt lat="44.66665" lon="5.05305">
        <ele>635</ele>
        <time>2018-06-10T09:47:28Z</time>
      </trkpt>
      <trkpt lat="44.66666" lon="5.05298">
        <ele>634</ele>
        <time>2018-06-10T09:47:30Z</time>
      </trkpt>
      <trkpt lat="44.66666" lon="5.05296">
        <ele>633</ele>
        <time>2018-06-10T09:47:32Z</time>
      </trkpt>
      <trkpt lat="44.66668" lon="5.05294">
        <ele>633</ele>
        <time>2018-06-10T09:47:34Z</time>
      </trkpt>
      <trkpt lat="44.66668" lon="5.05292">
        <ele>633</ele>
        <time>2018-06-10T09:47:36Z</time>
      </trkpt>
      <trkpt lat="44.66669" lon="5.0529">
        <ele>633</ele>
        <time>2018-06-10T09:47:38Z</time>
      </trkpt>
      <trkpt lat="44.66669" lon="5.05287">
        <ele>633</ele>
        <time>2018-06-10T09:47:40Z</time>
      </trkpt>
      <trkpt lat="44.66667" lon="5.05282">
        <ele>632</ele>
        <time>2018-06-10T09:47:42Z</time>
      </trkpt>
      <trkpt lat="44.66667" lon="5.05275">
        <ele>631</ele>
        <time>2018-06-10T09:47:44Z</time>
      </trkpt>
      <trkpt lat="44.66664" lon="5.05265">
        <ele>629</ele>
        <time>2018-06-10T09:47:46Z</time>
      </trkpt>
      <trkpt lat="44.66661" lon="5.05258">
        <ele>629</ele>
        <time>2018-06-10T09:47:48Z</time>
      </trkpt>
      <trkpt lat="44.66659" lon="5.05252">
        <ele>629</ele>
        <time>2018-06-10T09:47:50Z</time>
      </trkpt>
      <trkpt lat="44.66658" lon="5.05248">
        <ele>630</ele>
        <time>2018-06-10T09:47:52Z</time>
      </trkpt>
      <trkpt lat="44.6666" lon="5.05241">
        <ele>628</ele>
        <time>2018-06-10T09:47:54Z</time>
      </trkpt>
      <trkpt lat="44.66659" lon="5.0523">
        <ele>627</ele>
        <time>2018-06-10T09:47:56Z</time>
      </trkpt>
      <trkpt lat="44.66658" lon="5.05219">
        <ele>625</ele>
        <time>2018-06-10T09:47:58Z</time>
      </trkpt>
      <trkpt lat="44.66656" lon="5.05209">
        <ele>624</ele>
        <time>2018-06-10T09:48:00Z</time>
      </trkpt>
      <trkpt lat="44.66656" lon="5.05199">
        <ele>622</ele>
        <time>2018-06-10T09:48:02Z</time>
      </trkpt>
      <trkpt lat="44.66655" lon="5.05191">
        <ele>622</ele>
        <time>2018-06-10T09:48:04Z</time>
      </trkpt>
      <trkpt lat="44.66652" lon="5.05185">
        <ele>621</ele>
        <time>2018-06-10T09:48:06Z</time>
      </trkpt>
      <trkpt lat="44.66651" lon="5.05176">
        <ele>621</ele>
        <time>2018-06-10T09:48:08Z</time>
      </trkpt>
      <trkpt lat="44.66648" lon="5.05169">
        <ele>621</ele>
        <time>2018-06-10T09:48:10Z</time>
      </trkpt>
      <trkpt lat="44.66644" lon="5.05161">
        <ele>620</ele>
        <time>2018-06-10T09:48:13Z</time>
      </trkpt>
      <trkpt lat="44.66642" lon="5.05144">
        <ele>619</ele>
        <time>2018-06-10T09:48:15Z</time>
      </trkpt>
      <trkpt lat="44.66642" lon="5.05134">
        <ele>619</ele>
        <time>2018-06-10T09:48:17Z</time>
      </trkpt>
      <trkpt lat="44.6664" lon="5.05117">
        <ele>616</ele>
        <time>2018-06-10T09:48:19Z</time>
      </trkpt>
      <trkpt lat="44.66637" lon="5.05103">
        <ele>616</ele>
        <time>2018-06-10T09:48:21Z</time>
      </trkpt>
      <trkpt lat="44.66635" lon="5.05094">
        <ele>616</ele>
        <time>2018-06-10T09:48:23Z</time>
      </trkpt>
      <trkpt lat="44.66632" lon="5.05084">
        <ele>616</ele>
        <time>2018-06-10T09:48:25Z</time>
      </trkpt>
      <trkpt lat="44.66631" lon="5.05076">
        <ele>617</ele>
        <time>2018-06-10T09:48:27Z</time>
      </trkpt>
      <trkpt lat="44.66627" lon="5.05069">
        <ele>617</ele>
        <time>2018-06-10T09:48:29Z</time>
      </trkpt>
      <trkpt lat="44.66626" lon="5.05056">
        <ele>617</ele>
        <time>2018-06-10T09:48:31Z</time>
      </trkpt>
      <trkpt lat="44.66622" lon="5.05046">
        <ele>617</ele>
        <time>2018-06-10T09:48:33Z</time>
      </trkpt>
      <trkpt lat="44.66621" lon="5.05036">
        <ele>617</ele>
        <time>2018-06-10T09:48:35Z</time>
      </trkpt>
      <trkpt lat="44.66616" lon="5.05026">
        <ele>617</ele>
        <time>2018-06-10T09:48:37Z</time>
      </trkpt>
      <trkpt lat="44.66616" lon="5.05015">
        <ele>618</ele>
        <time>2018-06-10T09:48:39Z</time>
      </trkpt>
      <trkpt lat="44.66619" lon="5.05004">
        <ele>618</ele>
        <time>2018-06-10T09:48:41Z</time>
      </trkpt>
      <trkpt lat="44.66619" lon="5.04996">
        <ele>619</ele>
        <time>2018-06-10T09:48:43Z</time>
      </trkpt>
      <trkpt lat="44.66619" lon="5.04989">
        <ele>619</ele>
        <time>2018-06-10T09:48:45Z</time>
      </trkpt>
      <trkpt lat="44.66618" lon="5.04979">
        <ele>618</ele>
        <time>2018-06-10T09:48:47Z</time>
      </trkpt>
      <trkpt lat="44.66613" lon="5.04969">
        <ele>618</ele>
        <time>2018-06-10T09:48:49Z</time>
      </trkpt>
      <trkpt lat="44.6661" lon="5.04961">
        <ele>618</ele>
        <time>2018-06-10T09:48:51Z</time>
      </trkpt>
      <trkpt lat="44.66605" lon="5.04956">
        <ele>618</ele>
        <time>2018-06-10T09:48:53Z</time>
      </trkpt>
      <trkpt lat="44.66602" lon="5.04945">
        <ele>617</ele>
        <time>2018-06-10T09:48:55Z</time>
      </trkpt>
      <trkpt lat="44.66601" lon="5.04936">
        <ele>616</ele>
        <time>2018-06-10T09:48:57Z</time>
      </trkpt>
      <trkpt lat="44.66602" lon="5.04923">
        <ele>616</ele>
        <time>2018-06-10T09:48:59Z</time>
      </trkpt>
      <trkpt lat="44.66608" lon="5.04908">
        <ele>616</ele>
        <time>2018-06-10T09:49:02Z</time>
      </trkpt>
      <trkpt lat="44.6661" lon="5.04893">
        <ele>616</ele>
        <time>2018-06-10T09:49:04Z</time>
      </trkpt>
      <trkpt lat="44.6661" lon="5.04876">
        <ele>615</ele>
        <time>2018-06-10T09:49:06Z</time>
      </trkpt>
      <trkpt lat="44.66611" lon="5.04861">
        <ele>614</ele>
        <time>2018-06-10T09:49:08Z</time>
      </trkpt>
      <trkpt lat="44.66615" lon="5.04848">
        <ele>615</ele>
        <time>2018-06-10T09:49:10Z</time>
      </trkpt>
      <trkpt lat="44.66617" lon="5.04834">
        <ele>615</ele>
        <time>2018-06-10T09:49:12Z</time>
      </trkpt>
      <trkpt lat="44.66621" lon="5.04819">
        <ele>614</ele>
        <time>2018-06-10T09:49:14Z</time>
      </trkpt>
      <trkpt lat="44.66619" lon="5.04804">
        <ele>614</ele>
        <time>2018-06-10T09:49:16Z</time>
      </trkpt>
      <trkpt lat="44.66613" lon="5.0478">
        <ele>614</ele>
        <time>2018-06-10T09:49:18Z</time>
      </trkpt>
      <trkpt lat="44.6661" lon="5.04766">
        <ele>613</ele>
        <time>2018-06-10T09:49:20Z</time>
      </trkpt>
      <trkpt lat="44.66605" lon="5.04752">
        <ele>612</ele>
        <time>2018-06-10T09:49:22Z</time>
      </trkpt>
      <trkpt lat="44.66599" lon="5.04734">
        <ele>611</ele>
        <time>2018-06-10T09:49:24Z</time>
      </trkpt>
      <trkpt lat="44.66594" lon="5.04717">
        <ele>612</ele>
        <time>2018-06-10T09:49:26Z</time>
      </trkpt>
      <trkpt lat="44.66592" lon="5.04702">
        <ele>612</ele>
        <time>2018-06-10T09:49:28Z</time>
      </trkpt>
      <trkpt lat="44.6659" lon="5.04689">
        <ele>612</ele>
        <time>2018-06-10T09:49:30Z</time>
      </trkpt>
      <trkpt lat="44.6659" lon="5.0468">
        <ele>612</ele>
        <time>2018-06-10T09:49:32Z</time>
      </trkpt>
      <trkpt lat="44.66589" lon="5.04669">
        <ele>612</ele>
        <time>2018-06-10T09:49:34Z</time>
      </trkpt>
      <trkpt lat="44.66587" lon="5.04662">
        <ele>613</ele>
        <time>2018-06-10T09:49:36Z</time>
      </trkpt>
      <trkpt lat="44.66583" lon="5.04656">
        <ele>613</ele>
        <time>2018-06-10T09:49:38Z</time>
      </trkpt>
      <trkpt lat="44.6658" lon="5.04649">
        <ele>612</ele>
        <time>2018-06-10T09:49:40Z</time>
      </trkpt>
      <trkpt lat="44.6658" lon="5.04644">
        <ele>612</ele>
        <time>2018-06-10T09:49:42Z</time>
      </trkpt>
      <trkpt lat="44.66578" lon="5.04638">
        <ele>613</ele>
        <time>2018-06-10T09:49:44Z</time>
      </trkpt>
      <trkpt lat="44.66577" lon="5.04634">
        <ele>613</ele>
        <time>2018-06-10T09:49:46Z</time>
      </trkpt>
      <trkpt lat="44.66578" lon="5.04627">
        <ele>613</ele>
        <time>2018-06-10T09:49:48Z</time>
      </trkpt>
      <trkpt lat="44.6658" lon="5.04618">
        <ele>613</ele>
        <time>2018-06-10T09:49:50Z</time>
      </trkpt>
      <trkpt lat="44.66578" lon="5.04611">
        <ele>613</ele>
        <time>2018-06-10T09:49:52Z</time>
      </trkpt>
      <trkpt lat="44.66579" lon="5.04604">
        <ele>613</ele>
        <time>2018-06-10T09:49:54Z</time>
      </trkpt>
      <trkpt lat="44.66578" lon="5.04595">
        <ele>613</ele>
        <time>2018-06-10T09:49:56Z</time>
      </trkpt>
      <trkpt lat="44.66577" lon="5.04588">
        <ele>614</ele>
        <time>2018-06-10T09:49:59Z</time>
      </trkpt>
      <trkpt lat="44.66575" lon="5.04581">
        <ele>614</ele>
        <time>2018-06-10T09:50:01Z</time>
      </trkpt>
      <trkpt lat="44.66575" lon="5.04574">
        <ele>614</ele>
        <time>2018-06-10T09:50:03Z</time>
      </trkpt>
      <trkpt lat="44.66571" lon="5.04567">
        <ele>613</ele>
        <time>2018-06-10T09:50:05Z</time>
      </trkpt>
      <trkpt lat="44.66563" lon="5.04561">
        <ele>610</ele>
        <time>2018-06-10T09:50:07Z</time>
      </trkpt>
      <trkpt lat="44.66553" lon="5.04538">
        <ele>609</ele>
        <time>2018-06-10T09:50:09Z</time>
      </trkpt>
      <trkpt lat="44.66549" lon="5.04524">
        <ele>609</ele>
        <time>2018-06-10T09:50:11Z</time>
      </trkpt>
      <trkpt lat="44.6655" lon="5.04518">
        <ele>608</ele>
        <time>2018-06-10T09:50:13Z</time>
      </trkpt>
      <trkpt lat="44.66552" lon="5.04511">
        <ele>607</ele>
        <time>2018-06-10T09:50:15Z</time>
      </trkpt>
      <trkpt lat="44.66555" lon="5.04504">
        <ele>607</ele>
        <time>2018-06-10T09:50:17Z</time>
      </trkpt>
      <trkpt lat="44.66561" lon="5.04493">
        <ele>607</ele>
        <time>2018-06-10T09:50:19Z</time>
      </trkpt>
      <trkpt lat="44.6657" lon="5.04482">
        <ele>606</ele>
        <time>2018-06-10T09:50:21Z</time>
      </trkpt>
      <trkpt lat="44.66579" lon="5.04474">
        <ele>605</ele>
        <time>2018-06-10T09:50:23Z</time>
      </trkpt>
      <trkpt lat="44.66589" lon="5.04465">
        <ele>604</ele>
        <time>2018-06-10T09:50:25Z</time>
      </trkpt>
      <trkpt lat="44.66597" lon="5.04459">
        <ele>603</ele>
        <time>2018-06-10T09:50:27Z</time>
      </trkpt>
      <trkpt lat="44.66603" lon="5.04455">
        <ele>602</ele>
        <time>2018-06-10T09:50:29Z</time>
      </trkpt>
      <trkpt lat="44.66609" lon="5.04451">
        <ele>601</ele>
        <time>2018-06-10T09:50:31Z</time>
      </trkpt>
      <trkpt lat="44.66616" lon="5.04444">
        <ele>600</ele>
        <time>2018-06-10T09:50:33Z</time>
      </trkpt>
      <trkpt lat="44.66623" lon="5.04439">
        <ele>597</ele>
        <time>2018-06-10T09:50:35Z</time>
      </trkpt>
      <trkpt lat="44.66627" lon="5.04436">
        <ele>596</ele>
        <time>2018-06-10T09:50:37Z</time>
      </trkpt>
      <trkpt lat="44.66633" lon="5.04435">
        <ele>594</ele>
        <time>2018-06-10T09:50:39Z</time>
      </trkpt>
      <trkpt lat="44.66638" lon="5.04432">
        <ele>593</ele>
        <time>2018-06-10T09:50:41Z</time>
      </trkpt>
      <trkpt lat="44.66644" lon="5.04425">
        <ele>590</ele>
        <time>2018-06-10T09:50:43Z</time>
      </trkpt>
      <trkpt lat="44.6665" lon="5.04418">
        <ele>588</ele>
        <time>2018-06-10T09:50:45Z</time>
      </trkpt>
      <trkpt lat="44.66659" lon="5.04411">
        <ele>584</ele>
        <time>2018-06-10T09:50:47Z</time>
      </trkpt>
      <trkpt lat="44.66665" lon="5.04405">
        <ele>582</ele>
        <time>2018-06-10T09:50:49Z</time>
      </trkpt>
      <trkpt lat="44.66672" lon="5.04397">
        <ele>580</ele>
        <time>2018-06-10T09:50:51Z</time>
      </trkpt>
      <trkpt lat="44.66676" lon="5.04387">
        <ele>578</ele>
        <time>2018-06-10T09:50:53Z</time>
      </trkpt>
      <trkpt lat="44.66683" lon="5.0438">
        <ele>574</ele>
        <time>2018-06-10T09:50:55Z</time>
      </trkpt>
      <trkpt lat="44.66691" lon="5.04375">
        <ele>574</ele>
        <time>2018-06-10T09:50:57Z</time>
      </trkpt>
      <trkpt lat="44.66701" lon="5.04373">
        <ele>571</ele>
        <time>2018-06-10T09:50:59Z</time>
      </trkpt>
      <trkpt lat="44.66708" lon="5.04371">
        <ele>569</ele>
        <time>2018-06-10T09:51:01Z</time>
      </trkpt>
      <trkpt lat="44.66711" lon="5.0437">
        <ele>570</ele>
        <time>2018-06-10T09:51:03Z</time>
      </trkpt>
      <trkpt lat="44.66712" lon="5.04369">
        <ele>570</ele>
        <time>2018-06-10T09:51:05Z</time>
      </trkpt>
      <trkpt lat="44.66713" lon="5.04369">
        <ele>570</ele>
        <time>2018-06-10T09:51:07Z</time>
      </trkpt>
      <trkpt lat="44.66714" lon="5.04371">
        <ele>570</ele>
        <time>2018-06-10T09:51:09Z</time>
      </trkpt>
      <trkpt lat="44.66713" lon="5.04374">
        <ele>570</ele>
        <time>2018-06-10T09:51:11Z</time>
      </trkpt>
      <trkpt lat="44.66713" lon="5.04377">
        <ele>570</ele>
        <time>2018-06-10T09:51:13Z</time>
      </trkpt>
      <trkpt lat="44.66713" lon="5.04379">
        <ele>571</ele>
        <time>2018-06-10T09:51:15Z</time>
      </trkpt>
      <trkpt lat="44.66713" lon="5.04382">
        <ele>571</ele>
        <time>2018-06-10T09:51:17Z</time>
      </trkpt>
      <trkpt lat="44.66713" lon="5.04386">
        <ele>571</ele>
        <time>2018-06-10T09:51:19Z</time>
      </trkpt>
      <trkpt lat="44.66713" lon="5.0439">
        <ele>571</ele>
        <time>2018-06-10T09:51:21Z</time>
      </trkpt>
      <trkpt lat="44.66712" lon="5.04393">
        <ele>572</ele>
        <time>2018-06-10T09:51:23Z</time>
      </trkpt>
      <trkpt lat="44.66712" lon="5.04397">
        <ele>572</ele>
        <time>2018-06-10T09:51:26Z</time>
      </trkpt>
      <trkpt lat="44.6671" lon="5.04401">
        <ele>572</ele>
        <time>2018-06-10T09:51:28Z</time>
      </trkpt>
      <trkpt lat="44.66709" lon="5.04404">
        <ele>572</ele>
        <time>2018-06-10T09:51:30Z</time>
      </trkpt>
      <trkpt lat="44.66708" lon="5.04408">
        <ele>573</ele>
        <time>2018-06-10T09:51:32Z</time>
      </trkpt>
      <trkpt lat="44.66706" lon="5.0441">
        <ele>574</ele>
        <time>2018-06-10T09:51:34Z</time>
      </trkpt>
      <trkpt lat="44.66706" lon="5.04415">
        <ele>574</ele>
        <time>2018-06-10T09:51:36Z</time>
      </trkpt>
      <trkpt lat="44.66705" lon="5.04419">
        <ele>574</ele>
        <time>2018-06-10T09:51:38Z</time>
      </trkpt>
      <trkpt lat="44.66704" lon="5.04422">
        <ele>574</ele>
        <time>2018-06-10T09:51:40Z</time>
      </trkpt>
      <trkpt lat="44.66703" lon="5.04428">
        <ele>574</ele>
        <time>2018-06-10T09:51:42Z</time>
      </trkpt>
      <trkpt lat="44.667" lon="5.04432">
        <ele>573</ele>
        <time>2018-06-10T09:51:44Z</time>
      </trkpt>
      <trkpt lat="44.66697" lon="5.04439">
        <ele>573</ele>
        <time>2018-06-10T09:51:46Z</time>
      </trkpt>
      <trkpt lat="44.6669" lon="5.04445">
        <ele>572</ele>
        <time>2018-06-10T09:51:48Z</time>
      </trkpt>
      <trkpt lat="44.66686" lon="5.04447">
        <ele>571</ele>
        <time>2018-06-10T09:51:50Z</time>
      </trkpt>
      <trkpt lat="44.66682" lon="5.04449">
        <ele>571</ele>
        <time>2018-06-10T09:51:52Z</time>
      </trkpt>
      <trkpt lat="44.66678" lon="5.04453">
        <ele>571</ele>
        <time>2018-06-10T09:51:54Z</time>
      </trkpt>
      <trkpt lat="44.66674" lon="5.04458">
        <ele>570</ele>
        <time>2018-06-10T09:51:56Z</time>
      </trkpt>
      <trkpt lat="44.66669" lon="5.0446">
        <ele>570</ele>
        <time>2018-06-10T09:51:58Z</time>
      </trkpt>
      <trkpt lat="44.66666" lon="5.04467">
        <ele>569</ele>
        <time>2018-06-10T09:52:00Z</time>
      </trkpt>
      <trkpt lat="44.66666" lon="5.04476">
        <ele>569</ele>
        <time>2018-06-10T09:52:02Z</time>
      </trkpt>
      <trkpt lat="44.66667" lon="5.04485">
        <ele>569</ele>
        <time>2018-06-10T09:52:04Z</time>
      </trkpt>
      <trkpt lat="44.66669" lon="5.04492">
        <ele>568</ele>
        <time>2018-06-10T09:52:06Z</time>
      </trkpt>
      <trkpt lat="44.6667" lon="5.04501">
        <ele>568</ele>
        <time>2018-06-10T09:52:08Z</time>
      </trkpt>
      <trkpt lat="44.6667" lon="5.04511">
        <ele>568</ele>
        <time>2018-06-10T09:52:10Z</time>
      </trkpt>
      <trkpt lat="44.66673" lon="5.04522">
        <ele>566</ele>
        <time>2018-06-10T09:52:12Z</time>
      </trkpt>
      <trkpt lat="44.66677" lon="5.04531">
        <ele>567</ele>
        <time>2018-06-10T09:52:14Z</time>
      </trkpt>
      <trkpt lat="44.66679" lon="5.04538">
        <ele>567</ele>
        <time>2018-06-10T09:52:16Z</time>
      </trkpt>
      <trkpt lat="44.66681" lon="5.04545">
        <ele>566</ele>
        <time>2018-06-10T09:52:18Z</time>
      </trkpt>
      <trkpt lat="44.66685" lon="5.04552">
        <ele>566</ele>
        <time>2018-06-10T09:52:20Z</time>
      </trkpt>
      <trkpt lat="44.6669" lon="5.04562">
        <ele>566</ele>
        <time>2018-06-10T09:52:22Z</time>
      </trkpt>
      <trkpt lat="44.66695" lon="5.04571">
        <ele>565</ele>
        <time>2018-06-10T09:52:24Z</time>
      </trkpt>
      <trkpt lat="44.66701" lon="5.04579">
        <ele>564</ele>
        <time>2018-06-10T09:52:26Z</time>
      </trkpt>
      <trkpt lat="44.66708" lon="5.04586">
        <ele>562</ele>
        <time>2018-06-10T09:52:28Z</time>
      </trkpt>
      <trkpt lat="44.66716" lon="5.04592">
        <ele>561</ele>
        <time>2018-06-10T09:52:30Z</time>
      </trkpt>
      <trkpt lat="44.66719" lon="5.04596">
        <ele>562</ele>
        <time>2018-06-10T09:52:32Z</time>
      </trkpt>
      <trkpt lat="44.66722" lon="5.04601">
        <ele>562</ele>
        <time>2018-06-10T09:52:34Z</time>
      </trkpt>
      <trkpt lat="44.66725" lon="5.04607">
        <ele>563</ele>
        <time>2018-06-10T09:52:36Z</time>
      </trkpt>
      <trkpt lat="44.66728" lon="5.04613">
        <ele>563</ele>
        <time>2018-06-10T09:52:39Z</time>
      </trkpt>
      <trkpt lat="44.66731" lon="5.04617">
        <ele>563</ele>
        <time>2018-06-10T09:52:41Z</time>
      </trkpt>
      <trkpt lat="44.66735" lon="5.04621">
        <ele>564</ele>
        <time>2018-06-10T09:52:43Z</time>
      </trkpt>
      <trkpt lat="44.66737" lon="5.04625">
        <ele>564</ele>
        <time>2018-06-10T09:52:45Z</time>
      </trkpt>
      <trkpt lat="44.6674" lon="5.0463">
        <ele>564</ele>
        <time>2018-06-10T09:52:47Z</time>
      </trkpt>
      <trkpt lat="44.66743" lon="5.04635">
        <ele>565</ele>
        <time>2018-06-10T09:52:49Z</time>
      </trkpt>
      <trkpt lat="44.66745" lon="5.0464">
        <ele>565</ele>
        <time>2018-06-10T09:52:51Z</time>
      </trkpt>
      <trkpt lat="44.66748" lon="5.04646">
        <ele>566</ele>
        <time>2018-06-10T09:52:53Z</time>
      </trkpt>
      <trkpt lat="44.66751" lon="5.04649">
        <ele>566</ele>
        <time>2018-06-10T09:52:55Z</time>
      </trkpt>
      <trkpt lat="44.66755" lon="5.04652">
        <ele>565</ele>
        <time>2018-06-10T09:52:57Z</time>
      </trkpt>
      <trkpt lat="44.6676" lon="5.04653">
        <ele>566</ele>
        <time>2018-06-10T09:52:59Z</time>
      </trkpt>
      <trkpt lat="44.66764" lon="5.04653">
        <ele>565</ele>
        <time>2018-06-10T09:53:01Z</time>
      </trkpt>
      <trkpt lat="44.66766" lon="5.04653">
        <ele>566</ele>
        <time>2018-06-10T09:53:03Z</time>
      </trkpt>
      <trkpt lat="44.66769" lon="5.04653">
        <ele>567</ele>
        <time>2018-06-10T09:53:05Z</time>
      </trkpt>
      <trkpt lat="44.66773" lon="5.04654">
        <ele>567</ele>
        <time>2018-06-10T09:53:07Z</time>
      </trkpt>
      <trkpt lat="44.66778" lon="5.04653">
        <ele>567</ele>
        <time>2018-06-10T09:53:09Z</time>
      </trkpt>
      <trkpt lat="44.66782" lon="5.04653">
        <ele>566</ele>
        <time>2018-06-10T09:53:11Z</time>
      </trkpt>
      <trkpt lat="44.6679" lon="5.04653">
        <ele>566</ele>
        <time>2018-06-10T09:53:13Z</time>
      </trkpt>
      <trkpt lat="44.66797" lon="5.04652">
        <ele>564</ele>
        <time>2018-06-10T09:53:15Z</time>
      </trkpt>
      <trkpt lat="44.66804" lon="5.04651">
        <ele>562</ele>
        <time>2018-06-10T09:53:17Z</time>
      </trkpt>
      <trkpt lat="44.66813" lon="5.04649">
        <ele>558</ele>
        <time>2018-06-10T09:53:19Z</time>
      </trkpt>
      <trkpt lat="44.66823" lon="5.04653">
        <ele>555</ele>
        <time>2018-06-10T09:53:21Z</time>
      </trkpt>
      <trkpt lat="44.66833" lon="5.04658">
        <ele>553</ele>
        <time>2018-06-10T09:53:23Z</time>
      </trkpt>
      <trkpt lat="44.66845" lon="5.04662">
        <ele>550</ele>
        <time>2018-06-10T09:53:25Z</time>
      </trkpt>
      <trkpt lat="44.66861" lon="5.04666">
        <ele>545</ele>
        <time>2018-06-10T09:53:27Z</time>
      </trkpt>
      <trkpt lat="44.6688" lon="5.0467">
        <ele>539</ele>
        <time>2018-06-10T09:53:29Z</time>
      </trkpt>
      <trkpt lat="44.66901" lon="5.04676">
        <ele>538</ele>
        <time>2018-06-10T09:53:32Z</time>
      </trkpt>
      <trkpt lat="44.66919" lon="5.04677">
        <ele>532</ele>
        <time>2018-06-10T09:53:34Z</time>
      </trkpt>
      <trkpt lat="44.66939" lon="5.04677">
        <ele>530</ele>
        <time>2018-06-10T09:53:36Z</time>
      </trkpt>
      <trkpt lat="44.66955" lon="5.04678">
        <ele>529</ele>
        <time>2018-06-10T09:53:38Z</time>
      </trkpt>
      <trkpt lat="44.6697" lon="5.04678">
        <ele>530</ele>
        <time>2018-06-10T09:53:40Z</time>
      </trkpt>
      <trkpt lat="44.66985" lon="5.04675">
        <ele>527</ele>
        <time>2018-06-10T09:53:42Z</time>
      </trkpt>
      <trkpt lat="44.66988" lon="5.0468">
        <ele>526</ele>
        <time>2018-06-10T09:53:44Z</time>
      </trkpt>
      <trkpt lat="44.66988" lon="5.04685">
        <ele>525</ele>
        <time>2018-06-10T09:53:46Z</time>
      </trkpt>
      <trkpt lat="44.66985" lon="5.0469">
        <ele>524</ele>
        <time>2018-06-10T09:53:48Z</time>
      </trkpt>
      <trkpt lat="44.6698" lon="5.04694">
        <ele>523</ele>
        <time>2018-06-10T09:53:50Z</time>
      </trkpt>
      <trkpt lat="44.66971" lon="5.047">
        <ele>520</ele>
        <time>2018-06-10T09:53:52Z</time>
      </trkpt>
      <trkpt lat="44.66961" lon="5.04707">
        <ele>518</ele>
        <time>2018-06-10T09:53:54Z</time>
      </trkpt>
      <trkpt lat="44.66949" lon="5.04718">
        <ele>516</ele>
        <time>2018-06-10T09:53:56Z</time>
      </trkpt>
      <trkpt lat="44.66933" lon="5.04728">
        <ele>513</ele>
        <time>2018-06-10T09:53:58Z</time>
      </trkpt>
      <trkpt lat="44.66924" lon="5.04736">
        <ele>511</ele>
        <time>2018-06-10T09:54:00Z</time>
      </trkpt>
      <trkpt lat="44.66908" lon="5.04741">
        <ele>510</ele>
        <time>2018-06-10T09:54:02Z</time>
      </trkpt>
      <trkpt lat="44.66904" lon="5.04746">
        <ele>507</ele>
        <time>2018-06-10T09:54:04Z</time>
      </trkpt>
      <trkpt lat="44.66904" lon="5.04751">
        <ele>506</ele>
        <time>2018-06-10T09:54:06Z</time>
      </trkpt>
      <trkpt lat="44.66904" lon="5.04756">
        <ele>504</ele>
        <time>2018-06-10T09:54:08Z</time>
      </trkpt>
      <trkpt lat="44.66908" lon="5.04765">
        <ele>503</ele>
        <time>2018-06-10T09:54:10Z</time>
      </trkpt>
      <trkpt lat="44.6691" lon="5.04777">
        <ele>500</ele>
        <time>2018-06-10T09:54:12Z</time>
      </trkpt>
      <trkpt lat="44.66909" lon="5.04789">
        <ele>500</ele>
        <time>2018-06-10T09:54:14Z</time>
      </trkpt>
      <trkpt lat="44.66909" lon="5.04795">
        <ele>497</ele>
        <time>2018-06-10T09:54:17Z</time>
      </trkpt>
      <trkpt lat="44.66908" lon="5.04818">
        <ele>496</ele>
        <time>2018-06-10T09:54:19Z</time>
      </trkpt>
      <trkpt lat="44.66908" lon="5.04831">
        <ele>495</ele>
        <time>2018-06-10T09:54:21Z</time>
      </trkpt>
      <trkpt lat="44.66918" lon="5.04845">
        <ele>494</ele>
        <time>2018-06-10T09:54:23Z</time>
      </trkpt>
      <trkpt lat="44.66923" lon="5.04854">
        <ele>494</ele>
        <time>2018-06-10T09:54:25Z</time>
      </trkpt>
      <trkpt lat="44.66935" lon="5.04863">
        <ele>492</ele>
        <time>2018-06-10T09:54:27Z</time>
      </trkpt>
      <trkpt lat="44.66943" lon="5.04873">
        <ele>489</ele>
        <time>2018-06-10T09:54:29Z</time>
      </trkpt>
      <trkpt lat="44.66955" lon="5.04886">
        <ele>488</ele>
        <time>2018-06-10T09:54:31Z</time>
      </trkpt>
      <trkpt lat="44.66968" lon="5.04903">
        <ele>484</ele>
        <time>2018-06-10T09:54:33Z</time>
      </trkpt>
      <trkpt lat="44.66977" lon="5.04917">
        <ele>481</ele>
        <time>2018-06-10T09:54:35Z</time>
      </trkpt>
      <trkpt lat="44.66984" lon="5.04937">
        <ele>479</ele>
        <time>2018-06-10T09:54:37Z</time>
      </trkpt>
      <trkpt lat="44.66988" lon="5.04956">
        <ele>477</ele>
        <time>2018-06-10T09:54:39Z</time>
      </trkpt>
      <trkpt lat="44.66989" lon="5.04973">
        <ele>476</ele>
        <time>2018-06-10T09:54:41Z</time>
      </trkpt>
      <trkpt lat="44.6699" lon="5.04982">
        <ele>475</ele>
        <time>2018-06-10T09:54:43Z</time>
      </trkpt>
      <trkpt lat="44.66993" lon="5.04991">
        <ele>475</ele>
        <time>2018-06-10T09:54:45Z</time>
      </trkpt>
      <trkpt lat="44.66999" lon="5.04999">
        <ele>476</ele>
        <time>2018-06-10T09:54:47Z</time>
      </trkpt>
      <trkpt lat="44.67005" lon="5.05003">
        <ele>476</ele>
        <time>2018-06-10T09:54:49Z</time>
      </trkpt>
      <trkpt lat="44.67011" lon="5.05009">
        <ele>475</ele>
        <time>2018-06-10T09:54:51Z</time>
      </trkpt>
      <trkpt lat="44.6702" lon="5.05016">
        <ele>474</ele>
        <time>2018-06-10T09:54:53Z</time>
      </trkpt>
      <trkpt lat="44.6703" lon="5.05025">
        <ele>474</ele>
        <time>2018-06-10T09:54:55Z</time>
      </trkpt>
      <trkpt lat="44.67038" lon="5.05034">
        <ele>472</ele>
        <time>2018-06-10T09:54:57Z</time>
      </trkpt>
      <trkpt lat="44.67047" lon="5.05048">
        <ele>472</ele>
        <time>2018-06-10T09:54:59Z</time>
      </trkpt>
      <trkpt lat="44.67053" lon="5.05059">
        <ele>472</ele>
        <time>2018-06-10T09:55:01Z</time>
      </trkpt>
      <trkpt lat="44.67062" lon="5.05069">
        <ele>473</ele>
        <time>2018-06-10T09:55:03Z</time>
      </trkpt>
      <trkpt lat="44.67071" lon="5.0508">
        <ele>473</ele>
        <time>2018-06-10T09:55:05Z</time>
      </trkpt>
      <trkpt lat="44.6708" lon="5.0509">
        <ele>474</ele>
        <time>2018-06-10T09:55:07Z</time>
      </trkpt>
      <trkpt lat="44.67087" lon="5.05101">
        <ele>475</ele>
        <time>2018-06-10T09:55:09Z</time>
      </trkpt>
      <trkpt lat="44.67093" lon="5.05106">
        <ele>475</ele>
        <time>2018-06-10T09:55:11Z</time>
      </trkpt>
      <trkpt lat="44.67097" lon="5.05112">
        <ele>476</ele>
        <time>2018-06-10T09:55:13Z</time>
      </trkpt>
      <trkpt lat="44.67101" lon="5.05115">
        <ele>476</ele>
        <time>2018-06-10T09:55:15Z</time>
      </trkpt>
      <trkpt lat="44.67106" lon="5.05118">
        <ele>475</ele>
        <time>2018-06-10T09:55:17Z</time>
      </trkpt>
      <trkpt lat="44.6711" lon="5.05119">
        <ele>474</ele>
        <time>2018-06-10T09:55:20Z</time>
      </trkpt>
      <trkpt lat="44.67119" lon="5.05123">
        <ele>473</ele>
        <time>2018-06-10T09:55:22Z</time>
      </trkpt>
      <trkpt lat="44.67131" lon="5.05132">
        <ele>469</ele>
        <time>2018-06-10T09:55:24Z</time>
      </trkpt>
      <trkpt lat="44.67149" lon="5.0514">
        <ele>467</ele>
        <time>2018-06-10T09:55:26Z</time>
      </trkpt>
      <trkpt lat="44.67168" lon="5.05144">
        <ele>462</ele>
        <time>2018-06-10T09:55:28Z</time>
      </trkpt>
      <trkpt lat="44.67184" lon="5.05148">
        <ele>460</ele>
        <time>2018-06-10T09:55:30Z</time>
      </trkpt>
      <trkpt lat="44.67218" lon="5.05153">
        <ele>456</ele>
        <time>2018-06-10T09:55:32Z</time>
      </trkpt>
      <trkpt lat="44.67235" lon="5.05154">
        <ele>455</ele>
        <time>2018-06-10T09:55:34Z</time>
      </trkpt>
      <trkpt lat="44.67251" lon="5.05157">
        <ele>450</ele>
        <time>2018-06-10T09:55:36Z</time>
      </trkpt>
      <trkpt lat="44.67265" lon="5.0516">
        <ele>448</ele>
        <time>2018-06-10T09:55:38Z</time>
      </trkpt>
      <trkpt lat="44.67281" lon="5.05169">
        <ele>446</ele>
        <time>2018-06-10T09:55:40Z</time>
      </trkpt>
      <trkpt lat="44.67299" lon="5.05176">
        <ele>445</ele>
        <time>2018-06-10T09:55:42Z</time>
      </trkpt>
      <trkpt lat="44.67315" lon="5.05181">
        <ele>441</ele>
        <time>2018-06-10T09:55:44Z</time>
      </trkpt>
      <trkpt lat="44.67334" lon="5.05185">
        <ele>439</ele>
        <time>2018-06-10T09:55:46Z</time>
      </trkpt>
      <trkpt lat="44.67351" lon="5.0519">
        <ele>437</ele>
        <time>2018-06-10T09:55:48Z</time>
      </trkpt>
      <trkpt lat="44.67365" lon="5.05194">
        <ele>434</ele>
        <time>2018-06-10T09:55:50Z</time>
      </trkpt>
      <trkpt lat="44.67379" lon="5.05199">
        <ele>431</ele>
        <time>2018-06-10T09:55:52Z</time>
      </trkpt>
      <trkpt lat="44.67392" lon="5.05203">
        <ele>428</ele>
        <time>2018-06-10T09:55:54Z</time>
      </trkpt>
      <trkpt lat="44.67406" lon="5.05206">
        <ele>425</ele>
        <time>2018-06-10T09:55:56Z</time>
      </trkpt>
      <trkpt lat="44.67417" lon="5.05202">
        <ele>422</ele>
        <time>2018-06-10T09:55:58Z</time>
      </trkpt>
      <trkpt lat="44.67426" lon="5.052">
        <ele>422</ele>
        <time>2018-06-10T09:56:00Z</time>
      </trkpt>
      <trkpt lat="44.67442" lon="5.05201">
        <ele>420</ele>
        <time>2018-06-10T09:56:02Z</time>
      </trkpt>
      <trkpt lat="44.67457" lon="5.05201">
        <ele>420</ele>
        <time>2018-06-10T09:56:04Z</time>
      </trkpt>
      <trkpt lat="44.67469" lon="5.05207">
        <ele>420</ele>
        <time>2018-06-10T09:56:06Z</time>
      </trkpt>
      <trkpt lat="44.67479" lon="5.05212">
        <ele>420</ele>
        <time>2018-06-10T09:56:08Z</time>
      </trkpt>
      <trkpt lat="44.67489" lon="5.05216">
        <ele>420</ele>
        <time>2018-06-10T09:56:10Z</time>
      </trkpt>
      <trkpt lat="44.67498" lon="5.05219">
        <ele>421</ele>
        <time>2018-06-10T09:56:12Z</time>
      </trkpt>
      <trkpt lat="44.67505" lon="5.05222">
        <ele>420</ele>
        <time>2018-06-10T09:56:14Z</time>
      </trkpt>
      <trkpt lat="44.67509" lon="5.05222">
        <ele>421</ele>
        <time>2018-06-10T09:56:16Z</time>
      </trkpt>
      <trkpt lat="44.67512" lon="5.05224">
        <ele>420</ele>
        <time>2018-06-10T09:56:19Z</time>
      </trkpt>
      <trkpt lat="44.67533" lon="5.0524">
        <ele>420</ele>
        <time>2018-06-10T09:56:21Z</time>
      </trkpt>
      <trkpt lat="44.67538" lon="5.05237">
        <ele>420</ele>
        <time>2018-06-10T09:56:23Z</time>
      </trkpt>
      <trkpt lat="44.67545" lon="5.05235">
        <ele>420</ele>
        <time>2018-06-10T09:56:25Z</time>
      </trkpt>
      <trkpt lat="44.67552" lon="5.05234">
        <ele>419</ele>
        <time>2018-06-10T09:56:27Z</time>
      </trkpt>
      <trkpt lat="44.67563" lon="5.05232">
        <ele>418</ele>
        <time>2018-06-10T09:56:29Z</time>
      </trkpt>
      <trkpt lat="44.67576" lon="5.05228">
        <ele>416</ele>
        <time>2018-06-10T09:56:31Z</time>
      </trkpt>
      <trkpt lat="44.67594" lon="5.05222">
        <ele>414</ele>
        <time>2018-06-10T09:56:33Z</time>
      </trkpt>
      <trkpt lat="44.67617" lon="5.05217">
        <ele>410</ele>
        <time>2018-06-10T09:56:35Z</time>
      </trkpt>
      <trkpt lat="44.67638" lon="5.05215">
        <ele>410</ele>
        <time>2018-06-10T09:56:37Z</time>
      </trkpt>
      <trkpt lat="44.6766" lon="5.05215">
        <ele>409</ele>
        <time>2018-06-10T09:56:39Z</time>
      </trkpt>
      <trkpt lat="44.67677" lon="5.05216">
        <ele>410</ele>
        <time>2018-06-10T09:56:41Z</time>
      </trkpt>
      <trkpt lat="44.67691" lon="5.05215">
        <ele>411</ele>
        <time>2018-06-10T09:56:43Z</time>
      </trkpt>
      <trkpt lat="44.67704" lon="5.05214">
        <ele>410</ele>
        <time>2018-06-10T09:56:45Z</time>
      </trkpt>
      <trkpt lat="44.67715" lon="5.05215">
        <ele>410</ele>
        <time>2018-06-10T09:56:47Z</time>
      </trkpt>
      <trkpt lat="44.67726" lon="5.05216">
        <ele>410</ele>
        <time>2018-06-10T09:56:49Z</time>
      </trkpt>
      <trkpt lat="44.67739" lon="5.05218">
        <ele>409</ele>
        <time>2018-06-10T09:56:51Z</time>
      </trkpt>
      <trkpt lat="44.67754" lon="5.0522">
        <ele>409</ele>
        <time>2018-06-10T09:56:53Z</time>
      </trkpt>
      <trkpt lat="44.6777" lon="5.05223">
        <ele>407</ele>
        <time>2018-06-10T09:56:55Z</time>
      </trkpt>
      <trkpt lat="44.67788" lon="5.05224">
        <ele>406</ele>
        <time>2018-06-10T09:56:57Z</time>
      </trkpt>
      <trkpt lat="44.67806" lon="5.05225">
        <ele>405</ele>
        <time>2018-06-10T09:56:59Z</time>
      </trkpt>
      <trkpt lat="44.67825" lon="5.05228">
        <ele>403</ele>
        <time>2018-06-10T09:57:01Z</time>
      </trkpt>
      <trkpt lat="44.67843" lon="5.05231">
        <ele>402</ele>
        <time>2018-06-10T09:57:03Z</time>
      </trkpt>
      <trkpt lat="44.67863" lon="5.0523">
        <ele>400</ele>
        <time>2018-06-10T09:57:05Z</time>
      </trkpt>
      <trkpt lat="44.67884" lon="5.0523">
        <ele>398</ele>
        <time>2018-06-10T09:57:07Z</time>
      </trkpt>
      <trkpt lat="44.67894" lon="5.05229">
        <ele>397</ele>
        <time>2018-06-10T09:57:09Z</time>
      </trkpt>
      <trkpt lat="44.67925" lon="5.05224">
        <ele>395</ele>
        <time>2018-06-10T09:57:11Z</time>
      </trkpt>
      <trkpt lat="44.67944" lon="5.05216">
        <ele>395</ele>
        <time>2018-06-10T09:57:13Z</time>
      </trkpt>
      <trkpt lat="44.67972" lon="5.05198">
        <ele>393</ele>
        <time>2018-06-10T09:57:16Z</time>
      </trkpt>
      <trkpt lat="44.6799" lon="5.05188">
        <ele>391</ele>
        <time>2018-06-10T09:57:18Z</time>
      </trkpt>
      <trkpt lat="44.68006" lon="5.05183">
        <ele>389</ele>
        <time>2018-06-10T09:57:20Z</time>
      </trkpt>
      <trkpt lat="44.68023" lon="5.05176">
        <ele>388</ele>
        <time>2018-06-10T09:57:22Z</time>
      </trkpt>
      <trkpt lat="44.6804" lon="5.0517">
        <ele>388</ele>
        <time>2018-06-10T09:57:24Z</time>
      </trkpt>
      <trkpt lat="44.68059" lon="5.05167">
        <ele>387</ele>
        <time>2018-06-10T09:57:26Z</time>
      </trkpt>
      <trkpt lat="44.68078" lon="5.0516">
        <ele>385</ele>
        <time>2018-06-10T09:57:28Z</time>
      </trkpt>
      <trkpt lat="44.68096" lon="5.05152">
        <ele>382</ele>
        <time>2018-06-10T09:57:30Z</time>
      </trkpt>
      <trkpt lat="44.68116" lon="5.05145">
        <ele>381</ele>
        <time>2018-06-10T09:57:32Z</time>
      </trkpt>
      <trkpt lat="44.68136" lon="5.05139">
        <ele>379</ele>
        <time>2018-06-10T09:57:34Z</time>
      </trkpt>
      <trkpt lat="44.68161" lon="5.05136">
        <ele>376</ele>
        <time>2018-06-10T09:57:36Z</time>
      </trkpt>
      <trkpt lat="44.68184" lon="5.05134">
        <ele>374</ele>
        <time>2018-06-10T09:57:38Z</time>
      </trkpt>
      <trkpt lat="44.68208" lon="5.0513">
        <ele>372</ele>
        <time>2018-06-10T09:57:40Z</time>
      </trkpt>
      <trkpt lat="44.68227" lon="5.05126">
        <ele>370</ele>
        <time>2018-06-10T09:57:42Z</time>
      </trkpt>
      <trkpt lat="44.68245" lon="5.05118">
        <ele>367</ele>
        <time>2018-06-10T09:57:44Z</time>
      </trkpt>
      <trkpt lat="44.6826" lon="5.05108">
        <ele>363</ele>
        <time>2018-06-10T09:57:46Z</time>
      </trkpt>
      <trkpt lat="44.6827" lon="5.05101">
        <ele>362</ele>
        <time>2018-06-10T09:57:48Z</time>
      </trkpt>
      <trkpt lat="44.68272" lon="5.05098">
        <ele>361</ele>
        <time>2018-06-10T09:57:50Z</time>
      </trkpt>
      <trkpt lat="44.68273" lon="5.05097">
        <ele>361</ele>
        <time>2018-06-10T09:57:52Z</time>
      </trkpt>
      <trkpt lat="44.68277" lon="5.05095">
        <ele>361</ele>
        <time>2018-06-10T09:57:54Z</time>
      </trkpt>
      <trkpt lat="44.6828" lon="5.05092">
        <ele>362</ele>
        <time>2018-06-10T09:57:56Z</time>
      </trkpt>
      <trkpt lat="44.68283" lon="5.05089">
        <ele>362</ele>
        <time>2018-06-10T09:57:58Z</time>
      </trkpt>
      <trkpt lat="44.68284" lon="5.05085">
        <ele>362</ele>
        <time>2018-06-10T09:58:00Z</time>
      </trkpt>
      <trkpt lat="44.68287" lon="5.05082">
        <ele>362</ele>
        <time>2018-06-10T09:58:02Z</time>
      </trkpt>
      <trkpt lat="44.68291" lon="5.05074">
        <ele>361</ele>
        <time>2018-06-10T09:58:04Z</time>
      </trkpt>
      <trkpt lat="44.68296" lon="5.05066">
        <ele>361</ele>
        <time>2018-06-10T09:58:06Z</time>
      </trkpt>
      <trkpt lat="44.683" lon="5.05053">
        <ele>360</ele>
        <time>2018-06-10T09:58:08Z</time>
      </trkpt>
      <trkpt lat="44.68299" lon="5.05042">
        <ele>359</ele>
        <time>2018-06-10T09:58:10Z</time>
      </trkpt>
      <trkpt lat="44.68303" lon="5.05039">
        <ele>358</ele>
        <time>2018-06-10T09:58:12Z</time>
      </trkpt>
      <trkpt lat="44.68308" lon="5.05041">
        <ele>357</ele>
        <time>2018-06-10T09:58:14Z</time>
      </trkpt>
      <trkpt lat="44.68312" lon="5.05046">
        <ele>357</ele>
        <time>2018-06-10T09:58:16Z</time>
      </trkpt>
      <trkpt lat="44.68317" lon="5.05053">
        <ele>353</ele>
        <time>2018-06-10T09:58:18Z</time>
      </trkpt>
      <trkpt lat="44.68319" lon="5.05059">
        <ele>353</ele>
        <time>2018-06-10T09:58:20Z</time>
      </trkpt>
      <trkpt lat="44.68321" lon="5.05067">
        <ele>352</ele>
        <time>2018-06-10T09:58:22Z</time>
      </trkpt>
      <trkpt lat="44.68323" lon="5.05076">
        <ele>351</ele>
        <time>2018-06-10T09:58:24Z</time>
      </trkpt>
      <trkpt lat="44.68326" lon="5.05085">
        <ele>350</ele>
        <time>2018-06-10T09:58:26Z</time>
      </trkpt>
      <trkpt lat="44.68332" lon="5.05096">
        <ele>351</ele>
        <time>2018-06-10T09:58:28Z</time>
      </trkpt>
      <trkpt lat="44.68332" lon="5.05103">
        <ele>351</ele>
        <time>2018-06-10T09:58:31Z</time>
      </trkpt>
      <trkpt lat="44.68333" lon="5.05106">
        <ele>351</ele>
        <time>2018-06-10T09:58:33Z</time>
      </trkpt>
      <trkpt lat="44.68334" lon="5.0511">
        <ele>352</ele>
        <time>2018-06-10T09:58:35Z</time>
      </trkpt>
      <trkpt lat="44.68334" lon="5.05114">
        <ele>352</ele>
        <time>2018-06-10T09:58:37Z</time>
      </trkpt>
      <trkpt lat="44.68333" lon="5.05116">
        <ele>353</ele>
        <time>2018-06-10T09:58:39Z</time>
      </trkpt>
      <trkpt lat="44.68334" lon="5.05118">
        <ele>353</ele>
        <time>2018-06-10T09:58:41Z</time>
      </trkpt>
      <trkpt lat="44.68335" lon="5.05119">
        <ele>353</ele>
        <time>2018-06-10T09:58:43Z</time>
      </trkpt>
      <trkpt lat="44.68337" lon="5.05121">
        <ele>353</ele>
        <time>2018-06-10T09:58:45Z</time>
      </trkpt>
      <trkpt lat="44.68339" lon="5.05123">
        <ele>353</ele>
        <time>2018-06-10T09:58:47Z</time>
      </trkpt>
      <trkpt lat="44.68342" lon="5.05124">
        <ele>354</ele>
        <time>2018-06-10T09:58:49Z</time>
      </trkpt>
      <trkpt lat="44.68346" lon="5.05125">
        <ele>353</ele>
        <time>2018-06-10T09:58:51Z</time>
      </trkpt>
      <trkpt lat="44.68349" lon="5.05126">
        <ele>353</ele>
        <time>2018-06-10T09:58:53Z</time>
      </trkpt>
      <trkpt lat="44.68352" lon="5.05126">
        <ele>353</ele>
        <time>2018-06-10T09:58:55Z</time>
      </trkpt>
      <trkpt lat="44.68355" lon="5.05125">
        <ele>354</ele>
        <time>2018-06-10T09:58:57Z</time>
      </trkpt>
      <trkpt lat="44.68359" lon="5.05125">
        <ele>354</ele>
        <time>2018-06-10T09:58:59Z</time>
      </trkpt>
      <trkpt lat="44.68364" lon="5.05122">
        <ele>354</ele>
        <time>2018-06-10T09:59:02Z</time>
      </trkpt>
      <trkpt lat="44.68367" lon="5.0512">
        <ele>354</ele>
        <time>2018-06-10T09:59:04Z</time>
      </trkpt>
      <trkpt lat="44.68368" lon="5.05119">
        <ele>354</ele>
        <time>2018-06-10T09:59:06Z</time>
      </trkpt>
      <trkpt lat="44.6837" lon="5.05117">
        <ele>354</ele>
        <time>2018-06-10T09:59:08Z</time>
      </trkpt>
      <trkpt lat="44.68373" lon="5.05116">
        <ele>354</ele>
        <time>2018-06-10T09:59:10Z</time>
      </trkpt>
      <trkpt lat="44.68376" lon="5.05114">
        <ele>355</ele>
        <time>2018-06-10T09:59:12Z</time>
      </trkpt>
      <trkpt lat="44.68379" lon="5.05113">
        <ele>355</ele>
        <time>2018-06-10T09:59:14Z</time>
      </trkpt>
      <trkpt lat="44.68382" lon="5.05113">
        <ele>355</ele>
        <time>2018-06-10T09:59:16Z</time>
      </trkpt>
      <trkpt lat="44.68384" lon="5.05112">
        <ele>356</ele>
        <time>2018-06-10T09:59:18Z</time>
      </trkpt>
      <trkpt lat="44.68388" lon="5.05113">
        <ele>356</ele>
        <time>2018-06-10T09:59:20Z</time>
      </trkpt>
      <trkpt lat="44.68391" lon="5.05112">
        <ele>356</ele>
        <time>2018-06-10T09:59:22Z</time>
      </trkpt>
      <trkpt lat="44.68394" lon="5.05111">
        <ele>356</ele>
        <time>2018-06-10T09:59:24Z</time>
      </trkpt>
      <trkpt lat="44.68396" lon="5.0511">
        <ele>357</ele>
        <time>2018-06-10T09:59:26Z</time>
      </trkpt>
      <trkpt lat="44.68399" lon="5.05108">
        <ele>358</ele>
        <time>2018-06-10T09:59:28Z</time>
      </trkpt>
      <trkpt lat="44.68401" lon="5.05106">
        <ele>359</ele>
        <time>2018-06-10T09:59:30Z</time>
      </trkpt>
      <trkpt lat="44.68403" lon="5.05105">
        <ele>359</ele>
        <time>2018-06-10T09:59:32Z</time>
      </trkpt>
      <trkpt lat="44.68405" lon="5.05105">
        <ele>359</ele>
        <time>2018-06-10T09:59:34Z</time>
      </trkpt>
      <trkpt lat="44.68408" lon="5.05103">
        <ele>360</ele>
        <time>2018-06-10T09:59:36Z</time>
      </trkpt>
      <trkpt lat="44.68409" lon="5.05101">
        <ele>360</ele>
        <time>2018-06-10T09:59:38Z</time>
      </trkpt>
      <trkpt lat="44.68412" lon="5.051">
        <ele>361</ele>
        <time>2018-06-10T09:59:40Z</time>
      </trkpt>
      <trkpt lat="44.68414" lon="5.05099">
        <ele>361</ele>
        <time>2018-06-10T09:59:42Z</time>
      </trkpt>
      <trkpt lat="44.68416" lon="5.05099">
        <ele>362</ele>
        <time>2018-06-10T09:59:44Z</time>
      </trkpt>
      <trkpt lat="44.68419" lon="5.05099">
        <ele>362</ele>
        <time>2018-06-10T09:59:46Z</time>
      </trkpt>
      <trkpt lat="44.68422" lon="5.05099">
        <ele>363</ele>
        <time>2018-06-10T09:59:48Z</time>
      </trkpt>
      <trkpt lat="44.68424" lon="5.05098">
        <ele>363</ele>
        <time>2018-06-10T09:59:50Z</time>
      </trkpt>
      <trkpt lat="44.68426" lon="5.05096">
        <ele>363</ele>
        <time>2018-06-10T09:59:52Z</time>
      </trkpt>
      <trkpt lat="44.68429" lon="5.05095">
        <ele>363</ele>
        <time>2018-06-10T09:59:54Z</time>
      </trkpt>
      <trkpt lat="44.68432" lon="5.05095">
        <ele>363</ele>
        <time>2018-06-10T09:59:56Z</time>
      </trkpt>
      <trkpt lat="44.68435" lon="5.05095">
        <ele>363</ele>
        <time>2018-06-10T09:59:58Z</time>
      </trkpt>
      <trkpt lat="44.68438" lon="5.05095">
        <ele>364</ele>
        <time>2018-06-10T10:00:00Z</time>
      </trkpt>
      <trkpt lat="44.6844" lon="5.05093">
        <ele>364</ele>
        <time>2018-06-10T10:00:02Z</time>
      </trkpt>
      <trkpt lat="44.68443" lon="5.05091">
        <ele>364</ele>
        <time>2018-06-10T10:00:04Z</time>
      </trkpt>
      <trkpt lat="44.68446" lon="5.0509">
        <ele>365</ele>
        <time>2018-06-10T10:00:06Z</time>
      </trkpt>
      <trkpt lat="44.68448" lon="5.0509">
        <ele>366</ele>
        <time>2018-06-10T10:00:08Z</time>
      </trkpt>
      <trkpt lat="44.68451" lon="5.05089">
        <ele>366</ele>
        <time>2018-06-10T10:00:10Z</time>
      </trkpt>
      <trkpt lat="44.68453" lon="5.05089">
        <ele>367</ele>
        <time>2018-06-10T10:00:12Z</time>
      </trkpt>
      <trkpt lat="44.68456" lon="5.05089">
        <ele>367</ele>
        <time>2018-06-10T10:00:14Z</time>
      </trkpt>
      <trkpt lat="44.68459" lon="5.0509">
        <ele>368</ele>
        <time>2018-06-10T10:00:16Z</time>
      </trkpt>
      <trkpt lat="44.68462" lon="5.05091">
        <ele>368</ele>
        <time>2018-06-10T10:00:18Z</time>
      </trkpt>
      <trkpt lat="44.68464" lon="5.05091">
        <ele>368</ele>
        <time>2018-06-10T10:00:20Z</time>
      </trkpt>
      <trkpt lat="44.68466" lon="5.0509">
        <ele>369</ele>
        <time>2018-06-10T10:00:22Z</time>
      </trkpt>
      <trkpt lat="44.68468" lon="5.0509">
        <ele>369</ele>
        <time>2018-06-10T10:00:24Z</time>
      </trkpt>
      <trkpt lat="44.68472" lon="5.05091">
        <ele>369</ele>
        <time>2018-06-10T10:00:27Z</time>
      </trkpt>
      <trkpt lat="44.68474" lon="5.05093">
        <ele>370</ele>
        <time>2018-06-10T10:00:29Z</time>
      </trkpt>
      <trkpt lat="44.68476" lon="5.05094">
        <ele>370</ele>
        <time>2018-06-10T10:00:31Z</time>
      </trkpt>
      <trkpt lat="44.68478" lon="5.05095">
        <ele>371</ele>
        <time>2018-06-10T10:00:33Z</time>
      </trkpt>
      <trkpt lat="44.6848" lon="5.05098">
        <ele>370</ele>
        <time>2018-06-10T10:00:35Z</time>
      </trkpt>
      <trkpt lat="44.68482" lon="5.051">
        <ele>371</ele>
        <time>2018-06-10T10:00:37Z</time>
      </trkpt>
      <trkpt lat="44.68484" lon="5.05101">
        <ele>372</ele>
        <time>2018-06-10T10:00:39Z</time>
      </trkpt>
      <trkpt lat="44.68486" lon="5.05102">
        <ele>372</ele>
        <time>2018-06-10T10:00:41Z</time>
      </trkpt>
      <trkpt lat="44.68488" lon="5.05102">
        <ele>372</ele>
        <time>2018-06-10T10:00:43Z</time>
      </trkpt>
      <trkpt lat="44.6849" lon="5.05102">
        <ele>373</ele>
        <time>2018-06-10T10:00:45Z</time>
      </trkpt>
      <trkpt lat="44.68491" lon="5.05104">
        <ele>373</ele>
        <time>2018-06-10T10:00:47Z</time>
      </trkpt>
      <trkpt lat="44.68493" lon="5.05105">
        <ele>373</ele>
        <time>2018-06-10T10:00:49Z</time>
      </trkpt>
      <trkpt lat="44.68496" lon="5.05106">
        <ele>374</ele>
        <time>2018-06-10T10:00:51Z</time>
      </trkpt>
      <trkpt lat="44.68499" lon="5.05107">
        <ele>374</ele>
        <time>2018-06-10T10:00:53Z</time>
      </trkpt>
      <trkpt lat="44.68501" lon="5.05107">
        <ele>374</ele>
        <time>2018-06-10T10:00:55Z</time>
      </trkpt>
      <trkpt lat="44.68503" lon="5.05106">
        <ele>375</ele>
        <time>2018-06-10T10:00:57Z</time>
      </trkpt>
      <trkpt lat="44.68504" lon="5.05104">
        <ele>375</ele>
        <time>2018-06-10T10:00:59Z</time>
      </trkpt>
      <trkpt lat="44.68507" lon="5.05104">
        <ele>375</ele>
        <time>2018-06-10T10:01:01Z</time>
      </trkpt>
      <trkpt lat="44.68509" lon="5.05104">
        <ele>376</ele>
        <time>2018-06-10T10:01:03Z</time>
      </trkpt>
      <trkpt lat="44.68511" lon="5.05103">
        <ele>376</ele>
        <time>2018-06-10T10:01:05Z</time>
      </trkpt>
      <trkpt lat="44.68514" lon="5.05103">
        <ele>376</ele>
        <time>2018-06-10T10:01:07Z</time>
      </trkpt>
      <trkpt lat="44.68516" lon="5.05102">
        <ele>377</ele>
        <time>2018-06-10T10:01:09Z</time>
      </trkpt>
      <trkpt lat="44.68518" lon="5.05101">
        <ele>377</ele>
        <time>2018-06-10T10:01:11Z</time>
      </trkpt>
      <trkpt lat="44.6852" lon="5.051">
        <ele>377</ele>
        <time>2018-06-10T10:01:13Z</time>
      </trkpt>
      <trkpt lat="44.68523" lon="5.05101">
        <ele>377</ele>
        <time>2018-06-10T10:01:15Z</time>
      </trkpt>
      <trkpt lat="44.68525" lon="5.05101">
        <ele>377</ele>
        <time>2018-06-10T10:01:17Z</time>
      </trkpt>
      <trkpt lat="44.68527" lon="5.05102">
        <ele>378</ele>
        <time>2018-06-10T10:01:19Z</time>
      </trkpt>
      <trkpt lat="44.68529" lon="5.05102">
        <ele>379</ele>
        <time>2018-06-10T10:01:21Z</time>
      </trkpt>
      <trkpt lat="44.6853" lon="5.05103">
        <ele>379</ele>
        <time>2018-06-10T10:01:23Z</time>
      </trkpt>
      <trkpt lat="44.68533" lon="5.05105">
        <ele>380</ele>
        <time>2018-06-10T10:01:25Z</time>
      </trkpt>
      <trkpt lat="44.68534" lon="5.05106">
        <ele>380</ele>
        <time>2018-06-10T10:01:27Z</time>
      </trkpt>
      <trkpt lat="44.68536" lon="5.05108">
        <ele>381</ele>
        <time>2018-06-10T10:01:29Z</time>
      </trkpt>
      <trkpt lat="44.68538" lon="5.05109">
        <ele>381</ele>
        <time>2018-06-10T10:01:31Z</time>
      </trkpt>
      <trkpt lat="44.6854" lon="5.05109">
        <ele>382</ele>
        <time>2018-06-10T10:01:33Z</time>
      </trkpt>
      <trkpt lat="44.68543" lon="5.05109">
        <ele>382</ele>
        <time>2018-06-10T10:01:35Z</time>
      </trkpt>
      <trkpt lat="44.68545" lon="5.05108">
        <ele>382</ele>
        <time>2018-06-10T10:01:37Z</time>
      </trkpt>
      <trkpt lat="44.68547" lon="5.05107">
        <ele>382</ele>
        <time>2018-06-10T10:01:39Z</time>
      </trkpt>
      <trkpt lat="44.6855" lon="5.05108">
        <ele>382</ele>
        <time>2018-06-10T10:01:41Z</time>
      </trkpt>
      <trkpt lat="44.68552" lon="5.05108">
        <ele>382</ele>
        <time>2018-06-10T10:01:43Z</time>
      </trkpt>
      <trkpt lat="44.68554" lon="5.0511">
        <ele>383</ele>
        <time>2018-06-10T10:01:45Z</time>
      </trkpt>
      <trkpt lat="44.68558" lon="5.05114">
        <ele>382</ele>
        <time>2018-06-10T10:01:48Z</time>
      </trkpt>
      <trkpt lat="44.68561" lon="5.05115">
        <ele>383</ele>
        <time>2018-06-10T10:01:50Z</time>
      </trkpt>
      <trkpt lat="44.68564" lon="5.05115">
        <ele>383</ele>
        <time>2018-06-10T10:01:52Z</time>
      </trkpt>
      <trkpt lat="44.68569" lon="5.05116">
        <ele>382</ele>
        <time>2018-06-10T10:01:54Z</time>
      </trkpt>
      <trkpt lat="44.6857" lon="5.0512">
        <ele>382</ele>
        <time>2018-06-10T10:01:56Z</time>
      </trkpt>
      <trkpt lat="44.68572" lon="5.05124">
        <ele>382</ele>
        <time>2018-06-10T10:01:58Z</time>
      </trkpt>
      <trkpt lat="44.6857" lon="5.05128">
        <ele>381</ele>
        <time>2018-06-10T10:02:00Z</time>
      </trkpt>
      <trkpt lat="44.68568" lon="5.05133">
        <ele>381</ele>
        <time>2018-06-10T10:02:02Z</time>
      </trkpt>
      <trkpt lat="44.68567" lon="5.05139">
        <ele>381</ele>
        <time>2018-06-10T10:02:04Z</time>
      </trkpt>
      <trkpt lat="44.68568" lon="5.05146">
        <ele>378</ele>
        <time>2018-06-10T10:02:06Z</time>
      </trkpt>
      <trkpt lat="44.68569" lon="5.05156">
        <ele>378</ele>
        <time>2018-06-10T10:02:08Z</time>
      </trkpt>
      <trkpt lat="44.68566" lon="5.05163">
        <ele>376</ele>
        <time>2018-06-10T10:02:10Z</time>
      </trkpt>
      <trkpt lat="44.68566" lon="5.05169">
        <ele>375</ele>
        <time>2018-06-10T10:02:12Z</time>
      </trkpt>
      <trkpt lat="44.68564" lon="5.0518">
        <ele>374</ele>
        <time>2018-06-10T10:02:14Z</time>
      </trkpt>
      <trkpt lat="44.68563" lon="5.05189">
        <ele>371</ele>
        <time>2018-06-10T10:02:16Z</time>
      </trkpt>
      <trkpt lat="44.68562" lon="5.05199">
        <ele>370</ele>
        <time>2018-06-10T10:02:18Z</time>
      </trkpt>
      <trkpt lat="44.68561" lon="5.05205">
        <ele>370</ele>
        <time>2018-06-10T10:02:20Z</time>
      </trkpt>
      <trkpt lat="44.68564" lon="5.05211">
        <ele>370</ele>
        <time>2018-06-10T10:02:22Z</time>
      </trkpt>
      <trkpt lat="44.68568" lon="5.05221">
        <ele>369</ele>
        <time>2018-06-10T10:02:24Z</time>
      </trkpt>
      <trkpt lat="44.68571" lon="5.05232">
        <ele>368</ele>
        <time>2018-06-10T10:02:26Z</time>
      </trkpt>
      <trkpt lat="44.68575" lon="5.05239">
        <ele>367</ele>
        <time>2018-06-10T10:02:28Z</time>
      </trkpt>
      <trkpt lat="44.68578" lon="5.05248">
        <ele>366</ele>
        <time>2018-06-10T10:02:30Z</time>
      </trkpt>
      <trkpt lat="44.68582" lon="5.05256">
        <ele>365</ele>
        <time>2018-06-10T10:02:32Z</time>
      </trkpt>
      <trkpt lat="44.68587" lon="5.05262">
        <ele>364</ele>
        <time>2018-06-10T10:02:34Z</time>
      </trkpt>
      <trkpt lat="44.68589" lon="5.05267">
        <ele>364</ele>
        <time>2018-06-10T10:02:36Z</time>
      </trkpt>
      <trkpt lat="44.68593" lon="5.05274">
        <ele>364</ele>
        <time>2018-06-10T10:02:38Z</time>
      </trkpt>
      <trkpt lat="44.68595" lon="5.05282">
        <ele>363</ele>
        <time>2018-06-10T10:02:40Z</time>
      </trkpt>
      <trkpt lat="44.68599" lon="5.05289">
        <ele>363</ele>
        <time>2018-06-10T10:02:42Z</time>
      </trkpt>
      <trkpt lat="44.68604" lon="5.05297">
        <ele>363</ele>
        <time>2018-06-10T10:02:44Z</time>
      </trkpt>
      <trkpt lat="44.68611" lon="5.05304">
        <ele>363</ele>
        <time>2018-06-10T10:02:46Z</time>
      </trkpt>
      <trkpt lat="44.68617" lon="5.05314">
        <ele>362</ele>
        <time>2018-06-10T10:02:48Z</time>
      </trkpt>
      <trkpt lat="44.68621" lon="5.0532">
        <ele>362</ele>
        <time>2018-06-10T10:02:50Z</time>
      </trkpt>
      <trkpt lat="44.68625" lon="5.05324">
        <ele>362</ele>
        <time>2018-06-10T10:02:52Z</time>
      </trkpt>
      <trkpt lat="44.6863" lon="5.05328">
        <ele>362</ele>
        <time>2018-06-10T10:02:54Z</time>
      </trkpt>
      <trkpt lat="44.68633" lon="5.0533">
        <ele>362</ele>
        <time>2018-06-10T10:02:56Z</time>
      </trkpt>
      <trkpt lat="44.6864" lon="5.05339">
        <ele>363</ele>
        <time>2018-06-10T10:02:58Z</time>
      </trkpt>
      <trkpt lat="44.68643" lon="5.05347">
        <ele>363</ele>
        <time>2018-06-10T10:03:01Z</time>
      </trkpt>
      <trkpt lat="44.68646" lon="5.05352">
        <ele>363</ele>
        <time>2018-06-10T10:03:03Z</time>
      </trkpt>
      <trkpt lat="44.6865" lon="5.05356">
        <ele>363</ele>
        <time>2018-06-10T10:03:05Z</time>
      </trkpt>
      <trkpt lat="44.68653" lon="5.05358">
        <ele>363</ele>
        <time>2018-06-10T10:03:07Z</time>
      </trkpt>
      <trkpt lat="44.68654" lon="5.05361">
        <ele>364</ele>
        <time>2018-06-10T10:03:09Z</time>
      </trkpt>
      <trkpt lat="44.68658" lon="5.05364">
        <ele>363</ele>
        <time>2018-06-10T10:03:11Z</time>
      </trkpt>
      <trkpt lat="44.68662" lon="5.05369">
        <ele>364</ele>
        <time>2018-06-10T10:03:13Z</time>
      </trkpt>
      <trkpt lat="44.68665" lon="5.0537">
        <ele>364</ele>
        <time>2018-06-10T10:03:15Z</time>
      </trkpt>
      <trkpt lat="44.68668" lon="5.05372">
        <ele>364</ele>
        <time>2018-06-10T10:03:17Z</time>
      </trkpt>
      <trkpt lat="44.68674" lon="5.05377">
        <ele>364</ele>
        <time>2018-06-10T10:03:19Z</time>
      </trkpt>
      <trkpt lat="44.68681" lon="5.05381">
        <ele>364</ele>
        <time>2018-06-10T10:03:21Z</time>
      </trkpt>
      <trkpt lat="44.68686" lon="5.05385">
        <ele>364</ele>
        <time>2018-06-10T10:03:23Z</time>
      </trkpt>
      <trkpt lat="44.68693" lon="5.05389">
        <ele>364</ele>
        <time>2018-06-10T10:03:25Z</time>
      </trkpt>
      <trkpt lat="44.68701" lon="5.05392">
        <ele>364</ele>
        <time>2018-06-10T10:03:27Z</time>
      </trkpt>
      <trkpt lat="44.68708" lon="5.05395">
        <ele>363</ele>
        <time>2018-06-10T10:03:29Z</time>
      </trkpt>
      <trkpt lat="44.68713" lon="5.054">
        <ele>363</ele>
        <time>2018-06-10T10:03:31Z</time>
      </trkpt>
      <trkpt lat="44.68717" lon="5.05404">
        <ele>363</ele>
        <time>2018-06-10T10:03:33Z</time>
      </trkpt>
      <trkpt lat="44.68723" lon="5.05408">
        <ele>363</ele>
        <time>2018-06-10T10:03:35Z</time>
      </trkpt>
      <trkpt lat="44.68723" lon="5.05412">
        <ele>362</ele>
        <time>2018-06-10T10:03:37Z</time>
      </trkpt>
      <trkpt lat="44.68722" lon="5.05416">
        <ele>361</ele>
        <time>2018-06-10T10:03:39Z</time>
      </trkpt>
      <trkpt lat="44.6872" lon="5.05423">
        <ele>361</ele>
        <time>2018-06-10T10:03:41Z</time>
      </trkpt>
      <trkpt lat="44.68722" lon="5.05433">
        <ele>359</ele>
        <time>2018-06-10T10:03:43Z</time>
      </trkpt>
      <trkpt lat="44.68728" lon="5.05438">
        <ele>358</ele>
        <time>2018-06-10T10:03:45Z</time>
      </trkpt>
      <trkpt lat="44.68731" lon="5.05445">
        <ele>356</ele>
        <time>2018-06-10T10:03:47Z</time>
      </trkpt>
      <trkpt lat="44.68736" lon="5.0545">
        <ele>355</ele>
        <time>2018-06-10T10:03:49Z</time>
      </trkpt>
      <trkpt lat="44.68744" lon="5.05461">
        <ele>352</ele>
        <time>2018-06-10T10:03:52Z</time>
      </trkpt>
      <trkpt lat="44.68751" lon="5.05464">
        <ele>351</ele>
        <time>2018-06-10T10:03:54Z</time>
      </trkpt>
      <trkpt lat="44.68757" lon="5.05469">
        <ele>349</ele>
        <time>2018-06-10T10:03:56Z</time>
      </trkpt>
      <trkpt lat="44.68761" lon="5.05474">
        <ele>347</ele>
        <time>2018-06-10T10:03:58Z</time>
      </trkpt>
      <trkpt lat="44.68768" lon="5.05478">
        <ele>346</ele>
        <time>2018-06-10T10:04:00Z</time>
      </trkpt>
      <trkpt lat="44.68773" lon="5.05477">
        <ele>345</ele>
        <time>2018-06-10T10:04:02Z</time>
      </trkpt>
      <trkpt lat="44.68775" lon="5.05474">
        <ele>346</ele>
        <time>2018-06-10T10:04:04Z</time>
      </trkpt>
      <trkpt lat="44.68779" lon="5.05472">
        <ele>347</ele>
        <time>2018-06-10T10:04:06Z</time>
      </trkpt>
      <trkpt lat="44.68784" lon="5.05472">
        <ele>347</ele>
        <time>2018-06-10T10:04:08Z</time>
      </trkpt>
      <trkpt lat="44.68787" lon="5.05472">
        <ele>347</ele>
        <time>2018-06-10T10:04:10Z</time>
      </trkpt>
      <trkpt lat="44.68794" lon="5.05476">
        <ele>347</ele>
        <time>2018-06-10T10:04:12Z</time>
      </trkpt>
      <trkpt lat="44.68803" lon="5.05479">
        <ele>344</ele>
        <time>2018-06-10T10:04:14Z</time>
      </trkpt>
      <trkpt lat="44.68807" lon="5.0548">
        <ele>344</ele>
        <time>2018-06-10T10:04:16Z</time>
      </trkpt>
      <trkpt lat="44.68811" lon="5.0548">
        <ele>344</ele>
        <time>2018-06-10T10:04:18Z</time>
      </trkpt>
      <trkpt lat="44.68815" lon="5.05482">
        <ele>344</ele>
        <time>2018-06-10T10:04:20Z</time>
      </trkpt>
      <trkpt lat="44.68818" lon="5.05485">
        <ele>343</ele>
        <time>2018-06-10T10:04:22Z</time>
      </trkpt>
      <trkpt lat="44.68822" lon="5.0549">
        <ele>341</ele>
        <time>2018-06-10T10:04:24Z</time>
      </trkpt>
      <trkpt lat="44.68826" lon="5.05495">
        <ele>338</ele>
        <time>2018-06-10T10:04:26Z</time>
      </trkpt>
      <trkpt lat="44.68831" lon="5.05499">
        <ele>334</ele>
        <time>2018-06-10T10:04:28Z</time>
      </trkpt>
      <trkpt lat="44.68833" lon="5.05503">
        <ele>332</ele>
        <time>2018-06-10T10:04:30Z</time>
      </trkpt>
      <trkpt lat="44.68834" lon="5.05505">
        <ele>332</ele>
        <time>2018-06-10T10:04:32Z</time>
      </trkpt>
      <trkpt lat="44.68836" lon="5.05507">
        <ele>330</ele>
        <time>2018-06-10T10:04:34Z</time>
      </trkpt>
      <trkpt lat="44.68838" lon="5.0551">
        <ele>329</ele>
        <time>2018-06-10T10:04:36Z</time>
      </trkpt>
      <trkpt lat="44.68841" lon="5.05513">
        <ele>328</ele>
        <time>2018-06-10T10:04:38Z</time>
      </trkpt>
      <trkpt lat="44.68844" lon="5.05516">
        <ele>326</ele>
        <time>2018-06-10T10:04:40Z</time>
      </trkpt>
      <trkpt lat="44.68847" lon="5.0552">
        <ele>325</ele>
        <time>2018-06-10T10:04:42Z</time>
      </trkpt>
      <trkpt lat="44.6885" lon="5.05522">
        <ele>322</ele>
        <time>2018-06-10T10:04:44Z</time>
      </trkpt>
      <trkpt lat="44.68853" lon="5.05525">
        <ele>322</ele>
        <time>2018-06-10T10:04:46Z</time>
      </trkpt>
      <trkpt lat="44.68855" lon="5.05531">
        <ele>322</ele>
        <time>2018-06-10T10:04:48Z</time>
      </trkpt>
      <trkpt lat="44.68859" lon="5.05536">
        <ele>319</ele>
        <time>2018-06-10T10:04:50Z</time>
      </trkpt>
      <trkpt lat="44.68863" lon="5.0554">
        <ele>318</ele>
        <time>2018-06-10T10:04:52Z</time>
      </trkpt>
      <trkpt lat="44.68864" lon="5.05542">
        <ele>315</ele>
        <time>2018-06-10T10:04:54Z</time>
      </trkpt>
      <trkpt lat="44.68866" lon="5.0555">
        <ele>315</ele>
        <time>2018-06-10T10:04:56Z</time>
      </trkpt>
      <trkpt lat="44.68868" lon="5.05552">
        <ele>315</ele>
        <time>2018-06-10T10:04:58Z</time>
      </trkpt>
      <trkpt lat="44.68869" lon="5.05553">
        <ele>314</ele>
        <time>2018-06-10T10:05:00Z</time>
      </trkpt>
      <trkpt lat="44.68872" lon="5.05558">
        <ele>313</ele>
        <time>2018-06-10T10:05:02Z</time>
      </trkpt>
      <trkpt lat="44.68872" lon="5.05562">
        <ele>312</ele>
        <time>2018-06-10T10:05:04Z</time>
      </trkpt>
      <trkpt lat="44.68873" lon="5.05566">
        <ele>310</ele>
        <time>2018-06-10T10:05:06Z</time>
      </trkpt>
      <trkpt lat="44.68877" lon="5.05569">
        <ele>308</ele>
        <time>2018-06-10T10:05:08Z</time>
      </trkpt>
      <trkpt lat="44.68882" lon="5.0557">
        <ele>305</ele>
        <time>2018-06-10T10:05:10Z</time>
      </trkpt>
      <trkpt lat="44.68886" lon="5.0557">
        <ele>305</ele>
        <time>2018-06-10T10:05:12Z</time>
      </trkpt>
      <trkpt lat="44.6889" lon="5.05569">
        <ele>305</ele>
        <time>2018-06-10T10:05:14Z</time>
      </trkpt>
      <trkpt lat="44.68893" lon="5.05568">
        <ele>306</ele>
        <time>2018-06-10T10:05:16Z</time>
      </trkpt>
      <trkpt lat="44.68895" lon="5.05565">
        <ele>307</ele>
        <time>2018-06-10T10:05:18Z</time>
      </trkpt>
      <trkpt lat="44.68897" lon="5.05562">
        <ele>307</ele>
        <time>2018-06-10T10:05:20Z</time>
      </trkpt>
      <trkpt lat="44.68901" lon="5.0556">
        <ele>307</ele>
        <time>2018-06-10T10:05:23Z</time>
      </trkpt>
      <trkpt lat="44.68903" lon="5.05558">
        <ele>307</ele>
        <time>2018-06-10T10:05:25Z</time>
      </trkpt>
      <trkpt lat="44.68904" lon="5.05555">
        <ele>307</ele>
        <time>2018-06-10T10:05:27Z</time>
      </trkpt>
      <trkpt lat="44.68905" lon="5.05552">
        <ele>308</ele>
        <time>2018-06-10T10:05:29Z</time>
      </trkpt>
      <trkpt lat="44.68907" lon="5.05551">
        <ele>308</ele>
        <time>2018-06-10T10:05:31Z</time>
      </trkpt>
      <trkpt lat="44.68912" lon="5.05553">
        <ele>307</ele>
        <time>2018-06-10T10:05:33Z</time>
      </trkpt>
      <trkpt lat="44.68916" lon="5.05552">
        <ele>306</ele>
        <time>2018-06-10T10:05:35Z</time>
      </trkpt>
      <trkpt lat="44.68924" lon="5.0555">
        <ele>306</ele>
        <time>2018-06-10T10:05:37Z</time>
      </trkpt>
      <trkpt lat="44.68927" lon="5.05547">
        <ele>306</ele>
        <time>2018-06-10T10:05:39Z</time>
      </trkpt>
      <trkpt lat="44.68929" lon="5.05543">
        <ele>306</ele>
        <time>2018-06-10T10:05:41Z</time>
      </trkpt>
      <trkpt lat="44.68932" lon="5.05539">
        <ele>306</ele>
        <time>2018-06-10T10:05:43Z</time>
      </trkpt>
      <trkpt lat="44.68936" lon="5.05538">
        <ele>305</ele>
        <time>2018-06-10T10:05:45Z</time>
      </trkpt>
      <trkpt lat="44.68942" lon="5.05539">
        <ele>304</ele>
        <time>2018-06-10T10:05:47Z</time>
      </trkpt>
      <trkpt lat="44.68944" lon="5.05538">
        <ele>302</ele>
        <time>2018-06-10T10:05:49Z</time>
      </trkpt>
      <trkpt lat="44.68948" lon="5.05533">
        <ele>302</ele>
        <time>2018-06-10T10:05:51Z</time>
      </trkpt>
      <trkpt lat="44.68948" lon="5.05529">
        <ele>301</ele>
        <time>2018-06-10T10:05:53Z</time>
      </trkpt>
      <trkpt lat="44.68947" lon="5.05526">
        <ele>301</ele>
        <time>2018-06-10T10:05:55Z</time>
      </trkpt>
      <trkpt lat="44.68944" lon="5.05521">
        <ele>301</ele>
        <time>2018-06-10T10:05:57Z</time>
      </trkpt>
      <trkpt lat="44.6894" lon="5.05516">
        <ele>300</ele>
        <time>2018-06-10T10:05:59Z</time>
      </trkpt>
      <trkpt lat="44.68936" lon="5.05508">
        <ele>300</ele>
        <time>2018-06-10T10:06:01Z</time>
      </trkpt>
      <trkpt lat="44.68932" lon="5.05503">
        <ele>300</ele>
        <time>2018-06-10T10:06:03Z</time>
      </trkpt>
      <trkpt lat="44.68929" lon="5.05498">
        <ele>300</ele>
        <time>2018-06-10T10:06:06Z</time>
      </trkpt>
      <trkpt lat="44.68929" lon="5.05493">
        <ele>300</ele>
        <time>2018-06-10T10:06:08Z</time>
      </trkpt>
      <trkpt lat="44.68928" lon="5.05489">
        <ele>301</ele>
        <time>2018-06-10T10:06:10Z</time>
      </trkpt>
      <trkpt lat="44.68926" lon="5.05485">
        <ele>301</ele>
        <time>2018-06-10T10:06:12Z</time>
      </trkpt>
      <trkpt lat="44.68925" lon="5.05479">
        <ele>301</ele>
        <time>2018-06-10T10:06:14Z</time>
      </trkpt>
      <trkpt lat="44.68925" lon="5.05475">
        <ele>301</ele>
        <time>2018-06-10T10:06:16Z</time>
      </trkpt>
      <trkpt lat="44.68924" lon="5.05471">
        <ele>301</ele>
        <time>2018-06-10T10:06:18Z</time>
      </trkpt>
      <trkpt lat="44.68922" lon="5.05467">
        <ele>301</ele>
        <time>2018-06-10T10:06:20Z</time>
      </trkpt>
      <trkpt lat="44.68921" lon="5.05463">
        <ele>302</ele>
        <time>2018-06-10T10:06:22Z</time>
      </trkpt>
      <trkpt lat="44.68918" lon="5.0546">
        <ele>301</ele>
        <time>2018-06-10T10:06:24Z</time>
      </trkpt>
      <trkpt lat="44.68916" lon="5.05457">
        <ele>300</ele>
        <time>2018-06-10T10:06:26Z</time>
      </trkpt>
      <trkpt lat="44.68916" lon="5.05453">
        <ele>299</ele>
        <time>2018-06-10T10:06:28Z</time>
      </trkpt>
      <trkpt lat="44.68914" lon="5.05448">
        <ele>297</ele>
        <time>2018-06-10T10:06:30Z</time>
      </trkpt>
      <trkpt lat="44.68912" lon="5.05441">
        <ele>296</ele>
        <time>2018-06-10T10:06:32Z</time>
      </trkpt>
      <trkpt lat="44.68911" lon="5.05438">
        <ele>297</ele>
        <time>2018-06-10T10:06:34Z</time>
      </trkpt>
      <trkpt lat="44.68911" lon="5.05434">
        <ele>298</ele>
        <time>2018-06-10T10:06:36Z</time>
      </trkpt>
      <trkpt lat="44.68908" lon="5.05431">
        <ele>298</ele>
        <time>2018-06-10T10:06:38Z</time>
      </trkpt>
      <trkpt lat="44.68908" lon="5.05428">
        <ele>298</ele>
        <time>2018-06-10T10:06:40Z</time>
      </trkpt>
      <trkpt lat="44.68908" lon="5.05428">
        <ele>299</ele>
        <time>2018-06-10T10:06:42Z</time>
      </trkpt>
      <trkpt lat="44.68906" lon="5.05425">
        <ele>299</ele>
        <time>2018-06-10T10:06:44Z</time>
      </trkpt>
      <trkpt lat="44.68905" lon="5.05423">
        <ele>299</ele>
        <time>2018-06-10T10:06:46Z</time>
      </trkpt>
      <trkpt lat="44.68904" lon="5.0542">
        <ele>299</ele>
        <time>2018-06-10T10:06:48Z</time>
      </trkpt>
      <trkpt lat="44.689" lon="5.05414">
        <ele>299</ele>
        <time>2018-06-10T10:06:50Z</time>
      </trkpt>
      <trkpt lat="44.68898" lon="5.05411">
        <ele>299</ele>
        <time>2018-06-10T10:06:52Z</time>
      </trkpt>
      <trkpt lat="44.68896" lon="5.05407">
        <ele>299</ele>
        <time>2018-06-10T10:06:55Z</time>
      </trkpt>
      <trkpt lat="44.68894" lon="5.05404">
        <ele>300</ele>
        <time>2018-06-10T10:06:57Z</time>
      </trkpt>
      <trkpt lat="44.68891" lon="5.05402">
        <ele>300</ele>
        <time>2018-06-10T10:06:59Z</time>
      </trkpt>
      <trkpt lat="44.6889" lon="5.05401">
        <ele>301</ele>
        <time>2018-06-10T10:07:01Z</time>
      </trkpt>
      <trkpt lat="44.68888" lon="5.05398">
        <ele>301</ele>
        <time>2018-06-10T10:07:03Z</time>
      </trkpt>
      <trkpt lat="44.68885" lon="5.05395">
        <ele>301</ele>
        <time>2018-06-10T10:07:05Z</time>
      </trkpt>
      <trkpt lat="44.68883" lon="5.05392">
        <ele>302</ele>
        <time>2018-06-10T10:07:07Z</time>
      </trkpt>
      <trkpt lat="44.6888" lon="5.0539">
        <ele>302</ele>
        <time>2018-06-10T10:07:09Z</time>
      </trkpt>
      <trkpt lat="44.68878" lon="5.05389">
        <ele>302</ele>
        <time>2018-06-10T10:07:11Z</time>
      </trkpt>
      <trkpt lat="44.68877" lon="5.05387">
        <ele>302</ele>
        <time>2018-06-10T10:07:13Z</time>
      </trkpt>
      <trkpt lat="44.68876" lon="5.05386">
        <ele>303</ele>
        <time>2018-06-10T10:07:15Z</time>
      </trkpt>
      <trkpt lat="44.68875" lon="5.05385">
        <ele>303</ele>
        <time>2018-06-10T10:07:17Z</time>
      </trkpt>
      <trkpt lat="44.68874" lon="5.05384">
        <ele>304</ele>
        <time>2018-06-10T10:07:19Z</time>
      </trkpt>
      <trkpt lat="44.68873" lon="5.05383">
        <ele>304</ele>
        <time>2018-06-10T10:07:21Z</time>
      </trkpt>
      <trkpt lat="44.68873" lon="5.05382">
        <ele>304</ele>
        <time>2018-06-10T10:07:23Z</time>
      </trkpt>
      <trkpt lat="44.68871" lon="5.0538">
        <ele>304</ele>
        <time>2018-06-10T10:07:25Z</time>
      </trkpt>
      <trkpt lat="44.68869" lon="5.05379">
        <ele>304</ele>
        <time>2018-06-10T10:07:27Z</time>
      </trkpt>
      <trkpt lat="44.68868" lon="5.05379">
        <ele>304</ele>
        <time>2018-06-10T10:07:29Z</time>
      </trkpt>
      <trkpt lat="44.68866" lon="5.05378">
        <ele>305</ele>
        <time>2018-06-10T10:07:31Z</time>
      </trkpt>
      <trkpt lat="44.68865" lon="5.05378">
        <ele>305</ele>
        <time>2018-06-10T10:07:33Z</time>
      </trkpt>
      <trkpt lat="44.68863" lon="5.05376">
        <ele>305</ele>
        <time>2018-06-10T10:07:35Z</time>
      </trkpt>
      <trkpt lat="44.68861" lon="5.05374">
        <ele>305</ele>
        <time>2018-06-10T10:07:37Z</time>
      </trkpt>
      <trkpt lat="44.6886" lon="5.05372">
        <ele>306</ele>
        <time>2018-06-10T10:07:39Z</time>
      </trkpt>
      <trkpt lat="44.68858" lon="5.05371">
        <ele>306</ele>
        <time>2018-06-10T10:07:41Z</time>
      </trkpt>
      <trkpt lat="44.68857" lon="5.05371">
        <ele>306</ele>
        <time>2018-06-10T10:07:43Z</time>
      </trkpt>
      <trkpt lat="44.68856" lon="5.05369">
        <ele>306</ele>
        <time>2018-06-10T10:07:45Z</time>
      </trkpt>
      <trkpt lat="44.68854" lon="5.05367">
        <ele>306</ele>
        <time>2018-06-10T10:07:47Z</time>
      </trkpt>
      <trkpt lat="44.68852" lon="5.05366">
        <ele>307</ele>
        <time>2018-06-10T10:07:49Z</time>
      </trkpt>
      <trkpt lat="44.68851" lon="5.05364">
        <ele>308</ele>
        <time>2018-06-10T10:07:51Z</time>
      </trkpt>
      <trkpt lat="44.68849" lon="5.05362">
        <ele>307</ele>
        <time>2018-06-10T10:07:53Z</time>
      </trkpt>
      <trkpt lat="44.68847" lon="5.05362">
        <ele>308</ele>
        <time>2018-06-10T10:07:55Z</time>
      </trkpt>
      <trkpt lat="44.68846" lon="5.05361">
        <ele>308</ele>
        <time>2018-06-10T10:07:57Z</time>
      </trkpt>
      <trkpt lat="44.68844" lon="5.05359">
        <ele>308</ele>
        <time>2018-06-10T10:07:59Z</time>
      </trkpt>
      <trkpt lat="44.68842" lon="5.05356">
        <ele>309</ele>
        <time>2018-06-10T10:08:01Z</time>
      </trkpt>
      <trkpt lat="44.6884" lon="5.05353">
        <ele>310</ele>
        <time>2018-06-10T10:08:03Z</time>
      </trkpt>
      <trkpt lat="44.68838" lon="5.05351">
        <ele>309</ele>
        <time>2018-06-10T10:08:05Z</time>
      </trkpt>
      <trkpt lat="44.68835" lon="5.05347">
        <ele>308</ele>
        <time>2018-06-10T10:08:07Z</time>
      </trkpt>
      <trkpt lat="44.68831" lon="5.05341">
        <ele>309</ele>
        <time>2018-06-10T10:08:09Z</time>
      </trkpt>
      <trkpt lat="44.68828" lon="5.05338">
        <ele>309</ele>
        <time>2018-06-10T10:08:11Z</time>
      </trkpt>
      <trkpt lat="44.68827" lon="5.05336">
        <ele>309</ele>
        <time>2018-06-10T10:08:13Z</time>
      </trkpt>
      <trkpt lat="44.68824" lon="5.05333">
        <ele>309</ele>
        <time>2018-06-10T10:08:15Z</time>
      </trkpt>
      <trkpt lat="44.68822" lon="5.05331">
        <ele>309</ele>
        <time>2018-06-10T10:08:17Z</time>
      </trkpt>
      <trkpt lat="44.68817" lon="5.05323">
        <ele>308</ele>
        <time>2018-06-10T10:08:19Z</time>
      </trkpt>
      <trkpt lat="44.68813" lon="5.05316">
        <ele>308</ele>
        <time>2018-06-10T10:08:21Z</time>
      </trkpt>
      <trkpt lat="44.68811" lon="5.05313">
        <ele>308</ele>
        <time>2018-06-10T10:08:23Z</time>
      </trkpt>
      <trkpt lat="44.68808" lon="5.0531">
        <ele>308</ele>
        <time>2018-06-10T10:08:25Z</time>
      </trkpt>
      <trkpt lat="44.68807" lon="5.05309">
        <ele>309</ele>
        <time>2018-06-10T10:08:28Z</time>
      </trkpt>
      <trkpt lat="44.68806" lon="5.05308">
        <ele>309</ele>
        <time>2018-06-10T10:08:30Z</time>
      </trkpt>
      <trkpt lat="44.68804" lon="5.05306">
        <ele>310</ele>
        <time>2018-06-10T10:08:32Z</time>
      </trkpt>
      <trkpt lat="44.68804" lon="5.05305">
        <ele>310</ele>
        <time>2018-06-10T10:08:34Z</time>
      </trkpt>
      <trkpt lat="44.68802" lon="5.05303">
        <ele>310</ele>
        <time>2018-06-10T10:08:36Z</time>
      </trkpt>
      <trkpt lat="44.68801" lon="5.053">
        <ele>310</ele>
        <time>2018-06-10T10:08:38Z</time>
      </trkpt>
      <trkpt lat="44.68799" lon="5.05297">
        <ele>310</ele>
        <time>2018-06-10T10:08:40Z</time>
      </trkpt>
      <trkpt lat="44.68799" lon="5.05294">
        <ele>310</ele>
        <time>2018-06-10T10:08:42Z</time>
      </trkpt>
      <trkpt lat="44.68796" lon="5.0529">
        <ele>309</ele>
        <time>2018-06-10T10:08:44Z</time>
      </trkpt>
      <trkpt lat="44.68792" lon="5.05284">
        <ele>309</ele>
        <time>2018-06-10T10:08:46Z</time>
      </trkpt>
      <trkpt lat="44.68788" lon="5.05278">
        <ele>309</ele>
        <time>2018-06-10T10:08:48Z</time>
      </trkpt>
      <trkpt lat="44.68786" lon="5.05274">
        <ele>309</ele>
        <time>2018-06-10T10:08:50Z</time>
      </trkpt>
      <trkpt lat="44.68783" lon="5.05273">
        <ele>309</ele>
        <time>2018-06-10T10:08:52Z</time>
      </trkpt>
      <trkpt lat="44.68782" lon="5.05272">
        <ele>309</ele>
        <time>2018-06-10T10:08:54Z</time>
      </trkpt>
      <trkpt lat="44.6878" lon="5.05271">
        <ele>310</ele>
        <time>2018-06-10T10:08:56Z</time>
      </trkpt>
      <trkpt lat="44.68779" lon="5.05271">
        <ele>310</ele>
        <time>2018-06-10T10:08:58Z</time>
      </trkpt>
      <trkpt lat="44.68777" lon="5.0527">
        <ele>311</ele>
        <time>2018-06-10T10:09:00Z</time>
      </trkpt>
      <trkpt lat="44.68776" lon="5.0527">
        <ele>311</ele>
        <time>2018-06-10T10:09:02Z</time>
      </trkpt>
      <trkpt lat="44.68775" lon="5.0527">
        <ele>311</ele>
        <time>2018-06-10T10:09:04Z</time>
      </trkpt>
      <trkpt lat="44.68773" lon="5.05268">
        <ele>312</ele>
        <time>2018-06-10T10:09:06Z</time>
      </trkpt>
      <trkpt lat="44.68771" lon="5.05267">
        <ele>312</ele>
        <time>2018-06-10T10:09:08Z</time>
      </trkpt>
      <trkpt lat="44.6877" lon="5.05267">
        <ele>312</ele>
        <time>2018-06-10T10:09:10Z</time>
      </trkpt>
      <trkpt lat="44.68767" lon="5.05264">
        <ele>312</ele>
        <time>2018-06-10T10:09:12Z</time>
      </trkpt>
      <trkpt lat="44.68764" lon="5.05261">
        <ele>312</ele>
        <time>2018-06-10T10:09:14Z</time>
      </trkpt>
      <trkpt lat="44.68763" lon="5.05259">
        <ele>312</ele>
        <time>2018-06-10T10:09:16Z</time>
      </trkpt>
      <trkpt lat="44.68761" lon="5.05258">
        <ele>312</ele>
        <time>2018-06-10T10:09:19Z</time>
      </trkpt>
      <trkpt lat="44.68759" lon="5.05256">
        <ele>313</ele>
        <time>2018-06-10T10:09:21Z</time>
      </trkpt>
      <trkpt lat="44.68757" lon="5.05253">
        <ele>312</ele>
        <time>2018-06-10T10:09:23Z</time>
      </trkpt>
      <trkpt lat="44.68755" lon="5.05252">
        <ele>312</ele>
        <time>2018-06-10T10:09:25Z</time>
      </trkpt>
      <trkpt lat="44.68754" lon="5.0525">
        <ele>312</ele>
        <time>2018-06-10T10:09:27Z</time>
      </trkpt>
      <trkpt lat="44.68752" lon="5.05245">
        <ele>312</ele>
        <time>2018-06-10T10:09:29Z</time>
      </trkpt>
      <trkpt lat="44.68749" lon="5.05242">
        <ele>312</ele>
        <time>2018-06-10T10:09:31Z</time>
      </trkpt>
      <trkpt lat="44.68748" lon="5.05239">
        <ele>312</ele>
        <time>2018-06-10T10:09:33Z</time>
      </trkpt>
      <trkpt lat="44.68746" lon="5.05236">
        <ele>312</ele>
        <time>2018-06-10T10:09:35Z</time>
      </trkpt>
      <trkpt lat="44.68745" lon="5.05233">
        <ele>312</ele>
        <time>2018-06-10T10:09:37Z</time>
      </trkpt>
      <trkpt lat="44.68745" lon="5.05228">
        <ele>312</ele>
        <time>2018-06-10T10:09:39Z</time>
      </trkpt>
      <trkpt lat="44.68742" lon="5.05221">
        <ele>312</ele>
        <time>2018-06-10T10:09:41Z</time>
      </trkpt>
      <trkpt lat="44.68739" lon="5.05216">
        <ele>311</ele>
        <time>2018-06-10T10:09:43Z</time>
      </trkpt>
      <trkpt lat="44.68738" lon="5.05214">
        <ele>311</ele>
        <time>2018-06-10T10:09:45Z</time>
      </trkpt>
      <trkpt lat="44.68736" lon="5.05211">
        <ele>310</ele>
        <time>2018-06-10T10:09:47Z</time>
      </trkpt>
      <trkpt lat="44.68735" lon="5.05209">
        <ele>310</ele>
        <time>2018-06-10T10:09:49Z</time>
      </trkpt>
      <trkpt lat="44.68735" lon="5.05207">
        <ele>310</ele>
        <time>2018-06-10T10:09:51Z</time>
      </trkpt>
      <trkpt lat="44.68735" lon="5.05205">
        <ele>311</ele>
        <time>2018-06-10T10:09:53Z</time>
      </trkpt>
      <trkpt lat="44.68736" lon="5.05203">
        <ele>311</ele>
        <time>2018-06-10T10:09:55Z</time>
      </trkpt>
      <trkpt lat="44.68736" lon="5.05201">
        <ele>311</ele>
        <time>2018-06-10T10:09:57Z</time>
      </trkpt>
      <trkpt lat="44.68735" lon="5.05198">
        <ele>311</ele>
        <time>2018-06-10T10:09:59Z</time>
      </trkpt>
      <trkpt lat="44.68734" lon="5.05196">
        <ele>312</ele>
        <time>2018-06-10T10:10:01Z</time>
      </trkpt>
      <trkpt lat="44.68734" lon="5.05194">
        <ele>312</ele>
        <time>2018-06-10T10:10:03Z</time>
      </trkpt>
      <trkpt lat="44.68734" lon="5.05192">
        <ele>312</ele>
        <time>2018-06-10T10:10:05Z</time>
      </trkpt>
      <trkpt lat="44.68733" lon="5.0519">
        <ele>312</ele>
        <time>2018-06-10T10:10:07Z</time>
      </trkpt>
      <trkpt lat="44.68732" lon="5.05188">
        <ele>312</ele>
        <time>2018-06-10T10:10:09Z</time>
      </trkpt>
      <trkpt lat="44.68732" lon="5.05187">
        <ele>312</ele>
        <time>2018-06-10T10:10:11Z</time>
      </trkpt>
      <trkpt lat="44.68732" lon="5.05185">
        <ele>312</ele>
        <time>2018-06-10T10:10:13Z</time>
      </trkpt>
      <trkpt lat="44.68734" lon="5.05182">
        <ele>312</ele>
        <time>2018-06-10T10:10:15Z</time>
      </trkpt>
      <trkpt lat="44.68736" lon="5.05175">
        <ele>310</ele>
        <time>2018-06-10T10:10:17Z</time>
      </trkpt>
      <trkpt lat="44.68735" lon="5.05171">
        <ele>311</ele>
        <time>2018-06-10T10:10:19Z</time>
      </trkpt>
      <trkpt lat="44.68734" lon="5.05167">
        <ele>310</ele>
        <time>2018-06-10T10:10:21Z</time>
      </trkpt>
      <trkpt lat="44.68731" lon="5.05162">
        <ele>310</ele>
        <time>2018-06-10T10:10:24Z</time>
      </trkpt>
      <trkpt lat="44.68729" lon="5.05157">
        <ele>310</ele>
        <time>2018-06-10T10:10:26Z</time>
      </trkpt>
      <trkpt lat="44.68729" lon="5.05155">
        <ele>310</ele>
        <time>2018-06-10T10:10:28Z</time>
      </trkpt>
      <trkpt lat="44.68729" lon="5.05154">
        <ele>310</ele>
        <time>2018-06-10T10:10:30Z</time>
      </trkpt>
      <trkpt lat="44.68729" lon="5.05153">
        <ele>311</ele>
        <time>2018-06-10T10:10:32Z</time>
      </trkpt>
      <trkpt lat="44.68729" lon="5.05151">
        <ele>311</ele>
        <time>2018-06-10T10:10:34Z</time>
      </trkpt>
      <trkpt lat="44.68729" lon="5.05149">
        <ele>311</ele>
        <time>2018-06-10T10:10:36Z</time>
      </trkpt>
      <trkpt lat="44.68729" lon="5.05146">
        <ele>311</ele>
        <time>2018-06-10T10:10:38Z</time>
      </trkpt>
      <trkpt lat="44.68727" lon="5.0514">
        <ele>311</ele>
        <time>2018-06-10T10:10:40Z</time>
      </trkpt>
      <trkpt lat="44.68726" lon="5.05136">
        <ele>311</ele>
        <time>2018-06-10T10:10:42Z</time>
      </trkpt>
      <trkpt lat="44.68723" lon="5.05134">
        <ele>311</ele>
        <time>2018-06-10T10:10:44Z</time>
      </trkpt>
      <trkpt lat="44.68722" lon="5.0513">
        <ele>311</ele>
        <time>2018-06-10T10:10:46Z</time>
      </trkpt>
      <trkpt lat="44.6872" lon="5.05125">
        <ele>311</ele>
        <time>2018-06-10T10:10:48Z</time>
      </trkpt>
      <trkpt lat="44.68718" lon="5.05119">
        <ele>311</ele>
        <time>2018-06-10T10:10:50Z</time>
      </trkpt>
      <trkpt lat="44.68717" lon="5.05115">
        <ele>310</ele>
        <time>2018-06-10T10:10:52Z</time>
      </trkpt>
      <trkpt lat="44.68718" lon="5.05112">
        <ele>311</ele>
        <time>2018-06-10T10:10:54Z</time>
      </trkpt>
      <trkpt lat="44.68716" lon="5.05109">
        <ele>311</ele>
        <time>2018-06-10T10:10:56Z</time>
      </trkpt>
      <trkpt lat="44.68715" lon="5.05105">
        <ele>311</ele>
        <time>2018-06-10T10:10:58Z</time>
      </trkpt>
      <trkpt lat="44.68714" lon="5.05101">
        <ele>311</ele>
        <time>2018-06-10T10:11:00Z</time>
      </trkpt>
      <trkpt lat="44.68713" lon="5.05097">
        <ele>312</ele>
        <time>2018-06-10T10:11:02Z</time>
      </trkpt>
      <trkpt lat="44.68712" lon="5.05094">
        <ele>312</ele>
        <time>2018-06-10T10:11:04Z</time>
      </trkpt>
      <trkpt lat="44.68711" lon="5.05089">
        <ele>312</ele>
        <time>2018-06-10T10:11:06Z</time>
      </trkpt>
      <trkpt lat="44.68709" lon="5.05085">
        <ele>313</ele>
        <time>2018-06-10T10:11:08Z</time>
      </trkpt>
      <trkpt lat="44.68708" lon="5.05082">
        <ele>313</ele>
        <time>2018-06-10T10:11:10Z</time>
      </trkpt>
      <trkpt lat="44.68706" lon="5.05076">
        <ele>313</ele>
        <time>2018-06-10T10:11:12Z</time>
      </trkpt>
      <trkpt lat="44.68705" lon="5.05071">
        <ele>313</ele>
        <time>2018-06-10T10:11:14Z</time>
      </trkpt>
      <trkpt lat="44.68705" lon="5.05066">
        <ele>312</ele>
        <time>2018-06-10T10:11:16Z</time>
      </trkpt>
      <trkpt lat="44.68704" lon="5.05063">
        <ele>312</ele>
        <time>2018-06-10T10:11:18Z</time>
      </trkpt>
      <trkpt lat="44.68703" lon="5.05057">
        <ele>311</ele>
        <time>2018-06-10T10:11:20Z</time>
      </trkpt>
      <trkpt lat="44.68702" lon="5.05048">
        <ele>310</ele>
        <time>2018-06-10T10:11:22Z</time>
      </trkpt>
      <trkpt lat="44.68702" lon="5.05043">
        <ele>310</ele>
        <time>2018-06-10T10:11:24Z</time>
      </trkpt>
      <trkpt lat="44.68703" lon="5.05038">
        <ele>308</ele>
        <time>2018-06-10T10:11:26Z</time>
      </trkpt>
      <trkpt lat="44.68701" lon="5.05035">
        <ele>307</ele>
        <time>2018-06-10T10:11:29Z</time>
      </trkpt>
      <trkpt lat="44.687" lon="5.05034">
        <ele>308</ele>
        <time>2018-06-10T10:11:31Z</time>
      </trkpt>
      <trkpt lat="44.68699" lon="5.05033">
        <ele>308</ele>
        <time>2018-06-10T10:11:33Z</time>
      </trkpt>
      <trkpt lat="44.68698" lon="5.05031">
        <ele>309</ele>
        <time>2018-06-10T10:11:35Z</time>
      </trkpt>
      <trkpt lat="44.68697" lon="5.05028">
        <ele>309</ele>
        <time>2018-06-10T10:11:37Z</time>
      </trkpt>
      <trkpt lat="44.68696" lon="5.05025">
        <ele>309</ele>
        <time>2018-06-10T10:11:39Z</time>
      </trkpt>
      <trkpt lat="44.68694" lon="5.05023">
        <ele>309</ele>
        <time>2018-06-10T10:11:41Z</time>
      </trkpt>
      <trkpt lat="44.68692" lon="5.05019">
        <ele>310</ele>
        <time>2018-06-10T10:11:43Z</time>
      </trkpt>
      <trkpt lat="44.6869" lon="5.05017">
        <ele>310</ele>
        <time>2018-06-10T10:11:45Z</time>
      </trkpt>
      <trkpt lat="44.68688" lon="5.05015">
        <ele>310</ele>
        <time>2018-06-10T10:11:47Z</time>
      </trkpt>
      <trkpt lat="44.68687" lon="5.05014">
        <ele>310</ele>
        <time>2018-06-10T10:11:49Z</time>
      </trkpt>
      <trkpt lat="44.68686" lon="5.05014">
        <ele>310</ele>
        <time>2018-06-10T10:11:51Z</time>
      </trkpt>
      <trkpt lat="44.68685" lon="5.05013">
        <ele>311</ele>
        <time>2018-06-10T10:11:53Z</time>
      </trkpt>
      <trkpt lat="44.68684" lon="5.05013">
        <ele>311</ele>
        <time>2018-06-10T10:11:55Z</time>
      </trkpt>
      <trkpt lat="44.68683" lon="5.05013">
        <ele>311</ele>
        <time>2018-06-10T10:11:57Z</time>
      </trkpt>
      <trkpt lat="44.68681" lon="5.05013">
        <ele>311</ele>
        <time>2018-06-10T10:11:59Z</time>
      </trkpt>
      <trkpt lat="44.6868" lon="5.05013">
        <ele>312</ele>
        <time>2018-06-10T10:12:01Z</time>
      </trkpt>
      <trkpt lat="44.68678" lon="5.0501">
        <ele>312</ele>
        <time>2018-06-10T10:12:03Z</time>
      </trkpt>
      <trkpt lat="44.68678" lon="5.05008">
        <ele>312</ele>
        <time>2018-06-10T10:12:05Z</time>
      </trkpt>
      <trkpt lat="44.68678" lon="5.05007">
        <ele>312</ele>
        <time>2018-06-10T10:12:07Z</time>
      </trkpt>
      <trkpt lat="44.68678" lon="5.05003">
        <ele>311</ele>
        <time>2018-06-10T10:12:09Z</time>
      </trkpt>
      <trkpt lat="44.68676" lon="5.04995">
        <ele>311</ele>
        <time>2018-06-10T10:12:12Z</time>
      </trkpt>
      <trkpt lat="44.68675" lon="5.04989">
        <ele>310</ele>
        <time>2018-06-10T10:12:14Z</time>
      </trkpt>
      <trkpt lat="44.68673" lon="5.0498">
        <ele>309</ele>
        <time>2018-06-10T10:12:16Z</time>
      </trkpt>
      <trkpt lat="44.68667" lon="5.04974">
        <ele>309</ele>
        <time>2018-06-10T10:12:18Z</time>
      </trkpt>
      <trkpt lat="44.68662" lon="5.0497">
        <ele>309</ele>
        <time>2018-06-10T10:12:20Z</time>
      </trkpt>
      <trkpt lat="44.68659" lon="5.04967">
        <ele>309</ele>
        <time>2018-06-10T10:12:22Z</time>
      </trkpt>
      <trkpt lat="44.68657" lon="5.04959">
        <ele>308</ele>
        <time>2018-06-10T10:12:24Z</time>
      </trkpt>
      <trkpt lat="44.68655" lon="5.04951">
        <ele>308</ele>
        <time>2018-06-10T10:12:26Z</time>
      </trkpt>
      <trkpt lat="44.68652" lon="5.04944">
        <ele>308</ele>
        <time>2018-06-10T10:12:28Z</time>
      </trkpt>
      <trkpt lat="44.68648" lon="5.04942">
        <ele>307</ele>
        <time>2018-06-10T10:12:30Z</time>
      </trkpt>
      <trkpt lat="44.68642" lon="5.04937">
        <ele>307</ele>
        <time>2018-06-10T10:12:32Z</time>
      </trkpt>
      <trkpt lat="44.68637" lon="5.04928">
        <ele>307</ele>
        <time>2018-06-10T10:12:34Z</time>
      </trkpt>
      <trkpt lat="44.68631" lon="5.04921">
        <ele>304</ele>
        <time>2018-06-10T10:12:36Z</time>
      </trkpt>
      <trkpt lat="44.68623" lon="5.04917">
        <ele>304</ele>
        <time>2018-06-10T10:12:38Z</time>
      </trkpt>
      <trkpt lat="44.68613" lon="5.04917">
        <ele>302</ele>
        <time>2018-06-10T10:12:40Z</time>
      </trkpt>
      <trkpt lat="44.68605" lon="5.04915">
        <ele>302</ele>
        <time>2018-06-10T10:12:42Z</time>
      </trkpt>
      <trkpt lat="44.68601" lon="5.0491">
        <ele>302</ele>
        <time>2018-06-10T10:12:44Z</time>
      </trkpt>
      <trkpt lat="44.68598" lon="5.04908">
        <ele>303</ele>
        <time>2018-06-10T10:12:46Z</time>
      </trkpt>
      <trkpt lat="44.68595" lon="5.04906">
        <ele>303</ele>
        <time>2018-06-10T10:12:48Z</time>
      </trkpt>
      <trkpt lat="44.68592" lon="5.04904">
        <ele>304</ele>
        <time>2018-06-10T10:12:50Z</time>
      </trkpt>
      <trkpt lat="44.6859" lon="5.049">
        <ele>303</ele>
        <time>2018-06-10T10:12:52Z</time>
      </trkpt>
      <trkpt lat="44.68588" lon="5.04897">
        <ele>301</ele>
        <time>2018-06-10T10:12:54Z</time>
      </trkpt>
      <trkpt lat="44.68585" lon="5.04894">
        <ele>300</ele>
        <time>2018-06-10T10:12:56Z</time>
      </trkpt>
      <trkpt lat="44.68584" lon="5.0489">
        <ele>300</ele>
        <time>2018-06-10T10:12:58Z</time>
      </trkpt>
      <trkpt lat="44.68583" lon="5.04886">
        <ele>300</ele>
        <time>2018-06-10T10:13:00Z</time>
      </trkpt>
      <trkpt lat="44.68583" lon="5.04884">
        <ele>300</ele>
        <time>2018-06-10T10:13:02Z</time>
      </trkpt>
      <trkpt lat="44.68582" lon="5.04882">
        <ele>300</ele>
        <time>2018-06-10T10:13:04Z</time>
      </trkpt>
      <trkpt lat="44.68581" lon="5.0488">
        <ele>299</ele>
        <time>2018-06-10T10:13:06Z</time>
      </trkpt>
      <trkpt lat="44.6858" lon="5.04878">
        <ele>299</ele>
        <time>2018-06-10T10:13:08Z</time>
      </trkpt>
      <trkpt lat="44.6858" lon="5.04876">
        <ele>299</ele>
        <time>2018-06-10T10:13:10Z</time>
      </trkpt>
      <trkpt lat="44.68583" lon="5.04875">
        <ele>298</ele>
        <time>2018-06-10T10:13:12Z</time>
      </trkpt>
      <trkpt lat="44.68585" lon="5.04874">
        <ele>298</ele>
        <time>2018-06-10T10:13:14Z</time>
      </trkpt>
      <trkpt lat="44.68588" lon="5.04875">
        <ele>298</ele>
        <time>2018-06-10T10:13:16Z</time>
      </trkpt>
      <trkpt lat="44.68589" lon="5.04876">
        <ele>298</ele>
        <time>2018-06-10T10:13:18Z</time>
      </trkpt>
      <trkpt lat="44.68592" lon="5.04876">
        <ele>297</ele>
        <time>2018-06-10T10:13:21Z</time>
      </trkpt>
      <trkpt lat="44.68597" lon="5.04872">
        <ele>298</ele>
        <time>2018-06-10T10:13:23Z</time>
      </trkpt>
      <trkpt lat="44.68602" lon="5.04871">
        <ele>297</ele>
        <time>2018-06-10T10:13:25Z</time>
      </trkpt>
      <trkpt lat="44.68609" lon="5.04872">
        <ele>297</ele>
        <time>2018-06-10T10:13:27Z</time>
      </trkpt>
      <trkpt lat="44.68618" lon="5.04871">
        <ele>296</ele>
        <time>2018-06-10T10:13:29Z</time>
      </trkpt>
      <trkpt lat="44.68629" lon="5.0487">
        <ele>296</ele>
        <time>2018-06-10T10:13:31Z</time>
      </trkpt>
      <trkpt lat="44.68642" lon="5.04868">
        <ele>294</ele>
        <time>2018-06-10T10:13:33Z</time>
      </trkpt>
      <trkpt lat="44.68657" lon="5.04864">
        <ele>292</ele>
        <time>2018-06-10T10:13:35Z</time>
      </trkpt>
      <trkpt lat="44.68674" lon="5.04857">
        <ele>292</ele>
        <time>2018-06-10T10:13:37Z</time>
      </trkpt>
      <trkpt lat="44.68691" lon="5.04851">
        <ele>290</ele>
        <time>2018-06-10T10:13:39Z</time>
      </trkpt>
      <trkpt lat="44.68716" lon="5.04846">
        <ele>288</ele>
        <time>2018-06-10T10:13:41Z</time>
      </trkpt>
      <trkpt lat="44.68733" lon="5.04846">
        <ele>286</ele>
        <time>2018-06-10T10:13:43Z</time>
      </trkpt>
      <trkpt lat="44.68752" lon="5.0485">
        <ele>285</ele>
        <time>2018-06-10T10:13:45Z</time>
      </trkpt>
      <trkpt lat="44.68772" lon="5.04856">
        <ele>281</ele>
        <time>2018-06-10T10:13:47Z</time>
      </trkpt>
      <trkpt lat="44.68794" lon="5.0486">
        <ele>279</ele>
        <time>2018-06-10T10:13:49Z</time>
      </trkpt>
      <trkpt lat="44.68816" lon="5.04859">
        <ele>279</ele>
        <time>2018-06-10T10:13:51Z</time>
      </trkpt>
      <trkpt lat="44.68838" lon="5.04861">
        <ele>278</ele>
        <time>2018-06-10T10:13:53Z</time>
      </trkpt>
      <trkpt lat="44.68857" lon="5.04872">
        <ele>278</ele>
        <time>2018-06-10T10:13:55Z</time>
      </trkpt>
      <trkpt lat="44.68874" lon="5.04881">
        <ele>278</ele>
        <time>2018-06-10T10:13:57Z</time>
      </trkpt>
      <trkpt lat="44.68889" lon="5.04888">
        <ele>279</ele>
        <time>2018-06-10T10:13:59Z</time>
      </trkpt>
      <trkpt lat="44.68901" lon="5.04893">
        <ele>279</ele>
        <time>2018-06-10T10:14:01Z</time>
      </trkpt>
      <trkpt lat="44.68912" lon="5.04898">
        <ele>279</ele>
        <time>2018-06-10T10:14:03Z</time>
      </trkpt>
      <trkpt lat="44.68921" lon="5.04907">
        <ele>279</ele>
        <time>2018-06-10T10:14:05Z</time>
      </trkpt>
      <trkpt lat="44.68929" lon="5.04918">
        <ele>279</ele>
        <time>2018-06-10T10:14:07Z</time>
      </trkpt>
      <trkpt lat="44.68936" lon="5.0493">
        <ele>279</ele>
        <time>2018-06-10T10:14:09Z</time>
      </trkpt>
      <trkpt lat="44.68943" lon="5.04941">
        <ele>279</ele>
        <time>2018-06-10T10:14:11Z</time>
      </trkpt>
      <trkpt lat="44.68952" lon="5.0495">
        <ele>279</ele>
        <time>2018-06-10T10:14:13Z</time>
      </trkpt>
      <trkpt lat="44.68962" lon="5.04957">
        <ele>278</ele>
        <time>2018-06-10T10:14:15Z</time>
      </trkpt>
      <trkpt lat="44.68972" lon="5.04963">
        <ele>278</ele>
        <time>2018-06-10T10:14:17Z</time>
      </trkpt>
      <trkpt lat="44.68981" lon="5.0497">
        <ele>278</ele>
        <time>2018-06-10T10:14:19Z</time>
      </trkpt>
      <trkpt lat="44.68988" lon="5.04978">
        <ele>278</ele>
        <time>2018-06-10T10:14:22Z</time>
      </trkpt>
      <trkpt lat="44.68993" lon="5.04987">
        <ele>278</ele>
        <time>2018-06-10T10:14:24Z</time>
      </trkpt>
      <trkpt lat="44.68999" lon="5.04988">
        <ele>279</ele>
        <time>2018-06-10T10:14:26Z</time>
      </trkpt>
      <trkpt lat="44.69004" lon="5.04986">
        <ele>279</ele>
        <time>2018-06-10T10:14:28Z</time>
      </trkpt>
      <trkpt lat="44.69007" lon="5.04985">
        <ele>280</ele>
        <time>2018-06-10T10:14:30Z</time>
      </trkpt>
      <trkpt lat="44.6901" lon="5.04984">
        <ele>280</ele>
        <time>2018-06-10T10:14:32Z</time>
      </trkpt>
      <trkpt lat="44.69012" lon="5.04982">
        <ele>281</ele>
        <time>2018-06-10T10:14:34Z</time>
      </trkpt>
      <trkpt lat="44.69014" lon="5.04982">
        <ele>281</ele>
        <time>2018-06-10T10:14:36Z</time>
      </trkpt>
      <trkpt lat="44.69016" lon="5.0498">
        <ele>282</ele>
        <time>2018-06-10T10:14:38Z</time>
      </trkpt>
      <trkpt lat="44.69019" lon="5.04979">
        <ele>282</ele>
        <time>2018-06-10T10:14:40Z</time>
      </trkpt>
      <trkpt lat="44.69022" lon="5.04978">
        <ele>282</ele>
        <time>2018-06-10T10:14:42Z</time>
      </trkpt>
      <trkpt lat="44.69026" lon="5.04976">
        <ele>283</ele>
        <time>2018-06-10T10:14:44Z</time>
      </trkpt>
      <trkpt lat="44.69029" lon="5.04975">
        <ele>283</ele>
        <time>2018-06-10T10:14:46Z</time>
      </trkpt>
      <trkpt lat="44.69031" lon="5.04974">
        <ele>283</ele>
        <time>2018-06-10T10:14:48Z</time>
      </trkpt>
      <trkpt lat="44.69034" lon="5.04972">
        <ele>284</ele>
        <time>2018-06-10T10:14:50Z</time>
      </trkpt>
      <trkpt lat="44.69036" lon="5.04971">
        <ele>284</ele>
        <time>2018-06-10T10:14:52Z</time>
      </trkpt>
      <trkpt lat="44.69039" lon="5.0497">
        <ele>285</ele>
        <time>2018-06-10T10:14:54Z</time>
      </trkpt>
      <trkpt lat="44.69041" lon="5.04968">
        <ele>285</ele>
        <time>2018-06-10T10:14:56Z</time>
      </trkpt>
      <trkpt lat="44.69043" lon="5.04966">
        <ele>286</ele>
        <time>2018-06-10T10:14:58Z</time>
      </trkpt>
      <trkpt lat="44.69045" lon="5.04965">
        <ele>286</ele>
        <time>2018-06-10T10:15:00Z</time>
      </trkpt>
      <trkpt lat="44.69048" lon="5.04964">
        <ele>286</ele>
        <time>2018-06-10T10:15:02Z</time>
      </trkpt>
      <trkpt lat="44.6905" lon="5.04963">
        <ele>286</ele>
        <time>2018-06-10T10:15:04Z</time>
      </trkpt>
      <trkpt lat="44.69052" lon="5.04961">
        <ele>287</ele>
        <time>2018-06-10T10:15:06Z</time>
      </trkpt>
      <trkpt lat="44.69053" lon="5.04958">
        <ele>287</ele>
        <time>2018-06-10T10:15:08Z</time>
      </trkpt>
      <trkpt lat="44.69055" lon="5.04956">
        <ele>288</ele>
        <time>2018-06-10T10:15:10Z</time>
      </trkpt>
      <trkpt lat="44.69058" lon="5.04954">
        <ele>288</ele>
        <time>2018-06-10T10:15:12Z</time>
      </trkpt>
      <trkpt lat="44.6906" lon="5.04952">
        <ele>288</ele>
        <time>2018-06-10T10:15:14Z</time>
      </trkpt>
      <trkpt lat="44.69062" lon="5.0495">
        <ele>288</ele>
        <time>2018-06-10T10:15:16Z</time>
      </trkpt>
      <trkpt lat="44.69064" lon="5.04948">
        <ele>289</ele>
        <time>2018-06-10T10:15:18Z</time>
      </trkpt>
      <trkpt lat="44.69066" lon="5.04946">
        <ele>289</ele>
        <time>2018-06-10T10:15:20Z</time>
      </trkpt>
      <trkpt lat="44.69067" lon="5.04944">
        <ele>289</ele>
        <time>2018-06-10T10:15:22Z</time>
      </trkpt>
      <trkpt lat="44.69069" lon="5.04943">
        <ele>289</ele>
        <time>2018-06-10T10:15:24Z</time>
      </trkpt>
      <trkpt lat="44.69071" lon="5.04941">
        <ele>289</ele>
        <time>2018-06-10T10:15:26Z</time>
      </trkpt>
      <trkpt lat="44.69073" lon="5.04939">
        <ele>290</ele>
        <time>2018-06-10T10:15:29Z</time>
      </trkpt>
      <trkpt lat="44.69075" lon="5.04937">
        <ele>290</ele>
        <time>2018-06-10T10:15:31Z</time>
      </trkpt>
      <trkpt lat="44.69079" lon="5.04935">
        <ele>290</ele>
        <time>2018-06-10T10:15:33Z</time>
      </trkpt>
      <trkpt lat="44.69081" lon="5.04933">
        <ele>291</ele>
        <time>2018-06-10T10:15:35Z</time>
      </trkpt>
      <trkpt lat="44.69083" lon="5.04931">
        <ele>290</ele>
        <time>2018-06-10T10:15:37Z</time>
      </trkpt>
      <trkpt lat="44.69085" lon="5.04929">
        <ele>291</ele>
        <time>2018-06-10T10:15:39Z</time>
      </trkpt>
      <trkpt lat="44.69087" lon="5.04928">
        <ele>291</ele>
        <time>2018-06-10T10:15:41Z</time>
      </trkpt>
      <trkpt lat="44.69089" lon="5.04927">
        <ele>292</ele>
        <time>2018-06-10T10:15:43Z</time>
      </trkpt>
      <trkpt lat="44.69092" lon="5.04924">
        <ele>292</ele>
        <time>2018-06-10T10:15:45Z</time>
      </trkpt>
      <trkpt lat="44.69094" lon="5.04922">
        <ele>292</ele>
        <time>2018-06-10T10:15:47Z</time>
      </trkpt>
      <trkpt lat="44.69097" lon="5.0492">
        <ele>292</ele>
        <time>2018-06-10T10:15:49Z</time>
      </trkpt>
      <trkpt lat="44.691" lon="5.04918">
        <ele>293</ele>
        <time>2018-06-10T10:15:51Z</time>
      </trkpt>
      <trkpt lat="44.69103" lon="5.04916">
        <ele>293</ele>
        <time>2018-06-10T10:15:53Z</time>
      </trkpt>
      <trkpt lat="44.69106" lon="5.04916">
        <ele>293</ele>
        <time>2018-06-10T10:15:55Z</time>
      </trkpt>
      <trkpt lat="44.69109" lon="5.04914">
        <ele>293</ele>
        <time>2018-06-10T10:15:57Z</time>
      </trkpt>
      <trkpt lat="44.69112" lon="5.04912">
        <ele>294</ele>
        <time>2018-06-10T10:15:59Z</time>
      </trkpt>
      <trkpt lat="44.69114" lon="5.04909">
        <ele>294</ele>
        <time>2018-06-10T10:16:01Z</time>
      </trkpt>
      <trkpt lat="44.69117" lon="5.04908">
        <ele>294</ele>
        <time>2018-06-10T10:16:04Z</time>
      </trkpt>
      <trkpt lat="44.6912" lon="5.04906">
        <ele>295</ele>
        <time>2018-06-10T10:16:06Z</time>
      </trkpt>
      <trkpt lat="44.69122" lon="5.04904">
        <ele>295</ele>
        <time>2018-06-10T10:16:08Z</time>
      </trkpt>
      <trkpt lat="44.69125" lon="5.04902">
        <ele>295</ele>
        <time>2018-06-10T10:16:10Z</time>
      </trkpt>
      <trkpt lat="44.69127" lon="5.049">
        <ele>296</ele>
        <time>2018-06-10T10:16:12Z</time>
      </trkpt>
      <trkpt lat="44.6913" lon="5.04898">
        <ele>296</ele>
        <time>2018-06-10T10:16:14Z</time>
      </trkpt>
      <trkpt lat="44.69133" lon="5.04895">
        <ele>297</ele>
        <time>2018-06-10T10:16:16Z</time>
      </trkpt>
      <trkpt lat="44.69136" lon="5.04893">
        <ele>297</ele>
        <time>2018-06-10T10:16:18Z</time>
      </trkpt>
      <trkpt lat="44.69138" lon="5.0489">
        <ele>297</ele>
        <time>2018-06-10T10:16:20Z</time>
      </trkpt>
      <trkpt lat="44.69141" lon="5.04888">
        <ele>297</ele>
        <time>2018-06-10T10:16:22Z</time>
      </trkpt>
      <trkpt lat="44.69142" lon="5.04887">
        <ele>297</ele>
        <time>2018-06-10T10:16:24Z</time>
      </trkpt>
      <trkpt lat="44.69144" lon="5.04885">
        <ele>297</ele>
        <time>2018-06-10T10:16:26Z</time>
      </trkpt>
      <trkpt lat="44.69146" lon="5.04883">
        <ele>298</ele>
        <time>2018-06-10T10:16:28Z</time>
      </trkpt>
      <trkpt lat="44.69148" lon="5.04881">
        <ele>298</ele>
        <time>2018-06-10T10:16:30Z</time>
      </trkpt>
      <trkpt lat="44.6915" lon="5.04876">
        <ele>298</ele>
        <time>2018-06-10T10:16:32Z</time>
      </trkpt>
      <trkpt lat="44.69152" lon="5.04873">
        <ele>299</ele>
        <time>2018-06-10T10:16:34Z</time>
      </trkpt>
      <trkpt lat="44.69154" lon="5.0487">
        <ele>299</ele>
        <time>2018-06-10T10:16:36Z</time>
      </trkpt>
      <trkpt lat="44.69156" lon="5.04867">
        <ele>299</ele>
        <time>2018-06-10T10:16:38Z</time>
      </trkpt>
      <trkpt lat="44.69157" lon="5.04864">
        <ele>299</ele>
        <time>2018-06-10T10:16:40Z</time>
      </trkpt>
      <trkpt lat="44.69159" lon="5.04862">
        <ele>300</ele>
        <time>2018-06-10T10:16:42Z</time>
      </trkpt>
      <trkpt lat="44.69161" lon="5.04859">
        <ele>300</ele>
        <time>2018-06-10T10:16:44Z</time>
      </trkpt>
      <trkpt lat="44.69162" lon="5.04857">
        <ele>301</ele>
        <time>2018-06-10T10:16:46Z</time>
      </trkpt>
      <trkpt lat="44.69163" lon="5.04854">
        <ele>301</ele>
        <time>2018-06-10T10:16:48Z</time>
      </trkpt>
      <trkpt lat="44.69165" lon="5.04851">
        <ele>301</ele>
        <time>2018-06-10T10:16:50Z</time>
      </trkpt>
      <trkpt lat="44.69166" lon="5.04847">
        <ele>301</ele>
        <time>2018-06-10T10:16:52Z</time>
      </trkpt>
      <trkpt lat="44.69166" lon="5.04845">
        <ele>301</ele>
        <time>2018-06-10T10:16:54Z</time>
      </trkpt>
      <trkpt lat="44.69167" lon="5.04842">
        <ele>302</ele>
        <time>2018-06-10T10:16:56Z</time>
      </trkpt>
      <trkpt lat="44.69169" lon="5.04839">
        <ele>302</ele>
        <time>2018-06-10T10:16:58Z</time>
      </trkpt>
      <trkpt lat="44.69169" lon="5.04836">
        <ele>302</ele>
        <time>2018-06-10T10:17:00Z</time>
      </trkpt>
      <trkpt lat="44.6917" lon="5.04834">
        <ele>302</ele>
        <time>2018-06-10T10:17:02Z</time>
      </trkpt>
      <trkpt lat="44.6917" lon="5.04831">
        <ele>303</ele>
        <time>2018-06-10T10:17:04Z</time>
      </trkpt>
      <trkpt lat="44.69171" lon="5.04828">
        <ele>303</ele>
        <time>2018-06-10T10:17:06Z</time>
      </trkpt>
      <trkpt lat="44.69172" lon="5.04825">
        <ele>304</ele>
        <time>2018-06-10T10:17:08Z</time>
      </trkpt>
      <trkpt lat="44.69173" lon="5.04823">
        <ele>304</ele>
        <time>2018-06-10T10:17:10Z</time>
      </trkpt>
      <trkpt lat="44.69175" lon="5.0482">
        <ele>304</ele>
        <time>2018-06-10T10:17:12Z</time>
      </trkpt>
      <trkpt lat="44.69176" lon="5.04816">
        <ele>305</ele>
        <time>2018-06-10T10:17:15Z</time>
      </trkpt>
      <trkpt lat="44.69176" lon="5.04814">
        <ele>305</ele>
        <time>2018-06-10T10:17:17Z</time>
      </trkpt>
      <trkpt lat="44.69178" lon="5.04812">
        <ele>305</ele>
        <time>2018-06-10T10:17:19Z</time>
      </trkpt>
      <trkpt lat="44.69179" lon="5.04809">
        <ele>306</ele>
        <time>2018-06-10T10:17:21Z</time>
      </trkpt>
      <trkpt lat="44.6918" lon="5.04806">
        <ele>306</ele>
        <time>2018-06-10T10:17:23Z</time>
      </trkpt>
      <trkpt lat="44.69182" lon="5.04801">
        <ele>306</ele>
        <time>2018-06-10T10:17:25Z</time>
      </trkpt>
      <trkpt lat="44.69183" lon="5.04798">
        <ele>307</ele>
        <time>2018-06-10T10:17:27Z</time>
      </trkpt>
      <trkpt lat="44.69183" lon="5.04795">
        <ele>307</ele>
        <time>2018-06-10T10:17:29Z</time>
      </trkpt>
      <trkpt lat="44.69184" lon="5.04792">
        <ele>308</ele>
        <time>2018-06-10T10:17:31Z</time>
      </trkpt>
      <trkpt lat="44.69185" lon="5.04787">
        <ele>308</ele>
        <time>2018-06-10T10:17:33Z</time>
      </trkpt>
      <trkpt lat="44.69186" lon="5.04784">
        <ele>308</ele>
        <time>2018-06-10T10:17:35Z</time>
      </trkpt>
      <trkpt lat="44.69187" lon="5.04781">
        <ele>309</ele>
        <time>2018-06-10T10:17:37Z</time>
      </trkpt>
      <trkpt lat="44.69187" lon="5.0478">
        <ele>309</ele>
        <time>2018-06-10T10:17:39Z</time>
      </trkpt>
      <trkpt lat="44.69188" lon="5.04777">
        <ele>310</ele>
        <time>2018-06-10T10:17:41Z</time>
      </trkpt>
      <trkpt lat="44.69189" lon="5.04774">
        <ele>310</ele>
        <time>2018-06-10T10:17:43Z</time>
      </trkpt>
      <trkpt lat="44.6919" lon="5.04771">
        <ele>310</ele>
        <time>2018-06-10T10:17:45Z</time>
      </trkpt>
      <trkpt lat="44.69192" lon="5.04766">
        <ele>310</ele>
        <time>2018-06-10T10:17:47Z</time>
      </trkpt>
      <trkpt lat="44.69193" lon="5.04763">
        <ele>311</ele>
        <time>2018-06-10T10:17:49Z</time>
      </trkpt>
      <trkpt lat="44.69194" lon="5.0476">
        <ele>311</ele>
        <time>2018-06-10T10:17:51Z</time>
      </trkpt>
      <trkpt lat="44.69195" lon="5.04757">
        <ele>311</ele>
        <time>2018-06-10T10:17:53Z</time>
      </trkpt>
      <trkpt lat="44.69196" lon="5.04754">
        <ele>312</ele>
        <time>2018-06-10T10:17:55Z</time>
      </trkpt>
      <trkpt lat="44.69197" lon="5.04751">
        <ele>312</ele>
        <time>2018-06-10T10:17:57Z</time>
      </trkpt>
      <trkpt lat="44.69199" lon="5.04749">
        <ele>312</ele>
        <time>2018-06-10T10:17:59Z</time>
      </trkpt>
      <trkpt lat="44.692" lon="5.04745">
        <ele>312</ele>
        <time>2018-06-10T10:18:01Z</time>
      </trkpt>
      <trkpt lat="44.69201" lon="5.04742">
        <ele>313</ele>
        <time>2018-06-10T10:18:03Z</time>
      </trkpt>
      <trkpt lat="44.69202" lon="5.0474">
        <ele>313</ele>
        <time>2018-06-10T10:18:05Z</time>
      </trkpt>
      <trkpt lat="44.69204" lon="5.04737">
        <ele>314</ele>
        <time>2018-06-10T10:18:07Z</time>
      </trkpt>
      <trkpt lat="44.69205" lon="5.04733">
        <ele>314</ele>
        <time>2018-06-10T10:18:09Z</time>
      </trkpt>
      <trkpt lat="44.69205" lon="5.0473">
        <ele>314</ele>
        <time>2018-06-10T10:18:11Z</time>
      </trkpt>
      <trkpt lat="44.69206" lon="5.04726">
        <ele>314</ele>
        <time>2018-06-10T10:18:13Z</time>
      </trkpt>
      <trkpt lat="44.69207" lon="5.04723">
        <ele>314</ele>
        <time>2018-06-10T10:18:15Z</time>
      </trkpt>
      <trkpt lat="44.69208" lon="5.0472">
        <ele>315</ele>
        <time>2018-06-10T10:18:17Z</time>
      </trkpt>
      <trkpt lat="44.69209" lon="5.04717">
        <ele>315</ele>
        <time>2018-06-10T10:18:19Z</time>
      </trkpt>
      <trkpt lat="44.69209" lon="5.04715">
        <ele>315</ele>
        <time>2018-06-10T10:18:21Z</time>
      </trkpt>
      <trkpt lat="44.6921" lon="5.04712">
        <ele>316</ele>
        <time>2018-06-10T10:18:23Z</time>
      </trkpt>
      <trkpt lat="44.69211" lon="5.04709">
        <ele>316</ele>
        <time>2018-06-10T10:18:25Z</time>
      </trkpt>
      <trkpt lat="44.69212" lon="5.04707">
        <ele>316</ele>
        <time>2018-06-10T10:18:27Z</time>
      </trkpt>
      <trkpt lat="44.69213" lon="5.04703">
        <ele>317</ele>
        <time>2018-06-10T10:18:29Z</time>
      </trkpt>
      <trkpt lat="44.69213" lon="5.047">
        <ele>317</ele>
        <time>2018-06-10T10:18:31Z</time>
      </trkpt>
      <trkpt lat="44.69214" lon="5.04697">
        <ele>318</ele>
        <time>2018-06-10T10:18:33Z</time>
      </trkpt>
      <trkpt lat="44.69214" lon="5.04694">
        <ele>318</ele>
        <time>2018-06-10T10:18:35Z</time>
      </trkpt>
      <trkpt lat="44.69215" lon="5.04691">
        <ele>318</ele>
        <time>2018-06-10T10:18:37Z</time>
      </trkpt>
      <trkpt lat="44.69215" lon="5.04688">
        <ele>319</ele>
        <time>2018-06-10T10:18:39Z</time>
      </trkpt>
      <trkpt lat="44.69216" lon="5.04684">
        <ele>319</ele>
        <time>2018-06-10T10:18:42Z</time>
      </trkpt>
      <trkpt lat="44.69217" lon="5.04679">
        <ele>319</ele>
        <time>2018-06-10T10:18:44Z</time>
      </trkpt>
      <trkpt lat="44.69217" lon="5.04676">
        <ele>319</ele>
        <time>2018-06-10T10:18:46Z</time>
      </trkpt>
      <trkpt lat="44.69218" lon="5.04672">
        <ele>320</ele>
        <time>2018-06-10T10:18:48Z</time>
      </trkpt>
      <trkpt lat="44.69219" lon="5.04669">
        <ele>320</ele>
        <time>2018-06-10T10:18:50Z</time>
      </trkpt>
      <trkpt lat="44.69219" lon="5.04667">
        <ele>320</ele>
        <time>2018-06-10T10:18:52Z</time>
      </trkpt>
      <trkpt lat="44.69219" lon="5.04664">
        <ele>320</ele>
        <time>2018-06-10T10:18:54Z</time>
      </trkpt>
      <trkpt lat="44.6922" lon="5.04661">
        <ele>321</ele>
        <time>2018-06-10T10:18:56Z</time>
      </trkpt>
      <trkpt lat="44.69221" lon="5.04657">
        <ele>321</ele>
        <time>2018-06-10T10:18:58Z</time>
      </trkpt>
      <trkpt lat="44.69222" lon="5.04653">
        <ele>322</ele>
        <time>2018-06-10T10:19:00Z</time>
      </trkpt>
      <trkpt lat="44.69223" lon="5.04649">
        <ele>322</ele>
        <time>2018-06-10T10:19:02Z</time>
      </trkpt>
      <trkpt lat="44.69223" lon="5.04646">
        <ele>322</ele>
        <time>2018-06-10T10:19:04Z</time>
      </trkpt>
      <trkpt lat="44.69226" lon="5.04643">
        <ele>323</ele>
        <time>2018-06-10T10:19:06Z</time>
      </trkpt>
      <trkpt lat="44.69227" lon="5.04639">
        <ele>323</ele>
        <time>2018-06-10T10:19:08Z</time>
      </trkpt>
      <trkpt lat="44.69227" lon="5.04636">
        <ele>324</ele>
        <time>2018-06-10T10:19:10Z</time>
      </trkpt>
      <trkpt lat="44.69228" lon="5.04633">
        <ele>323</ele>
        <time>2018-06-10T10:19:12Z</time>
      </trkpt>
      <trkpt lat="44.69229" lon="5.04629">
        <ele>324</ele>
        <time>2018-06-10T10:19:14Z</time>
      </trkpt>
      <trkpt lat="44.6923" lon="5.04625">
        <ele>324</ele>
        <time>2018-06-10T10:19:16Z</time>
      </trkpt>
      <trkpt lat="44.69232" lon="5.04621">
        <ele>324</ele>
        <time>2018-06-10T10:19:18Z</time>
      </trkpt>
      <trkpt lat="44.69234" lon="5.04614">
        <ele>324</ele>
        <time>2018-06-10T10:19:20Z</time>
      </trkpt>
      <trkpt lat="44.69234" lon="5.04606">
        <ele>324</ele>
        <time>2018-06-10T10:19:22Z</time>
      </trkpt>
      <trkpt lat="44.69235" lon="5.04596">
        <ele>323</ele>
        <time>2018-06-10T10:19:24Z</time>
      </trkpt>
      <trkpt lat="44.69235" lon="5.04583">
        <ele>323</ele>
        <time>2018-06-10T10:19:26Z</time>
      </trkpt>
      <trkpt lat="44.69234" lon="5.04567">
        <ele>322</ele>
        <time>2018-06-10T10:19:28Z</time>
      </trkpt>
      <trkpt lat="44.69236" lon="5.04552">
        <ele>322</ele>
        <time>2018-06-10T10:19:30Z</time>
      </trkpt>
      <trkpt lat="44.6924" lon="5.04538">
        <ele>323</ele>
        <time>2018-06-10T10:19:32Z</time>
      </trkpt>
      <trkpt lat="44.69247" lon="5.04527">
        <ele>322</ele>
        <time>2018-06-10T10:19:34Z</time>
      </trkpt>
      <trkpt lat="44.69254" lon="5.04516">
        <ele>322</ele>
        <time>2018-06-10T10:19:36Z</time>
      </trkpt>
      <trkpt lat="44.69261" lon="5.04506">
        <ele>323</ele>
        <time>2018-06-10T10:19:38Z</time>
      </trkpt>
      <trkpt lat="44.69268" lon="5.04495">
        <ele>323</ele>
        <time>2018-06-10T10:19:40Z</time>
      </trkpt>
      <trkpt lat="44.69275" lon="5.04484">
        <ele>322</ele>
        <time>2018-06-10T10:19:43Z</time>
      </trkpt>
      <trkpt lat="44.69282" lon="5.04473">
        <ele>323</ele>
        <time>2018-06-10T10:19:45Z</time>
      </trkpt>
      <trkpt lat="44.69289" lon="5.04463">
        <ele>323</ele>
        <time>2018-06-10T10:19:47Z</time>
      </trkpt>
      <trkpt lat="44.69297" lon="5.04446">
        <ele>323</ele>
        <time>2018-06-10T10:19:49Z</time>
      </trkpt>
      <trkpt lat="44.69302" lon="5.04435">
        <ele>323</ele>
        <time>2018-06-10T10:19:51Z</time>
      </trkpt>
      <trkpt lat="44.69309" lon="5.04423">
        <ele>323</ele>
        <time>2018-06-10T10:19:53Z</time>
      </trkpt>
      <trkpt lat="44.69316" lon="5.04412">
        <ele>322</ele>
        <time>2018-06-10T10:19:55Z</time>
      </trkpt>
      <trkpt lat="44.69324" lon="5.04403">
        <ele>322</ele>
        <time>2018-06-10T10:19:57Z</time>
      </trkpt>
      <trkpt lat="44.6933" lon="5.04392">
        <ele>322</ele>
        <time>2018-06-10T10:19:59Z</time>
      </trkpt>
      <trkpt lat="44.69336" lon="5.0438">
        <ele>322</ele>
        <time>2018-06-10T10:20:01Z</time>
      </trkpt>
      <trkpt lat="44.69337" lon="5.04366">
        <ele>322</ele>
        <time>2018-06-10T10:20:03Z</time>
      </trkpt>
      <trkpt lat="44.69337" lon="5.04354">
        <ele>322</ele>
        <time>2018-06-10T10:20:05Z</time>
      </trkpt>
      <trkpt lat="44.69337" lon="5.04348">
        <ele>323</ele>
        <time>2018-06-10T10:20:07Z</time>
      </trkpt>
      <trkpt lat="44.69336" lon="5.04344">
        <ele>323</ele>
        <time>2018-06-10T10:20:09Z</time>
      </trkpt>
      <trkpt lat="44.69335" lon="5.0434">
        <ele>324</ele>
        <time>2018-06-10T10:20:11Z</time>
      </trkpt>
      <trkpt lat="44.69334" lon="5.04336">
        <ele>325</ele>
        <time>2018-06-10T10:20:13Z</time>
      </trkpt>
      <trkpt lat="44.69334" lon="5.04332">
        <ele>324</ele>
        <time>2018-06-10T10:20:15Z</time>
      </trkpt>
      <trkpt lat="44.69333" lon="5.04327">
        <ele>325</ele>
        <time>2018-06-10T10:20:17Z</time>
      </trkpt>
      <trkpt lat="44.69332" lon="5.04324">
        <ele>325</ele>
        <time>2018-06-10T10:20:19Z</time>
      </trkpt>
      <trkpt lat="44.69331" lon="5.0432">
        <ele>325</ele>
        <time>2018-06-10T10:20:21Z</time>
      </trkpt>
      <trkpt lat="44.6933" lon="5.04316">
        <ele>326</ele>
        <time>2018-06-10T10:20:23Z</time>
      </trkpt>
      <trkpt lat="44.69329" lon="5.04312">
        <ele>326</ele>
        <time>2018-06-10T10:20:25Z</time>
      </trkpt>
      <trkpt lat="44.69328" lon="5.04308">
        <ele>327</ele>
        <time>2018-06-10T10:20:27Z</time>
      </trkpt>
      <trkpt lat="44.69327" lon="5.04304">
        <ele>327</ele>
        <time>2018-06-10T10:20:29Z</time>
      </trkpt>
      <trkpt lat="44.69326" lon="5.04301">
        <ele>327</ele>
        <time>2018-06-10T10:20:31Z</time>
      </trkpt>
      <trkpt lat="44.69325" lon="5.04297">
        <ele>327</ele>
        <time>2018-06-10T10:20:33Z</time>
      </trkpt>
      <trkpt lat="44.69324" lon="5.04294">
        <ele>328</ele>
        <time>2018-06-10T10:20:36Z</time>
      </trkpt>
      <trkpt lat="44.69324" lon="5.0429">
        <ele>328</ele>
        <time>2018-06-10T10:20:38Z</time>
      </trkpt>
      <trkpt lat="44.69323" lon="5.04287">
        <ele>329</ele>
        <time>2018-06-10T10:20:40Z</time>
      </trkpt>
      <trkpt lat="44.69322" lon="5.04283">
        <ele>329</ele>
        <time>2018-06-10T10:20:42Z</time>
      </trkpt>
      <trkpt lat="44.69321" lon="5.04279">
        <ele>329</ele>
        <time>2018-06-10T10:20:44Z</time>
      </trkpt>
      <trkpt lat="44.6932" lon="5.04276">
        <ele>329</ele>
        <time>2018-06-10T10:20:46Z</time>
      </trkpt>
      <trkpt lat="44.69318" lon="5.04273">
        <ele>329</ele>
        <time>2018-06-10T10:20:48Z</time>
      </trkpt>
      <trkpt lat="44.69318" lon="5.0427">
        <ele>329</ele>
        <time>2018-06-10T10:20:50Z</time>
      </trkpt>
      <trkpt lat="44.69318" lon="5.04266">
        <ele>330</ele>
        <time>2018-06-10T10:20:52Z</time>
      </trkpt>
      <trkpt lat="44.69317" lon="5.0426">
        <ele>330</ele>
        <time>2018-06-10T10:20:54Z</time>
      </trkpt>
      <trkpt lat="44.69318" lon="5.04256">
        <ele>330</ele>
        <time>2018-06-10T10:20:56Z</time>
      </trkpt>
      <trkpt lat="44.69318" lon="5.04253">
        <ele>330</ele>
        <time>2018-06-10T10:20:58Z</time>
      </trkpt>
      <trkpt lat="44.69321" lon="5.04252">
        <ele>330</ele>
        <time>2018-06-10T10:21:00Z</time>
      </trkpt>
      <trkpt lat="44.69325" lon="5.0425">
        <ele>330</ele>
        <time>2018-06-10T10:21:02Z</time>
      </trkpt>
      <trkpt lat="44.69328" lon="5.0425">
        <ele>330</ele>
        <time>2018-06-10T10:21:04Z</time>
      </trkpt>
      <trkpt lat="44.69331" lon="5.04249">
        <ele>331</ele>
        <time>2018-06-10T10:21:06Z</time>
      </trkpt>
      <trkpt lat="44.69333" lon="5.04249">
        <ele>331</ele>
        <time>2018-06-10T10:21:08Z</time>
      </trkpt>
      <trkpt lat="44.69336" lon="5.04248">
        <ele>331</ele>
        <time>2018-06-10T10:21:10Z</time>
      </trkpt>
      <trkpt lat="44.69338" lon="5.04247">
        <ele>331</ele>
        <time>2018-06-10T10:21:12Z</time>
      </trkpt>
      <trkpt lat="44.6934" lon="5.04245">
        <ele>331</ele>
        <time>2018-06-10T10:21:14Z</time>
      </trkpt>
      <trkpt lat="44.69342" lon="5.04244">
        <ele>332</ele>
        <time>2018-06-10T10:21:16Z</time>
      </trkpt>
      <trkpt lat="44.69345" lon="5.04242">
        <ele>332</ele>
        <time>2018-06-10T10:21:18Z</time>
      </trkpt>
      <trkpt lat="44.69347" lon="5.04239">
        <ele>332</ele>
        <time>2018-06-10T10:21:20Z</time>
      </trkpt>
      <trkpt lat="44.69349" lon="5.04236">
        <ele>332</ele>
        <time>2018-06-10T10:21:22Z</time>
      </trkpt>
      <trkpt lat="44.6935" lon="5.04233">
        <ele>333</ele>
        <time>2018-06-10T10:21:24Z</time>
      </trkpt>
      <trkpt lat="44.6935" lon="5.04229">
        <ele>333</ele>
        <time>2018-06-10T10:21:26Z</time>
      </trkpt>
      <trkpt lat="44.69351" lon="5.04226">
        <ele>333</ele>
        <time>2018-06-10T10:21:28Z</time>
      </trkpt>
      <trkpt lat="44.69352" lon="5.04222">
        <ele>333</ele>
        <time>2018-06-10T10:21:30Z</time>
      </trkpt>
      <trkpt lat="44.69352" lon="5.04218">
        <ele>334</ele>
        <time>2018-06-10T10:21:32Z</time>
      </trkpt>
      <trkpt lat="44.69353" lon="5.04215">
        <ele>335</ele>
        <time>2018-06-10T10:21:34Z</time>
      </trkpt>
      <trkpt lat="44.69354" lon="5.04211">
        <ele>335</ele>
        <time>2018-06-10T10:21:36Z</time>
      </trkpt>
      <trkpt lat="44.69355" lon="5.04208">
        <ele>335</ele>
        <time>2018-06-10T10:21:38Z</time>
      </trkpt>
      <trkpt lat="44.69355" lon="5.04205">
        <ele>335</ele>
        <time>2018-06-10T10:21:40Z</time>
      </trkpt>
      <trkpt lat="44.69356" lon="5.04202">
        <ele>336</ele>
        <time>2018-06-10T10:21:42Z</time>
      </trkpt>
      <trkpt lat="44.69357" lon="5.04199">
        <ele>336</ele>
        <time>2018-06-10T10:21:44Z</time>
      </trkpt>
      <trkpt lat="44.69357" lon="5.04198">
        <ele>336</ele>
        <time>2018-06-10T10:21:47Z</time>
      </trkpt>
      <trkpt lat="44.69358" lon="5.04196">
        <ele>336</ele>
        <time>2018-06-10T10:21:49Z</time>
      </trkpt>
      <trkpt lat="44.69359" lon="5.04194">
        <ele>336</ele>
        <time>2018-06-10T10:21:51Z</time>
      </trkpt>
      <trkpt lat="44.6936" lon="5.04192">
        <ele>336</ele>
        <time>2018-06-10T10:21:53Z</time>
      </trkpt>
      <trkpt lat="44.6936" lon="5.0419">
        <ele>337</ele>
        <time>2018-06-10T10:21:55Z</time>
      </trkpt>
      <trkpt lat="44.69361" lon="5.04187">
        <ele>337</ele>
        <time>2018-06-10T10:21:57Z</time>
      </trkpt>
      <trkpt lat="44.69362" lon="5.04184">
        <ele>337</ele>
        <time>2018-06-10T10:21:59Z</time>
      </trkpt>
      <trkpt lat="44.69363" lon="5.04183">
        <ele>338</ele>
        <time>2018-06-10T10:22:01Z</time>
      </trkpt>
      <trkpt lat="44.69363" lon="5.04181">
        <ele>338</ele>
        <time>2018-06-10T10:22:03Z</time>
      </trkpt>
      <trkpt lat="44.69364" lon="5.04178">
        <ele>338</ele>
        <time>2018-06-10T10:22:05Z</time>
      </trkpt>
      <trkpt lat="44.69365" lon="5.04176">
        <ele>338</ele>
        <time>2018-06-10T10:22:07Z</time>
      </trkpt>
      <trkpt lat="44.69365" lon="5.04174">
        <ele>339</ele>
        <time>2018-06-10T10:22:09Z</time>
      </trkpt>
      <trkpt lat="44.69366" lon="5.04172">
        <ele>339</ele>
        <time>2018-06-10T10:22:11Z</time>
      </trkpt>
      <trkpt lat="44.69367" lon="5.0417">
        <ele>339</ele>
        <time>2018-06-10T10:22:13Z</time>
      </trkpt>
      <trkpt lat="44.69368" lon="5.04168">
        <ele>339</ele>
        <time>2018-06-10T10:22:15Z</time>
      </trkpt>
      <trkpt lat="44.69369" lon="5.04166">
        <ele>339</ele>
        <time>2018-06-10T10:22:17Z</time>
      </trkpt>
      <trkpt lat="44.69369" lon="5.04164">
        <ele>339</ele>
        <time>2018-06-10T10:22:19Z</time>
      </trkpt>
      <trkpt lat="44.69369" lon="5.04162">
        <ele>340</ele>
        <time>2018-06-10T10:22:21Z</time>
      </trkpt>
      <trkpt lat="44.69371" lon="5.04161">
        <ele>340</ele>
        <time>2018-06-10T10:22:23Z</time>
      </trkpt>
      <trkpt lat="44.69372" lon="5.04159">
        <ele>341</ele>
        <time>2018-06-10T10:22:25Z</time>
      </trkpt>
      <trkpt lat="44.69373" lon="5.04157">
        <ele>341</ele>
        <time>2018-06-10T10:22:27Z</time>
      </trkpt>
      <trkpt lat="44.69374" lon="5.04155">
        <ele>342</ele>
        <time>2018-06-10T10:22:30Z</time>
      </trkpt>
      <trkpt lat="44.69374" lon="5.04153">
        <ele>342</ele>
        <time>2018-06-10T10:22:32Z</time>
      </trkpt>
      <trkpt lat="44.69375" lon="5.04151">
        <ele>343</ele>
        <time>2018-06-10T10:22:34Z</time>
      </trkpt>
      <trkpt lat="44.69376" lon="5.04149">
        <ele>343</ele>
        <time>2018-06-10T10:22:36Z</time>
      </trkpt>
      <trkpt lat="44.69377" lon="5.04147">
        <ele>344</ele>
        <time>2018-06-10T10:22:38Z</time>
      </trkpt>
      <trkpt lat="44.69378" lon="5.04145">
        <ele>344</ele>
        <time>2018-06-10T10:22:40Z</time>
      </trkpt>
      <trkpt lat="44.69379" lon="5.04143">
        <ele>344</ele>
        <time>2018-06-10T10:22:42Z</time>
      </trkpt>
      <trkpt lat="44.69379" lon="5.04141">
        <ele>345</ele>
        <time>2018-06-10T10:22:44Z</time>
      </trkpt>
      <trkpt lat="44.6938" lon="5.0414">
        <ele>345</ele>
        <time>2018-06-10T10:22:46Z</time>
      </trkpt>
      <trkpt lat="44.69382" lon="5.04138">
        <ele>345</ele>
        <time>2018-06-10T10:22:48Z</time>
      </trkpt>
      <trkpt lat="44.69382" lon="5.04136">
        <ele>346</ele>
        <time>2018-06-10T10:22:50Z</time>
      </trkpt>
      <trkpt lat="44.69383" lon="5.04134">
        <ele>346</ele>
        <time>2018-06-10T10:22:52Z</time>
      </trkpt>
      <trkpt lat="44.69385" lon="5.04133">
        <ele>346</ele>
        <time>2018-06-10T10:22:54Z</time>
      </trkpt>
      <trkpt lat="44.69387" lon="5.0413">
        <ele>347</ele>
        <time>2018-06-10T10:22:56Z</time>
      </trkpt>
      <trkpt lat="44.69388" lon="5.04128">
        <ele>347</ele>
        <time>2018-06-10T10:22:58Z</time>
      </trkpt>
      <trkpt lat="44.69389" lon="5.04126">
        <ele>347</ele>
        <time>2018-06-10T10:23:00Z</time>
      </trkpt>
      <trkpt lat="44.6939" lon="5.04125">
        <ele>347</ele>
        <time>2018-06-10T10:23:02Z</time>
      </trkpt>
      <trkpt lat="44.6939" lon="5.04123">
        <ele>347</ele>
        <time>2018-06-10T10:23:04Z</time>
      </trkpt>
      <trkpt lat="44.69392" lon="5.0412">
        <ele>348</ele>
        <time>2018-06-10T10:23:06Z</time>
      </trkpt>
      <trkpt lat="44.69392" lon="5.04118">
        <ele>347</ele>
        <time>2018-06-10T10:23:08Z</time>
      </trkpt>
      <trkpt lat="44.69393" lon="5.04116">
        <ele>348</ele>
        <time>2018-06-10T10:23:10Z</time>
      </trkpt>
      <trkpt lat="44.69394" lon="5.04114">
        <ele>348</ele>
        <time>2018-06-10T10:23:12Z</time>
      </trkpt>
      <trkpt lat="44.69394" lon="5.04112">
        <ele>348</ele>
        <time>2018-06-10T10:23:14Z</time>
      </trkpt>
      <trkpt lat="44.69395" lon="5.0411">
        <ele>348</ele>
        <time>2018-06-10T10:23:16Z</time>
      </trkpt>
      <trkpt lat="44.69395" lon="5.04109">
        <ele>349</ele>
        <time>2018-06-10T10:23:18Z</time>
      </trkpt>
      <trkpt lat="44.69396" lon="5.04107">
        <ele>349</ele>
        <time>2018-06-10T10:23:20Z</time>
      </trkpt>
      <trkpt lat="44.69396" lon="5.04104">
        <ele>349</ele>
        <time>2018-06-10T10:23:22Z</time>
      </trkpt>
      <trkpt lat="44.69397" lon="5.04102">
        <ele>349</ele>
        <time>2018-06-10T10:23:24Z</time>
      </trkpt>
      <trkpt lat="44.69399" lon="5.04099">
        <ele>349</ele>
        <time>2018-06-10T10:23:27Z</time>
      </trkpt>
      <trkpt lat="44.694" lon="5.04097">
        <ele>349</ele>
        <time>2018-06-10T10:23:29Z</time>
      </trkpt>
      <trkpt lat="44.694" lon="5.04095">
        <ele>349</ele>
        <time>2018-06-10T10:23:31Z</time>
      </trkpt>
      <trkpt lat="44.694" lon="5.04092">
        <ele>349</ele>
        <time>2018-06-10T10:23:33Z</time>
      </trkpt>
      <trkpt lat="44.694" lon="5.0409">
        <ele>349</ele>
        <time>2018-06-10T10:23:35Z</time>
      </trkpt>
      <trkpt lat="44.694" lon="5.04088">
        <ele>349</ele>
        <time>2018-06-10T10:23:37Z</time>
      </trkpt>
      <trkpt lat="44.69401" lon="5.04086">
        <ele>349</ele>
        <time>2018-06-10T10:23:39Z</time>
      </trkpt>
      <trkpt lat="44.69402" lon="5.04085">
        <ele>350</ele>
        <time>2018-06-10T10:23:41Z</time>
      </trkpt>
      <trkpt lat="44.69403" lon="5.04082">
        <ele>350</ele>
        <time>2018-06-10T10:23:43Z</time>
      </trkpt>
      <trkpt lat="44.69404" lon="5.0408">
        <ele>350</ele>
        <time>2018-06-10T10:23:45Z</time>
      </trkpt>
      <trkpt lat="44.69405" lon="5.04078">
        <ele>351</ele>
        <time>2018-06-10T10:23:47Z</time>
      </trkpt>
      <trkpt lat="44.69406" lon="5.04076">
        <ele>351</ele>
        <time>2018-06-10T10:23:49Z</time>
      </trkpt>
      <trkpt lat="44.69406" lon="5.04074">
        <ele>351</ele>
        <time>2018-06-10T10:23:51Z</time>
      </trkpt>
      <trkpt lat="44.69407" lon="5.04073">
        <ele>352</ele>
        <time>2018-06-10T10:23:53Z</time>
      </trkpt>
      <trkpt lat="44.69409" lon="5.04071">
        <ele>353</ele>
        <time>2018-06-10T10:23:55Z</time>
      </trkpt>
      <trkpt lat="44.6941" lon="5.04069">
        <ele>353</ele>
        <time>2018-06-10T10:23:57Z</time>
      </trkpt>
      <trkpt lat="44.69411" lon="5.04068">
        <ele>354</ele>
        <time>2018-06-10T10:23:59Z</time>
      </trkpt>
      <trkpt lat="44.69412" lon="5.04067">
        <ele>353</ele>
        <time>2018-06-10T10:24:01Z</time>
      </trkpt>
      <trkpt lat="44.69414" lon="5.04065">
        <ele>354</ele>
        <time>2018-06-10T10:24:03Z</time>
      </trkpt>
      <trkpt lat="44.69414" lon="5.04063">
        <ele>354</ele>
        <time>2018-06-10T10:24:05Z</time>
      </trkpt>
      <trkpt lat="44.69415" lon="5.04061">
        <ele>354</ele>
        <time>2018-06-10T10:24:07Z</time>
      </trkpt>
      <trkpt lat="44.69416" lon="5.0406">
        <ele>354</ele>
        <time>2018-06-10T10:24:09Z</time>
      </trkpt>
      <trkpt lat="44.69417" lon="5.0406">
        <ele>354</ele>
        <time>2018-06-10T10:24:11Z</time>
      </trkpt>
      <trkpt lat="44.69418" lon="5.04057">
        <ele>354</ele>
        <time>2018-06-10T10:24:13Z</time>
      </trkpt>
      <trkpt lat="44.6942" lon="5.04055">
        <ele>354</ele>
        <time>2018-06-10T10:24:15Z</time>
      </trkpt>
      <trkpt lat="44.69421" lon="5.04052">
        <ele>355</ele>
        <time>2018-06-10T10:24:17Z</time>
      </trkpt>
      <trkpt lat="44.69423" lon="5.04047">
        <ele>355</ele>
        <time>2018-06-10T10:24:19Z</time>
      </trkpt>
      <trkpt lat="44.69424" lon="5.04044">
        <ele>355</ele>
        <time>2018-06-10T10:24:21Z</time>
      </trkpt>
      <trkpt lat="44.69425" lon="5.0404">
        <ele>355</ele>
        <time>2018-06-10T10:24:23Z</time>
      </trkpt>
      <trkpt lat="44.69426" lon="5.04036">
        <ele>355</ele>
        <time>2018-06-10T10:24:25Z</time>
      </trkpt>
      <trkpt lat="44.69428" lon="5.04032">
        <ele>354</ele>
        <time>2018-06-10T10:24:28Z</time>
      </trkpt>
      <trkpt lat="44.69429" lon="5.04028">
        <ele>355</ele>
        <time>2018-06-10T10:24:30Z</time>
      </trkpt>
      <trkpt lat="44.69429" lon="5.04024">
        <ele>354</ele>
        <time>2018-06-10T10:24:32Z</time>
      </trkpt>
      <trkpt lat="44.69429" lon="5.04021">
        <ele>354</ele>
        <time>2018-06-10T10:24:34Z</time>
      </trkpt>
      <trkpt lat="44.69429" lon="5.04017">
        <ele>354</ele>
        <time>2018-06-10T10:24:36Z</time>
      </trkpt>
      <trkpt lat="44.6943" lon="5.04013">
        <ele>355</ele>
        <time>2018-06-10T10:24:38Z</time>
      </trkpt>
      <trkpt lat="44.69431" lon="5.0401">
        <ele>355</ele>
        <time>2018-06-10T10:24:40Z</time>
      </trkpt>
      <trkpt lat="44.6943" lon="5.04008">
        <ele>355</ele>
        <time>2018-06-10T10:24:42Z</time>
      </trkpt>
      <trkpt lat="44.69428" lon="5.04006">
        <ele>355</ele>
        <time>2018-06-10T10:24:44Z</time>
      </trkpt>
      <trkpt lat="44.69427" lon="5.04003">
        <ele>356</ele>
        <time>2018-06-10T10:24:46Z</time>
      </trkpt>
      <trkpt lat="44.69426" lon="5.03999">
        <ele>356</ele>
        <time>2018-06-10T10:24:48Z</time>
      </trkpt>
      <trkpt lat="44.69424" lon="5.03997">
        <ele>357</ele>
        <time>2018-06-10T10:24:50Z</time>
      </trkpt>
      <trkpt lat="44.69423" lon="5.03995">
        <ele>357</ele>
        <time>2018-06-10T10:24:52Z</time>
      </trkpt>
      <trkpt lat="44.69422" lon="5.03993">
        <ele>357</ele>
        <time>2018-06-10T10:24:54Z</time>
      </trkpt>
      <trkpt lat="44.69421" lon="5.03992">
        <ele>357</ele>
        <time>2018-06-10T10:24:56Z</time>
      </trkpt>
      <trkpt lat="44.6942" lon="5.0399">
        <ele>358</ele>
        <time>2018-06-10T10:24:58Z</time>
      </trkpt>
      <trkpt lat="44.6942" lon="5.03988">
        <ele>358</ele>
        <time>2018-06-10T10:25:00Z</time>
      </trkpt>
      <trkpt lat="44.69419" lon="5.03987">
        <ele>358</ele>
        <time>2018-06-10T10:25:02Z</time>
      </trkpt>
      <trkpt lat="44.69418" lon="5.03986">
        <ele>358</ele>
        <time>2018-06-10T10:25:04Z</time>
      </trkpt>
      <trkpt lat="44.69418" lon="5.03985">
        <ele>358</ele>
        <time>2018-06-10T10:25:06Z</time>
      </trkpt>
      <trkpt lat="44.69417" lon="5.03983">
        <ele>358</ele>
        <time>2018-06-10T10:25:08Z</time>
      </trkpt>
      <trkpt lat="44.69416" lon="5.03982">
        <ele>359</ele>
        <time>2018-06-10T10:25:10Z</time>
      </trkpt>
      <trkpt lat="44.69415" lon="5.0398">
        <ele>359</ele>
        <time>2018-06-10T10:25:12Z</time>
      </trkpt>
      <trkpt lat="44.69414" lon="5.03977">
        <ele>359</ele>
        <time>2018-06-10T10:25:14Z</time>
      </trkpt>
      <trkpt lat="44.69413" lon="5.03976">
        <ele>359</ele>
        <time>2018-06-10T10:25:16Z</time>
      </trkpt>
      <trkpt lat="44.69413" lon="5.03975">
        <ele>360</ele>
        <time>2018-06-10T10:25:18Z</time>
      </trkpt>
      <trkpt lat="44.69413" lon="5.03974">
        <ele>360</ele>
        <time>2018-06-10T10:25:20Z</time>
      </trkpt>
      <trkpt lat="44.69412" lon="5.03973">
        <ele>360</ele>
        <time>2018-06-10T10:25:22Z</time>
      </trkpt>
      <trkpt lat="44.69412" lon="5.03971">
        <ele>360</ele>
        <time>2018-06-10T10:25:24Z</time>
      </trkpt>
      <trkpt lat="44.69411" lon="5.0397">
        <ele>360</ele>
        <time>2018-06-10T10:25:27Z</time>
      </trkpt>
      <trkpt lat="44.6941" lon="5.03968">
        <ele>361</ele>
        <time>2018-06-10T10:25:29Z</time>
      </trkpt>
      <trkpt lat="44.69409" lon="5.03966">
        <ele>361</ele>
        <time>2018-06-10T10:25:31Z</time>
      </trkpt>
      <trkpt lat="44.6941" lon="5.03964">
        <ele>361</ele>
        <time>2018-06-10T10:25:33Z</time>
      </trkpt>
      <trkpt lat="44.69409" lon="5.03962">
        <ele>362</ele>
        <time>2018-06-10T10:25:35Z</time>
      </trkpt>
      <trkpt lat="44.69408" lon="5.0396">
        <ele>362</ele>
        <time>2018-06-10T10:25:37Z</time>
      </trkpt>
      <trkpt lat="44.69407" lon="5.03958">
        <ele>362</ele>
        <time>2018-06-10T10:25:39Z</time>
      </trkpt>
      <trkpt lat="44.69407" lon="5.03956">
        <ele>362</ele>
        <time>2018-06-10T10:25:41Z</time>
      </trkpt>
      <trkpt lat="44.69406" lon="5.03954">
        <ele>363</ele>
        <time>2018-06-10T10:25:43Z</time>
      </trkpt>
      <trkpt lat="44.69405" lon="5.03952">
        <ele>363</ele>
        <time>2018-06-10T10:25:45Z</time>
      </trkpt>
      <trkpt lat="44.69404" lon="5.0395">
        <ele>363</ele>
        <time>2018-06-10T10:25:47Z</time>
      </trkpt>
      <trkpt lat="44.69403" lon="5.03949">
        <ele>363</ele>
        <time>2018-06-10T10:25:49Z</time>
      </trkpt>
      <trkpt lat="44.69403" lon="5.03947">
        <ele>364</ele>
        <time>2018-06-10T10:25:51Z</time>
      </trkpt>
      <trkpt lat="44.69402" lon="5.03945">
        <ele>364</ele>
        <time>2018-06-10T10:25:53Z</time>
      </trkpt>
      <trkpt lat="44.69402" lon="5.03942">
        <ele>365</ele>
        <time>2018-06-10T10:25:55Z</time>
      </trkpt>
      <trkpt lat="44.69401" lon="5.0394">
        <ele>365</ele>
        <time>2018-06-10T10:25:57Z</time>
      </trkpt>
      <trkpt lat="44.69401" lon="5.03938">
        <ele>365</ele>
        <time>2018-06-10T10:25:59Z</time>
      </trkpt>
      <trkpt lat="44.694" lon="5.03936">
        <ele>365</ele>
        <time>2018-06-10T10:26:01Z</time>
      </trkpt>
      <trkpt lat="44.694" lon="5.03934">
        <ele>366</ele>
        <time>2018-06-10T10:26:03Z</time>
      </trkpt>
      <trkpt lat="44.694" lon="5.03932">
        <ele>366</ele>
        <time>2018-06-10T10:26:05Z</time>
      </trkpt>
      <trkpt lat="44.694" lon="5.0393">
        <ele>366</ele>
        <time>2018-06-10T10:26:07Z</time>
      </trkpt>
      <trkpt lat="44.694" lon="5.03927">
        <ele>367</ele>
        <time>2018-06-10T10:26:09Z</time>
      </trkpt>
      <trkpt lat="44.694" lon="5.03925">
        <ele>367</ele>
        <time>2018-06-10T10:26:11Z</time>
      </trkpt>
      <trkpt lat="44.694" lon="5.03922">
        <ele>367</ele>
        <time>2018-06-10T10:26:13Z</time>
      </trkpt>
      <trkpt lat="44.69399" lon="5.0392">
        <ele>367</ele>
        <time>2018-06-10T10:26:16Z</time>
      </trkpt>
      <trkpt lat="44.694" lon="5.03918">
        <ele>367</ele>
        <time>2018-06-10T10:26:18Z</time>
      </trkpt>
      <trkpt lat="44.69399" lon="5.03915">
        <ele>368</ele>
        <time>2018-06-10T10:26:20Z</time>
      </trkpt>
      <trkpt lat="44.69399" lon="5.03913">
        <ele>368</ele>
        <time>2018-06-10T10:26:22Z</time>
      </trkpt>
      <trkpt lat="44.69399" lon="5.03911">
        <ele>368</ele>
        <time>2018-06-10T10:26:24Z</time>
      </trkpt>
      <trkpt lat="44.69399" lon="5.03908">
        <ele>368</ele>
        <time>2018-06-10T10:26:26Z</time>
      </trkpt>
      <trkpt lat="44.69399" lon="5.03906">
        <ele>368</ele>
        <time>2018-06-10T10:26:28Z</time>
      </trkpt>
      <trkpt lat="44.69399" lon="5.03904">
        <ele>369</ele>
        <time>2018-06-10T10:26:30Z</time>
      </trkpt>
      <trkpt lat="44.69398" lon="5.039">
        <ele>369</ele>
        <time>2018-06-10T10:26:32Z</time>
      </trkpt>
      <trkpt lat="44.69398" lon="5.03898">
        <ele>369</ele>
        <time>2018-06-10T10:26:34Z</time>
      </trkpt>
      <trkpt lat="44.69397" lon="5.03893">
        <ele>369</ele>
        <time>2018-06-10T10:26:36Z</time>
      </trkpt>
      <trkpt lat="44.69397" lon="5.0389">
        <ele>369</ele>
        <time>2018-06-10T10:26:38Z</time>
      </trkpt>
      <trkpt lat="44.69396" lon="5.03886">
        <ele>370</ele>
        <time>2018-06-10T10:26:40Z</time>
      </trkpt>
      <trkpt lat="44.69396" lon="5.03883">
        <ele>370</ele>
        <time>2018-06-10T10:26:42Z</time>
      </trkpt>
      <trkpt lat="44.69396" lon="5.03879">
        <ele>370</ele>
        <time>2018-06-10T10:26:44Z</time>
      </trkpt>
      <trkpt lat="44.69397" lon="5.03876">
        <ele>370</ele>
        <time>2018-06-10T10:26:46Z</time>
      </trkpt>
      <trkpt lat="44.69398" lon="5.03873">
        <ele>370</ele>
        <time>2018-06-10T10:26:48Z</time>
      </trkpt>
      <trkpt lat="44.69398" lon="5.0387">
        <ele>371</ele>
        <time>2018-06-10T10:26:50Z</time>
      </trkpt>
      <trkpt lat="44.69399" lon="5.03867">
        <ele>371</ele>
        <time>2018-06-10T10:26:52Z</time>
      </trkpt>
      <trkpt lat="44.69401" lon="5.03864">
        <ele>371</ele>
        <time>2018-06-10T10:26:54Z</time>
      </trkpt>
      <trkpt lat="44.69402" lon="5.03862">
        <ele>372</ele>
        <time>2018-06-10T10:26:56Z</time>
      </trkpt>
      <trkpt lat="44.69404" lon="5.03859">
        <ele>372</ele>
        <time>2018-06-10T10:26:58Z</time>
      </trkpt>
      <trkpt lat="44.69406" lon="5.03857">
        <ele>372</ele>
        <time>2018-06-10T10:27:00Z</time>
      </trkpt>
      <trkpt lat="44.69408" lon="5.03855">
        <ele>373</ele>
        <time>2018-06-10T10:27:02Z</time>
      </trkpt>
      <trkpt lat="44.6941" lon="5.03854">
        <ele>373</ele>
        <time>2018-06-10T10:27:04Z</time>
      </trkpt>
      <trkpt lat="44.69412" lon="5.03853">
        <ele>373</ele>
        <time>2018-06-10T10:27:06Z</time>
      </trkpt>
      <trkpt lat="44.69414" lon="5.03852">
        <ele>373</ele>
        <time>2018-06-10T10:27:08Z</time>
      </trkpt>
      <trkpt lat="44.69416" lon="5.03851">
        <ele>373</ele>
        <time>2018-06-10T10:27:10Z</time>
      </trkpt>
      <trkpt lat="44.69418" lon="5.0385">
        <ele>374</ele>
        <time>2018-06-10T10:27:13Z</time>
      </trkpt>
      <trkpt lat="44.69421" lon="5.0385">
        <ele>374</ele>
        <time>2018-06-10T10:27:15Z</time>
      </trkpt>
      <trkpt lat="44.69422" lon="5.03849">
        <ele>374</ele>
        <time>2018-06-10T10:27:17Z</time>
      </trkpt>
      <trkpt lat="44.69424" lon="5.03848">
        <ele>375</ele>
        <time>2018-06-10T10:27:19Z</time>
      </trkpt>
      <trkpt lat="44.69426" lon="5.03848">
        <ele>375</ele>
        <time>2018-06-10T10:27:21Z</time>
      </trkpt>
      <trkpt lat="44.69428" lon="5.03848">
        <ele>375</ele>
        <time>2018-06-10T10:27:23Z</time>
      </trkpt>
      <trkpt lat="44.6943" lon="5.03848">
        <ele>376</ele>
        <time>2018-06-10T10:27:25Z</time>
      </trkpt>
      <trkpt lat="44.69433" lon="5.03848">
        <ele>376</ele>
        <time>2018-06-10T10:27:27Z</time>
      </trkpt>
      <trkpt lat="44.69435" lon="5.03847">
        <ele>376</ele>
        <time>2018-06-10T10:27:29Z</time>
      </trkpt>
      <trkpt lat="44.69437" lon="5.03846">
        <ele>377</ele>
        <time>2018-06-10T10:27:31Z</time>
      </trkpt>
      <trkpt lat="44.69439" lon="5.03846">
        <ele>377</ele>
        <time>2018-06-10T10:27:33Z</time>
      </trkpt>
      <trkpt lat="44.69442" lon="5.03845">
        <ele>377</ele>
        <time>2018-06-10T10:27:35Z</time>
      </trkpt>
      <trkpt lat="44.69444" lon="5.03845">
        <ele>377</ele>
        <time>2018-06-10T10:27:37Z</time>
      </trkpt>
      <trkpt lat="44.69446" lon="5.03844">
        <ele>377</ele>
        <time>2018-06-10T10:27:39Z</time>
      </trkpt>
      <trkpt lat="44.69448" lon="5.03844">
        <ele>377</ele>
        <time>2018-06-10T10:27:41Z</time>
      </trkpt>
      <trkpt lat="44.69449" lon="5.03844">
        <ele>377</ele>
        <time>2018-06-10T10:27:43Z</time>
      </trkpt>
      <trkpt lat="44.69451" lon="5.03843">
        <ele>378</ele>
        <time>2018-06-10T10:27:45Z</time>
      </trkpt>
      <trkpt lat="44.69454" lon="5.03843">
        <ele>378</ele>
        <time>2018-06-10T10:27:47Z</time>
      </trkpt>
      <trkpt lat="44.69456" lon="5.03843">
        <ele>378</ele>
        <time>2018-06-10T10:27:49Z</time>
      </trkpt>
      <trkpt lat="44.6946" lon="5.03842">
        <ele>378</ele>
        <time>2018-06-10T10:27:51Z</time>
      </trkpt>
      <trkpt lat="44.69463" lon="5.03842">
        <ele>378</ele>
        <time>2018-06-10T10:27:53Z</time>
      </trkpt>
      <trkpt lat="44.69466" lon="5.03841">
        <ele>378</ele>
        <time>2018-06-10T10:27:55Z</time>
      </trkpt>
      <trkpt lat="44.69469" lon="5.03841">
        <ele>379</ele>
        <time>2018-06-10T10:27:57Z</time>
      </trkpt>
      <trkpt lat="44.69472" lon="5.0384">
        <ele>379</ele>
        <time>2018-06-10T10:27:59Z</time>
      </trkpt>
      <trkpt lat="44.69475" lon="5.0384">
        <ele>379</ele>
        <time>2018-06-10T10:28:01Z</time>
      </trkpt>
      <trkpt lat="44.69478" lon="5.03839">
        <ele>379</ele>
        <time>2018-06-10T10:28:03Z</time>
      </trkpt>
      <trkpt lat="44.69481" lon="5.03838">
        <ele>379</ele>
        <time>2018-06-10T10:28:05Z</time>
      </trkpt>
      <trkpt lat="44.69484" lon="5.03838">
        <ele>379</ele>
        <time>2018-06-10T10:28:07Z</time>
      </trkpt>
      <trkpt lat="44.69487" lon="5.03837">
        <ele>379</ele>
        <time>2018-06-10T10:28:09Z</time>
      </trkpt>
      <trkpt lat="44.6949" lon="5.03837">
        <ele>380</ele>
        <time>2018-06-10T10:28:11Z</time>
      </trkpt>
      <trkpt lat="44.69493" lon="5.03838">
        <ele>380</ele>
        <time>2018-06-10T10:28:13Z</time>
      </trkpt>
      <trkpt lat="44.69495" lon="5.03837">
        <ele>380</ele>
        <time>2018-06-10T10:28:16Z</time>
      </trkpt>
      <trkpt lat="44.69497" lon="5.03837">
        <ele>381</ele>
        <time>2018-06-10T10:28:18Z</time>
      </trkpt>
      <trkpt lat="44.69499" lon="5.03837">
        <ele>381</ele>
        <time>2018-06-10T10:28:20Z</time>
      </trkpt>
      <trkpt lat="44.695" lon="5.03835">
        <ele>381</ele>
        <time>2018-06-10T10:28:22Z</time>
      </trkpt>
      <trkpt lat="44.695" lon="5.03835">
        <ele>381</ele>
        <time>2018-06-10T10:28:24Z</time>
      </trkpt>
      <trkpt lat="44.69501" lon="5.03835">
        <ele>381</ele>
        <time>2018-06-10T10:28:26Z</time>
      </trkpt>
      <trkpt lat="44.69502" lon="5.03834">
        <ele>381</ele>
        <time>2018-06-10T10:28:28Z</time>
      </trkpt>
      <trkpt lat="44.69503" lon="5.03835">
        <ele>381</ele>
        <time>2018-06-10T10:28:30Z</time>
      </trkpt>
      <trkpt lat="44.69502" lon="5.03835">
        <ele>381</ele>
        <time>2018-06-10T10:28:32Z</time>
      </trkpt>
      <trkpt lat="44.69502" lon="5.03838">
        <ele>381</ele>
        <time>2018-06-10T10:28:34Z</time>
      </trkpt>
      <trkpt lat="44.69502" lon="5.03839">
        <ele>381</ele>
        <time>2018-06-10T10:28:36Z</time>
      </trkpt>
      <trkpt lat="44.69502" lon="5.03839">
        <ele>381</ele>
        <time>2018-06-10T10:28:38Z</time>
      </trkpt>
      <trkpt lat="44.69502" lon="5.0384">
        <ele>380</ele>
        <time>2018-06-10T10:28:40Z</time>
      </trkpt>
      <trkpt lat="44.69504" lon="5.03838">
        <ele>382</ele>
        <time>2018-06-10T10:28:42Z</time>
      </trkpt>
      <trkpt lat="44.69507" lon="5.0384">
        <ele>382</ele>
        <time>2018-06-10T10:28:44Z</time>
      </trkpt>
      <trkpt lat="44.69511" lon="5.03842">
        <ele>382</ele>
        <time>2018-06-10T10:28:46Z</time>
      </trkpt>
      <trkpt lat="44.69515" lon="5.03843">
        <ele>382</ele>
        <time>2018-06-10T10:28:48Z</time>
      </trkpt>
      <trkpt lat="44.6952" lon="5.03845">
        <ele>381</ele>
        <time>2018-06-10T10:28:50Z</time>
      </trkpt>
      <trkpt lat="44.69524" lon="5.03845">
        <ele>381</ele>
        <time>2018-06-10T10:28:52Z</time>
      </trkpt>
      <trkpt lat="44.69528" lon="5.03845">
        <ele>382</ele>
        <time>2018-06-10T10:28:54Z</time>
      </trkpt>
      <trkpt lat="44.69531" lon="5.03845">
        <ele>382</ele>
        <time>2018-06-10T10:28:56Z</time>
      </trkpt>
      <trkpt lat="44.69532" lon="5.03845">
        <ele>382</ele>
        <time>2018-06-10T10:28:58Z</time>
      </trkpt>
      <trkpt lat="44.69536" lon="5.03845">
        <ele>382</ele>
        <time>2018-06-10T10:29:00Z</time>
      </trkpt>
      <trkpt lat="44.69538" lon="5.03846">
        <ele>383</ele>
        <time>2018-06-10T10:29:02Z</time>
      </trkpt>
      <trkpt lat="44.69541" lon="5.03846">
        <ele>383</ele>
        <time>2018-06-10T10:29:04Z</time>
      </trkpt>
      <trkpt lat="44.69544" lon="5.03846">
        <ele>383</ele>
        <time>2018-06-10T10:29:06Z</time>
      </trkpt>
      <trkpt lat="44.69546" lon="5.03846">
        <ele>383</ele>
        <time>2018-06-10T10:29:08Z</time>
      </trkpt>
      <trkpt lat="44.69549" lon="5.03847">
        <ele>383</ele>
        <time>2018-06-10T10:29:10Z</time>
      </trkpt>
      <trkpt lat="44.69553" lon="5.03847">
        <ele>384</ele>
        <time>2018-06-10T10:29:12Z</time>
      </trkpt>
      <trkpt lat="44.69556" lon="5.03848">
        <ele>384</ele>
        <time>2018-06-10T10:29:14Z</time>
      </trkpt>
      <trkpt lat="44.69559" lon="5.03848">
        <ele>384</ele>
        <time>2018-06-10T10:29:16Z</time>
      </trkpt>
      <trkpt lat="44.69561" lon="5.03848">
        <ele>385</ele>
        <time>2018-06-10T10:29:18Z</time>
      </trkpt>
      <trkpt lat="44.69563" lon="5.03848">
        <ele>386</ele>
        <time>2018-06-10T10:29:20Z</time>
      </trkpt>
      <trkpt lat="44.69566" lon="5.03848">
        <ele>386</ele>
        <time>2018-06-10T10:29:22Z</time>
      </trkpt>
      <trkpt lat="44.69569" lon="5.03847">
        <ele>386</ele>
        <time>2018-06-10T10:29:24Z</time>
      </trkpt>
      <trkpt lat="44.69571" lon="5.03847">
        <ele>386</ele>
        <time>2018-06-10T10:29:26Z</time>
      </trkpt>
      <trkpt lat="44.69574" lon="5.03847">
        <ele>387</ele>
        <time>2018-06-10T10:29:28Z</time>
      </trkpt>
      <trkpt lat="44.69576" lon="5.03846">
        <ele>387</ele>
        <time>2018-06-10T10:29:30Z</time>
      </trkpt>
      <trkpt lat="44.69579" lon="5.03846">
        <ele>388</ele>
        <time>2018-06-10T10:29:32Z</time>
      </trkpt>
      <trkpt lat="44.69581" lon="5.03845">
        <ele>388</ele>
        <time>2018-06-10T10:29:34Z</time>
      </trkpt>
      <trkpt lat="44.69584" lon="5.03845">
        <ele>388</ele>
        <time>2018-06-10T10:29:36Z</time>
      </trkpt>
      <trkpt lat="44.69586" lon="5.03845">
        <ele>389</ele>
        <time>2018-06-10T10:29:38Z</time>
      </trkpt>
      <trkpt lat="44.69588" lon="5.03845">
        <ele>389</ele>
        <time>2018-06-10T10:29:40Z</time>
      </trkpt>
      <trkpt lat="44.69591" lon="5.03844">
        <ele>390</ele>
        <time>2018-06-10T10:29:42Z</time>
      </trkpt>
      <trkpt lat="44.69593" lon="5.03844">
        <ele>390</ele>
        <time>2018-06-10T10:29:44Z</time>
      </trkpt>
      <trkpt lat="44.69595" lon="5.03843">
        <ele>390</ele>
        <time>2018-06-10T10:29:46Z</time>
      </trkpt>
      <trkpt lat="44.69597" lon="5.03843">
        <ele>391</ele>
        <time>2018-06-10T10:29:48Z</time>
      </trkpt>
      <trkpt lat="44.696" lon="5.03842">
        <ele>391</ele>
        <time>2018-06-10T10:29:50Z</time>
      </trkpt>
      <trkpt lat="44.69602" lon="5.03842">
        <ele>391</ele>
        <time>2018-06-10T10:29:52Z</time>
      </trkpt>
      <trkpt lat="44.69605" lon="5.03842">
        <ele>392</ele>
        <time>2018-06-10T10:29:54Z</time>
      </trkpt>
      <trkpt lat="44.69607" lon="5.03841">
        <ele>392</ele>
        <time>2018-06-10T10:29:56Z</time>
      </trkpt>
      <trkpt lat="44.6961" lon="5.0384">
        <ele>392</ele>
        <time>2018-06-10T10:29:58Z</time>
      </trkpt>
      <trkpt lat="44.69612" lon="5.0384">
        <ele>393</ele>
        <time>2018-06-10T10:30:00Z</time>
      </trkpt>
      <trkpt lat="44.69614" lon="5.0384">
        <ele>393</ele>
        <time>2018-06-10T10:30:02Z</time>
      </trkpt>
      <trkpt lat="44.69617" lon="5.03839">
        <ele>394</ele>
        <time>2018-06-10T10:30:04Z</time>
      </trkpt>
      <trkpt lat="44.69618" lon="5.03838">
        <ele>394</ele>
        <time>2018-06-10T10:30:06Z</time>
      </trkpt>
      <trkpt lat="44.69621" lon="5.03838">
        <ele>395</ele>
        <time>2018-06-10T10:30:08Z</time>
      </trkpt>
      <trkpt lat="44.69623" lon="5.03838">
        <ele>395</ele>
        <time>2018-06-10T10:30:10Z</time>
      </trkpt>
      <trkpt lat="44.69625" lon="5.03838">
        <ele>395</ele>
        <time>2018-06-10T10:30:12Z</time>
      </trkpt>
      <trkpt lat="44.69627" lon="5.03837">
        <ele>396</ele>
        <time>2018-06-10T10:30:14Z</time>
      </trkpt>
      <trkpt lat="44.69629" lon="5.03837">
        <ele>396</ele>
        <time>2018-06-10T10:30:16Z</time>
      </trkpt>
      <trkpt lat="44.69631" lon="5.03837">
        <ele>396</ele>
        <time>2018-06-10T10:30:19Z</time>
      </trkpt>
      <trkpt lat="44.69634" lon="5.03837">
        <ele>396</ele>
        <time>2018-06-10T10:30:21Z</time>
      </trkpt>
      <trkpt lat="44.69636" lon="5.03836">
        <ele>397</ele>
        <time>2018-06-10T10:30:23Z</time>
      </trkpt>
      <trkpt lat="44.69638" lon="5.03836">
        <ele>397</ele>
        <time>2018-06-10T10:30:25Z</time>
      </trkpt>
      <trkpt lat="44.69641" lon="5.03836">
        <ele>398</ele>
        <time>2018-06-10T10:30:27Z</time>
      </trkpt>
      <trkpt lat="44.69644" lon="5.03835">
        <ele>397</ele>
        <time>2018-06-10T10:30:29Z</time>
      </trkpt>
      <trkpt lat="44.69646" lon="5.03835">
        <ele>398</ele>
        <time>2018-06-10T10:30:31Z</time>
      </trkpt>
      <trkpt lat="44.69648" lon="5.03835">
        <ele>398</ele>
        <time>2018-06-10T10:30:33Z</time>
      </trkpt>
      <trkpt lat="44.69651" lon="5.03835">
        <ele>399</ele>
        <time>2018-06-10T10:30:35Z</time>
      </trkpt>
      <trkpt lat="44.69653" lon="5.03834">
        <ele>399</ele>
        <time>2018-06-10T10:30:37Z</time>
      </trkpt>
      <trkpt lat="44.69656" lon="5.03832">
        <ele>400</ele>
        <time>2018-06-10T10:30:39Z</time>
      </trkpt>
      <trkpt lat="44.69658" lon="5.03831">
        <ele>400</ele>
        <time>2018-06-10T10:30:41Z</time>
      </trkpt>
      <trkpt lat="44.6966" lon="5.03829">
        <ele>400</ele>
        <time>2018-06-10T10:30:43Z</time>
      </trkpt>
      <trkpt lat="44.69661" lon="5.03828">
        <ele>401</ele>
        <time>2018-06-10T10:30:45Z</time>
      </trkpt>
      <trkpt lat="44.69664" lon="5.03826">
        <ele>401</ele>
        <time>2018-06-10T10:30:47Z</time>
      </trkpt>
      <trkpt lat="44.69666" lon="5.03826">
        <ele>401</ele>
        <time>2018-06-10T10:30:49Z</time>
      </trkpt>
      <trkpt lat="44.69668" lon="5.03826">
        <ele>401</ele>
        <time>2018-06-10T10:30:51Z</time>
      </trkpt>
      <trkpt lat="44.69671" lon="5.03826">
        <ele>401</ele>
        <time>2018-06-10T10:30:53Z</time>
      </trkpt>
      <trkpt lat="44.69673" lon="5.03827">
        <ele>402</ele>
        <time>2018-06-10T10:30:55Z</time>
      </trkpt>
      <trkpt lat="44.69676" lon="5.03829">
        <ele>402</ele>
        <time>2018-06-10T10:30:57Z</time>
      </trkpt>
      <trkpt lat="44.69678" lon="5.0383">
        <ele>402</ele>
        <time>2018-06-10T10:30:59Z</time>
      </trkpt>
      <trkpt lat="44.69681" lon="5.0383">
        <ele>403</ele>
        <time>2018-06-10T10:31:01Z</time>
      </trkpt>
      <trkpt lat="44.69683" lon="5.0383">
        <ele>403</ele>
        <time>2018-06-10T10:31:03Z</time>
      </trkpt>
      <trkpt lat="44.69686" lon="5.0383">
        <ele>403</ele>
        <time>2018-06-10T10:31:05Z</time>
      </trkpt>
      <trkpt lat="44.6969" lon="5.0383">
        <ele>403</ele>
        <time>2018-06-10T10:31:07Z</time>
      </trkpt>
      <trkpt lat="44.69693" lon="5.0383">
        <ele>403</ele>
        <time>2018-06-10T10:31:09Z</time>
      </trkpt>
      <trkpt lat="44.69696" lon="5.0383">
        <ele>403</ele>
        <time>2018-06-10T10:31:11Z</time>
      </trkpt>
      <trkpt lat="44.697" lon="5.03829">
        <ele>403</ele>
        <time>2018-06-10T10:31:13Z</time>
      </trkpt>
      <trkpt lat="44.69704" lon="5.03828">
        <ele>403</ele>
        <time>2018-06-10T10:31:15Z</time>
      </trkpt>
      <trkpt lat="44.69708" lon="5.03826">
        <ele>403</ele>
        <time>2018-06-10T10:31:17Z</time>
      </trkpt>
      <trkpt lat="44.69712" lon="5.03825">
        <ele>403</ele>
        <time>2018-06-10T10:31:19Z</time>
      </trkpt>
      <trkpt lat="44.69717" lon="5.03823">
        <ele>404</ele>
        <time>2018-06-10T10:31:21Z</time>
      </trkpt>
      <trkpt lat="44.69721" lon="5.03821">
        <ele>404</ele>
        <time>2018-06-10T10:31:23Z</time>
      </trkpt>
      <trkpt lat="44.69725" lon="5.03818">
        <ele>404</ele>
        <time>2018-06-10T10:31:25Z</time>
      </trkpt>
      <trkpt lat="44.69728" lon="5.03815">
        <ele>404</ele>
        <time>2018-06-10T10:31:27Z</time>
      </trkpt>
      <trkpt lat="44.69731" lon="5.03814">
        <ele>404</ele>
        <time>2018-06-10T10:31:29Z</time>
      </trkpt>
      <trkpt lat="44.69732" lon="5.03813">
        <ele>404</ele>
        <time>2018-06-10T10:31:31Z</time>
      </trkpt>
      <trkpt lat="44.69734" lon="5.03813">
        <ele>404</ele>
        <time>2018-06-10T10:31:33Z</time>
      </trkpt>
      <trkpt lat="44.69736" lon="5.03811">
        <ele>404</ele>
        <time>2018-06-10T10:31:35Z</time>
      </trkpt>
      <trkpt lat="44.69737" lon="5.03809">
        <ele>404</ele>
        <time>2018-06-10T10:31:37Z</time>
      </trkpt>
      <trkpt lat="44.69738" lon="5.03805">
        <ele>403</ele>
        <time>2018-06-10T10:31:39Z</time>
      </trkpt>
      <trkpt lat="44.69738" lon="5.038">
        <ele>402</ele>
        <time>2018-06-10T10:31:41Z</time>
      </trkpt>
      <trkpt lat="44.69739" lon="5.03793">
        <ele>401</ele>
        <time>2018-06-10T10:31:43Z</time>
      </trkpt>
      <trkpt lat="44.69739" lon="5.03784">
        <ele>400</ele>
        <time>2018-06-10T10:31:45Z</time>
      </trkpt>
      <trkpt lat="44.69739" lon="5.03774">
        <ele>398</ele>
        <time>2018-06-10T10:31:47Z</time>
      </trkpt>
      <trkpt lat="44.69738" lon="5.03764">
        <ele>395</ele>
        <time>2018-06-10T10:31:49Z</time>
      </trkpt>
      <trkpt lat="44.69739" lon="5.03749">
        <ele>392</ele>
        <time>2018-06-10T10:31:51Z</time>
      </trkpt>
      <trkpt lat="44.6974" lon="5.03739">
        <ele>391</ele>
        <time>2018-06-10T10:31:53Z</time>
      </trkpt>
      <trkpt lat="44.69742" lon="5.03733">
        <ele>389</ele>
        <time>2018-06-10T10:31:55Z</time>
      </trkpt>
      <trkpt lat="44.69744" lon="5.03728">
        <ele>387</ele>
        <time>2018-06-10T10:31:58Z</time>
      </trkpt>
      <trkpt lat="44.69746" lon="5.03722">
        <ele>387</ele>
        <time>2018-06-10T10:32:00Z</time>
      </trkpt>
      <trkpt lat="44.69747" lon="5.03716">
        <ele>384</ele>
        <time>2018-06-10T10:32:02Z</time>
      </trkpt>
      <trkpt lat="44.69748" lon="5.03709">
        <ele>384</ele>
        <time>2018-06-10T10:32:04Z</time>
      </trkpt>
      <trkpt lat="44.69753" lon="5.037">
        <ele>382</ele>
        <time>2018-06-10T10:32:06Z</time>
      </trkpt>
      <trkpt lat="44.69757" lon="5.03689">
        <ele>378</ele>
        <time>2018-06-10T10:32:08Z</time>
      </trkpt>
      <trkpt lat="44.6976" lon="5.03681">
        <ele>377</ele>
        <time>2018-06-10T10:32:10Z</time>
      </trkpt>
      <trkpt lat="44.69762" lon="5.03676">
        <ele>377</ele>
        <time>2018-06-10T10:32:12Z</time>
      </trkpt>
      <trkpt lat="44.69765" lon="5.03675">
        <ele>377</ele>
        <time>2018-06-10T10:32:14Z</time>
      </trkpt>
      <trkpt lat="44.6977" lon="5.03673">
        <ele>375</ele>
        <time>2018-06-10T10:32:16Z</time>
      </trkpt>
      <trkpt lat="44.69772" lon="5.0367">
        <ele>375</ele>
        <time>2018-06-10T10:32:18Z</time>
      </trkpt>
      <trkpt lat="44.69774" lon="5.03668">
        <ele>375</ele>
        <time>2018-06-10T10:32:20Z</time>
      </trkpt>
      <trkpt lat="44.69776" lon="5.03666">
        <ele>374</ele>
        <time>2018-06-10T10:32:22Z</time>
      </trkpt>
      <trkpt lat="44.69778" lon="5.03663">
        <ele>374</ele>
        <time>2018-06-10T10:32:24Z</time>
      </trkpt>
      <trkpt lat="44.6978" lon="5.03661">
        <ele>373</ele>
        <time>2018-06-10T10:32:26Z</time>
      </trkpt>
      <trkpt lat="44.69782" lon="5.03661">
        <ele>372</ele>
        <time>2018-06-10T10:32:28Z</time>
      </trkpt>
      <trkpt lat="44.69783" lon="5.03658">
        <ele>372</ele>
        <time>2018-06-10T10:32:30Z</time>
      </trkpt>
      <trkpt lat="44.69784" lon="5.03656">
        <ele>371</ele>
        <time>2018-06-10T10:32:32Z</time>
      </trkpt>
      <trkpt lat="44.69787" lon="5.03654">
        <ele>370</ele>
        <time>2018-06-10T10:32:34Z</time>
      </trkpt>
      <trkpt lat="44.69789" lon="5.0365">
        <ele>370</ele>
        <time>2018-06-10T10:32:36Z</time>
      </trkpt>
      <trkpt lat="44.69792" lon="5.03644">
        <ele>369</ele>
        <time>2018-06-10T10:32:38Z</time>
      </trkpt>
      <trkpt lat="44.69794" lon="5.0364">
        <ele>368</ele>
        <time>2018-06-10T10:32:40Z</time>
      </trkpt>
      <trkpt lat="44.69797" lon="5.03637">
        <ele>367</ele>
        <time>2018-06-10T10:32:42Z</time>
      </trkpt>
      <trkpt lat="44.69798" lon="5.03633">
        <ele>366</ele>
        <time>2018-06-10T10:32:44Z</time>
      </trkpt>
      <trkpt lat="44.698" lon="5.03628">
        <ele>365</ele>
        <time>2018-06-10T10:32:46Z</time>
      </trkpt>
      <trkpt lat="44.69803" lon="5.03623">
        <ele>365</ele>
        <time>2018-06-10T10:32:48Z</time>
      </trkpt>
      <trkpt lat="44.69806" lon="5.0362">
        <ele>364</ele>
        <time>2018-06-10T10:32:50Z</time>
      </trkpt>
      <trkpt lat="44.69809" lon="5.03614">
        <ele>363</ele>
        <time>2018-06-10T10:32:52Z</time>
      </trkpt>
      <trkpt lat="44.69814" lon="5.03609">
        <ele>363</ele>
        <time>2018-06-10T10:32:54Z</time>
      </trkpt>
      <trkpt lat="44.69818" lon="5.03603">
        <ele>361</ele>
        <time>2018-06-10T10:32:56Z</time>
      </trkpt>
      <trkpt lat="44.69821" lon="5.03598">
        <ele>361</ele>
        <time>2018-06-10T10:32:59Z</time>
      </trkpt>
      <trkpt lat="44.69823" lon="5.03593">
        <ele>360</ele>
        <time>2018-06-10T10:33:01Z</time>
      </trkpt>
      <trkpt lat="44.69825" lon="5.03587">
        <ele>358</ele>
        <time>2018-06-10T10:33:03Z</time>
      </trkpt>
      <trkpt lat="44.69827" lon="5.03582">
        <ele>358</ele>
        <time>2018-06-10T10:33:05Z</time>
      </trkpt>
      <trkpt lat="44.69829" lon="5.0358">
        <ele>357</ele>
        <time>2018-06-10T10:33:07Z</time>
      </trkpt>
      <trkpt lat="44.69831" lon="5.03578">
        <ele>356</ele>
        <time>2018-06-10T10:33:09Z</time>
      </trkpt>
      <trkpt lat="44.69832" lon="5.03574">
        <ele>355</ele>
        <time>2018-06-10T10:33:11Z</time>
      </trkpt>
      <trkpt lat="44.69835" lon="5.0357">
        <ele>355</ele>
        <time>2018-06-10T10:33:13Z</time>
      </trkpt>
      <trkpt lat="44.69839" lon="5.03568">
        <ele>353</ele>
        <time>2018-06-10T10:33:15Z</time>
      </trkpt>
      <trkpt lat="44.69845" lon="5.03564">
        <ele>352</ele>
        <time>2018-06-10T10:33:17Z</time>
      </trkpt>
      <trkpt lat="44.69847" lon="5.03561">
        <ele>352</ele>
        <time>2018-06-10T10:33:19Z</time>
      </trkpt>
      <trkpt lat="44.69849" lon="5.03559">
        <ele>351</ele>
        <time>2018-06-10T10:33:21Z</time>
      </trkpt>
      <trkpt lat="44.69852" lon="5.03557">
        <ele>351</ele>
        <time>2018-06-10T10:33:23Z</time>
      </trkpt>
      <trkpt lat="44.69853" lon="5.03555">
        <ele>350</ele>
        <time>2018-06-10T10:33:25Z</time>
      </trkpt>
      <trkpt lat="44.69856" lon="5.03552">
        <ele>350</ele>
        <time>2018-06-10T10:33:27Z</time>
      </trkpt>
      <trkpt lat="44.69859" lon="5.03548">
        <ele>349</ele>
        <time>2018-06-10T10:33:29Z</time>
      </trkpt>
      <trkpt lat="44.69865" lon="5.03541">
        <ele>348</ele>
        <time>2018-06-10T10:33:31Z</time>
      </trkpt>
      <trkpt lat="44.69872" lon="5.0353">
        <ele>347</ele>
        <time>2018-06-10T10:33:33Z</time>
      </trkpt>
      <trkpt lat="44.69876" lon="5.03524">
        <ele>346</ele>
        <time>2018-06-10T10:33:35Z</time>
      </trkpt>
      <trkpt lat="44.69881" lon="5.03517">
        <ele>346</ele>
        <time>2018-06-10T10:33:37Z</time>
      </trkpt>
      <trkpt lat="44.69885" lon="5.03514">
        <ele>344</ele>
        <time>2018-06-10T10:33:39Z</time>
      </trkpt>
      <trkpt lat="44.69887" lon="5.03511">
        <ele>345</ele>
        <time>2018-06-10T10:33:41Z</time>
      </trkpt>
      <trkpt lat="44.69891" lon="5.03505">
        <ele>345</ele>
        <time>2018-06-10T10:33:43Z</time>
      </trkpt>
      <trkpt lat="44.69893" lon="5.03501">
        <ele>345</ele>
        <time>2018-06-10T10:33:45Z</time>
      </trkpt>
      <trkpt lat="44.69898" lon="5.03497">
        <ele>345</ele>
        <time>2018-06-10T10:33:47Z</time>
      </trkpt>
      <trkpt lat="44.69901" lon="5.03495">
        <ele>345</ele>
        <time>2018-06-10T10:33:49Z</time>
      </trkpt>
      <trkpt lat="44.69905" lon="5.03493">
        <ele>345</ele>
        <time>2018-06-10T10:33:51Z</time>
      </trkpt>
      <trkpt lat="44.69908" lon="5.03491">
        <ele>346</ele>
        <time>2018-06-10T10:33:53Z</time>
      </trkpt>
      <trkpt lat="44.69911" lon="5.03489">
        <ele>347</ele>
        <time>2018-06-10T10:33:55Z</time>
      </trkpt>
      <trkpt lat="44.69914" lon="5.03488">
        <ele>347</ele>
        <time>2018-06-10T10:33:57Z</time>
      </trkpt>
      <trkpt lat="44.69916" lon="5.03486">
        <ele>348</ele>
        <time>2018-06-10T10:33:59Z</time>
      </trkpt>
      <trkpt lat="44.69919" lon="5.03485">
        <ele>348</ele>
        <time>2018-06-10T10:34:01Z</time>
      </trkpt>
      <trkpt lat="44.69922" lon="5.03483">
        <ele>348</ele>
        <time>2018-06-10T10:34:03Z</time>
      </trkpt>
      <trkpt lat="44.69924" lon="5.03481">
        <ele>349</ele>
        <time>2018-06-10T10:34:05Z</time>
      </trkpt>
      <trkpt lat="44.69928" lon="5.0348">
        <ele>349</ele>
        <time>2018-06-10T10:34:07Z</time>
      </trkpt>
      <trkpt lat="44.69931" lon="5.03478">
        <ele>350</ele>
        <time>2018-06-10T10:34:09Z</time>
      </trkpt>
      <trkpt lat="44.69934" lon="5.03477">
        <ele>350</ele>
        <time>2018-06-10T10:34:12Z</time>
      </trkpt>
      <trkpt lat="44.69935" lon="5.03477">
        <ele>350</ele>
        <time>2018-06-10T10:34:14Z</time>
      </trkpt>
      <trkpt lat="44.69938" lon="5.03477">
        <ele>350</ele>
        <time>2018-06-10T10:34:16Z</time>
      </trkpt>
      <trkpt lat="44.6994" lon="5.03477">
        <ele>351</ele>
        <time>2018-06-10T10:34:18Z</time>
      </trkpt>
      <trkpt lat="44.69942" lon="5.03478">
        <ele>351</ele>
        <time>2018-06-10T10:34:20Z</time>
      </trkpt>
      <trkpt lat="44.69945" lon="5.03478">
        <ele>352</ele>
        <time>2018-06-10T10:34:22Z</time>
      </trkpt>
      <trkpt lat="44.69946" lon="5.03478">
        <ele>352</ele>
        <time>2018-06-10T10:34:24Z</time>
      </trkpt>
      <trkpt lat="44.69949" lon="5.03478">
        <ele>353</ele>
        <time>2018-06-10T10:34:26Z</time>
      </trkpt>
      <trkpt lat="44.69951" lon="5.03477">
        <ele>353</ele>
        <time>2018-06-10T10:34:28Z</time>
      </trkpt>
      <trkpt lat="44.69953" lon="5.03476">
        <ele>353</ele>
        <time>2018-06-10T10:34:30Z</time>
      </trkpt>
      <trkpt lat="44.69956" lon="5.03475">
        <ele>353</ele>
        <time>2018-06-10T10:34:32Z</time>
      </trkpt>
      <trkpt lat="44.69959" lon="5.03474">
        <ele>353</ele>
        <time>2018-06-10T10:34:34Z</time>
      </trkpt>
      <trkpt lat="44.69963" lon="5.03474">
        <ele>353</ele>
        <time>2018-06-10T10:34:36Z</time>
      </trkpt>
      <trkpt lat="44.69966" lon="5.03473">
        <ele>353</ele>
        <time>2018-06-10T10:34:38Z</time>
      </trkpt>
      <trkpt lat="44.6997" lon="5.03472">
        <ele>353</ele>
        <time>2018-06-10T10:34:40Z</time>
      </trkpt>
      <trkpt lat="44.69974" lon="5.03471">
        <ele>353</ele>
        <time>2018-06-10T10:34:42Z</time>
      </trkpt>
      <trkpt lat="44.69977" lon="5.0347">
        <ele>353</ele>
        <time>2018-06-10T10:34:44Z</time>
      </trkpt>
      <trkpt lat="44.69983" lon="5.03469">
        <ele>353</ele>
        <time>2018-06-10T10:34:46Z</time>
      </trkpt>
      <trkpt lat="44.6999" lon="5.03468">
        <ele>352</ele>
        <time>2018-06-10T10:34:48Z</time>
      </trkpt>
      <trkpt lat="44.69996" lon="5.03469">
        <ele>353</ele>
        <time>2018-06-10T10:34:50Z</time>
      </trkpt>
      <trkpt lat="44.70001" lon="5.03471">
        <ele>351</ele>
        <time>2018-06-10T10:34:52Z</time>
      </trkpt>
      <trkpt lat="44.7001" lon="5.03475">
        <ele>350</ele>
        <time>2018-06-10T10:34:54Z</time>
      </trkpt>
      <trkpt lat="44.7002" lon="5.03482">
        <ele>347</ele>
        <time>2018-06-10T10:34:56Z</time>
      </trkpt>
      <trkpt lat="44.70031" lon="5.03485">
        <ele>345</ele>
        <time>2018-06-10T10:34:58Z</time>
      </trkpt>
      <trkpt lat="44.70039" lon="5.03477">
        <ele>344</ele>
        <time>2018-06-10T10:35:00Z</time>
      </trkpt>
      <trkpt lat="44.70047" lon="5.03473">
        <ele>343</ele>
        <time>2018-06-10T10:35:02Z</time>
      </trkpt>
      <trkpt lat="44.70056" lon="5.0347">
        <ele>341</ele>
        <time>2018-06-10T10:35:04Z</time>
      </trkpt>
      <trkpt lat="44.70067" lon="5.03467">
        <ele>338</ele>
        <time>2018-06-10T10:35:07Z</time>
      </trkpt>
      <trkpt lat="44.70077" lon="5.03466">
        <ele>337</ele>
        <time>2018-06-10T10:35:09Z</time>
      </trkpt>
      <trkpt lat="44.70089" lon="5.03472">
        <ele>335</ele>
        <time>2018-06-10T10:35:11Z</time>
      </trkpt>
      <trkpt lat="44.70101" lon="5.03482">
        <ele>333</ele>
        <time>2018-06-10T10:35:13Z</time>
      </trkpt>
      <trkpt lat="44.70114" lon="5.03496">
        <ele>333</ele>
        <time>2018-06-10T10:35:15Z</time>
      </trkpt>
      <trkpt lat="44.70128" lon="5.03509">
        <ele>332</ele>
        <time>2018-06-10T10:35:17Z</time>
      </trkpt>
      <trkpt lat="44.70141" lon="5.0352">
        <ele>331</ele>
        <time>2018-06-10T10:35:19Z</time>
      </trkpt>
      <trkpt lat="44.70155" lon="5.0353">
        <ele>331</ele>
        <time>2018-06-10T10:35:21Z</time>
      </trkpt>
      <trkpt lat="44.70168" lon="5.0354">
        <ele>331</ele>
        <time>2018-06-10T10:35:23Z</time>
      </trkpt>
      <trkpt lat="44.70183" lon="5.03556">
        <ele>331</ele>
        <time>2018-06-10T10:35:25Z</time>
      </trkpt>
      <trkpt lat="44.70188" lon="5.03561">
        <ele>331</ele>
        <time>2018-06-10T10:35:27Z</time>
      </trkpt>
      <trkpt lat="44.70191" lon="5.03558">
        <ele>331</ele>
        <time>2018-06-10T10:35:29Z</time>
      </trkpt>
      <trkpt lat="44.7019" lon="5.03553">
        <ele>330</ele>
        <time>2018-06-10T10:35:31Z</time>
      </trkpt>
      <trkpt lat="44.70187" lon="5.03545">
        <ele>329</ele>
        <time>2018-06-10T10:35:33Z</time>
      </trkpt>
      <trkpt lat="44.70183" lon="5.03537">
        <ele>328</ele>
        <time>2018-06-10T10:35:35Z</time>
      </trkpt>
      <trkpt lat="44.70181" lon="5.03529">
        <ele>328</ele>
        <time>2018-06-10T10:35:37Z</time>
      </trkpt>
      <trkpt lat="44.70177" lon="5.03524">
        <ele>328</ele>
        <time>2018-06-10T10:35:39Z</time>
      </trkpt>
      <trkpt lat="44.70172" lon="5.03515">
        <ele>326</ele>
        <time>2018-06-10T10:35:41Z</time>
      </trkpt>
      <trkpt lat="44.7017" lon="5.03507">
        <ele>325</ele>
        <time>2018-06-10T10:35:43Z</time>
      </trkpt>
      <trkpt lat="44.70167" lon="5.03495">
        <ele>323</ele>
        <time>2018-06-10T10:35:45Z</time>
      </trkpt>
      <trkpt lat="44.7016" lon="5.03486">
        <ele>322</ele>
        <time>2018-06-10T10:35:47Z</time>
      </trkpt>
      <trkpt lat="44.70152" lon="5.03481">
        <ele>320</ele>
        <time>2018-06-10T10:35:49Z</time>
      </trkpt>
      <trkpt lat="44.70145" lon="5.03476">
        <ele>320</ele>
        <time>2018-06-10T10:35:51Z</time>
      </trkpt>
      <trkpt lat="44.70137" lon="5.03469">
        <ele>319</ele>
        <time>2018-06-10T10:35:53Z</time>
      </trkpt>
      <trkpt lat="44.70134" lon="5.03461">
        <ele>319</ele>
        <time>2018-06-10T10:35:56Z</time>
      </trkpt>
      <trkpt lat="44.70134" lon="5.03453">
        <ele>319</ele>
        <time>2018-06-10T10:35:58Z</time>
      </trkpt>
      <trkpt lat="44.70135" lon="5.0345">
        <ele>319</ele>
        <time>2018-06-10T10:36:00Z</time>
      </trkpt>
      <trkpt lat="44.70138" lon="5.03447">
        <ele>319</ele>
        <time>2018-06-10T10:36:02Z</time>
      </trkpt>
      <trkpt lat="44.7014" lon="5.03444">
        <ele>320</ele>
        <time>2018-06-10T10:36:04Z</time>
      </trkpt>
      <trkpt lat="44.70143" lon="5.0344">
        <ele>320</ele>
        <time>2018-06-10T10:36:06Z</time>
      </trkpt>
      <trkpt lat="44.7015" lon="5.03435">
        <ele>320</ele>
        <time>2018-06-10T10:36:08Z</time>
      </trkpt>
      <trkpt lat="44.70155" lon="5.03427">
        <ele>320</ele>
        <time>2018-06-10T10:36:10Z</time>
      </trkpt>
      <trkpt lat="44.70157" lon="5.03422">
        <ele>320</ele>
        <time>2018-06-10T10:36:12Z</time>
      </trkpt>
      <trkpt lat="44.70159" lon="5.03418">
        <ele>321</ele>
        <time>2018-06-10T10:36:14Z</time>
      </trkpt>
      <trkpt lat="44.70162" lon="5.03413">
        <ele>321</ele>
        <time>2018-06-10T10:36:16Z</time>
      </trkpt>
      <trkpt lat="44.70166" lon="5.03407">
        <ele>321</ele>
        <time>2018-06-10T10:36:18Z</time>
      </trkpt>
      <trkpt lat="44.7017" lon="5.03402">
        <ele>321</ele>
        <time>2018-06-10T10:36:20Z</time>
      </trkpt>
      <trkpt lat="44.70174" lon="5.03395">
        <ele>321</ele>
        <time>2018-06-10T10:36:22Z</time>
      </trkpt>
      <trkpt lat="44.70178" lon="5.03388">
        <ele>321</ele>
        <time>2018-06-10T10:36:24Z</time>
      </trkpt>
      <trkpt lat="44.70181" lon="5.03382">
        <ele>322</ele>
        <time>2018-06-10T10:36:26Z</time>
      </trkpt>
      <trkpt lat="44.70184" lon="5.0338">
        <ele>321</ele>
        <time>2018-06-10T10:36:28Z</time>
      </trkpt>
      <trkpt lat="44.70187" lon="5.03377">
        <ele>321</ele>
        <time>2018-06-10T10:36:30Z</time>
      </trkpt>
      <trkpt lat="44.70191" lon="5.03373">
        <ele>320</ele>
        <time>2018-06-10T10:36:32Z</time>
      </trkpt>
      <trkpt lat="44.70193" lon="5.03367">
        <ele>319</ele>
        <time>2018-06-10T10:36:34Z</time>
      </trkpt>
      <trkpt lat="44.70192" lon="5.03365">
        <ele>319</ele>
        <time>2018-06-10T10:36:36Z</time>
      </trkpt>
      <trkpt lat="44.70189" lon="5.03362">
        <ele>319</ele>
        <time>2018-06-10T10:36:38Z</time>
      </trkpt>
      <trkpt lat="44.70187" lon="5.0336">
        <ele>320</ele>
        <time>2018-06-10T10:36:40Z</time>
      </trkpt>
      <trkpt lat="44.70184" lon="5.03354">
        <ele>319</ele>
        <time>2018-06-10T10:36:42Z</time>
      </trkpt>
      <trkpt lat="44.70179" lon="5.03349">
        <ele>318</ele>
        <time>2018-06-10T10:36:44Z</time>
      </trkpt>
      <trkpt lat="44.70173" lon="5.03343">
        <ele>318</ele>
        <time>2018-06-10T10:36:46Z</time>
      </trkpt>
      <trkpt lat="44.70169" lon="5.03337">
        <ele>318</ele>
        <time>2018-06-10T10:36:48Z</time>
      </trkpt>
      <trkpt lat="44.70165" lon="5.0333">
        <ele>318</ele>
        <time>2018-06-10T10:36:50Z</time>
      </trkpt>
      <trkpt lat="44.70162" lon="5.03323">
        <ele>317</ele>
        <time>2018-06-10T10:36:52Z</time>
      </trkpt>
      <trkpt lat="44.70158" lon="5.03314">
        <ele>317</ele>
        <time>2018-06-10T10:36:54Z</time>
      </trkpt>
      <trkpt lat="44.70154" lon="5.03306">
        <ele>316</ele>
        <time>2018-06-10T10:36:56Z</time>
      </trkpt>
      <trkpt lat="44.7015" lon="5.03296">
        <ele>317</ele>
        <time>2018-06-10T10:36:58Z</time>
      </trkpt>
      <trkpt lat="44.70147" lon="5.03287">
        <ele>317</ele>
        <time>2018-06-10T10:37:00Z</time>
      </trkpt>
      <trkpt lat="44.70143" lon="5.0328">
        <ele>316</ele>
        <time>2018-06-10T10:37:02Z</time>
      </trkpt>
      <trkpt lat="44.70139" lon="5.03276">
        <ele>316</ele>
        <time>2018-06-10T10:37:05Z</time>
      </trkpt>
      <trkpt lat="44.70135" lon="5.03272">
        <ele>316</ele>
        <time>2018-06-10T10:37:07Z</time>
      </trkpt>
      <trkpt lat="44.70133" lon="5.03268">
        <ele>317</ele>
        <time>2018-06-10T10:37:09Z</time>
      </trkpt>
      <trkpt lat="44.70131" lon="5.03263">
        <ele>317</ele>
        <time>2018-06-10T10:37:11Z</time>
      </trkpt>
      <trkpt lat="44.70127" lon="5.0326">
        <ele>317</ele>
        <time>2018-06-10T10:37:13Z</time>
      </trkpt>
      <trkpt lat="44.70123" lon="5.03255">
        <ele>317</ele>
        <time>2018-06-10T10:37:15Z</time>
      </trkpt>
      <trkpt lat="44.70121" lon="5.03251">
        <ele>318</ele>
        <time>2018-06-10T10:37:17Z</time>
      </trkpt>
      <trkpt lat="44.70118" lon="5.03247">
        <ele>318</ele>
        <time>2018-06-10T10:37:19Z</time>
      </trkpt>
      <trkpt lat="44.70115" lon="5.03242">
        <ele>318</ele>
        <time>2018-06-10T10:37:21Z</time>
      </trkpt>
      <trkpt lat="44.70111" lon="5.03238">
        <ele>318</ele>
        <time>2018-06-10T10:37:23Z</time>
      </trkpt>
      <trkpt lat="44.70108" lon="5.03235">
        <ele>318</ele>
        <time>2018-06-10T10:37:25Z</time>
      </trkpt>
      <trkpt lat="44.70104" lon="5.03233">
        <ele>318</ele>
        <time>2018-06-10T10:37:27Z</time>
      </trkpt>
      <trkpt lat="44.70099" lon="5.0323">
        <ele>318</ele>
        <time>2018-06-10T10:37:29Z</time>
      </trkpt>
      <trkpt lat="44.70095" lon="5.03228">
        <ele>319</ele>
        <time>2018-06-10T10:37:31Z</time>
      </trkpt>
      <trkpt lat="44.70091" lon="5.03227">
        <ele>319</ele>
        <time>2018-06-10T10:37:33Z</time>
      </trkpt>
      <trkpt lat="44.70086" lon="5.03225">
        <ele>319</ele>
        <time>2018-06-10T10:37:35Z</time>
      </trkpt>
      <trkpt lat="44.7008" lon="5.03222">
        <ele>319</ele>
        <time>2018-06-10T10:37:37Z</time>
      </trkpt>
      <trkpt lat="44.70075" lon="5.03221">
        <ele>319</ele>
        <time>2018-06-10T10:37:39Z</time>
      </trkpt>
      <trkpt lat="44.70069" lon="5.03221">
        <ele>319</ele>
        <time>2018-06-10T10:37:41Z</time>
      </trkpt>
      <trkpt lat="44.70063" lon="5.03219">
        <ele>319</ele>
        <time>2018-06-10T10:37:43Z</time>
      </trkpt>
      <trkpt lat="44.70057" lon="5.0322">
        <ele>319</ele>
        <time>2018-06-10T10:37:45Z</time>
      </trkpt>
      <trkpt lat="44.70051" lon="5.03219">
        <ele>318</ele>
        <time>2018-06-10T10:37:47Z</time>
      </trkpt>
      <trkpt lat="44.70045" lon="5.03221">
        <ele>318</ele>
        <time>2018-06-10T10:37:49Z</time>
      </trkpt>
      <trkpt lat="44.70038" lon="5.03221">
        <ele>318</ele>
        <time>2018-06-10T10:37:51Z</time>
      </trkpt>
      <trkpt lat="44.70029" lon="5.03221">
        <ele>318</ele>
        <time>2018-06-10T10:37:53Z</time>
      </trkpt>
      <trkpt lat="44.70021" lon="5.03223">
        <ele>317</ele>
        <time>2018-06-10T10:37:55Z</time>
      </trkpt>
      <trkpt lat="44.7001" lon="5.03224">
        <ele>316</ele>
        <time>2018-06-10T10:37:57Z</time>
      </trkpt>
      <trkpt lat="44.69999" lon="5.03228">
        <ele>315</ele>
        <time>2018-06-10T10:37:59Z</time>
      </trkpt>
      <trkpt lat="44.69991" lon="5.03231">
        <ele>313</ele>
        <time>2018-06-10T10:38:01Z</time>
      </trkpt>
      <trkpt lat="44.69982" lon="5.03232">
        <ele>311</ele>
        <time>2018-06-10T10:38:03Z</time>
      </trkpt>
      <trkpt lat="44.69973" lon="5.03232">
        <ele>311</ele>
        <time>2018-06-10T10:38:06Z</time>
      </trkpt>
      <trkpt lat="44.6997" lon="5.03233">
        <ele>310</ele>
        <time>2018-06-10T10:38:08Z</time>
      </trkpt>
      <trkpt lat="44.69966" lon="5.03231">
        <ele>310</ele>
        <time>2018-06-10T10:38:10Z</time>
      </trkpt>
      <trkpt lat="44.69963" lon="5.03229">
        <ele>310</ele>
        <time>2018-06-10T10:38:12Z</time>
      </trkpt>
      <trkpt lat="44.69963" lon="5.03226">
        <ele>310</ele>
        <time>2018-06-10T10:38:14Z</time>
      </trkpt>
      <trkpt lat="44.69963" lon="5.03223">
        <ele>310</ele>
        <time>2018-06-10T10:38:16Z</time>
      </trkpt>
      <trkpt lat="44.69964" lon="5.0322">
        <ele>310</ele>
        <time>2018-06-10T10:38:18Z</time>
      </trkpt>
      <trkpt lat="44.69966" lon="5.03216">
        <ele>310</ele>
        <time>2018-06-10T10:38:20Z</time>
      </trkpt>
      <trkpt lat="44.69969" lon="5.03211">
        <ele>310</ele>
        <time>2018-06-10T10:38:22Z</time>
      </trkpt>
      <trkpt lat="44.69972" lon="5.03206">
        <ele>310</ele>
        <time>2018-06-10T10:38:24Z</time>
      </trkpt>
      <trkpt lat="44.69976" lon="5.03202">
        <ele>311</ele>
        <time>2018-06-10T10:38:26Z</time>
      </trkpt>
      <trkpt lat="44.69979" lon="5.03199">
        <ele>311</ele>
        <time>2018-06-10T10:38:28Z</time>
      </trkpt>
      <trkpt lat="44.69981" lon="5.03193">
        <ele>312</ele>
        <time>2018-06-10T10:38:30Z</time>
      </trkpt>
      <trkpt lat="44.69981" lon="5.03188">
        <ele>312</ele>
        <time>2018-06-10T10:38:32Z</time>
      </trkpt>
      <trkpt lat="44.69984" lon="5.03184">
        <ele>313</ele>
        <time>2018-06-10T10:38:34Z</time>
      </trkpt>
      <trkpt lat="44.69987" lon="5.03181">
        <ele>313</ele>
        <time>2018-06-10T10:38:36Z</time>
      </trkpt>
      <trkpt lat="44.69993" lon="5.03177">
        <ele>312</ele>
        <time>2018-06-10T10:38:38Z</time>
      </trkpt>
      <trkpt lat="44.69998" lon="5.03174">
        <ele>312</ele>
        <time>2018-06-10T10:38:40Z</time>
      </trkpt>
      <trkpt lat="44.70001" lon="5.03172">
        <ele>312</ele>
        <time>2018-06-10T10:38:42Z</time>
      </trkpt>
      <trkpt lat="44.70009" lon="5.03164">
        <ele>312</ele>
        <time>2018-06-10T10:38:44Z</time>
      </trkpt>
      <trkpt lat="44.70015" lon="5.03159">
        <ele>312</ele>
        <time>2018-06-10T10:38:46Z</time>
      </trkpt>
      <trkpt lat="44.70018" lon="5.03154">
        <ele>312</ele>
        <time>2018-06-10T10:38:48Z</time>
      </trkpt>
      <trkpt lat="44.70025" lon="5.03149">
        <ele>312</ele>
        <time>2018-06-10T10:38:50Z</time>
      </trkpt>
      <trkpt lat="44.70032" lon="5.03146">
        <ele>312</ele>
        <time>2018-06-10T10:38:52Z</time>
      </trkpt>
      <trkpt lat="44.70039" lon="5.03138">
        <ele>313</ele>
        <time>2018-06-10T10:38:54Z</time>
      </trkpt>
      <trkpt lat="44.70044" lon="5.03132">
        <ele>313</ele>
        <time>2018-06-10T10:38:56Z</time>
      </trkpt>
      <trkpt lat="44.70049" lon="5.03128">
        <ele>313</ele>
        <time>2018-06-10T10:38:58Z</time>
      </trkpt>
      <trkpt lat="44.70053" lon="5.03123">
        <ele>313</ele>
        <time>2018-06-10T10:39:00Z</time>
      </trkpt>
      <trkpt lat="44.7006" lon="5.0312">
        <ele>313</ele>
        <time>2018-06-10T10:39:02Z</time>
      </trkpt>
      <trkpt lat="44.70063" lon="5.03116">
        <ele>314</ele>
        <time>2018-06-10T10:39:04Z</time>
      </trkpt>
      <trkpt lat="44.70067" lon="5.03112">
        <ele>314</ele>
        <time>2018-06-10T10:39:06Z</time>
      </trkpt>
      <trkpt lat="44.70072" lon="5.03109">
        <ele>314</ele>
        <time>2018-06-10T10:39:08Z</time>
      </trkpt>
      <trkpt lat="44.70075" lon="5.03106">
        <ele>315</ele>
        <time>2018-06-10T10:39:10Z</time>
      </trkpt>
      <trkpt lat="44.70078" lon="5.03104">
        <ele>315</ele>
        <time>2018-06-10T10:39:12Z</time>
      </trkpt>
      <trkpt lat="44.70081" lon="5.03101">
        <ele>316</ele>
        <time>2018-06-10T10:39:14Z</time>
      </trkpt>
      <trkpt lat="44.70084" lon="5.03099">
        <ele>316</ele>
        <time>2018-06-10T10:39:16Z</time>
      </trkpt>
      <trkpt lat="44.70086" lon="5.03096">
        <ele>316</ele>
        <time>2018-06-10T10:39:18Z</time>
      </trkpt>
      <trkpt lat="44.70088" lon="5.03093">
        <ele>317</ele>
        <time>2018-06-10T10:39:20Z</time>
      </trkpt>
      <trkpt lat="44.7009" lon="5.03089">
        <ele>317</ele>
        <time>2018-06-10T10:39:22Z</time>
      </trkpt>
      <trkpt lat="44.70092" lon="5.03086">
        <ele>318</ele>
        <time>2018-06-10T10:39:25Z</time>
      </trkpt>
      <trkpt lat="44.70094" lon="5.03083">
        <ele>318</ele>
        <time>2018-06-10T10:39:27Z</time>
      </trkpt>
      <trkpt lat="44.70096" lon="5.0308">
        <ele>318</ele>
        <time>2018-06-10T10:39:29Z</time>
      </trkpt>
      <trkpt lat="44.70097" lon="5.03076">
        <ele>318</ele>
        <time>2018-06-10T10:39:31Z</time>
      </trkpt>
      <trkpt lat="44.70099" lon="5.03073">
        <ele>318</ele>
        <time>2018-06-10T10:39:33Z</time>
      </trkpt>
      <trkpt lat="44.701" lon="5.03069">
        <ele>319</ele>
        <time>2018-06-10T10:39:35Z</time>
      </trkpt>
      <trkpt lat="44.70102" lon="5.03064">
        <ele>319</ele>
        <time>2018-06-10T10:39:37Z</time>
      </trkpt>
      <trkpt lat="44.70103" lon="5.03061">
        <ele>319</ele>
        <time>2018-06-10T10:39:39Z</time>
      </trkpt>
      <trkpt lat="44.70104" lon="5.03059">
        <ele>319</ele>
        <time>2018-06-10T10:39:41Z</time>
      </trkpt>
      <trkpt lat="44.70104" lon="5.03057">
        <ele>319</ele>
        <time>2018-06-10T10:39:43Z</time>
      </trkpt>
      <trkpt lat="44.70104" lon="5.03053">
        <ele>319</ele>
        <time>2018-06-10T10:39:45Z</time>
      </trkpt>
      <trkpt lat="44.70104" lon="5.03048">
        <ele>319</ele>
        <time>2018-06-10T10:39:47Z</time>
      </trkpt>
      <trkpt lat="44.70104" lon="5.03045">
        <ele>319</ele>
        <time>2018-06-10T10:39:49Z</time>
      </trkpt>
      <trkpt lat="44.70104" lon="5.03041">
        <ele>320</ele>
        <time>2018-06-10T10:39:51Z</time>
      </trkpt>
      <trkpt lat="44.70104" lon="5.03036">
        <ele>320</ele>
        <time>2018-06-10T10:39:53Z</time>
      </trkpt>
      <trkpt lat="44.70104" lon="5.03032">
        <ele>320</ele>
        <time>2018-06-10T10:39:55Z</time>
      </trkpt>
      <trkpt lat="44.70104" lon="5.03027">
        <ele>320</ele>
        <time>2018-06-10T10:39:57Z</time>
      </trkpt>
      <trkpt lat="44.70104" lon="5.03021">
        <ele>321</ele>
        <time>2018-06-10T10:39:59Z</time>
      </trkpt>
      <trkpt lat="44.70105" lon="5.03017">
        <ele>321</ele>
        <time>2018-06-10T10:40:01Z</time>
      </trkpt>
      <trkpt lat="44.70105" lon="5.03013">
        <ele>321</ele>
        <time>2018-06-10T10:40:03Z</time>
      </trkpt>
      <trkpt lat="44.70106" lon="5.03009">
        <ele>322</ele>
        <time>2018-06-10T10:40:05Z</time>
      </trkpt>
      <trkpt lat="44.70106" lon="5.03005">
        <ele>322</ele>
        <time>2018-06-10T10:40:07Z</time>
      </trkpt>
      <trkpt lat="44.70107" lon="5.03001">
        <ele>322</ele>
        <time>2018-06-10T10:40:09Z</time>
      </trkpt>
      <trkpt lat="44.70109" lon="5.02997">
        <ele>322</ele>
        <time>2018-06-10T10:40:11Z</time>
      </trkpt>
      <trkpt lat="44.7011" lon="5.02994">
        <ele>322</ele>
        <time>2018-06-10T10:40:13Z</time>
      </trkpt>
      <trkpt lat="44.70111" lon="5.0299">
        <ele>323</ele>
        <time>2018-06-10T10:40:15Z</time>
      </trkpt>
      <trkpt lat="44.70111" lon="5.02987">
        <ele>323</ele>
        <time>2018-06-10T10:40:17Z</time>
      </trkpt>
      <trkpt lat="44.70112" lon="5.02983">
        <ele>323</ele>
        <time>2018-06-10T10:40:19Z</time>
      </trkpt>
      <trkpt lat="44.70113" lon="5.02979">
        <ele>324</ele>
        <time>2018-06-10T10:40:21Z</time>
      </trkpt>
      <trkpt lat="44.70114" lon="5.02976">
        <ele>324</ele>
        <time>2018-06-10T10:40:23Z</time>
      </trkpt>
      <trkpt lat="44.70114" lon="5.02973">
        <ele>324</ele>
        <time>2018-06-10T10:40:25Z</time>
      </trkpt>
      <trkpt lat="44.70115" lon="5.02969">
        <ele>325</ele>
        <time>2018-06-10T10:40:28Z</time>
      </trkpt>
      <trkpt lat="44.70116" lon="5.02967">
        <ele>325</ele>
        <time>2018-06-10T10:40:30Z</time>
      </trkpt>
      <trkpt lat="44.70117" lon="5.02962">
        <ele>326</ele>
        <time>2018-06-10T10:40:32Z</time>
      </trkpt>
      <trkpt lat="44.70118" lon="5.02959">
        <ele>326</ele>
        <time>2018-06-10T10:40:34Z</time>
      </trkpt>
      <trkpt lat="44.70119" lon="5.02956">
        <ele>327</ele>
        <time>2018-06-10T10:40:36Z</time>
      </trkpt>
      <trkpt lat="44.70121" lon="5.02953">
        <ele>326</ele>
        <time>2018-06-10T10:40:38Z</time>
      </trkpt>
      <trkpt lat="44.7012" lon="5.02951">
        <ele>327</ele>
        <time>2018-06-10T10:40:40Z</time>
      </trkpt>
      <trkpt lat="44.70119" lon="5.0295">
        <ele>328</ele>
        <time>2018-06-10T10:40:42Z</time>
      </trkpt>
      <trkpt lat="44.70116" lon="5.02949">
        <ele>328</ele>
        <time>2018-06-10T10:40:44Z</time>
      </trkpt>
      <trkpt lat="44.70113" lon="5.02949">
        <ele>328</ele>
        <time>2018-06-10T10:40:46Z</time>
      </trkpt>
      <trkpt lat="44.70109" lon="5.02949">
        <ele>328</ele>
        <time>2018-06-10T10:40:48Z</time>
      </trkpt>
      <trkpt lat="44.70104" lon="5.02948">
        <ele>328</ele>
        <time>2018-06-10T10:40:50Z</time>
      </trkpt>
      <trkpt lat="44.701" lon="5.02947">
        <ele>328</ele>
        <time>2018-06-10T10:40:52Z</time>
      </trkpt>
      <trkpt lat="44.70096" lon="5.02946">
        <ele>328</ele>
        <time>2018-06-10T10:40:54Z</time>
      </trkpt>
      <trkpt lat="44.70092" lon="5.02944">
        <ele>328</ele>
        <time>2018-06-10T10:40:56Z</time>
      </trkpt>
      <trkpt lat="44.70088" lon="5.02943">
        <ele>328</ele>
        <time>2018-06-10T10:40:58Z</time>
      </trkpt>
      <trkpt lat="44.70083" lon="5.02941">
        <ele>329</ele>
        <time>2018-06-10T10:41:00Z</time>
      </trkpt>
      <trkpt lat="44.70079" lon="5.0294">
        <ele>329</ele>
        <time>2018-06-10T10:41:02Z</time>
      </trkpt>
      <trkpt lat="44.70075" lon="5.02938">
        <ele>329</ele>
        <time>2018-06-10T10:41:04Z</time>
      </trkpt>
      <trkpt lat="44.70071" lon="5.02936">
        <ele>330</ele>
        <time>2018-06-10T10:41:06Z</time>
      </trkpt>
      <trkpt lat="44.70067" lon="5.02935">
        <ele>330</ele>
        <time>2018-06-10T10:41:08Z</time>
      </trkpt>
      <trkpt lat="44.70063" lon="5.02934">
        <ele>330</ele>
        <time>2018-06-10T10:41:10Z</time>
      </trkpt>
      <trkpt lat="44.7006" lon="5.02933">
        <ele>331</ele>
        <time>2018-06-10T10:41:12Z</time>
      </trkpt>
      <trkpt lat="44.70057" lon="5.02932">
        <ele>330</ele>
        <time>2018-06-10T10:41:14Z</time>
      </trkpt>
      <trkpt lat="44.70054" lon="5.0293">
        <ele>331</ele>
        <time>2018-06-10T10:41:17Z</time>
      </trkpt>
      <trkpt lat="44.70051" lon="5.0293">
        <ele>331</ele>
        <time>2018-06-10T10:41:19Z</time>
      </trkpt>
      <trkpt lat="44.70048" lon="5.02929">
        <ele>331</ele>
        <time>2018-06-10T10:41:21Z</time>
      </trkpt>
      <trkpt lat="44.70043" lon="5.02928">
        <ele>332</ele>
        <time>2018-06-10T10:41:23Z</time>
      </trkpt>
      <trkpt lat="44.70039" lon="5.02927">
        <ele>332</ele>
        <time>2018-06-10T10:41:25Z</time>
      </trkpt>
      <trkpt lat="44.70035" lon="5.02926">
        <ele>332</ele>
        <time>2018-06-10T10:41:27Z</time>
      </trkpt>
      <trkpt lat="44.70032" lon="5.02926">
        <ele>332</ele>
        <time>2018-06-10T10:41:29Z</time>
      </trkpt>
      <trkpt lat="44.70029" lon="5.02925">
        <ele>332</ele>
        <time>2018-06-10T10:41:31Z</time>
      </trkpt>
      <trkpt lat="44.70027" lon="5.02925">
        <ele>332</ele>
        <time>2018-06-10T10:41:33Z</time>
      </trkpt>
      <trkpt lat="44.70022" lon="5.02923">
        <ele>332</ele>
        <time>2018-06-10T10:41:35Z</time>
      </trkpt>
      <trkpt lat="44.7002" lon="5.02923">
        <ele>332</ele>
        <time>2018-06-10T10:41:37Z</time>
      </trkpt>
      <trkpt lat="44.70017" lon="5.02923">
        <ele>333</ele>
        <time>2018-06-10T10:41:39Z</time>
      </trkpt>
      <trkpt lat="44.70012" lon="5.02921">
        <ele>333</ele>
        <time>2018-06-10T10:41:41Z</time>
      </trkpt>
      <trkpt lat="44.70009" lon="5.02921">
        <ele>333</ele>
        <time>2018-06-10T10:41:43Z</time>
      </trkpt>
      <trkpt lat="44.70006" lon="5.0292">
        <ele>333</ele>
        <time>2018-06-10T10:41:45Z</time>
      </trkpt>
      <trkpt lat="44.70002" lon="5.02919">
        <ele>334</ele>
        <time>2018-06-10T10:41:47Z</time>
      </trkpt>
      <trkpt lat="44.69999" lon="5.02919">
        <ele>334</ele>
        <time>2018-06-10T10:41:49Z</time>
      </trkpt>
      <trkpt lat="44.69994" lon="5.02917">
        <ele>334</ele>
        <time>2018-06-10T10:41:51Z</time>
      </trkpt>
      <trkpt lat="44.6999" lon="5.02916">
        <ele>334</ele>
        <time>2018-06-10T10:41:53Z</time>
      </trkpt>
      <trkpt lat="44.69985" lon="5.02915">
        <ele>334</ele>
        <time>2018-06-10T10:41:55Z</time>
      </trkpt>
      <trkpt lat="44.69981" lon="5.02913">
        <ele>334</ele>
        <time>2018-06-10T10:41:57Z</time>
      </trkpt>
      <trkpt lat="44.69976" lon="5.02912">
        <ele>334</ele>
        <time>2018-06-10T10:41:59Z</time>
      </trkpt>
      <trkpt lat="44.69972" lon="5.02909">
        <ele>335</ele>
        <time>2018-06-10T10:42:01Z</time>
      </trkpt>
      <trkpt lat="44.69969" lon="5.02906">
        <ele>335</ele>
        <time>2018-06-10T10:42:03Z</time>
      </trkpt>
      <trkpt lat="44.69965" lon="5.02904">
        <ele>335</ele>
        <time>2018-06-10T10:42:05Z</time>
      </trkpt>
      <trkpt lat="44.69962" lon="5.02901">
        <ele>334</ele>
        <time>2018-06-10T10:42:07Z</time>
      </trkpt>
      <trkpt lat="44.69959" lon="5.029">
        <ele>334</ele>
        <time>2018-06-10T10:42:09Z</time>
      </trkpt>
      <trkpt lat="44.69956" lon="5.02898">
        <ele>335</ele>
        <time>2018-06-10T10:42:11Z</time>
      </trkpt>
      <trkpt lat="44.69953" lon="5.02896">
        <ele>335</ele>
        <time>2018-06-10T10:42:13Z</time>
      </trkpt>
      <trkpt lat="44.6995" lon="5.02893">
        <ele>335</ele>
        <time>2018-06-10T10:42:15Z</time>
      </trkpt>
      <trkpt lat="44.69947" lon="5.0289">
        <ele>335</ele>
        <time>2018-06-10T10:42:17Z</time>
      </trkpt>
      <trkpt lat="44.69945" lon="5.02887">
        <ele>335</ele>
        <time>2018-06-10T10:42:19Z</time>
      </trkpt>
      <trkpt lat="44.69944" lon="5.02884">
        <ele>335</ele>
        <time>2018-06-10T10:42:21Z</time>
      </trkpt>
      <trkpt lat="44.69942" lon="5.02881">
        <ele>335</ele>
        <time>2018-06-10T10:42:23Z</time>
      </trkpt>
      <trkpt lat="44.6994" lon="5.02878">
        <ele>335</ele>
        <time>2018-06-10T10:42:25Z</time>
      </trkpt>
      <trkpt lat="44.69938" lon="5.02875">
        <ele>335</ele>
        <time>2018-06-10T10:42:27Z</time>
      </trkpt>
      <trkpt lat="44.69936" lon="5.02871">
        <ele>336</ele>
        <time>2018-06-10T10:42:30Z</time>
      </trkpt>
      <trkpt lat="44.69933" lon="5.02866">
        <ele>336</ele>
        <time>2018-06-10T10:42:32Z</time>
      </trkpt>
      <trkpt lat="44.69929" lon="5.02862">
        <ele>335</ele>
        <time>2018-06-10T10:42:34Z</time>
      </trkpt>
      <trkpt lat="44.69926" lon="5.02859">
        <ele>336</ele>
        <time>2018-06-10T10:42:36Z</time>
      </trkpt>
      <trkpt lat="44.69923" lon="5.02856">
        <ele>336</ele>
        <time>2018-06-10T10:42:38Z</time>
      </trkpt>
      <trkpt lat="44.6992" lon="5.02853">
        <ele>336</ele>
        <time>2018-06-10T10:42:40Z</time>
      </trkpt>
      <trkpt lat="44.69917" lon="5.02849">
        <ele>337</ele>
        <time>2018-06-10T10:42:42Z</time>
      </trkpt>
      <trkpt lat="44.69914" lon="5.02846">
        <ele>337</ele>
        <time>2018-06-10T10:42:44Z</time>
      </trkpt>
      <trkpt lat="44.69912" lon="5.02843">
        <ele>337</ele>
        <time>2018-06-10T10:42:46Z</time>
      </trkpt>
      <trkpt lat="44.69909" lon="5.0284">
        <ele>337</ele>
        <time>2018-06-10T10:42:48Z</time>
      </trkpt>
      <trkpt lat="44.69906" lon="5.02838">
        <ele>337</ele>
        <time>2018-06-10T10:42:50Z</time>
      </trkpt>
      <trkpt lat="44.69904" lon="5.02835">
        <ele>338</ele>
        <time>2018-06-10T10:42:52Z</time>
      </trkpt>
      <trkpt lat="44.69902" lon="5.02831">
        <ele>338</ele>
        <time>2018-06-10T10:42:54Z</time>
      </trkpt>
      <trkpt lat="44.699" lon="5.02828">
        <ele>338</ele>
        <time>2018-06-10T10:42:56Z</time>
      </trkpt>
      <trkpt lat="44.69898" lon="5.02826">
        <ele>338</ele>
        <time>2018-06-10T10:42:58Z</time>
      </trkpt>
      <trkpt lat="44.69895" lon="5.02823">
        <ele>338</ele>
        <time>2018-06-10T10:43:00Z</time>
      </trkpt>
      <trkpt lat="44.69893" lon="5.02822">
        <ele>337</ele>
        <time>2018-06-10T10:43:02Z</time>
      </trkpt>
      <trkpt lat="44.69891" lon="5.0282">
        <ele>337</ele>
        <time>2018-06-10T10:43:04Z</time>
      </trkpt>
      <trkpt lat="44.69889" lon="5.02819">
        <ele>337</ele>
        <time>2018-06-10T10:43:06Z</time>
      </trkpt>
      <trkpt lat="44.69887" lon="5.0282">
        <ele>338</ele>
        <time>2018-06-10T10:43:09Z</time>
      </trkpt>
      <trkpt lat="44.69886" lon="5.02822">
        <ele>338</ele>
        <time>2018-06-10T10:43:11Z</time>
      </trkpt>
      <trkpt lat="44.69886" lon="5.02824">
        <ele>338</ele>
        <time>2018-06-10T10:43:13Z</time>
      </trkpt>
      <trkpt lat="44.69887" lon="5.02822">
        <ele>338</ele>
        <time>2018-06-10T10:43:15Z</time>
      </trkpt>
      <trkpt lat="44.69886" lon="5.0282">
        <ele>338</ele>
        <time>2018-06-10T10:43:17Z</time>
      </trkpt>
      <trkpt lat="44.69886" lon="5.02818">
        <ele>338</ele>
        <time>2018-06-10T10:43:19Z</time>
      </trkpt>
      <trkpt lat="44.69886" lon="5.02817">
        <ele>338</ele>
        <time>2018-06-10T10:43:21Z</time>
      </trkpt>
      <trkpt lat="44.69886" lon="5.02815">
        <ele>338</ele>
        <time>2018-06-10T10:43:23Z</time>
      </trkpt>
      <trkpt lat="44.69885" lon="5.02811">
        <ele>338</ele>
        <time>2018-06-10T10:43:25Z</time>
      </trkpt>
      <trkpt lat="44.69884" lon="5.02807">
        <ele>338</ele>
        <time>2018-06-10T10:43:27Z</time>
      </trkpt>
      <trkpt lat="44.6988" lon="5.02804">
        <ele>338</ele>
        <time>2018-06-10T10:43:29Z</time>
      </trkpt>
      <trkpt lat="44.69876" lon="5.02802">
        <ele>338</ele>
        <time>2018-06-10T10:43:31Z</time>
      </trkpt>
      <trkpt lat="44.69874" lon="5.02799">
        <ele>338</ele>
        <time>2018-06-10T10:43:33Z</time>
      </trkpt>
      <trkpt lat="44.69872" lon="5.02795">
        <ele>338</ele>
        <time>2018-06-10T10:43:35Z</time>
      </trkpt>
      <trkpt lat="44.6987" lon="5.0279">
        <ele>338</ele>
        <time>2018-06-10T10:43:37Z</time>
      </trkpt>
      <trkpt lat="44.69868" lon="5.02787">
        <ele>338</ele>
        <time>2018-06-10T10:43:39Z</time>
      </trkpt>
      <trkpt lat="44.69866" lon="5.02783">
        <ele>338</ele>
        <time>2018-06-10T10:43:41Z</time>
      </trkpt>
      <trkpt lat="44.69864" lon="5.0278">
        <ele>338</ele>
        <time>2018-06-10T10:43:43Z</time>
      </trkpt>
      <trkpt lat="44.69863" lon="5.02776">
        <ele>339</ele>
        <time>2018-06-10T10:43:45Z</time>
      </trkpt>
      <trkpt lat="44.6986" lon="5.02772">
        <ele>338</ele>
        <time>2018-06-10T10:43:47Z</time>
      </trkpt>
      <trkpt lat="44.69858" lon="5.02768">
        <ele>339</ele>
        <time>2018-06-10T10:43:49Z</time>
      </trkpt>
      <trkpt lat="44.69856" lon="5.02764">
        <ele>339</ele>
        <time>2018-06-10T10:43:51Z</time>
      </trkpt>
      <trkpt lat="44.69853" lon="5.02761">
        <ele>339</ele>
        <time>2018-06-10T10:43:53Z</time>
      </trkpt>
      <trkpt lat="44.69851" lon="5.02757">
        <ele>339</ele>
        <time>2018-06-10T10:43:55Z</time>
      </trkpt>
      <trkpt lat="44.69848" lon="5.02754">
        <ele>339</ele>
        <time>2018-06-10T10:43:57Z</time>
      </trkpt>
      <trkpt lat="44.69843" lon="5.0275">
        <ele>339</ele>
        <time>2018-06-10T10:43:59Z</time>
      </trkpt>
      <trkpt lat="44.6984" lon="5.02747">
        <ele>339</ele>
        <time>2018-06-10T10:44:01Z</time>
      </trkpt>
      <trkpt lat="44.69837" lon="5.02744">
        <ele>339</ele>
        <time>2018-06-10T10:44:03Z</time>
      </trkpt>
      <trkpt lat="44.69833" lon="5.0274">
        <ele>340</ele>
        <time>2018-06-10T10:44:05Z</time>
      </trkpt>
      <trkpt lat="44.6983" lon="5.02735">
        <ele>340</ele>
        <time>2018-06-10T10:44:08Z</time>
      </trkpt>
      <trkpt lat="44.69827" lon="5.02732">
        <ele>340</ele>
        <time>2018-06-10T10:44:10Z</time>
      </trkpt>
      <trkpt lat="44.69824" lon="5.02728">
        <ele>340</ele>
        <time>2018-06-10T10:44:12Z</time>
      </trkpt>
      <trkpt lat="44.69823" lon="5.02726">
        <ele>340</ele>
        <time>2018-06-10T10:44:14Z</time>
      </trkpt>
      <trkpt lat="44.6982" lon="5.02723">
        <ele>340</ele>
        <time>2018-06-10T10:44:16Z</time>
      </trkpt>
      <trkpt lat="44.69818" lon="5.02721">
        <ele>341</ele>
        <time>2018-06-10T10:44:18Z</time>
      </trkpt>
      <trkpt lat="44.69816" lon="5.02719">
        <ele>341</ele>
        <time>2018-06-10T10:44:20Z</time>
      </trkpt>
      <trkpt lat="44.69813" lon="5.02719">
        <ele>341</ele>
        <time>2018-06-10T10:44:22Z</time>
      </trkpt>
      <trkpt lat="44.69811" lon="5.02718">
        <ele>342</ele>
        <time>2018-06-10T10:44:24Z</time>
      </trkpt>
      <trkpt lat="44.69809" lon="5.02716">
        <ele>342</ele>
        <time>2018-06-10T10:44:26Z</time>
      </trkpt>
      <trkpt lat="44.69807" lon="5.02713">
        <ele>343</ele>
        <time>2018-06-10T10:44:28Z</time>
      </trkpt>
      <trkpt lat="44.69804" lon="5.02711">
        <ele>343</ele>
        <time>2018-06-10T10:44:30Z</time>
      </trkpt>
      <trkpt lat="44.69802" lon="5.02709">
        <ele>344</ele>
        <time>2018-06-10T10:44:32Z</time>
      </trkpt>
      <trkpt lat="44.69799" lon="5.02708">
        <ele>344</ele>
        <time>2018-06-10T10:44:34Z</time>
      </trkpt>
      <trkpt lat="44.69796" lon="5.02706">
        <ele>344</ele>
        <time>2018-06-10T10:44:36Z</time>
      </trkpt>
      <trkpt lat="44.69794" lon="5.02705">
        <ele>345</ele>
        <time>2018-06-10T10:44:38Z</time>
      </trkpt>
      <trkpt lat="44.69791" lon="5.02704">
        <ele>345</ele>
        <time>2018-06-10T10:44:40Z</time>
      </trkpt>
      <trkpt lat="44.69788" lon="5.02703">
        <ele>345</ele>
        <time>2018-06-10T10:44:42Z</time>
      </trkpt>
      <trkpt lat="44.69785" lon="5.02702">
        <ele>346</ele>
        <time>2018-06-10T10:44:44Z</time>
      </trkpt>
      <trkpt lat="44.69783" lon="5.02701">
        <ele>345</ele>
        <time>2018-06-10T10:44:46Z</time>
      </trkpt>
      <trkpt lat="44.6978" lon="5.027">
        <ele>346</ele>
        <time>2018-06-10T10:44:48Z</time>
      </trkpt>
      <trkpt lat="44.69778" lon="5.02699">
        <ele>346</ele>
        <time>2018-06-10T10:44:50Z</time>
      </trkpt>
      <trkpt lat="44.69774" lon="5.02696">
        <ele>346</ele>
        <time>2018-06-10T10:44:52Z</time>
      </trkpt>
      <trkpt lat="44.69772" lon="5.02695">
        <ele>346</ele>
        <time>2018-06-10T10:44:54Z</time>
      </trkpt>
      <trkpt lat="44.69767" lon="5.02693">
        <ele>346</ele>
        <time>2018-06-10T10:44:57Z</time>
      </trkpt>
      <trkpt lat="44.69765" lon="5.02691">
        <ele>347</ele>
        <time>2018-06-10T10:44:59Z</time>
      </trkpt>
      <trkpt lat="44.69761" lon="5.02689">
        <ele>347</ele>
        <time>2018-06-10T10:45:01Z</time>
      </trkpt>
      <trkpt lat="44.69758" lon="5.02688">
        <ele>347</ele>
        <time>2018-06-10T10:45:03Z</time>
      </trkpt>
      <trkpt lat="44.69755" lon="5.02688">
        <ele>347</ele>
        <time>2018-06-10T10:45:05Z</time>
      </trkpt>
      <trkpt lat="44.69752" lon="5.02686">
        <ele>347</ele>
        <time>2018-06-10T10:45:07Z</time>
      </trkpt>
      <trkpt lat="44.69749" lon="5.02685">
        <ele>347</ele>
        <time>2018-06-10T10:45:09Z</time>
      </trkpt>
      <trkpt lat="44.69746" lon="5.02685">
        <ele>348</ele>
        <time>2018-06-10T10:45:11Z</time>
      </trkpt>
      <trkpt lat="44.69742" lon="5.02684">
        <ele>348</ele>
        <time>2018-06-10T10:45:13Z</time>
      </trkpt>
      <trkpt lat="44.6974" lon="5.02683">
        <ele>348</ele>
        <time>2018-06-10T10:45:15Z</time>
      </trkpt>
      <trkpt lat="44.69736" lon="5.02681">
        <ele>348</ele>
        <time>2018-06-10T10:45:17Z</time>
      </trkpt>
      <trkpt lat="44.69732" lon="5.02679">
        <ele>349</ele>
        <time>2018-06-10T10:45:19Z</time>
      </trkpt>
      <trkpt lat="44.69728" lon="5.02678">
        <ele>349</ele>
        <time>2018-06-10T10:45:21Z</time>
      </trkpt>
      <trkpt lat="44.69725" lon="5.02677">
        <ele>350</ele>
        <time>2018-06-10T10:45:23Z</time>
      </trkpt>
      <trkpt lat="44.69722" lon="5.02675">
        <ele>350</ele>
        <time>2018-06-10T10:45:25Z</time>
      </trkpt>
      <trkpt lat="44.69719" lon="5.02673">
        <ele>350</ele>
        <time>2018-06-10T10:45:27Z</time>
      </trkpt>
      <trkpt lat="44.69715" lon="5.02672">
        <ele>350</ele>
        <time>2018-06-10T10:45:29Z</time>
      </trkpt>
      <trkpt lat="44.69712" lon="5.02672">
        <ele>350</ele>
        <time>2018-06-10T10:45:31Z</time>
      </trkpt>
      <trkpt lat="44.69709" lon="5.02671">
        <ele>351</ele>
        <time>2018-06-10T10:45:33Z</time>
      </trkpt>
      <trkpt lat="44.69706" lon="5.02671">
        <ele>351</ele>
        <time>2018-06-10T10:45:35Z</time>
      </trkpt>
      <trkpt lat="44.69702" lon="5.02669">
        <ele>351</ele>
        <time>2018-06-10T10:45:37Z</time>
      </trkpt>
      <trkpt lat="44.69698" lon="5.02666">
        <ele>351</ele>
        <time>2018-06-10T10:45:39Z</time>
      </trkpt>
      <trkpt lat="44.69693" lon="5.02663">
        <ele>351</ele>
        <time>2018-06-10T10:45:41Z</time>
      </trkpt>
      <trkpt lat="44.69688" lon="5.02661">
        <ele>351</ele>
        <time>2018-06-10T10:45:43Z</time>
      </trkpt>
      <trkpt lat="44.69682" lon="5.02659">
        <ele>351</ele>
        <time>2018-06-10T10:45:45Z</time>
      </trkpt>
      <trkpt lat="44.69676" lon="5.02657">
        <ele>350</ele>
        <time>2018-06-10T10:45:47Z</time>
      </trkpt>
      <trkpt lat="44.6967" lon="5.02654">
        <ele>351</ele>
        <time>2018-06-10T10:45:49Z</time>
      </trkpt>
      <trkpt lat="44.69664" lon="5.02651">
        <ele>351</ele>
        <time>2018-06-10T10:45:51Z</time>
      </trkpt>
      <trkpt lat="44.69658" lon="5.02645">
        <ele>351</ele>
        <time>2018-06-10T10:45:53Z</time>
      </trkpt>
      <trkpt lat="44.69653" lon="5.02642">
        <ele>351</ele>
        <time>2018-06-10T10:45:55Z</time>
      </trkpt>
      <trkpt lat="44.69647" lon="5.02639">
        <ele>351</ele>
        <time>2018-06-10T10:45:57Z</time>
      </trkpt>
      <trkpt lat="44.69642" lon="5.02636">
        <ele>351</ele>
        <time>2018-06-10T10:45:59Z</time>
      </trkpt>
      <trkpt lat="44.69637" lon="5.02634">
        <ele>352</ele>
        <time>2018-06-10T10:46:01Z</time>
      </trkpt>
      <trkpt lat="44.69631" lon="5.02633">
        <ele>352</ele>
        <time>2018-06-10T10:46:03Z</time>
      </trkpt>
      <trkpt lat="44.69625" lon="5.02632">
        <ele>352</ele>
        <time>2018-06-10T10:46:05Z</time>
      </trkpt>
      <trkpt lat="44.69619" lon="5.02631">
        <ele>352</ele>
        <time>2018-06-10T10:46:07Z</time>
      </trkpt>
      <trkpt lat="44.69612" lon="5.0263">
        <ele>352</ele>
        <time>2018-06-10T10:46:09Z</time>
      </trkpt>
      <trkpt lat="44.69606" lon="5.02629">
        <ele>352</ele>
        <time>2018-06-10T10:46:11Z</time>
      </trkpt>
      <trkpt lat="44.69601" lon="5.02628">
        <ele>352</ele>
        <time>2018-06-10T10:46:13Z</time>
      </trkpt>
      <trkpt lat="44.69595" lon="5.02626">
        <ele>353</ele>
        <time>2018-06-10T10:46:15Z</time>
      </trkpt>
      <trkpt lat="44.69588" lon="5.02621">
        <ele>353</ele>
        <time>2018-06-10T10:46:17Z</time>
      </trkpt>
      <trkpt lat="44.69583" lon="5.02619">
        <ele>353</ele>
        <time>2018-06-10T10:46:20Z</time>
      </trkpt>
      <trkpt lat="44.69578" lon="5.02618">
        <ele>354</ele>
        <time>2018-06-10T10:46:22Z</time>
      </trkpt>
      <trkpt lat="44.69574" lon="5.02618">
        <ele>353</ele>
        <time>2018-06-10T10:46:24Z</time>
      </trkpt>
      <trkpt lat="44.6957" lon="5.02616">
        <ele>354</ele>
        <time>2018-06-10T10:46:26Z</time>
      </trkpt>
      <trkpt lat="44.69566" lon="5.02614">
        <ele>354</ele>
        <time>2018-06-10T10:46:28Z</time>
      </trkpt>
      <trkpt lat="44.69562" lon="5.02614">
        <ele>354</ele>
        <time>2018-06-10T10:46:30Z</time>
      </trkpt>
      <trkpt lat="44.69559" lon="5.02612">
        <ele>355</ele>
        <time>2018-06-10T10:46:32Z</time>
      </trkpt>
      <trkpt lat="44.69556" lon="5.0261">
        <ele>355</ele>
        <time>2018-06-10T10:46:34Z</time>
      </trkpt>
      <trkpt lat="44.69553" lon="5.0261">
        <ele>355</ele>
        <time>2018-06-10T10:46:36Z</time>
      </trkpt>
      <trkpt lat="44.6955" lon="5.02609">
        <ele>356</ele>
        <time>2018-06-10T10:46:38Z</time>
      </trkpt>
      <trkpt lat="44.69546" lon="5.0261">
        <ele>356</ele>
        <time>2018-06-10T10:46:40Z</time>
      </trkpt>
      <trkpt lat="44.69542" lon="5.02609">
        <ele>356</ele>
        <time>2018-06-10T10:46:42Z</time>
      </trkpt>
      <trkpt lat="44.69538" lon="5.02609">
        <ele>356</ele>
        <time>2018-06-10T10:46:44Z</time>
      </trkpt>
      <trkpt lat="44.69533" lon="5.02609">
        <ele>357</ele>
        <time>2018-06-10T10:46:46Z</time>
      </trkpt>
      <trkpt lat="44.69529" lon="5.02608">
        <ele>357</ele>
        <time>2018-06-10T10:46:48Z</time>
      </trkpt>
      <trkpt lat="44.69526" lon="5.02605">
        <ele>357</ele>
        <time>2018-06-10T10:46:50Z</time>
      </trkpt>
      <trkpt lat="44.69523" lon="5.02602">
        <ele>357</ele>
        <time>2018-06-10T10:46:52Z</time>
      </trkpt>
      <trkpt lat="44.69521" lon="5.02598">
        <ele>358</ele>
        <time>2018-06-10T10:46:54Z</time>
      </trkpt>
      <trkpt lat="44.69519" lon="5.02595">
        <ele>358</ele>
        <time>2018-06-10T10:46:56Z</time>
      </trkpt>
      <trkpt lat="44.69517" lon="5.02592">
        <ele>358</ele>
        <time>2018-06-10T10:46:58Z</time>
      </trkpt>
      <trkpt lat="44.69515" lon="5.0259">
        <ele>359</ele>
        <time>2018-06-10T10:47:00Z</time>
      </trkpt>
      <trkpt lat="44.69512" lon="5.02587">
        <ele>359</ele>
        <time>2018-06-10T10:47:02Z</time>
      </trkpt>
      <trkpt lat="44.69509" lon="5.02585">
        <ele>359</ele>
        <time>2018-06-10T10:47:04Z</time>
      </trkpt>
      <trkpt lat="44.69506" lon="5.02584">
        <ele>360</ele>
        <time>2018-06-10T10:47:06Z</time>
      </trkpt>
      <trkpt lat="44.69503" lon="5.02585">
        <ele>360</ele>
        <time>2018-06-10T10:47:08Z</time>
      </trkpt>
      <trkpt lat="44.695" lon="5.02586">
        <ele>360</ele>
        <time>2018-06-10T10:47:10Z</time>
      </trkpt>
      <trkpt lat="44.69498" lon="5.02586">
        <ele>361</ele>
        <time>2018-06-10T10:47:12Z</time>
      </trkpt>
      <trkpt lat="44.69494" lon="5.02588">
        <ele>361</ele>
        <time>2018-06-10T10:47:14Z</time>
      </trkpt>
      <trkpt lat="44.69491" lon="5.0259">
        <ele>361</ele>
        <time>2018-06-10T10:47:16Z</time>
      </trkpt>
      <trkpt lat="44.69487" lon="5.02591">
        <ele>361</ele>
        <time>2018-06-10T10:47:18Z</time>
      </trkpt>
      <trkpt lat="44.69484" lon="5.02593">
        <ele>361</ele>
        <time>2018-06-10T10:47:20Z</time>
      </trkpt>
      <trkpt lat="44.6948" lon="5.02594">
        <ele>361</ele>
        <time>2018-06-10T10:47:22Z</time>
      </trkpt>
      <trkpt lat="44.69477" lon="5.02597">
        <ele>362</ele>
        <time>2018-06-10T10:47:24Z</time>
      </trkpt>
      <trkpt lat="44.69474" lon="5.02599">
        <ele>362</ele>
        <time>2018-06-10T10:47:26Z</time>
      </trkpt>
      <trkpt lat="44.6947" lon="5.026">
        <ele>362</ele>
        <time>2018-06-10T10:47:28Z</time>
      </trkpt>
      <trkpt lat="44.69467" lon="5.02601">
        <ele>362</ele>
        <time>2018-06-10T10:47:30Z</time>
      </trkpt>
      <trkpt lat="44.69464" lon="5.02603">
        <ele>363</ele>
        <time>2018-06-10T10:47:32Z</time>
      </trkpt>
      <trkpt lat="44.6946" lon="5.02604">
        <ele>363</ele>
        <time>2018-06-10T10:47:34Z</time>
      </trkpt>
      <trkpt lat="44.69457" lon="5.02607">
        <ele>363</ele>
        <time>2018-06-10T10:47:36Z</time>
      </trkpt>
      <trkpt lat="44.69455" lon="5.02608">
        <ele>363</ele>
        <time>2018-06-10T10:47:38Z</time>
      </trkpt>
      <trkpt lat="44.69451" lon="5.02609">
        <ele>363</ele>
        <time>2018-06-10T10:47:40Z</time>
      </trkpt>
      <trkpt lat="44.69446" lon="5.0261">
        <ele>363</ele>
        <time>2018-06-10T10:47:42Z</time>
      </trkpt>
      <trkpt lat="44.69437" lon="5.02611">
        <ele>363</ele>
        <time>2018-06-10T10:47:45Z</time>
      </trkpt>
      <trkpt lat="44.6943" lon="5.02611">
        <ele>362</ele>
        <time>2018-06-10T10:47:47Z</time>
      </trkpt>
      <trkpt lat="44.69423" lon="5.02612">
        <ele>362</ele>
        <time>2018-06-10T10:47:49Z</time>
      </trkpt>
      <trkpt lat="44.69414" lon="5.02611">
        <ele>362</ele>
        <time>2018-06-10T10:47:51Z</time>
      </trkpt>
      <trkpt lat="44.69405" lon="5.02613">
        <ele>361</ele>
        <time>2018-06-10T10:47:53Z</time>
      </trkpt>
      <trkpt lat="44.69396" lon="5.02615">
        <ele>361</ele>
        <time>2018-06-10T10:47:55Z</time>
      </trkpt>
      <trkpt lat="44.69388" lon="5.02618">
        <ele>361</ele>
        <time>2018-06-10T10:47:57Z</time>
      </trkpt>
      <trkpt lat="44.69382" lon="5.0262">
        <ele>361</ele>
        <time>2018-06-10T10:47:59Z</time>
      </trkpt>
      <trkpt lat="44.69376" lon="5.02622">
        <ele>361</ele>
        <time>2018-06-10T10:48:01Z</time>
      </trkpt>
      <trkpt lat="44.6937" lon="5.02624">
        <ele>361</ele>
        <time>2018-06-10T10:48:03Z</time>
      </trkpt>
      <trkpt lat="44.69364" lon="5.02627">
        <ele>361</ele>
        <time>2018-06-10T10:48:05Z</time>
      </trkpt>
      <trkpt lat="44.69358" lon="5.02631">
        <ele>362</ele>
        <time>2018-06-10T10:48:07Z</time>
      </trkpt>
      <trkpt lat="44.69352" lon="5.02633">
        <ele>362</ele>
        <time>2018-06-10T10:48:09Z</time>
      </trkpt>
      <trkpt lat="44.69347" lon="5.02635">
        <ele>362</ele>
        <time>2018-06-10T10:48:11Z</time>
      </trkpt>
      <trkpt lat="44.69342" lon="5.02637">
        <ele>362</ele>
        <time>2018-06-10T10:48:13Z</time>
      </trkpt>
      <trkpt lat="44.69338" lon="5.02638">
        <ele>363</ele>
        <time>2018-06-10T10:48:15Z</time>
      </trkpt>
      <trkpt lat="44.69333" lon="5.0264">
        <ele>363</ele>
        <time>2018-06-10T10:48:17Z</time>
      </trkpt>
      <trkpt lat="44.69328" lon="5.02642">
        <ele>363</ele>
        <time>2018-06-10T10:48:19Z</time>
      </trkpt>
      <trkpt lat="44.69323" lon="5.02643">
        <ele>363</ele>
        <time>2018-06-10T10:48:21Z</time>
      </trkpt>
      <trkpt lat="44.69317" lon="5.02642">
        <ele>363</ele>
        <time>2018-06-10T10:48:23Z</time>
      </trkpt>
      <trkpt lat="44.69309" lon="5.02643">
        <ele>362</ele>
        <time>2018-06-10T10:48:25Z</time>
      </trkpt>
      <trkpt lat="44.69298" lon="5.02641">
        <ele>361</ele>
        <time>2018-06-10T10:48:27Z</time>
      </trkpt>
      <trkpt lat="44.69289" lon="5.02638">
        <ele>361</ele>
        <time>2018-06-10T10:48:29Z</time>
      </trkpt>
      <trkpt lat="44.69281" lon="5.02642">
        <ele>361</ele>
        <time>2018-06-10T10:48:31Z</time>
      </trkpt>
      <trkpt lat="44.69276" lon="5.02639">
        <ele>360</ele>
        <time>2018-06-10T10:48:33Z</time>
      </trkpt>
      <trkpt lat="44.69271" lon="5.02634">
        <ele>360</ele>
        <time>2018-06-10T10:48:35Z</time>
      </trkpt>
      <trkpt lat="44.69265" lon="5.02625">
        <ele>361</ele>
        <time>2018-06-10T10:48:37Z</time>
      </trkpt>
      <trkpt lat="44.69262" lon="5.02619">
        <ele>361</ele>
        <time>2018-06-10T10:48:40Z</time>
      </trkpt>
      <trkpt lat="44.69257" lon="5.02615">
        <ele>361</ele>
        <time>2018-06-10T10:48:42Z</time>
      </trkpt>
      <trkpt lat="44.69251" lon="5.02612">
        <ele>360</ele>
        <time>2018-06-10T10:48:44Z</time>
      </trkpt>
      <trkpt lat="44.69247" lon="5.02604">
        <ele>361</ele>
        <time>2018-06-10T10:48:46Z</time>
      </trkpt>
      <trkpt lat="44.69244" lon="5.02598">
        <ele>360</ele>
        <time>2018-06-10T10:48:48Z</time>
      </trkpt>
      <trkpt lat="44.69241" lon="5.02596">
        <ele>360</ele>
        <time>2018-06-10T10:48:50Z</time>
      </trkpt>
      <trkpt lat="44.69238" lon="5.02593">
        <ele>360</ele>
        <time>2018-06-10T10:48:52Z</time>
      </trkpt>
      <trkpt lat="44.69235" lon="5.02589">
        <ele>360</ele>
        <time>2018-06-10T10:48:54Z</time>
      </trkpt>
      <trkpt lat="44.69232" lon="5.02584">
        <ele>360</ele>
        <time>2018-06-10T10:48:56Z</time>
      </trkpt>
      <trkpt lat="44.69228" lon="5.02579">
        <ele>360</ele>
        <time>2018-06-10T10:48:58Z</time>
      </trkpt>
      <trkpt lat="44.69225" lon="5.02574">
        <ele>360</ele>
        <time>2018-06-10T10:49:00Z</time>
      </trkpt>
      <trkpt lat="44.69222" lon="5.02567">
        <ele>360</ele>
        <time>2018-06-10T10:49:02Z</time>
      </trkpt>
      <trkpt lat="44.69219" lon="5.02562">
        <ele>360</ele>
        <time>2018-06-10T10:49:04Z</time>
      </trkpt>
      <trkpt lat="44.69216" lon="5.02557">
        <ele>360</ele>
        <time>2018-06-10T10:49:06Z</time>
      </trkpt>
      <trkpt lat="44.69212" lon="5.02552">
        <ele>360</ele>
        <time>2018-06-10T10:49:08Z</time>
      </trkpt>
      <trkpt lat="44.69209" lon="5.02547">
        <ele>360</ele>
        <time>2018-06-10T10:49:10Z</time>
      </trkpt>
      <trkpt lat="44.69206" lon="5.02542">
        <ele>360</ele>
        <time>2018-06-10T10:49:12Z</time>
      </trkpt>
      <trkpt lat="44.69202" lon="5.02538">
        <ele>361</ele>
        <time>2018-06-10T10:49:14Z</time>
      </trkpt>
      <trkpt lat="44.69198" lon="5.02534">
        <ele>361</ele>
        <time>2018-06-10T10:49:16Z</time>
      </trkpt>
      <trkpt lat="44.69194" lon="5.0253">
        <ele>362</ele>
        <time>2018-06-10T10:49:18Z</time>
      </trkpt>
      <trkpt lat="44.6919" lon="5.02527">
        <ele>362</ele>
        <time>2018-06-10T10:49:20Z</time>
      </trkpt>
      <trkpt lat="44.69188" lon="5.02524">
        <ele>361</ele>
        <time>2018-06-10T10:49:22Z</time>
      </trkpt>
      <trkpt lat="44.69187" lon="5.02519">
        <ele>362</ele>
        <time>2018-06-10T10:49:24Z</time>
      </trkpt>
      <trkpt lat="44.69186" lon="5.02512">
        <ele>362</ele>
        <time>2018-06-10T10:49:26Z</time>
      </trkpt>
      <trkpt lat="44.69186" lon="5.02508">
        <ele>363</ele>
        <time>2018-06-10T10:49:28Z</time>
      </trkpt>
      <trkpt lat="44.69186" lon="5.02502">
        <ele>363</ele>
        <time>2018-06-10T10:49:30Z</time>
      </trkpt>
      <trkpt lat="44.69186" lon="5.02498">
        <ele>363</ele>
        <time>2018-06-10T10:49:32Z</time>
      </trkpt>
      <trkpt lat="44.69184" lon="5.02494">
        <ele>364</ele>
        <time>2018-06-10T10:49:34Z</time>
      </trkpt>
      <trkpt lat="44.69181" lon="5.0249">
        <ele>363</ele>
        <time>2018-06-10T10:49:36Z</time>
      </trkpt>
      <trkpt lat="44.69178" lon="5.02486">
        <ele>363</ele>
        <time>2018-06-10T10:49:38Z</time>
      </trkpt>
      <trkpt lat="44.69174" lon="5.02483">
        <ele>363</ele>
        <time>2018-06-10T10:49:40Z</time>
      </trkpt>
      <trkpt lat="44.69168" lon="5.0248">
        <ele>363</ele>
        <time>2018-06-10T10:49:42Z</time>
      </trkpt>
      <trkpt lat="44.69162" lon="5.02478">
        <ele>363</ele>
        <time>2018-06-10T10:49:44Z</time>
      </trkpt>
      <trkpt lat="44.69156" lon="5.02477">
        <ele>364</ele>
        <time>2018-06-10T10:49:46Z</time>
      </trkpt>
      <trkpt lat="44.69155" lon="5.02472">
        <ele>364</ele>
        <time>2018-06-10T10:49:49Z</time>
      </trkpt>
      <trkpt lat="44.69157" lon="5.02465">
        <ele>364</ele>
        <time>2018-06-10T10:49:51Z</time>
      </trkpt>
      <trkpt lat="44.6916" lon="5.02461">
        <ele>364</ele>
        <time>2018-06-10T10:49:53Z</time>
      </trkpt>
      <trkpt lat="44.69162" lon="5.02458">
        <ele>364</ele>
        <time>2018-06-10T10:49:55Z</time>
      </trkpt>
      <trkpt lat="44.69165" lon="5.02454">
        <ele>364</ele>
        <time>2018-06-10T10:49:57Z</time>
      </trkpt>
      <trkpt lat="44.69168" lon="5.02449">
        <ele>364</ele>
        <time>2018-06-10T10:49:59Z</time>
      </trkpt>
      <trkpt lat="44.69171" lon="5.02447">
        <ele>364</ele>
        <time>2018-06-10T10:50:01Z</time>
      </trkpt>
      <trkpt lat="44.69173" lon="5.02444">
        <ele>365</ele>
        <time>2018-06-10T10:50:03Z</time>
      </trkpt>
      <trkpt lat="44.69176" lon="5.02441">
        <ele>365</ele>
        <time>2018-06-10T10:50:05Z</time>
      </trkpt>
      <trkpt lat="44.69179" lon="5.02438">
        <ele>365</ele>
        <time>2018-06-10T10:50:07Z</time>
      </trkpt>
      <trkpt lat="44.69182" lon="5.02435">
        <ele>366</ele>
        <time>2018-06-10T10:50:09Z</time>
      </trkpt>
      <trkpt lat="44.69185" lon="5.02433">
        <ele>365</ele>
        <time>2018-06-10T10:50:11Z</time>
      </trkpt>
      <trkpt lat="44.69187" lon="5.0243">
        <ele>366</ele>
        <time>2018-06-10T10:50:13Z</time>
      </trkpt>
      <trkpt lat="44.6919" lon="5.02429">
        <ele>366</ele>
        <time>2018-06-10T10:50:15Z</time>
      </trkpt>
      <trkpt lat="44.69194" lon="5.02427">
        <ele>366</ele>
        <time>2018-06-10T10:50:17Z</time>
      </trkpt>
      <trkpt lat="44.69198" lon="5.02426">
        <ele>366</ele>
        <time>2018-06-10T10:50:19Z</time>
      </trkpt>
      <trkpt lat="44.69201" lon="5.02425">
        <ele>366</ele>
        <time>2018-06-10T10:50:21Z</time>
      </trkpt>
      <trkpt lat="44.69205" lon="5.02424">
        <ele>367</ele>
        <time>2018-06-10T10:50:23Z</time>
      </trkpt>
      <trkpt lat="44.69207" lon="5.02422">
        <ele>367</ele>
        <time>2018-06-10T10:50:25Z</time>
      </trkpt>
      <trkpt lat="44.6921" lon="5.02421">
        <ele>368</ele>
        <time>2018-06-10T10:50:27Z</time>
      </trkpt>
      <trkpt lat="44.69212" lon="5.02419">
        <ele>368</ele>
        <time>2018-06-10T10:50:29Z</time>
      </trkpt>
      <trkpt lat="44.69213" lon="5.02416">
        <ele>369</ele>
        <time>2018-06-10T10:50:31Z</time>
      </trkpt>
      <trkpt lat="44.69211" lon="5.02414">
        <ele>369</ele>
        <time>2018-06-10T10:50:33Z</time>
      </trkpt>
      <trkpt lat="44.6921" lon="5.02413">
        <ele>369</ele>
        <time>2018-06-10T10:50:35Z</time>
      </trkpt>
      <trkpt lat="44.69208" lon="5.02413">
        <ele>369</ele>
        <time>2018-06-10T10:50:37Z</time>
      </trkpt>
      <trkpt lat="44.69206" lon="5.02412">
        <ele>370</ele>
        <time>2018-06-10T10:50:39Z</time>
      </trkpt>
      <trkpt lat="44.69203" lon="5.02411">
        <ele>370</ele>
        <time>2018-06-10T10:50:41Z</time>
      </trkpt>
      <trkpt lat="44.69201" lon="5.02409">
        <ele>370</ele>
        <time>2018-06-10T10:50:43Z</time>
      </trkpt>
      <trkpt lat="44.69198" lon="5.02408">
        <ele>370</ele>
        <time>2018-06-10T10:50:45Z</time>
      </trkpt>
      <trkpt lat="44.69196" lon="5.02408">
        <ele>371</ele>
        <time>2018-06-10T10:50:47Z</time>
      </trkpt>
      <trkpt lat="44.69194" lon="5.02407">
        <ele>371</ele>
        <time>2018-06-10T10:50:49Z</time>
      </trkpt>
      <trkpt lat="44.69193" lon="5.02406">
        <ele>371</ele>
        <time>2018-06-10T10:50:51Z</time>
      </trkpt>
      <trkpt lat="44.6919" lon="5.02405">
        <ele>371</ele>
        <time>2018-06-10T10:50:53Z</time>
      </trkpt>
      <trkpt lat="44.69187" lon="5.02405">
        <ele>372</ele>
        <time>2018-06-10T10:50:55Z</time>
      </trkpt>
      <trkpt lat="44.69183" lon="5.02404">
        <ele>372</ele>
        <time>2018-06-10T10:50:57Z</time>
      </trkpt>
      <trkpt lat="44.6918" lon="5.02404">
        <ele>372</ele>
        <time>2018-06-10T10:51:00Z</time>
      </trkpt>
      <trkpt lat="44.69178" lon="5.02403">
        <ele>372</ele>
        <time>2018-06-10T10:51:02Z</time>
      </trkpt>
      <trkpt lat="44.69175" lon="5.02402">
        <ele>373</ele>
        <time>2018-06-10T10:51:04Z</time>
      </trkpt>
      <trkpt lat="44.69173" lon="5.02402">
        <ele>373</ele>
        <time>2018-06-10T10:51:06Z</time>
      </trkpt>
      <trkpt lat="44.6917" lon="5.02401">
        <ele>373</ele>
        <time>2018-06-10T10:51:08Z</time>
      </trkpt>
      <trkpt lat="44.69168" lon="5.02401">
        <ele>373</ele>
        <time>2018-06-10T10:51:10Z</time>
      </trkpt>
      <trkpt lat="44.69165" lon="5.024">
        <ele>374</ele>
        <time>2018-06-10T10:51:12Z</time>
      </trkpt>
      <trkpt lat="44.69163" lon="5.02399">
        <ele>374</ele>
        <time>2018-06-10T10:51:14Z</time>
      </trkpt>
      <trkpt lat="44.6916" lon="5.02398">
        <ele>374</ele>
        <time>2018-06-10T10:51:16Z</time>
      </trkpt>
      <trkpt lat="44.69157" lon="5.02396">
        <ele>374</ele>
        <time>2018-06-10T10:51:18Z</time>
      </trkpt>
      <trkpt lat="44.69154" lon="5.02394">
        <ele>375</ele>
        <time>2018-06-10T10:51:20Z</time>
      </trkpt>
      <trkpt lat="44.69151" lon="5.02393">
        <ele>375</ele>
        <time>2018-06-10T10:51:22Z</time>
      </trkpt>
      <trkpt lat="44.69147" lon="5.02392">
        <ele>374</ele>
        <time>2018-06-10T10:51:24Z</time>
      </trkpt>
      <trkpt lat="44.69143" lon="5.02392">
        <ele>375</ele>
        <time>2018-06-10T10:51:26Z</time>
      </trkpt>
      <trkpt lat="44.6914" lon="5.02393">
        <ele>375</ele>
        <time>2018-06-10T10:51:28Z</time>
      </trkpt>
      <trkpt lat="44.69136" lon="5.02394">
        <ele>375</ele>
        <time>2018-06-10T10:51:30Z</time>
      </trkpt>
      <trkpt lat="44.69133" lon="5.02396">
        <ele>376</ele>
        <time>2018-06-10T10:51:32Z</time>
      </trkpt>
      <trkpt lat="44.6913" lon="5.02397">
        <ele>376</ele>
        <time>2018-06-10T10:51:34Z</time>
      </trkpt>
      <trkpt lat="44.69128" lon="5.02399">
        <ele>376</ele>
        <time>2018-06-10T10:51:36Z</time>
      </trkpt>
      <trkpt lat="44.69125" lon="5.024">
        <ele>376</ele>
        <time>2018-06-10T10:51:38Z</time>
      </trkpt>
      <trkpt lat="44.69122" lon="5.02401">
        <ele>376</ele>
        <time>2018-06-10T10:51:40Z</time>
      </trkpt>
      <trkpt lat="44.6912" lon="5.02402">
        <ele>377</ele>
        <time>2018-06-10T10:51:42Z</time>
      </trkpt>
      <trkpt lat="44.69118" lon="5.02403">
        <ele>377</ele>
        <time>2018-06-10T10:51:44Z</time>
      </trkpt>
      <trkpt lat="44.69115" lon="5.02404">
        <ele>377</ele>
        <time>2018-06-10T10:51:46Z</time>
      </trkpt>
      <trkpt lat="44.69113" lon="5.02406">
        <ele>378</ele>
        <time>2018-06-10T10:51:48Z</time>
      </trkpt>
      <trkpt lat="44.6911" lon="5.02406">
        <ele>378</ele>
        <time>2018-06-10T10:51:50Z</time>
      </trkpt>
      <trkpt lat="44.69105" lon="5.02407">
        <ele>378</ele>
        <time>2018-06-10T10:51:53Z</time>
      </trkpt>
      <trkpt lat="44.69103" lon="5.02406">
        <ele>378</ele>
        <time>2018-06-10T10:51:55Z</time>
      </trkpt>
      <trkpt lat="44.691" lon="5.02407">
        <ele>379</ele>
        <time>2018-06-10T10:51:57Z</time>
      </trkpt>
      <trkpt lat="44.69097" lon="5.02407">
        <ele>379</ele>
        <time>2018-06-10T10:51:59Z</time>
      </trkpt>
      <trkpt lat="44.69093" lon="5.02407">
        <ele>379</ele>
        <time>2018-06-10T10:52:01Z</time>
      </trkpt>
      <trkpt lat="44.69091" lon="5.02408">
        <ele>379</ele>
        <time>2018-06-10T10:52:03Z</time>
      </trkpt>
      <trkpt lat="44.69088" lon="5.02408">
        <ele>379</ele>
        <time>2018-06-10T10:52:05Z</time>
      </trkpt>
      <trkpt lat="44.69085" lon="5.02408">
        <ele>380</ele>
        <time>2018-06-10T10:52:07Z</time>
      </trkpt>
      <trkpt lat="44.69083" lon="5.02409">
        <ele>380</ele>
        <time>2018-06-10T10:52:09Z</time>
      </trkpt>
      <trkpt lat="44.69081" lon="5.02409">
        <ele>381</ele>
        <time>2018-06-10T10:52:11Z</time>
      </trkpt>
      <trkpt lat="44.69078" lon="5.02409">
        <ele>381</ele>
        <time>2018-06-10T10:52:13Z</time>
      </trkpt>
      <trkpt lat="44.69075" lon="5.02409">
        <ele>381</ele>
        <time>2018-06-10T10:52:15Z</time>
      </trkpt>
      <trkpt lat="44.69072" lon="5.02409">
        <ele>381</ele>
        <time>2018-06-10T10:52:17Z</time>
      </trkpt>
      <trkpt lat="44.6907" lon="5.02409">
        <ele>382</ele>
        <time>2018-06-10T10:52:19Z</time>
      </trkpt>
      <trkpt lat="44.69067" lon="5.02408">
        <ele>382</ele>
        <time>2018-06-10T10:52:21Z</time>
      </trkpt>
      <trkpt lat="44.69064" lon="5.02407">
        <ele>382</ele>
        <time>2018-06-10T10:52:23Z</time>
      </trkpt>
      <trkpt lat="44.69062" lon="5.02406">
        <ele>383</ele>
        <time>2018-06-10T10:52:25Z</time>
      </trkpt>
      <trkpt lat="44.69059" lon="5.02404">
        <ele>383</ele>
        <time>2018-06-10T10:52:27Z</time>
      </trkpt>
      <trkpt lat="44.69057" lon="5.02404">
        <ele>383</ele>
        <time>2018-06-10T10:52:29Z</time>
      </trkpt>
      <trkpt lat="44.69054" lon="5.02404">
        <ele>383</ele>
        <time>2018-06-10T10:52:31Z</time>
      </trkpt>
      <trkpt lat="44.69051" lon="5.02404">
        <ele>384</ele>
        <time>2018-06-10T10:52:33Z</time>
      </trkpt>
      <trkpt lat="44.69049" lon="5.02403">
        <ele>384</ele>
        <time>2018-06-10T10:52:35Z</time>
      </trkpt>
      <trkpt lat="44.69046" lon="5.02403">
        <ele>384</ele>
        <time>2018-06-10T10:52:37Z</time>
      </trkpt>
      <trkpt lat="44.69043" lon="5.02403">
        <ele>384</ele>
        <time>2018-06-10T10:52:39Z</time>
      </trkpt>
      <trkpt lat="44.69041" lon="5.02403">
        <ele>385</ele>
        <time>2018-06-10T10:52:41Z</time>
      </trkpt>
      <trkpt lat="44.69038" lon="5.02403">
        <ele>385</ele>
        <time>2018-06-10T10:52:43Z</time>
      </trkpt>
      <trkpt lat="44.69034" lon="5.02403">
        <ele>385</ele>
        <time>2018-06-10T10:52:45Z</time>
      </trkpt>
      <trkpt lat="44.69032" lon="5.02403">
        <ele>385</ele>
        <time>2018-06-10T10:52:47Z</time>
      </trkpt>
      <trkpt lat="44.69029" lon="5.02402">
        <ele>386</ele>
        <time>2018-06-10T10:52:49Z</time>
      </trkpt>
      <trkpt lat="44.69024" lon="5.02403">
        <ele>386</ele>
        <time>2018-06-10T10:52:51Z</time>
      </trkpt>
      <trkpt lat="44.69022" lon="5.02403">
        <ele>386</ele>
        <time>2018-06-10T10:52:54Z</time>
      </trkpt>
      <trkpt lat="44.69019" lon="5.02404">
        <ele>386</ele>
        <time>2018-06-10T10:52:56Z</time>
      </trkpt>
      <trkpt lat="44.69017" lon="5.02404">
        <ele>387</ele>
        <time>2018-06-10T10:52:58Z</time>
      </trkpt>
      <trkpt lat="44.69014" lon="5.02405">
        <ele>387</ele>
        <time>2018-06-10T10:53:00Z</time>
      </trkpt>
      <trkpt lat="44.69011" lon="5.02406">
        <ele>387</ele>
        <time>2018-06-10T10:53:02Z</time>
      </trkpt>
      <trkpt lat="44.69009" lon="5.02407">
        <ele>388</ele>
        <time>2018-06-10T10:53:04Z</time>
      </trkpt>
      <trkpt lat="44.69007" lon="5.02408">
        <ele>388</ele>
        <time>2018-06-10T10:53:06Z</time>
      </trkpt>
      <trkpt lat="44.69004" lon="5.02409">
        <ele>388</ele>
        <time>2018-06-10T10:53:08Z</time>
      </trkpt>
      <trkpt lat="44.69001" lon="5.0241">
        <ele>388</ele>
        <time>2018-06-10T10:53:10Z</time>
      </trkpt>
      <trkpt lat="44.68998" lon="5.02411">
        <ele>389</ele>
        <time>2018-06-10T10:53:12Z</time>
      </trkpt>
      <trkpt lat="44.68995" lon="5.02411">
        <ele>389</ele>
        <time>2018-06-10T10:53:14Z</time>
      </trkpt>
      <trkpt lat="44.68993" lon="5.02411">
        <ele>389</ele>
        <time>2018-06-10T10:53:16Z</time>
      </trkpt>
      <trkpt lat="44.68989" lon="5.02411">
        <ele>389</ele>
        <time>2018-06-10T10:53:18Z</time>
      </trkpt>
      <trkpt lat="44.68986" lon="5.02411">
        <ele>389</ele>
        <time>2018-06-10T10:53:20Z</time>
      </trkpt>
      <trkpt lat="44.68983" lon="5.0241">
        <ele>389</ele>
        <time>2018-06-10T10:53:22Z</time>
      </trkpt>
      <trkpt lat="44.68979" lon="5.02409">
        <ele>390</ele>
        <time>2018-06-10T10:53:24Z</time>
      </trkpt>
      <trkpt lat="44.68976" lon="5.02409">
        <ele>390</ele>
        <time>2018-06-10T10:53:26Z</time>
      </trkpt>
      <trkpt lat="44.68973" lon="5.02408">
        <ele>390</ele>
        <time>2018-06-10T10:53:28Z</time>
      </trkpt>
      <trkpt lat="44.6897" lon="5.02407">
        <ele>390</ele>
        <time>2018-06-10T10:53:30Z</time>
      </trkpt>
      <trkpt lat="44.68966" lon="5.02406">
        <ele>390</ele>
        <time>2018-06-10T10:53:32Z</time>
      </trkpt>
      <trkpt lat="44.68963" lon="5.02405">
        <ele>390</ele>
        <time>2018-06-10T10:53:34Z</time>
      </trkpt>
      <trkpt lat="44.6896" lon="5.02403">
        <ele>391</ele>
        <time>2018-06-10T10:53:36Z</time>
      </trkpt>
      <trkpt lat="44.68957" lon="5.02403">
        <ele>391</ele>
        <time>2018-06-10T10:53:38Z</time>
      </trkpt>
      <trkpt lat="44.68954" lon="5.02401">
        <ele>391</ele>
        <time>2018-06-10T10:53:40Z</time>
      </trkpt>
      <trkpt lat="44.68951" lon="5.02399">
        <ele>391</ele>
        <time>2018-06-10T10:53:42Z</time>
      </trkpt>
      <trkpt lat="44.68948" lon="5.02398">
        <ele>392</ele>
        <time>2018-06-10T10:53:44Z</time>
      </trkpt>
      <trkpt lat="44.68946" lon="5.02397">
        <ele>392</ele>
        <time>2018-06-10T10:53:46Z</time>
      </trkpt>
      <trkpt lat="44.68943" lon="5.02395">
        <ele>392</ele>
        <time>2018-06-10T10:53:48Z</time>
      </trkpt>
      <trkpt lat="44.68941" lon="5.02394">
        <ele>393</ele>
        <time>2018-06-10T10:53:50Z</time>
      </trkpt>
      <trkpt lat="44.68937" lon="5.02391">
        <ele>393</ele>
        <time>2018-06-10T10:53:52Z</time>
      </trkpt>
      <trkpt lat="44.68934" lon="5.0239">
        <ele>393</ele>
        <time>2018-06-10T10:53:54Z</time>
      </trkpt>
      <trkpt lat="44.68931" lon="5.02388">
        <ele>393</ele>
        <time>2018-06-10T10:53:56Z</time>
      </trkpt>
      <trkpt lat="44.68928" lon="5.02386">
        <ele>394</ele>
        <time>2018-06-10T10:53:58Z</time>
      </trkpt>
      <trkpt lat="44.68925" lon="5.02385">
        <ele>394</ele>
        <time>2018-06-10T10:54:00Z</time>
      </trkpt>
      <trkpt lat="44.68922" lon="5.02384">
        <ele>394</ele>
        <time>2018-06-10T10:54:02Z</time>
      </trkpt>
      <trkpt lat="44.68919" lon="5.02383">
        <ele>394</ele>
        <time>2018-06-10T10:54:04Z</time>
      </trkpt>
      <trkpt lat="44.68916" lon="5.02382">
        <ele>395</ele>
        <time>2018-06-10T10:54:06Z</time>
      </trkpt>
      <trkpt lat="44.68912" lon="5.0238">
        <ele>395</ele>
        <time>2018-06-10T10:54:08Z</time>
      </trkpt>
      <trkpt lat="44.68909" lon="5.02379">
        <ele>395</ele>
        <time>2018-06-10T10:54:10Z</time>
      </trkpt>
      <trkpt lat="44.68905" lon="5.02378">
        <ele>395</ele>
        <time>2018-06-10T10:54:12Z</time>
      </trkpt>
      <trkpt lat="44.68902" lon="5.02377">
        <ele>395</ele>
        <time>2018-06-10T10:54:14Z</time>
      </trkpt>
      <trkpt lat="44.68898" lon="5.02375">
        <ele>396</ele>
        <time>2018-06-10T10:54:16Z</time>
      </trkpt>
      <trkpt lat="44.68894" lon="5.02374">
        <ele>396</ele>
        <time>2018-06-10T10:54:18Z</time>
      </trkpt>
      <trkpt lat="44.6889" lon="5.02372">
        <ele>396</ele>
        <time>2018-06-10T10:54:20Z</time>
      </trkpt>
      <trkpt lat="44.68886" lon="5.02369">
        <ele>396</ele>
        <time>2018-06-10T10:54:22Z</time>
      </trkpt>
      <trkpt lat="44.68882" lon="5.02367">
        <ele>396</ele>
        <time>2018-06-10T10:54:24Z</time>
      </trkpt>
      <trkpt lat="44.68879" lon="5.02365">
        <ele>396</ele>
        <time>2018-06-10T10:54:26Z</time>
      </trkpt>
      <trkpt lat="44.68875" lon="5.02363">
        <ele>396</ele>
        <time>2018-06-10T10:54:28Z</time>
      </trkpt>
      <trkpt lat="44.68871" lon="5.02362">
        <ele>396</ele>
        <time>2018-06-10T10:54:30Z</time>
      </trkpt>
      <trkpt lat="44.68867" lon="5.0236">
        <ele>397</ele>
        <time>2018-06-10T10:54:32Z</time>
      </trkpt>
      <trkpt lat="44.68861" lon="5.02357">
        <ele>397</ele>
        <time>2018-06-10T10:54:34Z</time>
      </trkpt>
      <trkpt lat="44.68858" lon="5.02354">
        <ele>397</ele>
        <time>2018-06-10T10:54:37Z</time>
      </trkpt>
      <trkpt lat="44.68855" lon="5.02351">
        <ele>398</ele>
        <time>2018-06-10T10:54:39Z</time>
      </trkpt>
      <trkpt lat="44.68852" lon="5.02348">
        <ele>398</ele>
        <time>2018-06-10T10:54:41Z</time>
      </trkpt>
      <trkpt lat="44.68848" lon="5.02346">
        <ele>398</ele>
        <time>2018-06-10T10:54:43Z</time>
      </trkpt>
      <trkpt lat="44.68846" lon="5.02344">
        <ele>398</ele>
        <time>2018-06-10T10:54:45Z</time>
      </trkpt>
      <trkpt lat="44.68843" lon="5.02342">
        <ele>399</ele>
        <time>2018-06-10T10:54:47Z</time>
      </trkpt>
      <trkpt lat="44.68841" lon="5.02338">
        <ele>399</ele>
        <time>2018-06-10T10:54:49Z</time>
      </trkpt>
      <trkpt lat="44.68838" lon="5.02333">
        <ele>399</ele>
        <time>2018-06-10T10:54:51Z</time>
      </trkpt>
      <trkpt lat="44.68835" lon="5.0233">
        <ele>399</ele>
        <time>2018-06-10T10:54:53Z</time>
      </trkpt>
      <trkpt lat="44.68832" lon="5.02328">
        <ele>400</ele>
        <time>2018-06-10T10:54:55Z</time>
      </trkpt>
      <trkpt lat="44.68829" lon="5.02326">
        <ele>400</ele>
        <time>2018-06-10T10:54:57Z</time>
      </trkpt>
      <trkpt lat="44.68827" lon="5.02325">
        <ele>400</ele>
        <time>2018-06-10T10:54:59Z</time>
      </trkpt>
      <trkpt lat="44.68824" lon="5.02324">
        <ele>400</ele>
        <time>2018-06-10T10:55:01Z</time>
      </trkpt>
      <trkpt lat="44.68821" lon="5.02322">
        <ele>400</ele>
        <time>2018-06-10T10:55:03Z</time>
      </trkpt>
      <trkpt lat="44.68819" lon="5.0232">
        <ele>401</ele>
        <time>2018-06-10T10:55:05Z</time>
      </trkpt>
      <trkpt lat="44.68817" lon="5.02319">
        <ele>402</ele>
        <time>2018-06-10T10:55:07Z</time>
      </trkpt>
      <trkpt lat="44.68814" lon="5.02317">
        <ele>402</ele>
        <time>2018-06-10T10:55:09Z</time>
      </trkpt>
      <trkpt lat="44.68811" lon="5.02317">
        <ele>402</ele>
        <time>2018-06-10T10:55:11Z</time>
      </trkpt>
      <trkpt lat="44.68811" lon="5.02319">
        <ele>402</ele>
        <time>2018-06-10T10:55:13Z</time>
      </trkpt>
      <trkpt lat="44.68811" lon="5.02322">
        <ele>403</ele>
        <time>2018-06-10T10:55:15Z</time>
      </trkpt>
      <trkpt lat="44.68817" lon="5.02322">
        <ele>403</ele>
        <time>2018-06-10T10:55:17Z</time>
      </trkpt>
      <trkpt lat="44.68819" lon="5.02323">
        <ele>403</ele>
        <time>2018-06-10T10:55:19Z</time>
      </trkpt>
      <trkpt lat="44.68821" lon="5.02325">
        <ele>404</ele>
        <time>2018-06-10T10:55:21Z</time>
      </trkpt>
      <trkpt lat="44.68824" lon="5.02327">
        <ele>404</ele>
        <time>2018-06-10T10:55:23Z</time>
      </trkpt>
      <trkpt lat="44.68825" lon="5.02329">
        <ele>404</ele>
        <time>2018-06-10T10:55:25Z</time>
      </trkpt>
      <trkpt lat="44.68827" lon="5.02332">
        <ele>405</ele>
        <time>2018-06-10T10:55:27Z</time>
      </trkpt>
      <trkpt lat="44.68829" lon="5.02334">
        <ele>405</ele>
        <time>2018-06-10T10:55:29Z</time>
      </trkpt>
      <trkpt lat="44.6883" lon="5.02337">
        <ele>405</ele>
        <time>2018-06-10T10:55:31Z</time>
      </trkpt>
      <trkpt lat="44.68832" lon="5.0234">
        <ele>406</ele>
        <time>2018-06-10T10:55:33Z</time>
      </trkpt>
      <trkpt lat="44.68833" lon="5.02343">
        <ele>406</ele>
        <time>2018-06-10T10:55:35Z</time>
      </trkpt>
      <trkpt lat="44.68835" lon="5.02345">
        <ele>406</ele>
        <time>2018-06-10T10:55:37Z</time>
      </trkpt>
      <trkpt lat="44.68837" lon="5.02348">
        <ele>407</ele>
        <time>2018-06-10T10:55:39Z</time>
      </trkpt>
      <trkpt lat="44.68839" lon="5.02351">
        <ele>407</ele>
        <time>2018-06-10T10:55:41Z</time>
      </trkpt>
      <trkpt lat="44.6884" lon="5.02354">
        <ele>408</ele>
        <time>2018-06-10T10:55:43Z</time>
      </trkpt>
      <trkpt lat="44.68841" lon="5.02357">
        <ele>408</ele>
        <time>2018-06-10T10:55:45Z</time>
      </trkpt>
      <trkpt lat="44.68842" lon="5.0236">
        <ele>409</ele>
        <time>2018-06-10T10:55:47Z</time>
      </trkpt>
      <trkpt lat="44.68843" lon="5.02363">
        <ele>409</ele>
        <time>2018-06-10T10:55:49Z</time>
      </trkpt>
      <trkpt lat="44.68844" lon="5.02366">
        <ele>410</ele>
        <time>2018-06-10T10:55:51Z</time>
      </trkpt>
      <trkpt lat="44.68845" lon="5.02369">
        <ele>410</ele>
        <time>2018-06-10T10:55:53Z</time>
      </trkpt>
      <trkpt lat="44.68847" lon="5.02372">
        <ele>411</ele>
        <time>2018-06-10T10:55:55Z</time>
      </trkpt>
      <trkpt lat="44.68847" lon="5.02376">
        <ele>411</ele>
        <time>2018-06-10T10:55:57Z</time>
      </trkpt>
      <trkpt lat="44.68848" lon="5.02379">
        <ele>411</ele>
        <time>2018-06-10T10:55:59Z</time>
      </trkpt>
      <trkpt lat="44.68849" lon="5.02382">
        <ele>411</ele>
        <time>2018-06-10T10:56:01Z</time>
      </trkpt>
      <trkpt lat="44.68851" lon="5.02385">
        <ele>412</ele>
        <time>2018-06-10T10:56:03Z</time>
      </trkpt>
      <trkpt lat="44.68852" lon="5.02388">
        <ele>412</ele>
        <time>2018-06-10T10:56:05Z</time>
      </trkpt>
      <trkpt lat="44.68854" lon="5.0239">
        <ele>412</ele>
        <time>2018-06-10T10:56:07Z</time>
      </trkpt>
      <trkpt lat="44.68856" lon="5.02394">
        <ele>413</ele>
        <time>2018-06-10T10:56:09Z</time>
      </trkpt>
      <trkpt lat="44.68856" lon="5.02395">
        <ele>413</ele>
        <time>2018-06-10T10:56:11Z</time>
      </trkpt>
      <trkpt lat="44.68857" lon="5.02398">
        <ele>414</ele>
        <time>2018-06-10T10:56:13Z</time>
      </trkpt>
      <trkpt lat="44.68858" lon="5.02401">
        <ele>414</ele>
        <time>2018-06-10T10:56:15Z</time>
      </trkpt>
      <trkpt lat="44.68859" lon="5.02403">
        <ele>414</ele>
        <time>2018-06-10T10:56:17Z</time>
      </trkpt>
      <trkpt lat="44.68861" lon="5.02408">
        <ele>414</ele>
        <time>2018-06-10T10:56:20Z</time>
      </trkpt>
      <trkpt lat="44.68862" lon="5.02411">
        <ele>415</ele>
        <time>2018-06-10T10:56:22Z</time>
      </trkpt>
      <trkpt lat="44.68864" lon="5.02413">
        <ele>415</ele>
        <time>2018-06-10T10:56:24Z</time>
      </trkpt>
      <trkpt lat="44.68865" lon="5.02416">
        <ele>416</ele>
        <time>2018-06-10T10:56:26Z</time>
      </trkpt>
      <trkpt lat="44.68866" lon="5.02419">
        <ele>416</ele>
        <time>2018-06-10T10:56:28Z</time>
      </trkpt>
      <trkpt lat="44.68867" lon="5.02422">
        <ele>416</ele>
        <time>2018-06-10T10:56:30Z</time>
      </trkpt>
      <trkpt lat="44.68868" lon="5.02425">
        <ele>417</ele>
        <time>2018-06-10T10:56:32Z</time>
      </trkpt>
      <trkpt lat="44.68869" lon="5.02428">
        <ele>417</ele>
        <time>2018-06-10T10:56:34Z</time>
      </trkpt>
      <trkpt lat="44.68871" lon="5.0243">
        <ele>417</ele>
        <time>2018-06-10T10:56:36Z</time>
      </trkpt>
      <trkpt lat="44.68873" lon="5.02433">
        <ele>418</ele>
        <time>2018-06-10T10:56:38Z</time>
      </trkpt>
      <trkpt lat="44.68874" lon="5.02436">
        <ele>418</ele>
        <time>2018-06-10T10:56:40Z</time>
      </trkpt>
      <trkpt lat="44.68876" lon="5.02438">
        <ele>418</ele>
        <time>2018-06-10T10:56:42Z</time>
      </trkpt>
      <trkpt lat="44.68877" lon="5.02441">
        <ele>419</ele>
        <time>2018-06-10T10:56:44Z</time>
      </trkpt>
      <trkpt lat="44.68878" lon="5.02444">
        <ele>419</ele>
        <time>2018-06-10T10:56:46Z</time>
      </trkpt>
      <trkpt lat="44.68878" lon="5.02446">
        <ele>419</ele>
        <time>2018-06-10T10:56:48Z</time>
      </trkpt>
      <trkpt lat="44.68879" lon="5.02449">
        <ele>419</ele>
        <time>2018-06-10T10:56:50Z</time>
      </trkpt>
      <trkpt lat="44.68878" lon="5.02452">
        <ele>420</ele>
        <time>2018-06-10T10:56:52Z</time>
      </trkpt>
      <trkpt lat="44.68877" lon="5.02453">
        <ele>420</ele>
        <time>2018-06-10T10:56:54Z</time>
      </trkpt>
      <trkpt lat="44.68875" lon="5.02455">
        <ele>421</ele>
        <time>2018-06-10T10:56:56Z</time>
      </trkpt>
      <trkpt lat="44.68874" lon="5.02456">
        <ele>421</ele>
        <time>2018-06-10T10:56:58Z</time>
      </trkpt>
      <trkpt lat="44.68873" lon="5.02456">
        <ele>421</ele>
        <time>2018-06-10T10:57:00Z</time>
      </trkpt>
      <trkpt lat="44.68871" lon="5.02457">
        <ele>421</ele>
        <time>2018-06-10T10:57:02Z</time>
      </trkpt>
      <trkpt lat="44.6887" lon="5.02457">
        <ele>421</ele>
        <time>2018-06-10T10:57:04Z</time>
      </trkpt>
      <trkpt lat="44.68869" lon="5.02458">
        <ele>422</ele>
        <time>2018-06-10T10:57:06Z</time>
      </trkpt>
      <trkpt lat="44.68867" lon="5.02458">
        <ele>422</ele>
        <time>2018-06-10T10:57:08Z</time>
      </trkpt>
      <trkpt lat="44.68866" lon="5.02458">
        <ele>422</ele>
        <time>2018-06-10T10:57:10Z</time>
      </trkpt>
      <trkpt lat="44.68864" lon="5.02459">
        <ele>422</ele>
        <time>2018-06-10T10:57:12Z</time>
      </trkpt>
      <trkpt lat="44.68863" lon="5.0246">
        <ele>423</ele>
        <time>2018-06-10T10:57:14Z</time>
      </trkpt>
      <trkpt lat="44.68862" lon="5.0246">
        <ele>423</ele>
        <time>2018-06-10T10:57:17Z</time>
      </trkpt>
      <trkpt lat="44.6886" lon="5.02461">
        <ele>423</ele>
        <time>2018-06-10T10:57:19Z</time>
      </trkpt>
      <trkpt lat="44.68858" lon="5.02461">
        <ele>424</ele>
        <time>2018-06-10T10:57:21Z</time>
      </trkpt>
      <trkpt lat="44.68856" lon="5.02462">
        <ele>424</ele>
        <time>2018-06-10T10:57:23Z</time>
      </trkpt>
      <trkpt lat="44.68855" lon="5.02462">
        <ele>425</ele>
        <time>2018-06-10T10:57:25Z</time>
      </trkpt>
      <trkpt lat="44.68853" lon="5.02462">
        <ele>425</ele>
        <time>2018-06-10T10:57:27Z</time>
      </trkpt>
      <trkpt lat="44.68852" lon="5.02462">
        <ele>425</ele>
        <time>2018-06-10T10:57:29Z</time>
      </trkpt>
      <trkpt lat="44.6885" lon="5.02463">
        <ele>426</ele>
        <time>2018-06-10T10:57:31Z</time>
      </trkpt>
      <trkpt lat="44.68849" lon="5.02464">
        <ele>426</ele>
        <time>2018-06-10T10:57:33Z</time>
      </trkpt>
      <trkpt lat="44.68847" lon="5.02465">
        <ele>426</ele>
        <time>2018-06-10T10:57:35Z</time>
      </trkpt>
      <trkpt lat="44.68846" lon="5.02466">
        <ele>427</ele>
        <time>2018-06-10T10:57:37Z</time>
      </trkpt>
      <trkpt lat="44.68844" lon="5.02467">
        <ele>427</ele>
        <time>2018-06-10T10:57:39Z</time>
      </trkpt>
      <trkpt lat="44.68843" lon="5.02468">
        <ele>428</ele>
        <time>2018-06-10T10:57:41Z</time>
      </trkpt>
      <trkpt lat="44.68842" lon="5.02468">
        <ele>428</ele>
        <time>2018-06-10T10:57:43Z</time>
      </trkpt>
      <trkpt lat="44.6884" lon="5.02469">
        <ele>428</ele>
        <time>2018-06-10T10:57:45Z</time>
      </trkpt>
      <trkpt lat="44.68838" lon="5.0247">
        <ele>428</ele>
        <time>2018-06-10T10:57:47Z</time>
      </trkpt>
      <trkpt lat="44.68837" lon="5.02471">
        <ele>429</ele>
        <time>2018-06-10T10:57:49Z</time>
      </trkpt>
      <trkpt lat="44.68835" lon="5.02471">
        <ele>429</ele>
        <time>2018-06-10T10:57:51Z</time>
      </trkpt>
      <trkpt lat="44.68833" lon="5.02472">
        <ele>429</ele>
        <time>2018-06-10T10:57:53Z</time>
      </trkpt>
      <trkpt lat="44.68831" lon="5.02472">
        <ele>429</ele>
        <time>2018-06-10T10:57:55Z</time>
      </trkpt>
      <trkpt lat="44.68829" lon="5.02473">
        <ele>430</ele>
        <time>2018-06-10T10:57:57Z</time>
      </trkpt>
      <trkpt lat="44.68827" lon="5.02473">
        <ele>430</ele>
        <time>2018-06-10T10:58:00Z</time>
      </trkpt>
      <trkpt lat="44.68825" lon="5.02475">
        <ele>431</ele>
        <time>2018-06-10T10:58:02Z</time>
      </trkpt>
      <trkpt lat="44.68824" lon="5.02476">
        <ele>431</ele>
        <time>2018-06-10T10:58:04Z</time>
      </trkpt>
      <trkpt lat="44.68823" lon="5.02477">
        <ele>431</ele>
        <time>2018-06-10T10:58:06Z</time>
      </trkpt>
      <trkpt lat="44.68823" lon="5.02477">
        <ele>431</ele>
        <time>2018-06-10T10:58:08Z</time>
      </trkpt>
      <trkpt lat="44.68821" lon="5.02477">
        <ele>431</ele>
        <time>2018-06-10T10:58:10Z</time>
      </trkpt>
      <trkpt lat="44.68819" lon="5.02478">
        <ele>431</ele>
        <time>2018-06-10T10:58:12Z</time>
      </trkpt>
      <trkpt lat="44.68817" lon="5.02479">
        <ele>431</ele>
        <time>2018-06-10T10:58:14Z</time>
      </trkpt>
      <trkpt lat="44.68816" lon="5.0248">
        <ele>432</ele>
        <time>2018-06-10T10:58:16Z</time>
      </trkpt>
      <trkpt lat="44.68814" lon="5.02481">
        <ele>432</ele>
        <time>2018-06-10T10:58:18Z</time>
      </trkpt>
      <trkpt lat="44.68811" lon="5.02482">
        <ele>432</ele>
        <time>2018-06-10T10:58:21Z</time>
      </trkpt>
      <trkpt lat="44.6881" lon="5.02484">
        <ele>432</ele>
        <time>2018-06-10T10:58:23Z</time>
      </trkpt>
      <trkpt lat="44.68808" lon="5.02485">
        <ele>433</ele>
        <time>2018-06-10T10:58:25Z</time>
      </trkpt>
      <trkpt lat="44.68807" lon="5.02487">
        <ele>433</ele>
        <time>2018-06-10T10:58:27Z</time>
      </trkpt>
      <trkpt lat="44.68804" lon="5.02489">
        <ele>433</ele>
        <time>2018-06-10T10:58:29Z</time>
      </trkpt>
      <trkpt lat="44.68802" lon="5.0249">
        <ele>433</ele>
        <time>2018-06-10T10:58:31Z</time>
      </trkpt>
      <trkpt lat="44.68801" lon="5.02492">
        <ele>433</ele>
        <time>2018-06-10T10:58:33Z</time>
      </trkpt>
      <trkpt lat="44.688" lon="5.02495">
        <ele>433</ele>
        <time>2018-06-10T10:58:35Z</time>
      </trkpt>
      <trkpt lat="44.68798" lon="5.02497">
        <ele>434</ele>
        <time>2018-06-10T10:58:37Z</time>
      </trkpt>
      <trkpt lat="44.68796" lon="5.025">
        <ele>434</ele>
        <time>2018-06-10T10:58:39Z</time>
      </trkpt>
      <trkpt lat="44.68795" lon="5.02503">
        <ele>434</ele>
        <time>2018-06-10T10:58:41Z</time>
      </trkpt>
      <trkpt lat="44.68794" lon="5.02505">
        <ele>434</ele>
        <time>2018-06-10T10:58:43Z</time>
      </trkpt>
      <trkpt lat="44.68793" lon="5.02508">
        <ele>435</ele>
        <time>2018-06-10T10:58:45Z</time>
      </trkpt>
      <trkpt lat="44.68792" lon="5.02511">
        <ele>435</ele>
        <time>2018-06-10T10:58:47Z</time>
      </trkpt>
      <trkpt lat="44.6879" lon="5.02514">
        <ele>435</ele>
        <time>2018-06-10T10:58:49Z</time>
      </trkpt>
      <trkpt lat="44.68788" lon="5.02517">
        <ele>435</ele>
        <time>2018-06-10T10:58:51Z</time>
      </trkpt>
      <trkpt lat="44.68786" lon="5.0252">
        <ele>436</ele>
        <time>2018-06-10T10:58:53Z</time>
      </trkpt>
      <trkpt lat="44.68785" lon="5.02522">
        <ele>436</ele>
        <time>2018-06-10T10:58:55Z</time>
      </trkpt>
      <trkpt lat="44.68783" lon="5.02525">
        <ele>436</ele>
        <time>2018-06-10T10:58:57Z</time>
      </trkpt>
      <trkpt lat="44.68782" lon="5.02528">
        <ele>437</ele>
        <time>2018-06-10T10:58:59Z</time>
      </trkpt>
      <trkpt lat="44.6878" lon="5.02531">
        <ele>437</ele>
        <time>2018-06-10T10:59:01Z</time>
      </trkpt>
      <trkpt lat="44.68779" lon="5.02537">
        <ele>437</ele>
        <time>2018-06-10T10:59:03Z</time>
      </trkpt>
      <trkpt lat="44.68779" lon="5.0254">
        <ele>437</ele>
        <time>2018-06-10T10:59:05Z</time>
      </trkpt>
      <trkpt lat="44.68779" lon="5.02543">
        <ele>437</ele>
        <time>2018-06-10T10:59:07Z</time>
      </trkpt>
      <trkpt lat="44.68778" lon="5.02547">
        <ele>437</ele>
        <time>2018-06-10T10:59:09Z</time>
      </trkpt>
      <trkpt lat="44.68777" lon="5.0255">
        <ele>437</ele>
        <time>2018-06-10T10:59:11Z</time>
      </trkpt>
      <trkpt lat="44.68777" lon="5.02554">
        <ele>437</ele>
        <time>2018-06-10T10:59:14Z</time>
      </trkpt>
      <trkpt lat="44.68777" lon="5.02557">
        <ele>438</ele>
        <time>2018-06-10T10:59:16Z</time>
      </trkpt>
      <trkpt lat="44.68776" lon="5.0256">
        <ele>438</ele>
        <time>2018-06-10T10:59:18Z</time>
      </trkpt>
      <trkpt lat="44.68775" lon="5.02563">
        <ele>438</ele>
        <time>2018-06-10T10:59:20Z</time>
      </trkpt>
      <trkpt lat="44.68774" lon="5.02566">
        <ele>439</ele>
        <time>2018-06-10T10:59:22Z</time>
      </trkpt>
      <trkpt lat="44.68773" lon="5.02569">
        <ele>439</ele>
        <time>2018-06-10T10:59:24Z</time>
      </trkpt>
      <trkpt lat="44.68773" lon="5.02571">
        <ele>439</ele>
        <time>2018-06-10T10:59:26Z</time>
      </trkpt>
      <trkpt lat="44.68772" lon="5.02574">
        <ele>439</ele>
        <time>2018-06-10T10:59:28Z</time>
      </trkpt>
      <trkpt lat="44.68771" lon="5.02576">
        <ele>439</ele>
        <time>2018-06-10T10:59:30Z</time>
      </trkpt>
      <trkpt lat="44.68769" lon="5.02579">
        <ele>440</ele>
        <time>2018-06-10T10:59:32Z</time>
      </trkpt>
      <trkpt lat="44.68768" lon="5.02583">
        <ele>440</ele>
        <time>2018-06-10T10:59:34Z</time>
      </trkpt>
      <trkpt lat="44.68768" lon="5.02586">
        <ele>440</ele>
        <time>2018-06-10T10:59:36Z</time>
      </trkpt>
      <trkpt lat="44.68767" lon="5.0259">
        <ele>440</ele>
        <time>2018-06-10T10:59:38Z</time>
      </trkpt>
      <trkpt lat="44.68766" lon="5.02594">
        <ele>439</ele>
        <time>2018-06-10T10:59:40Z</time>
      </trkpt>
      <trkpt lat="44.68766" lon="5.02597">
        <ele>439</ele>
        <time>2018-06-10T10:59:42Z</time>
      </trkpt>
      <trkpt lat="44.68766" lon="5.02601">
        <ele>440</ele>
        <time>2018-06-10T10:59:44Z</time>
      </trkpt>
      <trkpt lat="44.68765" lon="5.02606">
        <ele>439</ele>
        <time>2018-06-10T10:59:46Z</time>
      </trkpt>
      <trkpt lat="44.68765" lon="5.02611">
        <ele>439</ele>
        <time>2018-06-10T10:59:48Z</time>
      </trkpt>
      <trkpt lat="44.68765" lon="5.02615">
        <ele>439</ele>
        <time>2018-06-10T10:59:50Z</time>
      </trkpt>
      <trkpt lat="44.68765" lon="5.02619">
        <ele>439</ele>
        <time>2018-06-10T10:59:52Z</time>
      </trkpt>
      <trkpt lat="44.68764" lon="5.02624">
        <ele>439</ele>
        <time>2018-06-10T10:59:54Z</time>
      </trkpt>
      <trkpt lat="44.68765" lon="5.02629">
        <ele>439</ele>
        <time>2018-06-10T10:59:56Z</time>
      </trkpt>
      <trkpt lat="44.68765" lon="5.02632">
        <ele>440</ele>
        <time>2018-06-10T10:59:58Z</time>
      </trkpt>
      <trkpt lat="44.68766" lon="5.02636">
        <ele>439</ele>
        <time>2018-06-10T11:00:00Z</time>
      </trkpt>
      <trkpt lat="44.68767" lon="5.0264">
        <ele>440</ele>
        <time>2018-06-10T11:00:02Z</time>
      </trkpt>
      <trkpt lat="44.68766" lon="5.02644">
        <ele>440</ele>
        <time>2018-06-10T11:00:04Z</time>
      </trkpt>
      <trkpt lat="44.68767" lon="5.02648">
        <ele>440</ele>
        <time>2018-06-10T11:00:06Z</time>
      </trkpt>
      <trkpt lat="44.68768" lon="5.02652">
        <ele>440</ele>
        <time>2018-06-10T11:00:08Z</time>
      </trkpt>
      <trkpt lat="44.68769" lon="5.02656">
        <ele>440</ele>
        <time>2018-06-10T11:00:10Z</time>
      </trkpt>
      <trkpt lat="44.68771" lon="5.02659">
        <ele>441</ele>
        <time>2018-06-10T11:00:12Z</time>
      </trkpt>
      <trkpt lat="44.68771" lon="5.02662">
        <ele>441</ele>
        <time>2018-06-10T11:00:14Z</time>
      </trkpt>
      <trkpt lat="44.68772" lon="5.02666">
        <ele>441</ele>
        <time>2018-06-10T11:00:16Z</time>
      </trkpt>
      <trkpt lat="44.68773" lon="5.0267">
        <ele>442</ele>
        <time>2018-06-10T11:00:18Z</time>
      </trkpt>
      <trkpt lat="44.68775" lon="5.02674">
        <ele>442</ele>
        <time>2018-06-10T11:00:20Z</time>
      </trkpt>
      <trkpt lat="44.68775" lon="5.02678">
        <ele>443</ele>
        <time>2018-06-10T11:00:22Z</time>
      </trkpt>
      <trkpt lat="44.68776" lon="5.02682">
        <ele>443</ele>
        <time>2018-06-10T11:00:24Z</time>
      </trkpt>
      <trkpt lat="44.68776" lon="5.02685">
        <ele>443</ele>
        <time>2018-06-10T11:00:26Z</time>
      </trkpt>
      <trkpt lat="44.68777" lon="5.02688">
        <ele>444</ele>
        <time>2018-06-10T11:00:28Z</time>
      </trkpt>
      <trkpt lat="44.68778" lon="5.02691">
        <ele>444</ele>
        <time>2018-06-10T11:00:30Z</time>
      </trkpt>
      <trkpt lat="44.6878" lon="5.02696">
        <ele>444</ele>
        <time>2018-06-10T11:00:32Z</time>
      </trkpt>
      <trkpt lat="44.68781" lon="5.027">
        <ele>445</ele>
        <time>2018-06-10T11:00:35Z</time>
      </trkpt>
      <trkpt lat="44.68783" lon="5.02703">
        <ele>445</ele>
        <time>2018-06-10T11:00:37Z</time>
      </trkpt>
      <trkpt lat="44.68784" lon="5.02706">
        <ele>446</ele>
        <time>2018-06-10T11:00:39Z</time>
      </trkpt>
      <trkpt lat="44.68786" lon="5.02709">
        <ele>446</ele>
        <time>2018-06-10T11:00:41Z</time>
      </trkpt>
      <trkpt lat="44.68786" lon="5.02713">
        <ele>446</ele>
        <time>2018-06-10T11:00:43Z</time>
      </trkpt>
      <trkpt lat="44.68787" lon="5.02716">
        <ele>447</ele>
        <time>2018-06-10T11:00:45Z</time>
      </trkpt>
      <trkpt lat="44.68787" lon="5.0272">
        <ele>447</ele>
        <time>2018-06-10T11:00:47Z</time>
      </trkpt>
      <trkpt lat="44.68785" lon="5.02722">
        <ele>448</ele>
        <time>2018-06-10T11:00:49Z</time>
      </trkpt>
      <trkpt lat="44.68783" lon="5.02725">
        <ele>448</ele>
        <time>2018-06-10T11:00:51Z</time>
      </trkpt>
      <trkpt lat="44.68782" lon="5.02727">
        <ele>448</ele>
        <time>2018-06-10T11:00:53Z</time>
      </trkpt>
      <trkpt lat="44.6878" lon="5.02728">
        <ele>449</ele>
        <time>2018-06-10T11:00:55Z</time>
      </trkpt>
      <trkpt lat="44.68779" lon="5.02731">
        <ele>449</ele>
        <time>2018-06-10T11:00:57Z</time>
      </trkpt>
      <trkpt lat="44.68778" lon="5.02733">
        <ele>448</ele>
        <time>2018-06-10T11:00:59Z</time>
      </trkpt>
      <trkpt lat="44.68778" lon="5.02736">
        <ele>449</ele>
        <time>2018-06-10T11:01:01Z</time>
      </trkpt>
      <trkpt lat="44.68778" lon="5.02739">
        <ele>449</ele>
        <time>2018-06-10T11:01:03Z</time>
      </trkpt>
      <trkpt lat="44.68778" lon="5.02743">
        <ele>449</ele>
        <time>2018-06-10T11:01:05Z</time>
      </trkpt>
      <trkpt lat="44.68778" lon="5.0275">
        <ele>448</ele>
        <time>2018-06-10T11:01:07Z</time>
      </trkpt>
      <trkpt lat="44.68781" lon="5.02754">
        <ele>447</ele>
        <time>2018-06-10T11:01:09Z</time>
      </trkpt>
      <trkpt lat="44.68784" lon="5.02758">
        <ele>448</ele>
        <time>2018-06-10T11:01:11Z</time>
      </trkpt>
      <trkpt lat="44.68788" lon="5.02763">
        <ele>447</ele>
        <time>2018-06-10T11:01:13Z</time>
      </trkpt>
      <trkpt lat="44.6879" lon="5.02767">
        <ele>447</ele>
        <time>2018-06-10T11:01:15Z</time>
      </trkpt>
      <trkpt lat="44.68792" lon="5.02768">
        <ele>447</ele>
        <time>2018-06-10T11:01:18Z</time>
      </trkpt>
      <trkpt lat="44.68794" lon="5.02771">
        <ele>448</ele>
        <time>2018-06-10T11:01:20Z</time>
      </trkpt>
      <trkpt lat="44.68797" lon="5.02773">
        <ele>448</ele>
        <time>2018-06-10T11:01:22Z</time>
      </trkpt>
      <trkpt lat="44.688" lon="5.02775">
        <ele>448</ele>
        <time>2018-06-10T11:01:24Z</time>
      </trkpt>
      <trkpt lat="44.68801" lon="5.02778">
        <ele>448</ele>
        <time>2018-06-10T11:01:26Z</time>
      </trkpt>
      <trkpt lat="44.68803" lon="5.02779">
        <ele>448</ele>
        <time>2018-06-10T11:01:28Z</time>
      </trkpt>
      <trkpt lat="44.68806" lon="5.02782">
        <ele>449</ele>
        <time>2018-06-10T11:01:30Z</time>
      </trkpt>
      <trkpt lat="44.68809" lon="5.02784">
        <ele>449</ele>
        <time>2018-06-10T11:01:32Z</time>
      </trkpt>
      <trkpt lat="44.68812" lon="5.02787">
        <ele>449</ele>
        <time>2018-06-10T11:01:34Z</time>
      </trkpt>
      <trkpt lat="44.68815" lon="5.0279">
        <ele>449</ele>
        <time>2018-06-10T11:01:36Z</time>
      </trkpt>
      <trkpt lat="44.68819" lon="5.02793">
        <ele>449</ele>
        <time>2018-06-10T11:01:38Z</time>
      </trkpt>
      <trkpt lat="44.68821" lon="5.02795">
        <ele>449</ele>
        <time>2018-06-10T11:01:40Z</time>
      </trkpt>
      <trkpt lat="44.68824" lon="5.02797">
        <ele>450</ele>
        <time>2018-06-10T11:01:42Z</time>
      </trkpt>
      <trkpt lat="44.68826" lon="5.028">
        <ele>450</ele>
        <time>2018-06-10T11:01:44Z</time>
      </trkpt>
      <trkpt lat="44.68828" lon="5.02803">
        <ele>450</ele>
        <time>2018-06-10T11:01:46Z</time>
      </trkpt>
      <trkpt lat="44.68831" lon="5.02807">
        <ele>450</ele>
        <time>2018-06-10T11:01:48Z</time>
      </trkpt>
      <trkpt lat="44.68833" lon="5.02811">
        <ele>449</ele>
        <time>2018-06-10T11:01:50Z</time>
      </trkpt>
      <trkpt lat="44.68836" lon="5.02815">
        <ele>450</ele>
        <time>2018-06-10T11:01:52Z</time>
      </trkpt>
      <trkpt lat="44.6884" lon="5.02818">
        <ele>450</ele>
        <time>2018-06-10T11:01:54Z</time>
      </trkpt>
      <trkpt lat="44.68842" lon="5.02821">
        <ele>451</ele>
        <time>2018-06-10T11:01:56Z</time>
      </trkpt>
      <trkpt lat="44.68844" lon="5.02824">
        <ele>451</ele>
        <time>2018-06-10T11:01:58Z</time>
      </trkpt>
      <trkpt lat="44.68846" lon="5.02827">
        <ele>451</ele>
        <time>2018-06-10T11:02:00Z</time>
      </trkpt>
      <trkpt lat="44.68848" lon="5.02829">
        <ele>451</ele>
        <time>2018-06-10T11:02:02Z</time>
      </trkpt>
      <trkpt lat="44.68851" lon="5.02832">
        <ele>452</ele>
        <time>2018-06-10T11:02:04Z</time>
      </trkpt>
      <trkpt lat="44.68854" lon="5.02834">
        <ele>452</ele>
        <time>2018-06-10T11:02:06Z</time>
      </trkpt>
      <trkpt lat="44.68856" lon="5.02835">
        <ele>453</ele>
        <time>2018-06-10T11:02:08Z</time>
      </trkpt>
      <trkpt lat="44.68858" lon="5.02837">
        <ele>453</ele>
        <time>2018-06-10T11:02:10Z</time>
      </trkpt>
      <trkpt lat="44.68859" lon="5.0284">
        <ele>453</ele>
        <time>2018-06-10T11:02:12Z</time>
      </trkpt>
      <trkpt lat="44.68861" lon="5.02842">
        <ele>454</ele>
        <time>2018-06-10T11:02:14Z</time>
      </trkpt>
      <trkpt lat="44.68864" lon="5.02845">
        <ele>454</ele>
        <time>2018-06-10T11:02:16Z</time>
      </trkpt>
      <trkpt lat="44.68865" lon="5.02848">
        <ele>454</ele>
        <time>2018-06-10T11:02:18Z</time>
      </trkpt>
      <trkpt lat="44.68868" lon="5.0285">
        <ele>454</ele>
        <time>2018-06-10T11:02:20Z</time>
      </trkpt>
      <trkpt lat="44.6887" lon="5.02852">
        <ele>455</ele>
        <time>2018-06-10T11:02:22Z</time>
      </trkpt>
      <trkpt lat="44.68872" lon="5.02854">
        <ele>455</ele>
        <time>2018-06-10T11:02:24Z</time>
      </trkpt>
      <trkpt lat="44.68873" lon="5.02856">
        <ele>456</ele>
        <time>2018-06-10T11:02:26Z</time>
      </trkpt>
      <trkpt lat="44.68875" lon="5.02859">
        <ele>456</ele>
        <time>2018-06-10T11:02:28Z</time>
      </trkpt>
      <trkpt lat="44.68876" lon="5.02862">
        <ele>456</ele>
        <time>2018-06-10T11:02:30Z</time>
      </trkpt>
      <trkpt lat="44.68878" lon="5.02864">
        <ele>457</ele>
        <time>2018-06-10T11:02:32Z</time>
      </trkpt>
      <trkpt lat="44.6888" lon="5.02866">
        <ele>457</ele>
        <time>2018-06-10T11:02:34Z</time>
      </trkpt>
      <trkpt lat="44.68882" lon="5.02869">
        <ele>457</ele>
        <time>2018-06-10T11:02:36Z</time>
      </trkpt>
      <trkpt lat="44.68884" lon="5.02872">
        <ele>457</ele>
        <time>2018-06-10T11:02:38Z</time>
      </trkpt>
      <trkpt lat="44.68886" lon="5.02875">
        <ele>457</ele>
        <time>2018-06-10T11:02:40Z</time>
      </trkpt>
      <trkpt lat="44.68888" lon="5.02878">
        <ele>458</ele>
        <time>2018-06-10T11:02:43Z</time>
      </trkpt>
      <trkpt lat="44.68889" lon="5.0288">
        <ele>458</ele>
        <time>2018-06-10T11:02:45Z</time>
      </trkpt>
      <trkpt lat="44.68891" lon="5.02883">
        <ele>459</ele>
        <time>2018-06-10T11:02:47Z</time>
      </trkpt>
      <trkpt lat="44.68892" lon="5.02886">
        <ele>459</ele>
        <time>2018-06-10T11:02:49Z</time>
      </trkpt>
      <trkpt lat="44.68894" lon="5.02888">
        <ele>458</ele>
        <time>2018-06-10T11:02:51Z</time>
      </trkpt>
      <trkpt lat="44.68896" lon="5.02891">
        <ele>459</ele>
        <time>2018-06-10T11:02:53Z</time>
      </trkpt>
      <trkpt lat="44.68898" lon="5.02895">
        <ele>459</ele>
        <time>2018-06-10T11:02:55Z</time>
      </trkpt>
      <trkpt lat="44.689" lon="5.02898">
        <ele>459</ele>
        <time>2018-06-10T11:02:57Z</time>
      </trkpt>
      <trkpt lat="44.68903" lon="5.02901">
        <ele>459</ele>
        <time>2018-06-10T11:02:59Z</time>
      </trkpt>
      <trkpt lat="44.68905" lon="5.02905">
        <ele>460</ele>
        <time>2018-06-10T11:03:01Z</time>
      </trkpt>
      <trkpt lat="44.68907" lon="5.02908">
        <ele>459</ele>
        <time>2018-06-10T11:03:03Z</time>
      </trkpt>
      <trkpt lat="44.68909" lon="5.02912">
        <ele>459</ele>
        <time>2018-06-10T11:03:05Z</time>
      </trkpt>
      <trkpt lat="44.68911" lon="5.02917">
        <ele>459</ele>
        <time>2018-06-10T11:03:07Z</time>
      </trkpt>
      <trkpt lat="44.68914" lon="5.02922">
        <ele>460</ele>
        <time>2018-06-10T11:03:09Z</time>
      </trkpt>
      <trkpt lat="44.68917" lon="5.02926">
        <ele>460</ele>
        <time>2018-06-10T11:03:11Z</time>
      </trkpt>
      <trkpt lat="44.6892" lon="5.02931">
        <ele>459</ele>
        <time>2018-06-10T11:03:13Z</time>
      </trkpt>
      <trkpt lat="44.68922" lon="5.02937">
        <ele>460</ele>
        <time>2018-06-10T11:03:15Z</time>
      </trkpt>
      <trkpt lat="44.68925" lon="5.02942">
        <ele>460</ele>
        <time>2018-06-10T11:03:17Z</time>
      </trkpt>
      <trkpt lat="44.68929" lon="5.02947">
        <ele>460</ele>
        <time>2018-06-10T11:03:19Z</time>
      </trkpt>
      <trkpt lat="44.68934" lon="5.02954">
        <ele>460</ele>
        <time>2018-06-10T11:03:21Z</time>
      </trkpt>
      <trkpt lat="44.68937" lon="5.02958">
        <ele>460</ele>
        <time>2018-06-10T11:03:23Z</time>
      </trkpt>
      <trkpt lat="44.68939" lon="5.02963">
        <ele>461</ele>
        <time>2018-06-10T11:03:25Z</time>
      </trkpt>
      <trkpt lat="44.68941" lon="5.02965">
        <ele>461</ele>
        <time>2018-06-10T11:03:27Z</time>
      </trkpt>
      <trkpt lat="44.68943" lon="5.02967">
        <ele>462</ele>
        <time>2018-06-10T11:03:30Z</time>
      </trkpt>
      <trkpt lat="44.68944" lon="5.02971">
        <ele>462</ele>
        <time>2018-06-10T11:03:32Z</time>
      </trkpt>
      <trkpt lat="44.68946" lon="5.02976">
        <ele>462</ele>
        <time>2018-06-10T11:03:34Z</time>
      </trkpt>
      <trkpt lat="44.68949" lon="5.0298">
        <ele>462</ele>
        <time>2018-06-10T11:03:36Z</time>
      </trkpt>
      <trkpt lat="44.6895" lon="5.02984">
        <ele>462</ele>
        <time>2018-06-10T11:03:38Z</time>
      </trkpt>
      <trkpt lat="44.68951" lon="5.02988">
        <ele>462</ele>
        <time>2018-06-10T11:03:40Z</time>
      </trkpt>
      <trkpt lat="44.68952" lon="5.02993">
        <ele>462</ele>
        <time>2018-06-10T11:03:42Z</time>
      </trkpt>
      <trkpt lat="44.68954" lon="5.02998">
        <ele>462</ele>
        <time>2018-06-10T11:03:44Z</time>
      </trkpt>
      <trkpt lat="44.68958" lon="5.03007">
        <ele>461</ele>
        <time>2018-06-10T11:03:46Z</time>
      </trkpt>
      <trkpt lat="44.68962" lon="5.03015">
        <ele>461</ele>
        <time>2018-06-10T11:03:48Z</time>
      </trkpt>
      <trkpt lat="44.68964" lon="5.03026">
        <ele>461</ele>
        <time>2018-06-10T11:03:50Z</time>
      </trkpt>
      <trkpt lat="44.68963" lon="5.03035">
        <ele>460</ele>
        <time>2018-06-10T11:03:52Z</time>
      </trkpt>
      <trkpt lat="44.68962" lon="5.03046">
        <ele>458</ele>
        <time>2018-06-10T11:03:54Z</time>
      </trkpt>
      <trkpt lat="44.68963" lon="5.03055">
        <ele>457</ele>
        <time>2018-06-10T11:03:56Z</time>
      </trkpt>
      <trkpt lat="44.68964" lon="5.03068">
        <ele>457</ele>
        <time>2018-06-10T11:03:58Z</time>
      </trkpt>
      <trkpt lat="44.68966" lon="5.03084">
        <ele>455</ele>
        <time>2018-06-10T11:04:00Z</time>
      </trkpt>
      <trkpt lat="44.68967" lon="5.03103">
        <ele>453</ele>
        <time>2018-06-10T11:04:02Z</time>
      </trkpt>
      <trkpt lat="44.68969" lon="5.03119">
        <ele>452</ele>
        <time>2018-06-10T11:04:04Z</time>
      </trkpt>
      <trkpt lat="44.6897" lon="5.03134">
        <ele>449</ele>
        <time>2018-06-10T11:04:06Z</time>
      </trkpt>
      <trkpt lat="44.6897" lon="5.03152">
        <ele>448</ele>
        <time>2018-06-10T11:04:08Z</time>
      </trkpt>
      <trkpt lat="44.68967" lon="5.0317">
        <ele>448</ele>
        <time>2018-06-10T11:04:10Z</time>
      </trkpt>
      <trkpt lat="44.68963" lon="5.03189">
        <ele>447</ele>
        <time>2018-06-10T11:04:12Z</time>
      </trkpt>
      <trkpt lat="44.68962" lon="5.03205">
        <ele>446</ele>
        <time>2018-06-10T11:04:14Z</time>
      </trkpt>
      <trkpt lat="44.68959" lon="5.03222">
        <ele>445</ele>
        <time>2018-06-10T11:04:16Z</time>
      </trkpt>
      <trkpt lat="44.68955" lon="5.03241">
        <ele>444</ele>
        <time>2018-06-10T11:04:18Z</time>
      </trkpt>
      <trkpt lat="44.6895" lon="5.03266">
        <ele>443</ele>
        <time>2018-06-10T11:04:20Z</time>
      </trkpt>
      <trkpt lat="44.68942" lon="5.03276">
        <ele>441</ele>
        <time>2018-06-10T11:04:23Z</time>
      </trkpt>
      <trkpt lat="44.68938" lon="5.03291">
        <ele>440</ele>
        <time>2018-06-10T11:04:25Z</time>
      </trkpt>
      <trkpt lat="44.68933" lon="5.03308">
        <ele>439</ele>
        <time>2018-06-10T11:04:27Z</time>
      </trkpt>
      <trkpt lat="44.6893" lon="5.03323">
        <ele>438</ele>
        <time>2018-06-10T11:04:29Z</time>
      </trkpt>
      <trkpt lat="44.68932" lon="5.03334">
        <ele>437</ele>
        <time>2018-06-10T11:04:31Z</time>
      </trkpt>
      <trkpt lat="44.68932" lon="5.03343">
        <ele>436</ele>
        <time>2018-06-10T11:04:33Z</time>
      </trkpt>
      <trkpt lat="44.68926" lon="5.0335">
        <ele>435</ele>
        <time>2018-06-10T11:04:35Z</time>
      </trkpt>
      <trkpt lat="44.68916" lon="5.03359">
        <ele>434</ele>
        <time>2018-06-10T11:04:37Z</time>
      </trkpt>
      <trkpt lat="44.68907" lon="5.03373">
        <ele>432</ele>
        <time>2018-06-10T11:04:39Z</time>
      </trkpt>
      <trkpt lat="44.68898" lon="5.03383">
        <ele>429</ele>
        <time>2018-06-10T11:04:41Z</time>
      </trkpt>
      <trkpt lat="44.68888" lon="5.03392">
        <ele>428</ele>
        <time>2018-06-10T11:04:43Z</time>
      </trkpt>
      <trkpt lat="44.68876" lon="5.03401">
        <ele>427</ele>
        <time>2018-06-10T11:04:45Z</time>
      </trkpt>
      <trkpt lat="44.68868" lon="5.03414">
        <ele>424</ele>
        <time>2018-06-10T11:04:47Z</time>
      </trkpt>
      <trkpt lat="44.6886" lon="5.03425">
        <ele>423</ele>
        <time>2018-06-10T11:04:49Z</time>
      </trkpt>
      <trkpt lat="44.6885" lon="5.03435">
        <ele>420</ele>
        <time>2018-06-10T11:04:51Z</time>
      </trkpt>
      <trkpt lat="44.68841" lon="5.03449">
        <ele>419</ele>
        <time>2018-06-10T11:04:53Z</time>
      </trkpt>
      <trkpt lat="44.6883" lon="5.03462">
        <ele>417</ele>
        <time>2018-06-10T11:04:55Z</time>
      </trkpt>
      <trkpt lat="44.68822" lon="5.03475">
        <ele>416</ele>
        <time>2018-06-10T11:04:57Z</time>
      </trkpt>
      <trkpt lat="44.68811" lon="5.03487">
        <ele>413</ele>
        <time>2018-06-10T11:04:59Z</time>
      </trkpt>
      <trkpt lat="44.68793" lon="5.03507">
        <ele>413</ele>
        <time>2018-06-10T11:05:01Z</time>
      </trkpt>
      <trkpt lat="44.68785" lon="5.03521">
        <ele>411</ele>
        <time>2018-06-10T11:05:03Z</time>
      </trkpt>
      <trkpt lat="44.68778" lon="5.03533">
        <ele>409</ele>
        <time>2018-06-10T11:05:05Z</time>
      </trkpt>
      <trkpt lat="44.68771" lon="5.03539">
        <ele>407</ele>
        <time>2018-06-10T11:05:07Z</time>
      </trkpt>
      <trkpt lat="44.68763" lon="5.03554">
        <ele>405</ele>
        <time>2018-06-10T11:05:09Z</time>
      </trkpt>
      <trkpt lat="44.68759" lon="5.03572">
        <ele>404</ele>
        <time>2018-06-10T11:05:11Z</time>
      </trkpt>
      <trkpt lat="44.68754" lon="5.0359">
        <ele>402</ele>
        <time>2018-06-10T11:05:13Z</time>
      </trkpt>
      <trkpt lat="44.68748" lon="5.03601">
        <ele>400</ele>
        <time>2018-06-10T11:05:15Z</time>
      </trkpt>
      <trkpt lat="44.68742" lon="5.03614">
        <ele>398</ele>
        <time>2018-06-10T11:05:17Z</time>
      </trkpt>
      <trkpt lat="44.68738" lon="5.03624">
        <ele>397</ele>
        <time>2018-06-10T11:05:19Z</time>
      </trkpt>
      <trkpt lat="44.68736" lon="5.03638">
        <ele>394</ele>
        <time>2018-06-10T11:05:22Z</time>
      </trkpt>
      <trkpt lat="44.68735" lon="5.03652">
        <ele>391</ele>
        <time>2018-06-10T11:05:24Z</time>
      </trkpt>
      <trkpt lat="44.68733" lon="5.03663">
        <ele>389</ele>
        <time>2018-06-10T11:05:26Z</time>
      </trkpt>
      <trkpt lat="44.68733" lon="5.03673">
        <ele>388</ele>
        <time>2018-06-10T11:05:28Z</time>
      </trkpt>
      <trkpt lat="44.68731" lon="5.03682">
        <ele>385</ele>
        <time>2018-06-10T11:05:30Z</time>
      </trkpt>
      <trkpt lat="44.6873" lon="5.03695">
        <ele>380</ele>
        <time>2018-06-10T11:05:32Z</time>
      </trkpt>
      <trkpt lat="44.68728" lon="5.0371">
        <ele>379</ele>
        <time>2018-06-10T11:05:34Z</time>
      </trkpt>
      <trkpt lat="44.68727" lon="5.0372">
        <ele>376</ele>
        <time>2018-06-10T11:05:36Z</time>
      </trkpt>
      <trkpt lat="44.68726" lon="5.0373">
        <ele>373</ele>
        <time>2018-06-10T11:05:38Z</time>
      </trkpt>
      <trkpt lat="44.68724" lon="5.03736">
        <ele>371</ele>
        <time>2018-06-10T11:05:40Z</time>
      </trkpt>
      <trkpt lat="44.68719" lon="5.03738">
        <ele>369</ele>
        <time>2018-06-10T11:05:42Z</time>
      </trkpt>
      <trkpt lat="44.68716" lon="5.03738">
        <ele>367</ele>
        <time>2018-06-10T11:05:44Z</time>
      </trkpt>
      <trkpt lat="44.68707" lon="5.03743">
        <ele>366</ele>
        <time>2018-06-10T11:05:46Z</time>
      </trkpt>
      <trkpt lat="44.68699" lon="5.03753">
        <ele>361</ele>
        <time>2018-06-10T11:05:48Z</time>
      </trkpt>
      <trkpt lat="44.68687" lon="5.03764">
        <ele>360</ele>
        <time>2018-06-10T11:05:50Z</time>
      </trkpt>
      <trkpt lat="44.68683" lon="5.03766">
        <ele>358</ele>
        <time>2018-06-10T11:05:52Z</time>
      </trkpt>
      <trkpt lat="44.68681" lon="5.03769">
        <ele>358</ele>
        <time>2018-06-10T11:05:54Z</time>
      </trkpt>
      <trkpt lat="44.6868" lon="5.0377">
        <ele>358</ele>
        <time>2018-06-10T11:05:56Z</time>
      </trkpt>
      <trkpt lat="44.68681" lon="5.03769">
        <ele>359</ele>
        <time>2018-06-10T11:05:58Z</time>
      </trkpt>
      <trkpt lat="44.68682" lon="5.0377">
        <ele>359</ele>
        <time>2018-06-10T11:06:00Z</time>
      </trkpt>
      <trkpt lat="44.68683" lon="5.03772">
        <ele>359</ele>
        <time>2018-06-10T11:06:02Z</time>
      </trkpt>
      <trkpt lat="44.68684" lon="5.03773">
        <ele>359</ele>
        <time>2018-06-10T11:06:04Z</time>
      </trkpt>
      <trkpt lat="44.68685" lon="5.03774">
        <ele>359</ele>
        <time>2018-06-10T11:06:06Z</time>
      </trkpt>
      <trkpt lat="44.68684" lon="5.03777">
        <ele>358</ele>
        <time>2018-06-10T11:06:08Z</time>
      </trkpt>
      <trkpt lat="44.68683" lon="5.03782">
        <ele>358</ele>
        <time>2018-06-10T11:06:10Z</time>
      </trkpt>
      <trkpt lat="44.68681" lon="5.03789">
        <ele>356</ele>
        <time>2018-06-10T11:06:12Z</time>
      </trkpt>
      <trkpt lat="44.68678" lon="5.03794">
        <ele>356</ele>
        <time>2018-06-10T11:06:14Z</time>
      </trkpt>
      <trkpt lat="44.68673" lon="5.03801">
        <ele>353</ele>
        <time>2018-06-10T11:06:16Z</time>
      </trkpt>
      <trkpt lat="44.68668" lon="5.03807">
        <ele>352</ele>
        <time>2018-06-10T11:06:18Z</time>
      </trkpt>
      <trkpt lat="44.68664" lon="5.03811">
        <ele>351</ele>
        <time>2018-06-10T11:06:20Z</time>
      </trkpt>
      <trkpt lat="44.68662" lon="5.0382">
        <ele>350</ele>
        <time>2018-06-10T11:06:22Z</time>
      </trkpt>
      <trkpt lat="44.68658" lon="5.03835">
        <ele>347</ele>
        <time>2018-06-10T11:06:24Z</time>
      </trkpt>
      <trkpt lat="44.68649" lon="5.0384">
        <ele>346</ele>
        <time>2018-06-10T11:06:26Z</time>
      </trkpt>
      <trkpt lat="44.68641" lon="5.0384">
        <ele>346</ele>
        <time>2018-06-10T11:06:28Z</time>
      </trkpt>
      <trkpt lat="44.68633" lon="5.0384">
        <ele>345</ele>
        <time>2018-06-10T11:06:30Z</time>
      </trkpt>
      <trkpt lat="44.68625" lon="5.03843">
        <ele>344</ele>
        <time>2018-06-10T11:06:32Z</time>
      </trkpt>
      <trkpt lat="44.68618" lon="5.03846">
        <ele>341</ele>
        <time>2018-06-10T11:06:35Z</time>
      </trkpt>
      <trkpt lat="44.68614" lon="5.03848">
        <ele>338</ele>
        <time>2018-06-10T11:06:37Z</time>
      </trkpt>
      <trkpt lat="44.68613" lon="5.03852">
        <ele>338</ele>
        <time>2018-06-10T11:06:39Z</time>
      </trkpt>
      <trkpt lat="44.6861" lon="5.03856">
        <ele>336</ele>
        <time>2018-06-10T11:06:41Z</time>
      </trkpt>
      <trkpt lat="44.68607" lon="5.0386">
        <ele>335</ele>
        <time>2018-06-10T11:06:43Z</time>
      </trkpt>
      <trkpt lat="44.68604" lon="5.03864">
        <ele>332</ele>
        <time>2018-06-10T11:06:45Z</time>
      </trkpt>
      <trkpt lat="44.686" lon="5.03869">
        <ele>331</ele>
        <time>2018-06-10T11:06:47Z</time>
      </trkpt>
      <trkpt lat="44.68594" lon="5.0387">
        <ele>328</ele>
        <time>2018-06-10T11:06:49Z</time>
      </trkpt>
      <trkpt lat="44.68589" lon="5.03871">
        <ele>329</ele>
        <time>2018-06-10T11:06:51Z</time>
      </trkpt>
      <trkpt lat="44.68586" lon="5.03875">
        <ele>329</ele>
        <time>2018-06-10T11:06:53Z</time>
      </trkpt>
      <trkpt lat="44.68584" lon="5.0388">
        <ele>329</ele>
        <time>2018-06-10T11:06:55Z</time>
      </trkpt>
      <trkpt lat="44.68584" lon="5.03885">
        <ele>329</ele>
        <time>2018-06-10T11:06:57Z</time>
      </trkpt>
      <trkpt lat="44.68584" lon="5.03889">
        <ele>329</ele>
        <time>2018-06-10T11:06:59Z</time>
      </trkpt>
      <trkpt lat="44.68585" lon="5.03893">
        <ele>329</ele>
        <time>2018-06-10T11:07:01Z</time>
      </trkpt>
      <trkpt lat="44.68587" lon="5.03897">
        <ele>329</ele>
        <time>2018-06-10T11:07:03Z</time>
      </trkpt>
      <trkpt lat="44.68587" lon="5.03899">
        <ele>329</ele>
        <time>2018-06-10T11:07:05Z</time>
      </trkpt>
      <trkpt lat="44.68586" lon="5.03901">
        <ele>329</ele>
        <time>2018-06-10T11:07:07Z</time>
      </trkpt>
      <trkpt lat="44.68583" lon="5.03904">
        <ele>327</ele>
        <time>2018-06-10T11:07:09Z</time>
      </trkpt>
      <trkpt lat="44.68579" lon="5.03906">
        <ele>326</ele>
        <time>2018-06-10T11:07:11Z</time>
      </trkpt>
      <trkpt lat="44.68576" lon="5.03906">
        <ele>324</ele>
        <time>2018-06-10T11:07:13Z</time>
      </trkpt>
      <trkpt lat="44.68572" lon="5.03909">
        <ele>320</ele>
        <time>2018-06-10T11:07:15Z</time>
      </trkpt>
      <trkpt lat="44.68569" lon="5.0391">
        <ele>320</ele>
        <time>2018-06-10T11:07:17Z</time>
      </trkpt>
      <trkpt lat="44.68567" lon="5.03915">
        <ele>319</ele>
        <time>2018-06-10T11:07:19Z</time>
      </trkpt>
      <trkpt lat="44.68567" lon="5.0392">
        <ele>319</ele>
        <time>2018-06-10T11:07:21Z</time>
      </trkpt>
      <trkpt lat="44.68567" lon="5.03924">
        <ele>319</ele>
        <time>2018-06-10T11:07:23Z</time>
      </trkpt>
      <trkpt lat="44.68567" lon="5.03928">
        <ele>318</ele>
        <time>2018-06-10T11:07:25Z</time>
      </trkpt>
      <trkpt lat="44.68569" lon="5.03933">
        <ele>318</ele>
        <time>2018-06-10T11:07:27Z</time>
      </trkpt>
      <trkpt lat="44.68572" lon="5.03939">
        <ele>318</ele>
        <time>2018-06-10T11:07:29Z</time>
      </trkpt>
      <trkpt lat="44.68576" lon="5.03946">
        <ele>317</ele>
        <time>2018-06-10T11:07:31Z</time>
      </trkpt>
      <trkpt lat="44.6858" lon="5.03956">
        <ele>317</ele>
        <time>2018-06-10T11:07:33Z</time>
      </trkpt>
      <trkpt lat="44.68583" lon="5.03967">
        <ele>317</ele>
        <time>2018-06-10T11:07:35Z</time>
      </trkpt>
      <trkpt lat="44.68586" lon="5.03977">
        <ele>316</ele>
        <time>2018-06-10T11:07:37Z</time>
      </trkpt>
      <trkpt lat="44.68589" lon="5.03985">
        <ele>314</ele>
        <time>2018-06-10T11:07:39Z</time>
      </trkpt>
      <trkpt lat="44.68593" lon="5.03994">
        <ele>313</ele>
        <time>2018-06-10T11:07:41Z</time>
      </trkpt>
      <trkpt lat="44.68596" lon="5.03999">
        <ele>313</ele>
        <time>2018-06-10T11:07:43Z</time>
      </trkpt>
      <trkpt lat="44.68597" lon="5.04003">
        <ele>313</ele>
        <time>2018-06-10T11:07:45Z</time>
      </trkpt>
      <trkpt lat="44.68596" lon="5.04009">
        <ele>312</ele>
        <time>2018-06-10T11:07:47Z</time>
      </trkpt>
      <trkpt lat="44.68593" lon="5.04011">
        <ele>312</ele>
        <time>2018-06-10T11:07:49Z</time>
      </trkpt>
      <trkpt lat="44.68592" lon="5.04011">
        <ele>312</ele>
        <time>2018-06-10T11:07:51Z</time>
      </trkpt>
      <trkpt lat="44.68591" lon="5.04008">
        <ele>313</ele>
        <time>2018-06-10T11:07:53Z</time>
      </trkpt>
      <trkpt lat="44.68589" lon="5.04006">
        <ele>313</ele>
        <time>2018-06-10T11:07:55Z</time>
      </trkpt>
      <trkpt lat="44.68586" lon="5.04004">
        <ele>313</ele>
        <time>2018-06-10T11:07:57Z</time>
      </trkpt>
      <trkpt lat="44.68588" lon="5.04003">
        <ele>313</ele>
        <time>2018-06-10T11:08:00Z</time>
      </trkpt>
      <trkpt lat="44.6859" lon="5.04005">
        <ele>313</ele>
        <time>2018-06-10T11:08:02Z</time>
      </trkpt>
      <trkpt lat="44.68591" lon="5.04007">
        <ele>313</ele>
        <time>2018-06-10T11:08:04Z</time>
      </trkpt>
      <trkpt lat="44.68592" lon="5.04009">
        <ele>313</ele>
        <time>2018-06-10T11:08:06Z</time>
      </trkpt>
      <trkpt lat="44.68593" lon="5.0401">
        <ele>312</ele>
        <time>2018-06-10T11:08:08Z</time>
      </trkpt>
      <trkpt lat="44.68596" lon="5.04013">
        <ele>312</ele>
        <time>2018-06-10T11:08:10Z</time>
      </trkpt>
      <trkpt lat="44.68593" lon="5.04012">
        <ele>313</ele>
        <time>2018-06-10T11:08:12Z</time>
      </trkpt>
      <trkpt lat="44.68591" lon="5.0401">
        <ele>313</ele>
        <time>2018-06-10T11:08:14Z</time>
      </trkpt>
      <trkpt lat="44.68588" lon="5.04006">
        <ele>313</ele>
        <time>2018-06-10T11:08:16Z</time>
      </trkpt>
      <trkpt lat="44.68587" lon="5.04003">
        <ele>313</ele>
        <time>2018-06-10T11:08:18Z</time>
      </trkpt>
      <trkpt lat="44.68584" lon="5.04">
        <ele>313</ele>
        <time>2018-06-10T11:08:20Z</time>
      </trkpt>
      <trkpt lat="44.68583" lon="5.03996">
        <ele>313</ele>
        <time>2018-06-10T11:08:22Z</time>
      </trkpt>
      <trkpt lat="44.68579" lon="5.0399">
        <ele>313</ele>
        <time>2018-06-10T11:08:24Z</time>
      </trkpt>
      <trkpt lat="44.68575" lon="5.03986">
        <ele>313</ele>
        <time>2018-06-10T11:08:26Z</time>
      </trkpt>
      <trkpt lat="44.6857" lon="5.0398">
        <ele>313</ele>
        <time>2018-06-10T11:08:28Z</time>
      </trkpt>
      <trkpt lat="44.68564" lon="5.03975">
        <ele>313</ele>
        <time>2018-06-10T11:08:30Z</time>
      </trkpt>
      <trkpt lat="44.68558" lon="5.03969">
        <ele>313</ele>
        <time>2018-06-10T11:08:32Z</time>
      </trkpt>
      <trkpt lat="44.68551" lon="5.03962">
        <ele>312</ele>
        <time>2018-06-10T11:08:34Z</time>
      </trkpt>
      <trkpt lat="44.68546" lon="5.0395">
        <ele>312</ele>
        <time>2018-06-10T11:08:36Z</time>
      </trkpt>
      <trkpt lat="44.68542" lon="5.03935">
        <ele>311</ele>
        <time>2018-06-10T11:08:38Z</time>
      </trkpt>
      <trkpt lat="44.6854" lon="5.03923">
        <ele>311</ele>
        <time>2018-06-10T11:08:40Z</time>
      </trkpt>
      <trkpt lat="44.68533" lon="5.03912">
        <ele>311</ele>
        <time>2018-06-10T11:08:43Z</time>
      </trkpt>
      <trkpt lat="44.68526" lon="5.03906">
        <ele>312</ele>
        <time>2018-06-10T11:08:45Z</time>
      </trkpt>
      <trkpt lat="44.6852" lon="5.03901">
        <ele>312</ele>
        <time>2018-06-10T11:08:47Z</time>
      </trkpt>
      <trkpt lat="44.68518" lon="5.03897">
        <ele>313</ele>
        <time>2018-06-10T11:08:49Z</time>
      </trkpt>
      <trkpt lat="44.68516" lon="5.03893">
        <ele>314</ele>
        <time>2018-06-10T11:08:51Z</time>
      </trkpt>
      <trkpt lat="44.68514" lon="5.03891">
        <ele>314</ele>
        <time>2018-06-10T11:08:53Z</time>
      </trkpt>
      <trkpt lat="44.68511" lon="5.03888">
        <ele>314</ele>
        <time>2018-06-10T11:08:55Z</time>
      </trkpt>
      <trkpt lat="44.68509" lon="5.03884">
        <ele>314</ele>
        <time>2018-06-10T11:08:57Z</time>
      </trkpt>
      <trkpt lat="44.68507" lon="5.0388">
        <ele>315</ele>
        <time>2018-06-10T11:08:59Z</time>
      </trkpt>
      <trkpt lat="44.68504" lon="5.03879">
        <ele>315</ele>
        <time>2018-06-10T11:09:01Z</time>
      </trkpt>
      <trkpt lat="44.68501" lon="5.03875">
        <ele>315</ele>
        <time>2018-06-10T11:09:03Z</time>
      </trkpt>
      <trkpt lat="44.68498" lon="5.03872">
        <ele>316</ele>
        <time>2018-06-10T11:09:05Z</time>
      </trkpt>
      <trkpt lat="44.68496" lon="5.03868">
        <ele>316</ele>
        <time>2018-06-10T11:09:07Z</time>
      </trkpt>
      <trkpt lat="44.68493" lon="5.03865">
        <ele>316</ele>
        <time>2018-06-10T11:09:09Z</time>
      </trkpt>
      <trkpt lat="44.6849" lon="5.03861">
        <ele>316</ele>
        <time>2018-06-10T11:09:11Z</time>
      </trkpt>
      <trkpt lat="44.68486" lon="5.03858">
        <ele>317</ele>
        <time>2018-06-10T11:09:13Z</time>
      </trkpt>
      <trkpt lat="44.68483" lon="5.03855">
        <ele>317</ele>
        <time>2018-06-10T11:09:15Z</time>
      </trkpt>
      <trkpt lat="44.6848" lon="5.03853">
        <ele>317</ele>
        <time>2018-06-10T11:09:17Z</time>
      </trkpt>
      <trkpt lat="44.68477" lon="5.03851">
        <ele>317</ele>
        <time>2018-06-10T11:09:19Z</time>
      </trkpt>
      <trkpt lat="44.68474" lon="5.03848">
        <ele>317</ele>
        <time>2018-06-10T11:09:21Z</time>
      </trkpt>
      <trkpt lat="44.68471" lon="5.03845">
        <ele>318</ele>
        <time>2018-06-10T11:09:23Z</time>
      </trkpt>
      <trkpt lat="44.68469" lon="5.03843">
        <ele>318</ele>
        <time>2018-06-10T11:09:25Z</time>
      </trkpt>
      <trkpt lat="44.68466" lon="5.03839">
        <ele>318</ele>
        <time>2018-06-10T11:09:27Z</time>
      </trkpt>
      <trkpt lat="44.68463" lon="5.03836">
        <ele>318</ele>
        <time>2018-06-10T11:09:29Z</time>
      </trkpt>
      <trkpt lat="44.68461" lon="5.03833">
        <ele>319</ele>
        <time>2018-06-10T11:09:31Z</time>
      </trkpt>
      <trkpt lat="44.68458" lon="5.03831">
        <ele>319</ele>
        <time>2018-06-10T11:09:33Z</time>
      </trkpt>
      <trkpt lat="44.68456" lon="5.03828">
        <ele>319</ele>
        <time>2018-06-10T11:09:35Z</time>
      </trkpt>
      <trkpt lat="44.68453" lon="5.03824">
        <ele>319</ele>
        <time>2018-06-10T11:09:37Z</time>
      </trkpt>
      <trkpt lat="44.68451" lon="5.0382">
        <ele>319</ele>
        <time>2018-06-10T11:09:39Z</time>
      </trkpt>
      <trkpt lat="44.68449" lon="5.03816">
        <ele>320</ele>
        <time>2018-06-10T11:09:41Z</time>
      </trkpt>
      <trkpt lat="44.68445" lon="5.0381">
        <ele>319</ele>
        <time>2018-06-10T11:09:43Z</time>
      </trkpt>
      <trkpt lat="44.68443" lon="5.03807">
        <ele>319</ele>
        <time>2018-06-10T11:09:45Z</time>
      </trkpt>
      <trkpt lat="44.68441" lon="5.03803">
        <ele>320</ele>
        <time>2018-06-10T11:09:47Z</time>
      </trkpt>
      <trkpt lat="44.68439" lon="5.03799">
        <ele>319</ele>
        <time>2018-06-10T11:09:49Z</time>
      </trkpt>
      <trkpt lat="44.68437" lon="5.03797">
        <ele>319</ele>
        <time>2018-06-10T11:09:51Z</time>
      </trkpt>
      <trkpt lat="44.68431" lon="5.03793">
        <ele>319</ele>
        <time>2018-06-10T11:09:53Z</time>
      </trkpt>
      <trkpt lat="44.68429" lon="5.03791">
        <ele>319</ele>
        <time>2018-06-10T11:09:55Z</time>
      </trkpt>
      <trkpt lat="44.68427" lon="5.03789">
        <ele>319</ele>
        <time>2018-06-10T11:09:57Z</time>
      </trkpt>
      <trkpt lat="44.68424" lon="5.03785">
        <ele>319</ele>
        <time>2018-06-10T11:09:59Z</time>
      </trkpt>
      <trkpt lat="44.68419" lon="5.03782">
        <ele>319</ele>
        <time>2018-06-10T11:10:01Z</time>
      </trkpt>
      <trkpt lat="44.68414" lon="5.03779">
        <ele>319</ele>
        <time>2018-06-10T11:10:04Z</time>
      </trkpt>
      <trkpt lat="44.6841" lon="5.03777">
        <ele>319</ele>
        <time>2018-06-10T11:10:06Z</time>
      </trkpt>
      <trkpt lat="44.68405" lon="5.03774">
        <ele>319</ele>
        <time>2018-06-10T11:10:08Z</time>
      </trkpt>
      <trkpt lat="44.68401" lon="5.03772">
        <ele>319</ele>
        <time>2018-06-10T11:10:10Z</time>
      </trkpt>
      <trkpt lat="44.68398" lon="5.03769">
        <ele>319</ele>
        <time>2018-06-10T11:10:12Z</time>
      </trkpt>
      <trkpt lat="44.68394" lon="5.03766">
        <ele>320</ele>
        <time>2018-06-10T11:10:14Z</time>
      </trkpt>
      <trkpt lat="44.6839" lon="5.03764">
        <ele>320</ele>
        <time>2018-06-10T11:10:16Z</time>
      </trkpt>
      <trkpt lat="44.68387" lon="5.0376">
        <ele>320</ele>
        <time>2018-06-10T11:10:18Z</time>
      </trkpt>
      <trkpt lat="44.68385" lon="5.03757">
        <ele>320</ele>
        <time>2018-06-10T11:10:20Z</time>
      </trkpt>
      <trkpt lat="44.68382" lon="5.03754">
        <ele>321</ele>
        <time>2018-06-10T11:10:22Z</time>
      </trkpt>
      <trkpt lat="44.6838" lon="5.03751">
        <ele>321</ele>
        <time>2018-06-10T11:10:24Z</time>
      </trkpt>
      <trkpt lat="44.68377" lon="5.03748">
        <ele>321</ele>
        <time>2018-06-10T11:10:26Z</time>
      </trkpt>
      <trkpt lat="44.68375" lon="5.03745">
        <ele>322</ele>
        <time>2018-06-10T11:10:28Z</time>
      </trkpt>
      <trkpt lat="44.68373" lon="5.03742">
        <ele>322</ele>
        <time>2018-06-10T11:10:30Z</time>
      </trkpt>
      <trkpt lat="44.6837" lon="5.03739">
        <ele>323</ele>
        <time>2018-06-10T11:10:32Z</time>
      </trkpt>
      <trkpt lat="44.68367" lon="5.03734">
        <ele>323</ele>
        <time>2018-06-10T11:10:34Z</time>
      </trkpt>
      <trkpt lat="44.68364" lon="5.03732">
        <ele>323</ele>
        <time>2018-06-10T11:10:36Z</time>
      </trkpt>
      <trkpt lat="44.68361" lon="5.03729">
        <ele>324</ele>
        <time>2018-06-10T11:10:38Z</time>
      </trkpt>
      <trkpt lat="44.68359" lon="5.03726">
        <ele>324</ele>
        <time>2018-06-10T11:10:40Z</time>
      </trkpt>
      <trkpt lat="44.68356" lon="5.03723">
        <ele>324</ele>
        <time>2018-06-10T11:10:42Z</time>
      </trkpt>
      <trkpt lat="44.68353" lon="5.03719">
        <ele>324</ele>
        <time>2018-06-10T11:10:44Z</time>
      </trkpt>
      <trkpt lat="44.6835" lon="5.03716">
        <ele>325</ele>
        <time>2018-06-10T11:10:46Z</time>
      </trkpt>
      <trkpt lat="44.68346" lon="5.03712">
        <ele>325</ele>
        <time>2018-06-10T11:10:48Z</time>
      </trkpt>
      <trkpt lat="44.68343" lon="5.03707">
        <ele>325</ele>
        <time>2018-06-10T11:10:50Z</time>
      </trkpt>
      <trkpt lat="44.6834" lon="5.03702">
        <ele>325</ele>
        <time>2018-06-10T11:10:52Z</time>
      </trkpt>
      <trkpt lat="44.68337" lon="5.03697">
        <ele>325</ele>
        <time>2018-06-10T11:10:54Z</time>
      </trkpt>
      <trkpt lat="44.68334" lon="5.03693">
        <ele>325</ele>
        <time>2018-06-10T11:10:56Z</time>
      </trkpt>
      <trkpt lat="44.6833" lon="5.03687">
        <ele>325</ele>
        <time>2018-06-10T11:10:58Z</time>
      </trkpt>
      <trkpt lat="44.68327" lon="5.0368">
        <ele>325</ele>
        <time>2018-06-10T11:11:00Z</time>
      </trkpt>
      <trkpt lat="44.68323" lon="5.03674">
        <ele>325</ele>
        <time>2018-06-10T11:11:02Z</time>
      </trkpt>
      <trkpt lat="44.6832" lon="5.03667">
        <ele>325</ele>
        <time>2018-06-10T11:11:04Z</time>
      </trkpt>
      <trkpt lat="44.68316" lon="5.03661">
        <ele>325</ele>
        <time>2018-06-10T11:11:06Z</time>
      </trkpt>
      <trkpt lat="44.68312" lon="5.03657">
        <ele>325</ele>
        <time>2018-06-10T11:11:08Z</time>
      </trkpt>
      <trkpt lat="44.68306" lon="5.03653">
        <ele>325</ele>
        <time>2018-06-10T11:11:10Z</time>
      </trkpt>
      <trkpt lat="44.68298" lon="5.03652">
        <ele>324</ele>
        <time>2018-06-10T11:11:12Z</time>
      </trkpt>
      <trkpt lat="44.6829" lon="5.03652">
        <ele>322</ele>
        <time>2018-06-10T11:11:14Z</time>
      </trkpt>
      <trkpt lat="44.68283" lon="5.03647">
        <ele>322</ele>
        <time>2018-06-10T11:11:16Z</time>
      </trkpt>
      <trkpt lat="44.6828" lon="5.0364">
        <ele>322</ele>
        <time>2018-06-10T11:11:18Z</time>
      </trkpt>
      <trkpt lat="44.68286" lon="5.03632">
        <ele>320</ele>
        <time>2018-06-10T11:11:20Z</time>
      </trkpt>
      <trkpt lat="44.68294" lon="5.03625">
        <ele>319</ele>
        <time>2018-06-10T11:11:22Z</time>
      </trkpt>
      <trkpt lat="44.68304" lon="5.0361">
        <ele>317</ele>
        <time>2018-06-10T11:11:24Z</time>
      </trkpt>
      <trkpt lat="44.68316" lon="5.03598">
        <ele>317</ele>
        <time>2018-06-10T11:11:26Z</time>
      </trkpt>
      <trkpt lat="44.68328" lon="5.03592">
        <ele>317</ele>
        <time>2018-06-10T11:11:28Z</time>
      </trkpt>
      <trkpt lat="44.68336" lon="5.03587">
        <ele>318</ele>
        <time>2018-06-10T11:11:31Z</time>
      </trkpt>
      <trkpt lat="44.68341" lon="5.03583">
        <ele>318</ele>
        <time>2018-06-10T11:11:33Z</time>
      </trkpt>
      <trkpt lat="44.68345" lon="5.03581">
        <ele>319</ele>
        <time>2018-06-10T11:11:35Z</time>
      </trkpt>
      <trkpt lat="44.68348" lon="5.03579">
        <ele>319</ele>
        <time>2018-06-10T11:11:37Z</time>
      </trkpt>
      <trkpt lat="44.68352" lon="5.03577">
        <ele>320</ele>
        <time>2018-06-10T11:11:39Z</time>
      </trkpt>
      <trkpt lat="44.68354" lon="5.03575">
        <ele>320</ele>
        <time>2018-06-10T11:11:41Z</time>
      </trkpt>
      <trkpt lat="44.68357" lon="5.03574">
        <ele>320</ele>
        <time>2018-06-10T11:11:43Z</time>
      </trkpt>
      <trkpt lat="44.6836" lon="5.03572">
        <ele>321</ele>
        <time>2018-06-10T11:11:45Z</time>
      </trkpt>
      <trkpt lat="44.68362" lon="5.03571">
        <ele>321</ele>
        <time>2018-06-10T11:11:47Z</time>
      </trkpt>
      <trkpt lat="44.68365" lon="5.0357">
        <ele>322</ele>
        <time>2018-06-10T11:11:49Z</time>
      </trkpt>
      <trkpt lat="44.68367" lon="5.03569">
        <ele>322</ele>
        <time>2018-06-10T11:11:51Z</time>
      </trkpt>
      <trkpt lat="44.6837" lon="5.03567">
        <ele>323</ele>
        <time>2018-06-10T11:11:53Z</time>
      </trkpt>
      <trkpt lat="44.68372" lon="5.03566">
        <ele>323</ele>
        <time>2018-06-10T11:11:55Z</time>
      </trkpt>
      <trkpt lat="44.68375" lon="5.03565">
        <ele>323</ele>
        <time>2018-06-10T11:11:57Z</time>
      </trkpt>
      <trkpt lat="44.68378" lon="5.03564">
        <ele>324</ele>
        <time>2018-06-10T11:11:59Z</time>
      </trkpt>
      <trkpt lat="44.6838" lon="5.03562">
        <ele>324</ele>
        <time>2018-06-10T11:12:01Z</time>
      </trkpt>
      <trkpt lat="44.68382" lon="5.03561">
        <ele>325</ele>
        <time>2018-06-10T11:12:03Z</time>
      </trkpt>
      <trkpt lat="44.68385" lon="5.03559">
        <ele>325</ele>
        <time>2018-06-10T11:12:05Z</time>
      </trkpt>
      <trkpt lat="44.68387" lon="5.03558">
        <ele>326</ele>
        <time>2018-06-10T11:12:07Z</time>
      </trkpt>
      <trkpt lat="44.6839" lon="5.03557">
        <ele>326</ele>
        <time>2018-06-10T11:12:09Z</time>
      </trkpt>
      <trkpt lat="44.68392" lon="5.03556">
        <ele>326</ele>
        <time>2018-06-10T11:12:11Z</time>
      </trkpt>
      <trkpt lat="44.68395" lon="5.03554">
        <ele>326</ele>
        <time>2018-06-10T11:12:13Z</time>
      </trkpt>
      <trkpt lat="44.684" lon="5.03552">
        <ele>326</ele>
        <time>2018-06-10T11:12:15Z</time>
      </trkpt>
      <trkpt lat="44.684" lon="5.03552">
        <ele>327</ele>
        <time>2018-06-10T11:12:17Z</time>
      </trkpt>
      <trkpt lat="44.68404" lon="5.0355">
        <ele>327</ele>
        <time>2018-06-10T11:12:19Z</time>
      </trkpt>
      <trkpt lat="44.68407" lon="5.03549">
        <ele>327</ele>
        <time>2018-06-10T11:12:21Z</time>
      </trkpt>
      <trkpt lat="44.6841" lon="5.03547">
        <ele>327</ele>
        <time>2018-06-10T11:12:23Z</time>
      </trkpt>
      <trkpt lat="44.68413" lon="5.03546">
        <ele>327</ele>
        <time>2018-06-10T11:12:25Z</time>
      </trkpt>
      <trkpt lat="44.68418" lon="5.03543">
        <ele>327</ele>
        <time>2018-06-10T11:12:28Z</time>
      </trkpt>
      <trkpt lat="44.68421" lon="5.03542">
        <ele>328</ele>
        <time>2018-06-10T11:12:30Z</time>
      </trkpt>
      <trkpt lat="44.68424" lon="5.0354">
        <ele>328</ele>
        <time>2018-06-10T11:12:32Z</time>
      </trkpt>
      <trkpt lat="44.68427" lon="5.03539">
        <ele>328</ele>
        <time>2018-06-10T11:12:34Z</time>
      </trkpt>
      <trkpt lat="44.68429" lon="5.03538">
        <ele>328</ele>
        <time>2018-06-10T11:12:36Z</time>
      </trkpt>
      <trkpt lat="44.68432" lon="5.03536">
        <ele>328</ele>
        <time>2018-06-10T11:12:38Z</time>
      </trkpt>
      <trkpt lat="44.68435" lon="5.03534">
        <ele>328</ele>
        <time>2018-06-10T11:12:40Z</time>
      </trkpt>
      <trkpt lat="44.68438" lon="5.03532">
        <ele>329</ele>
        <time>2018-06-10T11:12:42Z</time>
      </trkpt>
      <trkpt lat="44.68441" lon="5.0353">
        <ele>329</ele>
        <time>2018-06-10T11:12:44Z</time>
      </trkpt>
      <trkpt lat="44.68444" lon="5.03527">
        <ele>329</ele>
        <time>2018-06-10T11:12:46Z</time>
      </trkpt>
      <trkpt lat="44.68446" lon="5.03525">
        <ele>329</ele>
        <time>2018-06-10T11:12:48Z</time>
      </trkpt>
      <trkpt lat="44.68448" lon="5.03522">
        <ele>329</ele>
        <time>2018-06-10T11:12:50Z</time>
      </trkpt>
      <trkpt lat="44.68451" lon="5.03519">
        <ele>330</ele>
        <time>2018-06-10T11:12:52Z</time>
      </trkpt>
      <trkpt lat="44.68453" lon="5.03517">
        <ele>330</ele>
        <time>2018-06-10T11:12:54Z</time>
      </trkpt>
      <trkpt lat="44.68455" lon="5.03514">
        <ele>330</ele>
        <time>2018-06-10T11:12:56Z</time>
      </trkpt>
      <trkpt lat="44.68458" lon="5.03511">
        <ele>330</ele>
        <time>2018-06-10T11:12:58Z</time>
      </trkpt>
      <trkpt lat="44.6846" lon="5.03508">
        <ele>330</ele>
        <time>2018-06-10T11:13:00Z</time>
      </trkpt>
      <trkpt lat="44.68462" lon="5.03505">
        <ele>330</ele>
        <time>2018-06-10T11:13:02Z</time>
      </trkpt>
      <trkpt lat="44.68464" lon="5.03502">
        <ele>331</ele>
        <time>2018-06-10T11:13:04Z</time>
      </trkpt>
      <trkpt lat="44.68465" lon="5.03498">
        <ele>331</ele>
        <time>2018-06-10T11:13:06Z</time>
      </trkpt>
      <trkpt lat="44.68468" lon="5.03493">
        <ele>331</ele>
        <time>2018-06-10T11:13:08Z</time>
      </trkpt>
      <trkpt lat="44.6847" lon="5.03489">
        <ele>331</ele>
        <time>2018-06-10T11:13:10Z</time>
      </trkpt>
      <trkpt lat="44.68472" lon="5.03486">
        <ele>332</ele>
        <time>2018-06-10T11:13:12Z</time>
      </trkpt>
      <trkpt lat="44.68473" lon="5.03483">
        <ele>332</ele>
        <time>2018-06-10T11:13:14Z</time>
      </trkpt>
      <trkpt lat="44.68475" lon="5.03479">
        <ele>332</ele>
        <time>2018-06-10T11:13:16Z</time>
      </trkpt>
      <trkpt lat="44.68476" lon="5.03476">
        <ele>332</ele>
        <time>2018-06-10T11:13:18Z</time>
      </trkpt>
      <trkpt lat="44.68478" lon="5.03474">
        <ele>333</ele>
        <time>2018-06-10T11:13:21Z</time>
      </trkpt>
      <trkpt lat="44.6848" lon="5.03471">
        <ele>333</ele>
        <time>2018-06-10T11:13:23Z</time>
      </trkpt>
      <trkpt lat="44.68482" lon="5.03468">
        <ele>333</ele>
        <time>2018-06-10T11:13:25Z</time>
      </trkpt>
      <trkpt lat="44.68484" lon="5.03465">
        <ele>334</ele>
        <time>2018-06-10T11:13:27Z</time>
      </trkpt>
      <trkpt lat="44.68486" lon="5.03462">
        <ele>334</ele>
        <time>2018-06-10T11:13:29Z</time>
      </trkpt>
      <trkpt lat="44.68487" lon="5.0346">
        <ele>334</ele>
        <time>2018-06-10T11:13:31Z</time>
      </trkpt>
      <trkpt lat="44.68489" lon="5.03457">
        <ele>335</ele>
        <time>2018-06-10T11:13:33Z</time>
      </trkpt>
      <trkpt lat="44.6849" lon="5.03455">
        <ele>335</ele>
        <time>2018-06-10T11:13:35Z</time>
      </trkpt>
      <trkpt lat="44.68492" lon="5.03452">
        <ele>335</ele>
        <time>2018-06-10T11:13:37Z</time>
      </trkpt>
      <trkpt lat="44.68493" lon="5.0345">
        <ele>336</ele>
        <time>2018-06-10T11:13:39Z</time>
      </trkpt>
      <trkpt lat="44.68495" lon="5.03447">
        <ele>336</ele>
        <time>2018-06-10T11:13:41Z</time>
      </trkpt>
      <trkpt lat="44.68496" lon="5.03444">
        <ele>336</ele>
        <time>2018-06-10T11:13:43Z</time>
      </trkpt>
      <trkpt lat="44.68497" lon="5.03441">
        <ele>337</ele>
        <time>2018-06-10T11:13:45Z</time>
      </trkpt>
      <trkpt lat="44.68498" lon="5.03438">
        <ele>337</ele>
        <time>2018-06-10T11:13:47Z</time>
      </trkpt>
      <trkpt lat="44.68499" lon="5.03435">
        <ele>338</ele>
        <time>2018-06-10T11:13:49Z</time>
      </trkpt>
      <trkpt lat="44.68499" lon="5.03432">
        <ele>338</ele>
        <time>2018-06-10T11:13:51Z</time>
      </trkpt>
      <trkpt lat="44.68498" lon="5.03429">
        <ele>338</ele>
        <time>2018-06-10T11:13:53Z</time>
      </trkpt>
      <trkpt lat="44.68498" lon="5.03427">
        <ele>339</ele>
        <time>2018-06-10T11:13:55Z</time>
      </trkpt>
      <trkpt lat="44.68498" lon="5.03427">
        <ele>338</ele>
        <time>2018-06-10T11:13:57Z</time>
      </trkpt>
      <trkpt lat="44.68498" lon="5.03425">
        <ele>338</ele>
        <time>2018-06-10T11:13:59Z</time>
      </trkpt>
      <trkpt lat="44.68499" lon="5.03426">
        <ele>338</ele>
        <time>2018-06-10T11:14:01Z</time>
      </trkpt>
      <trkpt lat="44.68497" lon="5.03425">
        <ele>338</ele>
        <time>2018-06-10T11:14:03Z</time>
      </trkpt>
      <trkpt lat="44.68496" lon="5.03425">
        <ele>339</ele>
        <time>2018-06-10T11:14:05Z</time>
      </trkpt>
      <trkpt lat="44.68496" lon="5.03421">
        <ele>339</ele>
        <time>2018-06-10T11:14:07Z</time>
      </trkpt>
      <trkpt lat="44.68495" lon="5.03419">
        <ele>339</ele>
        <time>2018-06-10T11:14:09Z</time>
      </trkpt>
      <trkpt lat="44.68494" lon="5.03416">
        <ele>339</ele>
        <time>2018-06-10T11:14:11Z</time>
      </trkpt>
      <trkpt lat="44.68493" lon="5.03413">
        <ele>339</ele>
        <time>2018-06-10T11:14:13Z</time>
      </trkpt>
      <trkpt lat="44.68493" lon="5.03411">
        <ele>340</ele>
        <time>2018-06-10T11:14:15Z</time>
      </trkpt>
      <trkpt lat="44.68492" lon="5.03408">
        <ele>340</ele>
        <time>2018-06-10T11:14:17Z</time>
      </trkpt>
      <trkpt lat="44.68492" lon="5.03405">
        <ele>340</ele>
        <time>2018-06-10T11:14:19Z</time>
      </trkpt>
      <trkpt lat="44.68491" lon="5.03402">
        <ele>340</ele>
        <time>2018-06-10T11:14:21Z</time>
      </trkpt>
      <trkpt lat="44.68491" lon="5.034">
        <ele>341</ele>
        <time>2018-06-10T11:14:23Z</time>
      </trkpt>
      <trkpt lat="44.6849" lon="5.03396">
        <ele>341</ele>
        <time>2018-06-10T11:14:25Z</time>
      </trkpt>
      <trkpt lat="44.6849" lon="5.03393">
        <ele>341</ele>
        <time>2018-06-10T11:14:28Z</time>
      </trkpt>
      <trkpt lat="44.68489" lon="5.03391">
        <ele>342</ele>
        <time>2018-06-10T11:14:30Z</time>
      </trkpt>
      <trkpt lat="44.68489" lon="5.03388">
        <ele>342</ele>
        <time>2018-06-10T11:14:32Z</time>
      </trkpt>
      <trkpt lat="44.68488" lon="5.03386">
        <ele>342</ele>
        <time>2018-06-10T11:14:34Z</time>
      </trkpt>
      <trkpt lat="44.68488" lon="5.03384">
        <ele>342</ele>
        <time>2018-06-10T11:14:36Z</time>
      </trkpt>
      <trkpt lat="44.68487" lon="5.03381">
        <ele>343</ele>
        <time>2018-06-10T11:14:38Z</time>
      </trkpt>
      <trkpt lat="44.68487" lon="5.03379">
        <ele>343</ele>
        <time>2018-06-10T11:14:40Z</time>
      </trkpt>
      <trkpt lat="44.68486" lon="5.03376">
        <ele>344</ele>
        <time>2018-06-10T11:14:42Z</time>
      </trkpt>
      <trkpt lat="44.68486" lon="5.03373">
        <ele>344</ele>
        <time>2018-06-10T11:14:44Z</time>
      </trkpt>
      <trkpt lat="44.68485" lon="5.03371">
        <ele>344</ele>
        <time>2018-06-10T11:14:46Z</time>
      </trkpt>
      <trkpt lat="44.68485" lon="5.03368">
        <ele>344</ele>
        <time>2018-06-10T11:14:48Z</time>
      </trkpt>
      <trkpt lat="44.68484" lon="5.03366">
        <ele>345</ele>
        <time>2018-06-10T11:14:50Z</time>
      </trkpt>
      <trkpt lat="44.68483" lon="5.03363">
        <ele>345</ele>
        <time>2018-06-10T11:14:52Z</time>
      </trkpt>
      <trkpt lat="44.68483" lon="5.03361">
        <ele>345</ele>
        <time>2018-06-10T11:14:54Z</time>
      </trkpt>
      <trkpt lat="44.68482" lon="5.03359">
        <ele>346</ele>
        <time>2018-06-10T11:14:56Z</time>
      </trkpt>
      <trkpt lat="44.68482" lon="5.03356">
        <ele>346</ele>
        <time>2018-06-10T11:14:58Z</time>
      </trkpt>
      <trkpt lat="44.68481" lon="5.03354">
        <ele>346</ele>
        <time>2018-06-10T11:15:00Z</time>
      </trkpt>
      <trkpt lat="44.68481" lon="5.03351">
        <ele>346</ele>
        <time>2018-06-10T11:15:02Z</time>
      </trkpt>
      <trkpt lat="44.6848" lon="5.03348">
        <ele>347</ele>
        <time>2018-06-10T11:15:04Z</time>
      </trkpt>
      <trkpt lat="44.68479" lon="5.03346">
        <ele>347</ele>
        <time>2018-06-10T11:15:06Z</time>
      </trkpt>
      <trkpt lat="44.68478" lon="5.03342">
        <ele>348</ele>
        <time>2018-06-10T11:15:08Z</time>
      </trkpt>
      <trkpt lat="44.68478" lon="5.03341">
        <ele>348</ele>
        <time>2018-06-10T11:15:10Z</time>
      </trkpt>
      <trkpt lat="44.68477" lon="5.03337">
        <ele>348</ele>
        <time>2018-06-10T11:15:12Z</time>
      </trkpt>
      <trkpt lat="44.68476" lon="5.03335">
        <ele>349</ele>
        <time>2018-06-10T11:15:14Z</time>
      </trkpt>
      <trkpt lat="44.68475" lon="5.03332">
        <ele>348</ele>
        <time>2018-06-10T11:15:17Z</time>
      </trkpt>
      <trkpt lat="44.68474" lon="5.0333">
        <ele>349</ele>
        <time>2018-06-10T11:15:19Z</time>
      </trkpt>
      <trkpt lat="44.68474" lon="5.03327">
        <ele>349</ele>
        <time>2018-06-10T11:15:21Z</time>
      </trkpt>
      <trkpt lat="44.68473" lon="5.03325">
        <ele>349</ele>
        <time>2018-06-10T11:15:23Z</time>
      </trkpt>
      <trkpt lat="44.68473" lon="5.03322">
        <ele>350</ele>
        <time>2018-06-10T11:15:25Z</time>
      </trkpt>
      <trkpt lat="44.68472" lon="5.0332">
        <ele>350</ele>
        <time>2018-06-10T11:15:27Z</time>
      </trkpt>
      <trkpt lat="44.68471" lon="5.03317">
        <ele>350</ele>
        <time>2018-06-10T11:15:29Z</time>
      </trkpt>
      <trkpt lat="44.68471" lon="5.03315">
        <ele>350</ele>
        <time>2018-06-10T11:15:31Z</time>
      </trkpt>
      <trkpt lat="44.68471" lon="5.03312">
        <ele>351</ele>
        <time>2018-06-10T11:15:33Z</time>
      </trkpt>
      <trkpt lat="44.6847" lon="5.0331">
        <ele>351</ele>
        <time>2018-06-10T11:15:35Z</time>
      </trkpt>
      <trkpt lat="44.6847" lon="5.03307">
        <ele>351</ele>
        <time>2018-06-10T11:15:37Z</time>
      </trkpt>
      <trkpt lat="44.68469" lon="5.03304">
        <ele>352</ele>
        <time>2018-06-10T11:15:39Z</time>
      </trkpt>
      <trkpt lat="44.68469" lon="5.03301">
        <ele>352</ele>
        <time>2018-06-10T11:15:41Z</time>
      </trkpt>
      <trkpt lat="44.68469" lon="5.03299">
        <ele>352</ele>
        <time>2018-06-10T11:15:43Z</time>
      </trkpt>
      <trkpt lat="44.68468" lon="5.03297">
        <ele>352</ele>
        <time>2018-06-10T11:15:45Z</time>
      </trkpt>
      <trkpt lat="44.68468" lon="5.03294">
        <ele>352</ele>
        <time>2018-06-10T11:15:47Z</time>
      </trkpt>
      <trkpt lat="44.68468" lon="5.03291">
        <ele>353</ele>
        <time>2018-06-10T11:15:49Z</time>
      </trkpt>
      <trkpt lat="44.68468" lon="5.03289">
        <ele>353</ele>
        <time>2018-06-10T11:15:51Z</time>
      </trkpt>
      <trkpt lat="44.68467" lon="5.03286">
        <ele>353</ele>
        <time>2018-06-10T11:15:53Z</time>
      </trkpt>
      <trkpt lat="44.68467" lon="5.03284">
        <ele>353</ele>
        <time>2018-06-10T11:15:55Z</time>
      </trkpt>
      <trkpt lat="44.68467" lon="5.03282">
        <ele>353</ele>
        <time>2018-06-10T11:15:57Z</time>
      </trkpt>
      <trkpt lat="44.68466" lon="5.03279">
        <ele>354</ele>
        <time>2018-06-10T11:15:59Z</time>
      </trkpt>
      <trkpt lat="44.68465" lon="5.03276">
        <ele>354</ele>
        <time>2018-06-10T11:16:01Z</time>
      </trkpt>
      <trkpt lat="44.68465" lon="5.03274">
        <ele>354</ele>
        <time>2018-06-10T11:16:04Z</time>
      </trkpt>
      <trkpt lat="44.68464" lon="5.03271">
        <ele>354</ele>
        <time>2018-06-10T11:16:06Z</time>
      </trkpt>
      <trkpt lat="44.68464" lon="5.03269">
        <ele>354</ele>
        <time>2018-06-10T11:16:08Z</time>
      </trkpt>
      <trkpt lat="44.68464" lon="5.03267">
        <ele>354</ele>
        <time>2018-06-10T11:16:10Z</time>
      </trkpt>
      <trkpt lat="44.68464" lon="5.03265">
        <ele>354</ele>
        <time>2018-06-10T11:16:12Z</time>
      </trkpt>
      <trkpt lat="44.68464" lon="5.03263">
        <ele>355</ele>
        <time>2018-06-10T11:16:14Z</time>
      </trkpt>
      <trkpt lat="44.68464" lon="5.03261">
        <ele>355</ele>
        <time>2018-06-10T11:16:16Z</time>
      </trkpt>
      <trkpt lat="44.68465" lon="5.03258">
        <ele>356</ele>
        <time>2018-06-10T11:16:18Z</time>
      </trkpt>
      <trkpt lat="44.68465" lon="5.03256">
        <ele>356</ele>
        <time>2018-06-10T11:16:20Z</time>
      </trkpt>
      <trkpt lat="44.68465" lon="5.03254">
        <ele>356</ele>
        <time>2018-06-10T11:16:22Z</time>
      </trkpt>
      <trkpt lat="44.68466" lon="5.03252">
        <ele>356</ele>
        <time>2018-06-10T11:16:24Z</time>
      </trkpt>
      <trkpt lat="44.68466" lon="5.03249">
        <ele>356</ele>
        <time>2018-06-10T11:16:26Z</time>
      </trkpt>
      <trkpt lat="44.68465" lon="5.03246">
        <ele>357</ele>
        <time>2018-06-10T11:16:28Z</time>
      </trkpt>
      <trkpt lat="44.68464" lon="5.03244">
        <ele>357</ele>
        <time>2018-06-10T11:16:30Z</time>
      </trkpt>
      <trkpt lat="44.68462" lon="5.03242">
        <ele>357</ele>
        <time>2018-06-10T11:16:32Z</time>
      </trkpt>
      <trkpt lat="44.68462" lon="5.0324">
        <ele>357</ele>
        <time>2018-06-10T11:16:34Z</time>
      </trkpt>
      <trkpt lat="44.68461" lon="5.03239">
        <ele>357</ele>
        <time>2018-06-10T11:16:36Z</time>
      </trkpt>
      <trkpt lat="44.68461" lon="5.03234">
        <ele>357</ele>
        <time>2018-06-10T11:16:38Z</time>
      </trkpt>
      <trkpt lat="44.6846" lon="5.0323">
        <ele>357</ele>
        <time>2018-06-10T11:16:40Z</time>
      </trkpt>
      <trkpt lat="44.68458" lon="5.03228">
        <ele>357</ele>
        <time>2018-06-10T11:16:42Z</time>
      </trkpt>
      <trkpt lat="44.68456" lon="5.03225">
        <ele>357</ele>
        <time>2018-06-10T11:16:44Z</time>
      </trkpt>
      <trkpt lat="44.68453" lon="5.03223">
        <ele>357</ele>
        <time>2018-06-10T11:16:46Z</time>
      </trkpt>
      <trkpt lat="44.68451" lon="5.0322">
        <ele>357</ele>
        <time>2018-06-10T11:16:48Z</time>
      </trkpt>
      <trkpt lat="44.68449" lon="5.03216">
        <ele>358</ele>
        <time>2018-06-10T11:16:50Z</time>
      </trkpt>
      <trkpt lat="44.68447" lon="5.03213">
        <ele>358</ele>
        <time>2018-06-10T11:16:52Z</time>
      </trkpt>
      <trkpt lat="44.68444" lon="5.03209">
        <ele>358</ele>
        <time>2018-06-10T11:16:55Z</time>
      </trkpt>
      <trkpt lat="44.68441" lon="5.03204">
        <ele>358</ele>
        <time>2018-06-10T11:16:57Z</time>
      </trkpt>
      <trkpt lat="44.68437" lon="5.03198">
        <ele>358</ele>
        <time>2018-06-10T11:16:59Z</time>
      </trkpt>
      <trkpt lat="44.68434" lon="5.03194">
        <ele>357</ele>
        <time>2018-06-10T11:17:01Z</time>
      </trkpt>
      <trkpt lat="44.6843" lon="5.03188">
        <ele>357</ele>
        <time>2018-06-10T11:17:03Z</time>
      </trkpt>
      <trkpt lat="44.68427" lon="5.0318">
        <ele>357</ele>
        <time>2018-06-10T11:17:05Z</time>
      </trkpt>
      <trkpt lat="44.68423" lon="5.03172">
        <ele>357</ele>
        <time>2018-06-10T11:17:07Z</time>
      </trkpt>
      <trkpt lat="44.68417" lon="5.03167">
        <ele>357</ele>
        <time>2018-06-10T11:17:09Z</time>
      </trkpt>
      <trkpt lat="44.68414" lon="5.03159">
        <ele>357</ele>
        <time>2018-06-10T11:17:11Z</time>
      </trkpt>
      <trkpt lat="44.68411" lon="5.03153">
        <ele>357</ele>
        <time>2018-06-10T11:17:13Z</time>
      </trkpt>
      <trkpt lat="44.68407" lon="5.03146">
        <ele>357</ele>
        <time>2018-06-10T11:17:15Z</time>
      </trkpt>
      <trkpt lat="44.68399" lon="5.03134">
        <ele>357</ele>
        <time>2018-06-10T11:17:17Z</time>
      </trkpt>
      <trkpt lat="44.68397" lon="5.03123">
        <ele>357</ele>
        <time>2018-06-10T11:17:19Z</time>
      </trkpt>
      <trkpt lat="44.68391" lon="5.03114">
        <ele>356</ele>
        <time>2018-06-10T11:17:21Z</time>
      </trkpt>
      <trkpt lat="44.68387" lon="5.03106">
        <ele>356</ele>
        <time>2018-06-10T11:17:23Z</time>
      </trkpt>
      <trkpt lat="44.68384" lon="5.03099">
        <ele>355</ele>
        <time>2018-06-10T11:17:25Z</time>
      </trkpt>
      <trkpt lat="44.6838" lon="5.03095">
        <ele>355</ele>
        <time>2018-06-10T11:17:27Z</time>
      </trkpt>
      <trkpt lat="44.68376" lon="5.03088">
        <ele>354</ele>
        <time>2018-06-10T11:17:29Z</time>
      </trkpt>
      <trkpt lat="44.68372" lon="5.03083">
        <ele>354</ele>
        <time>2018-06-10T11:17:31Z</time>
      </trkpt>
      <trkpt lat="44.6837" lon="5.03079">
        <ele>355</ele>
        <time>2018-06-10T11:17:33Z</time>
      </trkpt>
      <trkpt lat="44.68367" lon="5.03073">
        <ele>355</ele>
        <time>2018-06-10T11:17:35Z</time>
      </trkpt>
      <trkpt lat="44.68365" lon="5.0307">
        <ele>355</ele>
        <time>2018-06-10T11:17:37Z</time>
      </trkpt>
      <trkpt lat="44.68363" lon="5.03066">
        <ele>355</ele>
        <time>2018-06-10T11:17:39Z</time>
      </trkpt>
      <trkpt lat="44.68361" lon="5.03061">
        <ele>355</ele>
        <time>2018-06-10T11:17:41Z</time>
      </trkpt>
      <trkpt lat="44.6836" lon="5.03057">
        <ele>356</ele>
        <time>2018-06-10T11:17:43Z</time>
      </trkpt>
      <trkpt lat="44.68357" lon="5.03053">
        <ele>356</ele>
        <time>2018-06-10T11:17:46Z</time>
      </trkpt>
      <trkpt lat="44.68356" lon="5.0305">
        <ele>356</ele>
        <time>2018-06-10T11:17:48Z</time>
      </trkpt>
      <trkpt lat="44.68354" lon="5.03046">
        <ele>356</ele>
        <time>2018-06-10T11:17:50Z</time>
      </trkpt>
      <trkpt lat="44.68352" lon="5.03044">
        <ele>356</ele>
        <time>2018-06-10T11:17:52Z</time>
      </trkpt>
      <trkpt lat="44.68351" lon="5.03041">
        <ele>356</ele>
        <time>2018-06-10T11:17:54Z</time>
      </trkpt>
      <trkpt lat="44.6835" lon="5.03038">
        <ele>357</ele>
        <time>2018-06-10T11:17:56Z</time>
      </trkpt>
      <trkpt lat="44.68349" lon="5.03035">
        <ele>357</ele>
        <time>2018-06-10T11:17:58Z</time>
      </trkpt>
      <trkpt lat="44.68348" lon="5.03031">
        <ele>357</ele>
        <time>2018-06-10T11:18:00Z</time>
      </trkpt>
      <trkpt lat="44.68347" lon="5.03028">
        <ele>358</ele>
        <time>2018-06-10T11:18:02Z</time>
      </trkpt>
      <trkpt lat="44.68346" lon="5.03024">
        <ele>358</ele>
        <time>2018-06-10T11:18:04Z</time>
      </trkpt>
      <trkpt lat="44.68345" lon="5.0302">
        <ele>358</ele>
        <time>2018-06-10T11:18:06Z</time>
      </trkpt>
      <trkpt lat="44.68344" lon="5.03017">
        <ele>359</ele>
        <time>2018-06-10T11:18:08Z</time>
      </trkpt>
      <trkpt lat="44.68342" lon="5.03014">
        <ele>359</ele>
        <time>2018-06-10T11:18:10Z</time>
      </trkpt>
      <trkpt lat="44.68341" lon="5.0301">
        <ele>359</ele>
        <time>2018-06-10T11:18:12Z</time>
      </trkpt>
      <trkpt lat="44.68339" lon="5.03007">
        <ele>360</ele>
        <time>2018-06-10T11:18:14Z</time>
      </trkpt>
      <trkpt lat="44.68338" lon="5.03004">
        <ele>360</ele>
        <time>2018-06-10T11:18:16Z</time>
      </trkpt>
      <trkpt lat="44.68336" lon="5.03001">
        <ele>360</ele>
        <time>2018-06-10T11:18:18Z</time>
      </trkpt>
      <trkpt lat="44.68335" lon="5.02997">
        <ele>361</ele>
        <time>2018-06-10T11:18:20Z</time>
      </trkpt>
      <trkpt lat="44.68333" lon="5.02995">
        <ele>361</ele>
        <time>2018-06-10T11:18:22Z</time>
      </trkpt>
      <trkpt lat="44.68332" lon="5.02992">
        <ele>361</ele>
        <time>2018-06-10T11:18:24Z</time>
      </trkpt>
      <trkpt lat="44.6833" lon="5.02988">
        <ele>361</ele>
        <time>2018-06-10T11:18:26Z</time>
      </trkpt>
      <trkpt lat="44.68329" lon="5.02985">
        <ele>362</ele>
        <time>2018-06-10T11:18:28Z</time>
      </trkpt>
      <trkpt lat="44.68328" lon="5.02982">
        <ele>362</ele>
        <time>2018-06-10T11:18:30Z</time>
      </trkpt>
      <trkpt lat="44.68326" lon="5.02979">
        <ele>363</ele>
        <time>2018-06-10T11:18:32Z</time>
      </trkpt>
      <trkpt lat="44.68325" lon="5.02976">
        <ele>363</ele>
        <time>2018-06-10T11:18:34Z</time>
      </trkpt>
      <trkpt lat="44.68323" lon="5.02973">
        <ele>364</ele>
        <time>2018-06-10T11:18:37Z</time>
      </trkpt>
      <trkpt lat="44.68322" lon="5.0297">
        <ele>364</ele>
        <time>2018-06-10T11:18:39Z</time>
      </trkpt>
      <trkpt lat="44.68321" lon="5.02967">
        <ele>365</ele>
        <time>2018-06-10T11:18:41Z</time>
      </trkpt>
      <trkpt lat="44.68319" lon="5.02963">
        <ele>365</ele>
        <time>2018-06-10T11:18:43Z</time>
      </trkpt>
      <trkpt lat="44.68318" lon="5.0296">
        <ele>365</ele>
        <time>2018-06-10T11:18:45Z</time>
      </trkpt>
      <trkpt lat="44.68316" lon="5.02958">
        <ele>365</ele>
        <time>2018-06-10T11:18:47Z</time>
      </trkpt>
      <trkpt lat="44.68314" lon="5.02955">
        <ele>365</ele>
        <time>2018-06-10T11:18:49Z</time>
      </trkpt>
      <trkpt lat="44.68311" lon="5.02952">
        <ele>366</ele>
        <time>2018-06-10T11:18:51Z</time>
      </trkpt>
      <trkpt lat="44.68309" lon="5.0295">
        <ele>366</ele>
        <time>2018-06-10T11:18:53Z</time>
      </trkpt>
      <trkpt lat="44.68306" lon="5.02947">
        <ele>366</ele>
        <time>2018-06-10T11:18:55Z</time>
      </trkpt>
      <trkpt lat="44.68302" lon="5.02943">
        <ele>366</ele>
        <time>2018-06-10T11:18:57Z</time>
      </trkpt>
      <trkpt lat="44.68299" lon="5.02939">
        <ele>366</ele>
        <time>2018-06-10T11:18:59Z</time>
      </trkpt>
      <trkpt lat="44.68295" lon="5.02934">
        <ele>366</ele>
        <time>2018-06-10T11:19:01Z</time>
      </trkpt>
      <trkpt lat="44.68292" lon="5.0293">
        <ele>366</ele>
        <time>2018-06-10T11:19:03Z</time>
      </trkpt>
      <trkpt lat="44.68288" lon="5.02925">
        <ele>366</ele>
        <time>2018-06-10T11:19:05Z</time>
      </trkpt>
      <trkpt lat="44.68284" lon="5.02919">
        <ele>366</ele>
        <time>2018-06-10T11:19:07Z</time>
      </trkpt>
      <trkpt lat="44.68278" lon="5.02911">
        <ele>365</ele>
        <time>2018-06-10T11:19:09Z</time>
      </trkpt>
      <trkpt lat="44.6827" lon="5.02901">
        <ele>364</ele>
        <time>2018-06-10T11:19:11Z</time>
      </trkpt>
      <trkpt lat="44.68262" lon="5.02891">
        <ele>363</ele>
        <time>2018-06-10T11:19:13Z</time>
      </trkpt>
      <trkpt lat="44.68253" lon="5.02883">
        <ele>363</ele>
        <time>2018-06-10T11:19:15Z</time>
      </trkpt>
      <trkpt lat="44.68245" lon="5.02877">
        <ele>363</ele>
        <time>2018-06-10T11:19:17Z</time>
      </trkpt>
      <trkpt lat="44.68241" lon="5.02872">
        <ele>363</ele>
        <time>2018-06-10T11:19:19Z</time>
      </trkpt>
      <trkpt lat="44.6824" lon="5.02868">
        <ele>365</ele>
        <time>2018-06-10T11:19:21Z</time>
      </trkpt>
      <trkpt lat="44.68238" lon="5.02865">
        <ele>365</ele>
        <time>2018-06-10T11:19:23Z</time>
      </trkpt>
      <trkpt lat="44.68238" lon="5.02861">
        <ele>365</ele>
        <time>2018-06-10T11:19:25Z</time>
      </trkpt>
      <trkpt lat="44.68237" lon="5.02857">
        <ele>365</ele>
        <time>2018-06-10T11:19:27Z</time>
      </trkpt>
      <trkpt lat="44.68236" lon="5.02853">
        <ele>365</ele>
        <time>2018-06-10T11:19:29Z</time>
      </trkpt>
      <trkpt lat="44.68236" lon="5.0285">
        <ele>366</ele>
        <time>2018-06-10T11:19:31Z</time>
      </trkpt>
      <trkpt lat="44.68235" lon="5.02847">
        <ele>366</ele>
        <time>2018-06-10T11:19:33Z</time>
      </trkpt>
      <trkpt lat="44.68234" lon="5.02843">
        <ele>367</ele>
        <time>2018-06-10T11:19:36Z</time>
      </trkpt>
      <trkpt lat="44.68234" lon="5.02839">
        <ele>367</ele>
        <time>2018-06-10T11:19:38Z</time>
      </trkpt>
      <trkpt lat="44.68234" lon="5.02836">
        <ele>367</ele>
        <time>2018-06-10T11:19:40Z</time>
      </trkpt>
      <trkpt lat="44.68233" lon="5.02832">
        <ele>367</ele>
        <time>2018-06-10T11:19:42Z</time>
      </trkpt>
      <trkpt lat="44.68233" lon="5.02829">
        <ele>368</ele>
        <time>2018-06-10T11:19:44Z</time>
      </trkpt>
      <trkpt lat="44.68232" lon="5.02826">
        <ele>368</ele>
        <time>2018-06-10T11:19:46Z</time>
      </trkpt>
      <trkpt lat="44.68232" lon="5.02822">
        <ele>368</ele>
        <time>2018-06-10T11:19:48Z</time>
      </trkpt>
      <trkpt lat="44.68232" lon="5.0282">
        <ele>369</ele>
        <time>2018-06-10T11:19:50Z</time>
      </trkpt>
      <trkpt lat="44.68231" lon="5.02816">
        <ele>369</ele>
        <time>2018-06-10T11:19:52Z</time>
      </trkpt>
      <trkpt lat="44.6823" lon="5.02813">
        <ele>370</ele>
        <time>2018-06-10T11:19:54Z</time>
      </trkpt>
      <trkpt lat="44.68229" lon="5.0281">
        <ele>370</ele>
        <time>2018-06-10T11:19:56Z</time>
      </trkpt>
      <trkpt lat="44.68227" lon="5.02806">
        <ele>371</ele>
        <time>2018-06-10T11:19:58Z</time>
      </trkpt>
      <trkpt lat="44.68227" lon="5.02804">
        <ele>371</ele>
        <time>2018-06-10T11:20:00Z</time>
      </trkpt>
      <trkpt lat="44.68225" lon="5.02802">
        <ele>371</ele>
        <time>2018-06-10T11:20:02Z</time>
      </trkpt>
      <trkpt lat="44.68224" lon="5.02801">
        <ele>371</ele>
        <time>2018-06-10T11:20:04Z</time>
      </trkpt>
      <trkpt lat="44.68222" lon="5.02799">
        <ele>371</ele>
        <time>2018-06-10T11:20:06Z</time>
      </trkpt>
      <trkpt lat="44.6822" lon="5.02799">
        <ele>371</ele>
        <time>2018-06-10T11:20:08Z</time>
      </trkpt>
      <trkpt lat="44.68219" lon="5.028">
        <ele>371</ele>
        <time>2018-06-10T11:20:10Z</time>
      </trkpt>
      <trkpt lat="44.68215" lon="5.028">
        <ele>371</ele>
        <time>2018-06-10T11:20:13Z</time>
      </trkpt>
      <trkpt lat="44.68212" lon="5.02803">
        <ele>371</ele>
        <time>2018-06-10T11:20:15Z</time>
      </trkpt>
      <trkpt lat="44.68211" lon="5.02804">
        <ele>371</ele>
        <time>2018-06-10T11:20:17Z</time>
      </trkpt>
      <trkpt lat="44.68209" lon="5.02806">
        <ele>371</ele>
        <time>2018-06-10T11:20:19Z</time>
      </trkpt>
      <trkpt lat="44.68207" lon="5.0281">
        <ele>372</ele>
        <time>2018-06-10T11:20:21Z</time>
      </trkpt>
      <trkpt lat="44.68205" lon="5.02813">
        <ele>372</ele>
        <time>2018-06-10T11:20:23Z</time>
      </trkpt>
      <trkpt lat="44.68202" lon="5.02816">
        <ele>372</ele>
        <time>2018-06-10T11:20:25Z</time>
      </trkpt>
      <trkpt lat="44.68199" lon="5.02818">
        <ele>372</ele>
        <time>2018-06-10T11:20:27Z</time>
      </trkpt>
      <trkpt lat="44.68196" lon="5.0282">
        <ele>372</ele>
        <time>2018-06-10T11:20:29Z</time>
      </trkpt>
      <trkpt lat="44.68194" lon="5.02823">
        <ele>372</ele>
        <time>2018-06-10T11:20:31Z</time>
      </trkpt>
      <trkpt lat="44.68192" lon="5.02825">
        <ele>372</ele>
        <time>2018-06-10T11:20:33Z</time>
      </trkpt>
      <trkpt lat="44.6819" lon="5.02827">
        <ele>372</ele>
        <time>2018-06-10T11:20:35Z</time>
      </trkpt>
      <trkpt lat="44.68187" lon="5.02829">
        <ele>372</ele>
        <time>2018-06-10T11:20:37Z</time>
      </trkpt>
      <trkpt lat="44.68185" lon="5.02831">
        <ele>373</ele>
        <time>2018-06-10T11:20:39Z</time>
      </trkpt>
      <trkpt lat="44.68182" lon="5.02831">
        <ele>373</ele>
        <time>2018-06-10T11:20:41Z</time>
      </trkpt>
      <trkpt lat="44.68179" lon="5.02832">
        <ele>373</ele>
        <time>2018-06-10T11:20:43Z</time>
      </trkpt>
      <trkpt lat="44.68177" lon="5.02834">
        <ele>374</ele>
        <time>2018-06-10T11:20:45Z</time>
      </trkpt>
      <trkpt lat="44.68175" lon="5.02835">
        <ele>374</ele>
        <time>2018-06-10T11:20:47Z</time>
      </trkpt>
      <trkpt lat="44.68171" lon="5.02836">
        <ele>374</ele>
        <time>2018-06-10T11:20:49Z</time>
      </trkpt>
      <trkpt lat="44.68169" lon="5.02837">
        <ele>375</ele>
        <time>2018-06-10T11:20:51Z</time>
      </trkpt>
      <trkpt lat="44.68167" lon="5.02838">
        <ele>376</ele>
        <time>2018-06-10T11:20:53Z</time>
      </trkpt>
      <trkpt lat="44.68164" lon="5.0284">
        <ele>376</ele>
        <time>2018-06-10T11:20:55Z</time>
      </trkpt>
      <trkpt lat="44.68163" lon="5.02842">
        <ele>377</ele>
        <time>2018-06-10T11:20:58Z</time>
      </trkpt>
      <trkpt lat="44.68161" lon="5.02844">
        <ele>377</ele>
        <time>2018-06-10T11:21:00Z</time>
      </trkpt>
      <trkpt lat="44.6816" lon="5.02846">
        <ele>377</ele>
        <time>2018-06-10T11:21:02Z</time>
      </trkpt>
      <trkpt lat="44.68158" lon="5.0285">
        <ele>377</ele>
        <time>2018-06-10T11:21:04Z</time>
      </trkpt>
      <trkpt lat="44.68157" lon="5.02853">
        <ele>377</ele>
        <time>2018-06-10T11:21:06Z</time>
      </trkpt>
      <trkpt lat="44.68157" lon="5.02858">
        <ele>377</ele>
        <time>2018-06-10T11:21:08Z</time>
      </trkpt>
      <trkpt lat="44.68158" lon="5.02861">
        <ele>377</ele>
        <time>2018-06-10T11:21:10Z</time>
      </trkpt>
      <trkpt lat="44.68159" lon="5.02865">
        <ele>377</ele>
        <time>2018-06-10T11:21:12Z</time>
      </trkpt>
      <trkpt lat="44.68159" lon="5.02869">
        <ele>377</ele>
        <time>2018-06-10T11:21:14Z</time>
      </trkpt>
      <trkpt lat="44.6816" lon="5.02872">
        <ele>377</ele>
        <time>2018-06-10T11:21:16Z</time>
      </trkpt>
      <trkpt lat="44.6816" lon="5.02876">
        <ele>377</ele>
        <time>2018-06-10T11:21:18Z</time>
      </trkpt>
      <trkpt lat="44.6816" lon="5.0288">
        <ele>378</ele>
        <time>2018-06-10T11:21:20Z</time>
      </trkpt>
      <trkpt lat="44.68159" lon="5.02885">
        <ele>377</ele>
        <time>2018-06-10T11:21:22Z</time>
      </trkpt>
      <trkpt lat="44.68159" lon="5.02891">
        <ele>378</ele>
        <time>2018-06-10T11:21:24Z</time>
      </trkpt>
      <trkpt lat="44.68159" lon="5.02894">
        <ele>378</ele>
        <time>2018-06-10T11:21:26Z</time>
      </trkpt>
      <trkpt lat="44.68159" lon="5.02897">
        <ele>378</ele>
        <time>2018-06-10T11:21:28Z</time>
      </trkpt>
      <trkpt lat="44.68158" lon="5.029">
        <ele>379</ele>
        <time>2018-06-10T11:21:30Z</time>
      </trkpt>
      <trkpt lat="44.68156" lon="5.02902">
        <ele>379</ele>
        <time>2018-06-10T11:21:32Z</time>
      </trkpt>
      <trkpt lat="44.68155" lon="5.02904">
        <ele>379</ele>
        <time>2018-06-10T11:21:34Z</time>
      </trkpt>
      <trkpt lat="44.68154" lon="5.02906">
        <ele>379</ele>
        <time>2018-06-10T11:21:36Z</time>
      </trkpt>
      <trkpt lat="44.68155" lon="5.02907">
        <ele>379</ele>
        <time>2018-06-10T11:21:38Z</time>
      </trkpt>
      <trkpt lat="44.68153" lon="5.02909">
        <ele>379</ele>
        <time>2018-06-10T11:21:40Z</time>
      </trkpt>
      <trkpt lat="44.68151" lon="5.02911">
        <ele>379</ele>
        <time>2018-06-10T11:21:42Z</time>
      </trkpt>
      <trkpt lat="44.6815" lon="5.02913">
        <ele>380</ele>
        <time>2018-06-10T11:21:44Z</time>
      </trkpt>
      <trkpt lat="44.68149" lon="5.02915">
        <ele>380</ele>
        <time>2018-06-10T11:21:46Z</time>
      </trkpt>
      <trkpt lat="44.68147" lon="5.02916">
        <ele>380</ele>
        <time>2018-06-10T11:21:48Z</time>
      </trkpt>
      <trkpt lat="44.68147" lon="5.02917">
        <ele>380</ele>
        <time>2018-06-10T11:21:50Z</time>
      </trkpt>
      <trkpt lat="44.68146" lon="5.02919">
        <ele>380</ele>
        <time>2018-06-10T11:21:52Z</time>
      </trkpt>
      <trkpt lat="44.68146" lon="5.0292">
        <ele>380</ele>
        <time>2018-06-10T11:21:54Z</time>
      </trkpt>
      <trkpt lat="44.68145" lon="5.02922">
        <ele>381</ele>
        <time>2018-06-10T11:21:56Z</time>
      </trkpt>
      <trkpt lat="44.68144" lon="5.02924">
        <ele>381</ele>
        <time>2018-06-10T11:21:58Z</time>
      </trkpt>
      <trkpt lat="44.68144" lon="5.02926">
        <ele>381</ele>
        <time>2018-06-10T11:22:00Z</time>
      </trkpt>
      <trkpt lat="44.68143" lon="5.02927">
        <ele>381</ele>
        <time>2018-06-10T11:22:02Z</time>
      </trkpt>
      <trkpt lat="44.68143" lon="5.02929">
        <ele>381</ele>
        <time>2018-06-10T11:22:04Z</time>
      </trkpt>
      <trkpt lat="44.68142" lon="5.0293">
        <ele>382</ele>
        <time>2018-06-10T11:22:06Z</time>
      </trkpt>
      <trkpt lat="44.68141" lon="5.02932">
        <ele>382</ele>
        <time>2018-06-10T11:22:08Z</time>
      </trkpt>
      <trkpt lat="44.68141" lon="5.02934">
        <ele>382</ele>
        <time>2018-06-10T11:22:11Z</time>
      </trkpt>
      <trkpt lat="44.6814" lon="5.02936">
        <ele>382</ele>
        <time>2018-06-10T11:22:13Z</time>
      </trkpt>
      <trkpt lat="44.6814" lon="5.02937">
        <ele>382</ele>
        <time>2018-06-10T11:22:15Z</time>
      </trkpt>
      <trkpt lat="44.68139" lon="5.02938">
        <ele>382</ele>
        <time>2018-06-10T11:22:17Z</time>
      </trkpt>
      <trkpt lat="44.68138" lon="5.02939">
        <ele>382</ele>
        <time>2018-06-10T11:22:19Z</time>
      </trkpt>
      <trkpt lat="44.68138" lon="5.0294">
        <ele>383</ele>
        <time>2018-06-10T11:22:21Z</time>
      </trkpt>
      <trkpt lat="44.68138" lon="5.0294">
        <ele>383</ele>
        <time>2018-06-10T11:22:23Z</time>
      </trkpt>
      <trkpt lat="44.68138" lon="5.02941">
        <ele>383</ele>
        <time>2018-06-10T11:22:25Z</time>
      </trkpt>
      <trkpt lat="44.68136" lon="5.02943">
        <ele>383</ele>
        <time>2018-06-10T11:22:27Z</time>
      </trkpt>
      <trkpt lat="44.68136" lon="5.02945">
        <ele>383</ele>
        <time>2018-06-10T11:22:29Z</time>
      </trkpt>
      <trkpt lat="44.68134" lon="5.02947">
        <ele>383</ele>
        <time>2018-06-10T11:22:31Z</time>
      </trkpt>
      <trkpt lat="44.68134" lon="5.02949">
        <ele>383</ele>
        <time>2018-06-10T11:22:33Z</time>
      </trkpt>
      <trkpt lat="44.68133" lon="5.02951">
        <ele>383</ele>
        <time>2018-06-10T11:22:35Z</time>
      </trkpt>
      <trkpt lat="44.68133" lon="5.02953">
        <ele>383</ele>
        <time>2018-06-10T11:22:37Z</time>
      </trkpt>
      <trkpt lat="44.68133" lon="5.02956">
        <ele>383</ele>
        <time>2018-06-10T11:22:39Z</time>
      </trkpt>
      <trkpt lat="44.68133" lon="5.02958">
        <ele>383</ele>
        <time>2018-06-10T11:22:41Z</time>
      </trkpt>
      <trkpt lat="44.68133" lon="5.0296">
        <ele>383</ele>
        <time>2018-06-10T11:22:43Z</time>
      </trkpt>
      <trkpt lat="44.68133" lon="5.02962">
        <ele>384</ele>
        <time>2018-06-10T11:22:45Z</time>
      </trkpt>
      <trkpt lat="44.68134" lon="5.02963">
        <ele>383</ele>
        <time>2018-06-10T11:22:47Z</time>
      </trkpt>
      <trkpt lat="44.68134" lon="5.02965">
        <ele>384</ele>
        <time>2018-06-10T11:22:49Z</time>
      </trkpt>
      <trkpt lat="44.68133" lon="5.02968">
        <ele>384</ele>
        <time>2018-06-10T11:22:51Z</time>
      </trkpt>
      <trkpt lat="44.68132" lon="5.02969">
        <ele>384</ele>
        <time>2018-06-10T11:22:53Z</time>
      </trkpt>
      <trkpt lat="44.68131" lon="5.02971">
        <ele>384</ele>
        <time>2018-06-10T11:22:55Z</time>
      </trkpt>
      <trkpt lat="44.68132" lon="5.02973">
        <ele>384</ele>
        <time>2018-06-10T11:22:57Z</time>
      </trkpt>
      <trkpt lat="44.68131" lon="5.02975">
        <ele>384</ele>
        <time>2018-06-10T11:22:59Z</time>
      </trkpt>
      <trkpt lat="44.6813" lon="5.02977">
        <ele>384</ele>
        <time>2018-06-10T11:23:01Z</time>
      </trkpt>
      <trkpt lat="44.68129" lon="5.02979">
        <ele>384</ele>
        <time>2018-06-10T11:23:03Z</time>
      </trkpt>
      <trkpt lat="44.68128" lon="5.0298">
        <ele>385</ele>
        <time>2018-06-10T11:23:05Z</time>
      </trkpt>
      <trkpt lat="44.68128" lon="5.02983">
        <ele>385</ele>
        <time>2018-06-10T11:23:07Z</time>
      </trkpt>
      <trkpt lat="44.68127" lon="5.02984">
        <ele>385</ele>
        <time>2018-06-10T11:23:09Z</time>
      </trkpt>
      <trkpt lat="44.68125" lon="5.02987">
        <ele>385</ele>
        <time>2018-06-10T11:23:11Z</time>
      </trkpt>
      <trkpt lat="44.68124" lon="5.02989">
        <ele>385</ele>
        <time>2018-06-10T11:23:13Z</time>
      </trkpt>
      <trkpt lat="44.68123" lon="5.02991">
        <ele>385</ele>
        <time>2018-06-10T11:23:15Z</time>
      </trkpt>
      <trkpt lat="44.68122" lon="5.02992">
        <ele>385</ele>
        <time>2018-06-10T11:23:18Z</time>
      </trkpt>
      <trkpt lat="44.6812" lon="5.02994">
        <ele>385</ele>
        <time>2018-06-10T11:23:20Z</time>
      </trkpt>
      <trkpt lat="44.6812" lon="5.02996">
        <ele>385</ele>
        <time>2018-06-10T11:23:22Z</time>
      </trkpt>
      <trkpt lat="44.68119" lon="5.02998">
        <ele>385</ele>
        <time>2018-06-10T11:23:24Z</time>
      </trkpt>
      <trkpt lat="44.68118" lon="5.03">
        <ele>385</ele>
        <time>2018-06-10T11:23:26Z</time>
      </trkpt>
      <trkpt lat="44.68117" lon="5.03">
        <ele>385</ele>
        <time>2018-06-10T11:23:28Z</time>
      </trkpt>
      <trkpt lat="44.68116" lon="5.03001">
        <ele>386</ele>
        <time>2018-06-10T11:23:30Z</time>
      </trkpt>
      <trkpt lat="44.68116" lon="5.03002">
        <ele>386</ele>
        <time>2018-06-10T11:23:32Z</time>
      </trkpt>
      <trkpt lat="44.68115" lon="5.03003">
        <ele>386</ele>
        <time>2018-06-10T11:23:34Z</time>
      </trkpt>
      <trkpt lat="44.68114" lon="5.03004">
        <ele>386</ele>
        <time>2018-06-10T11:23:36Z</time>
      </trkpt>
      <trkpt lat="44.68112" lon="5.03005">
        <ele>387</ele>
        <time>2018-06-10T11:23:38Z</time>
      </trkpt>
      <trkpt lat="44.68111" lon="5.03006">
        <ele>387</ele>
        <time>2018-06-10T11:23:40Z</time>
      </trkpt>
      <trkpt lat="44.6811" lon="5.03008">
        <ele>387</ele>
        <time>2018-06-10T11:23:42Z</time>
      </trkpt>
      <trkpt lat="44.68109" lon="5.03009">
        <ele>387</ele>
        <time>2018-06-10T11:23:44Z</time>
      </trkpt>
      <trkpt lat="44.68108" lon="5.0301">
        <ele>387</ele>
        <time>2018-06-10T11:23:46Z</time>
      </trkpt>
      <trkpt lat="44.68107" lon="5.03011">
        <ele>387</ele>
        <time>2018-06-10T11:23:48Z</time>
      </trkpt>
      <trkpt lat="44.68107" lon="5.03012">
        <ele>388</ele>
        <time>2018-06-10T11:23:50Z</time>
      </trkpt>
      <trkpt lat="44.68106" lon="5.03014">
        <ele>388</ele>
        <time>2018-06-10T11:23:52Z</time>
      </trkpt>
      <trkpt lat="44.68104" lon="5.03015">
        <ele>388</ele>
        <time>2018-06-10T11:23:54Z</time>
      </trkpt>
      <trkpt lat="44.68104" lon="5.03016">
        <ele>388</ele>
        <time>2018-06-10T11:23:56Z</time>
      </trkpt>
      <trkpt lat="44.68102" lon="5.03016">
        <ele>388</ele>
        <time>2018-06-10T11:23:58Z</time>
      </trkpt>
      <trkpt lat="44.68101" lon="5.03018">
        <ele>389</ele>
        <time>2018-06-10T11:24:00Z</time>
      </trkpt>
      <trkpt lat="44.681" lon="5.03019">
        <ele>389</ele>
        <time>2018-06-10T11:24:02Z</time>
      </trkpt>
      <trkpt lat="44.68099" lon="5.0302">
        <ele>389</ele>
        <time>2018-06-10T11:24:04Z</time>
      </trkpt>
      <trkpt lat="44.68098" lon="5.03021">
        <ele>389</ele>
        <time>2018-06-10T11:24:06Z</time>
      </trkpt>
      <trkpt lat="44.68098" lon="5.03022">
        <ele>390</ele>
        <time>2018-06-10T11:24:08Z</time>
      </trkpt>
      <trkpt lat="44.68097" lon="5.03022">
        <ele>390</ele>
        <time>2018-06-10T11:24:10Z</time>
      </trkpt>
      <trkpt lat="44.68096" lon="5.03023">
        <ele>390</ele>
        <time>2018-06-10T11:24:12Z</time>
      </trkpt>
      <trkpt lat="44.68095" lon="5.03023">
        <ele>390</ele>
        <time>2018-06-10T11:24:14Z</time>
      </trkpt>
      <trkpt lat="44.68094" lon="5.03024">
        <ele>391</ele>
        <time>2018-06-10T11:24:16Z</time>
      </trkpt>
      <trkpt lat="44.68093" lon="5.03024">
        <ele>391</ele>
        <time>2018-06-10T11:24:18Z</time>
      </trkpt>
      <trkpt lat="44.68093" lon="5.03025">
        <ele>391</ele>
        <time>2018-06-10T11:24:20Z</time>
      </trkpt>
      <trkpt lat="44.68091" lon="5.03026">
        <ele>391</ele>
        <time>2018-06-10T11:24:22Z</time>
      </trkpt>
      <trkpt lat="44.68091" lon="5.03026">
        <ele>391</ele>
        <time>2018-06-10T11:24:24Z</time>
      </trkpt>
      <trkpt lat="44.68089" lon="5.03027">
        <ele>391</ele>
        <time>2018-06-10T11:24:26Z</time>
      </trkpt>
      <trkpt lat="44.68088" lon="5.03027">
        <ele>392</ele>
        <time>2018-06-10T11:24:28Z</time>
      </trkpt>
      <trkpt lat="44.68087" lon="5.03028">
        <ele>392</ele>
        <time>2018-06-10T11:24:30Z</time>
      </trkpt>
      <trkpt lat="44.68084" lon="5.03029">
        <ele>393</ele>
        <time>2018-06-10T11:24:32Z</time>
      </trkpt>
      <trkpt lat="44.68083" lon="5.03029">
        <ele>393</ele>
        <time>2018-06-10T11:24:34Z</time>
      </trkpt>
      <trkpt lat="44.68083" lon="5.03029">
        <ele>393</ele>
        <time>2018-06-10T11:24:36Z</time>
      </trkpt>
      <trkpt lat="44.68081" lon="5.03029">
        <ele>393</ele>
        <time>2018-06-10T11:24:38Z</time>
      </trkpt>
      <trkpt lat="44.68081" lon="5.0303">
        <ele>394</ele>
        <time>2018-06-10T11:24:41Z</time>
      </trkpt>
      <trkpt lat="44.6808" lon="5.0303">
        <ele>394</ele>
        <time>2018-06-10T11:24:43Z</time>
      </trkpt>
      <trkpt lat="44.68078" lon="5.03031">
        <ele>394</ele>
        <time>2018-06-10T11:24:45Z</time>
      </trkpt>
      <trkpt lat="44.68077" lon="5.03032">
        <ele>394</ele>
        <time>2018-06-10T11:24:47Z</time>
      </trkpt>
      <trkpt lat="44.68077" lon="5.03033">
        <ele>394</ele>
        <time>2018-06-10T11:24:49Z</time>
      </trkpt>
      <trkpt lat="44.68076" lon="5.03033">
        <ele>395</ele>
        <time>2018-06-10T11:24:51Z</time>
      </trkpt>
      <trkpt lat="44.68075" lon="5.03034">
        <ele>395</ele>
        <time>2018-06-10T11:24:53Z</time>
      </trkpt>
      <trkpt lat="44.68073" lon="5.03034">
        <ele>395</ele>
        <time>2018-06-10T11:24:55Z</time>
      </trkpt>
      <trkpt lat="44.68072" lon="5.03035">
        <ele>396</ele>
        <time>2018-06-10T11:24:57Z</time>
      </trkpt>
      <trkpt lat="44.68071" lon="5.03036">
        <ele>395</ele>
        <time>2018-06-10T11:24:59Z</time>
      </trkpt>
      <trkpt lat="44.6807" lon="5.03035">
        <ele>396</ele>
        <time>2018-06-10T11:25:01Z</time>
      </trkpt>
      <trkpt lat="44.68069" lon="5.03036">
        <ele>396</ele>
        <time>2018-06-10T11:25:03Z</time>
      </trkpt>
      <trkpt lat="44.68067" lon="5.03036">
        <ele>396</ele>
        <time>2018-06-10T11:25:05Z</time>
      </trkpt>
      <trkpt lat="44.68066" lon="5.03036">
        <ele>396</ele>
        <time>2018-06-10T11:25:07Z</time>
      </trkpt>
      <trkpt lat="44.68064" lon="5.03036">
        <ele>396</ele>
        <time>2018-06-10T11:25:09Z</time>
      </trkpt>
      <trkpt lat="44.68063" lon="5.03035">
        <ele>396</ele>
        <time>2018-06-10T11:25:11Z</time>
      </trkpt>
      <trkpt lat="44.68058" lon="5.03038">
        <ele>397</ele>
        <time>2018-06-10T11:25:13Z</time>
      </trkpt>
      <trkpt lat="44.68056" lon="5.03037">
        <ele>397</ele>
        <time>2018-06-10T11:25:15Z</time>
      </trkpt>
      <trkpt lat="44.68054" lon="5.03036">
        <ele>397</ele>
        <time>2018-06-10T11:25:17Z</time>
      </trkpt>
      <trkpt lat="44.68051" lon="5.03036">
        <ele>397</ele>
        <time>2018-06-10T11:25:19Z</time>
      </trkpt>
      <trkpt lat="44.68048" lon="5.03036">
        <ele>396</ele>
        <time>2018-06-10T11:25:21Z</time>
      </trkpt>
      <trkpt lat="44.68045" lon="5.03036">
        <ele>396</ele>
        <time>2018-06-10T11:25:23Z</time>
      </trkpt>
      <trkpt lat="44.68043" lon="5.03035">
        <ele>396</ele>
        <time>2018-06-10T11:25:25Z</time>
      </trkpt>
      <trkpt lat="44.68041" lon="5.03034">
        <ele>397</ele>
        <time>2018-06-10T11:25:27Z</time>
      </trkpt>
      <trkpt lat="44.68039" lon="5.03032">
        <ele>396</ele>
        <time>2018-06-10T11:25:29Z</time>
      </trkpt>
      <trkpt lat="44.68037" lon="5.03031">
        <ele>396</ele>
        <time>2018-06-10T11:25:31Z</time>
      </trkpt>
      <trkpt lat="44.68033" lon="5.03031">
        <ele>396</ele>
        <time>2018-06-10T11:25:33Z</time>
      </trkpt>
      <trkpt lat="44.68029" lon="5.03031">
        <ele>397</ele>
        <time>2018-06-10T11:25:35Z</time>
      </trkpt>
      <trkpt lat="44.68024" lon="5.0303">
        <ele>396</ele>
        <time>2018-06-10T11:25:38Z</time>
      </trkpt>
      <trkpt lat="44.68021" lon="5.0303">
        <ele>396</ele>
        <time>2018-06-10T11:25:40Z</time>
      </trkpt>
      <trkpt lat="44.68017" lon="5.03028">
        <ele>396</ele>
        <time>2018-06-10T11:25:42Z</time>
      </trkpt>
      <trkpt lat="44.68014" lon="5.03023">
        <ele>397</ele>
        <time>2018-06-10T11:25:44Z</time>
      </trkpt>
      <trkpt lat="44.68009" lon="5.03022">
        <ele>397</ele>
        <time>2018-06-10T11:25:46Z</time>
      </trkpt>
      <trkpt lat="44.68005" lon="5.03022">
        <ele>397</ele>
        <time>2018-06-10T11:25:48Z</time>
      </trkpt>
      <trkpt lat="44.68" lon="5.03023">
        <ele>397</ele>
        <time>2018-06-10T11:25:50Z</time>
      </trkpt>
      <trkpt lat="44.67994" lon="5.03025">
        <ele>396</ele>
        <time>2018-06-10T11:25:52Z</time>
      </trkpt>
      <trkpt lat="44.67991" lon="5.03026">
        <ele>396</ele>
        <time>2018-06-10T11:25:54Z</time>
      </trkpt>
      <trkpt lat="44.67984" lon="5.03029">
        <ele>396</ele>
        <time>2018-06-10T11:25:56Z</time>
      </trkpt>
      <trkpt lat="44.67979" lon="5.03029">
        <ele>397</ele>
        <time>2018-06-10T11:25:58Z</time>
      </trkpt>
      <trkpt lat="44.67973" lon="5.03031">
        <ele>397</ele>
        <time>2018-06-10T11:26:00Z</time>
      </trkpt>
      <trkpt lat="44.6797" lon="5.03033">
        <ele>397</ele>
        <time>2018-06-10T11:26:02Z</time>
      </trkpt>
      <trkpt lat="44.67966" lon="5.03034">
        <ele>397</ele>
        <time>2018-06-10T11:26:04Z</time>
      </trkpt>
      <trkpt lat="44.67961" lon="5.03035">
        <ele>397</ele>
        <time>2018-06-10T11:26:06Z</time>
      </trkpt>
      <trkpt lat="44.67956" lon="5.03036">
        <ele>397</ele>
        <time>2018-06-10T11:26:08Z</time>
      </trkpt>
      <trkpt lat="44.67951" lon="5.03037">
        <ele>397</ele>
        <time>2018-06-10T11:26:10Z</time>
      </trkpt>
      <trkpt lat="44.67945" lon="5.03037">
        <ele>397</ele>
        <time>2018-06-10T11:26:12Z</time>
      </trkpt>
      <trkpt lat="44.67939" lon="5.03039">
        <ele>397</ele>
        <time>2018-06-10T11:26:14Z</time>
      </trkpt>
      <trkpt lat="44.67928" lon="5.03042">
        <ele>397</ele>
        <time>2018-06-10T11:26:16Z</time>
      </trkpt>
      <trkpt lat="44.67918" lon="5.03042">
        <ele>396</ele>
        <time>2018-06-10T11:26:18Z</time>
      </trkpt>
      <trkpt lat="44.67906" lon="5.0304">
        <ele>395</ele>
        <time>2018-06-10T11:26:20Z</time>
      </trkpt>
      <trkpt lat="44.67894" lon="5.03037">
        <ele>395</ele>
        <time>2018-06-10T11:26:22Z</time>
      </trkpt>
      <trkpt lat="44.67882" lon="5.03036">
        <ele>395</ele>
        <time>2018-06-10T11:26:24Z</time>
      </trkpt>
      <trkpt lat="44.6787" lon="5.03034">
        <ele>394</ele>
        <time>2018-06-10T11:26:26Z</time>
      </trkpt>
      <trkpt lat="44.67859" lon="5.03031">
        <ele>394</ele>
        <time>2018-06-10T11:26:28Z</time>
      </trkpt>
      <trkpt lat="44.67846" lon="5.03026">
        <ele>392</ele>
        <time>2018-06-10T11:26:30Z</time>
      </trkpt>
      <trkpt lat="44.67838" lon="5.03026">
        <ele>391</ele>
        <time>2018-06-10T11:26:32Z</time>
      </trkpt>
      <trkpt lat="44.67829" lon="5.03026">
        <ele>390</ele>
        <time>2018-06-10T11:26:34Z</time>
      </trkpt>
      <trkpt lat="44.67816" lon="5.03025">
        <ele>389</ele>
        <time>2018-06-10T11:26:36Z</time>
      </trkpt>
      <trkpt lat="44.67806" lon="5.03023">
        <ele>389</ele>
        <time>2018-06-10T11:26:38Z</time>
      </trkpt>
      <trkpt lat="44.6779" lon="5.03022">
        <ele>388</ele>
        <time>2018-06-10T11:26:40Z</time>
      </trkpt>
      <trkpt lat="44.67778" lon="5.03019">
        <ele>387</ele>
        <time>2018-06-10T11:26:42Z</time>
      </trkpt>
      <trkpt lat="44.6776" lon="5.0302">
        <ele>386</ele>
        <time>2018-06-10T11:26:44Z</time>
      </trkpt>
      <trkpt lat="44.67743" lon="5.0302">
        <ele>385</ele>
        <time>2018-06-10T11:26:46Z</time>
      </trkpt>
      <trkpt lat="44.67728" lon="5.0302">
        <ele>385</ele>
        <time>2018-06-10T11:26:48Z</time>
      </trkpt>
      <trkpt lat="44.67714" lon="5.03023">
        <ele>384</ele>
        <time>2018-06-10T11:26:50Z</time>
      </trkpt>
      <trkpt lat="44.67704" lon="5.03021">
        <ele>383</ele>
        <time>2018-06-10T11:26:52Z</time>
      </trkpt>
      <trkpt lat="44.67696" lon="5.03019">
        <ele>383</ele>
        <time>2018-06-10T11:26:54Z</time>
      </trkpt>
      <trkpt lat="44.67687" lon="5.03018">
        <ele>382</ele>
        <time>2018-06-10T11:26:56Z</time>
      </trkpt>
      <trkpt lat="44.67679" lon="5.03017">
        <ele>382</ele>
        <time>2018-06-10T11:26:59Z</time>
      </trkpt>
      <trkpt lat="44.67672" lon="5.03014">
        <ele>383</ele>
        <time>2018-06-10T11:27:01Z</time>
      </trkpt>
      <trkpt lat="44.67665" lon="5.03006">
        <ele>382</ele>
        <time>2018-06-10T11:27:03Z</time>
      </trkpt>
      <trkpt lat="44.67656" lon="5.02998">
        <ele>383</ele>
        <time>2018-06-10T11:27:05Z</time>
      </trkpt>
      <trkpt lat="44.67648" lon="5.02991">
        <ele>382</ele>
        <time>2018-06-10T11:27:07Z</time>
      </trkpt>
      <trkpt lat="44.6764" lon="5.02986">
        <ele>381</ele>
        <time>2018-06-10T11:27:09Z</time>
      </trkpt>
      <trkpt lat="44.67631" lon="5.02986">
        <ele>382</ele>
        <time>2018-06-10T11:27:11Z</time>
      </trkpt>
      <trkpt lat="44.67624" lon="5.02985">
        <ele>382</ele>
        <time>2018-06-10T11:27:13Z</time>
      </trkpt>
      <trkpt lat="44.67619" lon="5.02984">
        <ele>382</ele>
        <time>2018-06-10T11:27:15Z</time>
      </trkpt>
      <trkpt lat="44.67614" lon="5.02984">
        <ele>383</ele>
        <time>2018-06-10T11:27:17Z</time>
      </trkpt>
      <trkpt lat="44.6761" lon="5.02983">
        <ele>383</ele>
        <time>2018-06-10T11:27:19Z</time>
      </trkpt>
      <trkpt lat="44.67606" lon="5.02983">
        <ele>383</ele>
        <time>2018-06-10T11:27:21Z</time>
      </trkpt>
      <trkpt lat="44.67601" lon="5.02985">
        <ele>383</ele>
        <time>2018-06-10T11:27:23Z</time>
      </trkpt>
      <trkpt lat="44.67596" lon="5.02985">
        <ele>383</ele>
        <time>2018-06-10T11:27:25Z</time>
      </trkpt>
      <trkpt lat="44.67591" lon="5.02986">
        <ele>384</ele>
        <time>2018-06-10T11:27:27Z</time>
      </trkpt>
      <trkpt lat="44.67587" lon="5.02987">
        <ele>384</ele>
        <time>2018-06-10T11:27:29Z</time>
      </trkpt>
      <trkpt lat="44.67583" lon="5.02988">
        <ele>384</ele>
        <time>2018-06-10T11:27:31Z</time>
      </trkpt>
      <trkpt lat="44.67579" lon="5.0299">
        <ele>384</ele>
        <time>2018-06-10T11:27:33Z</time>
      </trkpt>
      <trkpt lat="44.67574" lon="5.02993">
        <ele>385</ele>
        <time>2018-06-10T11:27:35Z</time>
      </trkpt>
      <trkpt lat="44.67571" lon="5.02995">
        <ele>385</ele>
        <time>2018-06-10T11:27:37Z</time>
      </trkpt>
      <trkpt lat="44.67567" lon="5.02998">
        <ele>385</ele>
        <time>2018-06-10T11:27:39Z</time>
      </trkpt>
      <trkpt lat="44.67564" lon="5.03001">
        <ele>385</ele>
        <time>2018-06-10T11:27:41Z</time>
      </trkpt>
      <trkpt lat="44.67563" lon="5.03002">
        <ele>386</ele>
        <time>2018-06-10T11:27:43Z</time>
      </trkpt>
      <trkpt lat="44.6756" lon="5.03005">
        <ele>386</ele>
        <time>2018-06-10T11:27:45Z</time>
      </trkpt>
      <trkpt lat="44.67557" lon="5.03009">
        <ele>386</ele>
        <time>2018-06-10T11:27:47Z</time>
      </trkpt>
      <trkpt lat="44.67554" lon="5.03012">
        <ele>387</ele>
        <time>2018-06-10T11:27:49Z</time>
      </trkpt>
      <trkpt lat="44.67551" lon="5.03017">
        <ele>387</ele>
        <time>2018-06-10T11:27:51Z</time>
      </trkpt>
      <trkpt lat="44.67548" lon="5.0302">
        <ele>387</ele>
        <time>2018-06-10T11:27:53Z</time>
      </trkpt>
      <trkpt lat="44.67546" lon="5.03023">
        <ele>387</ele>
        <time>2018-06-10T11:27:55Z</time>
      </trkpt>
      <trkpt lat="44.67544" lon="5.03027">
        <ele>387</ele>
        <time>2018-06-10T11:27:57Z</time>
      </trkpt>
      <trkpt lat="44.67541" lon="5.0303">
        <ele>388</ele>
        <time>2018-06-10T11:27:59Z</time>
      </trkpt>
      <trkpt lat="44.67539" lon="5.03033">
        <ele>388</ele>
        <time>2018-06-10T11:28:01Z</time>
      </trkpt>
      <trkpt lat="44.67536" lon="5.03037">
        <ele>388</ele>
        <time>2018-06-10T11:28:03Z</time>
      </trkpt>
      <trkpt lat="44.67534" lon="5.03041">
        <ele>388</ele>
        <time>2018-06-10T11:28:05Z</time>
      </trkpt>
      <trkpt lat="44.67531" lon="5.03045">
        <ele>388</ele>
        <time>2018-06-10T11:28:07Z</time>
      </trkpt>
      <trkpt lat="44.67528" lon="5.03049">
        <ele>389</ele>
        <time>2018-06-10T11:28:09Z</time>
      </trkpt>
      <trkpt lat="44.67524" lon="5.03054">
        <ele>388</ele>
        <time>2018-06-10T11:28:11Z</time>
      </trkpt>
      <trkpt lat="44.67522" lon="5.03058">
        <ele>389</ele>
        <time>2018-06-10T11:28:13Z</time>
      </trkpt>
      <trkpt lat="44.67521" lon="5.03063">
        <ele>389</ele>
        <time>2018-06-10T11:28:15Z</time>
      </trkpt>
      <trkpt lat="44.67518" lon="5.03068">
        <ele>389</ele>
        <time>2018-06-10T11:28:17Z</time>
      </trkpt>
      <trkpt lat="44.67514" lon="5.03074">
        <ele>389</ele>
        <time>2018-06-10T11:28:19Z</time>
      </trkpt>
      <trkpt lat="44.67511" lon="5.03079">
        <ele>389</ele>
        <time>2018-06-10T11:28:21Z</time>
      </trkpt>
      <trkpt lat="44.67508" lon="5.03084">
        <ele>389</ele>
        <time>2018-06-10T11:28:23Z</time>
      </trkpt>
      <trkpt lat="44.67505" lon="5.03089">
        <ele>389</ele>
        <time>2018-06-10T11:28:25Z</time>
      </trkpt>
      <trkpt lat="44.67502" lon="5.03094">
        <ele>389</ele>
        <time>2018-06-10T11:28:27Z</time>
      </trkpt>
      <trkpt lat="44.67499" lon="5.03098">
        <ele>389</ele>
        <time>2018-06-10T11:28:29Z</time>
      </trkpt>
      <trkpt lat="44.67497" lon="5.03101">
        <ele>390</ele>
        <time>2018-06-10T11:28:32Z</time>
      </trkpt>
      <trkpt lat="44.67495" lon="5.03106">
        <ele>390</ele>
        <time>2018-06-10T11:28:34Z</time>
      </trkpt>
      <trkpt lat="44.67493" lon="5.0311">
        <ele>390</ele>
        <time>2018-06-10T11:28:36Z</time>
      </trkpt>
      <trkpt lat="44.67491" lon="5.03115">
        <ele>390</ele>
        <time>2018-06-10T11:28:38Z</time>
      </trkpt>
      <trkpt lat="44.67489" lon="5.03118">
        <ele>390</ele>
        <time>2018-06-10T11:28:40Z</time>
      </trkpt>
      <trkpt lat="44.67485" lon="5.03123">
        <ele>390</ele>
        <time>2018-06-10T11:28:42Z</time>
      </trkpt>
      <trkpt lat="44.67481" lon="5.03128">
        <ele>391</ele>
        <time>2018-06-10T11:28:44Z</time>
      </trkpt>
      <trkpt lat="44.67479" lon="5.03132">
        <ele>391</ele>
        <time>2018-06-10T11:28:46Z</time>
      </trkpt>
      <trkpt lat="44.67476" lon="5.03135">
        <ele>391</ele>
        <time>2018-06-10T11:28:48Z</time>
      </trkpt>
      <trkpt lat="44.67473" lon="5.0314">
        <ele>392</ele>
        <time>2018-06-10T11:28:50Z</time>
      </trkpt>
      <trkpt lat="44.67472" lon="5.03142">
        <ele>392</ele>
        <time>2018-06-10T11:28:52Z</time>
      </trkpt>
      <trkpt lat="44.67471" lon="5.03145">
        <ele>392</ele>
        <time>2018-06-10T11:28:54Z</time>
      </trkpt>
      <trkpt lat="44.67468" lon="5.03148">
        <ele>392</ele>
        <time>2018-06-10T11:28:56Z</time>
      </trkpt>
      <trkpt lat="44.67467" lon="5.03149">
        <ele>392</ele>
        <time>2018-06-10T11:28:58Z</time>
      </trkpt>
      <trkpt lat="44.67465" lon="5.03152">
        <ele>393</ele>
        <time>2018-06-10T11:29:00Z</time>
      </trkpt>
      <trkpt lat="44.67462" lon="5.03156">
        <ele>393</ele>
        <time>2018-06-10T11:29:02Z</time>
      </trkpt>
      <trkpt lat="44.67459" lon="5.03159">
        <ele>393</ele>
        <time>2018-06-10T11:29:04Z</time>
      </trkpt>
      <trkpt lat="44.67455" lon="5.03165">
        <ele>393</ele>
        <time>2018-06-10T11:29:06Z</time>
      </trkpt>
      <trkpt lat="44.67454" lon="5.03169">
        <ele>394</ele>
        <time>2018-06-10T11:29:08Z</time>
      </trkpt>
      <trkpt lat="44.67452" lon="5.03173">
        <ele>394</ele>
        <time>2018-06-10T11:29:10Z</time>
      </trkpt>
      <trkpt lat="44.67451" lon="5.03177">
        <ele>395</ele>
        <time>2018-06-10T11:29:12Z</time>
      </trkpt>
      <trkpt lat="44.6745" lon="5.03179">
        <ele>395</ele>
        <time>2018-06-10T11:29:14Z</time>
      </trkpt>
      <trkpt lat="44.67448" lon="5.03182">
        <ele>395</ele>
        <time>2018-06-10T11:29:16Z</time>
      </trkpt>
      <trkpt lat="44.67446" lon="5.03185">
        <ele>396</ele>
        <time>2018-06-10T11:29:18Z</time>
      </trkpt>
      <trkpt lat="44.67445" lon="5.03187">
        <ele>396</ele>
        <time>2018-06-10T11:29:20Z</time>
      </trkpt>
      <trkpt lat="44.67445" lon="5.0319">
        <ele>396</ele>
        <time>2018-06-10T11:29:22Z</time>
      </trkpt>
      <trkpt lat="44.67444" lon="5.03193">
        <ele>396</ele>
        <time>2018-06-10T11:29:24Z</time>
      </trkpt>
      <trkpt lat="44.67442" lon="5.03196">
        <ele>397</ele>
        <time>2018-06-10T11:29:26Z</time>
      </trkpt>
      <trkpt lat="44.67441" lon="5.03199">
        <ele>398</ele>
        <time>2018-06-10T11:29:28Z</time>
      </trkpt>
      <trkpt lat="44.6744" lon="5.03202">
        <ele>398</ele>
        <time>2018-06-10T11:29:30Z</time>
      </trkpt>
      <trkpt lat="44.67439" lon="5.03205">
        <ele>398</ele>
        <time>2018-06-10T11:29:33Z</time>
      </trkpt>
      <trkpt lat="44.67439" lon="5.03208">
        <ele>398</ele>
        <time>2018-06-10T11:29:35Z</time>
      </trkpt>
      <trkpt lat="44.67438" lon="5.03211">
        <ele>399</ele>
        <time>2018-06-10T11:29:37Z</time>
      </trkpt>
      <trkpt lat="44.67438" lon="5.03214">
        <ele>399</ele>
        <time>2018-06-10T11:29:39Z</time>
      </trkpt>
      <trkpt lat="44.67438" lon="5.03217">
        <ele>400</ele>
        <time>2018-06-10T11:29:41Z</time>
      </trkpt>
      <trkpt lat="44.67439" lon="5.0322">
        <ele>400</ele>
        <time>2018-06-10T11:29:43Z</time>
      </trkpt>
      <trkpt lat="44.67438" lon="5.03223">
        <ele>401</ele>
        <time>2018-06-10T11:29:45Z</time>
      </trkpt>
      <trkpt lat="44.67439" lon="5.03227">
        <ele>400</ele>
        <time>2018-06-10T11:29:47Z</time>
      </trkpt>
      <trkpt lat="44.67439" lon="5.0323">
        <ele>401</ele>
        <time>2018-06-10T11:29:49Z</time>
      </trkpt>
      <trkpt lat="44.6744" lon="5.03233">
        <ele>401</ele>
        <time>2018-06-10T11:29:51Z</time>
      </trkpt>
      <trkpt lat="44.6744" lon="5.03237">
        <ele>402</ele>
        <time>2018-06-10T11:29:53Z</time>
      </trkpt>
      <trkpt lat="44.6744" lon="5.03241">
        <ele>402</ele>
        <time>2018-06-10T11:29:55Z</time>
      </trkpt>
      <trkpt lat="44.67441" lon="5.03244">
        <ele>403</ele>
        <time>2018-06-10T11:29:57Z</time>
      </trkpt>
      <trkpt lat="44.67441" lon="5.03247">
        <ele>403</ele>
        <time>2018-06-10T11:29:59Z</time>
      </trkpt>
      <trkpt lat="44.67443" lon="5.03251">
        <ele>403</ele>
        <time>2018-06-10T11:30:01Z</time>
      </trkpt>
      <trkpt lat="44.67444" lon="5.03254">
        <ele>404</ele>
        <time>2018-06-10T11:30:03Z</time>
      </trkpt>
      <trkpt lat="44.67445" lon="5.03256">
        <ele>404</ele>
        <time>2018-06-10T11:30:05Z</time>
      </trkpt>
      <trkpt lat="44.67446" lon="5.03258">
        <ele>405</ele>
        <time>2018-06-10T11:30:07Z</time>
      </trkpt>
      <trkpt lat="44.67446" lon="5.03262">
        <ele>405</ele>
        <time>2018-06-10T11:30:09Z</time>
      </trkpt>
      <trkpt lat="44.67446" lon="5.03266">
        <ele>406</ele>
        <time>2018-06-10T11:30:11Z</time>
      </trkpt>
      <trkpt lat="44.67447" lon="5.03269">
        <ele>406</ele>
        <time>2018-06-10T11:30:13Z</time>
      </trkpt>
      <trkpt lat="44.67447" lon="5.03272">
        <ele>407</ele>
        <time>2018-06-10T11:30:15Z</time>
      </trkpt>
      <trkpt lat="44.67448" lon="5.03275">
        <ele>407</ele>
        <time>2018-06-10T11:30:17Z</time>
      </trkpt>
      <trkpt lat="44.6745" lon="5.03277">
        <ele>407</ele>
        <time>2018-06-10T11:30:19Z</time>
      </trkpt>
      <trkpt lat="44.67451" lon="5.03279">
        <ele>407</ele>
        <time>2018-06-10T11:30:21Z</time>
      </trkpt>
      <trkpt lat="44.67451" lon="5.03281">
        <ele>408</ele>
        <time>2018-06-10T11:30:23Z</time>
      </trkpt>
      <trkpt lat="44.67452" lon="5.03284">
        <ele>408</ele>
        <time>2018-06-10T11:30:25Z</time>
      </trkpt>
      <trkpt lat="44.67453" lon="5.03288">
        <ele>409</ele>
        <time>2018-06-10T11:30:28Z</time>
      </trkpt>
      <trkpt lat="44.67453" lon="5.0329">
        <ele>409</ele>
        <time>2018-06-10T11:30:30Z</time>
      </trkpt>
      <trkpt lat="44.67454" lon="5.03294">
        <ele>409</ele>
        <time>2018-06-10T11:30:32Z</time>
      </trkpt>
      <trkpt lat="44.67455" lon="5.03297">
        <ele>409</ele>
        <time>2018-06-10T11:30:34Z</time>
      </trkpt>
      <trkpt lat="44.67455" lon="5.03301">
        <ele>410</ele>
        <time>2018-06-10T11:30:36Z</time>
      </trkpt>
      <trkpt lat="44.67455" lon="5.03304">
        <ele>409</ele>
        <time>2018-06-10T11:30:38Z</time>
      </trkpt>
      <trkpt lat="44.67454" lon="5.03307">
        <ele>410</ele>
        <time>2018-06-10T11:30:40Z</time>
      </trkpt>
      <trkpt lat="44.67455" lon="5.03314">
        <ele>409</ele>
        <time>2018-06-10T11:30:42Z</time>
      </trkpt>
      <trkpt lat="44.67456" lon="5.03316">
        <ele>410</ele>
        <time>2018-06-10T11:30:44Z</time>
      </trkpt>
      <trkpt lat="44.67457" lon="5.0332">
        <ele>410</ele>
        <time>2018-06-10T11:30:46Z</time>
      </trkpt>
      <trkpt lat="44.67457" lon="5.03322">
        <ele>410</ele>
        <time>2018-06-10T11:30:48Z</time>
      </trkpt>
      <trkpt lat="44.67458" lon="5.03323">
        <ele>410</ele>
        <time>2018-06-10T11:30:50Z</time>
      </trkpt>
      <trkpt lat="44.67458" lon="5.03325">
        <ele>411</ele>
        <time>2018-06-10T11:30:52Z</time>
      </trkpt>
      <trkpt lat="44.67459" lon="5.03328">
        <ele>411</ele>
        <time>2018-06-10T11:30:54Z</time>
      </trkpt>
      <trkpt lat="44.67459" lon="5.03331">
        <ele>412</ele>
        <time>2018-06-10T11:30:56Z</time>
      </trkpt>
      <trkpt lat="44.6746" lon="5.03334">
        <ele>411</ele>
        <time>2018-06-10T11:30:58Z</time>
      </trkpt>
      <trkpt lat="44.6746" lon="5.03338">
        <ele>412</ele>
        <time>2018-06-10T11:31:00Z</time>
      </trkpt>
      <trkpt lat="44.67461" lon="5.03341">
        <ele>412</ele>
        <time>2018-06-10T11:31:02Z</time>
      </trkpt>
      <trkpt lat="44.67461" lon="5.03343">
        <ele>412</ele>
        <time>2018-06-10T11:31:05Z</time>
      </trkpt>
      <trkpt lat="44.6746" lon="5.03347">
        <ele>412</ele>
        <time>2018-06-10T11:31:07Z</time>
      </trkpt>
      <trkpt lat="44.6746" lon="5.0335">
        <ele>412</ele>
        <time>2018-06-10T11:31:09Z</time>
      </trkpt>
      <trkpt lat="44.6746" lon="5.03353">
        <ele>412</ele>
        <time>2018-06-10T11:31:11Z</time>
      </trkpt>
      <trkpt lat="44.6746" lon="5.03357">
        <ele>412</ele>
        <time>2018-06-10T11:31:13Z</time>
      </trkpt>
      <trkpt lat="44.6746" lon="5.0336">
        <ele>413</ele>
        <time>2018-06-10T11:31:15Z</time>
      </trkpt>
      <trkpt lat="44.67459" lon="5.03363">
        <ele>413</ele>
        <time>2018-06-10T11:31:17Z</time>
      </trkpt>
      <trkpt lat="44.67459" lon="5.03366">
        <ele>413</ele>
        <time>2018-06-10T11:31:19Z</time>
      </trkpt>
      <trkpt lat="44.67459" lon="5.03369">
        <ele>413</ele>
        <time>2018-06-10T11:31:21Z</time>
      </trkpt>
      <trkpt lat="44.67459" lon="5.03371">
        <ele>413</ele>
        <time>2018-06-10T11:31:23Z</time>
      </trkpt>
      <trkpt lat="44.67459" lon="5.03374">
        <ele>414</ele>
        <time>2018-06-10T11:31:25Z</time>
      </trkpt>
      <trkpt lat="44.67459" lon="5.03377">
        <ele>414</ele>
        <time>2018-06-10T11:31:27Z</time>
      </trkpt>
      <trkpt lat="44.67459" lon="5.0338">
        <ele>415</ele>
        <time>2018-06-10T11:31:29Z</time>
      </trkpt>
      <trkpt lat="44.67459" lon="5.03384">
        <ele>415</ele>
        <time>2018-06-10T11:31:31Z</time>
      </trkpt>
      <trkpt lat="44.67459" lon="5.03387">
        <ele>415</ele>
        <time>2018-06-10T11:31:33Z</time>
      </trkpt>
      <trkpt lat="44.67459" lon="5.0339">
        <ele>415</ele>
        <time>2018-06-10T11:31:35Z</time>
      </trkpt>
      <trkpt lat="44.67459" lon="5.03393">
        <ele>415</ele>
        <time>2018-06-10T11:31:37Z</time>
      </trkpt>
      <trkpt lat="44.67458" lon="5.03396">
        <ele>416</ele>
        <time>2018-06-10T11:31:39Z</time>
      </trkpt>
      <trkpt lat="44.67458" lon="5.03398">
        <ele>415</ele>
        <time>2018-06-10T11:31:41Z</time>
      </trkpt>
      <trkpt lat="44.67458" lon="5.03401">
        <ele>416</ele>
        <time>2018-06-10T11:31:43Z</time>
      </trkpt>
      <trkpt lat="44.67458" lon="5.03403">
        <ele>416</ele>
        <time>2018-06-10T11:31:45Z</time>
      </trkpt>
      <trkpt lat="44.67458" lon="5.03406">
        <ele>416</ele>
        <time>2018-06-10T11:31:47Z</time>
      </trkpt>
      <trkpt lat="44.67458" lon="5.03409">
        <ele>417</ele>
        <time>2018-06-10T11:31:49Z</time>
      </trkpt>
      <trkpt lat="44.67458" lon="5.03411">
        <ele>416</ele>
        <time>2018-06-10T11:31:51Z</time>
      </trkpt>
      <trkpt lat="44.67458" lon="5.03413">
        <ele>417</ele>
        <time>2018-06-10T11:31:53Z</time>
      </trkpt>
      <trkpt lat="44.67458" lon="5.03415">
        <ele>417</ele>
        <time>2018-06-10T11:31:55Z</time>
      </trkpt>
      <trkpt lat="44.67459" lon="5.03417">
        <ele>417</ele>
        <time>2018-06-10T11:31:57Z</time>
      </trkpt>
      <trkpt lat="44.67459" lon="5.03419">
        <ele>418</ele>
        <time>2018-06-10T11:31:59Z</time>
      </trkpt>
      <trkpt lat="44.67459" lon="5.03421">
        <ele>418</ele>
        <time>2018-06-10T11:32:01Z</time>
      </trkpt>
      <trkpt lat="44.67459" lon="5.03423">
        <ele>418</ele>
        <time>2018-06-10T11:32:03Z</time>
      </trkpt>
      <trkpt lat="44.67458" lon="5.03425">
        <ele>418</ele>
        <time>2018-06-10T11:32:05Z</time>
      </trkpt>
      <trkpt lat="44.67458" lon="5.03427">
        <ele>419</ele>
        <time>2018-06-10T11:32:07Z</time>
      </trkpt>
      <trkpt lat="44.67457" lon="5.0343">
        <ele>419</ele>
        <time>2018-06-10T11:32:09Z</time>
      </trkpt>
      <trkpt lat="44.67457" lon="5.03432">
        <ele>419</ele>
        <time>2018-06-10T11:32:12Z</time>
      </trkpt>
      <trkpt lat="44.67457" lon="5.03434">
        <ele>420</ele>
        <time>2018-06-10T11:32:14Z</time>
      </trkpt>
      <trkpt lat="44.67457" lon="5.03436">
        <ele>420</ele>
        <time>2018-06-10T11:32:16Z</time>
      </trkpt>
      <trkpt lat="44.67457" lon="5.03438">
        <ele>420</ele>
        <time>2018-06-10T11:32:18Z</time>
      </trkpt>
      <trkpt lat="44.67457" lon="5.03439">
        <ele>420</ele>
        <time>2018-06-10T11:32:20Z</time>
      </trkpt>
      <trkpt lat="44.67458" lon="5.03442">
        <ele>421</ele>
        <time>2018-06-10T11:32:22Z</time>
      </trkpt>
      <trkpt lat="44.67458" lon="5.03444">
        <ele>421</ele>
        <time>2018-06-10T11:32:24Z</time>
      </trkpt>
      <trkpt lat="44.67459" lon="5.03446">
        <ele>421</ele>
        <time>2018-06-10T11:32:26Z</time>
      </trkpt>
      <trkpt lat="44.67459" lon="5.03448">
        <ele>421</ele>
        <time>2018-06-10T11:32:28Z</time>
      </trkpt>
      <trkpt lat="44.6746" lon="5.0345">
        <ele>421</ele>
        <time>2018-06-10T11:32:30Z</time>
      </trkpt>
      <trkpt lat="44.6746" lon="5.03453">
        <ele>421</ele>
        <time>2018-06-10T11:32:32Z</time>
      </trkpt>
      <trkpt lat="44.6746" lon="5.03455">
        <ele>422</ele>
        <time>2018-06-10T11:32:34Z</time>
      </trkpt>
      <trkpt lat="44.67461" lon="5.03457">
        <ele>422</ele>
        <time>2018-06-10T11:32:36Z</time>
      </trkpt>
      <trkpt lat="44.67462" lon="5.0346">
        <ele>423</ele>
        <time>2018-06-10T11:32:38Z</time>
      </trkpt>
      <trkpt lat="44.67462" lon="5.03463">
        <ele>422</ele>
        <time>2018-06-10T11:32:40Z</time>
      </trkpt>
      <trkpt lat="44.67462" lon="5.03466">
        <ele>423</ele>
        <time>2018-06-10T11:32:42Z</time>
      </trkpt>
      <trkpt lat="44.67462" lon="5.03468">
        <ele>423</ele>
        <time>2018-06-10T11:32:44Z</time>
      </trkpt>
      <trkpt lat="44.67461" lon="5.0347">
        <ele>424</ele>
        <time>2018-06-10T11:32:46Z</time>
      </trkpt>
      <trkpt lat="44.67461" lon="5.03473">
        <ele>424</ele>
        <time>2018-06-10T11:32:48Z</time>
      </trkpt>
      <trkpt lat="44.67461" lon="5.03475">
        <ele>424</ele>
        <time>2018-06-10T11:32:50Z</time>
      </trkpt>
      <trkpt lat="44.67461" lon="5.03477">
        <ele>424</ele>
        <time>2018-06-10T11:32:52Z</time>
      </trkpt>
      <trkpt lat="44.6746" lon="5.03478">
        <ele>424</ele>
        <time>2018-06-10T11:32:54Z</time>
      </trkpt>
      <trkpt lat="44.67459" lon="5.03479">
        <ele>424</ele>
        <time>2018-06-10T11:32:56Z</time>
      </trkpt>
      <trkpt lat="44.67459" lon="5.03478">
        <ele>424</ele>
        <time>2018-06-10T11:32:58Z</time>
      </trkpt>
      <trkpt lat="44.67461" lon="5.03477">
        <ele>425</ele>
        <time>2018-06-10T11:33:00Z</time>
      </trkpt>
      <trkpt lat="44.67461" lon="5.03478">
        <ele>424</ele>
        <time>2018-06-10T11:33:02Z</time>
      </trkpt>
      <trkpt lat="44.67461" lon="5.03481">
        <ele>424</ele>
        <time>2018-06-10T11:33:04Z</time>
      </trkpt>
      <trkpt lat="44.67461" lon="5.03483">
        <ele>425</ele>
        <time>2018-06-10T11:33:06Z</time>
      </trkpt>
      <trkpt lat="44.67459" lon="5.03486">
        <ele>425</ele>
        <time>2018-06-10T11:33:08Z</time>
      </trkpt>
      <trkpt lat="44.67458" lon="5.0349">
        <ele>425</ele>
        <time>2018-06-10T11:33:10Z</time>
      </trkpt>
      <trkpt lat="44.67458" lon="5.03493">
        <ele>425</ele>
        <time>2018-06-10T11:33:12Z</time>
      </trkpt>
      <trkpt lat="44.67457" lon="5.03496">
        <ele>425</ele>
        <time>2018-06-10T11:33:14Z</time>
      </trkpt>
      <trkpt lat="44.67455" lon="5.03499">
        <ele>426</ele>
        <time>2018-06-10T11:33:16Z</time>
      </trkpt>
      <trkpt lat="44.67454" lon="5.03502">
        <ele>426</ele>
        <time>2018-06-10T11:33:18Z</time>
      </trkpt>
      <trkpt lat="44.67452" lon="5.03505">
        <ele>426</ele>
        <time>2018-06-10T11:33:20Z</time>
      </trkpt>
      <trkpt lat="44.6745" lon="5.03507">
        <ele>426</ele>
        <time>2018-06-10T11:33:22Z</time>
      </trkpt>
      <trkpt lat="44.67448" lon="5.0351">
        <ele>427</ele>
        <time>2018-06-10T11:33:24Z</time>
      </trkpt>
      <trkpt lat="44.67446" lon="5.03512">
        <ele>427</ele>
        <time>2018-06-10T11:33:26Z</time>
      </trkpt>
      <trkpt lat="44.67444" lon="5.03514">
        <ele>427</ele>
        <time>2018-06-10T11:33:28Z</time>
      </trkpt>
      <trkpt lat="44.67442" lon="5.03516">
        <ele>428</ele>
        <time>2018-06-10T11:33:30Z</time>
      </trkpt>
      <trkpt lat="44.6744" lon="5.03518">
        <ele>428</ele>
        <time>2018-06-10T11:33:32Z</time>
      </trkpt>
      <trkpt lat="44.67438" lon="5.03521">
        <ele>428</ele>
        <time>2018-06-10T11:33:34Z</time>
      </trkpt>
      <trkpt lat="44.67438" lon="5.03523">
        <ele>429</ele>
        <time>2018-06-10T11:33:36Z</time>
      </trkpt>
      <trkpt lat="44.67436" lon="5.03525">
        <ele>429</ele>
        <time>2018-06-10T11:33:38Z</time>
      </trkpt>
      <trkpt lat="44.67434" lon="5.03527">
        <ele>429</ele>
        <time>2018-06-10T11:33:40Z</time>
      </trkpt>
      <trkpt lat="44.67432" lon="5.03529">
        <ele>429</ele>
        <time>2018-06-10T11:33:42Z</time>
      </trkpt>
      <trkpt lat="44.6743" lon="5.03531">
        <ele>429</ele>
        <time>2018-06-10T11:33:44Z</time>
      </trkpt>
      <trkpt lat="44.67429" lon="5.03533">
        <ele>429</ele>
        <time>2018-06-10T11:33:46Z</time>
      </trkpt>
      <trkpt lat="44.67427" lon="5.03535">
        <ele>430</ele>
        <time>2018-06-10T11:33:48Z</time>
      </trkpt>
      <trkpt lat="44.67425" lon="5.03537">
        <ele>430</ele>
        <time>2018-06-10T11:33:50Z</time>
      </trkpt>
      <trkpt lat="44.67423" lon="5.03539">
        <ele>430</ele>
        <time>2018-06-10T11:33:52Z</time>
      </trkpt>
      <trkpt lat="44.6742" lon="5.03541">
        <ele>430</ele>
        <time>2018-06-10T11:33:54Z</time>
      </trkpt>
      <trkpt lat="44.67418" lon="5.03543">
        <ele>431</ele>
        <time>2018-06-10T11:33:56Z</time>
      </trkpt>
      <trkpt lat="44.67416" lon="5.03545">
        <ele>430</ele>
        <time>2018-06-10T11:33:58Z</time>
      </trkpt>
      <trkpt lat="44.67414" lon="5.03548">
        <ele>430</ele>
        <time>2018-06-10T11:34:00Z</time>
      </trkpt>
      <trkpt lat="44.67412" lon="5.03551">
        <ele>431</ele>
        <time>2018-06-10T11:34:02Z</time>
      </trkpt>
      <trkpt lat="44.67411" lon="5.03554">
        <ele>431</ele>
        <time>2018-06-10T11:34:04Z</time>
      </trkpt>
      <trkpt lat="44.67409" lon="5.03556">
        <ele>431</ele>
        <time>2018-06-10T11:34:06Z</time>
      </trkpt>
      <trkpt lat="44.67408" lon="5.03559">
        <ele>431</ele>
        <time>2018-06-10T11:34:08Z</time>
      </trkpt>
      <trkpt lat="44.67406" lon="5.03562">
        <ele>431</ele>
        <time>2018-06-10T11:34:10Z</time>
      </trkpt>
      <trkpt lat="44.67405" lon="5.03565">
        <ele>431</ele>
        <time>2018-06-10T11:34:12Z</time>
      </trkpt>
      <trkpt lat="44.67404" lon="5.03569">
        <ele>431</ele>
        <time>2018-06-10T11:34:14Z</time>
      </trkpt>
      <trkpt lat="44.67403" lon="5.03573">
        <ele>431</ele>
        <time>2018-06-10T11:34:16Z</time>
      </trkpt>
      <trkpt lat="44.67401" lon="5.03577">
        <ele>432</ele>
        <time>2018-06-10T11:34:18Z</time>
      </trkpt>
      <trkpt lat="44.67399" lon="5.03581">
        <ele>432</ele>
        <time>2018-06-10T11:34:20Z</time>
      </trkpt>
      <trkpt lat="44.67398" lon="5.03585">
        <ele>432</ele>
        <time>2018-06-10T11:34:22Z</time>
      </trkpt>
      <trkpt lat="44.67397" lon="5.03589">
        <ele>432</ele>
        <time>2018-06-10T11:34:25Z</time>
      </trkpt>
      <trkpt lat="44.67394" lon="5.03593">
        <ele>432</ele>
        <time>2018-06-10T11:34:27Z</time>
      </trkpt>
      <trkpt lat="44.67392" lon="5.03597">
        <ele>432</ele>
        <time>2018-06-10T11:34:29Z</time>
      </trkpt>
      <trkpt lat="44.6739" lon="5.03602">
        <ele>432</ele>
        <time>2018-06-10T11:34:31Z</time>
      </trkpt>
      <trkpt lat="44.67386" lon="5.03608">
        <ele>432</ele>
        <time>2018-06-10T11:34:33Z</time>
      </trkpt>
      <trkpt lat="44.67383" lon="5.03613">
        <ele>432</ele>
        <time>2018-06-10T11:34:35Z</time>
      </trkpt>
      <trkpt lat="44.67381" lon="5.03617">
        <ele>432</ele>
        <time>2018-06-10T11:34:37Z</time>
      </trkpt>
      <trkpt lat="44.67378" lon="5.03619">
        <ele>432</ele>
        <time>2018-06-10T11:34:39Z</time>
      </trkpt>
      <trkpt lat="44.67373" lon="5.03623">
        <ele>432</ele>
        <time>2018-06-10T11:34:41Z</time>
      </trkpt>
      <trkpt lat="44.6737" lon="5.03625">
        <ele>432</ele>
        <time>2018-06-10T11:34:43Z</time>
      </trkpt>
      <trkpt lat="44.67366" lon="5.03627">
        <ele>432</ele>
        <time>2018-06-10T11:34:45Z</time>
      </trkpt>
      <trkpt lat="44.6736" lon="5.03629">
        <ele>433</ele>
        <time>2018-06-10T11:34:47Z</time>
      </trkpt>
      <trkpt lat="44.67357" lon="5.0363">
        <ele>433</ele>
        <time>2018-06-10T11:34:49Z</time>
      </trkpt>
      <trkpt lat="44.67355" lon="5.03631">
        <ele>433</ele>
        <time>2018-06-10T11:34:51Z</time>
      </trkpt>
      <trkpt lat="44.67352" lon="5.03631">
        <ele>434</ele>
        <time>2018-06-10T11:34:53Z</time>
      </trkpt>
      <trkpt lat="44.67351" lon="5.03629">
        <ele>435</ele>
        <time>2018-06-10T11:34:55Z</time>
      </trkpt>
      <trkpt lat="44.6735" lon="5.03628">
        <ele>434</ele>
        <time>2018-06-10T11:34:57Z</time>
      </trkpt>
      <trkpt lat="44.67348" lon="5.03626">
        <ele>434</ele>
        <time>2018-06-10T11:34:59Z</time>
      </trkpt>
      <trkpt lat="44.67346" lon="5.03628">
        <ele>434</ele>
        <time>2018-06-10T11:35:01Z</time>
      </trkpt>
      <trkpt lat="44.67344" lon="5.03629">
        <ele>434</ele>
        <time>2018-06-10T11:35:03Z</time>
      </trkpt>
      <trkpt lat="44.67342" lon="5.03629">
        <ele>435</ele>
        <time>2018-06-10T11:35:05Z</time>
      </trkpt>
      <trkpt lat="44.6734" lon="5.03628">
        <ele>435</ele>
        <time>2018-06-10T11:35:07Z</time>
      </trkpt>
      <trkpt lat="44.67339" lon="5.03627">
        <ele>435</ele>
        <time>2018-06-10T11:35:09Z</time>
      </trkpt>
      <trkpt lat="44.67337" lon="5.03627">
        <ele>436</ele>
        <time>2018-06-10T11:35:11Z</time>
      </trkpt>
      <trkpt lat="44.67335" lon="5.03626">
        <ele>436</ele>
        <time>2018-06-10T11:35:13Z</time>
      </trkpt>
      <trkpt lat="44.67333" lon="5.03626">
        <ele>436</ele>
        <time>2018-06-10T11:35:15Z</time>
      </trkpt>
      <trkpt lat="44.6733" lon="5.03626">
        <ele>436</ele>
        <time>2018-06-10T11:35:17Z</time>
      </trkpt>
      <trkpt lat="44.67328" lon="5.03625">
        <ele>436</ele>
        <time>2018-06-10T11:35:19Z</time>
      </trkpt>
      <trkpt lat="44.67325" lon="5.03625">
        <ele>437</ele>
        <time>2018-06-10T11:35:21Z</time>
      </trkpt>
      <trkpt lat="44.67323" lon="5.03625">
        <ele>437</ele>
        <time>2018-06-10T11:35:23Z</time>
      </trkpt>
      <trkpt lat="44.67321" lon="5.03624">
        <ele>437</ele>
        <time>2018-06-10T11:35:25Z</time>
      </trkpt>
      <trkpt lat="44.67318" lon="5.03624">
        <ele>438</ele>
        <time>2018-06-10T11:35:27Z</time>
      </trkpt>
      <trkpt lat="44.67316" lon="5.03623">
        <ele>438</ele>
        <time>2018-06-10T11:35:29Z</time>
      </trkpt>
      <trkpt lat="44.67313" lon="5.03622">
        <ele>438</ele>
        <time>2018-06-10T11:35:32Z</time>
      </trkpt>
      <trkpt lat="44.6731" lon="5.03623">
        <ele>439</ele>
        <time>2018-06-10T11:35:34Z</time>
      </trkpt>
      <trkpt lat="44.67308" lon="5.03622">
        <ele>439</ele>
        <time>2018-06-10T11:35:36Z</time>
      </trkpt>
      <trkpt lat="44.67305" lon="5.03622">
        <ele>439</ele>
        <time>2018-06-10T11:35:38Z</time>
      </trkpt>
      <trkpt lat="44.67303" lon="5.03622">
        <ele>439</ele>
        <time>2018-06-10T11:35:40Z</time>
      </trkpt>
      <trkpt lat="44.673" lon="5.03622">
        <ele>439</ele>
        <time>2018-06-10T11:35:42Z</time>
      </trkpt>
      <trkpt lat="44.67297" lon="5.03622">
        <ele>439</ele>
        <time>2018-06-10T11:35:44Z</time>
      </trkpt>
      <trkpt lat="44.67295" lon="5.03622">
        <ele>440</ele>
        <time>2018-06-10T11:35:46Z</time>
      </trkpt>
      <trkpt lat="44.67292" lon="5.03621">
        <ele>440</ele>
        <time>2018-06-10T11:35:48Z</time>
      </trkpt>
      <trkpt lat="44.6729" lon="5.03621">
        <ele>440</ele>
        <time>2018-06-10T11:35:50Z</time>
      </trkpt>
      <trkpt lat="44.67287" lon="5.03621">
        <ele>440</ele>
        <time>2018-06-10T11:35:52Z</time>
      </trkpt>
      <trkpt lat="44.67284" lon="5.03621">
        <ele>441</ele>
        <time>2018-06-10T11:35:54Z</time>
      </trkpt>
      <trkpt lat="44.67281" lon="5.0362">
        <ele>441</ele>
        <time>2018-06-10T11:35:56Z</time>
      </trkpt>
      <trkpt lat="44.67279" lon="5.0362">
        <ele>441</ele>
        <time>2018-06-10T11:35:58Z</time>
      </trkpt>
      <trkpt lat="44.67276" lon="5.0362">
        <ele>441</ele>
        <time>2018-06-10T11:36:00Z</time>
      </trkpt>
      <trkpt lat="44.67273" lon="5.0362">
        <ele>442</ele>
        <time>2018-06-10T11:36:02Z</time>
      </trkpt>
      <trkpt lat="44.6727" lon="5.0362">
        <ele>442</ele>
        <time>2018-06-10T11:36:04Z</time>
      </trkpt>
      <trkpt lat="44.67268" lon="5.0362">
        <ele>442</ele>
        <time>2018-06-10T11:36:06Z</time>
      </trkpt>
      <trkpt lat="44.67265" lon="5.0362">
        <ele>442</ele>
        <time>2018-06-10T11:36:08Z</time>
      </trkpt>
      <trkpt lat="44.67263" lon="5.0362">
        <ele>442</ele>
        <time>2018-06-10T11:36:10Z</time>
      </trkpt>
      <trkpt lat="44.6726" lon="5.0362">
        <ele>443</ele>
        <time>2018-06-10T11:36:12Z</time>
      </trkpt>
      <trkpt lat="44.67257" lon="5.0362">
        <ele>443</ele>
        <time>2018-06-10T11:36:14Z</time>
      </trkpt>
      <trkpt lat="44.67255" lon="5.0362">
        <ele>443</ele>
        <time>2018-06-10T11:36:16Z</time>
      </trkpt>
      <trkpt lat="44.67253" lon="5.03621">
        <ele>444</ele>
        <time>2018-06-10T11:36:18Z</time>
      </trkpt>
      <trkpt lat="44.6725" lon="5.03621">
        <ele>444</ele>
        <time>2018-06-10T11:36:20Z</time>
      </trkpt>
      <trkpt lat="44.67248" lon="5.03621">
        <ele>444</ele>
        <time>2018-06-10T11:36:22Z</time>
      </trkpt>
      <trkpt lat="44.67246" lon="5.03622">
        <ele>444</ele>
        <time>2018-06-10T11:36:24Z</time>
      </trkpt>
      <trkpt lat="44.67244" lon="5.03622">
        <ele>445</ele>
        <time>2018-06-10T11:36:26Z</time>
      </trkpt>
      <trkpt lat="44.67242" lon="5.03623">
        <ele>445</ele>
        <time>2018-06-10T11:36:28Z</time>
      </trkpt>
      <trkpt lat="44.6724" lon="5.03624">
        <ele>445</ele>
        <time>2018-06-10T11:36:30Z</time>
      </trkpt>
      <trkpt lat="44.67237" lon="5.03624">
        <ele>446</ele>
        <time>2018-06-10T11:36:32Z</time>
      </trkpt>
      <trkpt lat="44.67235" lon="5.03625">
        <ele>446</ele>
        <time>2018-06-10T11:36:34Z</time>
      </trkpt>
      <trkpt lat="44.67233" lon="5.03626">
        <ele>446</ele>
        <time>2018-06-10T11:36:36Z</time>
      </trkpt>
      <trkpt lat="44.67231" lon="5.03627">
        <ele>446</ele>
        <time>2018-06-10T11:36:38Z</time>
      </trkpt>
      <trkpt lat="44.67229" lon="5.03627">
        <ele>446</ele>
        <time>2018-06-10T11:36:40Z</time>
      </trkpt>
      <trkpt lat="44.67226" lon="5.03628">
        <ele>447</ele>
        <time>2018-06-10T11:36:42Z</time>
      </trkpt>
      <trkpt lat="44.67225" lon="5.03628">
        <ele>447</ele>
        <time>2018-06-10T11:36:45Z</time>
      </trkpt>
      <trkpt lat="44.67224" lon="5.03628">
        <ele>447</ele>
        <time>2018-06-10T11:36:47Z</time>
      </trkpt>
      <trkpt lat="44.67223" lon="5.03629">
        <ele>447</ele>
        <time>2018-06-10T11:36:49Z</time>
      </trkpt>
      <trkpt lat="44.6722" lon="5.03629">
        <ele>448</ele>
        <time>2018-06-10T11:36:51Z</time>
      </trkpt>
      <trkpt lat="44.67219" lon="5.03629">
        <ele>448</ele>
        <time>2018-06-10T11:36:53Z</time>
      </trkpt>
      <trkpt lat="44.67217" lon="5.0363">
        <ele>448</ele>
        <time>2018-06-10T11:36:55Z</time>
      </trkpt>
      <trkpt lat="44.67215" lon="5.0363">
        <ele>449</ele>
        <time>2018-06-10T11:36:57Z</time>
      </trkpt>
      <trkpt lat="44.67214" lon="5.0363">
        <ele>449</ele>
        <time>2018-06-10T11:36:59Z</time>
      </trkpt>
      <trkpt lat="44.67212" lon="5.03631">
        <ele>449</ele>
        <time>2018-06-10T11:37:01Z</time>
      </trkpt>
      <trkpt lat="44.6721" lon="5.03631">
        <ele>449</ele>
        <time>2018-06-10T11:37:03Z</time>
      </trkpt>
      <trkpt lat="44.67208" lon="5.03632">
        <ele>449</ele>
        <time>2018-06-10T11:37:05Z</time>
      </trkpt>
      <trkpt lat="44.67206" lon="5.03632">
        <ele>449</ele>
        <time>2018-06-10T11:37:07Z</time>
      </trkpt>
      <trkpt lat="44.67204" lon="5.03633">
        <ele>450</ele>
        <time>2018-06-10T11:37:09Z</time>
      </trkpt>
      <trkpt lat="44.67202" lon="5.03634">
        <ele>450</ele>
        <time>2018-06-10T11:37:11Z</time>
      </trkpt>
      <trkpt lat="44.67201" lon="5.03635">
        <ele>450</ele>
        <time>2018-06-10T11:37:13Z</time>
      </trkpt>
      <trkpt lat="44.67199" lon="5.03636">
        <ele>450</ele>
        <time>2018-06-10T11:37:15Z</time>
      </trkpt>
      <trkpt lat="44.67197" lon="5.03637">
        <ele>451</ele>
        <time>2018-06-10T11:37:17Z</time>
      </trkpt>
      <trkpt lat="44.67196" lon="5.03639">
        <ele>451</ele>
        <time>2018-06-10T11:37:19Z</time>
      </trkpt>
      <trkpt lat="44.67195" lon="5.0364">
        <ele>451</ele>
        <time>2018-06-10T11:37:21Z</time>
      </trkpt>
      <trkpt lat="44.67193" lon="5.03641">
        <ele>451</ele>
        <time>2018-06-10T11:37:23Z</time>
      </trkpt>
      <trkpt lat="44.67192" lon="5.03642">
        <ele>452</ele>
        <time>2018-06-10T11:37:25Z</time>
      </trkpt>
      <trkpt lat="44.6719" lon="5.03642">
        <ele>452</ele>
        <time>2018-06-10T11:37:27Z</time>
      </trkpt>
      <trkpt lat="44.67188" lon="5.03643">
        <ele>452</ele>
        <time>2018-06-10T11:37:29Z</time>
      </trkpt>
      <trkpt lat="44.67186" lon="5.03643">
        <ele>453</ele>
        <time>2018-06-10T11:37:31Z</time>
      </trkpt>
      <trkpt lat="44.67183" lon="5.03644">
        <ele>453</ele>
        <time>2018-06-10T11:37:34Z</time>
      </trkpt>
      <trkpt lat="44.67181" lon="5.03645">
        <ele>453</ele>
        <time>2018-06-10T11:37:36Z</time>
      </trkpt>
      <trkpt lat="44.67179" lon="5.03645">
        <ele>453</ele>
        <time>2018-06-10T11:37:38Z</time>
      </trkpt>
      <trkpt lat="44.67178" lon="5.03646">
        <ele>454</ele>
        <time>2018-06-10T11:37:40Z</time>
      </trkpt>
      <trkpt lat="44.67176" lon="5.03647">
        <ele>454</ele>
        <time>2018-06-10T11:37:42Z</time>
      </trkpt>
      <trkpt lat="44.67173" lon="5.03647">
        <ele>454</ele>
        <time>2018-06-10T11:37:44Z</time>
      </trkpt>
      <trkpt lat="44.67171" lon="5.03648">
        <ele>454</ele>
        <time>2018-06-10T11:37:46Z</time>
      </trkpt>
      <trkpt lat="44.67169" lon="5.03648">
        <ele>454</ele>
        <time>2018-06-10T11:37:48Z</time>
      </trkpt>
      <trkpt lat="44.67168" lon="5.0365">
        <ele>455</ele>
        <time>2018-06-10T11:37:50Z</time>
      </trkpt>
      <trkpt lat="44.67166" lon="5.0365">
        <ele>455</ele>
        <time>2018-06-10T11:37:52Z</time>
      </trkpt>
      <trkpt lat="44.67164" lon="5.03651">
        <ele>455</ele>
        <time>2018-06-10T11:37:54Z</time>
      </trkpt>
      <trkpt lat="44.67163" lon="5.03652">
        <ele>455</ele>
        <time>2018-06-10T11:37:56Z</time>
      </trkpt>
      <trkpt lat="44.67159" lon="5.03652">
        <ele>456</ele>
        <time>2018-06-10T11:37:58Z</time>
      </trkpt>
      <trkpt lat="44.67158" lon="5.03652">
        <ele>456</ele>
        <time>2018-06-10T11:38:00Z</time>
      </trkpt>
      <trkpt lat="44.67157" lon="5.03653">
        <ele>456</ele>
        <time>2018-06-10T11:38:02Z</time>
      </trkpt>
      <trkpt lat="44.67156" lon="5.03654">
        <ele>456</ele>
        <time>2018-06-10T11:38:04Z</time>
      </trkpt>
      <trkpt lat="44.67154" lon="5.03654">
        <ele>457</ele>
        <time>2018-06-10T11:38:06Z</time>
      </trkpt>
      <trkpt lat="44.67151" lon="5.03655">
        <ele>457</ele>
        <time>2018-06-10T11:38:08Z</time>
      </trkpt>
      <trkpt lat="44.6715" lon="5.03656">
        <ele>457</ele>
        <time>2018-06-10T11:38:10Z</time>
      </trkpt>
      <trkpt lat="44.67149" lon="5.03657">
        <ele>457</ele>
        <time>2018-06-10T11:38:12Z</time>
      </trkpt>
      <trkpt lat="44.67148" lon="5.03658">
        <ele>457</ele>
        <time>2018-06-10T11:38:14Z</time>
      </trkpt>
      <trkpt lat="44.67147" lon="5.03659">
        <ele>457</ele>
        <time>2018-06-10T11:38:16Z</time>
      </trkpt>
      <trkpt lat="44.67146" lon="5.0366">
        <ele>457</ele>
        <time>2018-06-10T11:38:18Z</time>
      </trkpt>
      <trkpt lat="44.67145" lon="5.03662">
        <ele>458</ele>
        <time>2018-06-10T11:38:20Z</time>
      </trkpt>
      <trkpt lat="44.67144" lon="5.03663">
        <ele>458</ele>
        <time>2018-06-10T11:38:22Z</time>
      </trkpt>
      <trkpt lat="44.67142" lon="5.03664">
        <ele>458</ele>
        <time>2018-06-10T11:38:24Z</time>
      </trkpt>
      <trkpt lat="44.67142" lon="5.03663">
        <ele>458</ele>
        <time>2018-06-10T11:38:26Z</time>
      </trkpt>
      <trkpt lat="44.6714" lon="5.03665">
        <ele>458</ele>
        <time>2018-06-10T11:38:28Z</time>
      </trkpt>
      <trkpt lat="44.67139" lon="5.03666">
        <ele>458</ele>
        <time>2018-06-10T11:38:30Z</time>
      </trkpt>
      <trkpt lat="44.67137" lon="5.03667">
        <ele>458</ele>
        <time>2018-06-10T11:38:32Z</time>
      </trkpt>
      <trkpt lat="44.67136" lon="5.03667">
        <ele>459</ele>
        <time>2018-06-10T11:38:34Z</time>
      </trkpt>
      <trkpt lat="44.67135" lon="5.03668">
        <ele>459</ele>
        <time>2018-06-10T11:38:36Z</time>
      </trkpt>
      <trkpt lat="44.67134" lon="5.03669">
        <ele>459</ele>
        <time>2018-06-10T11:38:39Z</time>
      </trkpt>
      <trkpt lat="44.67133" lon="5.03669">
        <ele>459</ele>
        <time>2018-06-10T11:38:41Z</time>
      </trkpt>
      <trkpt lat="44.67132" lon="5.0367">
        <ele>459</ele>
        <time>2018-06-10T11:38:43Z</time>
      </trkpt>
      <trkpt lat="44.6713" lon="5.03671">
        <ele>460</ele>
        <time>2018-06-10T11:38:45Z</time>
      </trkpt>
      <trkpt lat="44.67129" lon="5.03671">
        <ele>460</ele>
        <time>2018-06-10T11:38:47Z</time>
      </trkpt>
      <trkpt lat="44.67127" lon="5.03672">
        <ele>460</ele>
        <time>2018-06-10T11:38:49Z</time>
      </trkpt>
      <trkpt lat="44.67126" lon="5.03674">
        <ele>460</ele>
        <time>2018-06-10T11:38:51Z</time>
      </trkpt>
      <trkpt lat="44.67124" lon="5.03674">
        <ele>460</ele>
        <time>2018-06-10T11:38:53Z</time>
      </trkpt>
      <trkpt lat="44.67122" lon="5.03675">
        <ele>461</ele>
        <time>2018-06-10T11:38:55Z</time>
      </trkpt>
      <trkpt lat="44.6712" lon="5.03677">
        <ele>461</ele>
        <time>2018-06-10T11:38:57Z</time>
      </trkpt>
      <trkpt lat="44.67118" lon="5.03678">
        <ele>461</ele>
        <time>2018-06-10T11:38:59Z</time>
      </trkpt>
      <trkpt lat="44.67116" lon="5.03679">
        <ele>461</ele>
        <time>2018-06-10T11:39:01Z</time>
      </trkpt>
      <trkpt lat="44.67114" lon="5.0368">
        <ele>462</ele>
        <time>2018-06-10T11:39:03Z</time>
      </trkpt>
      <trkpt lat="44.67113" lon="5.03681">
        <ele>462</ele>
        <time>2018-06-10T11:39:05Z</time>
      </trkpt>
      <trkpt lat="44.67111" lon="5.03682">
        <ele>462</ele>
        <time>2018-06-10T11:39:07Z</time>
      </trkpt>
      <trkpt lat="44.67109" lon="5.03683">
        <ele>462</ele>
        <time>2018-06-10T11:39:09Z</time>
      </trkpt>
      <trkpt lat="44.67107" lon="5.03684">
        <ele>463</ele>
        <time>2018-06-10T11:39:11Z</time>
      </trkpt>
      <trkpt lat="44.67104" lon="5.03685">
        <ele>463</ele>
        <time>2018-06-10T11:39:13Z</time>
      </trkpt>
      <trkpt lat="44.67102" lon="5.03686">
        <ele>463</ele>
        <time>2018-06-10T11:39:15Z</time>
      </trkpt>
      <trkpt lat="44.671" lon="5.03687">
        <ele>463</ele>
        <time>2018-06-10T11:39:17Z</time>
      </trkpt>
      <trkpt lat="44.67097" lon="5.03688">
        <ele>464</ele>
        <time>2018-06-10T11:39:19Z</time>
      </trkpt>
      <trkpt lat="44.67095" lon="5.03689">
        <ele>464</ele>
        <time>2018-06-10T11:39:21Z</time>
      </trkpt>
      <trkpt lat="44.67094" lon="5.03691">
        <ele>464</ele>
        <time>2018-06-10T11:39:23Z</time>
      </trkpt>
      <trkpt lat="44.67092" lon="5.03692">
        <ele>464</ele>
        <time>2018-06-10T11:39:25Z</time>
      </trkpt>
      <trkpt lat="44.67091" lon="5.03693">
        <ele>465</ele>
        <time>2018-06-10T11:39:27Z</time>
      </trkpt>
      <trkpt lat="44.67089" lon="5.03694">
        <ele>465</ele>
        <time>2018-06-10T11:39:29Z</time>
      </trkpt>
      <trkpt lat="44.67087" lon="5.03696">
        <ele>465</ele>
        <time>2018-06-10T11:39:31Z</time>
      </trkpt>
      <trkpt lat="44.67086" lon="5.03697">
        <ele>465</ele>
        <time>2018-06-10T11:39:33Z</time>
      </trkpt>
      <trkpt lat="44.67085" lon="5.03699">
        <ele>465</ele>
        <time>2018-06-10T11:39:35Z</time>
      </trkpt>
      <trkpt lat="44.67084" lon="5.03701">
        <ele>466</ele>
        <time>2018-06-10T11:39:37Z</time>
      </trkpt>
      <trkpt lat="44.67082" lon="5.03704">
        <ele>466</ele>
        <time>2018-06-10T11:39:39Z</time>
      </trkpt>
      <trkpt lat="44.67081" lon="5.03706">
        <ele>466</ele>
        <time>2018-06-10T11:39:41Z</time>
      </trkpt>
      <trkpt lat="44.6708" lon="5.03708">
        <ele>466</ele>
        <time>2018-06-10T11:39:43Z</time>
      </trkpt>
      <trkpt lat="44.67079" lon="5.03712">
        <ele>467</ele>
        <time>2018-06-10T11:39:46Z</time>
      </trkpt>
      <trkpt lat="44.6708" lon="5.03714">
        <ele>467</ele>
        <time>2018-06-10T11:39:48Z</time>
      </trkpt>
      <trkpt lat="44.6708" lon="5.03716">
        <ele>467</ele>
        <time>2018-06-10T11:39:50Z</time>
      </trkpt>
      <trkpt lat="44.6708" lon="5.03718">
        <ele>467</ele>
        <time>2018-06-10T11:39:52Z</time>
      </trkpt>
      <trkpt lat="44.6708" lon="5.03721">
        <ele>467</ele>
        <time>2018-06-10T11:39:54Z</time>
      </trkpt>
      <trkpt lat="44.6708" lon="5.03723">
        <ele>467</ele>
        <time>2018-06-10T11:39:56Z</time>
      </trkpt>
      <trkpt lat="44.67081" lon="5.03725">
        <ele>468</ele>
        <time>2018-06-10T11:39:58Z</time>
      </trkpt>
      <trkpt lat="44.67081" lon="5.03726">
        <ele>468</ele>
        <time>2018-06-10T11:40:00Z</time>
      </trkpt>
      <trkpt lat="44.67082" lon="5.03728">
        <ele>468</ele>
        <time>2018-06-10T11:40:02Z</time>
      </trkpt>
      <trkpt lat="44.67083" lon="5.0373">
        <ele>468</ele>
        <time>2018-06-10T11:40:04Z</time>
      </trkpt>
      <trkpt lat="44.67084" lon="5.03731">
        <ele>468</ele>
        <time>2018-06-10T11:40:06Z</time>
      </trkpt>
      <trkpt lat="44.67085" lon="5.03734">
        <ele>469</ele>
        <time>2018-06-10T11:40:08Z</time>
      </trkpt>
      <trkpt lat="44.67085" lon="5.03736">
        <ele>469</ele>
        <time>2018-06-10T11:40:10Z</time>
      </trkpt>
      <trkpt lat="44.67086" lon="5.03738">
        <ele>469</ele>
        <time>2018-06-10T11:40:12Z</time>
      </trkpt>
      <trkpt lat="44.67086" lon="5.03739">
        <ele>469</ele>
        <time>2018-06-10T11:40:14Z</time>
      </trkpt>
      <trkpt lat="44.67087" lon="5.03743">
        <ele>469</ele>
        <time>2018-06-10T11:40:16Z</time>
      </trkpt>
      <trkpt lat="44.67088" lon="5.03746">
        <ele>469</ele>
        <time>2018-06-10T11:40:18Z</time>
      </trkpt>
      <trkpt lat="44.67088" lon="5.03749">
        <ele>470</ele>
        <time>2018-06-10T11:40:20Z</time>
      </trkpt>
      <trkpt lat="44.6709" lon="5.03752">
        <ele>469</ele>
        <time>2018-06-10T11:40:22Z</time>
      </trkpt>
      <trkpt lat="44.6709" lon="5.03755">
        <ele>470</ele>
        <time>2018-06-10T11:40:24Z</time>
      </trkpt>
      <trkpt lat="44.67092" lon="5.03758">
        <ele>470</ele>
        <time>2018-06-10T11:40:26Z</time>
      </trkpt>
      <trkpt lat="44.67093" lon="5.03761">
        <ele>470</ele>
        <time>2018-06-10T11:40:28Z</time>
      </trkpt>
      <trkpt lat="44.67094" lon="5.03764">
        <ele>470</ele>
        <time>2018-06-10T11:40:30Z</time>
      </trkpt>
      <trkpt lat="44.67095" lon="5.03767">
        <ele>470</ele>
        <time>2018-06-10T11:40:32Z</time>
      </trkpt>
      <trkpt lat="44.67096" lon="5.0377">
        <ele>470</ele>
        <time>2018-06-10T11:40:34Z</time>
      </trkpt>
      <trkpt lat="44.67097" lon="5.03774">
        <ele>470</ele>
        <time>2018-06-10T11:40:36Z</time>
      </trkpt>
      <trkpt lat="44.67098" lon="5.03777">
        <ele>470</ele>
        <time>2018-06-10T11:40:38Z</time>
      </trkpt>
      <trkpt lat="44.671" lon="5.0378">
        <ele>470</ele>
        <time>2018-06-10T11:40:40Z</time>
      </trkpt>
      <trkpt lat="44.67101" lon="5.03784">
        <ele>471</ele>
        <time>2018-06-10T11:40:42Z</time>
      </trkpt>
      <trkpt lat="44.67104" lon="5.03788">
        <ele>470</ele>
        <time>2018-06-10T11:40:44Z</time>
      </trkpt>
      <trkpt lat="44.67106" lon="5.03793">
        <ele>470</ele>
        <time>2018-06-10T11:40:46Z</time>
      </trkpt>
      <trkpt lat="44.67107" lon="5.03797">
        <ele>470</ele>
        <time>2018-06-10T11:40:48Z</time>
      </trkpt>
      <trkpt lat="44.67108" lon="5.03802">
        <ele>470</ele>
        <time>2018-06-10T11:40:50Z</time>
      </trkpt>
      <trkpt lat="44.67108" lon="5.03806">
        <ele>470</ele>
        <time>2018-06-10T11:40:52Z</time>
      </trkpt>
      <trkpt lat="44.67108" lon="5.0381">
        <ele>470</ele>
        <time>2018-06-10T11:40:54Z</time>
      </trkpt>
      <trkpt lat="44.67107" lon="5.03814">
        <ele>470</ele>
        <time>2018-06-10T11:40:56Z</time>
      </trkpt>
      <trkpt lat="44.67104" lon="5.03818">
        <ele>471</ele>
        <time>2018-06-10T11:40:58Z</time>
      </trkpt>
      <trkpt lat="44.67102" lon="5.0382">
        <ele>471</ele>
        <time>2018-06-10T11:41:00Z</time>
      </trkpt>
      <trkpt lat="44.671" lon="5.03822">
        <ele>471</ele>
        <time>2018-06-10T11:41:02Z</time>
      </trkpt>
      <trkpt lat="44.67098" lon="5.03825">
        <ele>472</ele>
        <time>2018-06-10T11:41:04Z</time>
      </trkpt>
      <trkpt lat="44.67096" lon="5.03828">
        <ele>472</ele>
        <time>2018-06-10T11:41:07Z</time>
      </trkpt>
      <trkpt lat="44.67094" lon="5.0383">
        <ele>473</ele>
        <time>2018-06-10T11:41:09Z</time>
      </trkpt>
      <trkpt lat="44.67093" lon="5.03832">
        <ele>473</ele>
        <time>2018-06-10T11:41:11Z</time>
      </trkpt>
      <trkpt lat="44.67092" lon="5.03834">
        <ele>473</ele>
        <time>2018-06-10T11:41:13Z</time>
      </trkpt>
      <trkpt lat="44.67091" lon="5.03836">
        <ele>474</ele>
        <time>2018-06-10T11:41:15Z</time>
      </trkpt>
      <trkpt lat="44.67089" lon="5.03838">
        <ele>474</ele>
        <time>2018-06-10T11:41:17Z</time>
      </trkpt>
      <trkpt lat="44.67088" lon="5.0384">
        <ele>474</ele>
        <time>2018-06-10T11:41:19Z</time>
      </trkpt>
      <trkpt lat="44.67085" lon="5.03843">
        <ele>474</ele>
        <time>2018-06-10T11:41:21Z</time>
      </trkpt>
      <trkpt lat="44.67083" lon="5.03846">
        <ele>474</ele>
        <time>2018-06-10T11:41:23Z</time>
      </trkpt>
      <trkpt lat="44.67079" lon="5.0385">
        <ele>474</ele>
        <time>2018-06-10T11:41:25Z</time>
      </trkpt>
      <trkpt lat="44.67075" lon="5.03853">
        <ele>475</ele>
        <time>2018-06-10T11:41:27Z</time>
      </trkpt>
      <trkpt lat="44.67072" lon="5.03856">
        <ele>474</ele>
        <time>2018-06-10T11:41:29Z</time>
      </trkpt>
      <trkpt lat="44.67068" lon="5.03859">
        <ele>474</ele>
        <time>2018-06-10T11:41:31Z</time>
      </trkpt>
      <trkpt lat="44.67065" lon="5.03862">
        <ele>474</ele>
        <time>2018-06-10T11:41:33Z</time>
      </trkpt>
      <trkpt lat="44.67062" lon="5.03867">
        <ele>474</ele>
        <time>2018-06-10T11:41:35Z</time>
      </trkpt>
      <trkpt lat="44.67059" lon="5.03872">
        <ele>474</ele>
        <time>2018-06-10T11:41:37Z</time>
      </trkpt>
      <trkpt lat="44.67057" lon="5.03876">
        <ele>474</ele>
        <time>2018-06-10T11:41:39Z</time>
      </trkpt>
      <trkpt lat="44.67055" lon="5.0388">
        <ele>475</ele>
        <time>2018-06-10T11:41:41Z</time>
      </trkpt>
      <trkpt lat="44.67053" lon="5.03883">
        <ele>475</ele>
        <time>2018-06-10T11:41:43Z</time>
      </trkpt>
      <trkpt lat="44.67053" lon="5.03887">
        <ele>475</ele>
        <time>2018-06-10T11:41:45Z</time>
      </trkpt>
      <trkpt lat="44.67052" lon="5.0389">
        <ele>475</ele>
        <time>2018-06-10T11:41:47Z</time>
      </trkpt>
      <trkpt lat="44.67051" lon="5.03894">
        <ele>476</ele>
        <time>2018-06-10T11:41:49Z</time>
      </trkpt>
      <trkpt lat="44.67051" lon="5.03897">
        <ele>476</ele>
        <time>2018-06-10T11:41:51Z</time>
      </trkpt>
      <trkpt lat="44.67051" lon="5.039">
        <ele>476</ele>
        <time>2018-06-10T11:41:53Z</time>
      </trkpt>
      <trkpt lat="44.67052" lon="5.03902">
        <ele>476</ele>
        <time>2018-06-10T11:41:55Z</time>
      </trkpt>
      <trkpt lat="44.67054" lon="5.03905">
        <ele>476</ele>
        <time>2018-06-10T11:41:57Z</time>
      </trkpt>
      <trkpt lat="44.67055" lon="5.03908">
        <ele>476</ele>
        <time>2018-06-10T11:41:59Z</time>
      </trkpt>
      <trkpt lat="44.67057" lon="5.03909">
        <ele>477</ele>
        <time>2018-06-10T11:42:01Z</time>
      </trkpt>
      <trkpt lat="44.67059" lon="5.0391">
        <ele>477</ele>
        <time>2018-06-10T11:42:03Z</time>
      </trkpt>
      <trkpt lat="44.67062" lon="5.0391">
        <ele>477</ele>
        <time>2018-06-10T11:42:05Z</time>
      </trkpt>
      <trkpt lat="44.67064" lon="5.03911">
        <ele>477</ele>
        <time>2018-06-10T11:42:07Z</time>
      </trkpt>
      <trkpt lat="44.67066" lon="5.03912">
        <ele>477</ele>
        <time>2018-06-10T11:42:09Z</time>
      </trkpt>
      <trkpt lat="44.67068" lon="5.03913">
        <ele>477</ele>
        <time>2018-06-10T11:42:11Z</time>
      </trkpt>
      <trkpt lat="44.67072" lon="5.03915">
        <ele>477</ele>
        <time>2018-06-10T11:42:14Z</time>
      </trkpt>
      <trkpt lat="44.67074" lon="5.03916">
        <ele>478</ele>
        <time>2018-06-10T11:42:16Z</time>
      </trkpt>
      <trkpt lat="44.67076" lon="5.03916">
        <ele>478</ele>
        <time>2018-06-10T11:42:18Z</time>
      </trkpt>
      <trkpt lat="44.67078" lon="5.03917">
        <ele>479</ele>
        <time>2018-06-10T11:42:20Z</time>
      </trkpt>
      <trkpt lat="44.6708" lon="5.03919">
        <ele>479</ele>
        <time>2018-06-10T11:42:22Z</time>
      </trkpt>
      <trkpt lat="44.67083" lon="5.03921">
        <ele>479</ele>
        <time>2018-06-10T11:42:24Z</time>
      </trkpt>
      <trkpt lat="44.67084" lon="5.03924">
        <ele>480</ele>
        <time>2018-06-10T11:42:26Z</time>
      </trkpt>
      <trkpt lat="44.67085" lon="5.03926">
        <ele>479</ele>
        <time>2018-06-10T11:42:28Z</time>
      </trkpt>
      <trkpt lat="44.67087" lon="5.03928">
        <ele>480</ele>
        <time>2018-06-10T11:42:30Z</time>
      </trkpt>
      <trkpt lat="44.67088" lon="5.0393">
        <ele>480</ele>
        <time>2018-06-10T11:42:32Z</time>
      </trkpt>
      <trkpt lat="44.67087" lon="5.03933">
        <ele>480</ele>
        <time>2018-06-10T11:42:34Z</time>
      </trkpt>
      <trkpt lat="44.67085" lon="5.03935">
        <ele>480</ele>
        <time>2018-06-10T11:42:36Z</time>
      </trkpt>
      <trkpt lat="44.67084" lon="5.03937">
        <ele>480</ele>
        <time>2018-06-10T11:42:38Z</time>
      </trkpt>
      <trkpt lat="44.67083" lon="5.03938">
        <ele>481</ele>
        <time>2018-06-10T11:42:40Z</time>
      </trkpt>
      <trkpt lat="44.67082" lon="5.03938">
        <ele>481</ele>
        <time>2018-06-10T11:42:42Z</time>
      </trkpt>
      <trkpt lat="44.67082" lon="5.03937">
        <ele>481</ele>
        <time>2018-06-10T11:42:44Z</time>
      </trkpt>
      <trkpt lat="44.67081" lon="5.03938">
        <ele>481</ele>
        <time>2018-06-10T11:42:46Z</time>
      </trkpt>
      <trkpt lat="44.67079" lon="5.03939">
        <ele>481</ele>
        <time>2018-06-10T11:42:48Z</time>
      </trkpt>
      <trkpt lat="44.67078" lon="5.03941">
        <ele>482</ele>
        <time>2018-06-10T11:42:50Z</time>
      </trkpt>
      <trkpt lat="44.67077" lon="5.03943">
        <ele>482</ele>
        <time>2018-06-10T11:42:52Z</time>
      </trkpt>
      <trkpt lat="44.67075" lon="5.03945">
        <ele>482</ele>
        <time>2018-06-10T11:42:54Z</time>
      </trkpt>
      <trkpt lat="44.67074" lon="5.03947">
        <ele>482</ele>
        <time>2018-06-10T11:42:56Z</time>
      </trkpt>
      <trkpt lat="44.67072" lon="5.03949">
        <ele>482</ele>
        <time>2018-06-10T11:42:58Z</time>
      </trkpt>
      <trkpt lat="44.67071" lon="5.03951">
        <ele>482</ele>
        <time>2018-06-10T11:43:00Z</time>
      </trkpt>
      <trkpt lat="44.6707" lon="5.03953">
        <ele>483</ele>
        <time>2018-06-10T11:43:02Z</time>
      </trkpt>
      <trkpt lat="44.67069" lon="5.03956">
        <ele>483</ele>
        <time>2018-06-10T11:43:04Z</time>
      </trkpt>
      <trkpt lat="44.67067" lon="5.03957">
        <ele>483</ele>
        <time>2018-06-10T11:43:06Z</time>
      </trkpt>
      <trkpt lat="44.67065" lon="5.03959">
        <ele>483</ele>
        <time>2018-06-10T11:43:08Z</time>
      </trkpt>
      <trkpt lat="44.67063" lon="5.03961">
        <ele>483</ele>
        <time>2018-06-10T11:43:11Z</time>
      </trkpt>
      <trkpt lat="44.67061" lon="5.03963">
        <ele>483</ele>
        <time>2018-06-10T11:43:13Z</time>
      </trkpt>
      <trkpt lat="44.67059" lon="5.03964">
        <ele>484</ele>
        <time>2018-06-10T11:43:15Z</time>
      </trkpt>
      <trkpt lat="44.67058" lon="5.03966">
        <ele>484</ele>
        <time>2018-06-10T11:43:17Z</time>
      </trkpt>
      <trkpt lat="44.67057" lon="5.03967">
        <ele>484</ele>
        <time>2018-06-10T11:43:19Z</time>
      </trkpt>
      <trkpt lat="44.67055" lon="5.03968">
        <ele>484</ele>
        <time>2018-06-10T11:43:21Z</time>
      </trkpt>
      <trkpt lat="44.67053" lon="5.03969">
        <ele>484</ele>
        <time>2018-06-10T11:43:23Z</time>
      </trkpt>
      <trkpt lat="44.67052" lon="5.03969">
        <ele>484</ele>
        <time>2018-06-10T11:43:25Z</time>
      </trkpt>
      <trkpt lat="44.6705" lon="5.0397">
        <ele>484</ele>
        <time>2018-06-10T11:43:27Z</time>
      </trkpt>
      <trkpt lat="44.67049" lon="5.0397">
        <ele>484</ele>
        <time>2018-06-10T11:43:29Z</time>
      </trkpt>
      <trkpt lat="44.67047" lon="5.0397">
        <ele>485</ele>
        <time>2018-06-10T11:43:31Z</time>
      </trkpt>
      <trkpt lat="44.67045" lon="5.03971">
        <ele>485</ele>
        <time>2018-06-10T11:43:33Z</time>
      </trkpt>
      <trkpt lat="44.67043" lon="5.03972">
        <ele>485</ele>
        <time>2018-06-10T11:43:35Z</time>
      </trkpt>
      <trkpt lat="44.67041" lon="5.03973">
        <ele>485</ele>
        <time>2018-06-10T11:43:37Z</time>
      </trkpt>
      <trkpt lat="44.67039" lon="5.03973">
        <ele>486</ele>
        <time>2018-06-10T11:43:39Z</time>
      </trkpt>
      <trkpt lat="44.67037" lon="5.03973">
        <ele>486</ele>
        <time>2018-06-10T11:43:41Z</time>
      </trkpt>
      <trkpt lat="44.67035" lon="5.03974">
        <ele>487</ele>
        <time>2018-06-10T11:43:43Z</time>
      </trkpt>
      <trkpt lat="44.67033" lon="5.03974">
        <ele>487</ele>
        <time>2018-06-10T11:43:45Z</time>
      </trkpt>
      <trkpt lat="44.67031" lon="5.03975">
        <ele>487</ele>
        <time>2018-06-10T11:43:47Z</time>
      </trkpt>
      <trkpt lat="44.6703" lon="5.03975">
        <ele>488</ele>
        <time>2018-06-10T11:43:49Z</time>
      </trkpt>
      <trkpt lat="44.67028" lon="5.03976">
        <ele>488</ele>
        <time>2018-06-10T11:43:51Z</time>
      </trkpt>
      <trkpt lat="44.67027" lon="5.03978">
        <ele>488</ele>
        <time>2018-06-10T11:43:53Z</time>
      </trkpt>
      <trkpt lat="44.67025" lon="5.0398">
        <ele>488</ele>
        <time>2018-06-10T11:43:55Z</time>
      </trkpt>
      <trkpt lat="44.67025" lon="5.03982">
        <ele>489</ele>
        <time>2018-06-10T11:43:57Z</time>
      </trkpt>
      <trkpt lat="44.67025" lon="5.03984">
        <ele>489</ele>
        <time>2018-06-10T11:43:59Z</time>
      </trkpt>
      <trkpt lat="44.67025" lon="5.03987">
        <ele>489</ele>
        <time>2018-06-10T11:44:02Z</time>
      </trkpt>
      <trkpt lat="44.67025" lon="5.0399">
        <ele>490</ele>
        <time>2018-06-10T11:44:04Z</time>
      </trkpt>
      <trkpt lat="44.67026" lon="5.03992">
        <ele>490</ele>
        <time>2018-06-10T11:44:06Z</time>
      </trkpt>
      <trkpt lat="44.67027" lon="5.03994">
        <ele>490</ele>
        <time>2018-06-10T11:44:08Z</time>
      </trkpt>
      <trkpt lat="44.67028" lon="5.03996">
        <ele>490</ele>
        <time>2018-06-10T11:44:10Z</time>
      </trkpt>
      <trkpt lat="44.67028" lon="5.03998">
        <ele>490</ele>
        <time>2018-06-10T11:44:12Z</time>
      </trkpt>
      <trkpt lat="44.67028" lon="5.04001">
        <ele>491</ele>
        <time>2018-06-10T11:44:14Z</time>
      </trkpt>
      <trkpt lat="44.67027" lon="5.04003">
        <ele>491</ele>
        <time>2018-06-10T11:44:16Z</time>
      </trkpt>
      <trkpt lat="44.67028" lon="5.04006">
        <ele>491</ele>
        <time>2018-06-10T11:44:18Z</time>
      </trkpt>
      <trkpt lat="44.67028" lon="5.04009">
        <ele>491</ele>
        <time>2018-06-10T11:44:20Z</time>
      </trkpt>
      <trkpt lat="44.67028" lon="5.04011">
        <ele>492</ele>
        <time>2018-06-10T11:44:22Z</time>
      </trkpt>
      <trkpt lat="44.67027" lon="5.04014">
        <ele>491</ele>
        <time>2018-06-10T11:44:24Z</time>
      </trkpt>
      <trkpt lat="44.67026" lon="5.04016">
        <ele>492</ele>
        <time>2018-06-10T11:44:26Z</time>
      </trkpt>
      <trkpt lat="44.67025" lon="5.04018">
        <ele>492</ele>
        <time>2018-06-10T11:44:28Z</time>
      </trkpt>
      <trkpt lat="44.67025" lon="5.0402">
        <ele>492</ele>
        <time>2018-06-10T11:44:30Z</time>
      </trkpt>
      <trkpt lat="44.67024" lon="5.04023">
        <ele>492</ele>
        <time>2018-06-10T11:44:32Z</time>
      </trkpt>
      <trkpt lat="44.67023" lon="5.04024">
        <ele>493</ele>
        <time>2018-06-10T11:44:34Z</time>
      </trkpt>
      <trkpt lat="44.67023" lon="5.04027">
        <ele>493</ele>
        <time>2018-06-10T11:44:36Z</time>
      </trkpt>
      <trkpt lat="44.67022" lon="5.04029">
        <ele>493</ele>
        <time>2018-06-10T11:44:38Z</time>
      </trkpt>
      <trkpt lat="44.67022" lon="5.04031">
        <ele>493</ele>
        <time>2018-06-10T11:44:40Z</time>
      </trkpt>
      <trkpt lat="44.67022" lon="5.04033">
        <ele>493</ele>
        <time>2018-06-10T11:44:42Z</time>
      </trkpt>
      <trkpt lat="44.67022" lon="5.04036">
        <ele>493</ele>
        <time>2018-06-10T11:44:44Z</time>
      </trkpt>
      <trkpt lat="44.67021" lon="5.04037">
        <ele>494</ele>
        <time>2018-06-10T11:44:46Z</time>
      </trkpt>
      <trkpt lat="44.67019" lon="5.0404">
        <ele>494</ele>
        <time>2018-06-10T11:44:48Z</time>
      </trkpt>
      <trkpt lat="44.67018" lon="5.04042">
        <ele>494</ele>
        <time>2018-06-10T11:44:50Z</time>
      </trkpt>
      <trkpt lat="44.67019" lon="5.04046">
        <ele>494</ele>
        <time>2018-06-10T11:44:53Z</time>
      </trkpt>
      <trkpt lat="44.67019" lon="5.04048">
        <ele>494</ele>
        <time>2018-06-10T11:44:55Z</time>
      </trkpt>
      <trkpt lat="44.67019" lon="5.0405">
        <ele>495</ele>
        <time>2018-06-10T11:44:57Z</time>
      </trkpt>
      <trkpt lat="44.6702" lon="5.04052">
        <ele>495</ele>
        <time>2018-06-10T11:44:59Z</time>
      </trkpt>
      <trkpt lat="44.6702" lon="5.04054">
        <ele>496</ele>
        <time>2018-06-10T11:45:01Z</time>
      </trkpt>
      <trkpt lat="44.67019" lon="5.04056">
        <ele>495</ele>
        <time>2018-06-10T11:45:03Z</time>
      </trkpt>
      <trkpt lat="44.67018" lon="5.04058">
        <ele>496</ele>
        <time>2018-06-10T11:45:05Z</time>
      </trkpt>
      <trkpt lat="44.67016" lon="5.04059">
        <ele>496</ele>
        <time>2018-06-10T11:45:07Z</time>
      </trkpt>
      <trkpt lat="44.67016" lon="5.04061">
        <ele>496</ele>
        <time>2018-06-10T11:45:09Z</time>
      </trkpt>
      <trkpt lat="44.67016" lon="5.04062">
        <ele>496</ele>
        <time>2018-06-10T11:45:11Z</time>
      </trkpt>
      <trkpt lat="44.67014" lon="5.04063">
        <ele>496</ele>
        <time>2018-06-10T11:45:13Z</time>
      </trkpt>
      <trkpt lat="44.67012" lon="5.04064">
        <ele>497</ele>
        <time>2018-06-10T11:45:15Z</time>
      </trkpt>
      <trkpt lat="44.67011" lon="5.04066">
        <ele>497</ele>
        <time>2018-06-10T11:45:17Z</time>
      </trkpt>
      <trkpt lat="44.67009" lon="5.04067">
        <ele>497</ele>
        <time>2018-06-10T11:45:19Z</time>
      </trkpt>
      <trkpt lat="44.67008" lon="5.04069">
        <ele>498</ele>
        <time>2018-06-10T11:45:21Z</time>
      </trkpt>
      <trkpt lat="44.67007" lon="5.0407">
        <ele>498</ele>
        <time>2018-06-10T11:45:23Z</time>
      </trkpt>
      <trkpt lat="44.67006" lon="5.04072">
        <ele>498</ele>
        <time>2018-06-10T11:45:25Z</time>
      </trkpt>
      <trkpt lat="44.67006" lon="5.04074">
        <ele>499</ele>
        <time>2018-06-10T11:45:27Z</time>
      </trkpt>
      <trkpt lat="44.67004" lon="5.04075">
        <ele>499</ele>
        <time>2018-06-10T11:45:29Z</time>
      </trkpt>
      <trkpt lat="44.67002" lon="5.04076">
        <ele>500</ele>
        <time>2018-06-10T11:45:31Z</time>
      </trkpt>
      <trkpt lat="44.67" lon="5.04077">
        <ele>499</ele>
        <time>2018-06-10T11:45:33Z</time>
      </trkpt>
      <trkpt lat="44.66997" lon="5.04079">
        <ele>500</ele>
        <time>2018-06-10T11:45:35Z</time>
      </trkpt>
      <trkpt lat="44.66995" lon="5.0408">
        <ele>500</ele>
        <time>2018-06-10T11:45:37Z</time>
      </trkpt>
      <trkpt lat="44.66994" lon="5.04083">
        <ele>500</ele>
        <time>2018-06-10T11:45:40Z</time>
      </trkpt>
      <trkpt lat="44.66993" lon="5.04084">
        <ele>500</ele>
        <time>2018-06-10T11:45:42Z</time>
      </trkpt>
      <trkpt lat="44.66991" lon="5.04085">
        <ele>500</ele>
        <time>2018-06-10T11:45:44Z</time>
      </trkpt>
      <trkpt lat="44.66989" lon="5.04087">
        <ele>501</ele>
        <time>2018-06-10T11:45:46Z</time>
      </trkpt>
      <trkpt lat="44.66988" lon="5.04088">
        <ele>501</ele>
        <time>2018-06-10T11:45:48Z</time>
      </trkpt>
      <trkpt lat="44.66987" lon="5.04089">
        <ele>501</ele>
        <time>2018-06-10T11:45:50Z</time>
      </trkpt>
      <trkpt lat="44.66985" lon="5.04091">
        <ele>501</ele>
        <time>2018-06-10T11:45:52Z</time>
      </trkpt>
      <trkpt lat="44.66985" lon="5.04092">
        <ele>501</ele>
        <time>2018-06-10T11:45:54Z</time>
      </trkpt>
      <trkpt lat="44.66984" lon="5.04093">
        <ele>502</ele>
        <time>2018-06-10T11:45:56Z</time>
      </trkpt>
      <trkpt lat="44.66984" lon="5.04094">
        <ele>502</ele>
        <time>2018-06-10T11:45:58Z</time>
      </trkpt>
      <trkpt lat="44.66983" lon="5.04096">
        <ele>502</ele>
        <time>2018-06-10T11:46:00Z</time>
      </trkpt>
      <trkpt lat="44.66982" lon="5.04097">
        <ele>502</ele>
        <time>2018-06-10T11:46:02Z</time>
      </trkpt>
      <trkpt lat="44.6698" lon="5.04098">
        <ele>503</ele>
        <time>2018-06-10T11:46:04Z</time>
      </trkpt>
      <trkpt lat="44.66979" lon="5.04099">
        <ele>503</ele>
        <time>2018-06-10T11:46:06Z</time>
      </trkpt>
      <trkpt lat="44.66978" lon="5.04099">
        <ele>503</ele>
        <time>2018-06-10T11:46:08Z</time>
      </trkpt>
      <trkpt lat="44.66977" lon="5.041">
        <ele>504</ele>
        <time>2018-06-10T11:46:10Z</time>
      </trkpt>
      <trkpt lat="44.66977" lon="5.04101">
        <ele>504</ele>
        <time>2018-06-10T11:46:12Z</time>
      </trkpt>
      <trkpt lat="44.66976" lon="5.04102">
        <ele>504</ele>
        <time>2018-06-10T11:46:14Z</time>
      </trkpt>
      <trkpt lat="44.66975" lon="5.04103">
        <ele>505</ele>
        <time>2018-06-10T11:46:16Z</time>
      </trkpt>
      <trkpt lat="44.66973" lon="5.04104">
        <ele>505</ele>
        <time>2018-06-10T11:46:18Z</time>
      </trkpt>
      <trkpt lat="44.66971" lon="5.04105">
        <ele>505</ele>
        <time>2018-06-10T11:46:20Z</time>
      </trkpt>
      <trkpt lat="44.6697" lon="5.04107">
        <ele>505</ele>
        <time>2018-06-10T11:46:22Z</time>
      </trkpt>
      <trkpt lat="44.66969" lon="5.04108">
        <ele>506</ele>
        <time>2018-06-10T11:46:24Z</time>
      </trkpt>
      <trkpt lat="44.66967" lon="5.04109">
        <ele>506</ele>
        <time>2018-06-10T11:46:26Z</time>
      </trkpt>
      <trkpt lat="44.66966" lon="5.0411">
        <ele>507</ele>
        <time>2018-06-10T11:46:28Z</time>
      </trkpt>
      <trkpt lat="44.66966" lon="5.04111">
        <ele>507</ele>
        <time>2018-06-10T11:46:30Z</time>
      </trkpt>
      <trkpt lat="44.66964" lon="5.04112">
        <ele>507</ele>
        <time>2018-06-10T11:46:32Z</time>
      </trkpt>
      <trkpt lat="44.66961" lon="5.04113">
        <ele>507</ele>
        <time>2018-06-10T11:46:34Z</time>
      </trkpt>
      <trkpt lat="44.6696" lon="5.04114">
        <ele>507</ele>
        <time>2018-06-10T11:46:36Z</time>
      </trkpt>
      <trkpt lat="44.6696" lon="5.04115">
        <ele>508</ele>
        <time>2018-06-10T11:46:38Z</time>
      </trkpt>
      <trkpt lat="44.66959" lon="5.04116">
        <ele>508</ele>
        <time>2018-06-10T11:46:40Z</time>
      </trkpt>
      <trkpt lat="44.66958" lon="5.04118">
        <ele>508</ele>
        <time>2018-06-10T11:46:42Z</time>
      </trkpt>
      <trkpt lat="44.66958" lon="5.04119">
        <ele>508</ele>
        <time>2018-06-10T11:46:44Z</time>
      </trkpt>
      <trkpt lat="44.66956" lon="5.0412">
        <ele>508</ele>
        <time>2018-06-10T11:46:47Z</time>
      </trkpt>
      <trkpt lat="44.66954" lon="5.04122">
        <ele>508</ele>
        <time>2018-06-10T11:46:49Z</time>
      </trkpt>
      <trkpt lat="44.66952" lon="5.04123">
        <ele>509</ele>
        <time>2018-06-10T11:46:51Z</time>
      </trkpt>
      <trkpt lat="44.66951" lon="5.04125">
        <ele>508</ele>
        <time>2018-06-10T11:46:53Z</time>
      </trkpt>
      <trkpt lat="44.66948" lon="5.04125">
        <ele>509</ele>
        <time>2018-06-10T11:46:55Z</time>
      </trkpt>
      <trkpt lat="44.66947" lon="5.04126">
        <ele>509</ele>
        <time>2018-06-10T11:46:57Z</time>
      </trkpt>
      <trkpt lat="44.66944" lon="5.04128">
        <ele>509</ele>
        <time>2018-06-10T11:46:59Z</time>
      </trkpt>
      <trkpt lat="44.66942" lon="5.04129">
        <ele>510</ele>
        <time>2018-06-10T11:47:01Z</time>
      </trkpt>
      <trkpt lat="44.66941" lon="5.04129">
        <ele>509</ele>
        <time>2018-06-10T11:47:03Z</time>
      </trkpt>
      <trkpt lat="44.66939" lon="5.0413">
        <ele>510</ele>
        <time>2018-06-10T11:47:05Z</time>
      </trkpt>
      <trkpt lat="44.66938" lon="5.04131">
        <ele>510</ele>
        <time>2018-06-10T11:47:07Z</time>
      </trkpt>
      <trkpt lat="44.66936" lon="5.04132">
        <ele>510</ele>
        <time>2018-06-10T11:47:09Z</time>
      </trkpt>
      <trkpt lat="44.66935" lon="5.04134">
        <ele>511</ele>
        <time>2018-06-10T11:47:11Z</time>
      </trkpt>
      <trkpt lat="44.66933" lon="5.04135">
        <ele>511</ele>
        <time>2018-06-10T11:47:13Z</time>
      </trkpt>
      <trkpt lat="44.66931" lon="5.04136">
        <ele>511</ele>
        <time>2018-06-10T11:47:15Z</time>
      </trkpt>
      <trkpt lat="44.66929" lon="5.04136">
        <ele>512</ele>
        <time>2018-06-10T11:47:17Z</time>
      </trkpt>
      <trkpt lat="44.66927" lon="5.04137">
        <ele>512</ele>
        <time>2018-06-10T11:47:19Z</time>
      </trkpt>
      <trkpt lat="44.66926" lon="5.04138">
        <ele>512</ele>
        <time>2018-06-10T11:47:21Z</time>
      </trkpt>
      <trkpt lat="44.66926" lon="5.04139">
        <ele>512</ele>
        <time>2018-06-10T11:47:23Z</time>
      </trkpt>
      <trkpt lat="44.66925" lon="5.04141">
        <ele>512</ele>
        <time>2018-06-10T11:47:25Z</time>
      </trkpt>
      <trkpt lat="44.66924" lon="5.04142">
        <ele>512</ele>
        <time>2018-06-10T11:47:27Z</time>
      </trkpt>
      <trkpt lat="44.66923" lon="5.04143">
        <ele>513</ele>
        <time>2018-06-10T11:47:29Z</time>
      </trkpt>
      <trkpt lat="44.66922" lon="5.04146">
        <ele>513</ele>
        <time>2018-06-10T11:47:32Z</time>
      </trkpt>
      <trkpt lat="44.6692" lon="5.04147">
        <ele>514</ele>
        <time>2018-06-10T11:47:34Z</time>
      </trkpt>
      <trkpt lat="44.66918" lon="5.04148">
        <ele>514</ele>
        <time>2018-06-10T11:47:36Z</time>
      </trkpt>
      <trkpt lat="44.66917" lon="5.0415">
        <ele>514</ele>
        <time>2018-06-10T11:47:38Z</time>
      </trkpt>
      <trkpt lat="44.66915" lon="5.04151">
        <ele>515</ele>
        <time>2018-06-10T11:47:40Z</time>
      </trkpt>
      <trkpt lat="44.66913" lon="5.04153">
        <ele>515</ele>
        <time>2018-06-10T11:47:42Z</time>
      </trkpt>
      <trkpt lat="44.66912" lon="5.04154">
        <ele>515</ele>
        <time>2018-06-10T11:47:44Z</time>
      </trkpt>
      <trkpt lat="44.66911" lon="5.04154">
        <ele>516</ele>
        <time>2018-06-10T11:47:46Z</time>
      </trkpt>
      <trkpt lat="44.66909" lon="5.04156">
        <ele>516</ele>
        <time>2018-06-10T11:47:48Z</time>
      </trkpt>
      <trkpt lat="44.66907" lon="5.04157">
        <ele>516</ele>
        <time>2018-06-10T11:47:50Z</time>
      </trkpt>
      <trkpt lat="44.66906" lon="5.04158">
        <ele>516</ele>
        <time>2018-06-10T11:47:52Z</time>
      </trkpt>
      <trkpt lat="44.66905" lon="5.0416">
        <ele>516</ele>
        <time>2018-06-10T11:47:54Z</time>
      </trkpt>
      <trkpt lat="44.66903" lon="5.04162">
        <ele>516</ele>
        <time>2018-06-10T11:47:56Z</time>
      </trkpt>
      <trkpt lat="44.66901" lon="5.04163">
        <ele>517</ele>
        <time>2018-06-10T11:47:58Z</time>
      </trkpt>
      <trkpt lat="44.66899" lon="5.04165">
        <ele>517</ele>
        <time>2018-06-10T11:48:00Z</time>
      </trkpt>
      <trkpt lat="44.66898" lon="5.04166">
        <ele>517</ele>
        <time>2018-06-10T11:48:02Z</time>
      </trkpt>
      <trkpt lat="44.66896" lon="5.04167">
        <ele>517</ele>
        <time>2018-06-10T11:48:04Z</time>
      </trkpt>
      <trkpt lat="44.66895" lon="5.04167">
        <ele>517</ele>
        <time>2018-06-10T11:48:06Z</time>
      </trkpt>
      <trkpt lat="44.66894" lon="5.04167">
        <ele>517</ele>
        <time>2018-06-10T11:48:08Z</time>
      </trkpt>
      <trkpt lat="44.66892" lon="5.04165">
        <ele>517</ele>
        <time>2018-06-10T11:48:10Z</time>
      </trkpt>
      <trkpt lat="44.66891" lon="5.04163">
        <ele>517</ele>
        <time>2018-06-10T11:48:12Z</time>
      </trkpt>
      <trkpt lat="44.66889" lon="5.04161">
        <ele>517</ele>
        <time>2018-06-10T11:48:14Z</time>
      </trkpt>
      <trkpt lat="44.66889" lon="5.04159">
        <ele>517</ele>
        <time>2018-06-10T11:48:16Z</time>
      </trkpt>
      <trkpt lat="44.66889" lon="5.04158">
        <ele>518</ele>
        <time>2018-06-10T11:48:18Z</time>
      </trkpt>
      <trkpt lat="44.66888" lon="5.04157">
        <ele>518</ele>
        <time>2018-06-10T11:48:20Z</time>
      </trkpt>
      <trkpt lat="44.66888" lon="5.04157">
        <ele>518</ele>
        <time>2018-06-10T11:48:22Z</time>
      </trkpt>
      <trkpt lat="44.66888" lon="5.04155">
        <ele>518</ele>
        <time>2018-06-10T11:48:24Z</time>
      </trkpt>
      <trkpt lat="44.66887" lon="5.04152">
        <ele>518</ele>
        <time>2018-06-10T11:48:26Z</time>
      </trkpt>
      <trkpt lat="44.66887" lon="5.0415">
        <ele>518</ele>
        <time>2018-06-10T11:48:28Z</time>
      </trkpt>
      <trkpt lat="44.66886" lon="5.04149">
        <ele>519</ele>
        <time>2018-06-10T11:48:30Z</time>
      </trkpt>
      <trkpt lat="44.66887" lon="5.04147">
        <ele>519</ele>
        <time>2018-06-10T11:48:33Z</time>
      </trkpt>
      <trkpt lat="44.66888" lon="5.04146">
        <ele>519</ele>
        <time>2018-06-10T11:48:35Z</time>
      </trkpt>
      <trkpt lat="44.66888" lon="5.04144">
        <ele>519</ele>
        <time>2018-06-10T11:48:37Z</time>
      </trkpt>
      <trkpt lat="44.6689" lon="5.04143">
        <ele>520</ele>
        <time>2018-06-10T11:48:39Z</time>
      </trkpt>
      <trkpt lat="44.66891" lon="5.04142">
        <ele>520</ele>
        <time>2018-06-10T11:48:41Z</time>
      </trkpt>
      <trkpt lat="44.66893" lon="5.04141">
        <ele>520</ele>
        <time>2018-06-10T11:48:43Z</time>
      </trkpt>
      <trkpt lat="44.66894" lon="5.04141">
        <ele>520</ele>
        <time>2018-06-10T11:48:45Z</time>
      </trkpt>
      <trkpt lat="44.66896" lon="5.0414">
        <ele>521</ele>
        <time>2018-06-10T11:48:47Z</time>
      </trkpt>
      <trkpt lat="44.66898" lon="5.04139">
        <ele>520</ele>
        <time>2018-06-10T11:48:49Z</time>
      </trkpt>
      <trkpt lat="44.66899" lon="5.04137">
        <ele>521</ele>
        <time>2018-06-10T11:48:51Z</time>
      </trkpt>
      <trkpt lat="44.669" lon="5.04135">
        <ele>521</ele>
        <time>2018-06-10T11:48:53Z</time>
      </trkpt>
      <trkpt lat="44.66901" lon="5.04133">
        <ele>521</ele>
        <time>2018-06-10T11:48:55Z</time>
      </trkpt>
      <trkpt lat="44.66902" lon="5.04132">
        <ele>522</ele>
        <time>2018-06-10T11:48:57Z</time>
      </trkpt>
      <trkpt lat="44.66903" lon="5.0413">
        <ele>522</ele>
        <time>2018-06-10T11:48:59Z</time>
      </trkpt>
      <trkpt lat="44.66903" lon="5.04128">
        <ele>522</ele>
        <time>2018-06-10T11:49:01Z</time>
      </trkpt>
      <trkpt lat="44.66903" lon="5.04125">
        <ele>522</ele>
        <time>2018-06-10T11:49:03Z</time>
      </trkpt>
      <trkpt lat="44.66904" lon="5.04123">
        <ele>522</ele>
        <time>2018-06-10T11:49:05Z</time>
      </trkpt>
      <trkpt lat="44.66904" lon="5.0412">
        <ele>522</ele>
        <time>2018-06-10T11:49:07Z</time>
      </trkpt>
      <trkpt lat="44.66905" lon="5.04118">
        <ele>523</ele>
        <time>2018-06-10T11:49:09Z</time>
      </trkpt>
      <trkpt lat="44.66906" lon="5.04116">
        <ele>523</ele>
        <time>2018-06-10T11:49:11Z</time>
      </trkpt>
      <trkpt lat="44.66906" lon="5.04114">
        <ele>524</ele>
        <time>2018-06-10T11:49:13Z</time>
      </trkpt>
      <trkpt lat="44.66906" lon="5.04112">
        <ele>523</ele>
        <time>2018-06-10T11:49:15Z</time>
      </trkpt>
      <trkpt lat="44.66907" lon="5.04109">
        <ele>524</ele>
        <time>2018-06-10T11:49:17Z</time>
      </trkpt>
      <trkpt lat="44.66907" lon="5.04106">
        <ele>524</ele>
        <time>2018-06-10T11:49:19Z</time>
      </trkpt>
      <trkpt lat="44.66907" lon="5.04104">
        <ele>524</ele>
        <time>2018-06-10T11:49:21Z</time>
      </trkpt>
      <trkpt lat="44.66907" lon="5.04102">
        <ele>525</ele>
        <time>2018-06-10T11:49:23Z</time>
      </trkpt>
      <trkpt lat="44.66907" lon="5.04099">
        <ele>525</ele>
        <time>2018-06-10T11:49:25Z</time>
      </trkpt>
      <trkpt lat="44.66908" lon="5.04096">
        <ele>525</ele>
        <time>2018-06-10T11:49:27Z</time>
      </trkpt>
      <trkpt lat="44.66907" lon="5.04095">
        <ele>525</ele>
        <time>2018-06-10T11:49:29Z</time>
      </trkpt>
      <trkpt lat="44.66906" lon="5.04093">
        <ele>526</ele>
        <time>2018-06-10T11:49:31Z</time>
      </trkpt>
      <trkpt lat="44.66905" lon="5.04092">
        <ele>525</ele>
        <time>2018-06-10T11:49:33Z</time>
      </trkpt>
      <trkpt lat="44.66905" lon="5.0409">
        <ele>526</ele>
        <time>2018-06-10T11:49:35Z</time>
      </trkpt>
      <trkpt lat="44.66904" lon="5.04089">
        <ele>526</ele>
        <time>2018-06-10T11:49:37Z</time>
      </trkpt>
      <trkpt lat="44.66903" lon="5.04088">
        <ele>526</ele>
        <time>2018-06-10T11:49:39Z</time>
      </trkpt>
      <trkpt lat="44.66901" lon="5.04086">
        <ele>526</ele>
        <time>2018-06-10T11:49:41Z</time>
      </trkpt>
      <trkpt lat="44.669" lon="5.04085">
        <ele>526</ele>
        <time>2018-06-10T11:49:43Z</time>
      </trkpt>
      <trkpt lat="44.66899" lon="5.04083">
        <ele>527</ele>
        <time>2018-06-10T11:49:46Z</time>
      </trkpt>
      <trkpt lat="44.66899" lon="5.04082">
        <ele>527</ele>
        <time>2018-06-10T11:49:48Z</time>
      </trkpt>
      <trkpt lat="44.66897" lon="5.0408">
        <ele>527</ele>
        <time>2018-06-10T11:49:50Z</time>
      </trkpt>
      <trkpt lat="44.66897" lon="5.0408">
        <ele>526</ele>
        <time>2018-06-10T11:49:52Z</time>
      </trkpt>
      <trkpt lat="44.66896" lon="5.04079">
        <ele>527</ele>
        <time>2018-06-10T11:49:54Z</time>
      </trkpt>
      <trkpt lat="44.66895" lon="5.04078">
        <ele>526</ele>
        <time>2018-06-10T11:49:56Z</time>
      </trkpt>
      <trkpt lat="44.66893" lon="5.04077">
        <ele>526</ele>
        <time>2018-06-10T11:49:58Z</time>
      </trkpt>
      <trkpt lat="44.66892" lon="5.04076">
        <ele>526</ele>
        <time>2018-06-10T11:50:00Z</time>
      </trkpt>
      <trkpt lat="44.66889" lon="5.04074">
        <ele>526</ele>
        <time>2018-06-10T11:50:02Z</time>
      </trkpt>
      <trkpt lat="44.66884" lon="5.04071">
        <ele>525</ele>
        <time>2018-06-10T11:50:04Z</time>
      </trkpt>
      <trkpt lat="44.66877" lon="5.04067">
        <ele>524</ele>
        <time>2018-06-10T11:50:06Z</time>
      </trkpt>
      <trkpt lat="44.6687" lon="5.04062">
        <ele>524</ele>
        <time>2018-06-10T11:50:08Z</time>
      </trkpt>
      <trkpt lat="44.66866" lon="5.04059">
        <ele>523</ele>
        <time>2018-06-10T11:50:10Z</time>
      </trkpt>
      <trkpt lat="44.66867" lon="5.04056">
        <ele>523</ele>
        <time>2018-06-10T11:50:12Z</time>
      </trkpt>
      <trkpt lat="44.66866" lon="5.04056">
        <ele>523</ele>
        <time>2018-06-10T11:50:14Z</time>
      </trkpt>
      <trkpt lat="44.66863" lon="5.04061">
        <ele>524</ele>
        <time>2018-06-10T11:50:16Z</time>
      </trkpt>
      <trkpt lat="44.66862" lon="5.04062">
        <ele>523</ele>
        <time>2018-06-10T11:50:18Z</time>
      </trkpt>
      <trkpt lat="44.66861" lon="5.04063">
        <ele>523</ele>
        <time>2018-06-10T11:50:20Z</time>
      </trkpt>
      <trkpt lat="44.66859" lon="5.04062">
        <ele>523</ele>
        <time>2018-06-10T11:50:22Z</time>
      </trkpt>
      <trkpt lat="44.66855" lon="5.04062">
        <ele>523</ele>
        <time>2018-06-10T11:50:24Z</time>
      </trkpt>
      <trkpt lat="44.66851" lon="5.04062">
        <ele>523</ele>
        <time>2018-06-10T11:50:26Z</time>
      </trkpt>
      <trkpt lat="44.66846" lon="5.04064">
        <ele>523</ele>
        <time>2018-06-10T11:50:28Z</time>
      </trkpt>
      <trkpt lat="44.66841" lon="5.04065">
        <ele>523</ele>
        <time>2018-06-10T11:50:30Z</time>
      </trkpt>
      <trkpt lat="44.66834" lon="5.04067">
        <ele>523</ele>
        <time>2018-06-10T11:50:32Z</time>
      </trkpt>
      <trkpt lat="44.66828" lon="5.0407">
        <ele>523</ele>
        <time>2018-06-10T11:50:34Z</time>
      </trkpt>
      <trkpt lat="44.66821" lon="5.04072">
        <ele>523</ele>
        <time>2018-06-10T11:50:36Z</time>
      </trkpt>
      <trkpt lat="44.66811" lon="5.04074">
        <ele>522</ele>
        <time>2018-06-10T11:50:38Z</time>
      </trkpt>
      <trkpt lat="44.66805" lon="5.04075">
        <ele>522</ele>
        <time>2018-06-10T11:50:40Z</time>
      </trkpt>
      <trkpt lat="44.66797" lon="5.04074">
        <ele>522</ele>
        <time>2018-06-10T11:50:42Z</time>
      </trkpt>
      <trkpt lat="44.66788" lon="5.04071">
        <ele>520</ele>
        <time>2018-06-10T11:50:44Z</time>
      </trkpt>
      <trkpt lat="44.66777" lon="5.04069">
        <ele>520</ele>
        <time>2018-06-10T11:50:46Z</time>
      </trkpt>
      <trkpt lat="44.66763" lon="5.04065">
        <ele>517</ele>
        <time>2018-06-10T11:50:48Z</time>
      </trkpt>
      <trkpt lat="44.6675" lon="5.04061">
        <ele>516</ele>
        <time>2018-06-10T11:50:51Z</time>
      </trkpt>
      <trkpt lat="44.66737" lon="5.04058">
        <ele>516</ele>
        <time>2018-06-10T11:50:53Z</time>
      </trkpt>
      <trkpt lat="44.66727" lon="5.0406">
        <ele>515</ele>
        <time>2018-06-10T11:50:55Z</time>
      </trkpt>
      <trkpt lat="44.66716" lon="5.04061">
        <ele>514</ele>
        <time>2018-06-10T11:50:57Z</time>
      </trkpt>
      <trkpt lat="44.66705" lon="5.04061">
        <ele>513</ele>
        <time>2018-06-10T11:50:59Z</time>
      </trkpt>
      <trkpt lat="44.66698" lon="5.04058">
        <ele>514</ele>
        <time>2018-06-10T11:51:01Z</time>
      </trkpt>
      <trkpt lat="44.66692" lon="5.04055">
        <ele>514</ele>
        <time>2018-06-10T11:51:03Z</time>
      </trkpt>
      <trkpt lat="44.66685" lon="5.04049">
        <ele>513</ele>
        <time>2018-06-10T11:51:05Z</time>
      </trkpt>
      <trkpt lat="44.66679" lon="5.04038">
        <ele>512</ele>
        <time>2018-06-10T11:51:07Z</time>
      </trkpt>
      <trkpt lat="44.66677" lon="5.04028">
        <ele>512</ele>
        <time>2018-06-10T11:51:09Z</time>
      </trkpt>
      <trkpt lat="44.66676" lon="5.04016">
        <ele>512</ele>
        <time>2018-06-10T11:51:11Z</time>
      </trkpt>
      <trkpt lat="44.66675" lon="5.04009">
        <ele>513</ele>
        <time>2018-06-10T11:51:13Z</time>
      </trkpt>
      <trkpt lat="44.66674" lon="5.04005">
        <ele>513</ele>
        <time>2018-06-10T11:51:15Z</time>
      </trkpt>
      <trkpt lat="44.66672" lon="5.04">
        <ele>513</ele>
        <time>2018-06-10T11:51:17Z</time>
      </trkpt>
      <trkpt lat="44.66673" lon="5.03996">
        <ele>514</ele>
        <time>2018-06-10T11:51:19Z</time>
      </trkpt>
      <trkpt lat="44.66672" lon="5.0399">
        <ele>515</ele>
        <time>2018-06-10T11:51:21Z</time>
      </trkpt>
      <trkpt lat="44.66671" lon="5.03988">
        <ele>515</ele>
        <time>2018-06-10T11:51:23Z</time>
      </trkpt>
      <trkpt lat="44.66669" lon="5.03986">
        <ele>515</ele>
        <time>2018-06-10T11:51:25Z</time>
      </trkpt>
      <trkpt lat="44.66668" lon="5.03985">
        <ele>516</ele>
        <time>2018-06-10T11:51:27Z</time>
      </trkpt>
      <trkpt lat="44.66665" lon="5.03983">
        <ele>516</ele>
        <time>2018-06-10T11:51:29Z</time>
      </trkpt>
      <trkpt lat="44.66663" lon="5.0398">
        <ele>516</ele>
        <time>2018-06-10T11:51:31Z</time>
      </trkpt>
      <trkpt lat="44.66661" lon="5.03978">
        <ele>516</ele>
        <time>2018-06-10T11:51:33Z</time>
      </trkpt>
      <trkpt lat="44.66659" lon="5.03977">
        <ele>516</ele>
        <time>2018-06-10T11:51:35Z</time>
      </trkpt>
      <trkpt lat="44.66657" lon="5.03976">
        <ele>516</ele>
        <time>2018-06-10T11:51:38Z</time>
      </trkpt>
      <trkpt lat="44.66654" lon="5.03974">
        <ele>516</ele>
        <time>2018-06-10T11:51:40Z</time>
      </trkpt>
      <trkpt lat="44.66652" lon="5.03973">
        <ele>516</ele>
        <time>2018-06-10T11:51:42Z</time>
      </trkpt>
      <trkpt lat="44.66648" lon="5.03971">
        <ele>516</ele>
        <time>2018-06-10T11:51:44Z</time>
      </trkpt>
      <trkpt lat="44.66643" lon="5.03966">
        <ele>515</ele>
        <time>2018-06-10T11:51:46Z</time>
      </trkpt>
      <trkpt lat="44.66641" lon="5.03963">
        <ele>516</ele>
        <time>2018-06-10T11:51:48Z</time>
      </trkpt>
      <trkpt lat="44.66639" lon="5.03958">
        <ele>516</ele>
        <time>2018-06-10T11:51:50Z</time>
      </trkpt>
      <trkpt lat="44.66638" lon="5.03953">
        <ele>516</ele>
        <time>2018-06-10T11:51:52Z</time>
      </trkpt>
      <trkpt lat="44.66637" lon="5.03947">
        <ele>516</ele>
        <time>2018-06-10T11:51:54Z</time>
      </trkpt>
      <trkpt lat="44.66636" lon="5.03941">
        <ele>516</ele>
        <time>2018-06-10T11:51:56Z</time>
      </trkpt>
      <trkpt lat="44.66634" lon="5.03935">
        <ele>516</ele>
        <time>2018-06-10T11:51:58Z</time>
      </trkpt>
      <trkpt lat="44.66633" lon="5.03931">
        <ele>516</ele>
        <time>2018-06-10T11:52:00Z</time>
      </trkpt>
      <trkpt lat="44.66632" lon="5.03927">
        <ele>516</ele>
        <time>2018-06-10T11:52:02Z</time>
      </trkpt>
      <trkpt lat="44.6663" lon="5.03923">
        <ele>516</ele>
        <time>2018-06-10T11:52:04Z</time>
      </trkpt>
      <trkpt lat="44.66628" lon="5.03918">
        <ele>517</ele>
        <time>2018-06-10T11:52:06Z</time>
      </trkpt>
      <trkpt lat="44.66627" lon="5.03915">
        <ele>517</ele>
        <time>2018-06-10T11:52:08Z</time>
      </trkpt>
      <trkpt lat="44.66625" lon="5.03911">
        <ele>517</ele>
        <time>2018-06-10T11:52:10Z</time>
      </trkpt>
      <trkpt lat="44.66623" lon="5.03907">
        <ele>517</ele>
        <time>2018-06-10T11:52:12Z</time>
      </trkpt>
      <trkpt lat="44.66623" lon="5.03903">
        <ele>518</ele>
        <time>2018-06-10T11:52:14Z</time>
      </trkpt>
      <trkpt lat="44.66622" lon="5.039">
        <ele>518</ele>
        <time>2018-06-10T11:52:16Z</time>
      </trkpt>
      <trkpt lat="44.66622" lon="5.03897">
        <ele>518</ele>
        <time>2018-06-10T11:52:18Z</time>
      </trkpt>
      <trkpt lat="44.66621" lon="5.03896">
        <ele>518</ele>
        <time>2018-06-10T11:52:20Z</time>
      </trkpt>
      <trkpt lat="44.66621" lon="5.03893">
        <ele>518</ele>
        <time>2018-06-10T11:52:22Z</time>
      </trkpt>
      <trkpt lat="44.66621" lon="5.03891">
        <ele>518</ele>
        <time>2018-06-10T11:52:24Z</time>
      </trkpt>
      <trkpt lat="44.66621" lon="5.03888">
        <ele>518</ele>
        <time>2018-06-10T11:52:26Z</time>
      </trkpt>
      <trkpt lat="44.66619" lon="5.03887">
        <ele>518</ele>
        <time>2018-06-10T11:52:28Z</time>
      </trkpt>
      <trkpt lat="44.66617" lon="5.03886">
        <ele>518</ele>
        <time>2018-06-10T11:52:30Z</time>
      </trkpt>
      <trkpt lat="44.66615" lon="5.03885">
        <ele>519</ele>
        <time>2018-06-10T11:52:32Z</time>
      </trkpt>
      <trkpt lat="44.66614" lon="5.03884">
        <ele>520</ele>
        <time>2018-06-10T11:52:34Z</time>
      </trkpt>
      <trkpt lat="44.66612" lon="5.03883">
        <ele>520</ele>
        <time>2018-06-10T11:52:36Z</time>
      </trkpt>
      <trkpt lat="44.66611" lon="5.03882">
        <ele>520</ele>
        <time>2018-06-10T11:52:38Z</time>
      </trkpt>
      <trkpt lat="44.6661" lon="5.0388">
        <ele>521</ele>
        <time>2018-06-10T11:52:40Z</time>
      </trkpt>
      <trkpt lat="44.66609" lon="5.03879">
        <ele>520</ele>
        <time>2018-06-10T11:52:42Z</time>
      </trkpt>
      <trkpt lat="44.66608" lon="5.03878">
        <ele>521</ele>
        <time>2018-06-10T11:52:44Z</time>
      </trkpt>
      <trkpt lat="44.66607" lon="5.03877">
        <ele>521</ele>
        <time>2018-06-10T11:52:46Z</time>
      </trkpt>
      <trkpt lat="44.66605" lon="5.03876">
        <ele>522</ele>
        <time>2018-06-10T11:52:48Z</time>
      </trkpt>
      <trkpt lat="44.66604" lon="5.03875">
        <ele>522</ele>
        <time>2018-06-10T11:52:50Z</time>
      </trkpt>
      <trkpt lat="44.66603" lon="5.03874">
        <ele>522</ele>
        <time>2018-06-10T11:52:52Z</time>
      </trkpt>
      <trkpt lat="44.66602" lon="5.03872">
        <ele>523</ele>
        <time>2018-06-10T11:52:54Z</time>
      </trkpt>
      <trkpt lat="44.666" lon="5.03869">
        <ele>523</ele>
        <time>2018-06-10T11:52:56Z</time>
      </trkpt>
      <trkpt lat="44.66599" lon="5.03868">
        <ele>523</ele>
        <time>2018-06-10T11:52:58Z</time>
      </trkpt>
      <trkpt lat="44.66598" lon="5.03867">
        <ele>524</ele>
        <time>2018-06-10T11:53:00Z</time>
      </trkpt>
      <trkpt lat="44.66597" lon="5.03865">
        <ele>524</ele>
        <time>2018-06-10T11:53:03Z</time>
      </trkpt>
      <trkpt lat="44.66595" lon="5.03863">
        <ele>524</ele>
        <time>2018-06-10T11:53:05Z</time>
      </trkpt>
      <trkpt lat="44.66594" lon="5.03861">
        <ele>525</ele>
        <time>2018-06-10T11:53:07Z</time>
      </trkpt>
      <trkpt lat="44.66593" lon="5.0386">
        <ele>525</ele>
        <time>2018-06-10T11:53:09Z</time>
      </trkpt>
      <trkpt lat="44.66593" lon="5.03859">
        <ele>525</ele>
        <time>2018-06-10T11:53:11Z</time>
      </trkpt>
      <trkpt lat="44.66592" lon="5.03857">
        <ele>525</ele>
        <time>2018-06-10T11:53:13Z</time>
      </trkpt>
      <trkpt lat="44.66591" lon="5.03856">
        <ele>526</ele>
        <time>2018-06-10T11:53:15Z</time>
      </trkpt>
      <trkpt lat="44.6659" lon="5.03855">
        <ele>526</ele>
        <time>2018-06-10T11:53:17Z</time>
      </trkpt>
      <trkpt lat="44.6659" lon="5.03853">
        <ele>526</ele>
        <time>2018-06-10T11:53:19Z</time>
      </trkpt>
      <trkpt lat="44.66589" lon="5.03852">
        <ele>526</ele>
        <time>2018-06-10T11:53:21Z</time>
      </trkpt>
      <trkpt lat="44.66588" lon="5.03851">
        <ele>526</ele>
        <time>2018-06-10T11:53:23Z</time>
      </trkpt>
      <trkpt lat="44.66587" lon="5.0385">
        <ele>526</ele>
        <time>2018-06-10T11:53:25Z</time>
      </trkpt>
      <trkpt lat="44.66586" lon="5.03849">
        <ele>527</ele>
        <time>2018-06-10T11:53:27Z</time>
      </trkpt>
      <trkpt lat="44.66584" lon="5.03848">
        <ele>527</ele>
        <time>2018-06-10T11:53:29Z</time>
      </trkpt>
      <trkpt lat="44.66583" lon="5.03848">
        <ele>527</ele>
        <time>2018-06-10T11:53:31Z</time>
      </trkpt>
      <trkpt lat="44.66581" lon="5.03846">
        <ele>528</ele>
        <time>2018-06-10T11:53:33Z</time>
      </trkpt>
      <trkpt lat="44.6658" lon="5.03844">
        <ele>528</ele>
        <time>2018-06-10T11:53:35Z</time>
      </trkpt>
      <trkpt lat="44.66579" lon="5.03842">
        <ele>528</ele>
        <time>2018-06-10T11:53:37Z</time>
      </trkpt>
      <trkpt lat="44.66578" lon="5.0384">
        <ele>528</ele>
        <time>2018-06-10T11:53:39Z</time>
      </trkpt>
      <trkpt lat="44.66576" lon="5.03838">
        <ele>528</ele>
        <time>2018-06-10T11:53:41Z</time>
      </trkpt>
      <trkpt lat="44.66574" lon="5.03837">
        <ele>528</ele>
        <time>2018-06-10T11:53:43Z</time>
      </trkpt>
      <trkpt lat="44.66573" lon="5.03835">
        <ele>528</ele>
        <time>2018-06-10T11:53:45Z</time>
      </trkpt>
      <trkpt lat="44.66572" lon="5.03833">
        <ele>528</ele>
        <time>2018-06-10T11:53:47Z</time>
      </trkpt>
      <trkpt lat="44.6657" lon="5.03832">
        <ele>528</ele>
        <time>2018-06-10T11:53:49Z</time>
      </trkpt>
      <trkpt lat="44.66568" lon="5.0383">
        <ele>529</ele>
        <time>2018-06-10T11:53:51Z</time>
      </trkpt>
      <trkpt lat="44.66567" lon="5.03828">
        <ele>529</ele>
        <time>2018-06-10T11:53:53Z</time>
      </trkpt>
      <trkpt lat="44.66566" lon="5.03828">
        <ele>529</ele>
        <time>2018-06-10T11:53:55Z</time>
      </trkpt>
      <trkpt lat="44.66565" lon="5.03828">
        <ele>529</ele>
        <time>2018-06-10T11:53:57Z</time>
      </trkpt>
      <trkpt lat="44.66563" lon="5.03827">
        <ele>529</ele>
        <time>2018-06-10T11:53:59Z</time>
      </trkpt>
      <trkpt lat="44.66562" lon="5.03826">
        <ele>529</ele>
        <time>2018-06-10T11:54:02Z</time>
      </trkpt>
      <trkpt lat="44.6656" lon="5.03825">
        <ele>529</ele>
        <time>2018-06-10T11:54:04Z</time>
      </trkpt>
      <trkpt lat="44.66558" lon="5.03824">
        <ele>530</ele>
        <time>2018-06-10T11:54:06Z</time>
      </trkpt>
      <trkpt lat="44.66556" lon="5.03823">
        <ele>530</ele>
        <time>2018-06-10T11:54:08Z</time>
      </trkpt>
      <trkpt lat="44.66554" lon="5.03822">
        <ele>530</ele>
        <time>2018-06-10T11:54:10Z</time>
      </trkpt>
      <trkpt lat="44.66552" lon="5.03822">
        <ele>530</ele>
        <time>2018-06-10T11:54:12Z</time>
      </trkpt>
      <trkpt lat="44.66551" lon="5.03822">
        <ele>530</ele>
        <time>2018-06-10T11:54:14Z</time>
      </trkpt>
      <trkpt lat="44.66549" lon="5.03821">
        <ele>530</ele>
        <time>2018-06-10T11:54:16Z</time>
      </trkpt>
      <trkpt lat="44.66546" lon="5.0382">
        <ele>530</ele>
        <time>2018-06-10T11:54:18Z</time>
      </trkpt>
      <trkpt lat="44.66543" lon="5.03818">
        <ele>531</ele>
        <time>2018-06-10T11:54:20Z</time>
      </trkpt>
      <trkpt lat="44.66541" lon="5.03818">
        <ele>531</ele>
        <time>2018-06-10T11:54:22Z</time>
      </trkpt>
      <trkpt lat="44.66538" lon="5.03818">
        <ele>531</ele>
        <time>2018-06-10T11:54:24Z</time>
      </trkpt>
      <trkpt lat="44.66536" lon="5.03818">
        <ele>531</ele>
        <time>2018-06-10T11:54:26Z</time>
      </trkpt>
      <trkpt lat="44.66534" lon="5.03818">
        <ele>532</ele>
        <time>2018-06-10T11:54:28Z</time>
      </trkpt>
      <trkpt lat="44.66532" lon="5.03818">
        <ele>532</ele>
        <time>2018-06-10T11:54:30Z</time>
      </trkpt>
      <trkpt lat="44.6653" lon="5.03818">
        <ele>532</ele>
        <time>2018-06-10T11:54:32Z</time>
      </trkpt>
      <trkpt lat="44.66528" lon="5.03818">
        <ele>532</ele>
        <time>2018-06-10T11:54:34Z</time>
      </trkpt>
      <trkpt lat="44.66526" lon="5.03818">
        <ele>533</ele>
        <time>2018-06-10T11:54:36Z</time>
      </trkpt>
      <trkpt lat="44.66523" lon="5.03818">
        <ele>532</ele>
        <time>2018-06-10T11:54:38Z</time>
      </trkpt>
      <trkpt lat="44.66521" lon="5.03817">
        <ele>533</ele>
        <time>2018-06-10T11:54:40Z</time>
      </trkpt>
      <trkpt lat="44.66518" lon="5.03817">
        <ele>533</ele>
        <time>2018-06-10T11:54:42Z</time>
      </trkpt>
      <trkpt lat="44.66515" lon="5.03817">
        <ele>534</ele>
        <time>2018-06-10T11:54:44Z</time>
      </trkpt>
      <trkpt lat="44.66513" lon="5.03818">
        <ele>534</ele>
        <time>2018-06-10T11:54:46Z</time>
      </trkpt>
      <trkpt lat="44.6651" lon="5.03819">
        <ele>534</ele>
        <time>2018-06-10T11:54:48Z</time>
      </trkpt>
      <trkpt lat="44.66507" lon="5.03819">
        <ele>534</ele>
        <time>2018-06-10T11:54:50Z</time>
      </trkpt>
      <trkpt lat="44.66505" lon="5.03819">
        <ele>535</ele>
        <time>2018-06-10T11:54:52Z</time>
      </trkpt>
      <trkpt lat="44.66502" lon="5.03819">
        <ele>535</ele>
        <time>2018-06-10T11:54:54Z</time>
      </trkpt>
      <trkpt lat="44.665" lon="5.03819">
        <ele>535</ele>
        <time>2018-06-10T11:54:56Z</time>
      </trkpt>
      <trkpt lat="44.66497" lon="5.03819">
        <ele>535</ele>
        <time>2018-06-10T11:54:58Z</time>
      </trkpt>
      <trkpt lat="44.66493" lon="5.03819">
        <ele>535</ele>
        <time>2018-06-10T11:55:00Z</time>
      </trkpt>
      <trkpt lat="44.66491" lon="5.03819">
        <ele>536</ele>
        <time>2018-06-10T11:55:02Z</time>
      </trkpt>
      <trkpt lat="44.66488" lon="5.03819">
        <ele>536</ele>
        <time>2018-06-10T11:55:04Z</time>
      </trkpt>
      <trkpt lat="44.66487" lon="5.0382">
        <ele>536</ele>
        <time>2018-06-10T11:55:06Z</time>
      </trkpt>
      <trkpt lat="44.66485" lon="5.03821">
        <ele>536</ele>
        <time>2018-06-10T11:55:08Z</time>
      </trkpt>
      <trkpt lat="44.66483" lon="5.03821">
        <ele>536</ele>
        <time>2018-06-10T11:55:10Z</time>
      </trkpt>
      <trkpt lat="44.66481" lon="5.03823">
        <ele>536</ele>
        <time>2018-06-10T11:55:12Z</time>
      </trkpt>
      <trkpt lat="44.66479" lon="5.03823">
        <ele>537</ele>
        <time>2018-06-10T11:55:14Z</time>
      </trkpt>
      <trkpt lat="44.66477" lon="5.03824">
        <ele>537</ele>
        <time>2018-06-10T11:55:16Z</time>
      </trkpt>
      <trkpt lat="44.66475" lon="5.03824">
        <ele>537</ele>
        <time>2018-06-10T11:55:18Z</time>
      </trkpt>
      <trkpt lat="44.66473" lon="5.03825">
        <ele>537</ele>
        <time>2018-06-10T11:55:20Z</time>
      </trkpt>
      <trkpt lat="44.6647" lon="5.03827">
        <ele>537</ele>
        <time>2018-06-10T11:55:22Z</time>
      </trkpt>
      <trkpt lat="44.66469" lon="5.03828">
        <ele>537</ele>
        <time>2018-06-10T11:55:25Z</time>
      </trkpt>
      <trkpt lat="44.66467" lon="5.0383">
        <ele>538</ele>
        <time>2018-06-10T11:55:27Z</time>
      </trkpt>
      <trkpt lat="44.66466" lon="5.03832">
        <ele>538</ele>
        <time>2018-06-10T11:55:29Z</time>
      </trkpt>
      <trkpt lat="44.66464" lon="5.03834">
        <ele>538</ele>
        <time>2018-06-10T11:55:31Z</time>
      </trkpt>
      <trkpt lat="44.6646" lon="5.03837">
        <ele>538</ele>
        <time>2018-06-10T11:55:33Z</time>
      </trkpt>
      <trkpt lat="44.66455" lon="5.03841">
        <ele>538</ele>
        <time>2018-06-10T11:55:35Z</time>
      </trkpt>
      <trkpt lat="44.66446" lon="5.03846">
        <ele>537</ele>
        <time>2018-06-10T11:55:37Z</time>
      </trkpt>
      <trkpt lat="44.66441" lon="5.03848">
        <ele>536</ele>
        <time>2018-06-10T11:55:39Z</time>
      </trkpt>
      <trkpt lat="44.66427" lon="5.03854">
        <ele>536</ele>
        <time>2018-06-10T11:55:41Z</time>
      </trkpt>
      <trkpt lat="44.66419" lon="5.03859">
        <ele>536</ele>
        <time>2018-06-10T11:55:43Z</time>
      </trkpt>
      <trkpt lat="44.6641" lon="5.03863">
        <ele>536</ele>
        <time>2018-06-10T11:55:45Z</time>
      </trkpt>
      <trkpt lat="44.66401" lon="5.0387">
        <ele>534</ele>
        <time>2018-06-10T11:55:47Z</time>
      </trkpt>
      <trkpt lat="44.6639" lon="5.03877">
        <ele>534</ele>
        <time>2018-06-10T11:55:49Z</time>
      </trkpt>
      <trkpt lat="44.66379" lon="5.03881">
        <ele>533</ele>
        <time>2018-06-10T11:55:51Z</time>
      </trkpt>
      <trkpt lat="44.66374" lon="5.03892">
        <ele>533</ele>
        <time>2018-06-10T11:55:53Z</time>
      </trkpt>
      <trkpt lat="44.66372" lon="5.03898">
        <ele>534</ele>
        <time>2018-06-10T11:55:55Z</time>
      </trkpt>
      <trkpt lat="44.66366" lon="5.03895">
        <ele>534</ele>
        <time>2018-06-10T11:55:57Z</time>
      </trkpt>
      <trkpt lat="44.66362" lon="5.0389">
        <ele>533</ele>
        <time>2018-06-10T11:55:59Z</time>
      </trkpt>
      <trkpt lat="44.66358" lon="5.03888">
        <ele>534</ele>
        <time>2018-06-10T11:56:01Z</time>
      </trkpt>
      <trkpt lat="44.66354" lon="5.03885">
        <ele>534</ele>
        <time>2018-06-10T11:56:03Z</time>
      </trkpt>
      <trkpt lat="44.66349" lon="5.03882">
        <ele>534</ele>
        <time>2018-06-10T11:56:05Z</time>
      </trkpt>
      <trkpt lat="44.66344" lon="5.03881">
        <ele>534</ele>
        <time>2018-06-10T11:56:07Z</time>
      </trkpt>
      <trkpt lat="44.66337" lon="5.03879">
        <ele>534</ele>
        <time>2018-06-10T11:56:09Z</time>
      </trkpt>
      <trkpt lat="44.66325" lon="5.03877">
        <ele>534</ele>
        <time>2018-06-10T11:56:11Z</time>
      </trkpt>
      <trkpt lat="44.66319" lon="5.03876">
        <ele>533</ele>
        <time>2018-06-10T11:56:13Z</time>
      </trkpt>
      <trkpt lat="44.66314" lon="5.03873">
        <ele>533</ele>
        <time>2018-06-10T11:56:15Z</time>
      </trkpt>
      <trkpt lat="44.66309" lon="5.03871">
        <ele>533</ele>
        <time>2018-06-10T11:56:17Z</time>
      </trkpt>
      <trkpt lat="44.66305" lon="5.03868">
        <ele>534</ele>
        <time>2018-06-10T11:56:20Z</time>
      </trkpt>
      <trkpt lat="44.66301" lon="5.03865">
        <ele>534</ele>
        <time>2018-06-10T11:56:22Z</time>
      </trkpt>
      <trkpt lat="44.66298" lon="5.03863">
        <ele>534</ele>
        <time>2018-06-10T11:56:24Z</time>
      </trkpt>
      <trkpt lat="44.66294" lon="5.0386">
        <ele>534</ele>
        <time>2018-06-10T11:56:26Z</time>
      </trkpt>
      <trkpt lat="44.66289" lon="5.03858">
        <ele>533</ele>
        <time>2018-06-10T11:56:28Z</time>
      </trkpt>
      <trkpt lat="44.66282" lon="5.03854">
        <ele>533</ele>
        <time>2018-06-10T11:56:30Z</time>
      </trkpt>
      <trkpt lat="44.66276" lon="5.03854">
        <ele>533</ele>
        <time>2018-06-10T11:56:32Z</time>
      </trkpt>
      <trkpt lat="44.6627" lon="5.03854">
        <ele>533</ele>
        <time>2018-06-10T11:56:34Z</time>
      </trkpt>
      <trkpt lat="44.66264" lon="5.03854">
        <ele>533</ele>
        <time>2018-06-10T11:56:36Z</time>
      </trkpt>
      <trkpt lat="44.66258" lon="5.03853">
        <ele>533</ele>
        <time>2018-06-10T11:56:38Z</time>
      </trkpt>
      <trkpt lat="44.66253" lon="5.0385">
        <ele>533</ele>
        <time>2018-06-10T11:56:40Z</time>
      </trkpt>
      <trkpt lat="44.66249" lon="5.03846">
        <ele>533</ele>
        <time>2018-06-10T11:56:42Z</time>
      </trkpt>
      <trkpt lat="44.66246" lon="5.03842">
        <ele>533</ele>
        <time>2018-06-10T11:56:44Z</time>
      </trkpt>
      <trkpt lat="44.66243" lon="5.03839">
        <ele>534</ele>
        <time>2018-06-10T11:56:46Z</time>
      </trkpt>
      <trkpt lat="44.66239" lon="5.03835">
        <ele>534</ele>
        <time>2018-06-10T11:56:48Z</time>
      </trkpt>
      <trkpt lat="44.66234" lon="5.03831">
        <ele>534</ele>
        <time>2018-06-10T11:56:50Z</time>
      </trkpt>
      <trkpt lat="44.66229" lon="5.03829">
        <ele>534</ele>
        <time>2018-06-10T11:56:52Z</time>
      </trkpt>
      <trkpt lat="44.66225" lon="5.03829">
        <ele>534</ele>
        <time>2018-06-10T11:56:54Z</time>
      </trkpt>
      <trkpt lat="44.66221" lon="5.03828">
        <ele>535</ele>
        <time>2018-06-10T11:56:56Z</time>
      </trkpt>
      <trkpt lat="44.66217" lon="5.03829">
        <ele>535</ele>
        <time>2018-06-10T11:56:58Z</time>
      </trkpt>
      <trkpt lat="44.66213" lon="5.03829">
        <ele>535</ele>
        <time>2018-06-10T11:57:00Z</time>
      </trkpt>
      <trkpt lat="44.66208" lon="5.03828">
        <ele>535</ele>
        <time>2018-06-10T11:57:02Z</time>
      </trkpt>
      <trkpt lat="44.66203" lon="5.03829">
        <ele>536</ele>
        <time>2018-06-10T11:57:04Z</time>
      </trkpt>
      <trkpt lat="44.66199" lon="5.03829">
        <ele>536</ele>
        <time>2018-06-10T11:57:06Z</time>
      </trkpt>
      <trkpt lat="44.66195" lon="5.03829">
        <ele>536</ele>
        <time>2018-06-10T11:57:08Z</time>
      </trkpt>
      <trkpt lat="44.66191" lon="5.03828">
        <ele>536</ele>
        <time>2018-06-10T11:57:10Z</time>
      </trkpt>
      <trkpt lat="44.66187" lon="5.03828">
        <ele>537</ele>
        <time>2018-06-10T11:57:12Z</time>
      </trkpt>
      <trkpt lat="44.66184" lon="5.03829">
        <ele>537</ele>
        <time>2018-06-10T11:57:14Z</time>
      </trkpt>
      <trkpt lat="44.66181" lon="5.03829">
        <ele>537</ele>
        <time>2018-06-10T11:57:16Z</time>
      </trkpt>
      <trkpt lat="44.66179" lon="5.0383">
        <ele>537</ele>
        <time>2018-06-10T11:57:18Z</time>
      </trkpt>
      <trkpt lat="44.66175" lon="5.03831">
        <ele>538</ele>
        <time>2018-06-10T11:57:20Z</time>
      </trkpt>
      <trkpt lat="44.66174" lon="5.03831">
        <ele>538</ele>
        <time>2018-06-10T11:57:23Z</time>
      </trkpt>
      <trkpt lat="44.66171" lon="5.03832">
        <ele>538</ele>
        <time>2018-06-10T11:57:25Z</time>
      </trkpt>
      <trkpt lat="44.66168" lon="5.03833">
        <ele>538</ele>
        <time>2018-06-10T11:57:27Z</time>
      </trkpt>
      <trkpt lat="44.66165" lon="5.03835">
        <ele>539</ele>
        <time>2018-06-10T11:57:29Z</time>
      </trkpt>
      <trkpt lat="44.66162" lon="5.03836">
        <ele>539</ele>
        <time>2018-06-10T11:57:31Z</time>
      </trkpt>
      <trkpt lat="44.6616" lon="5.03838">
        <ele>539</ele>
        <time>2018-06-10T11:57:33Z</time>
      </trkpt>
      <trkpt lat="44.66156" lon="5.03839">
        <ele>539</ele>
        <time>2018-06-10T11:57:35Z</time>
      </trkpt>
      <trkpt lat="44.66152" lon="5.0384">
        <ele>540</ele>
        <time>2018-06-10T11:57:37Z</time>
      </trkpt>
      <trkpt lat="44.66148" lon="5.03841">
        <ele>540</ele>
        <time>2018-06-10T11:57:39Z</time>
      </trkpt>
      <trkpt lat="44.66142" lon="5.03843">
        <ele>540</ele>
        <time>2018-06-10T11:57:41Z</time>
      </trkpt>
      <trkpt lat="44.66138" lon="5.03844">
        <ele>540</ele>
        <time>2018-06-10T11:57:43Z</time>
      </trkpt>
      <trkpt lat="44.66134" lon="5.03844">
        <ele>540</ele>
        <time>2018-06-10T11:57:45Z</time>
      </trkpt>
      <trkpt lat="44.66129" lon="5.03845">
        <ele>540</ele>
        <time>2018-06-10T11:57:47Z</time>
      </trkpt>
      <trkpt lat="44.66124" lon="5.03846">
        <ele>540</ele>
        <time>2018-06-10T11:57:49Z</time>
      </trkpt>
      <trkpt lat="44.66119" lon="5.03847">
        <ele>540</ele>
        <time>2018-06-10T11:57:51Z</time>
      </trkpt>
      <trkpt lat="44.66114" lon="5.03846">
        <ele>540</ele>
        <time>2018-06-10T11:57:53Z</time>
      </trkpt>
      <trkpt lat="44.66109" lon="5.03846">
        <ele>540</ele>
        <time>2018-06-10T11:57:55Z</time>
      </trkpt>
      <trkpt lat="44.66104" lon="5.03846">
        <ele>540</ele>
        <time>2018-06-10T11:57:57Z</time>
      </trkpt>
      <trkpt lat="44.66099" lon="5.03847">
        <ele>540</ele>
        <time>2018-06-10T11:57:59Z</time>
      </trkpt>
      <trkpt lat="44.66093" lon="5.03848">
        <ele>540</ele>
        <time>2018-06-10T11:58:01Z</time>
      </trkpt>
      <trkpt lat="44.66088" lon="5.03848">
        <ele>540</ele>
        <time>2018-06-10T11:58:03Z</time>
      </trkpt>
      <trkpt lat="44.66082" lon="5.0385">
        <ele>540</ele>
        <time>2018-06-10T11:58:05Z</time>
      </trkpt>
      <trkpt lat="44.66077" lon="5.03851">
        <ele>540</ele>
        <time>2018-06-10T11:58:07Z</time>
      </trkpt>
      <trkpt lat="44.66072" lon="5.03852">
        <ele>540</ele>
        <time>2018-06-10T11:58:09Z</time>
      </trkpt>
      <trkpt lat="44.66067" lon="5.03853">
        <ele>541</ele>
        <time>2018-06-10T11:58:11Z</time>
      </trkpt>
      <trkpt lat="44.66063" lon="5.03854">
        <ele>541</ele>
        <time>2018-06-10T11:58:13Z</time>
      </trkpt>
      <trkpt lat="44.66057" lon="5.03856">
        <ele>541</ele>
        <time>2018-06-10T11:58:15Z</time>
      </trkpt>
      <trkpt lat="44.66053" lon="5.03857">
        <ele>542</ele>
        <time>2018-06-10T11:58:17Z</time>
      </trkpt>
      <trkpt lat="44.66049" lon="5.03859">
        <ele>541</ele>
        <time>2018-06-10T11:58:19Z</time>
      </trkpt>
      <trkpt lat="44.66043" lon="5.0386">
        <ele>542</ele>
        <time>2018-06-10T11:58:21Z</time>
      </trkpt>
      <trkpt lat="44.66037" lon="5.0386">
        <ele>542</ele>
        <time>2018-06-10T11:58:23Z</time>
      </trkpt>
      <trkpt lat="44.6603" lon="5.0386">
        <ele>542</ele>
        <time>2018-06-10T11:58:25Z</time>
      </trkpt>
      <trkpt lat="44.66022" lon="5.03857">
        <ele>542</ele>
        <time>2018-06-10T11:58:27Z</time>
      </trkpt>
      <trkpt lat="44.66014" lon="5.03856">
        <ele>542</ele>
        <time>2018-06-10T11:58:29Z</time>
      </trkpt>
      <trkpt lat="44.66008" lon="5.03856">
        <ele>542</ele>
        <time>2018-06-10T11:58:32Z</time>
      </trkpt>
      <trkpt lat="44.66002" lon="5.03856">
        <ele>542</ele>
        <time>2018-06-10T11:58:34Z</time>
      </trkpt>
      <trkpt lat="44.65996" lon="5.03857">
        <ele>542</ele>
        <time>2018-06-10T11:58:36Z</time>
      </trkpt>
      <trkpt lat="44.65989" lon="5.03857">
        <ele>543</ele>
        <time>2018-06-10T11:58:38Z</time>
      </trkpt>
      <trkpt lat="44.65983" lon="5.03854">
        <ele>542</ele>
        <time>2018-06-10T11:58:40Z</time>
      </trkpt>
      <trkpt lat="44.65976" lon="5.03854">
        <ele>542</ele>
        <time>2018-06-10T11:58:42Z</time>
      </trkpt>
      <trkpt lat="44.65968" lon="5.03853">
        <ele>542</ele>
        <time>2018-06-10T11:58:44Z</time>
      </trkpt>
      <trkpt lat="44.65959" lon="5.03852">
        <ele>541</ele>
        <time>2018-06-10T11:58:46Z</time>
      </trkpt>
      <trkpt lat="44.65953" lon="5.03848">
        <ele>542</ele>
        <time>2018-06-10T11:58:48Z</time>
      </trkpt>
      <trkpt lat="44.65946" lon="5.03844">
        <ele>542</ele>
        <time>2018-06-10T11:58:50Z</time>
      </trkpt>
      <trkpt lat="44.6594" lon="5.0384">
        <ele>542</ele>
        <time>2018-06-10T11:58:52Z</time>
      </trkpt>
      <trkpt lat="44.65934" lon="5.03834">
        <ele>542</ele>
        <time>2018-06-10T11:58:54Z</time>
      </trkpt>
      <trkpt lat="44.65928" lon="5.03828">
        <ele>542</ele>
        <time>2018-06-10T11:58:56Z</time>
      </trkpt>
      <trkpt lat="44.65923" lon="5.03823">
        <ele>542</ele>
        <time>2018-06-10T11:58:58Z</time>
      </trkpt>
      <trkpt lat="44.65918" lon="5.03817">
        <ele>542</ele>
        <time>2018-06-10T11:59:00Z</time>
      </trkpt>
      <trkpt lat="44.65913" lon="5.0381">
        <ele>541</ele>
        <time>2018-06-10T11:59:02Z</time>
      </trkpt>
      <trkpt lat="44.65909" lon="5.03803">
        <ele>541</ele>
        <time>2018-06-10T11:59:04Z</time>
      </trkpt>
      <trkpt lat="44.659" lon="5.0379">
        <ele>541</ele>
        <time>2018-06-10T11:59:06Z</time>
      </trkpt>
      <trkpt lat="44.65895" lon="5.03781">
        <ele>541</ele>
        <time>2018-06-10T11:59:08Z</time>
      </trkpt>
      <trkpt lat="44.6589" lon="5.03774">
        <ele>541</ele>
        <time>2018-06-10T11:59:10Z</time>
      </trkpt>
      <trkpt lat="44.65884" lon="5.03764">
        <ele>540</ele>
        <time>2018-06-10T11:59:12Z</time>
      </trkpt>
      <trkpt lat="44.65878" lon="5.03752">
        <ele>541</ele>
        <time>2018-06-10T11:59:14Z</time>
      </trkpt>
      <trkpt lat="44.6587" lon="5.03744">
        <ele>541</ele>
        <time>2018-06-10T11:59:16Z</time>
      </trkpt>
      <trkpt lat="44.65858" lon="5.03738">
        <ele>540</ele>
        <time>2018-06-10T11:59:18Z</time>
      </trkpt>
      <trkpt lat="44.65847" lon="5.03739">
        <ele>540</ele>
        <time>2018-06-10T11:59:20Z</time>
      </trkpt>
      <trkpt lat="44.65835" lon="5.03736">
        <ele>539</ele>
        <time>2018-06-10T11:59:22Z</time>
      </trkpt>
      <trkpt lat="44.65822" lon="5.03737">
        <ele>538</ele>
        <time>2018-06-10T11:59:24Z</time>
      </trkpt>
      <trkpt lat="44.65812" lon="5.03743">
        <ele>537</ele>
        <time>2018-06-10T11:59:26Z</time>
      </trkpt>
      <trkpt lat="44.65801" lon="5.0375">
        <ele>535</ele>
        <time>2018-06-10T11:59:28Z</time>
      </trkpt>
      <trkpt lat="44.65793" lon="5.03761">
        <ele>533</ele>
        <time>2018-06-10T11:59:30Z</time>
      </trkpt>
      <trkpt lat="44.65786" lon="5.03767">
        <ele>531</ele>
        <time>2018-06-10T11:59:32Z</time>
      </trkpt>
      <trkpt lat="44.65775" lon="5.03772">
        <ele>530</ele>
        <time>2018-06-10T11:59:35Z</time>
      </trkpt>
      <trkpt lat="44.6576" lon="5.03774">
        <ele>529</ele>
        <time>2018-06-10T11:59:37Z</time>
      </trkpt>
      <trkpt lat="44.65747" lon="5.03775">
        <ele>527</ele>
        <time>2018-06-10T11:59:39Z</time>
      </trkpt>
      <trkpt lat="44.65734" lon="5.03773">
        <ele>527</ele>
        <time>2018-06-10T11:59:41Z</time>
      </trkpt>
      <trkpt lat="44.65723" lon="5.03772">
        <ele>524</ele>
        <time>2018-06-10T11:59:43Z</time>
      </trkpt>
      <trkpt lat="44.65713" lon="5.03774">
        <ele>524</ele>
        <time>2018-06-10T11:59:45Z</time>
      </trkpt>
      <trkpt lat="44.65704" lon="5.03775">
        <ele>522</ele>
        <time>2018-06-10T11:59:47Z</time>
      </trkpt>
      <trkpt lat="44.65695" lon="5.03778">
        <ele>522</ele>
        <time>2018-06-10T11:59:49Z</time>
      </trkpt>
      <trkpt lat="44.65685" lon="5.03778">
        <ele>521</ele>
        <time>2018-06-10T11:59:51Z</time>
      </trkpt>
      <trkpt lat="44.65675" lon="5.03778">
        <ele>521</ele>
        <time>2018-06-10T11:59:53Z</time>
      </trkpt>
      <trkpt lat="44.6567" lon="5.03776">
        <ele>521</ele>
        <time>2018-06-10T11:59:55Z</time>
      </trkpt>
      <trkpt lat="44.65665" lon="5.03776">
        <ele>521</ele>
        <time>2018-06-10T11:59:57Z</time>
      </trkpt>
      <trkpt lat="44.6566" lon="5.03776">
        <ele>521</ele>
        <time>2018-06-10T11:59:59Z</time>
      </trkpt>
      <trkpt lat="44.65654" lon="5.03777">
        <ele>520</ele>
        <time>2018-06-10T12:00:01Z</time>
      </trkpt>
      <trkpt lat="44.65647" lon="5.0378">
        <ele>520</ele>
        <time>2018-06-10T12:00:03Z</time>
      </trkpt>
      <trkpt lat="44.6564" lon="5.03785">
        <ele>519</ele>
        <time>2018-06-10T12:00:05Z</time>
      </trkpt>
      <trkpt lat="44.65632" lon="5.03792">
        <ele>518</ele>
        <time>2018-06-10T12:00:07Z</time>
      </trkpt>
      <trkpt lat="44.65616" lon="5.03803">
        <ele>517</ele>
        <time>2018-06-10T12:00:09Z</time>
      </trkpt>
      <trkpt lat="44.65604" lon="5.0381">
        <ele>515</ele>
        <time>2018-06-10T12:00:11Z</time>
      </trkpt>
      <trkpt lat="44.65593" lon="5.03821">
        <ele>515</ele>
        <time>2018-06-10T12:00:13Z</time>
      </trkpt>
      <trkpt lat="44.65585" lon="5.03828">
        <ele>514</ele>
        <time>2018-06-10T12:00:15Z</time>
      </trkpt>
      <trkpt lat="44.65576" lon="5.03833">
        <ele>513</ele>
        <time>2018-06-10T12:00:17Z</time>
      </trkpt>
      <trkpt lat="44.65572" lon="5.03842">
        <ele>513</ele>
        <time>2018-06-10T12:00:19Z</time>
      </trkpt>
      <trkpt lat="44.65567" lon="5.03849">
        <ele>512</ele>
        <time>2018-06-10T12:00:21Z</time>
      </trkpt>
      <trkpt lat="44.65564" lon="5.03863">
        <ele>511</ele>
        <time>2018-06-10T12:00:23Z</time>
      </trkpt>
      <trkpt lat="44.65562" lon="5.03876">
        <ele>511</ele>
        <time>2018-06-10T12:00:25Z</time>
      </trkpt>
      <trkpt lat="44.65557" lon="5.03885">
        <ele>511</ele>
        <time>2018-06-10T12:00:27Z</time>
      </trkpt>
      <trkpt lat="44.6555" lon="5.03895">
        <ele>510</ele>
        <time>2018-06-10T12:00:29Z</time>
      </trkpt>
      <trkpt lat="44.6554" lon="5.03895">
        <ele>508</ele>
        <time>2018-06-10T12:00:31Z</time>
      </trkpt>
      <trkpt lat="44.65526" lon="5.03897">
        <ele>508</ele>
        <time>2018-06-10T12:00:33Z</time>
      </trkpt>
      <trkpt lat="44.65514" lon="5.039">
        <ele>507</ele>
        <time>2018-06-10T12:00:35Z</time>
      </trkpt>
      <trkpt lat="44.65504" lon="5.03906">
        <ele>506</ele>
        <time>2018-06-10T12:00:37Z</time>
      </trkpt>
      <trkpt lat="44.65493" lon="5.03914">
        <ele>506</ele>
        <time>2018-06-10T12:00:39Z</time>
      </trkpt>
      <trkpt lat="44.65478" lon="5.03918">
        <ele>505</ele>
        <time>2018-06-10T12:00:42Z</time>
      </trkpt>
      <trkpt lat="44.65463" lon="5.03923">
        <ele>503</ele>
        <time>2018-06-10T12:00:44Z</time>
      </trkpt>
      <trkpt lat="44.65449" lon="5.03927">
        <ele>502</ele>
        <time>2018-06-10T12:00:46Z</time>
      </trkpt>
      <trkpt lat="44.65435" lon="5.03932">
        <ele>501</ele>
        <time>2018-06-10T12:00:48Z</time>
      </trkpt>
      <trkpt lat="44.65424" lon="5.03938">
        <ele>501</ele>
        <time>2018-06-10T12:00:50Z</time>
      </trkpt>
      <trkpt lat="44.65414" lon="5.03944">
        <ele>501</ele>
        <time>2018-06-10T12:00:52Z</time>
      </trkpt>
      <trkpt lat="44.65408" lon="5.0395">
        <ele>502</ele>
        <time>2018-06-10T12:00:54Z</time>
      </trkpt>
      <trkpt lat="44.65401" lon="5.03955">
        <ele>502</ele>
        <time>2018-06-10T12:00:56Z</time>
      </trkpt>
      <trkpt lat="44.65394" lon="5.03958">
        <ele>502</ele>
        <time>2018-06-10T12:00:58Z</time>
      </trkpt>
      <trkpt lat="44.65391" lon="5.03962">
        <ele>502</ele>
        <time>2018-06-10T12:01:00Z</time>
      </trkpt>
      <trkpt lat="44.65387" lon="5.03967">
        <ele>503</ele>
        <time>2018-06-10T12:01:02Z</time>
      </trkpt>
      <trkpt lat="44.65383" lon="5.03971">
        <ele>503</ele>
        <time>2018-06-10T12:01:04Z</time>
      </trkpt>
      <trkpt lat="44.6538" lon="5.03976">
        <ele>503</ele>
        <time>2018-06-10T12:01:06Z</time>
      </trkpt>
      <trkpt lat="44.65375" lon="5.03979">
        <ele>503</ele>
        <time>2018-06-10T12:01:08Z</time>
      </trkpt>
      <trkpt lat="44.6537" lon="5.0398">
        <ele>504</ele>
        <time>2018-06-10T12:01:10Z</time>
      </trkpt>
      <trkpt lat="44.65367" lon="5.03983">
        <ele>505</ele>
        <time>2018-06-10T12:01:12Z</time>
      </trkpt>
      <trkpt lat="44.65363" lon="5.03986">
        <ele>505</ele>
        <time>2018-06-10T12:01:14Z</time>
      </trkpt>
      <trkpt lat="44.65359" lon="5.03988">
        <ele>506</ele>
        <time>2018-06-10T12:01:16Z</time>
      </trkpt>
      <trkpt lat="44.65358" lon="5.03992">
        <ele>506</ele>
        <time>2018-06-10T12:01:18Z</time>
      </trkpt>
      <trkpt lat="44.65356" lon="5.03996">
        <ele>505</ele>
        <time>2018-06-10T12:01:20Z</time>
      </trkpt>
      <trkpt lat="44.65354" lon="5.04">
        <ele>505</ele>
        <time>2018-06-10T12:01:22Z</time>
      </trkpt>
      <trkpt lat="44.65354" lon="5.04004">
        <ele>506</ele>
        <time>2018-06-10T12:01:24Z</time>
      </trkpt>
      <trkpt lat="44.65353" lon="5.04004">
        <ele>505</ele>
        <time>2018-06-10T12:01:26Z</time>
      </trkpt>
      <trkpt lat="44.65352" lon="5.04007">
        <ele>506</ele>
        <time>2018-06-10T12:01:28Z</time>
      </trkpt>
      <trkpt lat="44.65351" lon="5.0401">
        <ele>506</ele>
        <time>2018-06-10T12:01:30Z</time>
      </trkpt>
      <trkpt lat="44.65351" lon="5.04014">
        <ele>507</ele>
        <time>2018-06-10T12:01:32Z</time>
      </trkpt>
      <trkpt lat="44.65351" lon="5.04017">
        <ele>507</ele>
        <time>2018-06-10T12:01:34Z</time>
      </trkpt>
      <trkpt lat="44.6535" lon="5.04019">
        <ele>508</ele>
        <time>2018-06-10T12:01:36Z</time>
      </trkpt>
      <trkpt lat="44.65351" lon="5.04022">
        <ele>508</ele>
        <time>2018-06-10T12:01:38Z</time>
      </trkpt>
      <trkpt lat="44.65351" lon="5.04024">
        <ele>508</ele>
        <time>2018-06-10T12:01:40Z</time>
      </trkpt>
      <trkpt lat="44.65351" lon="5.04027">
        <ele>509</ele>
        <time>2018-06-10T12:01:42Z</time>
      </trkpt>
      <trkpt lat="44.65351" lon="5.0403">
        <ele>509</ele>
        <time>2018-06-10T12:01:45Z</time>
      </trkpt>
      <trkpt lat="44.65352" lon="5.04032">
        <ele>509</ele>
        <time>2018-06-10T12:01:47Z</time>
      </trkpt>
      <trkpt lat="44.65352" lon="5.04034">
        <ele>510</ele>
        <time>2018-06-10T12:01:49Z</time>
      </trkpt>
      <trkpt lat="44.65352" lon="5.04037">
        <ele>510</ele>
        <time>2018-06-10T12:01:51Z</time>
      </trkpt>
      <trkpt lat="44.65353" lon="5.0404">
        <ele>510</ele>
        <time>2018-06-10T12:01:53Z</time>
      </trkpt>
      <trkpt lat="44.65354" lon="5.04042">
        <ele>510</ele>
        <time>2018-06-10T12:01:55Z</time>
      </trkpt>
      <trkpt lat="44.65355" lon="5.04044">
        <ele>510</ele>
        <time>2018-06-10T12:01:57Z</time>
      </trkpt>
      <trkpt lat="44.65356" lon="5.04048">
        <ele>510</ele>
        <time>2018-06-10T12:01:59Z</time>
      </trkpt>
      <trkpt lat="44.65357" lon="5.04051">
        <ele>511</ele>
        <time>2018-06-10T12:02:01Z</time>
      </trkpt>
      <trkpt lat="44.65357" lon="5.04055">
        <ele>511</ele>
        <time>2018-06-10T12:02:03Z</time>
      </trkpt>
      <trkpt lat="44.65357" lon="5.04058">
        <ele>511</ele>
        <time>2018-06-10T12:02:05Z</time>
      </trkpt>
      <trkpt lat="44.65358" lon="5.04062">
        <ele>511</ele>
        <time>2018-06-10T12:02:07Z</time>
      </trkpt>
      <trkpt lat="44.65357" lon="5.04064">
        <ele>510</ele>
        <time>2018-06-10T12:02:09Z</time>
      </trkpt>
      <trkpt lat="44.65352" lon="5.04066">
        <ele>507</ele>
        <time>2018-06-10T12:02:11Z</time>
      </trkpt>
      <trkpt lat="44.65347" lon="5.04065">
        <ele>505</ele>
        <time>2018-06-10T12:02:13Z</time>
      </trkpt>
      <trkpt lat="44.6534" lon="5.04061">
        <ele>502</ele>
        <time>2018-06-10T12:02:15Z</time>
      </trkpt>
      <trkpt lat="44.65335" lon="5.04061">
        <ele>500</ele>
        <time>2018-06-10T12:02:17Z</time>
      </trkpt>
      <trkpt lat="44.65327" lon="5.04056">
        <ele>497</ele>
        <time>2018-06-10T12:02:19Z</time>
      </trkpt>
      <trkpt lat="44.6532" lon="5.04058">
        <ele>494</ele>
        <time>2018-06-10T12:02:21Z</time>
      </trkpt>
      <trkpt lat="44.65315" lon="5.04061">
        <ele>493</ele>
        <time>2018-06-10T12:02:23Z</time>
      </trkpt>
      <trkpt lat="44.65311" lon="5.04061">
        <ele>491</ele>
        <time>2018-06-10T12:02:25Z</time>
      </trkpt>
      <trkpt lat="44.65309" lon="5.04063">
        <ele>490</ele>
        <time>2018-06-10T12:02:27Z</time>
      </trkpt>
      <trkpt lat="44.65306" lon="5.04069">
        <ele>487</ele>
        <time>2018-06-10T12:02:29Z</time>
      </trkpt>
      <trkpt lat="44.65301" lon="5.04075">
        <ele>488</ele>
        <time>2018-06-10T12:02:31Z</time>
      </trkpt>
      <trkpt lat="44.65294" lon="5.04079">
        <ele>484</ele>
        <time>2018-06-10T12:02:33Z</time>
      </trkpt>
      <trkpt lat="44.65286" lon="5.04084">
        <ele>484</ele>
        <time>2018-06-10T12:02:35Z</time>
      </trkpt>
      <trkpt lat="44.65273" lon="5.04092">
        <ele>483</ele>
        <time>2018-06-10T12:02:37Z</time>
      </trkpt>
      <trkpt lat="44.6527" lon="5.04097">
        <ele>483</ele>
        <time>2018-06-10T12:02:39Z</time>
      </trkpt>
      <trkpt lat="44.65264" lon="5.041">
        <ele>483</ele>
        <time>2018-06-10T12:02:41Z</time>
      </trkpt>
      <trkpt lat="44.65258" lon="5.04103">
        <ele>482</ele>
        <time>2018-06-10T12:02:43Z</time>
      </trkpt>
      <trkpt lat="44.65253" lon="5.0411">
        <ele>483</ele>
        <time>2018-06-10T12:02:46Z</time>
      </trkpt>
      <trkpt lat="44.65248" lon="5.04114">
        <ele>483</ele>
        <time>2018-06-10T12:02:48Z</time>
      </trkpt>
      <trkpt lat="44.65243" lon="5.04116">
        <ele>483</ele>
        <time>2018-06-10T12:02:50Z</time>
      </trkpt>
      <trkpt lat="44.65238" lon="5.04118">
        <ele>484</ele>
        <time>2018-06-10T12:02:52Z</time>
      </trkpt>
      <trkpt lat="44.65235" lon="5.04121">
        <ele>484</ele>
        <time>2018-06-10T12:02:54Z</time>
      </trkpt>
      <trkpt lat="44.65232" lon="5.04123">
        <ele>485</ele>
        <time>2018-06-10T12:02:56Z</time>
      </trkpt>
      <trkpt lat="44.65228" lon="5.04125">
        <ele>485</ele>
        <time>2018-06-10T12:02:58Z</time>
      </trkpt>
      <trkpt lat="44.65227" lon="5.04128">
        <ele>486</ele>
        <time>2018-06-10T12:03:00Z</time>
      </trkpt>
      <trkpt lat="44.65226" lon="5.0413">
        <ele>486</ele>
        <time>2018-06-10T12:03:02Z</time>
      </trkpt>
      <trkpt lat="44.65225" lon="5.04133">
        <ele>486</ele>
        <time>2018-06-10T12:03:04Z</time>
      </trkpt>
      <trkpt lat="44.65224" lon="5.04135">
        <ele>486</ele>
        <time>2018-06-10T12:03:06Z</time>
      </trkpt>
      <trkpt lat="44.65221" lon="5.04135">
        <ele>486</ele>
        <time>2018-06-10T12:03:08Z</time>
      </trkpt>
      <trkpt lat="44.65217" lon="5.04133">
        <ele>484</ele>
        <time>2018-06-10T12:03:10Z</time>
      </trkpt>
      <trkpt lat="44.65213" lon="5.04132">
        <ele>482</ele>
        <time>2018-06-10T12:03:12Z</time>
      </trkpt>
      <trkpt lat="44.65209" lon="5.04131">
        <ele>482</ele>
        <time>2018-06-10T12:03:14Z</time>
      </trkpt>
      <trkpt lat="44.65203" lon="5.04129">
        <ele>479</ele>
        <time>2018-06-10T12:03:16Z</time>
      </trkpt>
      <trkpt lat="44.65196" lon="5.04123">
        <ele>478</ele>
        <time>2018-06-10T12:03:18Z</time>
      </trkpt>
      <trkpt lat="44.65188" lon="5.04121">
        <ele>477</ele>
        <time>2018-06-10T12:03:20Z</time>
      </trkpt>
      <trkpt lat="44.65182" lon="5.04118">
        <ele>475</ele>
        <time>2018-06-10T12:03:22Z</time>
      </trkpt>
      <trkpt lat="44.65174" lon="5.04115">
        <ele>474</ele>
        <time>2018-06-10T12:03:24Z</time>
      </trkpt>
      <trkpt lat="44.65164" lon="5.04113">
        <ele>473</ele>
        <time>2018-06-10T12:03:26Z</time>
      </trkpt>
      <trkpt lat="44.65156" lon="5.04109">
        <ele>471</ele>
        <time>2018-06-10T12:03:28Z</time>
      </trkpt>
      <trkpt lat="44.65146" lon="5.04105">
        <ele>469</ele>
        <time>2018-06-10T12:03:30Z</time>
      </trkpt>
      <trkpt lat="44.65138" lon="5.04099">
        <ele>467</ele>
        <time>2018-06-10T12:03:32Z</time>
      </trkpt>
      <trkpt lat="44.65128" lon="5.04089">
        <ele>465</ele>
        <time>2018-06-10T12:03:34Z</time>
      </trkpt>
      <trkpt lat="44.65121" lon="5.04079">
        <ele>463</ele>
        <time>2018-06-10T12:03:36Z</time>
      </trkpt>
      <trkpt lat="44.65113" lon="5.04066">
        <ele>462</ele>
        <time>2018-06-10T12:03:38Z</time>
      </trkpt>
      <trkpt lat="44.65103" lon="5.04065">
        <ele>459</ele>
        <time>2018-06-10T12:03:40Z</time>
      </trkpt>
      <trkpt lat="44.65089" lon="5.04056">
        <ele>458</ele>
        <time>2018-06-10T12:03:42Z</time>
      </trkpt>
      <trkpt lat="44.6508" lon="5.04045">
        <ele>455</ele>
        <time>2018-06-10T12:03:44Z</time>
      </trkpt>
      <trkpt lat="44.65071" lon="5.04039">
        <ele>454</ele>
        <time>2018-06-10T12:03:46Z</time>
      </trkpt>
      <trkpt lat="44.65067" lon="5.04035">
        <ele>450</ele>
        <time>2018-06-10T12:03:48Z</time>
      </trkpt>
      <trkpt lat="44.65061" lon="5.0403">
        <ele>450</ele>
        <time>2018-06-10T12:03:50Z</time>
      </trkpt>
      <trkpt lat="44.65055" lon="5.04026">
        <ele>448</ele>
        <time>2018-06-10T12:03:52Z</time>
      </trkpt>
      <trkpt lat="44.65051" lon="5.04018">
        <ele>447</ele>
        <time>2018-06-10T12:03:54Z</time>
      </trkpt>
      <trkpt lat="44.65045" lon="5.04011">
        <ele>445</ele>
        <time>2018-06-10T12:03:56Z</time>
      </trkpt>
      <trkpt lat="44.65037" lon="5.04009">
        <ele>443</ele>
        <time>2018-06-10T12:03:58Z</time>
      </trkpt>
      <trkpt lat="44.65032" lon="5.04001">
        <ele>442</ele>
        <time>2018-06-10T12:04:00Z</time>
      </trkpt>
      <trkpt lat="44.65027" lon="5.0399">
        <ele>441</ele>
        <time>2018-06-10T12:04:02Z</time>
      </trkpt>
      <trkpt lat="44.6502" lon="5.03981">
        <ele>439</ele>
        <time>2018-06-10T12:04:04Z</time>
      </trkpt>
      <trkpt lat="44.65017" lon="5.03969">
        <ele>439</ele>
        <time>2018-06-10T12:04:06Z</time>
      </trkpt>
      <trkpt lat="44.65014" lon="5.03962">
        <ele>437</ele>
        <time>2018-06-10T12:04:08Z</time>
      </trkpt>
      <trkpt lat="44.6501" lon="5.03956">
        <ele>437</ele>
        <time>2018-06-10T12:04:10Z</time>
      </trkpt>
      <trkpt lat="44.65004" lon="5.03946">
        <ele>436</ele>
        <time>2018-06-10T12:04:12Z</time>
      </trkpt>
      <trkpt lat="44.65" lon="5.0394">
        <ele>436</ele>
        <time>2018-06-10T12:04:14Z</time>
      </trkpt>
      <trkpt lat="44.64993" lon="5.03933">
        <ele>435</ele>
        <time>2018-06-10T12:04:16Z</time>
      </trkpt>
      <trkpt lat="44.64985" lon="5.03935">
        <ele>434</ele>
        <time>2018-06-10T12:04:18Z</time>
      </trkpt>
      <trkpt lat="44.64977" lon="5.03938">
        <ele>433</ele>
        <time>2018-06-10T12:04:21Z</time>
      </trkpt>
      <trkpt lat="44.64974" lon="5.03938">
        <ele>432</ele>
        <time>2018-06-10T12:04:23Z</time>
      </trkpt>
      <trkpt lat="44.64971" lon="5.03935">
        <ele>432</ele>
        <time>2018-06-10T12:04:25Z</time>
      </trkpt>
      <trkpt lat="44.64969" lon="5.03932">
        <ele>431</ele>
        <time>2018-06-10T12:04:27Z</time>
      </trkpt>
      <trkpt lat="44.64965" lon="5.03927">
        <ele>429</ele>
        <time>2018-06-10T12:04:29Z</time>
      </trkpt>
      <trkpt lat="44.64959" lon="5.03922">
        <ele>427</ele>
        <time>2018-06-10T12:04:31Z</time>
      </trkpt>
      <trkpt lat="44.6495" lon="5.03917">
        <ele>425</ele>
        <time>2018-06-10T12:04:33Z</time>
      </trkpt>
      <trkpt lat="44.64938" lon="5.03912">
        <ele>422</ele>
        <time>2018-06-10T12:04:35Z</time>
      </trkpt>
      <trkpt lat="44.64927" lon="5.03911">
        <ele>422</ele>
        <time>2018-06-10T12:04:37Z</time>
      </trkpt>
      <trkpt lat="44.64918" lon="5.0391">
        <ele>419</ele>
        <time>2018-06-10T12:04:39Z</time>
      </trkpt>
      <trkpt lat="44.64909" lon="5.03906">
        <ele>418</ele>
        <time>2018-06-10T12:04:41Z</time>
      </trkpt>
      <trkpt lat="44.64899" lon="5.03907">
        <ele>415</ele>
        <time>2018-06-10T12:04:43Z</time>
      </trkpt>
      <trkpt lat="44.64893" lon="5.03908">
        <ele>414</ele>
        <time>2018-06-10T12:04:45Z</time>
      </trkpt>
      <trkpt lat="44.64889" lon="5.03905">
        <ele>413</ele>
        <time>2018-06-10T12:04:47Z</time>
      </trkpt>
      <trkpt lat="44.64884" lon="5.039">
        <ele>413</ele>
        <time>2018-06-10T12:04:49Z</time>
      </trkpt>
      <trkpt lat="44.64882" lon="5.03895">
        <ele>412</ele>
        <time>2018-06-10T12:04:51Z</time>
      </trkpt>
      <trkpt lat="44.64878" lon="5.03889">
        <ele>410</ele>
        <time>2018-06-10T12:04:53Z</time>
      </trkpt>
      <trkpt lat="44.64871" lon="5.03883">
        <ele>410</ele>
        <time>2018-06-10T12:04:55Z</time>
      </trkpt>
      <trkpt lat="44.64858" lon="5.03881">
        <ele>409</ele>
        <time>2018-06-10T12:04:57Z</time>
      </trkpt>
      <trkpt lat="44.64854" lon="5.03879">
        <ele>408</ele>
        <time>2018-06-10T12:04:59Z</time>
      </trkpt>
      <trkpt lat="44.64846" lon="5.03867">
        <ele>408</ele>
        <time>2018-06-10T12:05:01Z</time>
      </trkpt>
      <trkpt lat="44.64842" lon="5.03867">
        <ele>408</ele>
        <time>2018-06-10T12:05:03Z</time>
      </trkpt>
      <trkpt lat="44.64834" lon="5.03864">
        <ele>407</ele>
        <time>2018-06-10T12:05:05Z</time>
      </trkpt>
      <trkpt lat="44.64823" lon="5.03857">
        <ele>405</ele>
        <time>2018-06-10T12:05:07Z</time>
      </trkpt>
      <trkpt lat="44.64813" lon="5.03846">
        <ele>404</ele>
        <time>2018-06-10T12:05:09Z</time>
      </trkpt>
      <trkpt lat="44.648" lon="5.03832">
        <ele>402</ele>
        <time>2018-06-10T12:05:12Z</time>
      </trkpt>
      <trkpt lat="44.6479" lon="5.03814">
        <ele>401</ele>
        <time>2018-06-10T12:05:14Z</time>
      </trkpt>
      <trkpt lat="44.64783" lon="5.03793">
        <ele>400</ele>
        <time>2018-06-10T12:05:16Z</time>
      </trkpt>
      <trkpt lat="44.64774" lon="5.03769">
        <ele>399</ele>
        <time>2018-06-10T12:05:18Z</time>
      </trkpt>
      <trkpt lat="44.64767" lon="5.03748">
        <ele>394</ele>
        <time>2018-06-10T12:05:20Z</time>
      </trkpt>
      <trkpt lat="44.64762" lon="5.03736">
        <ele>394</ele>
        <time>2018-06-10T12:05:22Z</time>
      </trkpt>
      <trkpt lat="44.64756" lon="5.03731">
        <ele>394</ele>
        <time>2018-06-10T12:05:24Z</time>
      </trkpt>
      <trkpt lat="44.64751" lon="5.03729">
        <ele>394</ele>
        <time>2018-06-10T12:05:26Z</time>
      </trkpt>
      <trkpt lat="44.64747" lon="5.03731">
        <ele>394</ele>
        <time>2018-06-10T12:05:28Z</time>
      </trkpt>
      <trkpt lat="44.64742" lon="5.03734">
        <ele>393</ele>
        <time>2018-06-10T12:05:30Z</time>
      </trkpt>
      <trkpt lat="44.64737" lon="5.03737">
        <ele>393</ele>
        <time>2018-06-10T12:05:32Z</time>
      </trkpt>
      <trkpt lat="44.64733" lon="5.03741">
        <ele>393</ele>
        <time>2018-06-10T12:05:34Z</time>
      </trkpt>
      <trkpt lat="44.64728" lon="5.03744">
        <ele>393</ele>
        <time>2018-06-10T12:05:36Z</time>
      </trkpt>
      <trkpt lat="44.64722" lon="5.03748">
        <ele>393</ele>
        <time>2018-06-10T12:05:39Z</time>
      </trkpt>
      <trkpt lat="44.64716" lon="5.03752">
        <ele>393</ele>
        <time>2018-06-10T12:05:41Z</time>
      </trkpt>
      <trkpt lat="44.6471" lon="5.03757">
        <ele>392</ele>
        <time>2018-06-10T12:05:43Z</time>
      </trkpt>
      <trkpt lat="44.64703" lon="5.03761">
        <ele>392</ele>
        <time>2018-06-10T12:05:45Z</time>
      </trkpt>
      <trkpt lat="44.64696" lon="5.03766">
        <ele>392</ele>
        <time>2018-06-10T12:05:47Z</time>
      </trkpt>
      <trkpt lat="44.64688" lon="5.03772">
        <ele>392</ele>
        <time>2018-06-10T12:05:49Z</time>
      </trkpt>
      <trkpt lat="44.64679" lon="5.03777">
        <ele>391</ele>
        <time>2018-06-10T12:05:51Z</time>
      </trkpt>
      <trkpt lat="44.64674" lon="5.03779">
        <ele>390</ele>
        <time>2018-06-10T12:05:53Z</time>
      </trkpt>
      <trkpt lat="44.64672" lon="5.0378">
        <ele>390</ele>
        <time>2018-06-10T12:05:55Z</time>
      </trkpt>
      <trkpt lat="44.64673" lon="5.03782">
        <ele>390</ele>
        <time>2018-06-10T12:05:57Z</time>
      </trkpt>
      <trkpt lat="44.64672" lon="5.03782">
        <ele>391</ele>
        <time>2018-06-10T12:05:59Z</time>
      </trkpt>
      <trkpt lat="44.64669" lon="5.03785">
        <ele>390</ele>
        <time>2018-06-10T12:06:01Z</time>
      </trkpt>
      <trkpt lat="44.64664" lon="5.03788">
        <ele>391</ele>
        <time>2018-06-10T12:06:03Z</time>
      </trkpt>
      <trkpt lat="44.64659" lon="5.03791">
        <ele>390</ele>
        <time>2018-06-10T12:06:05Z</time>
      </trkpt>
      <trkpt lat="44.64649" lon="5.03797">
        <ele>390</ele>
        <time>2018-06-10T12:06:07Z</time>
      </trkpt>
      <trkpt lat="44.64641" lon="5.03802">
        <ele>389</ele>
        <time>2018-06-10T12:06:09Z</time>
      </trkpt>
      <trkpt lat="44.64631" lon="5.03809">
        <ele>389</ele>
        <time>2018-06-10T12:06:11Z</time>
      </trkpt>
      <trkpt lat="44.64621" lon="5.03818">
        <ele>389</ele>
        <time>2018-06-10T12:06:13Z</time>
      </trkpt>
      <trkpt lat="44.6461" lon="5.03828">
        <ele>389</ele>
        <time>2018-06-10T12:06:15Z</time>
      </trkpt>
      <trkpt lat="44.64599" lon="5.03842">
        <ele>388</ele>
        <time>2018-06-10T12:06:17Z</time>
      </trkpt>
      <trkpt lat="44.64591" lon="5.03861">
        <ele>387</ele>
        <time>2018-06-10T12:06:19Z</time>
      </trkpt>
      <trkpt lat="44.64587" lon="5.03883">
        <ele>385</ele>
        <time>2018-06-10T12:06:21Z</time>
      </trkpt>
      <trkpt lat="44.64587" lon="5.03904">
        <ele>385</ele>
        <time>2018-06-10T12:06:23Z</time>
      </trkpt>
      <trkpt lat="44.64589" lon="5.03921">
        <ele>383</ele>
        <time>2018-06-10T12:06:25Z</time>
      </trkpt>
      <trkpt lat="44.64583" lon="5.03928">
        <ele>383</ele>
        <time>2018-06-10T12:06:27Z</time>
      </trkpt>
      <trkpt lat="44.64574" lon="5.03925">
        <ele>382</ele>
        <time>2018-06-10T12:06:29Z</time>
      </trkpt>
      <trkpt lat="44.64566" lon="5.03919">
        <ele>382</ele>
        <time>2018-06-10T12:06:31Z</time>
      </trkpt>
      <trkpt lat="44.64558" lon="5.03912">
        <ele>382</ele>
        <time>2018-06-10T12:06:33Z</time>
      </trkpt>
      <trkpt lat="44.64551" lon="5.03904">
        <ele>383</ele>
        <time>2018-06-10T12:06:35Z</time>
      </trkpt>
      <trkpt lat="44.64545" lon="5.03896">
        <ele>383</ele>
        <time>2018-06-10T12:06:37Z</time>
      </trkpt>
      <trkpt lat="44.64538" lon="5.03889">
        <ele>384</ele>
        <time>2018-06-10T12:06:39Z</time>
      </trkpt>
      <trkpt lat="44.64529" lon="5.03883">
        <ele>382</ele>
        <time>2018-06-10T12:06:41Z</time>
      </trkpt>
      <trkpt lat="44.64517" lon="5.03879">
        <ele>381</ele>
        <time>2018-06-10T12:06:43Z</time>
      </trkpt>
      <trkpt lat="44.64504" lon="5.03878">
        <ele>381</ele>
        <time>2018-06-10T12:06:45Z</time>
      </trkpt>
      <trkpt lat="44.6449" lon="5.03877">
        <ele>379</ele>
        <time>2018-06-10T12:06:47Z</time>
      </trkpt>
      <trkpt lat="44.64476" lon="5.03874">
        <ele>379</ele>
        <time>2018-06-10T12:06:49Z</time>
      </trkpt>
      <trkpt lat="44.64462" lon="5.03873">
        <ele>378</ele>
        <time>2018-06-10T12:06:52Z</time>
      </trkpt>
      <trkpt lat="44.64448" lon="5.03879">
        <ele>378</ele>
        <time>2018-06-10T12:06:54Z</time>
      </trkpt>
      <trkpt lat="44.64442" lon="5.03896">
        <ele>377</ele>
        <time>2018-06-10T12:06:56Z</time>
      </trkpt>
      <trkpt lat="44.64442" lon="5.0391">
        <ele>376</ele>
        <time>2018-06-10T12:06:58Z</time>
      </trkpt>
      <trkpt lat="44.64441" lon="5.03912">
        <ele>376</ele>
        <time>2018-06-10T12:07:00Z</time>
      </trkpt>
      <trkpt lat="44.6444" lon="5.03911">
        <ele>376</ele>
        <time>2018-06-10T12:07:02Z</time>
      </trkpt>
      <trkpt lat="44.64433" lon="5.03908">
        <ele>376</ele>
        <time>2018-06-10T12:07:04Z</time>
      </trkpt>
      <trkpt lat="44.64424" lon="5.0391">
        <ele>376</ele>
        <time>2018-06-10T12:07:06Z</time>
      </trkpt>
      <trkpt lat="44.64414" lon="5.03918">
        <ele>375</ele>
        <time>2018-06-10T12:07:08Z</time>
      </trkpt>
      <trkpt lat="44.64404" lon="5.03927">
        <ele>375</ele>
        <time>2018-06-10T12:07:10Z</time>
      </trkpt>
      <trkpt lat="44.64394" lon="5.03936">
        <ele>375</ele>
        <time>2018-06-10T12:07:12Z</time>
      </trkpt>
      <trkpt lat="44.64383" lon="5.03943">
        <ele>376</ele>
        <time>2018-06-10T12:07:14Z</time>
      </trkpt>
      <trkpt lat="44.64372" lon="5.03948">
        <ele>375</ele>
        <time>2018-06-10T12:07:16Z</time>
      </trkpt>
      <trkpt lat="44.64361" lon="5.03953">
        <ele>375</ele>
        <time>2018-06-10T12:07:18Z</time>
      </trkpt>
      <trkpt lat="44.6435" lon="5.03958">
        <ele>375</ele>
        <time>2018-06-10T12:07:20Z</time>
      </trkpt>
      <trkpt lat="44.64341" lon="5.03963">
        <ele>375</ele>
        <time>2018-06-10T12:07:22Z</time>
      </trkpt>
      <trkpt lat="44.64332" lon="5.03967">
        <ele>376</ele>
        <time>2018-06-10T12:07:24Z</time>
      </trkpt>
      <trkpt lat="44.64321" lon="5.0397">
        <ele>375</ele>
        <time>2018-06-10T12:07:26Z</time>
      </trkpt>
      <trkpt lat="44.6431" lon="5.03972">
        <ele>375</ele>
        <time>2018-06-10T12:07:28Z</time>
      </trkpt>
      <trkpt lat="44.64297" lon="5.03974">
        <ele>374</ele>
        <time>2018-06-10T12:07:30Z</time>
      </trkpt>
      <trkpt lat="44.64284" lon="5.03976">
        <ele>373</ele>
        <time>2018-06-10T12:07:32Z</time>
      </trkpt>
      <trkpt lat="44.64271" lon="5.03977">
        <ele>373</ele>
        <time>2018-06-10T12:07:34Z</time>
      </trkpt>
      <trkpt lat="44.64259" lon="5.03982">
        <ele>373</ele>
        <time>2018-06-10T12:07:36Z</time>
      </trkpt>
      <trkpt lat="44.64246" lon="5.03987">
        <ele>372</ele>
        <time>2018-06-10T12:07:38Z</time>
      </trkpt>
      <trkpt lat="44.64233" lon="5.03983">
        <ele>372</ele>
        <time>2018-06-10T12:07:40Z</time>
      </trkpt>
      <trkpt lat="44.64222" lon="5.03978">
        <ele>372</ele>
        <time>2018-06-10T12:07:42Z</time>
      </trkpt>
      <trkpt lat="44.64211" lon="5.03973">
        <ele>371</ele>
        <time>2018-06-10T12:07:44Z</time>
      </trkpt>
      <trkpt lat="44.64197" lon="5.03975">
        <ele>369</ele>
        <time>2018-06-10T12:07:46Z</time>
      </trkpt>
      <trkpt lat="44.64184" lon="5.0398">
        <ele>369</ele>
        <time>2018-06-10T12:07:48Z</time>
      </trkpt>
      <trkpt lat="44.64175" lon="5.03985">
        <ele>368</ele>
        <time>2018-06-10T12:07:50Z</time>
      </trkpt>
      <trkpt lat="44.64176" lon="5.03997">
        <ele>367</ele>
        <time>2018-06-10T12:07:52Z</time>
      </trkpt>
      <trkpt lat="44.64181" lon="5.04011">
        <ele>366</ele>
        <time>2018-06-10T12:07:55Z</time>
      </trkpt>
      <trkpt lat="44.64186" lon="5.04026">
        <ele>366</ele>
        <time>2018-06-10T12:07:57Z</time>
      </trkpt>
      <trkpt lat="44.64185" lon="5.04033">
        <ele>364</ele>
        <time>2018-06-10T12:07:59Z</time>
      </trkpt>
      <trkpt lat="44.64184" lon="5.04035">
        <ele>364</ele>
        <time>2018-06-10T12:08:01Z</time>
      </trkpt>
      <trkpt lat="44.64182" lon="5.0404">
        <ele>363</ele>
        <time>2018-06-10T12:08:03Z</time>
      </trkpt>
      <trkpt lat="44.64174" lon="5.04044">
        <ele>362</ele>
        <time>2018-06-10T12:08:05Z</time>
      </trkpt>
      <trkpt lat="44.64169" lon="5.0405">
        <ele>362</ele>
        <time>2018-06-10T12:08:07Z</time>
      </trkpt>
      <trkpt lat="44.64162" lon="5.04061">
        <ele>361</ele>
        <time>2018-06-10T12:08:09Z</time>
      </trkpt>
      <trkpt lat="44.64159" lon="5.04065">
        <ele>361</ele>
        <time>2018-06-10T12:08:11Z</time>
      </trkpt>
      <trkpt lat="44.64157" lon="5.04074">
        <ele>361</ele>
        <time>2018-06-10T12:08:13Z</time>
      </trkpt>
      <trkpt lat="44.64153" lon="5.04084">
        <ele>360</ele>
        <time>2018-06-10T12:08:15Z</time>
      </trkpt>
      <trkpt lat="44.64148" lon="5.04095">
        <ele>360</ele>
        <time>2018-06-10T12:08:17Z</time>
      </trkpt>
      <trkpt lat="44.64144" lon="5.04107">
        <ele>359</ele>
        <time>2018-06-10T12:08:19Z</time>
      </trkpt>
      <trkpt lat="44.6414" lon="5.04121">
        <ele>358</ele>
        <time>2018-06-10T12:08:21Z</time>
      </trkpt>
      <trkpt lat="44.64138" lon="5.04135">
        <ele>358</ele>
        <time>2018-06-10T12:08:23Z</time>
      </trkpt>
      <trkpt lat="44.6414" lon="5.04146">
        <ele>357</ele>
        <time>2018-06-10T12:08:25Z</time>
      </trkpt>
      <trkpt lat="44.64142" lon="5.04152">
        <ele>356</ele>
        <time>2018-06-10T12:08:27Z</time>
      </trkpt>
      <trkpt lat="44.64142" lon="5.04153">
        <ele>356</ele>
        <time>2018-06-10T12:08:29Z</time>
      </trkpt>
      <trkpt lat="44.64141" lon="5.04156">
        <ele>356</ele>
        <time>2018-06-10T12:08:31Z</time>
      </trkpt>
      <trkpt lat="44.64142" lon="5.04159">
        <ele>356</ele>
        <time>2018-06-10T12:08:33Z</time>
      </trkpt>
      <trkpt lat="44.64141" lon="5.04162">
        <ele>356</ele>
        <time>2018-06-10T12:08:35Z</time>
      </trkpt>
      <trkpt lat="44.64144" lon="5.04169">
        <ele>355</ele>
        <time>2018-06-10T12:08:37Z</time>
      </trkpt>
      <trkpt lat="44.64145" lon="5.04179">
        <ele>355</ele>
        <time>2018-06-10T12:08:39Z</time>
      </trkpt>
      <trkpt lat="44.64145" lon="5.04192">
        <ele>354</ele>
        <time>2018-06-10T12:08:42Z</time>
      </trkpt>
      <trkpt lat="44.64146" lon="5.04207">
        <ele>353</ele>
        <time>2018-06-10T12:08:44Z</time>
      </trkpt>
      <trkpt lat="44.64148" lon="5.0422">
        <ele>353</ele>
        <time>2018-06-10T12:08:46Z</time>
      </trkpt>
      <trkpt lat="44.64152" lon="5.04231">
        <ele>352</ele>
        <time>2018-06-10T12:08:48Z</time>
      </trkpt>
      <trkpt lat="44.64152" lon="5.04239">
        <ele>352</ele>
        <time>2018-06-10T12:08:50Z</time>
      </trkpt>
      <trkpt lat="44.64148" lon="5.04244">
        <ele>352</ele>
        <time>2018-06-10T12:08:52Z</time>
      </trkpt>
      <trkpt lat="44.64147" lon="5.04254">
        <ele>352</ele>
        <time>2018-06-10T12:08:54Z</time>
      </trkpt>
      <trkpt lat="44.64144" lon="5.04261">
        <ele>352</ele>
        <time>2018-06-10T12:08:56Z</time>
      </trkpt>
      <trkpt lat="44.64141" lon="5.04277">
        <ele>352</ele>
        <time>2018-06-10T12:08:58Z</time>
      </trkpt>
      <trkpt lat="44.64138" lon="5.04284">
        <ele>352</ele>
        <time>2018-06-10T12:09:00Z</time>
      </trkpt>
      <trkpt lat="44.64133" lon="5.04295">
        <ele>352</ele>
        <time>2018-06-10T12:09:02Z</time>
      </trkpt>
      <trkpt lat="44.6413" lon="5.04304">
        <ele>352</ele>
        <time>2018-06-10T12:09:04Z</time>
      </trkpt>
      <trkpt lat="44.64128" lon="5.04313">
        <ele>353</ele>
        <time>2018-06-10T12:09:06Z</time>
      </trkpt>
      <trkpt lat="44.64127" lon="5.04324">
        <ele>352</ele>
        <time>2018-06-10T12:09:08Z</time>
      </trkpt>
      <trkpt lat="44.64123" lon="5.04336">
        <ele>353</ele>
        <time>2018-06-10T12:09:10Z</time>
      </trkpt>
      <trkpt lat="44.64119" lon="5.0434">
        <ele>354</ele>
        <time>2018-06-10T12:09:12Z</time>
      </trkpt>
      <trkpt lat="44.64117" lon="5.04345">
        <ele>354</ele>
        <time>2018-06-10T12:09:14Z</time>
      </trkpt>
      <trkpt lat="44.64115" lon="5.04351">
        <ele>354</ele>
        <time>2018-06-10T12:09:16Z</time>
      </trkpt>
      <trkpt lat="44.64115" lon="5.04356">
        <ele>354</ele>
        <time>2018-06-10T12:09:18Z</time>
      </trkpt>
      <trkpt lat="44.64116" lon="5.04367">
        <ele>353</ele>
        <time>2018-06-10T12:09:20Z</time>
      </trkpt>
      <trkpt lat="44.64112" lon="5.04379">
        <ele>350</ele>
        <time>2018-06-10T12:09:22Z</time>
      </trkpt>
      <trkpt lat="44.64108" lon="5.04391">
        <ele>350</ele>
        <time>2018-06-10T12:09:24Z</time>
      </trkpt>
      <trkpt lat="44.64104" lon="5.04404">
        <ele>350</ele>
        <time>2018-06-10T12:09:26Z</time>
      </trkpt>
      <trkpt lat="44.64101" lon="5.04417">
        <ele>350</ele>
        <time>2018-06-10T12:09:28Z</time>
      </trkpt>
      <trkpt lat="44.64099" lon="5.04431">
        <ele>349</ele>
        <time>2018-06-10T12:09:30Z</time>
      </trkpt>
      <trkpt lat="44.64096" lon="5.04445">
        <ele>349</ele>
        <time>2018-06-10T12:09:32Z</time>
      </trkpt>
      <trkpt lat="44.64091" lon="5.04459">
        <ele>349</ele>
        <time>2018-06-10T12:09:35Z</time>
      </trkpt>
      <trkpt lat="44.64088" lon="5.04468">
        <ele>348</ele>
        <time>2018-06-10T12:09:37Z</time>
      </trkpt>
      <trkpt lat="44.64085" lon="5.04479">
        <ele>347</ele>
        <time>2018-06-10T12:09:39Z</time>
      </trkpt>
      <trkpt lat="44.64082" lon="5.04492">
        <ele>346</ele>
        <time>2018-06-10T12:09:41Z</time>
      </trkpt>
      <trkpt lat="44.64078" lon="5.04503">
        <ele>345</ele>
        <time>2018-06-10T12:09:43Z</time>
      </trkpt>
      <trkpt lat="44.64075" lon="5.04515">
        <ele>345</ele>
        <time>2018-06-10T12:09:45Z</time>
      </trkpt>
      <trkpt lat="44.64071" lon="5.04526">
        <ele>344</ele>
        <time>2018-06-10T12:09:47Z</time>
      </trkpt>
      <trkpt lat="44.64067" lon="5.04543">
        <ele>344</ele>
        <time>2018-06-10T12:09:49Z</time>
      </trkpt>
      <trkpt lat="44.64064" lon="5.04553">
        <ele>343</ele>
        <time>2018-06-10T12:09:51Z</time>
      </trkpt>
      <trkpt lat="44.64061" lon="5.04565">
        <ele>342</ele>
        <time>2018-06-10T12:09:53Z</time>
      </trkpt>
      <trkpt lat="44.64059" lon="5.04576">
        <ele>341</ele>
        <time>2018-06-10T12:09:55Z</time>
      </trkpt>
      <trkpt lat="44.64057" lon="5.04588">
        <ele>340</ele>
        <time>2018-06-10T12:09:57Z</time>
      </trkpt>
      <trkpt lat="44.64055" lon="5.04597">
        <ele>339</ele>
        <time>2018-06-10T12:09:59Z</time>
      </trkpt>
      <trkpt lat="44.64054" lon="5.04607">
        <ele>339</ele>
        <time>2018-06-10T12:10:01Z</time>
      </trkpt>
      <trkpt lat="44.64053" lon="5.04615">
        <ele>339</ele>
        <time>2018-06-10T12:10:03Z</time>
      </trkpt>
      <trkpt lat="44.64053" lon="5.04623">
        <ele>338</ele>
        <time>2018-06-10T12:10:05Z</time>
      </trkpt>
      <trkpt lat="44.64051" lon="5.04629">
        <ele>337</ele>
        <time>2018-06-10T12:10:07Z</time>
      </trkpt>
      <trkpt lat="44.6405" lon="5.04636">
        <ele>337</ele>
        <time>2018-06-10T12:10:09Z</time>
      </trkpt>
      <trkpt lat="44.64049" lon="5.04644">
        <ele>337</ele>
        <time>2018-06-10T12:10:11Z</time>
      </trkpt>
      <trkpt lat="44.64048" lon="5.04652">
        <ele>337</ele>
        <time>2018-06-10T12:10:13Z</time>
      </trkpt>
      <trkpt lat="44.64047" lon="5.04661">
        <ele>336</ele>
        <time>2018-06-10T12:10:15Z</time>
      </trkpt>
      <trkpt lat="44.64047" lon="5.0467">
        <ele>335</ele>
        <time>2018-06-10T12:10:17Z</time>
      </trkpt>
      <trkpt lat="44.64046" lon="5.04679">
        <ele>335</ele>
        <time>2018-06-10T12:10:19Z</time>
      </trkpt>
      <trkpt lat="44.64045" lon="5.04688">
        <ele>335</ele>
        <time>2018-06-10T12:10:21Z</time>
      </trkpt>
      <trkpt lat="44.64045" lon="5.04697">
        <ele>334</ele>
        <time>2018-06-10T12:10:23Z</time>
      </trkpt>
      <trkpt lat="44.64044" lon="5.04707">
        <ele>334</ele>
        <time>2018-06-10T12:10:25Z</time>
      </trkpt>
      <trkpt lat="44.64044" lon="5.04716">
        <ele>333</ele>
        <time>2018-06-10T12:10:27Z</time>
      </trkpt>
      <trkpt lat="44.64043" lon="5.04724">
        <ele>333</ele>
        <time>2018-06-10T12:10:30Z</time>
      </trkpt>
      <trkpt lat="44.64042" lon="5.04732">
        <ele>333</ele>
        <time>2018-06-10T12:10:32Z</time>
      </trkpt>
      <trkpt lat="44.64041" lon="5.04741">
        <ele>333</ele>
        <time>2018-06-10T12:10:34Z</time>
      </trkpt>
      <trkpt lat="44.64039" lon="5.04752">
        <ele>332</ele>
        <time>2018-06-10T12:10:36Z</time>
      </trkpt>
      <trkpt lat="44.64036" lon="5.04764">
        <ele>332</ele>
        <time>2018-06-10T12:10:38Z</time>
      </trkpt>
      <trkpt lat="44.64032" lon="5.04775">
        <ele>331</ele>
        <time>2018-06-10T12:10:40Z</time>
      </trkpt>
      <trkpt lat="44.64026" lon="5.04786">
        <ele>331</ele>
        <time>2018-06-10T12:10:42Z</time>
      </trkpt>
      <trkpt lat="44.64022" lon="5.04795">
        <ele>331</ele>
        <time>2018-06-10T12:10:44Z</time>
      </trkpt>
      <trkpt lat="44.6402" lon="5.04801">
        <ele>331</ele>
        <time>2018-06-10T12:10:46Z</time>
      </trkpt>
      <trkpt lat="44.64017" lon="5.04804">
        <ele>331</ele>
        <time>2018-06-10T12:10:48Z</time>
      </trkpt>
      <trkpt lat="44.64012" lon="5.04808">
        <ele>330</ele>
        <time>2018-06-10T12:10:50Z</time>
      </trkpt>
      <trkpt lat="44.6401" lon="5.04811">
        <ele>330</ele>
        <time>2018-06-10T12:10:52Z</time>
      </trkpt>
      <trkpt lat="44.64007" lon="5.04815">
        <ele>330</ele>
        <time>2018-06-10T12:10:54Z</time>
      </trkpt>
      <trkpt lat="44.64004" lon="5.0482">
        <ele>330</ele>
        <time>2018-06-10T12:10:56Z</time>
      </trkpt>
      <trkpt lat="44.64" lon="5.04825">
        <ele>330</ele>
        <time>2018-06-10T12:10:58Z</time>
      </trkpt>
      <trkpt lat="44.63997" lon="5.04831">
        <ele>330</ele>
        <time>2018-06-10T12:11:00Z</time>
      </trkpt>
      <trkpt lat="44.63993" lon="5.04835">
        <ele>330</ele>
        <time>2018-06-10T12:11:02Z</time>
      </trkpt>
      <trkpt lat="44.6399" lon="5.0484">
        <ele>330</ele>
        <time>2018-06-10T12:11:04Z</time>
      </trkpt>
      <trkpt lat="44.63986" lon="5.04846">
        <ele>330</ele>
        <time>2018-06-10T12:11:06Z</time>
      </trkpt>
      <trkpt lat="44.63984" lon="5.04854">
        <ele>330</ele>
        <time>2018-06-10T12:11:08Z</time>
      </trkpt>
      <trkpt lat="44.63982" lon="5.04863">
        <ele>330</ele>
        <time>2018-06-10T12:11:10Z</time>
      </trkpt>
      <trkpt lat="44.63981" lon="5.04872">
        <ele>330</ele>
        <time>2018-06-10T12:11:12Z</time>
      </trkpt>
      <trkpt lat="44.63981" lon="5.04881">
        <ele>330</ele>
        <time>2018-06-10T12:11:14Z</time>
      </trkpt>
      <trkpt lat="44.63981" lon="5.04889">
        <ele>330</ele>
        <time>2018-06-10T12:11:16Z</time>
      </trkpt>
      <trkpt lat="44.63984" lon="5.04897">
        <ele>330</ele>
        <time>2018-06-10T12:11:18Z</time>
      </trkpt>
      <trkpt lat="44.63988" lon="5.04903">
        <ele>330</ele>
        <time>2018-06-10T12:11:20Z</time>
      </trkpt>
      <trkpt lat="44.63992" lon="5.04909">
        <ele>330</ele>
        <time>2018-06-10T12:11:22Z</time>
      </trkpt>
      <trkpt lat="44.63998" lon="5.04914">
        <ele>330</ele>
        <time>2018-06-10T12:11:24Z</time>
      </trkpt>
      <trkpt lat="44.64003" lon="5.0492">
        <ele>330</ele>
        <time>2018-06-10T12:11:26Z</time>
      </trkpt>
      <trkpt lat="44.64009" lon="5.04926">
        <ele>330</ele>
        <time>2018-06-10T12:11:28Z</time>
      </trkpt>
      <trkpt lat="44.64012" lon="5.04932">
        <ele>330</ele>
        <time>2018-06-10T12:11:30Z</time>
      </trkpt>
      <trkpt lat="44.64011" lon="5.04938">
        <ele>330</ele>
        <time>2018-06-10T12:11:32Z</time>
      </trkpt>
      <trkpt lat="44.64004" lon="5.04945">
        <ele>330</ele>
        <time>2018-06-10T12:11:34Z</time>
      </trkpt>
      <trkpt lat="44.63996" lon="5.0495">
        <ele>329</ele>
        <time>2018-06-10T12:11:36Z</time>
      </trkpt>
      <trkpt lat="44.63986" lon="5.04955">
        <ele>329</ele>
        <time>2018-06-10T12:11:38Z</time>
      </trkpt>
      <trkpt lat="44.63976" lon="5.04958">
        <ele>329</ele>
        <time>2018-06-10T12:11:40Z</time>
      </trkpt>
      <trkpt lat="44.63967" lon="5.04962">
        <ele>328</ele>
        <time>2018-06-10T12:11:43Z</time>
      </trkpt>
      <trkpt lat="44.63957" lon="5.04966">
        <ele>329</ele>
        <time>2018-06-10T12:11:45Z</time>
      </trkpt>
      <trkpt lat="44.63946" lon="5.04972">
        <ele>328</ele>
        <time>2018-06-10T12:11:47Z</time>
      </trkpt>
      <trkpt lat="44.63935" lon="5.04977">
        <ele>328</ele>
        <time>2018-06-10T12:11:49Z</time>
      </trkpt>
      <trkpt lat="44.63924" lon="5.04982">
        <ele>328</ele>
        <time>2018-06-10T12:11:51Z</time>
      </trkpt>
      <trkpt lat="44.63912" lon="5.04986">
        <ele>328</ele>
        <time>2018-06-10T12:11:53Z</time>
      </trkpt>
      <trkpt lat="44.639" lon="5.0499">
        <ele>328</ele>
        <time>2018-06-10T12:11:55Z</time>
      </trkpt>
      <trkpt lat="44.63888" lon="5.04995">
        <ele>327</ele>
        <time>2018-06-10T12:11:57Z</time>
      </trkpt>
      <trkpt lat="44.63873" lon="5.05005">
        <ele>327</ele>
        <time>2018-06-10T12:11:59Z</time>
      </trkpt>
      <trkpt lat="44.63865" lon="5.05016">
        <ele>327</ele>
        <time>2018-06-10T12:12:01Z</time>
      </trkpt>
      <trkpt lat="44.63858" lon="5.05026">
        <ele>327</ele>
        <time>2018-06-10T12:12:03Z</time>
      </trkpt>
      <trkpt lat="44.63849" lon="5.05034">
        <ele>327</ele>
        <time>2018-06-10T12:12:05Z</time>
      </trkpt>
      <trkpt lat="44.6384" lon="5.05042">
        <ele>327</ele>
        <time>2018-06-10T12:12:07Z</time>
      </trkpt>
      <trkpt lat="44.63832" lon="5.0505">
        <ele>327</ele>
        <time>2018-06-10T12:12:09Z</time>
      </trkpt>
      <trkpt lat="44.63823" lon="5.05057">
        <ele>327</ele>
        <time>2018-06-10T12:12:11Z</time>
      </trkpt>
      <trkpt lat="44.63814" lon="5.05065">
        <ele>327</ele>
        <time>2018-06-10T12:12:13Z</time>
      </trkpt>
      <trkpt lat="44.63805" lon="5.05073">
        <ele>327</ele>
        <time>2018-06-10T12:12:15Z</time>
      </trkpt>
      <trkpt lat="44.63796" lon="5.0508">
        <ele>327</ele>
        <time>2018-06-10T12:12:17Z</time>
      </trkpt>
      <trkpt lat="44.63786" lon="5.05087">
        <ele>326</ele>
        <time>2018-06-10T12:12:19Z</time>
      </trkpt>
      <trkpt lat="44.63777" lon="5.05094">
        <ele>327</ele>
        <time>2018-06-10T12:12:21Z</time>
      </trkpt>
      <trkpt lat="44.63767" lon="5.05101">
        <ele>326</ele>
        <time>2018-06-10T12:12:23Z</time>
      </trkpt>
      <trkpt lat="44.63758" lon="5.05109">
        <ele>326</ele>
        <time>2018-06-10T12:12:25Z</time>
      </trkpt>
      <trkpt lat="44.6375" lon="5.05119">
        <ele>325</ele>
        <time>2018-06-10T12:12:27Z</time>
      </trkpt>
      <trkpt lat="44.63743" lon="5.05131">
        <ele>326</ele>
        <time>2018-06-10T12:12:29Z</time>
      </trkpt>
      <trkpt lat="44.63737" lon="5.05143">
        <ele>325</ele>
        <time>2018-06-10T12:12:32Z</time>
      </trkpt>
      <trkpt lat="44.63732" lon="5.05157">
        <ele>325</ele>
        <time>2018-06-10T12:12:34Z</time>
      </trkpt>
      <trkpt lat="44.63728" lon="5.05172">
        <ele>325</ele>
        <time>2018-06-10T12:12:36Z</time>
      </trkpt>
      <trkpt lat="44.63725" lon="5.05188">
        <ele>324</ele>
        <time>2018-06-10T12:12:38Z</time>
      </trkpt>
      <trkpt lat="44.63723" lon="5.05202">
        <ele>323</ele>
        <time>2018-06-10T12:12:40Z</time>
      </trkpt>
      <trkpt lat="44.6372" lon="5.05217">
        <ele>322</ele>
        <time>2018-06-10T12:12:42Z</time>
      </trkpt>
      <trkpt lat="44.63715" lon="5.05227">
        <ele>321</ele>
        <time>2018-06-10T12:12:44Z</time>
      </trkpt>
      <trkpt lat="44.63711" lon="5.05239">
        <ele>322</ele>
        <time>2018-06-10T12:12:46Z</time>
      </trkpt>
      <trkpt lat="44.6371" lon="5.05248">
        <ele>322</ele>
        <time>2018-06-10T12:12:48Z</time>
      </trkpt>
      <trkpt lat="44.63709" lon="5.05255">
        <ele>321</ele>
        <time>2018-06-10T12:12:50Z</time>
      </trkpt>
      <trkpt lat="44.63709" lon="5.0526">
        <ele>322</ele>
        <time>2018-06-10T12:12:52Z</time>
      </trkpt>
      <trkpt lat="44.63708" lon="5.05265">
        <ele>323</ele>
        <time>2018-06-10T12:12:54Z</time>
      </trkpt>
      <trkpt lat="44.63707" lon="5.0527">
        <ele>323</ele>
        <time>2018-06-10T12:12:56Z</time>
      </trkpt>
      <trkpt lat="44.63705" lon="5.05275">
        <ele>323</ele>
        <time>2018-06-10T12:12:58Z</time>
      </trkpt>
      <trkpt lat="44.63703" lon="5.0528">
        <ele>323</ele>
        <time>2018-06-10T12:13:00Z</time>
      </trkpt>
      <trkpt lat="44.63702" lon="5.05285">
        <ele>323</ele>
        <time>2018-06-10T12:13:02Z</time>
      </trkpt>
      <trkpt lat="44.63701" lon="5.0529">
        <ele>323</ele>
        <time>2018-06-10T12:13:04Z</time>
      </trkpt>
      <trkpt lat="44.63701" lon="5.05295">
        <ele>323</ele>
        <time>2018-06-10T12:13:06Z</time>
      </trkpt>
      <trkpt lat="44.63701" lon="5.05301">
        <ele>323</ele>
        <time>2018-06-10T12:13:09Z</time>
      </trkpt>
      <trkpt lat="44.63701" lon="5.05308">
        <ele>323</ele>
        <time>2018-06-10T12:13:11Z</time>
      </trkpt>
      <trkpt lat="44.637" lon="5.05314">
        <ele>323</ele>
        <time>2018-06-10T12:13:13Z</time>
      </trkpt>
      <trkpt lat="44.637" lon="5.05322">
        <ele>324</ele>
        <time>2018-06-10T12:13:15Z</time>
      </trkpt>
      <trkpt lat="44.63699" lon="5.05329">
        <ele>323</ele>
        <time>2018-06-10T12:13:17Z</time>
      </trkpt>
      <trkpt lat="44.63699" lon="5.05337">
        <ele>323</ele>
        <time>2018-06-10T12:13:19Z</time>
      </trkpt>
      <trkpt lat="44.63698" lon="5.05344">
        <ele>324</ele>
        <time>2018-06-10T12:13:21Z</time>
      </trkpt>
      <trkpt lat="44.63698" lon="5.05351">
        <ele>324</ele>
        <time>2018-06-10T12:13:23Z</time>
      </trkpt>
      <trkpt lat="44.63698" lon="5.05359">
        <ele>324</ele>
        <time>2018-06-10T12:13:25Z</time>
      </trkpt>
      <trkpt lat="44.63698" lon="5.05365">
        <ele>324</ele>
        <time>2018-06-10T12:13:27Z</time>
      </trkpt>
      <trkpt lat="44.63699" lon="5.05365">
        <ele>325</ele>
        <time>2018-06-10T12:13:29Z</time>
      </trkpt>
      <trkpt lat="44.63698" lon="5.05363">
        <ele>325</ele>
        <time>2018-06-10T12:13:31Z</time>
      </trkpt>
      <trkpt lat="44.63699" lon="5.05358">
        <ele>324</ele>
        <time>2018-06-10T12:13:33Z</time>
      </trkpt>
      <trkpt lat="44.63699" lon="5.05352">
        <ele>325</ele>
        <time>2018-06-10T12:13:35Z</time>
      </trkpt>
      <trkpt lat="44.63699" lon="5.05345">
        <ele>324</ele>
        <time>2018-06-10T12:13:37Z</time>
      </trkpt>
      <trkpt lat="44.63699" lon="5.05337">
        <ele>324</ele>
        <time>2018-06-10T12:13:39Z</time>
      </trkpt>
      <trkpt lat="44.63699" lon="5.05327">
        <ele>324</ele>
        <time>2018-06-10T12:13:41Z</time>
      </trkpt>
      <trkpt lat="44.637" lon="5.05318">
        <ele>324</ele>
        <time>2018-06-10T12:13:43Z</time>
      </trkpt>
      <trkpt lat="44.637" lon="5.05309">
        <ele>324</ele>
        <time>2018-06-10T12:13:45Z</time>
      </trkpt>
      <trkpt lat="44.637" lon="5.05299">
        <ele>324</ele>
        <time>2018-06-10T12:13:47Z</time>
      </trkpt>
      <trkpt lat="44.63701" lon="5.0529">
        <ele>324</ele>
        <time>2018-06-10T12:13:49Z</time>
      </trkpt>
      <trkpt lat="44.63702" lon="5.05283">
        <ele>323</ele>
        <time>2018-06-10T12:13:51Z</time>
      </trkpt>
      <trkpt lat="44.63703" lon="5.05278">
        <ele>323</ele>
        <time>2018-06-10T12:13:53Z</time>
      </trkpt>
      <trkpt lat="44.63704" lon="5.05276">
        <ele>322</ele>
        <time>2018-06-10T12:13:55Z</time>
      </trkpt>
      <trkpt lat="44.63704" lon="5.05274">
        <ele>322</ele>
        <time>2018-06-10T12:13:57Z</time>
      </trkpt>
      <trkpt lat="44.63703" lon="5.05274">
        <ele>322</ele>
        <time>2018-06-10T12:13:59Z</time>
      </trkpt>
      <trkpt lat="44.63704" lon="5.05275">
        <ele>318</ele>
        <time>2018-06-10T12:14:01Z</time>
      </trkpt>
      <trkpt lat="44.63703" lon="5.05278">
        <ele>318</ele>
        <time>2018-06-10T12:14:03Z</time>
      </trkpt>
      <trkpt lat="44.63703" lon="5.05281">
        <ele>318</ele>
        <time>2018-06-10T12:14:05Z</time>
      </trkpt>
      <trkpt lat="44.63703" lon="5.05281">
        <ele>318</ele>
        <time>2018-06-10T12:14:07Z</time>
      </trkpt>
      <trkpt lat="44.63702" lon="5.05284">
        <ele>318</ele>
        <time>2018-06-10T12:14:09Z</time>
      </trkpt>
      <trkpt lat="44.63701" lon="5.05288">
        <ele>319</ele>
        <time>2018-06-10T12:14:12Z</time>
      </trkpt>
      <trkpt lat="44.63701" lon="5.05294">
        <ele>319</ele>
        <time>2018-06-10T12:14:14Z</time>
      </trkpt>
      <trkpt lat="44.637" lon="5.05298">
        <ele>319</ele>
        <time>2018-06-10T12:14:16Z</time>
      </trkpt>
      <trkpt lat="44.637" lon="5.05305">
        <ele>319</ele>
        <time>2018-06-10T12:14:18Z</time>
      </trkpt>
      <trkpt lat="44.637" lon="5.05312">
        <ele>320</ele>
        <time>2018-06-10T12:14:20Z</time>
      </trkpt>
      <trkpt lat="44.63699" lon="5.05319">
        <ele>320</ele>
        <time>2018-06-10T12:14:22Z</time>
      </trkpt>
      <trkpt lat="44.63699" lon="5.05327">
        <ele>320</ele>
        <time>2018-06-10T12:14:24Z</time>
      </trkpt>
      <trkpt lat="44.63698" lon="5.05336">
        <ele>320</ele>
        <time>2018-06-10T12:14:26Z</time>
      </trkpt>
      <trkpt lat="44.63698" lon="5.05345">
        <ele>321</ele>
        <time>2018-06-10T12:14:28Z</time>
      </trkpt>
      <trkpt lat="44.63698" lon="5.05353">
        <ele>321</ele>
        <time>2018-06-10T12:14:30Z</time>
      </trkpt>
      <trkpt lat="44.63698" lon="5.05362">
        <ele>321</ele>
        <time>2018-06-10T12:14:32Z</time>
      </trkpt>
      <trkpt lat="44.63698" lon="5.05375">
        <ele>321</ele>
        <time>2018-06-10T12:14:34Z</time>
      </trkpt>
      <trkpt lat="44.63698" lon="5.05384">
        <ele>321</ele>
        <time>2018-06-10T12:14:36Z</time>
      </trkpt>
      <trkpt lat="44.63698" lon="5.05392">
        <ele>322</ele>
        <time>2018-06-10T12:14:38Z</time>
      </trkpt>
      <trkpt lat="44.63698" lon="5.05401">
        <ele>322</ele>
        <time>2018-06-10T12:14:40Z</time>
      </trkpt>
      <trkpt lat="44.63699" lon="5.0541">
        <ele>322</ele>
        <time>2018-06-10T12:14:42Z</time>
      </trkpt>
      <trkpt lat="44.637" lon="5.05418">
        <ele>322</ele>
        <time>2018-06-10T12:14:44Z</time>
      </trkpt>
      <trkpt lat="44.637" lon="5.05427">
        <ele>323</ele>
        <time>2018-06-10T12:14:46Z</time>
      </trkpt>
      <trkpt lat="44.63701" lon="5.05435">
        <ele>323</ele>
        <time>2018-06-10T12:14:48Z</time>
      </trkpt>
      <trkpt lat="44.63703" lon="5.05442">
        <ele>323</ele>
        <time>2018-06-10T12:14:50Z</time>
      </trkpt>
      <trkpt lat="44.63708" lon="5.05447">
        <ele>324</ele>
        <time>2018-06-10T12:14:52Z</time>
      </trkpt>
      <trkpt lat="44.63713" lon="5.0545">
        <ele>324</ele>
        <time>2018-06-10T12:14:54Z</time>
      </trkpt>
      <trkpt lat="44.63718" lon="5.05453">
        <ele>324</ele>
        <time>2018-06-10T12:14:56Z</time>
      </trkpt>
      <trkpt lat="44.63723" lon="5.05457">
        <ele>324</ele>
        <time>2018-06-10T12:14:58Z</time>
      </trkpt>
      <trkpt lat="44.63728" lon="5.0546">
        <ele>325</ele>
        <time>2018-06-10T12:15:00Z</time>
      </trkpt>
      <trkpt lat="44.63732" lon="5.05464">
        <ele>325</ele>
        <time>2018-06-10T12:15:02Z</time>
      </trkpt>
      <trkpt lat="44.63736" lon="5.05469">
        <ele>325</ele>
        <time>2018-06-10T12:15:04Z</time>
      </trkpt>
      <trkpt lat="44.63741" lon="5.05473">
        <ele>325</ele>
        <time>2018-06-10T12:15:06Z</time>
      </trkpt>
      <trkpt lat="44.63745" lon="5.05478">
        <ele>326</ele>
        <time>2018-06-10T12:15:08Z</time>
      </trkpt>
      <trkpt lat="44.63748" lon="5.05483">
        <ele>326</ele>
        <time>2018-06-10T12:15:10Z</time>
      </trkpt>
      <trkpt lat="44.63752" lon="5.05489">
        <ele>326</ele>
        <time>2018-06-10T12:15:12Z</time>
      </trkpt>
      <trkpt lat="44.63755" lon="5.05494">
        <ele>326</ele>
        <time>2018-06-10T12:15:14Z</time>
      </trkpt>
      <trkpt lat="44.63758" lon="5.05501">
        <ele>326</ele>
        <time>2018-06-10T12:15:16Z</time>
      </trkpt>
      <trkpt lat="44.63761" lon="5.05507">
        <ele>327</ele>
        <time>2018-06-10T12:15:18Z</time>
      </trkpt>
      <trkpt lat="44.63764" lon="5.05513">
        <ele>327</ele>
        <time>2018-06-10T12:15:20Z</time>
      </trkpt>
      <trkpt lat="44.63766" lon="5.0552">
        <ele>327</ele>
        <time>2018-06-10T12:15:22Z</time>
      </trkpt>
      <trkpt lat="44.63769" lon="5.05526">
        <ele>327</ele>
        <time>2018-06-10T12:15:25Z</time>
      </trkpt>
      <trkpt lat="44.63772" lon="5.05532">
        <ele>327</ele>
        <time>2018-06-10T12:15:27Z</time>
      </trkpt>
      <trkpt lat="44.63775" lon="5.05538">
        <ele>327</ele>
        <time>2018-06-10T12:15:29Z</time>
      </trkpt>
      <trkpt lat="44.63778" lon="5.05545">
        <ele>328</ele>
        <time>2018-06-10T12:15:31Z</time>
      </trkpt>
      <trkpt lat="44.63782" lon="5.05555">
        <ele>328</ele>
        <time>2018-06-10T12:15:33Z</time>
      </trkpt>
      <trkpt lat="44.63785" lon="5.05561">
        <ele>327</ele>
        <time>2018-06-10T12:15:35Z</time>
      </trkpt>
      <trkpt lat="44.63788" lon="5.05567">
        <ele>328</ele>
        <time>2018-06-10T12:15:37Z</time>
      </trkpt>
      <trkpt lat="44.63791" lon="5.05573">
        <ele>328</ele>
        <time>2018-06-10T12:15:39Z</time>
      </trkpt>
      <trkpt lat="44.63794" lon="5.05579">
        <ele>328</ele>
        <time>2018-06-10T12:15:41Z</time>
      </trkpt>
      <trkpt lat="44.63797" lon="5.05586">
        <ele>328</ele>
        <time>2018-06-10T12:15:43Z</time>
      </trkpt>
      <trkpt lat="44.638" lon="5.05592">
        <ele>328</ele>
        <time>2018-06-10T12:15:45Z</time>
      </trkpt>
      <trkpt lat="44.63803" lon="5.05598">
        <ele>328</ele>
        <time>2018-06-10T12:15:47Z</time>
      </trkpt>
      <trkpt lat="44.63805" lon="5.05604">
        <ele>329</ele>
        <time>2018-06-10T12:15:49Z</time>
      </trkpt>
      <trkpt lat="44.63808" lon="5.0561">
        <ele>328</ele>
        <time>2018-06-10T12:15:51Z</time>
      </trkpt>
      <trkpt lat="44.63811" lon="5.05616">
        <ele>329</ele>
        <time>2018-06-10T12:15:53Z</time>
      </trkpt>
      <trkpt lat="44.63813" lon="5.05622">
        <ele>329</ele>
        <time>2018-06-10T12:15:55Z</time>
      </trkpt>
      <trkpt lat="44.63816" lon="5.05628">
        <ele>329</ele>
        <time>2018-06-10T12:15:57Z</time>
      </trkpt>
      <trkpt lat="44.63818" lon="5.05634">
        <ele>329</ele>
        <time>2018-06-10T12:15:59Z</time>
      </trkpt>
      <trkpt lat="44.63821" lon="5.0564">
        <ele>330</ele>
        <time>2018-06-10T12:16:01Z</time>
      </trkpt>
      <trkpt lat="44.63824" lon="5.05646">
        <ele>330</ele>
        <time>2018-06-10T12:16:03Z</time>
      </trkpt>
      <trkpt lat="44.63826" lon="5.05654">
        <ele>329</ele>
        <time>2018-06-10T12:16:05Z</time>
      </trkpt>
      <trkpt lat="44.63828" lon="5.05662">
        <ele>329</ele>
        <time>2018-06-10T12:16:07Z</time>
      </trkpt>
      <trkpt lat="44.6383" lon="5.05672">
        <ele>330</ele>
        <time>2018-06-10T12:16:09Z</time>
      </trkpt>
      <trkpt lat="44.63833" lon="5.05681">
        <ele>329</ele>
        <time>2018-06-10T12:16:11Z</time>
      </trkpt>
      <trkpt lat="44.63837" lon="5.05691">
        <ele>329</ele>
        <time>2018-06-10T12:16:13Z</time>
      </trkpt>
      <trkpt lat="44.6384" lon="5.057">
        <ele>330</ele>
        <time>2018-06-10T12:16:16Z</time>
      </trkpt>
      <trkpt lat="44.63844" lon="5.05709">
        <ele>330</ele>
        <time>2018-06-10T12:16:18Z</time>
      </trkpt>
      <trkpt lat="44.63848" lon="5.05718">
        <ele>330</ele>
        <time>2018-06-10T12:16:20Z</time>
      </trkpt>
      <trkpt lat="44.63851" lon="5.05727">
        <ele>330</ele>
        <time>2018-06-10T12:16:22Z</time>
      </trkpt>
      <trkpt lat="44.63855" lon="5.05736">
        <ele>330</ele>
        <time>2018-06-10T12:16:24Z</time>
      </trkpt>
      <trkpt lat="44.63859" lon="5.05743">
        <ele>330</ele>
        <time>2018-06-10T12:16:26Z</time>
      </trkpt>
      <trkpt lat="44.63863" lon="5.05749">
        <ele>330</ele>
        <time>2018-06-10T12:16:28Z</time>
      </trkpt>
      <trkpt lat="44.63866" lon="5.05755">
        <ele>330</ele>
        <time>2018-06-10T12:16:30Z</time>
      </trkpt>
      <trkpt lat="44.6387" lon="5.05763">
        <ele>330</ele>
        <time>2018-06-10T12:16:32Z</time>
      </trkpt>
      <trkpt lat="44.63878" lon="5.05771">
        <ele>330</ele>
        <time>2018-06-10T12:16:34Z</time>
      </trkpt>
      <trkpt lat="44.63884" lon="5.05778">
        <ele>330</ele>
        <time>2018-06-10T12:16:36Z</time>
      </trkpt>
      <trkpt lat="44.6389" lon="5.05783">
        <ele>330</ele>
        <time>2018-06-10T12:16:38Z</time>
      </trkpt>
      <trkpt lat="44.63896" lon="5.05789">
        <ele>331</ele>
        <time>2018-06-10T12:16:40Z</time>
      </trkpt>
      <trkpt lat="44.63901" lon="5.05795">
        <ele>331</ele>
        <time>2018-06-10T12:16:42Z</time>
      </trkpt>
      <trkpt lat="44.63906" lon="5.05803">
        <ele>331</ele>
        <time>2018-06-10T12:16:44Z</time>
      </trkpt>
      <trkpt lat="44.63911" lon="5.0581">
        <ele>331</ele>
        <time>2018-06-10T12:16:46Z</time>
      </trkpt>
      <trkpt lat="44.63916" lon="5.05816">
        <ele>331</ele>
        <time>2018-06-10T12:16:48Z</time>
      </trkpt>
      <trkpt lat="44.63921" lon="5.05822">
        <ele>332</ele>
        <time>2018-06-10T12:16:50Z</time>
      </trkpt>
      <trkpt lat="44.63927" lon="5.05826">
        <ele>331</ele>
        <time>2018-06-10T12:16:52Z</time>
      </trkpt>
      <trkpt lat="44.63932" lon="5.05831">
        <ele>332</ele>
        <time>2018-06-10T12:16:54Z</time>
      </trkpt>
      <trkpt lat="44.63938" lon="5.05834">
        <ele>332</ele>
        <time>2018-06-10T12:16:56Z</time>
      </trkpt>
      <trkpt lat="44.63944" lon="5.05839">
        <ele>332</ele>
        <time>2018-06-10T12:16:58Z</time>
      </trkpt>
      <trkpt lat="44.63951" lon="5.05843">
        <ele>332</ele>
        <time>2018-06-10T12:17:00Z</time>
      </trkpt>
      <trkpt lat="44.63957" lon="5.05847">
        <ele>332</ele>
        <time>2018-06-10T12:17:02Z</time>
      </trkpt>
      <trkpt lat="44.63964" lon="5.05851">
        <ele>332</ele>
        <time>2018-06-10T12:17:04Z</time>
      </trkpt>
      <trkpt lat="44.6397" lon="5.05856">
        <ele>332</ele>
        <time>2018-06-10T12:17:06Z</time>
      </trkpt>
      <trkpt lat="44.63977" lon="5.05861">
        <ele>332</ele>
        <time>2018-06-10T12:17:08Z</time>
      </trkpt>
      <trkpt lat="44.63983" lon="5.05865">
        <ele>333</ele>
        <time>2018-06-10T12:17:10Z</time>
      </trkpt>
      <trkpt lat="44.6399" lon="5.05869">
        <ele>332</ele>
        <time>2018-06-10T12:17:12Z</time>
      </trkpt>
      <trkpt lat="44.63996" lon="5.05873">
        <ele>333</ele>
        <time>2018-06-10T12:17:14Z</time>
      </trkpt>
      <trkpt lat="44.64" lon="5.05881">
        <ele>333</ele>
        <time>2018-06-10T12:17:16Z</time>
      </trkpt>
      <trkpt lat="44.64004" lon="5.05889">
        <ele>333</ele>
        <time>2018-06-10T12:17:19Z</time>
      </trkpt>
      <trkpt lat="44.64007" lon="5.05898">
        <ele>333</ele>
        <time>2018-06-10T12:17:21Z</time>
      </trkpt>
      <trkpt lat="44.6401" lon="5.05908">
        <ele>333</ele>
        <time>2018-06-10T12:17:23Z</time>
      </trkpt>
      <trkpt lat="44.64014" lon="5.05923">
        <ele>334</ele>
        <time>2018-06-10T12:17:25Z</time>
      </trkpt>
      <trkpt lat="44.64014" lon="5.05927">
        <ele>334</ele>
        <time>2018-06-10T12:17:27Z</time>
      </trkpt>
      <trkpt lat="44.64017" lon="5.05932">
        <ele>334</ele>
        <time>2018-06-10T12:17:29Z</time>
      </trkpt>
      <trkpt lat="44.64019" lon="5.05938">
        <ele>334</ele>
        <time>2018-06-10T12:17:31Z</time>
      </trkpt>
      <trkpt lat="44.64021" lon="5.05943">
        <ele>334</ele>
        <time>2018-06-10T12:17:33Z</time>
      </trkpt>
      <trkpt lat="44.64023" lon="5.05952">
        <ele>335</ele>
        <time>2018-06-10T12:17:35Z</time>
      </trkpt>
      <trkpt lat="44.64025" lon="5.05959">
        <ele>335</ele>
        <time>2018-06-10T12:17:37Z</time>
      </trkpt>
      <trkpt lat="44.64027" lon="5.05966">
        <ele>335</ele>
        <time>2018-06-10T12:17:39Z</time>
      </trkpt>
      <trkpt lat="44.64029" lon="5.05973">
        <ele>335</ele>
        <time>2018-06-10T12:17:41Z</time>
      </trkpt>
      <trkpt lat="44.64031" lon="5.05978">
        <ele>335</ele>
        <time>2018-06-10T12:17:43Z</time>
      </trkpt>
      <trkpt lat="44.64032" lon="5.05984">
        <ele>336</ele>
        <time>2018-06-10T12:17:45Z</time>
      </trkpt>
      <trkpt lat="44.64034" lon="5.0599">
        <ele>336</ele>
        <time>2018-06-10T12:17:47Z</time>
      </trkpt>
      <trkpt lat="44.64034" lon="5.05996">
        <ele>336</ele>
        <time>2018-06-10T12:17:49Z</time>
      </trkpt>
      <trkpt lat="44.64035" lon="5.06002">
        <ele>336</ele>
        <time>2018-06-10T12:17:51Z</time>
      </trkpt>
      <trkpt lat="44.64036" lon="5.0601">
        <ele>337</ele>
        <time>2018-06-10T12:17:53Z</time>
      </trkpt>
      <trkpt lat="44.6404" lon="5.06018">
        <ele>337</ele>
        <time>2018-06-10T12:17:55Z</time>
      </trkpt>
      <trkpt lat="44.64045" lon="5.06023">
        <ele>337</ele>
        <time>2018-06-10T12:17:57Z</time>
      </trkpt>
      <trkpt lat="44.64051" lon="5.06028">
        <ele>337</ele>
        <time>2018-06-10T12:17:59Z</time>
      </trkpt>
      <trkpt lat="44.64057" lon="5.06032">
        <ele>337</ele>
        <time>2018-06-10T12:18:01Z</time>
      </trkpt>
      <trkpt lat="44.64063" lon="5.06036">
        <ele>337</ele>
        <time>2018-06-10T12:18:03Z</time>
      </trkpt>
      <trkpt lat="44.64068" lon="5.06042">
        <ele>337</ele>
        <time>2018-06-10T12:18:05Z</time>
      </trkpt>
      <trkpt lat="44.64073" lon="5.06047">
        <ele>338</ele>
        <time>2018-06-10T12:18:07Z</time>
      </trkpt>
      <trkpt lat="44.64078" lon="5.06053">
        <ele>337</ele>
        <time>2018-06-10T12:18:09Z</time>
      </trkpt>
      <trkpt lat="44.64083" lon="5.06059">
        <ele>338</ele>
        <time>2018-06-10T12:18:11Z</time>
      </trkpt>
      <trkpt lat="44.64088" lon="5.06065">
        <ele>338</ele>
        <time>2018-06-10T12:18:13Z</time>
      </trkpt>
      <trkpt lat="44.64093" lon="5.06071">
        <ele>338</ele>
        <time>2018-06-10T12:18:16Z</time>
      </trkpt>
      <trkpt lat="44.64099" lon="5.06076">
        <ele>338</ele>
        <time>2018-06-10T12:18:18Z</time>
      </trkpt>
      <trkpt lat="44.64104" lon="5.06081">
        <ele>338</ele>
        <time>2018-06-10T12:18:20Z</time>
      </trkpt>
      <trkpt lat="44.6411" lon="5.06086">
        <ele>338</ele>
        <time>2018-06-10T12:18:22Z</time>
      </trkpt>
      <trkpt lat="44.64115" lon="5.06091">
        <ele>339</ele>
        <time>2018-06-10T12:18:24Z</time>
      </trkpt>
      <trkpt lat="44.64121" lon="5.06096">
        <ele>339</ele>
        <time>2018-06-10T12:18:26Z</time>
      </trkpt>
      <trkpt lat="44.64129" lon="5.06102">
        <ele>339</ele>
        <time>2018-06-10T12:18:28Z</time>
      </trkpt>
      <trkpt lat="44.64133" lon="5.06107">
        <ele>339</ele>
        <time>2018-06-10T12:18:30Z</time>
      </trkpt>
      <trkpt lat="44.64138" lon="5.06112">
        <ele>339</ele>
        <time>2018-06-10T12:18:32Z</time>
      </trkpt>
      <trkpt lat="44.64144" lon="5.06116">
        <ele>339</ele>
        <time>2018-06-10T12:18:34Z</time>
      </trkpt>
      <trkpt lat="44.6415" lon="5.0612">
        <ele>339</ele>
        <time>2018-06-10T12:18:36Z</time>
      </trkpt>
      <trkpt lat="44.64156" lon="5.06124">
        <ele>340</ele>
        <time>2018-06-10T12:18:38Z</time>
      </trkpt>
      <trkpt lat="44.64162" lon="5.06129">
        <ele>340</ele>
        <time>2018-06-10T12:18:40Z</time>
      </trkpt>
      <trkpt lat="44.64168" lon="5.06133">
        <ele>340</ele>
        <time>2018-06-10T12:18:42Z</time>
      </trkpt>
      <trkpt lat="44.64174" lon="5.06137">
        <ele>340</ele>
        <time>2018-06-10T12:18:44Z</time>
      </trkpt>
      <trkpt lat="44.6418" lon="5.06142">
        <ele>340</ele>
        <time>2018-06-10T12:18:46Z</time>
      </trkpt>
      <trkpt lat="44.64187" lon="5.06148">
        <ele>340</ele>
        <time>2018-06-10T12:18:48Z</time>
      </trkpt>
      <trkpt lat="44.64193" lon="5.06154">
        <ele>340</ele>
        <time>2018-06-10T12:18:50Z</time>
      </trkpt>
      <trkpt lat="44.642" lon="5.0616">
        <ele>340</ele>
        <time>2018-06-10T12:18:52Z</time>
      </trkpt>
      <trkpt lat="44.64207" lon="5.06167">
        <ele>341</ele>
        <time>2018-06-10T12:18:54Z</time>
      </trkpt>
      <trkpt lat="44.64214" lon="5.06173">
        <ele>340</ele>
        <time>2018-06-10T12:18:56Z</time>
      </trkpt>
      <trkpt lat="44.64222" lon="5.06179">
        <ele>341</ele>
        <time>2018-06-10T12:18:58Z</time>
      </trkpt>
      <trkpt lat="44.64231" lon="5.06184">
        <ele>340</ele>
        <time>2018-06-10T12:19:00Z</time>
      </trkpt>
      <trkpt lat="44.6424" lon="5.06187">
        <ele>340</ele>
        <time>2018-06-10T12:19:02Z</time>
      </trkpt>
      <trkpt lat="44.6425" lon="5.06188">
        <ele>341</ele>
        <time>2018-06-10T12:19:04Z</time>
      </trkpt>
      <trkpt lat="44.64261" lon="5.06189">
        <ele>340</ele>
        <time>2018-06-10T12:19:07Z</time>
      </trkpt>
      <trkpt lat="44.64271" lon="5.06191">
        <ele>340</ele>
        <time>2018-06-10T12:19:09Z</time>
      </trkpt>
      <trkpt lat="44.64282" lon="5.06191">
        <ele>340</ele>
        <time>2018-06-10T12:19:11Z</time>
      </trkpt>
      <trkpt lat="44.64292" lon="5.06192">
        <ele>341</ele>
        <time>2018-06-10T12:19:13Z</time>
      </trkpt>
      <trkpt lat="44.64303" lon="5.06192">
        <ele>340</ele>
        <time>2018-06-10T12:19:15Z</time>
      </trkpt>
      <trkpt lat="44.64313" lon="5.06193">
        <ele>340</ele>
        <time>2018-06-10T12:19:17Z</time>
      </trkpt>
      <trkpt lat="44.64323" lon="5.06193">
        <ele>340</ele>
        <time>2018-06-10T12:19:19Z</time>
      </trkpt>
      <trkpt lat="44.64333" lon="5.06194">
        <ele>341</ele>
        <time>2018-06-10T12:19:21Z</time>
      </trkpt>
      <trkpt lat="44.64343" lon="5.06195">
        <ele>341</ele>
        <time>2018-06-10T12:19:23Z</time>
      </trkpt>
      <trkpt lat="44.64357" lon="5.06195">
        <ele>341</ele>
        <time>2018-06-10T12:19:25Z</time>
      </trkpt>
      <trkpt lat="44.64367" lon="5.06196">
        <ele>341</ele>
        <time>2018-06-10T12:19:27Z</time>
      </trkpt>
      <trkpt lat="44.64377" lon="5.06196">
        <ele>341</ele>
        <time>2018-06-10T12:19:29Z</time>
      </trkpt>
      <trkpt lat="44.64387" lon="5.06197">
        <ele>340</ele>
        <time>2018-06-10T12:19:31Z</time>
      </trkpt>
      <trkpt lat="44.64397" lon="5.06198">
        <ele>340</ele>
        <time>2018-06-10T12:19:33Z</time>
      </trkpt>
      <trkpt lat="44.64406" lon="5.06198">
        <ele>340</ele>
        <time>2018-06-10T12:19:35Z</time>
      </trkpt>
      <trkpt lat="44.64416" lon="5.06198">
        <ele>340</ele>
        <time>2018-06-10T12:19:37Z</time>
      </trkpt>
      <trkpt lat="44.64426" lon="5.06199">
        <ele>340</ele>
        <time>2018-06-10T12:19:39Z</time>
      </trkpt>
      <trkpt lat="44.64436" lon="5.062">
        <ele>341</ele>
        <time>2018-06-10T12:19:41Z</time>
      </trkpt>
      <trkpt lat="44.64445" lon="5.06201">
        <ele>341</ele>
        <time>2018-06-10T12:19:43Z</time>
      </trkpt>
      <trkpt lat="44.64455" lon="5.06201">
        <ele>341</ele>
        <time>2018-06-10T12:19:45Z</time>
      </trkpt>
      <trkpt lat="44.64464" lon="5.062">
        <ele>341</ele>
        <time>2018-06-10T12:19:47Z</time>
      </trkpt>
      <trkpt lat="44.64474" lon="5.06198">
        <ele>341</ele>
        <time>2018-06-10T12:19:49Z</time>
      </trkpt>
      <trkpt lat="44.64482" lon="5.06192">
        <ele>341</ele>
        <time>2018-06-10T12:19:51Z</time>
      </trkpt>
      <trkpt lat="44.6449" lon="5.06185">
        <ele>341</ele>
        <time>2018-06-10T12:19:53Z</time>
      </trkpt>
      <trkpt lat="44.64497" lon="5.06178">
        <ele>341</ele>
        <time>2018-06-10T12:19:55Z</time>
      </trkpt>
      <trkpt lat="44.64504" lon="5.06171">
        <ele>341</ele>
        <time>2018-06-10T12:19:57Z</time>
      </trkpt>
      <trkpt lat="44.64512" lon="5.06168">
        <ele>341</ele>
        <time>2018-06-10T12:19:59Z</time>
      </trkpt>
      <trkpt lat="44.64521" lon="5.06169">
        <ele>341</ele>
        <time>2018-06-10T12:20:01Z</time>
      </trkpt>
      <trkpt lat="44.64529" lon="5.06174">
        <ele>341</ele>
        <time>2018-06-10T12:20:03Z</time>
      </trkpt>
      <trkpt lat="44.64535" lon="5.06181">
        <ele>342</ele>
        <time>2018-06-10T12:20:05Z</time>
      </trkpt>
      <trkpt lat="44.64543" lon="5.06189">
        <ele>341</ele>
        <time>2018-06-10T12:20:07Z</time>
      </trkpt>
      <trkpt lat="44.64549" lon="5.06197">
        <ele>342</ele>
        <time>2018-06-10T12:20:09Z</time>
      </trkpt>
      <trkpt lat="44.64555" lon="5.06204">
        <ele>342</ele>
        <time>2018-06-10T12:20:11Z</time>
      </trkpt>
      <trkpt lat="44.64557" lon="5.06216">
        <ele>342</ele>
        <time>2018-06-10T12:20:14Z</time>
      </trkpt>
      <trkpt lat="44.64558" lon="5.06228">
        <ele>342</ele>
        <time>2018-06-10T12:20:16Z</time>
      </trkpt>
      <trkpt lat="44.6456" lon="5.06241">
        <ele>342</ele>
        <time>2018-06-10T12:20:18Z</time>
      </trkpt>
      <trkpt lat="44.64567" lon="5.06257">
        <ele>342</ele>
        <time>2018-06-10T12:20:20Z</time>
      </trkpt>
      <trkpt lat="44.64573" lon="5.06268">
        <ele>342</ele>
        <time>2018-06-10T12:20:22Z</time>
      </trkpt>
      <trkpt lat="44.64579" lon="5.06279">
        <ele>343</ele>
        <time>2018-06-10T12:20:24Z</time>
      </trkpt>
      <trkpt lat="44.64581" lon="5.06291">
        <ele>343</ele>
        <time>2018-06-10T12:20:26Z</time>
      </trkpt>
      <trkpt lat="44.64582" lon="5.06298">
        <ele>343</ele>
        <time>2018-06-10T12:20:28Z</time>
      </trkpt>
      <trkpt lat="44.64587" lon="5.0631">
        <ele>343</ele>
        <time>2018-06-10T12:20:30Z</time>
      </trkpt>
      <trkpt lat="44.64594" lon="5.06323">
        <ele>343</ele>
        <time>2018-06-10T12:20:32Z</time>
      </trkpt>
      <trkpt lat="44.64599" lon="5.06333">
        <ele>344</ele>
        <time>2018-06-10T12:20:34Z</time>
      </trkpt>
      <trkpt lat="44.64603" lon="5.06342">
        <ele>344</ele>
        <time>2018-06-10T12:20:36Z</time>
      </trkpt>
      <trkpt lat="44.64607" lon="5.0635">
        <ele>344</ele>
        <time>2018-06-10T12:20:38Z</time>
      </trkpt>
      <trkpt lat="44.64612" lon="5.06362">
        <ele>344</ele>
        <time>2018-06-10T12:20:40Z</time>
      </trkpt>
      <trkpt lat="44.64615" lon="5.06368">
        <ele>344</ele>
        <time>2018-06-10T12:20:42Z</time>
      </trkpt>
      <trkpt lat="44.64618" lon="5.06376">
        <ele>345</ele>
        <time>2018-06-10T12:20:44Z</time>
      </trkpt>
      <trkpt lat="44.64623" lon="5.06382">
        <ele>344</ele>
        <time>2018-06-10T12:20:46Z</time>
      </trkpt>
      <trkpt lat="44.64628" lon="5.06389">
        <ele>344</ele>
        <time>2018-06-10T12:20:48Z</time>
      </trkpt>
      <trkpt lat="44.64632" lon="5.06393">
        <ele>345</ele>
        <time>2018-06-10T12:20:50Z</time>
      </trkpt>
      <trkpt lat="44.64635" lon="5.06392">
        <ele>345</ele>
        <time>2018-06-10T12:20:52Z</time>
      </trkpt>
      <trkpt lat="44.64639" lon="5.06391">
        <ele>345</ele>
        <time>2018-06-10T12:20:54Z</time>
      </trkpt>
      <trkpt lat="44.6464" lon="5.06391">
        <ele>345</ele>
        <time>2018-06-10T12:20:56Z</time>
      </trkpt>
      <trkpt lat="44.64642" lon="5.06391">
        <ele>345</ele>
        <time>2018-06-10T12:20:58Z</time>
      </trkpt>
      <trkpt lat="44.64644" lon="5.06387">
        <ele>345</ele>
        <time>2018-06-10T12:21:01Z</time>
      </trkpt>
      <trkpt lat="44.64644" lon="5.06386">
        <ele>345</ele>
        <time>2018-06-10T12:21:03Z</time>
      </trkpt>
      <trkpt lat="44.64644" lon="5.06384">
        <ele>345</ele>
        <time>2018-06-10T12:21:05Z</time>
      </trkpt>
      <trkpt lat="44.64644" lon="5.06381">
        <ele>345</ele>
        <time>2018-06-10T12:21:07Z</time>
      </trkpt>
      <trkpt lat="44.64644" lon="5.06381">
        <ele>345</ele>
        <time>2018-06-10T12:21:08Z</time>
      </trkpt>
    </trkseg>
  </trk>
</gpx>